<?xml version="1.0" encoding="UTF-8" standalone="no" ?>
<gpx xmlns="http://www.topografix.com/GPX/1/1" xmlns:xsi="http://www.w3.org/2001/XMLSchema-instance" xsi:schemaLocation="http://www.topografix.com/GPX/1/1 http://www.topografix.com/GPX/1/1/gpx.xsd" version="1.1" creator="VisuGPX - https://www.visugpx.com">
  <metadata>
    <name>2018-09-01 Bike ride-Le Saule d'Oingt-Oingt v51k</name>
    <desc><![CDATA[2018-09-01 Bike ride-Le Saule d'Oingt-Oingt v51k]]></desc>
  </metadata>
  <wpt lat="45.92452" lon="4.73742">
    <ele>174</ele>
    <name><![CDATA[2018-09-01 10:21 (Start)]]></name>
  </wpt>
  <wpt lat="45.92461" lon="4.73708">
    <ele>174</ele>
    <name><![CDATA[2018-09-01 10:21 (End)]]></name>
  </wpt>
  <trk>
    <name><![CDATA[2018-09-01 10:21]]></name>
    <trkseg>
      <trkpt lat="45.92452" lon="4.73742">
        <ele>174</ele>
        <time>2018-09-01T08:21:00.541Z</time>
      </trkpt>
      <trkpt lat="45.92453" lon="4.73723">
        <ele>174</ele>
        <time>2018-09-01T08:21:01.81Z</time>
      </trkpt>
      <trkpt lat="45.92462" lon="4.73723">
        <ele>174</ele>
        <time>2018-09-01T08:21:07.816Z</time>
      </trkpt>
      <trkpt lat="45.92464" lon="4.73723">
        <ele>174</ele>
        <time>2018-09-01T08:21:08.816Z</time>
      </trkpt>
      <trkpt lat="45.92466" lon="4.73725">
        <ele>174</ele>
        <time>2018-09-01T08:21:09.816Z</time>
      </trkpt>
      <trkpt lat="45.92467" lon="4.73726">
        <ele>174</ele>
        <time>2018-09-01T08:21:10.816Z</time>
      </trkpt>
      <trkpt lat="45.92467" lon="4.73723">
        <ele>174</ele>
        <time>2018-09-01T08:21:11.816Z</time>
      </trkpt>
      <trkpt lat="45.92467" lon="4.73722">
        <ele>174</ele>
        <time>2018-09-01T08:21:12.816Z</time>
      </trkpt>
      <trkpt lat="45.92469" lon="4.73719">
        <ele>174</ele>
        <time>2018-09-01T08:21:13.811Z</time>
      </trkpt>
      <trkpt lat="45.92475" lon="4.73713">
        <ele>174</ele>
        <time>2018-09-01T08:21:15Z</time>
      </trkpt>
      <trkpt lat="45.92476" lon="4.7371">
        <ele>174</ele>
        <time>2018-09-01T08:21:16Z</time>
      </trkpt>
      <trkpt lat="45.92468" lon="4.73705">
        <ele>174</ele>
        <time>2018-09-01T08:21:22Z</time>
      </trkpt>
      <trkpt lat="45.92467" lon="4.73706">
        <ele>174</ele>
        <time>2018-09-01T08:21:23Z</time>
      </trkpt>
      <trkpt lat="45.92472" lon="4.73698">
        <ele>174</ele>
        <time>2018-09-01T08:21:34Z</time>
      </trkpt>
      <trkpt lat="45.92474" lon="4.73694">
        <ele>174</ele>
        <time>2018-09-01T08:21:35Z</time>
      </trkpt>
      <trkpt lat="45.92475" lon="4.73691">
        <ele>174</ele>
        <time>2018-09-01T08:21:36Z</time>
      </trkpt>
      <trkpt lat="45.92481" lon="4.73672">
        <ele>175</ele>
        <time>2018-09-01T08:21:37Z</time>
      </trkpt>
      <trkpt lat="45.92482" lon="4.73666">
        <ele>174</ele>
        <time>2018-09-01T08:21:39Z</time>
      </trkpt>
      <trkpt lat="45.92481" lon="4.73655">
        <ele>174</ele>
        <time>2018-09-01T08:21:40Z</time>
      </trkpt>
      <trkpt lat="45.92478" lon="4.73645">
        <ele>174</ele>
        <time>2018-09-01T08:21:42Z</time>
      </trkpt>
      <trkpt lat="45.92478" lon="4.73642">
        <ele>174</ele>
        <time>2018-09-01T08:21:43Z</time>
      </trkpt>
      <trkpt lat="45.92479" lon="4.73635">
        <ele>174</ele>
        <time>2018-09-01T08:21:45Z</time>
      </trkpt>
      <trkpt lat="45.9248" lon="4.73626">
        <ele>174</ele>
        <time>2018-09-01T08:21:46Z</time>
      </trkpt>
      <trkpt lat="45.92479" lon="4.73616">
        <ele>174</ele>
        <time>2018-09-01T08:21:48Z</time>
      </trkpt>
      <trkpt lat="45.92477" lon="4.7361">
        <ele>174</ele>
        <time>2018-09-01T08:21:49Z</time>
      </trkpt>
      <trkpt lat="45.92476" lon="4.736">
        <ele>174</ele>
        <time>2018-09-01T08:21:51Z</time>
      </trkpt>
      <trkpt lat="45.92475" lon="4.73594">
        <ele>174</ele>
        <time>2018-09-01T08:21:52Z</time>
      </trkpt>
      <trkpt lat="45.92473" lon="4.73582">
        <ele>173</ele>
        <time>2018-09-01T08:21:54Z</time>
      </trkpt>
      <trkpt lat="45.92472" lon="4.73576">
        <ele>173</ele>
        <time>2018-09-01T08:21:55Z</time>
      </trkpt>
      <trkpt lat="45.92473" lon="4.7357">
        <ele>173</ele>
        <time>2018-09-01T08:21:56Z</time>
      </trkpt>
      <trkpt lat="45.92473" lon="4.73563">
        <ele>173</ele>
        <time>2018-09-01T08:21:57Z</time>
      </trkpt>
      <trkpt lat="45.92471" lon="4.73551">
        <ele>173</ele>
        <time>2018-09-01T08:21:59Z</time>
      </trkpt>
      <trkpt lat="45.92471" lon="4.73549">
        <ele>173</ele>
        <time>2018-09-01T08:22:00Z</time>
      </trkpt>
      <trkpt lat="45.92471" lon="4.73542">
        <ele>173</ele>
        <time>2018-09-01T08:22:02Z</time>
      </trkpt>
      <trkpt lat="45.92471" lon="4.73531">
        <ele>174</ele>
        <time>2018-09-01T08:22:03Z</time>
      </trkpt>
      <trkpt lat="45.92471" lon="4.7352">
        <ele>174</ele>
        <time>2018-09-01T08:22:05Z</time>
      </trkpt>
      <trkpt lat="45.9247" lon="4.73514">
        <ele>174</ele>
        <time>2018-09-01T08:22:06Z</time>
      </trkpt>
      <trkpt lat="45.9247" lon="4.73506">
        <ele>174</ele>
        <time>2018-09-01T08:22:07Z</time>
      </trkpt>
      <trkpt lat="45.9247" lon="4.73499">
        <ele>173</ele>
        <time>2018-09-01T08:22:08Z</time>
      </trkpt>
      <trkpt lat="45.9247" lon="4.7349">
        <ele>173</ele>
        <time>2018-09-01T08:22:09Z</time>
      </trkpt>
      <trkpt lat="45.9247" lon="4.73483">
        <ele>173</ele>
        <time>2018-09-01T08:22:10Z</time>
      </trkpt>
      <trkpt lat="45.92469" lon="4.73471">
        <ele>173</ele>
        <time>2018-09-01T08:22:12Z</time>
      </trkpt>
      <trkpt lat="45.9247" lon="4.73465">
        <ele>173</ele>
        <time>2018-09-01T08:22:13Z</time>
      </trkpt>
      <trkpt lat="45.92471" lon="4.73455">
        <ele>173</ele>
        <time>2018-09-01T08:22:15Z</time>
      </trkpt>
      <trkpt lat="45.92469" lon="4.73447">
        <ele>173</ele>
        <time>2018-09-01T08:22:16Z</time>
      </trkpt>
      <trkpt lat="45.92467" lon="4.73441">
        <ele>173</ele>
        <time>2018-09-01T08:22:17Z</time>
      </trkpt>
      <trkpt lat="45.92465" lon="4.73434">
        <ele>173</ele>
        <time>2018-09-01T08:22:18Z</time>
      </trkpt>
      <trkpt lat="45.92459" lon="4.73426">
        <ele>173</ele>
        <time>2018-09-01T08:22:20Z</time>
      </trkpt>
      <trkpt lat="45.92454" lon="4.73421">
        <ele>173</ele>
        <time>2018-09-01T08:22:21Z</time>
      </trkpt>
      <trkpt lat="45.92447" lon="4.73418">
        <ele>173</ele>
        <time>2018-09-01T08:22:22Z</time>
      </trkpt>
      <trkpt lat="45.92442" lon="4.73416">
        <ele>172</ele>
        <time>2018-09-01T08:22:23Z</time>
      </trkpt>
      <trkpt lat="45.92438" lon="4.73412">
        <ele>172</ele>
        <time>2018-09-01T08:22:24Z</time>
      </trkpt>
      <trkpt lat="45.92434" lon="4.73408">
        <ele>172</ele>
        <time>2018-09-01T08:22:25Z</time>
      </trkpt>
      <trkpt lat="45.9243" lon="4.73397">
        <ele>172</ele>
        <time>2018-09-01T08:22:27Z</time>
      </trkpt>
      <trkpt lat="45.92427" lon="4.73391">
        <ele>172</ele>
        <time>2018-09-01T08:22:28Z</time>
      </trkpt>
      <trkpt lat="45.92428" lon="4.73383">
        <ele>172</ele>
        <time>2018-09-01T08:22:29Z</time>
      </trkpt>
      <trkpt lat="45.92424" lon="4.73375">
        <ele>172</ele>
        <time>2018-09-01T08:22:30Z</time>
      </trkpt>
      <trkpt lat="45.92425" lon="4.73367">
        <ele>172</ele>
        <time>2018-09-01T08:22:31Z</time>
      </trkpt>
      <trkpt lat="45.92425" lon="4.73362">
        <ele>172</ele>
        <time>2018-09-01T08:22:32Z</time>
      </trkpt>
      <trkpt lat="45.92423" lon="4.73354">
        <ele>171</ele>
        <time>2018-09-01T08:22:33Z</time>
      </trkpt>
      <trkpt lat="45.92422" lon="4.73347">
        <ele>171</ele>
        <time>2018-09-01T08:22:34Z</time>
      </trkpt>
      <trkpt lat="45.92421" lon="4.73334">
        <ele>171</ele>
        <time>2018-09-01T08:22:36Z</time>
      </trkpt>
      <trkpt lat="45.92421" lon="4.73328">
        <ele>171</ele>
        <time>2018-09-01T08:22:37Z</time>
      </trkpt>
      <trkpt lat="45.92421" lon="4.7332">
        <ele>171</ele>
        <time>2018-09-01T08:22:38Z</time>
      </trkpt>
      <trkpt lat="45.92419" lon="4.73313">
        <ele>171</ele>
        <time>2018-09-01T08:22:39Z</time>
      </trkpt>
      <trkpt lat="45.92418" lon="4.73306">
        <ele>171</ele>
        <time>2018-09-01T08:22:40Z</time>
      </trkpt>
      <trkpt lat="45.92418" lon="4.73299">
        <ele>171</ele>
        <time>2018-09-01T08:22:41Z</time>
      </trkpt>
      <trkpt lat="45.92416" lon="4.73292">
        <ele>171</ele>
        <time>2018-09-01T08:22:42Z</time>
      </trkpt>
      <trkpt lat="45.92416" lon="4.73285">
        <ele>171</ele>
        <time>2018-09-01T08:22:43Z</time>
      </trkpt>
      <trkpt lat="45.92415" lon="4.73278">
        <ele>171</ele>
        <time>2018-09-01T08:22:44Z</time>
      </trkpt>
      <trkpt lat="45.92415" lon="4.73269">
        <ele>171</ele>
        <time>2018-09-01T08:22:45Z</time>
      </trkpt>
      <trkpt lat="45.92414" lon="4.73262">
        <ele>171</ele>
        <time>2018-09-01T08:22:46Z</time>
      </trkpt>
      <trkpt lat="45.92414" lon="4.73256">
        <ele>171</ele>
        <time>2018-09-01T08:22:47Z</time>
      </trkpt>
      <trkpt lat="45.92413" lon="4.73247">
        <ele>171</ele>
        <time>2018-09-01T08:22:48Z</time>
      </trkpt>
      <trkpt lat="45.92412" lon="4.73239">
        <ele>171</ele>
        <time>2018-09-01T08:22:49Z</time>
      </trkpt>
      <trkpt lat="45.92412" lon="4.73232">
        <ele>171</ele>
        <time>2018-09-01T08:22:50Z</time>
      </trkpt>
      <trkpt lat="45.92411" lon="4.73224">
        <ele>171</ele>
        <time>2018-09-01T08:22:51Z</time>
      </trkpt>
      <trkpt lat="45.92411" lon="4.73217">
        <ele>171</ele>
        <time>2018-09-01T08:22:52Z</time>
      </trkpt>
      <trkpt lat="45.9241" lon="4.73208">
        <ele>171</ele>
        <time>2018-09-01T08:22:53Z</time>
      </trkpt>
      <trkpt lat="45.9241" lon="4.732">
        <ele>171</ele>
        <time>2018-09-01T08:22:54Z</time>
      </trkpt>
      <trkpt lat="45.92411" lon="4.73193">
        <ele>171</ele>
        <time>2018-09-01T08:22:55Z</time>
      </trkpt>
      <trkpt lat="45.92411" lon="4.73186">
        <ele>171</ele>
        <time>2018-09-01T08:22:56Z</time>
      </trkpt>
      <trkpt lat="45.9241" lon="4.73177">
        <ele>171</ele>
        <time>2018-09-01T08:22:57Z</time>
      </trkpt>
      <trkpt lat="45.9241" lon="4.73173">
        <ele>170</ele>
        <time>2018-09-01T08:22:58Z</time>
      </trkpt>
      <trkpt lat="45.92409" lon="4.73164">
        <ele>170</ele>
        <time>2018-09-01T08:22:59Z</time>
      </trkpt>
      <trkpt lat="45.92409" lon="4.73152">
        <ele>171</ele>
        <time>2018-09-01T08:23:01Z</time>
      </trkpt>
      <trkpt lat="45.92411" lon="4.73146">
        <ele>171</ele>
        <time>2018-09-01T08:23:02Z</time>
      </trkpt>
      <trkpt lat="45.9241" lon="4.7314">
        <ele>171</ele>
        <time>2018-09-01T08:23:03Z</time>
      </trkpt>
      <trkpt lat="45.9241" lon="4.73133">
        <ele>171</ele>
        <time>2018-09-01T08:23:04Z</time>
      </trkpt>
      <trkpt lat="45.92413" lon="4.73122">
        <ele>171</ele>
        <time>2018-09-01T08:23:06Z</time>
      </trkpt>
      <trkpt lat="45.92417" lon="4.73118">
        <ele>170</ele>
        <time>2018-09-01T08:23:07Z</time>
      </trkpt>
      <trkpt lat="45.9242" lon="4.73114">
        <ele>170</ele>
        <time>2018-09-01T08:23:08Z</time>
      </trkpt>
      <trkpt lat="45.92424" lon="4.73109">
        <ele>170</ele>
        <time>2018-09-01T08:23:09Z</time>
      </trkpt>
      <trkpt lat="45.92428" lon="4.73106">
        <ele>171</ele>
        <time>2018-09-01T08:23:10Z</time>
      </trkpt>
      <trkpt lat="45.92432" lon="4.73103">
        <ele>170</ele>
        <time>2018-09-01T08:23:11Z</time>
      </trkpt>
      <trkpt lat="45.92436" lon="4.73099">
        <ele>170</ele>
        <time>2018-09-01T08:23:12Z</time>
      </trkpt>
      <trkpt lat="45.92441" lon="4.73095">
        <ele>170</ele>
        <time>2018-09-01T08:23:13Z</time>
      </trkpt>
      <trkpt lat="45.92446" lon="4.73091">
        <ele>170</ele>
        <time>2018-09-01T08:23:14Z</time>
      </trkpt>
      <trkpt lat="45.92451" lon="4.73087">
        <ele>170</ele>
        <time>2018-09-01T08:23:15Z</time>
      </trkpt>
      <trkpt lat="45.92455" lon="4.73083">
        <ele>170</ele>
        <time>2018-09-01T08:23:16Z</time>
      </trkpt>
      <trkpt lat="45.92459" lon="4.7308">
        <ele>170</ele>
        <time>2018-09-01T08:23:17Z</time>
      </trkpt>
      <trkpt lat="45.92464" lon="4.73075">
        <ele>170</ele>
        <time>2018-09-01T08:23:18Z</time>
      </trkpt>
      <trkpt lat="45.92469" lon="4.73071">
        <ele>170</ele>
        <time>2018-09-01T08:23:19Z</time>
      </trkpt>
      <trkpt lat="45.92473" lon="4.73066">
        <ele>170</ele>
        <time>2018-09-01T08:23:20Z</time>
      </trkpt>
      <trkpt lat="45.92478" lon="4.73062">
        <ele>170</ele>
        <time>2018-09-01T08:23:21Z</time>
      </trkpt>
      <trkpt lat="45.92484" lon="4.73056">
        <ele>170</ele>
        <time>2018-09-01T08:23:22Z</time>
      </trkpt>
      <trkpt lat="45.92488" lon="4.73053">
        <ele>170</ele>
        <time>2018-09-01T08:23:23Z</time>
      </trkpt>
      <trkpt lat="45.92493" lon="4.73049">
        <ele>170</ele>
        <time>2018-09-01T08:23:24Z</time>
      </trkpt>
      <trkpt lat="45.92498" lon="4.73044">
        <ele>170</ele>
        <time>2018-09-01T08:23:25Z</time>
      </trkpt>
      <trkpt lat="45.92502" lon="4.7304">
        <ele>169</ele>
        <time>2018-09-01T08:23:26Z</time>
      </trkpt>
      <trkpt lat="45.92507" lon="4.73036">
        <ele>169</ele>
        <time>2018-09-01T08:23:27Z</time>
      </trkpt>
      <trkpt lat="45.92512" lon="4.73032">
        <ele>169</ele>
        <time>2018-09-01T08:23:28Z</time>
      </trkpt>
      <trkpt lat="45.92517" lon="4.73027">
        <ele>169</ele>
        <time>2018-09-01T08:23:29Z</time>
      </trkpt>
      <trkpt lat="45.92522" lon="4.73023">
        <ele>169</ele>
        <time>2018-09-01T08:23:30Z</time>
      </trkpt>
      <trkpt lat="45.92527" lon="4.73019">
        <ele>169</ele>
        <time>2018-09-01T08:23:31Z</time>
      </trkpt>
      <trkpt lat="45.92532" lon="4.73014">
        <ele>169</ele>
        <time>2018-09-01T08:23:32Z</time>
      </trkpt>
      <trkpt lat="45.92536" lon="4.7301">
        <ele>169</ele>
        <time>2018-09-01T08:23:33Z</time>
      </trkpt>
      <trkpt lat="45.92542" lon="4.73003">
        <ele>169</ele>
        <time>2018-09-01T08:23:34Z</time>
      </trkpt>
      <trkpt lat="45.92549" lon="4.72996">
        <ele>169</ele>
        <time>2018-09-01T08:23:35Z</time>
      </trkpt>
      <trkpt lat="45.92554" lon="4.7299">
        <ele>169</ele>
        <time>2018-09-01T08:23:36Z</time>
      </trkpt>
      <trkpt lat="45.92558" lon="4.72985">
        <ele>169</ele>
        <time>2018-09-01T08:23:37Z</time>
      </trkpt>
      <trkpt lat="45.92564" lon="4.7298">
        <ele>169</ele>
        <time>2018-09-01T08:23:38Z</time>
      </trkpt>
      <trkpt lat="45.92569" lon="4.72975">
        <ele>169</ele>
        <time>2018-09-01T08:23:39Z</time>
      </trkpt>
      <trkpt lat="45.92573" lon="4.7297">
        <ele>169</ele>
        <time>2018-09-01T08:23:40Z</time>
      </trkpt>
      <trkpt lat="45.92578" lon="4.72965">
        <ele>169</ele>
        <time>2018-09-01T08:23:41Z</time>
      </trkpt>
      <trkpt lat="45.92582" lon="4.72961">
        <ele>169</ele>
        <time>2018-09-01T08:23:42Z</time>
      </trkpt>
      <trkpt lat="45.92587" lon="4.72955">
        <ele>169</ele>
        <time>2018-09-01T08:23:43Z</time>
      </trkpt>
      <trkpt lat="45.92591" lon="4.72952">
        <ele>169</ele>
        <time>2018-09-01T08:23:44Z</time>
      </trkpt>
      <trkpt lat="45.92595" lon="4.72947">
        <ele>169</ele>
        <time>2018-09-01T08:23:45Z</time>
      </trkpt>
      <trkpt lat="45.92599" lon="4.72942">
        <ele>169</ele>
        <time>2018-09-01T08:23:46Z</time>
      </trkpt>
      <trkpt lat="45.92604" lon="4.72937">
        <ele>169</ele>
        <time>2018-09-01T08:23:47Z</time>
      </trkpt>
      <trkpt lat="45.92609" lon="4.72932">
        <ele>169</ele>
        <time>2018-09-01T08:23:48Z</time>
      </trkpt>
      <trkpt lat="45.92614" lon="4.72926">
        <ele>169</ele>
        <time>2018-09-01T08:23:49Z</time>
      </trkpt>
      <trkpt lat="45.92619" lon="4.72921">
        <ele>169</ele>
        <time>2018-09-01T08:23:50Z</time>
      </trkpt>
      <trkpt lat="45.92625" lon="4.72917">
        <ele>169</ele>
        <time>2018-09-01T08:23:51Z</time>
      </trkpt>
      <trkpt lat="45.92629" lon="4.72913">
        <ele>169</ele>
        <time>2018-09-01T08:23:52Z</time>
      </trkpt>
      <trkpt lat="45.92634" lon="4.72909">
        <ele>169</ele>
        <time>2018-09-01T08:23:53Z</time>
      </trkpt>
      <trkpt lat="45.92639" lon="4.72905">
        <ele>169</ele>
        <time>2018-09-01T08:23:54Z</time>
      </trkpt>
      <trkpt lat="45.92643" lon="4.72902">
        <ele>169</ele>
        <time>2018-09-01T08:23:55Z</time>
      </trkpt>
      <trkpt lat="45.92649" lon="4.72898">
        <ele>169</ele>
        <time>2018-09-01T08:23:56Z</time>
      </trkpt>
      <trkpt lat="45.92654" lon="4.72895">
        <ele>170</ele>
        <time>2018-09-01T08:23:57Z</time>
      </trkpt>
      <trkpt lat="45.92658" lon="4.72892">
        <ele>169</ele>
        <time>2018-09-01T08:23:58Z</time>
      </trkpt>
      <trkpt lat="45.92663" lon="4.72888">
        <ele>169</ele>
        <time>2018-09-01T08:23:59Z</time>
      </trkpt>
      <trkpt lat="45.92668" lon="4.72884">
        <ele>170</ele>
        <time>2018-09-01T08:24:00Z</time>
      </trkpt>
      <trkpt lat="45.92674" lon="4.7288">
        <ele>170</ele>
        <time>2018-09-01T08:24:01Z</time>
      </trkpt>
      <trkpt lat="45.92679" lon="4.72876">
        <ele>170</ele>
        <time>2018-09-01T08:24:02Z</time>
      </trkpt>
      <trkpt lat="45.92683" lon="4.72872">
        <ele>169</ele>
        <time>2018-09-01T08:24:03Z</time>
      </trkpt>
      <trkpt lat="45.92687" lon="4.72869">
        <ele>169</ele>
        <time>2018-09-01T08:24:04Z</time>
      </trkpt>
      <trkpt lat="45.92692" lon="4.72865">
        <ele>169</ele>
        <time>2018-09-01T08:24:05Z</time>
      </trkpt>
      <trkpt lat="45.92696" lon="4.72861">
        <ele>169</ele>
        <time>2018-09-01T08:24:06Z</time>
      </trkpt>
      <trkpt lat="45.92701" lon="4.72857">
        <ele>169</ele>
        <time>2018-09-01T08:24:07Z</time>
      </trkpt>
      <trkpt lat="45.92706" lon="4.72853">
        <ele>169</ele>
        <time>2018-09-01T08:24:08Z</time>
      </trkpt>
      <trkpt lat="45.92711" lon="4.72849">
        <ele>169</ele>
        <time>2018-09-01T08:24:09Z</time>
      </trkpt>
      <trkpt lat="45.92716" lon="4.72846">
        <ele>169</ele>
        <time>2018-09-01T08:24:10Z</time>
      </trkpt>
      <trkpt lat="45.92721" lon="4.72842">
        <ele>169</ele>
        <time>2018-09-01T08:24:11Z</time>
      </trkpt>
      <trkpt lat="45.92725" lon="4.72838">
        <ele>169</ele>
        <time>2018-09-01T08:24:12Z</time>
      </trkpt>
      <trkpt lat="45.9273" lon="4.72834">
        <ele>169</ele>
        <time>2018-09-01T08:24:13Z</time>
      </trkpt>
      <trkpt lat="45.92735" lon="4.72831">
        <ele>169</ele>
        <time>2018-09-01T08:24:14Z</time>
      </trkpt>
      <trkpt lat="45.92739" lon="4.72829">
        <ele>169</ele>
        <time>2018-09-01T08:24:15Z</time>
      </trkpt>
      <trkpt lat="45.92743" lon="4.72825">
        <ele>169</ele>
        <time>2018-09-01T08:24:16Z</time>
      </trkpt>
      <trkpt lat="45.92748" lon="4.72819">
        <ele>169</ele>
        <time>2018-09-01T08:24:17Z</time>
      </trkpt>
      <trkpt lat="45.92753" lon="4.72816">
        <ele>170</ele>
        <time>2018-09-01T08:24:18Z</time>
      </trkpt>
      <trkpt lat="45.92757" lon="4.72813">
        <ele>170</ele>
        <time>2018-09-01T08:24:19Z</time>
      </trkpt>
      <trkpt lat="45.92761" lon="4.7281">
        <ele>170</ele>
        <time>2018-09-01T08:24:20Z</time>
      </trkpt>
      <trkpt lat="45.92766" lon="4.72807">
        <ele>170</ele>
        <time>2018-09-01T08:24:21Z</time>
      </trkpt>
      <trkpt lat="45.92773" lon="4.72803">
        <ele>170</ele>
        <time>2018-09-01T08:24:23Z</time>
      </trkpt>
      <trkpt lat="45.92777" lon="4.728">
        <ele>170</ele>
        <time>2018-09-01T08:24:24Z</time>
      </trkpt>
      <trkpt lat="45.92782" lon="4.72795">
        <ele>170</ele>
        <time>2018-09-01T08:24:25Z</time>
      </trkpt>
      <trkpt lat="45.92786" lon="4.72793">
        <ele>170</ele>
        <time>2018-09-01T08:24:26Z</time>
      </trkpt>
      <trkpt lat="45.92792" lon="4.72788">
        <ele>171</ele>
        <time>2018-09-01T08:24:28Z</time>
      </trkpt>
      <trkpt lat="45.92797" lon="4.72786">
        <ele>171</ele>
        <time>2018-09-01T08:24:29Z</time>
      </trkpt>
      <trkpt lat="45.92803" lon="4.72789">
        <ele>171</ele>
        <time>2018-09-01T08:24:32Z</time>
      </trkpt>
      <trkpt lat="45.92806" lon="4.72797">
        <ele>171</ele>
        <time>2018-09-01T08:24:33Z</time>
      </trkpt>
      <trkpt lat="45.92807" lon="4.72804">
        <ele>171</ele>
        <time>2018-09-01T08:24:34Z</time>
      </trkpt>
      <trkpt lat="45.92808" lon="4.7281">
        <ele>171</ele>
        <time>2018-09-01T08:24:35Z</time>
      </trkpt>
      <trkpt lat="45.92809" lon="4.72816">
        <ele>171</ele>
        <time>2018-09-01T08:24:36Z</time>
      </trkpt>
      <trkpt lat="45.92808" lon="4.72825">
        <ele>171</ele>
        <time>2018-09-01T08:24:37Z</time>
      </trkpt>
      <trkpt lat="45.92812" lon="4.72831">
        <ele>171</ele>
        <time>2018-09-01T08:24:38Z</time>
      </trkpt>
      <trkpt lat="45.92813" lon="4.72839">
        <ele>170</ele>
        <time>2018-09-01T08:24:39Z</time>
      </trkpt>
      <trkpt lat="45.92814" lon="4.72846">
        <ele>170</ele>
        <time>2018-09-01T08:24:40Z</time>
      </trkpt>
      <trkpt lat="45.92814" lon="4.72854">
        <ele>170</ele>
        <time>2018-09-01T08:24:41Z</time>
      </trkpt>
      <trkpt lat="45.92814" lon="4.72861">
        <ele>170</ele>
        <time>2018-09-01T08:24:42Z</time>
      </trkpt>
      <trkpt lat="45.92817" lon="4.72869">
        <ele>170</ele>
        <time>2018-09-01T08:24:43Z</time>
      </trkpt>
      <trkpt lat="45.92819" lon="4.72876">
        <ele>170</ele>
        <time>2018-09-01T08:24:44Z</time>
      </trkpt>
      <trkpt lat="45.9282" lon="4.72883">
        <ele>170</ele>
        <time>2018-09-01T08:24:45Z</time>
      </trkpt>
      <trkpt lat="45.92822" lon="4.7289">
        <ele>170</ele>
        <time>2018-09-01T08:24:46Z</time>
      </trkpt>
      <trkpt lat="45.92823" lon="4.72896">
        <ele>170</ele>
        <time>2018-09-01T08:24:47Z</time>
      </trkpt>
      <trkpt lat="45.92822" lon="4.72909">
        <ele>170</ele>
        <time>2018-09-01T08:24:49Z</time>
      </trkpt>
      <trkpt lat="45.92824" lon="4.72918">
        <ele>170</ele>
        <time>2018-09-01T08:24:50Z</time>
      </trkpt>
      <trkpt lat="45.92826" lon="4.72927">
        <ele>170</ele>
        <time>2018-09-01T08:24:51Z</time>
      </trkpt>
      <trkpt lat="45.92827" lon="4.72934">
        <ele>170</ele>
        <time>2018-09-01T08:24:52Z</time>
      </trkpt>
      <trkpt lat="45.92828" lon="4.72942">
        <ele>170</ele>
        <time>2018-09-01T08:24:53Z</time>
      </trkpt>
      <trkpt lat="45.92828" lon="4.7295">
        <ele>170</ele>
        <time>2018-09-01T08:24:54Z</time>
      </trkpt>
      <trkpt lat="45.92829" lon="4.72958">
        <ele>170</ele>
        <time>2018-09-01T08:24:55Z</time>
      </trkpt>
      <trkpt lat="45.92829" lon="4.72965">
        <ele>170</ele>
        <time>2018-09-01T08:24:56Z</time>
      </trkpt>
      <trkpt lat="45.92829" lon="4.72973">
        <ele>170</ele>
        <time>2018-09-01T08:24:57Z</time>
      </trkpt>
      <trkpt lat="45.92831" lon="4.72981">
        <ele>170</ele>
        <time>2018-09-01T08:24:58Z</time>
      </trkpt>
      <trkpt lat="45.92832" lon="4.72988">
        <ele>170</ele>
        <time>2018-09-01T08:24:59Z</time>
      </trkpt>
      <trkpt lat="45.92833" lon="4.72996">
        <ele>170</ele>
        <time>2018-09-01T08:25:00Z</time>
      </trkpt>
      <trkpt lat="45.92834" lon="4.73004">
        <ele>170</ele>
        <time>2018-09-01T08:25:01Z</time>
      </trkpt>
      <trkpt lat="45.92835" lon="4.73011">
        <ele>171</ele>
        <time>2018-09-01T08:25:02Z</time>
      </trkpt>
      <trkpt lat="45.92835" lon="4.7302">
        <ele>171</ele>
        <time>2018-09-01T08:25:03Z</time>
      </trkpt>
      <trkpt lat="45.92837" lon="4.73028">
        <ele>171</ele>
        <time>2018-09-01T08:25:04Z</time>
      </trkpt>
      <trkpt lat="45.92838" lon="4.73035">
        <ele>171</ele>
        <time>2018-09-01T08:25:05Z</time>
      </trkpt>
      <trkpt lat="45.9284" lon="4.73043">
        <ele>171</ele>
        <time>2018-09-01T08:25:06Z</time>
      </trkpt>
      <trkpt lat="45.92841" lon="4.73051">
        <ele>171</ele>
        <time>2018-09-01T08:25:07Z</time>
      </trkpt>
      <trkpt lat="45.92843" lon="4.73058">
        <ele>171</ele>
        <time>2018-09-01T08:25:08Z</time>
      </trkpt>
      <trkpt lat="45.92845" lon="4.73064">
        <ele>171</ele>
        <time>2018-09-01T08:25:09Z</time>
      </trkpt>
      <trkpt lat="45.92846" lon="4.73071">
        <ele>171</ele>
        <time>2018-09-01T08:25:10Z</time>
      </trkpt>
      <trkpt lat="45.92847" lon="4.73083">
        <ele>171</ele>
        <time>2018-09-01T08:25:12Z</time>
      </trkpt>
      <trkpt lat="45.92848" lon="4.73089">
        <ele>171</ele>
        <time>2018-09-01T08:25:13Z</time>
      </trkpt>
      <trkpt lat="45.92852" lon="4.73099">
        <ele>171</ele>
        <time>2018-09-01T08:25:16Z</time>
      </trkpt>
      <trkpt lat="45.92854" lon="4.731">
        <ele>171</ele>
        <time>2018-09-01T08:25:17Z</time>
      </trkpt>
      <trkpt lat="45.92862" lon="4.73098">
        <ele>171</ele>
        <time>2018-09-01T08:25:20Z</time>
      </trkpt>
      <trkpt lat="45.92865" lon="4.73096">
        <ele>171</ele>
        <time>2018-09-01T08:25:21Z</time>
      </trkpt>
      <trkpt lat="45.92867" lon="4.73093">
        <ele>172</ele>
        <time>2018-09-01T08:25:22Z</time>
      </trkpt>
      <trkpt lat="45.92874" lon="4.73084">
        <ele>172</ele>
        <time>2018-09-01T08:25:23Z</time>
      </trkpt>
      <trkpt lat="45.92881" lon="4.73079">
        <ele>172</ele>
        <time>2018-09-01T08:25:26Z</time>
      </trkpt>
      <trkpt lat="45.92886" lon="4.73074">
        <ele>172</ele>
        <time>2018-09-01T08:25:27Z</time>
      </trkpt>
      <trkpt lat="45.92893" lon="4.73065">
        <ele>172</ele>
        <time>2018-09-01T08:25:28Z</time>
      </trkpt>
      <trkpt lat="45.92897" lon="4.7306">
        <ele>172</ele>
        <time>2018-09-01T08:25:29Z</time>
      </trkpt>
      <trkpt lat="45.92901" lon="4.73054">
        <ele>172</ele>
        <time>2018-09-01T08:25:30Z</time>
      </trkpt>
      <trkpt lat="45.92904" lon="4.73047">
        <ele>172</ele>
        <time>2018-09-01T08:25:31Z</time>
      </trkpt>
      <trkpt lat="45.92907" lon="4.73043">
        <ele>172</ele>
        <time>2018-09-01T08:25:32Z</time>
      </trkpt>
      <trkpt lat="45.92911" lon="4.73036">
        <ele>172</ele>
        <time>2018-09-01T08:25:33Z</time>
      </trkpt>
      <trkpt lat="45.92914" lon="4.73031">
        <ele>172</ele>
        <time>2018-09-01T08:25:34Z</time>
      </trkpt>
      <trkpt lat="45.9292" lon="4.73024">
        <ele>172</ele>
        <time>2018-09-01T08:25:35Z</time>
      </trkpt>
      <trkpt lat="45.92923" lon="4.73019">
        <ele>172</ele>
        <time>2018-09-01T08:25:36Z</time>
      </trkpt>
      <trkpt lat="45.92928" lon="4.73014">
        <ele>172</ele>
        <time>2018-09-01T08:25:37Z</time>
      </trkpt>
      <trkpt lat="45.92932" lon="4.7301">
        <ele>171</ele>
        <time>2018-09-01T08:25:38Z</time>
      </trkpt>
      <trkpt lat="45.92937" lon="4.73005">
        <ele>171</ele>
        <time>2018-09-01T08:25:39Z</time>
      </trkpt>
      <trkpt lat="45.92941" lon="4.73">
        <ele>171</ele>
        <time>2018-09-01T08:25:40Z</time>
      </trkpt>
      <trkpt lat="45.92945" lon="4.72995">
        <ele>171</ele>
        <time>2018-09-01T08:25:41Z</time>
      </trkpt>
      <trkpt lat="45.92949" lon="4.7299">
        <ele>171</ele>
        <time>2018-09-01T08:25:42Z</time>
      </trkpt>
      <trkpt lat="45.92953" lon="4.72985">
        <ele>171</ele>
        <time>2018-09-01T08:25:43Z</time>
      </trkpt>
      <trkpt lat="45.92957" lon="4.7298">
        <ele>171</ele>
        <time>2018-09-01T08:25:44Z</time>
      </trkpt>
      <trkpt lat="45.92961" lon="4.72977">
        <ele>171</ele>
        <time>2018-09-01T08:25:45Z</time>
      </trkpt>
      <trkpt lat="45.92965" lon="4.7297">
        <ele>171</ele>
        <time>2018-09-01T08:25:46Z</time>
      </trkpt>
      <trkpt lat="45.92969" lon="4.72967">
        <ele>171</ele>
        <time>2018-09-01T08:25:47Z</time>
      </trkpt>
      <trkpt lat="45.92973" lon="4.72963">
        <ele>171</ele>
        <time>2018-09-01T08:25:48Z</time>
      </trkpt>
      <trkpt lat="45.92977" lon="4.72959">
        <ele>171</ele>
        <time>2018-09-01T08:25:49Z</time>
      </trkpt>
      <trkpt lat="45.92982" lon="4.72955">
        <ele>171</ele>
        <time>2018-09-01T08:25:50Z</time>
      </trkpt>
      <trkpt lat="45.92986" lon="4.7295">
        <ele>171</ele>
        <time>2018-09-01T08:25:51Z</time>
      </trkpt>
      <trkpt lat="45.92989" lon="4.72945">
        <ele>171</ele>
        <time>2018-09-01T08:25:52Z</time>
      </trkpt>
      <trkpt lat="45.92993" lon="4.72941">
        <ele>171</ele>
        <time>2018-09-01T08:25:53Z</time>
      </trkpt>
      <trkpt lat="45.92998" lon="4.72936">
        <ele>171</ele>
        <time>2018-09-01T08:25:54Z</time>
      </trkpt>
      <trkpt lat="45.93001" lon="4.7293">
        <ele>170</ele>
        <time>2018-09-01T08:25:55Z</time>
      </trkpt>
      <trkpt lat="45.93007" lon="4.72925">
        <ele>170</ele>
        <time>2018-09-01T08:25:56Z</time>
      </trkpt>
      <trkpt lat="45.93011" lon="4.7292">
        <ele>170</ele>
        <time>2018-09-01T08:25:57Z</time>
      </trkpt>
      <trkpt lat="45.93014" lon="4.72914">
        <ele>171</ele>
        <time>2018-09-01T08:25:58Z</time>
      </trkpt>
      <trkpt lat="45.93019" lon="4.7291">
        <ele>171</ele>
        <time>2018-09-01T08:25:59Z</time>
      </trkpt>
      <trkpt lat="45.93023" lon="4.72904">
        <ele>172</ele>
        <time>2018-09-01T08:26:00Z</time>
      </trkpt>
      <trkpt lat="45.93027" lon="4.72898">
        <ele>172</ele>
        <time>2018-09-01T08:26:01Z</time>
      </trkpt>
      <trkpt lat="45.93033" lon="4.72893">
        <ele>172</ele>
        <time>2018-09-01T08:26:02Z</time>
      </trkpt>
      <trkpt lat="45.93037" lon="4.72887">
        <ele>172</ele>
        <time>2018-09-01T08:26:03Z</time>
      </trkpt>
      <trkpt lat="45.93042" lon="4.72882">
        <ele>172</ele>
        <time>2018-09-01T08:26:04Z</time>
      </trkpt>
      <trkpt lat="45.93045" lon="4.72877">
        <ele>172</ele>
        <time>2018-09-01T08:26:05Z</time>
      </trkpt>
      <trkpt lat="45.93049" lon="4.72871">
        <ele>172</ele>
        <time>2018-09-01T08:26:06Z</time>
      </trkpt>
      <trkpt lat="45.93054" lon="4.72866">
        <ele>172</ele>
        <time>2018-09-01T08:26:07Z</time>
      </trkpt>
      <trkpt lat="45.9306" lon="4.7286">
        <ele>172</ele>
        <time>2018-09-01T08:26:08Z</time>
      </trkpt>
      <trkpt lat="45.93063" lon="4.72855">
        <ele>172</ele>
        <time>2018-09-01T08:26:09Z</time>
      </trkpt>
      <trkpt lat="45.93068" lon="4.7285">
        <ele>172</ele>
        <time>2018-09-01T08:26:10Z</time>
      </trkpt>
      <trkpt lat="45.93073" lon="4.72844">
        <ele>173</ele>
        <time>2018-09-01T08:26:11Z</time>
      </trkpt>
      <trkpt lat="45.93106" lon="4.72811">
        <ele>171</ele>
        <time>2018-09-01T08:26:18Z</time>
      </trkpt>
      <trkpt lat="45.93109" lon="4.728">
        <ele>171</ele>
        <time>2018-09-01T08:26:20Z</time>
      </trkpt>
      <trkpt lat="45.93115" lon="4.72796">
        <ele>171</ele>
        <time>2018-09-01T08:26:21Z</time>
      </trkpt>
      <trkpt lat="45.9312" lon="4.72793">
        <ele>171</ele>
        <time>2018-09-01T08:26:22Z</time>
      </trkpt>
      <trkpt lat="45.93126" lon="4.72787">
        <ele>171</ele>
        <time>2018-09-01T08:26:23Z</time>
      </trkpt>
      <trkpt lat="45.93131" lon="4.72782">
        <ele>171</ele>
        <time>2018-09-01T08:26:24Z</time>
      </trkpt>
      <trkpt lat="45.93135" lon="4.72776">
        <ele>171</ele>
        <time>2018-09-01T08:26:25Z</time>
      </trkpt>
      <trkpt lat="45.93139" lon="4.72771">
        <ele>171</ele>
        <time>2018-09-01T08:26:26Z</time>
      </trkpt>
      <trkpt lat="45.93143" lon="4.72765">
        <ele>171</ele>
        <time>2018-09-01T08:26:27Z</time>
      </trkpt>
      <trkpt lat="45.93149" lon="4.72759">
        <ele>170</ele>
        <time>2018-09-01T08:26:28Z</time>
      </trkpt>
      <trkpt lat="45.93156" lon="4.72751">
        <ele>170</ele>
        <time>2018-09-01T08:26:29Z</time>
      </trkpt>
      <trkpt lat="45.9316" lon="4.72746">
        <ele>170</ele>
        <time>2018-09-01T08:26:30Z</time>
      </trkpt>
      <trkpt lat="45.93164" lon="4.7274">
        <ele>170</ele>
        <time>2018-09-01T08:26:31Z</time>
      </trkpt>
      <trkpt lat="45.93169" lon="4.72735">
        <ele>170</ele>
        <time>2018-09-01T08:26:32Z</time>
      </trkpt>
      <trkpt lat="45.93173" lon="4.7273">
        <ele>170</ele>
        <time>2018-09-01T08:26:33Z</time>
      </trkpt>
      <trkpt lat="45.93178" lon="4.72723">
        <ele>170</ele>
        <time>2018-09-01T08:26:34Z</time>
      </trkpt>
      <trkpt lat="45.93183" lon="4.72715">
        <ele>169</ele>
        <time>2018-09-01T08:26:35Z</time>
      </trkpt>
      <trkpt lat="45.93187" lon="4.72708">
        <ele>169</ele>
        <time>2018-09-01T08:26:36Z</time>
      </trkpt>
      <trkpt lat="45.93192" lon="4.72701">
        <ele>169</ele>
        <time>2018-09-01T08:26:37Z</time>
      </trkpt>
      <trkpt lat="45.93197" lon="4.72695">
        <ele>169</ele>
        <time>2018-09-01T08:26:38Z</time>
      </trkpt>
      <trkpt lat="45.93203" lon="4.72688">
        <ele>169</ele>
        <time>2018-09-01T08:26:39Z</time>
      </trkpt>
      <trkpt lat="45.93207" lon="4.72683">
        <ele>169</ele>
        <time>2018-09-01T08:26:40Z</time>
      </trkpt>
      <trkpt lat="45.93212" lon="4.72677">
        <ele>169</ele>
        <time>2018-09-01T08:26:41Z</time>
      </trkpt>
      <trkpt lat="45.93218" lon="4.7267">
        <ele>169</ele>
        <time>2018-09-01T08:26:42Z</time>
      </trkpt>
      <trkpt lat="45.93222" lon="4.72664">
        <ele>170</ele>
        <time>2018-09-01T08:26:43Z</time>
      </trkpt>
      <trkpt lat="45.93227" lon="4.72658">
        <ele>170</ele>
        <time>2018-09-01T08:26:44Z</time>
      </trkpt>
      <trkpt lat="45.93233" lon="4.7265">
        <ele>170</ele>
        <time>2018-09-01T08:26:45Z</time>
      </trkpt>
      <trkpt lat="45.93239" lon="4.72644">
        <ele>170</ele>
        <time>2018-09-01T08:26:46Z</time>
      </trkpt>
      <trkpt lat="45.93244" lon="4.72639">
        <ele>170</ele>
        <time>2018-09-01T08:26:47Z</time>
      </trkpt>
      <trkpt lat="45.93249" lon="4.72634">
        <ele>170</ele>
        <time>2018-09-01T08:26:48Z</time>
      </trkpt>
      <trkpt lat="45.93254" lon="4.7263">
        <ele>170</ele>
        <time>2018-09-01T08:26:49Z</time>
      </trkpt>
      <trkpt lat="45.93259" lon="4.72624">
        <ele>170</ele>
        <time>2018-09-01T08:26:50Z</time>
      </trkpt>
      <trkpt lat="45.93264" lon="4.72618">
        <ele>170</ele>
        <time>2018-09-01T08:26:51Z</time>
      </trkpt>
      <trkpt lat="45.93268" lon="4.72613">
        <ele>170</ele>
        <time>2018-09-01T08:26:52Z</time>
      </trkpt>
      <trkpt lat="45.93272" lon="4.72607">
        <ele>170</ele>
        <time>2018-09-01T08:26:53Z</time>
      </trkpt>
      <trkpt lat="45.93279" lon="4.726">
        <ele>170</ele>
        <time>2018-09-01T08:26:54Z</time>
      </trkpt>
      <trkpt lat="45.93284" lon="4.72594">
        <ele>170</ele>
        <time>2018-09-01T08:26:55Z</time>
      </trkpt>
      <trkpt lat="45.93288" lon="4.72586">
        <ele>170</ele>
        <time>2018-09-01T08:26:56Z</time>
      </trkpt>
      <trkpt lat="45.93293" lon="4.72583">
        <ele>171</ele>
        <time>2018-09-01T08:26:57Z</time>
      </trkpt>
      <trkpt lat="45.93298" lon="4.72577">
        <ele>171</ele>
        <time>2018-09-01T08:26:58Z</time>
      </trkpt>
      <trkpt lat="45.93303" lon="4.72572">
        <ele>171</ele>
        <time>2018-09-01T08:26:59Z</time>
      </trkpt>
      <trkpt lat="45.93309" lon="4.72566">
        <ele>171</ele>
        <time>2018-09-01T08:27:00Z</time>
      </trkpt>
      <trkpt lat="45.93314" lon="4.72561">
        <ele>171</ele>
        <time>2018-09-01T08:27:01Z</time>
      </trkpt>
      <trkpt lat="45.93319" lon="4.72556">
        <ele>171</ele>
        <time>2018-09-01T08:27:02Z</time>
      </trkpt>
      <trkpt lat="45.93323" lon="4.72548">
        <ele>172</ele>
        <time>2018-09-01T08:27:03Z</time>
      </trkpt>
      <trkpt lat="45.93327" lon="4.72542">
        <ele>172</ele>
        <time>2018-09-01T08:27:04Z</time>
      </trkpt>
      <trkpt lat="45.93332" lon="4.72538">
        <ele>172</ele>
        <time>2018-09-01T08:27:05Z</time>
      </trkpt>
      <trkpt lat="45.93337" lon="4.72533">
        <ele>172</ele>
        <time>2018-09-01T08:27:06Z</time>
      </trkpt>
      <trkpt lat="45.93342" lon="4.72528">
        <ele>172</ele>
        <time>2018-09-01T08:27:07Z</time>
      </trkpt>
      <trkpt lat="45.93347" lon="4.72522">
        <ele>172</ele>
        <time>2018-09-01T08:27:08Z</time>
      </trkpt>
      <trkpt lat="45.93351" lon="4.72516">
        <ele>172</ele>
        <time>2018-09-01T08:27:09Z</time>
      </trkpt>
      <trkpt lat="45.93357" lon="4.72511">
        <ele>172</ele>
        <time>2018-09-01T08:27:10Z</time>
      </trkpt>
      <trkpt lat="45.93362" lon="4.72505">
        <ele>172</ele>
        <time>2018-09-01T08:27:11Z</time>
      </trkpt>
      <trkpt lat="45.93364" lon="4.72498">
        <ele>173</ele>
        <time>2018-09-01T08:27:12Z</time>
      </trkpt>
      <trkpt lat="45.93368" lon="4.72493">
        <ele>173</ele>
        <time>2018-09-01T08:27:13Z</time>
      </trkpt>
      <trkpt lat="45.93373" lon="4.72488">
        <ele>173</ele>
        <time>2018-09-01T08:27:14Z</time>
      </trkpt>
      <trkpt lat="45.93379" lon="4.7248">
        <ele>173</ele>
        <time>2018-09-01T08:27:15Z</time>
      </trkpt>
      <trkpt lat="45.93384" lon="4.72476">
        <ele>173</ele>
        <time>2018-09-01T08:27:16Z</time>
      </trkpt>
      <trkpt lat="45.93389" lon="4.72472">
        <ele>173</ele>
        <time>2018-09-01T08:27:17Z</time>
      </trkpt>
      <trkpt lat="45.93395" lon="4.72465">
        <ele>173</ele>
        <time>2018-09-01T08:27:19Z</time>
      </trkpt>
      <trkpt lat="45.93397" lon="4.72458">
        <ele>173</ele>
        <time>2018-09-01T08:27:20Z</time>
      </trkpt>
      <trkpt lat="45.93401" lon="4.72447">
        <ele>173</ele>
        <time>2018-09-01T08:27:22Z</time>
      </trkpt>
      <trkpt lat="45.93402" lon="4.72441">
        <ele>173</ele>
        <time>2018-09-01T08:27:23Z</time>
      </trkpt>
      <trkpt lat="45.93406" lon="4.72435">
        <ele>173</ele>
        <time>2018-09-01T08:27:24Z</time>
      </trkpt>
      <trkpt lat="45.93414" lon="4.72428">
        <ele>174</ele>
        <time>2018-09-01T08:27:25Z</time>
      </trkpt>
      <trkpt lat="45.93418" lon="4.72424">
        <ele>174</ele>
        <time>2018-09-01T08:27:26Z</time>
      </trkpt>
      <trkpt lat="45.93419" lon="4.72416">
        <ele>174</ele>
        <time>2018-09-01T08:27:27Z</time>
      </trkpt>
      <trkpt lat="45.93424" lon="4.72413">
        <ele>174</ele>
        <time>2018-09-01T08:27:28Z</time>
      </trkpt>
      <trkpt lat="45.9343" lon="4.7241">
        <ele>174</ele>
        <time>2018-09-01T08:27:29Z</time>
      </trkpt>
      <trkpt lat="45.93434" lon="4.72408">
        <ele>174</ele>
        <time>2018-09-01T08:27:30Z</time>
      </trkpt>
      <trkpt lat="45.93439" lon="4.72405">
        <ele>173</ele>
        <time>2018-09-01T08:27:31Z</time>
      </trkpt>
      <trkpt lat="45.93445" lon="4.72401">
        <ele>173</ele>
        <time>2018-09-01T08:27:32Z</time>
      </trkpt>
      <trkpt lat="45.93451" lon="4.72397">
        <ele>173</ele>
        <time>2018-09-01T08:27:33Z</time>
      </trkpt>
      <trkpt lat="45.93458" lon="4.72391">
        <ele>173</ele>
        <time>2018-09-01T08:27:34Z</time>
      </trkpt>
      <trkpt lat="45.93462" lon="4.72386">
        <ele>173</ele>
        <time>2018-09-01T08:27:35Z</time>
      </trkpt>
      <trkpt lat="45.93467" lon="4.72382">
        <ele>173</ele>
        <time>2018-09-01T08:27:36Z</time>
      </trkpt>
      <trkpt lat="45.93474" lon="4.72374">
        <ele>173</ele>
        <time>2018-09-01T08:27:37Z</time>
      </trkpt>
      <trkpt lat="45.93478" lon="4.72368">
        <ele>173</ele>
        <time>2018-09-01T08:27:38Z</time>
      </trkpt>
      <trkpt lat="45.93485" lon="4.7236">
        <ele>173</ele>
        <time>2018-09-01T08:27:39Z</time>
      </trkpt>
      <trkpt lat="45.93489" lon="4.72355">
        <ele>173</ele>
        <time>2018-09-01T08:27:40Z</time>
      </trkpt>
      <trkpt lat="45.93493" lon="4.7235">
        <ele>173</ele>
        <time>2018-09-01T08:27:41Z</time>
      </trkpt>
      <trkpt lat="45.93496" lon="4.72346">
        <ele>173</ele>
        <time>2018-09-01T08:27:42Z</time>
      </trkpt>
      <trkpt lat="45.935" lon="4.72338">
        <ele>173</ele>
        <time>2018-09-01T08:27:43Z</time>
      </trkpt>
      <trkpt lat="45.93505" lon="4.72331">
        <ele>173</ele>
        <time>2018-09-01T08:27:44Z</time>
      </trkpt>
      <trkpt lat="45.93509" lon="4.72325">
        <ele>173</ele>
        <time>2018-09-01T08:27:45Z</time>
      </trkpt>
      <trkpt lat="45.93513" lon="4.72317">
        <ele>173</ele>
        <time>2018-09-01T08:27:46Z</time>
      </trkpt>
      <trkpt lat="45.93517" lon="4.72311">
        <ele>173</ele>
        <time>2018-09-01T08:27:47Z</time>
      </trkpt>
      <trkpt lat="45.93522" lon="4.72305">
        <ele>173</ele>
        <time>2018-09-01T08:27:48Z</time>
      </trkpt>
      <trkpt lat="45.93523" lon="4.72298">
        <ele>172</ele>
        <time>2018-09-01T08:27:49Z</time>
      </trkpt>
      <trkpt lat="45.93527" lon="4.72292">
        <ele>172</ele>
        <time>2018-09-01T08:27:50Z</time>
      </trkpt>
      <trkpt lat="45.9353" lon="4.72285">
        <ele>172</ele>
        <time>2018-09-01T08:27:51Z</time>
      </trkpt>
      <trkpt lat="45.93534" lon="4.72276">
        <ele>172</ele>
        <time>2018-09-01T08:27:52Z</time>
      </trkpt>
      <trkpt lat="45.93536" lon="4.72269">
        <ele>172</ele>
        <time>2018-09-01T08:27:53Z</time>
      </trkpt>
      <trkpt lat="45.9354" lon="4.72262">
        <ele>172</ele>
        <time>2018-09-01T08:27:54Z</time>
      </trkpt>
      <trkpt lat="45.93543" lon="4.72253">
        <ele>172</ele>
        <time>2018-09-01T08:27:55Z</time>
      </trkpt>
      <trkpt lat="45.93546" lon="4.72245">
        <ele>172</ele>
        <time>2018-09-01T08:27:56Z</time>
      </trkpt>
      <trkpt lat="45.9355" lon="4.72238">
        <ele>172</ele>
        <time>2018-09-01T08:27:57Z</time>
      </trkpt>
      <trkpt lat="45.93553" lon="4.7223">
        <ele>173</ele>
        <time>2018-09-01T08:27:58Z</time>
      </trkpt>
      <trkpt lat="45.93557" lon="4.7222">
        <ele>173</ele>
        <time>2018-09-01T08:27:59Z</time>
      </trkpt>
      <trkpt lat="45.93561" lon="4.72213">
        <ele>173</ele>
        <time>2018-09-01T08:28:00Z</time>
      </trkpt>
      <trkpt lat="45.93565" lon="4.72205">
        <ele>173</ele>
        <time>2018-09-01T08:28:01Z</time>
      </trkpt>
      <trkpt lat="45.9357" lon="4.722">
        <ele>173</ele>
        <time>2018-09-01T08:28:02Z</time>
      </trkpt>
      <trkpt lat="45.93576" lon="4.72194">
        <ele>173</ele>
        <time>2018-09-01T08:28:03Z</time>
      </trkpt>
      <trkpt lat="45.93582" lon="4.7219">
        <ele>173</ele>
        <time>2018-09-01T08:28:04Z</time>
      </trkpt>
      <trkpt lat="45.93589" lon="4.72184">
        <ele>173</ele>
        <time>2018-09-01T08:28:05Z</time>
      </trkpt>
      <trkpt lat="45.93594" lon="4.7218">
        <ele>173</ele>
        <time>2018-09-01T08:28:06Z</time>
      </trkpt>
      <trkpt lat="45.936" lon="4.72171">
        <ele>173</ele>
        <time>2018-09-01T08:28:07Z</time>
      </trkpt>
      <trkpt lat="45.93604" lon="4.72166">
        <ele>173</ele>
        <time>2018-09-01T08:28:08Z</time>
      </trkpt>
      <trkpt lat="45.93611" lon="4.72164">
        <ele>173</ele>
        <time>2018-09-01T08:28:09Z</time>
      </trkpt>
      <trkpt lat="45.93617" lon="4.72159">
        <ele>173</ele>
        <time>2018-09-01T08:28:10Z</time>
      </trkpt>
      <trkpt lat="45.93623" lon="4.72152">
        <ele>173</ele>
        <time>2018-09-01T08:28:11Z</time>
      </trkpt>
      <trkpt lat="45.93628" lon="4.72145">
        <ele>173</ele>
        <time>2018-09-01T08:28:12Z</time>
      </trkpt>
      <trkpt lat="45.93633" lon="4.72139">
        <ele>173</ele>
        <time>2018-09-01T08:28:13Z</time>
      </trkpt>
      <trkpt lat="45.93638" lon="4.72132">
        <ele>173</ele>
        <time>2018-09-01T08:28:14Z</time>
      </trkpt>
      <trkpt lat="45.93643" lon="4.72125">
        <ele>173</ele>
        <time>2018-09-01T08:28:15Z</time>
      </trkpt>
      <trkpt lat="45.93649" lon="4.72118">
        <ele>173</ele>
        <time>2018-09-01T08:28:17Z</time>
      </trkpt>
      <trkpt lat="45.93653" lon="4.72109">
        <ele>173</ele>
        <time>2018-09-01T08:28:18Z</time>
      </trkpt>
      <trkpt lat="45.93658" lon="4.72104">
        <ele>173</ele>
        <time>2018-09-01T08:28:19Z</time>
      </trkpt>
      <trkpt lat="45.93662" lon="4.721">
        <ele>173</ele>
        <time>2018-09-01T08:28:20Z</time>
      </trkpt>
      <trkpt lat="45.93665" lon="4.72094">
        <ele>172</ele>
        <time>2018-09-01T08:28:21Z</time>
      </trkpt>
      <trkpt lat="45.93669" lon="4.7209">
        <ele>172</ele>
        <time>2018-09-01T08:28:22Z</time>
      </trkpt>
      <trkpt lat="45.93672" lon="4.72083">
        <ele>172</ele>
        <time>2018-09-01T08:28:23Z</time>
      </trkpt>
      <trkpt lat="45.93676" lon="4.72076">
        <ele>172</ele>
        <time>2018-09-01T08:28:24Z</time>
      </trkpt>
      <trkpt lat="45.93681" lon="4.72069">
        <ele>172</ele>
        <time>2018-09-01T08:28:25Z</time>
      </trkpt>
      <trkpt lat="45.93687" lon="4.72061">
        <ele>172</ele>
        <time>2018-09-01T08:28:26Z</time>
      </trkpt>
      <trkpt lat="45.9369" lon="4.72053">
        <ele>172</ele>
        <time>2018-09-01T08:28:27Z</time>
      </trkpt>
      <trkpt lat="45.93693" lon="4.72048">
        <ele>173</ele>
        <time>2018-09-01T08:28:28Z</time>
      </trkpt>
      <trkpt lat="45.93699" lon="4.7204">
        <ele>172</ele>
        <time>2018-09-01T08:28:29Z</time>
      </trkpt>
      <trkpt lat="45.93702" lon="4.72033">
        <ele>172</ele>
        <time>2018-09-01T08:28:30Z</time>
      </trkpt>
      <trkpt lat="45.93706" lon="4.72024">
        <ele>172</ele>
        <time>2018-09-01T08:28:31Z</time>
      </trkpt>
      <trkpt lat="45.93711" lon="4.72019">
        <ele>172</ele>
        <time>2018-09-01T08:28:32Z</time>
      </trkpt>
      <trkpt lat="45.93713" lon="4.72011">
        <ele>172</ele>
        <time>2018-09-01T08:28:33Z</time>
      </trkpt>
      <trkpt lat="45.93717" lon="4.72003">
        <ele>172</ele>
        <time>2018-09-01T08:28:34Z</time>
      </trkpt>
      <trkpt lat="45.93721" lon="4.71997">
        <ele>172</ele>
        <time>2018-09-01T08:28:35Z</time>
      </trkpt>
      <trkpt lat="45.93727" lon="4.7199">
        <ele>172</ele>
        <time>2018-09-01T08:28:36Z</time>
      </trkpt>
      <trkpt lat="45.9373" lon="4.71983">
        <ele>172</ele>
        <time>2018-09-01T08:28:37Z</time>
      </trkpt>
      <trkpt lat="45.93733" lon="4.71978">
        <ele>172</ele>
        <time>2018-09-01T08:28:38Z</time>
      </trkpt>
      <trkpt lat="45.93737" lon="4.71972">
        <ele>172</ele>
        <time>2018-09-01T08:28:39Z</time>
      </trkpt>
      <trkpt lat="45.93741" lon="4.71966">
        <ele>172</ele>
        <time>2018-09-01T08:28:40Z</time>
      </trkpt>
      <trkpt lat="45.93745" lon="4.71962">
        <ele>172</ele>
        <time>2018-09-01T08:28:41Z</time>
      </trkpt>
      <trkpt lat="45.93751" lon="4.71959">
        <ele>171</ele>
        <time>2018-09-01T08:28:42Z</time>
      </trkpt>
      <trkpt lat="45.93755" lon="4.71955">
        <ele>171</ele>
        <time>2018-09-01T08:28:43Z</time>
      </trkpt>
      <trkpt lat="45.93758" lon="4.71951">
        <ele>171</ele>
        <time>2018-09-01T08:28:44Z</time>
      </trkpt>
      <trkpt lat="45.93762" lon="4.71944">
        <ele>171</ele>
        <time>2018-09-01T08:28:45Z</time>
      </trkpt>
      <trkpt lat="45.93764" lon="4.7194">
        <ele>171</ele>
        <time>2018-09-01T08:28:46Z</time>
      </trkpt>
      <trkpt lat="45.93764" lon="4.71937">
        <ele>171</ele>
        <time>2018-09-01T08:28:47Z</time>
      </trkpt>
      <trkpt lat="45.93771" lon="4.71925">
        <ele>171</ele>
        <time>2018-09-01T08:28:48Z</time>
      </trkpt>
      <trkpt lat="45.93774" lon="4.71918">
        <ele>171</ele>
        <time>2018-09-01T08:28:49Z</time>
      </trkpt>
      <trkpt lat="45.93777" lon="4.7191">
        <ele>172</ele>
        <time>2018-09-01T08:28:50Z</time>
      </trkpt>
      <trkpt lat="45.93784" lon="4.719">
        <ele>172</ele>
        <time>2018-09-01T08:28:51Z</time>
      </trkpt>
      <trkpt lat="45.93786" lon="4.71892">
        <ele>172</ele>
        <time>2018-09-01T08:28:52Z</time>
      </trkpt>
      <trkpt lat="45.93788" lon="4.71882">
        <ele>172</ele>
        <time>2018-09-01T08:28:53Z</time>
      </trkpt>
      <trkpt lat="45.9379" lon="4.71873">
        <ele>172</ele>
        <time>2018-09-01T08:28:54Z</time>
      </trkpt>
      <trkpt lat="45.93795" lon="4.71868">
        <ele>172</ele>
        <time>2018-09-01T08:28:55Z</time>
      </trkpt>
      <trkpt lat="45.93798" lon="4.71862">
        <ele>172</ele>
        <time>2018-09-01T08:28:56Z</time>
      </trkpt>
      <trkpt lat="45.93803" lon="4.71855">
        <ele>172</ele>
        <time>2018-09-01T08:28:57Z</time>
      </trkpt>
      <trkpt lat="45.93807" lon="4.71849">
        <ele>172</ele>
        <time>2018-09-01T08:28:58Z</time>
      </trkpt>
      <trkpt lat="45.93811" lon="4.71842">
        <ele>172</ele>
        <time>2018-09-01T08:28:59Z</time>
      </trkpt>
      <trkpt lat="45.93814" lon="4.71835">
        <ele>172</ele>
        <time>2018-09-01T08:29:00Z</time>
      </trkpt>
      <trkpt lat="45.93819" lon="4.71825">
        <ele>173</ele>
        <time>2018-09-01T08:29:01Z</time>
      </trkpt>
      <trkpt lat="45.93824" lon="4.71818">
        <ele>173</ele>
        <time>2018-09-01T08:29:02Z</time>
      </trkpt>
      <trkpt lat="45.93828" lon="4.71812">
        <ele>173</ele>
        <time>2018-09-01T08:29:03Z</time>
      </trkpt>
      <trkpt lat="45.93831" lon="4.71806">
        <ele>173</ele>
        <time>2018-09-01T08:29:04Z</time>
      </trkpt>
      <trkpt lat="45.93836" lon="4.71801">
        <ele>173</ele>
        <time>2018-09-01T08:29:05Z</time>
      </trkpt>
      <trkpt lat="45.9384" lon="4.71796">
        <ele>173</ele>
        <time>2018-09-01T08:29:06Z</time>
      </trkpt>
      <trkpt lat="45.93844" lon="4.71789">
        <ele>173</ele>
        <time>2018-09-01T08:29:07Z</time>
      </trkpt>
      <trkpt lat="45.9385" lon="4.71781">
        <ele>173</ele>
        <time>2018-09-01T08:29:08Z</time>
      </trkpt>
      <trkpt lat="45.93855" lon="4.71773">
        <ele>173</ele>
        <time>2018-09-01T08:29:09Z</time>
      </trkpt>
      <trkpt lat="45.9386" lon="4.71766">
        <ele>173</ele>
        <time>2018-09-01T08:29:10Z</time>
      </trkpt>
      <trkpt lat="45.93865" lon="4.71759">
        <ele>173</ele>
        <time>2018-09-01T08:29:11Z</time>
      </trkpt>
      <trkpt lat="45.9387" lon="4.71753">
        <ele>173</ele>
        <time>2018-09-01T08:29:12Z</time>
      </trkpt>
      <trkpt lat="45.93874" lon="4.71748">
        <ele>174</ele>
        <time>2018-09-01T08:29:13Z</time>
      </trkpt>
      <trkpt lat="45.93878" lon="4.71742">
        <ele>174</ele>
        <time>2018-09-01T08:29:14Z</time>
      </trkpt>
      <trkpt lat="45.93881" lon="4.71737">
        <ele>174</ele>
        <time>2018-09-01T08:29:15Z</time>
      </trkpt>
      <trkpt lat="45.93886" lon="4.7173">
        <ele>174</ele>
        <time>2018-09-01T08:29:16Z</time>
      </trkpt>
      <trkpt lat="45.9389" lon="4.71727">
        <ele>174</ele>
        <time>2018-09-01T08:29:17Z</time>
      </trkpt>
      <trkpt lat="45.93895" lon="4.71721">
        <ele>174</ele>
        <time>2018-09-01T08:29:18Z</time>
      </trkpt>
      <trkpt lat="45.93901" lon="4.71716">
        <ele>174</ele>
        <time>2018-09-01T08:29:19Z</time>
      </trkpt>
      <trkpt lat="45.93906" lon="4.71711">
        <ele>174</ele>
        <time>2018-09-01T08:29:20Z</time>
      </trkpt>
      <trkpt lat="45.9391" lon="4.71707">
        <ele>174</ele>
        <time>2018-09-01T08:29:21Z</time>
      </trkpt>
      <trkpt lat="45.93914" lon="4.71702">
        <ele>174</ele>
        <time>2018-09-01T08:29:22Z</time>
      </trkpt>
      <trkpt lat="45.93921" lon="4.71699">
        <ele>174</ele>
        <time>2018-09-01T08:29:23Z</time>
      </trkpt>
      <trkpt lat="45.93928" lon="4.71697">
        <ele>174</ele>
        <time>2018-09-01T08:29:24Z</time>
      </trkpt>
      <trkpt lat="45.93934" lon="4.71694">
        <ele>175</ele>
        <time>2018-09-01T08:29:25Z</time>
      </trkpt>
      <trkpt lat="45.9394" lon="4.71692">
        <ele>175</ele>
        <time>2018-09-01T08:29:26Z</time>
      </trkpt>
      <trkpt lat="45.93945" lon="4.71691">
        <ele>175</ele>
        <time>2018-09-01T08:29:27Z</time>
      </trkpt>
      <trkpt lat="45.9395" lon="4.71688">
        <ele>175</ele>
        <time>2018-09-01T08:29:28Z</time>
      </trkpt>
      <trkpt lat="45.93957" lon="4.71685">
        <ele>175</ele>
        <time>2018-09-01T08:29:29Z</time>
      </trkpt>
      <trkpt lat="45.93962" lon="4.71683">
        <ele>175</ele>
        <time>2018-09-01T08:29:30Z</time>
      </trkpt>
      <trkpt lat="45.93969" lon="4.71679">
        <ele>175</ele>
        <time>2018-09-01T08:29:31Z</time>
      </trkpt>
      <trkpt lat="45.93977" lon="4.71677">
        <ele>175</ele>
        <time>2018-09-01T08:29:33Z</time>
      </trkpt>
      <trkpt lat="45.93982" lon="4.71673">
        <ele>176</ele>
        <time>2018-09-01T08:29:34Z</time>
      </trkpt>
      <trkpt lat="45.93991" lon="4.71675">
        <ele>176</ele>
        <time>2018-09-01T08:29:36Z</time>
      </trkpt>
      <trkpt lat="45.93994" lon="4.71679">
        <ele>176</ele>
        <time>2018-09-01T08:29:37Z</time>
      </trkpt>
      <trkpt lat="45.93997" lon="4.71688">
        <ele>176</ele>
        <time>2018-09-01T08:29:38Z</time>
      </trkpt>
      <trkpt lat="45.94001" lon="4.7169">
        <ele>175</ele>
        <time>2018-09-01T08:29:39Z</time>
      </trkpt>
      <trkpt lat="45.94006" lon="4.71692">
        <ele>175</ele>
        <time>2018-09-01T08:29:40Z</time>
      </trkpt>
      <trkpt lat="45.94011" lon="4.71689">
        <ele>175</ele>
        <time>2018-09-01T08:29:41Z</time>
      </trkpt>
      <trkpt lat="45.94016" lon="4.71683">
        <ele>175</ele>
        <time>2018-09-01T08:29:42Z</time>
      </trkpt>
      <trkpt lat="45.94018" lon="4.71675">
        <ele>175</ele>
        <time>2018-09-01T08:29:43Z</time>
      </trkpt>
      <trkpt lat="45.9402" lon="4.71669">
        <ele>175</ele>
        <time>2018-09-01T08:29:44Z</time>
      </trkpt>
      <trkpt lat="45.94021" lon="4.71661">
        <ele>176</ele>
        <time>2018-09-01T08:29:45Z</time>
      </trkpt>
      <trkpt lat="45.94025" lon="4.71656">
        <ele>175</ele>
        <time>2018-09-01T08:29:46Z</time>
      </trkpt>
      <trkpt lat="45.94031" lon="4.71652">
        <ele>175</ele>
        <time>2018-09-01T08:29:47Z</time>
      </trkpt>
      <trkpt lat="45.94035" lon="4.71651">
        <ele>175</ele>
        <time>2018-09-01T08:29:48Z</time>
      </trkpt>
      <trkpt lat="45.94041" lon="4.71648">
        <ele>175</ele>
        <time>2018-09-01T08:29:49Z</time>
      </trkpt>
      <trkpt lat="45.94047" lon="4.71646">
        <ele>175</ele>
        <time>2018-09-01T08:29:50Z</time>
      </trkpt>
      <trkpt lat="45.94053" lon="4.71642">
        <ele>174</ele>
        <time>2018-09-01T08:29:51Z</time>
      </trkpt>
      <trkpt lat="45.94062" lon="4.71638">
        <ele>174</ele>
        <time>2018-09-01T08:29:52Z</time>
      </trkpt>
      <trkpt lat="45.9407" lon="4.71633">
        <ele>174</ele>
        <time>2018-09-01T08:29:53Z</time>
      </trkpt>
      <trkpt lat="45.94076" lon="4.71632">
        <ele>174</ele>
        <time>2018-09-01T08:29:54Z</time>
      </trkpt>
      <trkpt lat="45.94081" lon="4.71632">
        <ele>174</ele>
        <time>2018-09-01T08:29:55Z</time>
      </trkpt>
      <trkpt lat="45.94086" lon="4.71631">
        <ele>173</ele>
        <time>2018-09-01T08:29:56Z</time>
      </trkpt>
      <trkpt lat="45.94093" lon="4.71629">
        <ele>173</ele>
        <time>2018-09-01T08:29:57Z</time>
      </trkpt>
      <trkpt lat="45.94099" lon="4.71627">
        <ele>173</ele>
        <time>2018-09-01T08:29:58Z</time>
      </trkpt>
      <trkpt lat="45.94106" lon="4.71624">
        <ele>173</ele>
        <time>2018-09-01T08:29:59Z</time>
      </trkpt>
      <trkpt lat="45.94111" lon="4.71623">
        <ele>173</ele>
        <time>2018-09-01T08:30:00Z</time>
      </trkpt>
      <trkpt lat="45.94121" lon="4.7162">
        <ele>173</ele>
        <time>2018-09-01T08:30:01Z</time>
      </trkpt>
      <trkpt lat="45.94127" lon="4.71616">
        <ele>173</ele>
        <time>2018-09-01T08:30:02Z</time>
      </trkpt>
      <trkpt lat="45.94135" lon="4.71611">
        <ele>173</ele>
        <time>2018-09-01T08:30:03Z</time>
      </trkpt>
      <trkpt lat="45.94141" lon="4.71608">
        <ele>173</ele>
        <time>2018-09-01T08:30:04Z</time>
      </trkpt>
      <trkpt lat="45.94147" lon="4.71606">
        <ele>173</ele>
        <time>2018-09-01T08:30:05Z</time>
      </trkpt>
      <trkpt lat="45.94155" lon="4.71604">
        <ele>173</ele>
        <time>2018-09-01T08:30:06Z</time>
      </trkpt>
      <trkpt lat="45.94162" lon="4.71601">
        <ele>173</ele>
        <time>2018-09-01T08:30:07Z</time>
      </trkpt>
      <trkpt lat="45.94169" lon="4.71597">
        <ele>173</ele>
        <time>2018-09-01T08:30:08Z</time>
      </trkpt>
      <trkpt lat="45.94175" lon="4.71596">
        <ele>173</ele>
        <time>2018-09-01T08:30:09Z</time>
      </trkpt>
      <trkpt lat="45.94181" lon="4.71593">
        <ele>173</ele>
        <time>2018-09-01T08:30:10Z</time>
      </trkpt>
      <trkpt lat="45.94187" lon="4.7159">
        <ele>173</ele>
        <time>2018-09-01T08:30:11Z</time>
      </trkpt>
      <trkpt lat="45.94194" lon="4.71586">
        <ele>173</ele>
        <time>2018-09-01T08:30:12Z</time>
      </trkpt>
      <trkpt lat="45.94201" lon="4.71585">
        <ele>173</ele>
        <time>2018-09-01T08:30:13Z</time>
      </trkpt>
      <trkpt lat="45.94206" lon="4.71581">
        <ele>174</ele>
        <time>2018-09-01T08:30:14Z</time>
      </trkpt>
      <trkpt lat="45.94212" lon="4.7158">
        <ele>174</ele>
        <time>2018-09-01T08:30:15Z</time>
      </trkpt>
      <trkpt lat="45.94219" lon="4.71577">
        <ele>174</ele>
        <time>2018-09-01T08:30:16Z</time>
      </trkpt>
      <trkpt lat="45.94225" lon="4.71574">
        <ele>174</ele>
        <time>2018-09-01T08:30:17Z</time>
      </trkpt>
      <trkpt lat="45.94231" lon="4.71573">
        <ele>174</ele>
        <time>2018-09-01T08:30:18Z</time>
      </trkpt>
      <trkpt lat="45.94236" lon="4.71571">
        <ele>174</ele>
        <time>2018-09-01T08:30:19Z</time>
      </trkpt>
      <trkpt lat="45.9424" lon="4.71571">
        <ele>174</ele>
        <time>2018-09-01T08:30:20Z</time>
      </trkpt>
      <trkpt lat="45.94247" lon="4.71568">
        <ele>174</ele>
        <time>2018-09-01T08:30:21Z</time>
      </trkpt>
      <trkpt lat="45.94253" lon="4.71565">
        <ele>175</ele>
        <time>2018-09-01T08:30:22Z</time>
      </trkpt>
      <trkpt lat="45.94258" lon="4.71562">
        <ele>175</ele>
        <time>2018-09-01T08:30:23Z</time>
      </trkpt>
      <trkpt lat="45.94265" lon="4.71559">
        <ele>175</ele>
        <time>2018-09-01T08:30:24Z</time>
      </trkpt>
      <trkpt lat="45.9427" lon="4.71557">
        <ele>175</ele>
        <time>2018-09-01T08:30:25Z</time>
      </trkpt>
      <trkpt lat="45.94279" lon="4.71552">
        <ele>175</ele>
        <time>2018-09-01T08:30:26Z</time>
      </trkpt>
      <trkpt lat="45.94284" lon="4.7155">
        <ele>175</ele>
        <time>2018-09-01T08:30:27Z</time>
      </trkpt>
      <trkpt lat="45.94291" lon="4.71547">
        <ele>175</ele>
        <time>2018-09-01T08:30:28Z</time>
      </trkpt>
      <trkpt lat="45.94296" lon="4.71546">
        <ele>175</ele>
        <time>2018-09-01T08:30:29Z</time>
      </trkpt>
      <trkpt lat="45.94301" lon="4.71544">
        <ele>175</ele>
        <time>2018-09-01T08:30:30Z</time>
      </trkpt>
      <trkpt lat="45.94307" lon="4.7154">
        <ele>175</ele>
        <time>2018-09-01T08:30:31Z</time>
      </trkpt>
      <trkpt lat="45.94313" lon="4.71538">
        <ele>175</ele>
        <time>2018-09-01T08:30:32Z</time>
      </trkpt>
      <trkpt lat="45.94316" lon="4.71538">
        <ele>175</ele>
        <time>2018-09-01T08:30:33Z</time>
      </trkpt>
      <trkpt lat="45.94324" lon="4.71536">
        <ele>176</ele>
        <time>2018-09-01T08:30:35Z</time>
      </trkpt>
      <trkpt lat="45.94329" lon="4.71535">
        <ele>176</ele>
        <time>2018-09-01T08:30:36Z</time>
      </trkpt>
      <trkpt lat="45.94336" lon="4.71532">
        <ele>176</ele>
        <time>2018-09-01T08:30:37Z</time>
      </trkpt>
      <trkpt lat="45.9434" lon="4.71531">
        <ele>176</ele>
        <time>2018-09-01T08:30:38Z</time>
      </trkpt>
      <trkpt lat="45.94346" lon="4.71529">
        <ele>176</ele>
        <time>2018-09-01T08:30:39Z</time>
      </trkpt>
      <trkpt lat="45.94351" lon="4.71527">
        <ele>176</ele>
        <time>2018-09-01T08:30:40Z</time>
      </trkpt>
      <trkpt lat="45.94358" lon="4.71525">
        <ele>176</ele>
        <time>2018-09-01T08:30:41Z</time>
      </trkpt>
      <trkpt lat="45.94363" lon="4.71523">
        <ele>176</ele>
        <time>2018-09-01T08:30:42Z</time>
      </trkpt>
      <trkpt lat="45.9437" lon="4.71521">
        <ele>176</ele>
        <time>2018-09-01T08:30:43Z</time>
      </trkpt>
      <trkpt lat="45.94375" lon="4.71519">
        <ele>176</ele>
        <time>2018-09-01T08:30:44Z</time>
      </trkpt>
      <trkpt lat="45.94381" lon="4.71517">
        <ele>177</ele>
        <time>2018-09-01T08:30:45Z</time>
      </trkpt>
      <trkpt lat="45.94387" lon="4.71514">
        <ele>177</ele>
        <time>2018-09-01T08:30:46Z</time>
      </trkpt>
      <trkpt lat="45.94392" lon="4.71512">
        <ele>177</ele>
        <time>2018-09-01T08:30:47Z</time>
      </trkpt>
      <trkpt lat="45.94397" lon="4.71509">
        <ele>177</ele>
        <time>2018-09-01T08:30:48Z</time>
      </trkpt>
      <trkpt lat="45.94404" lon="4.71507">
        <ele>177</ele>
        <time>2018-09-01T08:30:49Z</time>
      </trkpt>
      <trkpt lat="45.94409" lon="4.71505">
        <ele>177</ele>
        <time>2018-09-01T08:30:50Z</time>
      </trkpt>
      <trkpt lat="45.94413" lon="4.71504">
        <ele>178</ele>
        <time>2018-09-01T08:30:51Z</time>
      </trkpt>
      <trkpt lat="45.94419" lon="4.71503">
        <ele>178</ele>
        <time>2018-09-01T08:30:52Z</time>
      </trkpt>
      <trkpt lat="45.94425" lon="4.715">
        <ele>178</ele>
        <time>2018-09-01T08:30:53Z</time>
      </trkpt>
      <trkpt lat="45.94431" lon="4.71498">
        <ele>178</ele>
        <time>2018-09-01T08:30:54Z</time>
      </trkpt>
      <trkpt lat="45.94436" lon="4.71494">
        <ele>178</ele>
        <time>2018-09-01T08:30:55Z</time>
      </trkpt>
      <trkpt lat="45.94441" lon="4.71492">
        <ele>178</ele>
        <time>2018-09-01T08:30:56Z</time>
      </trkpt>
      <trkpt lat="45.94446" lon="4.71491">
        <ele>179</ele>
        <time>2018-09-01T08:30:57Z</time>
      </trkpt>
      <trkpt lat="45.94451" lon="4.71488">
        <ele>179</ele>
        <time>2018-09-01T08:30:58Z</time>
      </trkpt>
      <trkpt lat="45.94455" lon="4.71486">
        <ele>179</ele>
        <time>2018-09-01T08:30:59Z</time>
      </trkpt>
      <trkpt lat="45.9446" lon="4.71483">
        <ele>179</ele>
        <time>2018-09-01T08:31:00Z</time>
      </trkpt>
      <trkpt lat="45.94469" lon="4.71482">
        <ele>179</ele>
        <time>2018-09-01T08:31:02Z</time>
      </trkpt>
      <trkpt lat="45.94475" lon="4.71479">
        <ele>179</ele>
        <time>2018-09-01T08:31:03Z</time>
      </trkpt>
      <trkpt lat="45.9448" lon="4.71476">
        <ele>179</ele>
        <time>2018-09-01T08:31:04Z</time>
      </trkpt>
      <trkpt lat="45.94489" lon="4.71471">
        <ele>179</ele>
        <time>2018-09-01T08:31:05Z</time>
      </trkpt>
      <trkpt lat="45.94493" lon="4.71469">
        <ele>179</ele>
        <time>2018-09-01T08:31:06Z</time>
      </trkpt>
      <trkpt lat="45.94498" lon="4.71467">
        <ele>179</ele>
        <time>2018-09-01T08:31:07Z</time>
      </trkpt>
      <trkpt lat="45.94504" lon="4.71464">
        <ele>180</ele>
        <time>2018-09-01T08:31:09Z</time>
      </trkpt>
      <trkpt lat="45.94508" lon="4.71465">
        <ele>180</ele>
        <time>2018-09-01T08:31:10Z</time>
      </trkpt>
      <trkpt lat="45.94517" lon="4.71462">
        <ele>180</ele>
        <time>2018-09-01T08:31:12Z</time>
      </trkpt>
      <trkpt lat="45.94519" lon="4.71462">
        <ele>180</ele>
        <time>2018-09-01T08:31:13Z</time>
      </trkpt>
      <trkpt lat="45.94528" lon="4.71458">
        <ele>180</ele>
        <time>2018-09-01T08:31:14Z</time>
      </trkpt>
      <trkpt lat="45.94537" lon="4.71454">
        <ele>180</ele>
        <time>2018-09-01T08:31:16Z</time>
      </trkpt>
      <trkpt lat="45.94541" lon="4.71451">
        <ele>180</ele>
        <time>2018-09-01T08:31:17Z</time>
      </trkpt>
      <trkpt lat="45.94546" lon="4.7145">
        <ele>180</ele>
        <time>2018-09-01T08:31:18Z</time>
      </trkpt>
      <trkpt lat="45.9455" lon="4.71449">
        <ele>180</ele>
        <time>2018-09-01T08:31:19Z</time>
      </trkpt>
      <trkpt lat="45.94555" lon="4.71451">
        <ele>180</ele>
        <time>2018-09-01T08:31:21Z</time>
      </trkpt>
      <trkpt lat="45.94559" lon="4.71449">
        <ele>181</ele>
        <time>2018-09-01T08:31:22Z</time>
      </trkpt>
      <trkpt lat="45.94565" lon="4.71447">
        <ele>181</ele>
        <time>2018-09-01T08:31:23Z</time>
      </trkpt>
      <trkpt lat="45.94571" lon="4.71444">
        <ele>181</ele>
        <time>2018-09-01T08:31:24Z</time>
      </trkpt>
      <trkpt lat="45.94578" lon="4.71442">
        <ele>182</ele>
        <time>2018-09-01T08:31:25Z</time>
      </trkpt>
      <trkpt lat="45.94583" lon="4.7144">
        <ele>182</ele>
        <time>2018-09-01T08:31:26Z</time>
      </trkpt>
      <trkpt lat="45.94591" lon="4.71442">
        <ele>182</ele>
        <time>2018-09-01T08:31:28Z</time>
      </trkpt>
      <trkpt lat="45.94595" lon="4.71443">
        <ele>182</ele>
        <time>2018-09-01T08:31:29Z</time>
      </trkpt>
      <trkpt lat="45.946" lon="4.71443">
        <ele>182</ele>
        <time>2018-09-01T08:31:30Z</time>
      </trkpt>
      <trkpt lat="45.94605" lon="4.71444">
        <ele>181</ele>
        <time>2018-09-01T08:31:31Z</time>
      </trkpt>
      <trkpt lat="45.94612" lon="4.71442">
        <ele>181</ele>
        <time>2018-09-01T08:31:32Z</time>
      </trkpt>
      <trkpt lat="45.94616" lon="4.71445">
        <ele>181</ele>
        <time>2018-09-01T08:31:33Z</time>
      </trkpt>
      <trkpt lat="45.94621" lon="4.71444">
        <ele>181</ele>
        <time>2018-09-01T08:31:34Z</time>
      </trkpt>
      <trkpt lat="45.94627" lon="4.71444">
        <ele>181</ele>
        <time>2018-09-01T08:31:35Z</time>
      </trkpt>
      <trkpt lat="45.94632" lon="4.71444">
        <ele>181</ele>
        <time>2018-09-01T08:31:36Z</time>
      </trkpt>
      <trkpt lat="45.94637" lon="4.71445">
        <ele>181</ele>
        <time>2018-09-01T08:31:37Z</time>
      </trkpt>
      <trkpt lat="45.94643" lon="4.71445">
        <ele>181</ele>
        <time>2018-09-01T08:31:38Z</time>
      </trkpt>
      <trkpt lat="45.9465" lon="4.71445">
        <ele>181</ele>
        <time>2018-09-01T08:31:39Z</time>
      </trkpt>
      <trkpt lat="45.94655" lon="4.71446">
        <ele>181</ele>
        <time>2018-09-01T08:31:40Z</time>
      </trkpt>
      <trkpt lat="45.94659" lon="4.71447">
        <ele>181</ele>
        <time>2018-09-01T08:31:41Z</time>
      </trkpt>
      <trkpt lat="45.94664" lon="4.71447">
        <ele>181</ele>
        <time>2018-09-01T08:31:42Z</time>
      </trkpt>
      <trkpt lat="45.94669" lon="4.71448">
        <ele>182</ele>
        <time>2018-09-01T08:31:43Z</time>
      </trkpt>
      <trkpt lat="45.94675" lon="4.71449">
        <ele>182</ele>
        <time>2018-09-01T08:31:44Z</time>
      </trkpt>
      <trkpt lat="45.9468" lon="4.7145">
        <ele>182</ele>
        <time>2018-09-01T08:31:45Z</time>
      </trkpt>
      <trkpt lat="45.94686" lon="4.71449">
        <ele>182</ele>
        <time>2018-09-01T08:31:46Z</time>
      </trkpt>
      <trkpt lat="45.94692" lon="4.71448">
        <ele>182</ele>
        <time>2018-09-01T08:31:47Z</time>
      </trkpt>
      <trkpt lat="45.94696" lon="4.7145">
        <ele>182</ele>
        <time>2018-09-01T08:31:48Z</time>
      </trkpt>
      <trkpt lat="45.94701" lon="4.71452">
        <ele>182</ele>
        <time>2018-09-01T08:31:49Z</time>
      </trkpt>
      <trkpt lat="45.94707" lon="4.71452">
        <ele>182</ele>
        <time>2018-09-01T08:31:50Z</time>
      </trkpt>
      <trkpt lat="45.94711" lon="4.71453">
        <ele>182</ele>
        <time>2018-09-01T08:31:51Z</time>
      </trkpt>
      <trkpt lat="45.94718" lon="4.71453">
        <ele>182</ele>
        <time>2018-09-01T08:31:52Z</time>
      </trkpt>
      <trkpt lat="45.94724" lon="4.71453">
        <ele>182</ele>
        <time>2018-09-01T08:31:53Z</time>
      </trkpt>
      <trkpt lat="45.94731" lon="4.71454">
        <ele>182</ele>
        <time>2018-09-01T08:31:54Z</time>
      </trkpt>
      <trkpt lat="45.94736" lon="4.71455">
        <ele>182</ele>
        <time>2018-09-01T08:31:55Z</time>
      </trkpt>
      <trkpt lat="45.94739" lon="4.71457">
        <ele>182</ele>
        <time>2018-09-01T08:31:56Z</time>
      </trkpt>
      <trkpt lat="45.94745" lon="4.71457">
        <ele>182</ele>
        <time>2018-09-01T08:31:57Z</time>
      </trkpt>
      <trkpt lat="45.94749" lon="4.7146">
        <ele>182</ele>
        <time>2018-09-01T08:31:58Z</time>
      </trkpt>
      <trkpt lat="45.94758" lon="4.71457">
        <ele>183</ele>
        <time>2018-09-01T08:31:59Z</time>
      </trkpt>
      <trkpt lat="45.94763" lon="4.71459">
        <ele>183</ele>
        <time>2018-09-01T08:32:00Z</time>
      </trkpt>
      <trkpt lat="45.9477" lon="4.71458">
        <ele>183</ele>
        <time>2018-09-01T08:32:01Z</time>
      </trkpt>
      <trkpt lat="45.94776" lon="4.71459">
        <ele>183</ele>
        <time>2018-09-01T08:32:02Z</time>
      </trkpt>
      <trkpt lat="45.94782" lon="4.71457">
        <ele>183</ele>
        <time>2018-09-01T08:32:03Z</time>
      </trkpt>
      <trkpt lat="45.94788" lon="4.71457">
        <ele>183</ele>
        <time>2018-09-01T08:32:04Z</time>
      </trkpt>
      <trkpt lat="45.94793" lon="4.71459">
        <ele>183</ele>
        <time>2018-09-01T08:32:05Z</time>
      </trkpt>
      <trkpt lat="45.948" lon="4.71458">
        <ele>183</ele>
        <time>2018-09-01T08:32:06Z</time>
      </trkpt>
      <trkpt lat="45.94804" lon="4.7146">
        <ele>183</ele>
        <time>2018-09-01T08:32:07Z</time>
      </trkpt>
      <trkpt lat="45.94811" lon="4.7146">
        <ele>183</ele>
        <time>2018-09-01T08:32:08Z</time>
      </trkpt>
      <trkpt lat="45.94817" lon="4.71462">
        <ele>183</ele>
        <time>2018-09-01T08:32:09Z</time>
      </trkpt>
      <trkpt lat="45.94823" lon="4.71462">
        <ele>183</ele>
        <time>2018-09-01T08:32:10Z</time>
      </trkpt>
      <trkpt lat="45.94828" lon="4.71463">
        <ele>183</ele>
        <time>2018-09-01T08:32:11Z</time>
      </trkpt>
      <trkpt lat="45.94835" lon="4.71465">
        <ele>183</ele>
        <time>2018-09-01T08:32:12Z</time>
      </trkpt>
      <trkpt lat="45.94839" lon="4.71468">
        <ele>183</ele>
        <time>2018-09-01T08:32:13Z</time>
      </trkpt>
      <trkpt lat="45.94845" lon="4.71467">
        <ele>183</ele>
        <time>2018-09-01T08:32:14Z</time>
      </trkpt>
      <trkpt lat="45.94852" lon="4.71465">
        <ele>183</ele>
        <time>2018-09-01T08:32:15Z</time>
      </trkpt>
      <trkpt lat="45.9486" lon="4.71462">
        <ele>183</ele>
        <time>2018-09-01T08:32:16Z</time>
      </trkpt>
      <trkpt lat="45.94865" lon="4.71463">
        <ele>183</ele>
        <time>2018-09-01T08:32:17Z</time>
      </trkpt>
      <trkpt lat="45.94872" lon="4.71462">
        <ele>183</ele>
        <time>2018-09-01T08:32:18Z</time>
      </trkpt>
      <trkpt lat="45.94877" lon="4.71467">
        <ele>183</ele>
        <time>2018-09-01T08:32:19Z</time>
      </trkpt>
      <trkpt lat="45.94883" lon="4.71469">
        <ele>183</ele>
        <time>2018-09-01T08:32:20Z</time>
      </trkpt>
      <trkpt lat="45.94891" lon="4.71467">
        <ele>183</ele>
        <time>2018-09-01T08:32:21Z</time>
      </trkpt>
      <trkpt lat="45.94897" lon="4.71468">
        <ele>183</ele>
        <time>2018-09-01T08:32:22Z</time>
      </trkpt>
      <trkpt lat="45.94901" lon="4.71471">
        <ele>183</ele>
        <time>2018-09-01T08:32:23Z</time>
      </trkpt>
      <trkpt lat="45.94906" lon="4.71468">
        <ele>183</ele>
        <time>2018-09-01T08:32:24Z</time>
      </trkpt>
      <trkpt lat="45.94913" lon="4.71469">
        <ele>183</ele>
        <time>2018-09-01T08:32:25Z</time>
      </trkpt>
      <trkpt lat="45.94917" lon="4.7147">
        <ele>183</ele>
        <time>2018-09-01T08:32:26Z</time>
      </trkpt>
      <trkpt lat="45.94922" lon="4.71471">
        <ele>183</ele>
        <time>2018-09-01T08:32:27Z</time>
      </trkpt>
      <trkpt lat="45.94928" lon="4.71472">
        <ele>183</ele>
        <time>2018-09-01T08:32:28Z</time>
      </trkpt>
      <trkpt lat="45.94935" lon="4.71469">
        <ele>183</ele>
        <time>2018-09-01T08:32:29Z</time>
      </trkpt>
      <trkpt lat="45.94942" lon="4.71469">
        <ele>183</ele>
        <time>2018-09-01T08:32:30Z</time>
      </trkpt>
      <trkpt lat="45.94948" lon="4.71471">
        <ele>183</ele>
        <time>2018-09-01T08:32:31Z</time>
      </trkpt>
      <trkpt lat="45.94951" lon="4.71475">
        <ele>183</ele>
        <time>2018-09-01T08:32:32Z</time>
      </trkpt>
      <trkpt lat="45.94957" lon="4.71481">
        <ele>183</ele>
        <time>2018-09-01T08:32:33Z</time>
      </trkpt>
      <trkpt lat="45.94961" lon="4.71485">
        <ele>182</ele>
        <time>2018-09-01T08:32:34Z</time>
      </trkpt>
      <trkpt lat="45.94967" lon="4.71487">
        <ele>182</ele>
        <time>2018-09-01T08:32:35Z</time>
      </trkpt>
      <trkpt lat="45.94972" lon="4.71488">
        <ele>182</ele>
        <time>2018-09-01T08:32:36Z</time>
      </trkpt>
      <trkpt lat="45.94979" lon="4.71486">
        <ele>182</ele>
        <time>2018-09-01T08:32:37Z</time>
      </trkpt>
      <trkpt lat="45.94985" lon="4.71483">
        <ele>182</ele>
        <time>2018-09-01T08:32:38Z</time>
      </trkpt>
      <trkpt lat="45.9499" lon="4.7148">
        <ele>182</ele>
        <time>2018-09-01T08:32:39Z</time>
      </trkpt>
      <trkpt lat="45.94995" lon="4.71478">
        <ele>182</ele>
        <time>2018-09-01T08:32:40Z</time>
      </trkpt>
      <trkpt lat="45.95001" lon="4.71476">
        <ele>181</ele>
        <time>2018-09-01T08:32:41Z</time>
      </trkpt>
      <trkpt lat="45.95007" lon="4.71476">
        <ele>181</ele>
        <time>2018-09-01T08:32:42Z</time>
      </trkpt>
      <trkpt lat="45.95014" lon="4.71476">
        <ele>181</ele>
        <time>2018-09-01T08:32:43Z</time>
      </trkpt>
      <trkpt lat="45.95021" lon="4.71477">
        <ele>181</ele>
        <time>2018-09-01T08:32:44Z</time>
      </trkpt>
      <trkpt lat="45.95026" lon="4.71479">
        <ele>181</ele>
        <time>2018-09-01T08:32:45Z</time>
      </trkpt>
      <trkpt lat="45.95033" lon="4.71479">
        <ele>181</ele>
        <time>2018-09-01T08:32:46Z</time>
      </trkpt>
      <trkpt lat="45.9504" lon="4.7148">
        <ele>181</ele>
        <time>2018-09-01T08:32:47Z</time>
      </trkpt>
      <trkpt lat="45.95048" lon="4.7148">
        <ele>181</ele>
        <time>2018-09-01T08:32:48Z</time>
      </trkpt>
      <trkpt lat="45.95056" lon="4.71481">
        <ele>181</ele>
        <time>2018-09-01T08:32:49Z</time>
      </trkpt>
      <trkpt lat="45.95063" lon="4.71483">
        <ele>181</ele>
        <time>2018-09-01T08:32:50Z</time>
      </trkpt>
      <trkpt lat="45.9507" lon="4.71485">
        <ele>180</ele>
        <time>2018-09-01T08:32:51Z</time>
      </trkpt>
      <trkpt lat="45.95078" lon="4.71484">
        <ele>180</ele>
        <time>2018-09-01T08:32:52Z</time>
      </trkpt>
      <trkpt lat="45.95086" lon="4.71487">
        <ele>179</ele>
        <time>2018-09-01T08:32:53Z</time>
      </trkpt>
      <trkpt lat="45.95091" lon="4.7149">
        <ele>179</ele>
        <time>2018-09-01T08:32:54Z</time>
      </trkpt>
      <trkpt lat="45.95102" lon="4.71486">
        <ele>179</ele>
        <time>2018-09-01T08:32:55Z</time>
      </trkpt>
      <trkpt lat="45.9511" lon="4.71488">
        <ele>179</ele>
        <time>2018-09-01T08:32:56Z</time>
      </trkpt>
      <trkpt lat="45.95118" lon="4.71488">
        <ele>178</ele>
        <time>2018-09-01T08:32:57Z</time>
      </trkpt>
      <trkpt lat="45.95125" lon="4.71487">
        <ele>178</ele>
        <time>2018-09-01T08:32:58Z</time>
      </trkpt>
      <trkpt lat="45.95132" lon="4.71487">
        <ele>178</ele>
        <time>2018-09-01T08:32:59Z</time>
      </trkpt>
      <trkpt lat="45.9514" lon="4.71485">
        <ele>178</ele>
        <time>2018-09-01T08:33:00Z</time>
      </trkpt>
      <trkpt lat="45.95148" lon="4.71488">
        <ele>178</ele>
        <time>2018-09-01T08:33:01Z</time>
      </trkpt>
      <trkpt lat="45.95156" lon="4.7149">
        <ele>178</ele>
        <time>2018-09-01T08:33:02Z</time>
      </trkpt>
      <trkpt lat="45.95166" lon="4.71492">
        <ele>177</ele>
        <time>2018-09-01T08:33:03Z</time>
      </trkpt>
      <trkpt lat="45.95174" lon="4.71494">
        <ele>177</ele>
        <time>2018-09-01T08:33:04Z</time>
      </trkpt>
      <trkpt lat="45.95184" lon="4.71491">
        <ele>177</ele>
        <time>2018-09-01T08:33:05Z</time>
      </trkpt>
      <trkpt lat="45.95192" lon="4.71494">
        <ele>177</ele>
        <time>2018-09-01T08:33:06Z</time>
      </trkpt>
      <trkpt lat="45.95198" lon="4.71497">
        <ele>177</ele>
        <time>2018-09-01T08:33:07Z</time>
      </trkpt>
      <trkpt lat="45.95206" lon="4.7149">
        <ele>177</ele>
        <time>2018-09-01T08:33:08Z</time>
      </trkpt>
      <trkpt lat="45.9521" lon="4.71491">
        <ele>177</ele>
        <time>2018-09-01T08:33:09Z</time>
      </trkpt>
      <trkpt lat="45.95219" lon="4.71495">
        <ele>177</ele>
        <time>2018-09-01T08:33:10Z</time>
      </trkpt>
      <trkpt lat="45.95226" lon="4.71494">
        <ele>177</ele>
        <time>2018-09-01T08:33:11Z</time>
      </trkpt>
      <trkpt lat="45.95234" lon="4.71493">
        <ele>177</ele>
        <time>2018-09-01T08:33:12Z</time>
      </trkpt>
      <trkpt lat="45.95243" lon="4.71491">
        <ele>177</ele>
        <time>2018-09-01T08:33:13Z</time>
      </trkpt>
      <trkpt lat="45.9525" lon="4.71494">
        <ele>177</ele>
        <time>2018-09-01T08:33:14Z</time>
      </trkpt>
      <trkpt lat="45.95258" lon="4.71495">
        <ele>177</ele>
        <time>2018-09-01T08:33:15Z</time>
      </trkpt>
      <trkpt lat="45.95265" lon="4.71494">
        <ele>176</ele>
        <time>2018-09-01T08:33:16Z</time>
      </trkpt>
      <trkpt lat="45.95272" lon="4.71493">
        <ele>176</ele>
        <time>2018-09-01T08:33:17Z</time>
      </trkpt>
      <trkpt lat="45.9528" lon="4.71496">
        <ele>176</ele>
        <time>2018-09-01T08:33:18Z</time>
      </trkpt>
      <trkpt lat="45.95287" lon="4.71497">
        <ele>176</ele>
        <time>2018-09-01T08:33:19Z</time>
      </trkpt>
      <trkpt lat="45.95296" lon="4.71496">
        <ele>176</ele>
        <time>2018-09-01T08:33:20Z</time>
      </trkpt>
      <trkpt lat="45.95305" lon="4.71496">
        <ele>175</ele>
        <time>2018-09-01T08:33:21Z</time>
      </trkpt>
      <trkpt lat="45.95314" lon="4.71495">
        <ele>175</ele>
        <time>2018-09-01T08:33:22Z</time>
      </trkpt>
      <trkpt lat="45.9532" lon="4.71497">
        <ele>175</ele>
        <time>2018-09-01T08:33:23Z</time>
      </trkpt>
      <trkpt lat="45.95328" lon="4.71496">
        <ele>174</ele>
        <time>2018-09-01T08:33:24Z</time>
      </trkpt>
      <trkpt lat="45.95335" lon="4.71496">
        <ele>174</ele>
        <time>2018-09-01T08:33:25Z</time>
      </trkpt>
      <trkpt lat="45.95342" lon="4.71496">
        <ele>174</ele>
        <time>2018-09-01T08:33:26Z</time>
      </trkpt>
      <trkpt lat="45.95347" lon="4.71499">
        <ele>174</ele>
        <time>2018-09-01T08:33:27Z</time>
      </trkpt>
      <trkpt lat="45.95355" lon="4.71497">
        <ele>175</ele>
        <time>2018-09-01T08:33:28Z</time>
      </trkpt>
      <trkpt lat="45.95361" lon="4.71497">
        <ele>175</ele>
        <time>2018-09-01T08:33:29Z</time>
      </trkpt>
      <trkpt lat="45.95368" lon="4.71499">
        <ele>175</ele>
        <time>2018-09-01T08:33:30Z</time>
      </trkpt>
      <trkpt lat="45.95374" lon="4.715">
        <ele>174</ele>
        <time>2018-09-01T08:33:31Z</time>
      </trkpt>
      <trkpt lat="45.9538" lon="4.715">
        <ele>175</ele>
        <time>2018-09-01T08:33:32Z</time>
      </trkpt>
      <trkpt lat="45.95388" lon="4.71499">
        <ele>175</ele>
        <time>2018-09-01T08:33:33Z</time>
      </trkpt>
      <trkpt lat="45.95395" lon="4.71499">
        <ele>175</ele>
        <time>2018-09-01T08:33:34Z</time>
      </trkpt>
      <trkpt lat="45.95401" lon="4.715">
        <ele>174</ele>
        <time>2018-09-01T08:33:35Z</time>
      </trkpt>
      <trkpt lat="45.95407" lon="4.71501">
        <ele>174</ele>
        <time>2018-09-01T08:33:36Z</time>
      </trkpt>
      <trkpt lat="45.95413" lon="4.71502">
        <ele>174</ele>
        <time>2018-09-01T08:33:37Z</time>
      </trkpt>
      <trkpt lat="45.9542" lon="4.71502">
        <ele>174</ele>
        <time>2018-09-01T08:33:38Z</time>
      </trkpt>
      <trkpt lat="45.95426" lon="4.71503">
        <ele>174</ele>
        <time>2018-09-01T08:33:39Z</time>
      </trkpt>
      <trkpt lat="45.95431" lon="4.71504">
        <ele>175</ele>
        <time>2018-09-01T08:33:40Z</time>
      </trkpt>
      <trkpt lat="45.95438" lon="4.71505">
        <ele>175</ele>
        <time>2018-09-01T08:33:41Z</time>
      </trkpt>
      <trkpt lat="45.95444" lon="4.71505">
        <ele>175</ele>
        <time>2018-09-01T08:33:42Z</time>
      </trkpt>
      <trkpt lat="45.9545" lon="4.71507">
        <ele>175</ele>
        <time>2018-09-01T08:33:43Z</time>
      </trkpt>
      <trkpt lat="45.95456" lon="4.71508">
        <ele>175</ele>
        <time>2018-09-01T08:33:44Z</time>
      </trkpt>
      <trkpt lat="45.95462" lon="4.71509">
        <ele>175</ele>
        <time>2018-09-01T08:33:45Z</time>
      </trkpt>
      <trkpt lat="45.95468" lon="4.7151">
        <ele>175</ele>
        <time>2018-09-01T08:33:46Z</time>
      </trkpt>
      <trkpt lat="45.95475" lon="4.7151">
        <ele>176</ele>
        <time>2018-09-01T08:33:47Z</time>
      </trkpt>
      <trkpt lat="45.95481" lon="4.7151">
        <ele>176</ele>
        <time>2018-09-01T08:33:48Z</time>
      </trkpt>
      <trkpt lat="45.95486" lon="4.71511">
        <ele>176</ele>
        <time>2018-09-01T08:33:49Z</time>
      </trkpt>
      <trkpt lat="45.95492" lon="4.71512">
        <ele>176</ele>
        <time>2018-09-01T08:33:50Z</time>
      </trkpt>
      <trkpt lat="45.95497" lon="4.71512">
        <ele>176</ele>
        <time>2018-09-01T08:33:51Z</time>
      </trkpt>
      <trkpt lat="45.95505" lon="4.71512">
        <ele>177</ele>
        <time>2018-09-01T08:33:52Z</time>
      </trkpt>
      <trkpt lat="45.95509" lon="4.7151">
        <ele>177</ele>
        <time>2018-09-01T08:33:53Z</time>
      </trkpt>
      <trkpt lat="45.95515" lon="4.71511">
        <ele>177</ele>
        <time>2018-09-01T08:33:54Z</time>
      </trkpt>
      <trkpt lat="45.95522" lon="4.71511">
        <ele>177</ele>
        <time>2018-09-01T08:33:55Z</time>
      </trkpt>
      <trkpt lat="45.95528" lon="4.71511">
        <ele>177</ele>
        <time>2018-09-01T08:33:56Z</time>
      </trkpt>
      <trkpt lat="45.95535" lon="4.7151">
        <ele>177</ele>
        <time>2018-09-01T08:33:57Z</time>
      </trkpt>
      <trkpt lat="45.95542" lon="4.71512">
        <ele>177</ele>
        <time>2018-09-01T08:33:58Z</time>
      </trkpt>
      <trkpt lat="45.95547" lon="4.71512">
        <ele>178</ele>
        <time>2018-09-01T08:33:59Z</time>
      </trkpt>
      <trkpt lat="45.95552" lon="4.71513">
        <ele>178</ele>
        <time>2018-09-01T08:34:00Z</time>
      </trkpt>
      <trkpt lat="45.95557" lon="4.71513">
        <ele>178</ele>
        <time>2018-09-01T08:34:01Z</time>
      </trkpt>
      <trkpt lat="45.95563" lon="4.71514">
        <ele>178</ele>
        <time>2018-09-01T08:34:02Z</time>
      </trkpt>
      <trkpt lat="45.95568" lon="4.71515">
        <ele>178</ele>
        <time>2018-09-01T08:34:03Z</time>
      </trkpt>
      <trkpt lat="45.95573" lon="4.71515">
        <ele>178</ele>
        <time>2018-09-01T08:34:04Z</time>
      </trkpt>
      <trkpt lat="45.9558" lon="4.71514">
        <ele>179</ele>
        <time>2018-09-01T08:34:05Z</time>
      </trkpt>
      <trkpt lat="45.95585" lon="4.71514">
        <ele>179</ele>
        <time>2018-09-01T08:34:06Z</time>
      </trkpt>
      <trkpt lat="45.95589" lon="4.71513">
        <ele>179</ele>
        <time>2018-09-01T08:34:07Z</time>
      </trkpt>
      <trkpt lat="45.95595" lon="4.71512">
        <ele>179</ele>
        <time>2018-09-01T08:34:08Z</time>
      </trkpt>
      <trkpt lat="45.956" lon="4.71513">
        <ele>179</ele>
        <time>2018-09-01T08:34:09Z</time>
      </trkpt>
      <trkpt lat="45.95605" lon="4.71513">
        <ele>179</ele>
        <time>2018-09-01T08:34:10Z</time>
      </trkpt>
      <trkpt lat="45.95611" lon="4.71513">
        <ele>179</ele>
        <time>2018-09-01T08:34:11Z</time>
      </trkpt>
      <trkpt lat="45.95618" lon="4.71514">
        <ele>179</ele>
        <time>2018-09-01T08:34:12Z</time>
      </trkpt>
      <trkpt lat="45.95622" lon="4.71515">
        <ele>179</ele>
        <time>2018-09-01T08:34:13Z</time>
      </trkpt>
      <trkpt lat="45.95628" lon="4.71515">
        <ele>179</ele>
        <time>2018-09-01T08:34:14Z</time>
      </trkpt>
      <trkpt lat="45.95633" lon="4.71516">
        <ele>180</ele>
        <time>2018-09-01T08:34:15Z</time>
      </trkpt>
      <trkpt lat="45.95639" lon="4.71516">
        <ele>180</ele>
        <time>2018-09-01T08:34:16Z</time>
      </trkpt>
      <trkpt lat="45.95644" lon="4.71515">
        <ele>180</ele>
        <time>2018-09-01T08:34:17Z</time>
      </trkpt>
      <trkpt lat="45.9565" lon="4.71515">
        <ele>180</ele>
        <time>2018-09-01T08:34:18Z</time>
      </trkpt>
      <trkpt lat="45.95655" lon="4.71516">
        <ele>180</ele>
        <time>2018-09-01T08:34:19Z</time>
      </trkpt>
      <trkpt lat="45.95661" lon="4.71516">
        <ele>180</ele>
        <time>2018-09-01T08:34:20Z</time>
      </trkpt>
      <trkpt lat="45.95666" lon="4.71516">
        <ele>180</ele>
        <time>2018-09-01T08:34:21Z</time>
      </trkpt>
      <trkpt lat="45.9567" lon="4.71516">
        <ele>181</ele>
        <time>2018-09-01T08:34:22Z</time>
      </trkpt>
      <trkpt lat="45.95675" lon="4.71517">
        <ele>181</ele>
        <time>2018-09-01T08:34:23Z</time>
      </trkpt>
      <trkpt lat="45.95681" lon="4.71515">
        <ele>181</ele>
        <time>2018-09-01T08:34:24Z</time>
      </trkpt>
      <trkpt lat="45.95687" lon="4.71516">
        <ele>180</ele>
        <time>2018-09-01T08:34:25Z</time>
      </trkpt>
      <trkpt lat="45.95691" lon="4.71518">
        <ele>180</ele>
        <time>2018-09-01T08:34:26Z</time>
      </trkpt>
      <trkpt lat="45.95696" lon="4.71517">
        <ele>180</ele>
        <time>2018-09-01T08:34:27Z</time>
      </trkpt>
      <trkpt lat="45.95703" lon="4.71515">
        <ele>180</ele>
        <time>2018-09-01T08:34:28Z</time>
      </trkpt>
      <trkpt lat="45.95709" lon="4.71515">
        <ele>180</ele>
        <time>2018-09-01T08:34:29Z</time>
      </trkpt>
      <trkpt lat="45.95713" lon="4.71515">
        <ele>180</ele>
        <time>2018-09-01T08:34:30Z</time>
      </trkpt>
      <trkpt lat="45.95719" lon="4.71515">
        <ele>180</ele>
        <time>2018-09-01T08:34:31Z</time>
      </trkpt>
      <trkpt lat="45.95723" lon="4.71517">
        <ele>180</ele>
        <time>2018-09-01T08:34:32Z</time>
      </trkpt>
      <trkpt lat="45.95727" lon="4.71515">
        <ele>180</ele>
        <time>2018-09-01T08:34:33Z</time>
      </trkpt>
      <trkpt lat="45.95733" lon="4.71517">
        <ele>180</ele>
        <time>2018-09-01T08:34:34Z</time>
      </trkpt>
      <trkpt lat="45.95737" lon="4.71519">
        <ele>180</ele>
        <time>2018-09-01T08:34:35Z</time>
      </trkpt>
      <trkpt lat="45.95742" lon="4.71518">
        <ele>181</ele>
        <time>2018-09-01T08:34:36Z</time>
      </trkpt>
      <trkpt lat="45.95748" lon="4.71519">
        <ele>181</ele>
        <time>2018-09-01T08:34:37Z</time>
      </trkpt>
      <trkpt lat="45.95753" lon="4.71518">
        <ele>181</ele>
        <time>2018-09-01T08:34:38Z</time>
      </trkpt>
      <trkpt lat="45.95762" lon="4.7152">
        <ele>181</ele>
        <time>2018-09-01T08:34:40Z</time>
      </trkpt>
      <trkpt lat="45.95767" lon="4.7152">
        <ele>181</ele>
        <time>2018-09-01T08:34:41Z</time>
      </trkpt>
      <trkpt lat="45.95772" lon="4.71522">
        <ele>181</ele>
        <time>2018-09-01T08:34:42Z</time>
      </trkpt>
      <trkpt lat="45.95777" lon="4.71523">
        <ele>181</ele>
        <time>2018-09-01T08:34:43Z</time>
      </trkpt>
      <trkpt lat="45.95782" lon="4.71523">
        <ele>181</ele>
        <time>2018-09-01T08:34:44Z</time>
      </trkpt>
      <trkpt lat="45.95786" lon="4.71523">
        <ele>181</ele>
        <time>2018-09-01T08:34:45Z</time>
      </trkpt>
      <trkpt lat="45.95791" lon="4.71523">
        <ele>181</ele>
        <time>2018-09-01T08:34:46Z</time>
      </trkpt>
      <trkpt lat="45.95797" lon="4.71523">
        <ele>181</ele>
        <time>2018-09-01T08:34:47Z</time>
      </trkpt>
      <trkpt lat="45.95802" lon="4.71524">
        <ele>181</ele>
        <time>2018-09-01T08:34:48Z</time>
      </trkpt>
      <trkpt lat="45.95807" lon="4.71524">
        <ele>181</ele>
        <time>2018-09-01T08:34:49Z</time>
      </trkpt>
      <trkpt lat="45.95816" lon="4.71525">
        <ele>181</ele>
        <time>2018-09-01T08:34:51Z</time>
      </trkpt>
      <trkpt lat="45.95821" lon="4.71526">
        <ele>181</ele>
        <time>2018-09-01T08:34:52Z</time>
      </trkpt>
      <trkpt lat="45.95826" lon="4.71528">
        <ele>181</ele>
        <time>2018-09-01T08:34:53Z</time>
      </trkpt>
      <trkpt lat="45.9583" lon="4.71528">
        <ele>181</ele>
        <time>2018-09-01T08:34:54Z</time>
      </trkpt>
      <trkpt lat="45.95839" lon="4.71529">
        <ele>182</ele>
        <time>2018-09-01T08:34:56Z</time>
      </trkpt>
      <trkpt lat="45.95843" lon="4.7153">
        <ele>182</ele>
        <time>2018-09-01T08:34:57Z</time>
      </trkpt>
      <trkpt lat="45.95848" lon="4.71531">
        <ele>182</ele>
        <time>2018-09-01T08:34:58Z</time>
      </trkpt>
      <trkpt lat="45.95852" lon="4.71532">
        <ele>182</ele>
        <time>2018-09-01T08:34:59Z</time>
      </trkpt>
      <trkpt lat="45.95861" lon="4.71535">
        <ele>181</ele>
        <time>2018-09-01T08:35:01Z</time>
      </trkpt>
      <trkpt lat="45.95866" lon="4.71535">
        <ele>181</ele>
        <time>2018-09-01T08:35:02Z</time>
      </trkpt>
      <trkpt lat="45.95871" lon="4.71536">
        <ele>181</ele>
        <time>2018-09-01T08:35:03Z</time>
      </trkpt>
      <trkpt lat="45.95874" lon="4.71537">
        <ele>181</ele>
        <time>2018-09-01T08:35:04Z</time>
      </trkpt>
      <trkpt lat="45.9588" lon="4.71538">
        <ele>181</ele>
        <time>2018-09-01T08:35:05Z</time>
      </trkpt>
      <trkpt lat="45.95884" lon="4.71538">
        <ele>181</ele>
        <time>2018-09-01T08:35:06Z</time>
      </trkpt>
      <trkpt lat="45.95889" lon="4.71539">
        <ele>181</ele>
        <time>2018-09-01T08:35:07Z</time>
      </trkpt>
      <trkpt lat="45.95893" lon="4.7154">
        <ele>181</ele>
        <time>2018-09-01T08:35:08Z</time>
      </trkpt>
      <trkpt lat="45.95899" lon="4.71539">
        <ele>181</ele>
        <time>2018-09-01T08:35:09Z</time>
      </trkpt>
      <trkpt lat="45.95904" lon="4.71539">
        <ele>182</ele>
        <time>2018-09-01T08:35:10Z</time>
      </trkpt>
      <trkpt lat="45.95913" lon="4.71537">
        <ele>182</ele>
        <time>2018-09-01T08:35:11Z</time>
      </trkpt>
      <trkpt lat="45.95918" lon="4.71538">
        <ele>183</ele>
        <time>2018-09-01T08:35:12Z</time>
      </trkpt>
      <trkpt lat="45.95923" lon="4.71537">
        <ele>183</ele>
        <time>2018-09-01T08:35:13Z</time>
      </trkpt>
      <trkpt lat="45.95931" lon="4.71538">
        <ele>183</ele>
        <time>2018-09-01T08:35:15Z</time>
      </trkpt>
      <trkpt lat="45.95936" lon="4.71539">
        <ele>183</ele>
        <time>2018-09-01T08:35:16Z</time>
      </trkpt>
      <trkpt lat="45.95941" lon="4.71539">
        <ele>183</ele>
        <time>2018-09-01T08:35:17Z</time>
      </trkpt>
      <trkpt lat="45.95946" lon="4.71539">
        <ele>183</ele>
        <time>2018-09-01T08:35:18Z</time>
      </trkpt>
      <trkpt lat="45.95949" lon="4.7154">
        <ele>183</ele>
        <time>2018-09-01T08:35:19Z</time>
      </trkpt>
      <trkpt lat="45.95955" lon="4.7154">
        <ele>183</ele>
        <time>2018-09-01T08:35:20Z</time>
      </trkpt>
      <trkpt lat="45.95962" lon="4.71544">
        <ele>183</ele>
        <time>2018-09-01T08:35:22Z</time>
      </trkpt>
      <trkpt lat="45.95967" lon="4.71545">
        <ele>183</ele>
        <time>2018-09-01T08:35:23Z</time>
      </trkpt>
      <trkpt lat="45.9597" lon="4.71548">
        <ele>183</ele>
        <time>2018-09-01T08:35:24Z</time>
      </trkpt>
      <trkpt lat="45.95976" lon="4.71549">
        <ele>183</ele>
        <time>2018-09-01T08:35:25Z</time>
      </trkpt>
      <trkpt lat="45.95985" lon="4.71551">
        <ele>183</ele>
        <time>2018-09-01T08:35:27Z</time>
      </trkpt>
      <trkpt lat="45.95988" lon="4.71552">
        <ele>183</ele>
        <time>2018-09-01T08:35:28Z</time>
      </trkpt>
      <trkpt lat="45.95996" lon="4.71549">
        <ele>184</ele>
        <time>2018-09-01T08:35:30Z</time>
      </trkpt>
      <trkpt lat="45.96003" lon="4.71545">
        <ele>185</ele>
        <time>2018-09-01T08:35:31Z</time>
      </trkpt>
      <trkpt lat="45.96008" lon="4.7154">
        <ele>185</ele>
        <time>2018-09-01T08:35:32Z</time>
      </trkpt>
      <trkpt lat="45.96013" lon="4.71539">
        <ele>185</ele>
        <time>2018-09-01T08:35:33Z</time>
      </trkpt>
      <trkpt lat="45.96017" lon="4.71537">
        <ele>185</ele>
        <time>2018-09-01T08:35:34Z</time>
      </trkpt>
      <trkpt lat="45.96022" lon="4.71538">
        <ele>185</ele>
        <time>2018-09-01T08:35:35Z</time>
      </trkpt>
      <trkpt lat="45.96028" lon="4.71539">
        <ele>185</ele>
        <time>2018-09-01T08:35:36Z</time>
      </trkpt>
      <trkpt lat="45.96034" lon="4.71539">
        <ele>185</ele>
        <time>2018-09-01T08:35:37Z</time>
      </trkpt>
      <trkpt lat="45.96039" lon="4.7154">
        <ele>185</ele>
        <time>2018-09-01T08:35:38Z</time>
      </trkpt>
      <trkpt lat="45.96044" lon="4.71541">
        <ele>185</ele>
        <time>2018-09-01T08:35:39Z</time>
      </trkpt>
      <trkpt lat="45.9605" lon="4.71544">
        <ele>185</ele>
        <time>2018-09-01T08:35:40Z</time>
      </trkpt>
      <trkpt lat="45.96055" lon="4.71546">
        <ele>185</ele>
        <time>2018-09-01T08:35:41Z</time>
      </trkpt>
      <trkpt lat="45.9606" lon="4.71547">
        <ele>185</ele>
        <time>2018-09-01T08:35:42Z</time>
      </trkpt>
      <trkpt lat="45.96066" lon="4.71547">
        <ele>185</ele>
        <time>2018-09-01T08:35:43Z</time>
      </trkpt>
      <trkpt lat="45.96071" lon="4.7155">
        <ele>185</ele>
        <time>2018-09-01T08:35:44Z</time>
      </trkpt>
      <trkpt lat="45.96076" lon="4.71551">
        <ele>185</ele>
        <time>2018-09-01T08:35:45Z</time>
      </trkpt>
      <trkpt lat="45.96081" lon="4.71554">
        <ele>185</ele>
        <time>2018-09-01T08:35:46Z</time>
      </trkpt>
      <trkpt lat="45.96085" lon="4.71554">
        <ele>184</ele>
        <time>2018-09-01T08:35:47Z</time>
      </trkpt>
      <trkpt lat="45.96092" lon="4.71554">
        <ele>184</ele>
        <time>2018-09-01T08:35:48Z</time>
      </trkpt>
      <trkpt lat="45.96097" lon="4.71555">
        <ele>184</ele>
        <time>2018-09-01T08:35:49Z</time>
      </trkpt>
      <trkpt lat="45.96103" lon="4.71556">
        <ele>184</ele>
        <time>2018-09-01T08:35:50Z</time>
      </trkpt>
      <trkpt lat="45.96109" lon="4.71556">
        <ele>184</ele>
        <time>2018-09-01T08:35:51Z</time>
      </trkpt>
      <trkpt lat="45.96116" lon="4.71556">
        <ele>184</ele>
        <time>2018-09-01T08:35:52Z</time>
      </trkpt>
      <trkpt lat="45.96123" lon="4.71556">
        <ele>184</ele>
        <time>2018-09-01T08:35:53Z</time>
      </trkpt>
      <trkpt lat="45.96129" lon="4.71557">
        <ele>184</ele>
        <time>2018-09-01T08:35:54Z</time>
      </trkpt>
      <trkpt lat="45.96136" lon="4.71557">
        <ele>184</ele>
        <time>2018-09-01T08:35:55Z</time>
      </trkpt>
      <trkpt lat="45.96142" lon="4.71557">
        <ele>184</ele>
        <time>2018-09-01T08:35:56Z</time>
      </trkpt>
      <trkpt lat="45.96148" lon="4.71558">
        <ele>184</ele>
        <time>2018-09-01T08:35:57Z</time>
      </trkpt>
      <trkpt lat="45.96154" lon="4.71558">
        <ele>183</ele>
        <time>2018-09-01T08:35:58Z</time>
      </trkpt>
      <trkpt lat="45.9616" lon="4.71558">
        <ele>183</ele>
        <time>2018-09-01T08:35:59Z</time>
      </trkpt>
      <trkpt lat="45.96167" lon="4.71559">
        <ele>183</ele>
        <time>2018-09-01T08:36:00Z</time>
      </trkpt>
      <trkpt lat="45.96173" lon="4.7156">
        <ele>183</ele>
        <time>2018-09-01T08:36:01Z</time>
      </trkpt>
      <trkpt lat="45.96179" lon="4.71562">
        <ele>183</ele>
        <time>2018-09-01T08:36:02Z</time>
      </trkpt>
      <trkpt lat="45.96185" lon="4.71564">
        <ele>183</ele>
        <time>2018-09-01T08:36:03Z</time>
      </trkpt>
      <trkpt lat="45.96191" lon="4.71565">
        <ele>183</ele>
        <time>2018-09-01T08:36:04Z</time>
      </trkpt>
      <trkpt lat="45.96199" lon="4.71562">
        <ele>183</ele>
        <time>2018-09-01T08:36:05Z</time>
      </trkpt>
      <trkpt lat="45.96205" lon="4.71565">
        <ele>183</ele>
        <time>2018-09-01T08:36:06Z</time>
      </trkpt>
      <trkpt lat="45.9621" lon="4.71567">
        <ele>183</ele>
        <time>2018-09-01T08:36:07Z</time>
      </trkpt>
      <trkpt lat="45.96216" lon="4.71568">
        <ele>183</ele>
        <time>2018-09-01T08:36:08Z</time>
      </trkpt>
      <trkpt lat="45.96222" lon="4.71569">
        <ele>183</ele>
        <time>2018-09-01T08:36:09Z</time>
      </trkpt>
      <trkpt lat="45.96228" lon="4.7157">
        <ele>183</ele>
        <time>2018-09-01T08:36:10Z</time>
      </trkpt>
      <trkpt lat="45.96234" lon="4.71571">
        <ele>183</ele>
        <time>2018-09-01T08:36:11Z</time>
      </trkpt>
      <trkpt lat="45.96238" lon="4.71574">
        <ele>182</ele>
        <time>2018-09-01T08:36:12Z</time>
      </trkpt>
      <trkpt lat="45.96243" lon="4.71577">
        <ele>182</ele>
        <time>2018-09-01T08:36:13Z</time>
      </trkpt>
      <trkpt lat="45.96249" lon="4.71576">
        <ele>182</ele>
        <time>2018-09-01T08:36:14Z</time>
      </trkpt>
      <trkpt lat="45.96254" lon="4.71577">
        <ele>182</ele>
        <time>2018-09-01T08:36:15Z</time>
      </trkpt>
      <trkpt lat="45.96261" lon="4.71578">
        <ele>183</ele>
        <time>2018-09-01T08:36:16Z</time>
      </trkpt>
      <trkpt lat="45.96267" lon="4.71579">
        <ele>183</ele>
        <time>2018-09-01T08:36:17Z</time>
      </trkpt>
      <trkpt lat="45.96273" lon="4.7158">
        <ele>183</ele>
        <time>2018-09-01T08:36:18Z</time>
      </trkpt>
      <trkpt lat="45.9628" lon="4.71581">
        <ele>184</ele>
        <time>2018-09-01T08:36:19Z</time>
      </trkpt>
      <trkpt lat="45.96286" lon="4.71583">
        <ele>184</ele>
        <time>2018-09-01T08:36:20Z</time>
      </trkpt>
      <trkpt lat="45.96292" lon="4.71584">
        <ele>181</ele>
        <time>2018-09-01T08:36:21Z</time>
      </trkpt>
      <trkpt lat="45.96297" lon="4.71585">
        <ele>181</ele>
        <time>2018-09-01T08:36:22Z</time>
      </trkpt>
      <trkpt lat="45.96303" lon="4.71585">
        <ele>181</ele>
        <time>2018-09-01T08:36:23Z</time>
      </trkpt>
      <trkpt lat="45.96308" lon="4.71587">
        <ele>181</ele>
        <time>2018-09-01T08:36:24Z</time>
      </trkpt>
      <trkpt lat="45.96314" lon="4.71587">
        <ele>181</ele>
        <time>2018-09-01T08:36:25Z</time>
      </trkpt>
      <trkpt lat="45.96318" lon="4.71588">
        <ele>182</ele>
        <time>2018-09-01T08:36:26Z</time>
      </trkpt>
      <trkpt lat="45.96324" lon="4.71589">
        <ele>182</ele>
        <time>2018-09-01T08:36:27Z</time>
      </trkpt>
      <trkpt lat="45.96328" lon="4.71591">
        <ele>182</ele>
        <time>2018-09-01T08:36:28Z</time>
      </trkpt>
      <trkpt lat="45.96333" lon="4.71592">
        <ele>183</ele>
        <time>2018-09-01T08:36:29Z</time>
      </trkpt>
      <trkpt lat="45.96339" lon="4.7159">
        <ele>183</ele>
        <time>2018-09-01T08:36:30Z</time>
      </trkpt>
      <trkpt lat="45.96345" lon="4.71592">
        <ele>182</ele>
        <time>2018-09-01T08:36:31Z</time>
      </trkpt>
      <trkpt lat="45.9635" lon="4.71593">
        <ele>182</ele>
        <time>2018-09-01T08:36:32Z</time>
      </trkpt>
      <trkpt lat="45.9636" lon="4.71589">
        <ele>182</ele>
        <time>2018-09-01T08:36:33Z</time>
      </trkpt>
      <trkpt lat="45.96365" lon="4.71591">
        <ele>182</ele>
        <time>2018-09-01T08:36:34Z</time>
      </trkpt>
      <trkpt lat="45.96372" lon="4.7159">
        <ele>182</ele>
        <time>2018-09-01T08:36:35Z</time>
      </trkpt>
      <trkpt lat="45.96378" lon="4.71591">
        <ele>182</ele>
        <time>2018-09-01T08:36:36Z</time>
      </trkpt>
      <trkpt lat="45.96384" lon="4.71591">
        <ele>183</ele>
        <time>2018-09-01T08:36:37Z</time>
      </trkpt>
      <trkpt lat="45.9639" lon="4.71592">
        <ele>183</ele>
        <time>2018-09-01T08:36:38Z</time>
      </trkpt>
      <trkpt lat="45.96396" lon="4.71593">
        <ele>183</ele>
        <time>2018-09-01T08:36:39Z</time>
      </trkpt>
      <trkpt lat="45.96402" lon="4.71595">
        <ele>183</ele>
        <time>2018-09-01T08:36:40Z</time>
      </trkpt>
      <trkpt lat="45.96409" lon="4.71593">
        <ele>184</ele>
        <time>2018-09-01T08:36:41Z</time>
      </trkpt>
      <trkpt lat="45.96415" lon="4.71594">
        <ele>184</ele>
        <time>2018-09-01T08:36:42Z</time>
      </trkpt>
      <trkpt lat="45.9642" lon="4.71596">
        <ele>184</ele>
        <time>2018-09-01T08:36:43Z</time>
      </trkpt>
      <trkpt lat="45.96426" lon="4.71597">
        <ele>184</ele>
        <time>2018-09-01T08:36:44Z</time>
      </trkpt>
      <trkpt lat="45.96432" lon="4.71598">
        <ele>184</ele>
        <time>2018-09-01T08:36:45Z</time>
      </trkpt>
      <trkpt lat="45.96437" lon="4.71599">
        <ele>183</ele>
        <time>2018-09-01T08:36:46Z</time>
      </trkpt>
      <trkpt lat="45.96442" lon="4.716">
        <ele>183</ele>
        <time>2018-09-01T08:36:47Z</time>
      </trkpt>
      <trkpt lat="45.96447" lon="4.71601">
        <ele>183</ele>
        <time>2018-09-01T08:36:48Z</time>
      </trkpt>
      <trkpt lat="45.96453" lon="4.71601">
        <ele>183</ele>
        <time>2018-09-01T08:36:49Z</time>
      </trkpt>
      <trkpt lat="45.96458" lon="4.71602">
        <ele>183</ele>
        <time>2018-09-01T08:36:50Z</time>
      </trkpt>
      <trkpt lat="45.96464" lon="4.71603">
        <ele>183</ele>
        <time>2018-09-01T08:36:51Z</time>
      </trkpt>
      <trkpt lat="45.96467" lon="4.71606">
        <ele>183</ele>
        <time>2018-09-01T08:36:52Z</time>
      </trkpt>
      <trkpt lat="45.96473" lon="4.71605">
        <ele>183</ele>
        <time>2018-09-01T08:36:53Z</time>
      </trkpt>
      <trkpt lat="45.96478" lon="4.71605">
        <ele>183</ele>
        <time>2018-09-01T08:36:54Z</time>
      </trkpt>
      <trkpt lat="45.96484" lon="4.71606">
        <ele>183</ele>
        <time>2018-09-01T08:36:55Z</time>
      </trkpt>
      <trkpt lat="45.96489" lon="4.71607">
        <ele>183</ele>
        <time>2018-09-01T08:36:56Z</time>
      </trkpt>
      <trkpt lat="45.96493" lon="4.71609">
        <ele>183</ele>
        <time>2018-09-01T08:36:57Z</time>
      </trkpt>
      <trkpt lat="45.96499" lon="4.71609">
        <ele>183</ele>
        <time>2018-09-01T08:36:58Z</time>
      </trkpt>
      <trkpt lat="45.96504" lon="4.71609">
        <ele>184</ele>
        <time>2018-09-01T08:36:59Z</time>
      </trkpt>
      <trkpt lat="45.96509" lon="4.71612">
        <ele>184</ele>
        <time>2018-09-01T08:37:00Z</time>
      </trkpt>
      <trkpt lat="45.96514" lon="4.71613">
        <ele>184</ele>
        <time>2018-09-01T08:37:01Z</time>
      </trkpt>
      <trkpt lat="45.96517" lon="4.71616">
        <ele>184</ele>
        <time>2018-09-01T08:37:02Z</time>
      </trkpt>
      <trkpt lat="45.96523" lon="4.71618">
        <ele>184</ele>
        <time>2018-09-01T08:37:03Z</time>
      </trkpt>
      <trkpt lat="45.96526" lon="4.71622">
        <ele>184</ele>
        <time>2018-09-01T08:37:04Z</time>
      </trkpt>
      <trkpt lat="45.9653" lon="4.71627">
        <ele>184</ele>
        <time>2018-09-01T08:37:05Z</time>
      </trkpt>
      <trkpt lat="45.96534" lon="4.71631">
        <ele>184</ele>
        <time>2018-09-01T08:37:06Z</time>
      </trkpt>
      <trkpt lat="45.96539" lon="4.71632">
        <ele>184</ele>
        <time>2018-09-01T08:37:07Z</time>
      </trkpt>
      <trkpt lat="45.96544" lon="4.7163">
        <ele>184</ele>
        <time>2018-09-01T08:37:08Z</time>
      </trkpt>
      <trkpt lat="45.96549" lon="4.71627">
        <ele>184</ele>
        <time>2018-09-01T08:37:09Z</time>
      </trkpt>
      <trkpt lat="45.96555" lon="4.71619">
        <ele>185</ele>
        <time>2018-09-01T08:37:10Z</time>
      </trkpt>
      <trkpt lat="45.9656" lon="4.71614">
        <ele>185</ele>
        <time>2018-09-01T08:37:11Z</time>
      </trkpt>
      <trkpt lat="45.96564" lon="4.71612">
        <ele>185</ele>
        <time>2018-09-01T08:37:12Z</time>
      </trkpt>
      <trkpt lat="45.9657" lon="4.71611">
        <ele>186</ele>
        <time>2018-09-01T08:37:13Z</time>
      </trkpt>
      <trkpt lat="45.96574" lon="4.71613">
        <ele>186</ele>
        <time>2018-09-01T08:37:14Z</time>
      </trkpt>
      <trkpt lat="45.96579" lon="4.71616">
        <ele>185</ele>
        <time>2018-09-01T08:37:15Z</time>
      </trkpt>
      <trkpt lat="45.96584" lon="4.71617">
        <ele>187</ele>
        <time>2018-09-01T08:37:16Z</time>
      </trkpt>
      <trkpt lat="45.9659" lon="4.71617">
        <ele>188</ele>
        <time>2018-09-01T08:37:17Z</time>
      </trkpt>
      <trkpt lat="45.96595" lon="4.71619">
        <ele>188</ele>
        <time>2018-09-01T08:37:18Z</time>
      </trkpt>
      <trkpt lat="45.96601" lon="4.71619">
        <ele>188</ele>
        <time>2018-09-01T08:37:19Z</time>
      </trkpt>
      <trkpt lat="45.96609" lon="4.71623">
        <ele>188</ele>
        <time>2018-09-01T08:37:21Z</time>
      </trkpt>
      <trkpt lat="45.96615" lon="4.71624">
        <ele>188</ele>
        <time>2018-09-01T08:37:22Z</time>
      </trkpt>
      <trkpt lat="45.96619" lon="4.71627">
        <ele>188</ele>
        <time>2018-09-01T08:37:23Z</time>
      </trkpt>
      <trkpt lat="45.96624" lon="4.71631">
        <ele>188</ele>
        <time>2018-09-01T08:37:24Z</time>
      </trkpt>
      <trkpt lat="45.96629" lon="4.71632">
        <ele>188</ele>
        <time>2018-09-01T08:37:25Z</time>
      </trkpt>
      <trkpt lat="45.96634" lon="4.71634">
        <ele>188</ele>
        <time>2018-09-01T08:37:26Z</time>
      </trkpt>
      <trkpt lat="45.96639" lon="4.71636">
        <ele>188</ele>
        <time>2018-09-01T08:37:27Z</time>
      </trkpt>
      <trkpt lat="45.96645" lon="4.71636">
        <ele>188</ele>
        <time>2018-09-01T08:37:28Z</time>
      </trkpt>
      <trkpt lat="45.9665" lon="4.71638">
        <ele>188</ele>
        <time>2018-09-01T08:37:29Z</time>
      </trkpt>
      <trkpt lat="45.96653" lon="4.7164">
        <ele>188</ele>
        <time>2018-09-01T08:37:30Z</time>
      </trkpt>
      <trkpt lat="45.9666" lon="4.7164">
        <ele>188</ele>
        <time>2018-09-01T08:37:31Z</time>
      </trkpt>
      <trkpt lat="45.96666" lon="4.71641">
        <ele>188</ele>
        <time>2018-09-01T08:37:32Z</time>
      </trkpt>
      <trkpt lat="45.96672" lon="4.71639">
        <ele>189</ele>
        <time>2018-09-01T08:37:33Z</time>
      </trkpt>
      <trkpt lat="45.96677" lon="4.71639">
        <ele>190</ele>
        <time>2018-09-01T08:37:34Z</time>
      </trkpt>
      <trkpt lat="45.96683" lon="4.71639">
        <ele>190</ele>
        <time>2018-09-01T08:37:35Z</time>
      </trkpt>
      <trkpt lat="45.96686" lon="4.71641">
        <ele>190</ele>
        <time>2018-09-01T08:37:36Z</time>
      </trkpt>
      <trkpt lat="45.96692" lon="4.71642">
        <ele>190</ele>
        <time>2018-09-01T08:37:37Z</time>
      </trkpt>
      <trkpt lat="45.96696" lon="4.71641">
        <ele>190</ele>
        <time>2018-09-01T08:37:38Z</time>
      </trkpt>
      <trkpt lat="45.96701" lon="4.71641">
        <ele>190</ele>
        <time>2018-09-01T08:37:39Z</time>
      </trkpt>
      <trkpt lat="45.96706" lon="4.71643">
        <ele>190</ele>
        <time>2018-09-01T08:37:40Z</time>
      </trkpt>
      <trkpt lat="45.96711" lon="4.71644">
        <ele>190</ele>
        <time>2018-09-01T08:37:41Z</time>
      </trkpt>
      <trkpt lat="45.96716" lon="4.71646">
        <ele>190</ele>
        <time>2018-09-01T08:37:42Z</time>
      </trkpt>
      <trkpt lat="45.96722" lon="4.71647">
        <ele>190</ele>
        <time>2018-09-01T08:37:43Z</time>
      </trkpt>
      <trkpt lat="45.96727" lon="4.71648">
        <ele>190</ele>
        <time>2018-09-01T08:37:44Z</time>
      </trkpt>
      <trkpt lat="45.96732" lon="4.71649">
        <ele>190</ele>
        <time>2018-09-01T08:37:45Z</time>
      </trkpt>
      <trkpt lat="45.96737" lon="4.7165">
        <ele>190</ele>
        <time>2018-09-01T08:37:46Z</time>
      </trkpt>
      <trkpt lat="45.96742" lon="4.71652">
        <ele>190</ele>
        <time>2018-09-01T08:37:47Z</time>
      </trkpt>
      <trkpt lat="45.96747" lon="4.71652">
        <ele>190</ele>
        <time>2018-09-01T08:37:48Z</time>
      </trkpt>
      <trkpt lat="45.96752" lon="4.71654">
        <ele>191</ele>
        <time>2018-09-01T08:37:49Z</time>
      </trkpt>
      <trkpt lat="45.96757" lon="4.71656">
        <ele>191</ele>
        <time>2018-09-01T08:37:50Z</time>
      </trkpt>
      <trkpt lat="45.96762" lon="4.71656">
        <ele>191</ele>
        <time>2018-09-01T08:37:51Z</time>
      </trkpt>
      <trkpt lat="45.96767" lon="4.71655">
        <ele>191</ele>
        <time>2018-09-01T08:37:52Z</time>
      </trkpt>
      <trkpt lat="45.96776" lon="4.71656">
        <ele>192</ele>
        <time>2018-09-01T08:37:54Z</time>
      </trkpt>
      <trkpt lat="45.9678" lon="4.71657">
        <ele>192</ele>
        <time>2018-09-01T08:37:55Z</time>
      </trkpt>
      <trkpt lat="45.96785" lon="4.71657">
        <ele>192</ele>
        <time>2018-09-01T08:37:56Z</time>
      </trkpt>
      <trkpt lat="45.9679" lon="4.71658">
        <ele>192</ele>
        <time>2018-09-01T08:37:57Z</time>
      </trkpt>
      <trkpt lat="45.96795" lon="4.71657">
        <ele>192</ele>
        <time>2018-09-01T08:37:58Z</time>
      </trkpt>
      <trkpt lat="45.96803" lon="4.71656">
        <ele>193</ele>
        <time>2018-09-01T08:37:59Z</time>
      </trkpt>
      <trkpt lat="45.96807" lon="4.71658">
        <ele>193</ele>
        <time>2018-09-01T08:38:00Z</time>
      </trkpt>
      <trkpt lat="45.96812" lon="4.71657">
        <ele>193</ele>
        <time>2018-09-01T08:38:01Z</time>
      </trkpt>
      <trkpt lat="45.96817" lon="4.7166">
        <ele>193</ele>
        <time>2018-09-01T08:38:02Z</time>
      </trkpt>
      <trkpt lat="45.96822" lon="4.71661">
        <ele>192</ele>
        <time>2018-09-01T08:38:03Z</time>
      </trkpt>
      <trkpt lat="45.96828" lon="4.71662">
        <ele>192</ele>
        <time>2018-09-01T08:38:04Z</time>
      </trkpt>
      <trkpt lat="45.96834" lon="4.71664">
        <ele>192</ele>
        <time>2018-09-01T08:38:05Z</time>
      </trkpt>
      <trkpt lat="45.96839" lon="4.71665">
        <ele>193</ele>
        <time>2018-09-01T08:38:06Z</time>
      </trkpt>
      <trkpt lat="45.96846" lon="4.71665">
        <ele>194</ele>
        <time>2018-09-01T08:38:07Z</time>
      </trkpt>
      <trkpt lat="45.96855" lon="4.71666">
        <ele>194</ele>
        <time>2018-09-01T08:38:09Z</time>
      </trkpt>
      <trkpt lat="45.9686" lon="4.71667">
        <ele>190</ele>
        <time>2018-09-01T08:38:10Z</time>
      </trkpt>
      <trkpt lat="45.96865" lon="4.71669">
        <ele>190</ele>
        <time>2018-09-01T08:38:11Z</time>
      </trkpt>
      <trkpt lat="45.9687" lon="4.71669">
        <ele>190</ele>
        <time>2018-09-01T08:38:12Z</time>
      </trkpt>
      <trkpt lat="45.96876" lon="4.71669">
        <ele>191</ele>
        <time>2018-09-01T08:38:13Z</time>
      </trkpt>
      <trkpt lat="45.9688" lon="4.7167">
        <ele>191</ele>
        <time>2018-09-01T08:38:14Z</time>
      </trkpt>
      <trkpt lat="45.96886" lon="4.7167">
        <ele>191</ele>
        <time>2018-09-01T08:38:15Z</time>
      </trkpt>
      <trkpt lat="45.96892" lon="4.71672">
        <ele>191</ele>
        <time>2018-09-01T08:38:16Z</time>
      </trkpt>
      <trkpt lat="45.96897" lon="4.71673">
        <ele>192</ele>
        <time>2018-09-01T08:38:17Z</time>
      </trkpt>
      <trkpt lat="45.96903" lon="4.71672">
        <ele>192</ele>
        <time>2018-09-01T08:38:18Z</time>
      </trkpt>
      <trkpt lat="45.9691" lon="4.71676">
        <ele>193</ele>
        <time>2018-09-01T08:38:20Z</time>
      </trkpt>
      <trkpt lat="45.96916" lon="4.71676">
        <ele>193</ele>
        <time>2018-09-01T08:38:21Z</time>
      </trkpt>
      <trkpt lat="45.96921" lon="4.71677">
        <ele>193</ele>
        <time>2018-09-01T08:38:22Z</time>
      </trkpt>
      <trkpt lat="45.96926" lon="4.71678">
        <ele>193</ele>
        <time>2018-09-01T08:38:23Z</time>
      </trkpt>
      <trkpt lat="45.96932" lon="4.71676">
        <ele>193</ele>
        <time>2018-09-01T08:38:24Z</time>
      </trkpt>
      <trkpt lat="45.96937" lon="4.71675">
        <ele>192</ele>
        <time>2018-09-01T08:38:25Z</time>
      </trkpt>
      <trkpt lat="45.96942" lon="4.71675">
        <ele>192</ele>
        <time>2018-09-01T08:38:26Z</time>
      </trkpt>
      <trkpt lat="45.96949" lon="4.71676">
        <ele>192</ele>
        <time>2018-09-01T08:38:27Z</time>
      </trkpt>
      <trkpt lat="45.96954" lon="4.71678">
        <ele>192</ele>
        <time>2018-09-01T08:38:28Z</time>
      </trkpt>
      <trkpt lat="45.9696" lon="4.71677">
        <ele>192</ele>
        <time>2018-09-01T08:38:29Z</time>
      </trkpt>
      <trkpt lat="45.96969" lon="4.7168">
        <ele>192</ele>
        <time>2018-09-01T08:38:31Z</time>
      </trkpt>
      <trkpt lat="45.96973" lon="4.71681">
        <ele>192</ele>
        <time>2018-09-01T08:38:32Z</time>
      </trkpt>
      <trkpt lat="45.96978" lon="4.71682">
        <ele>192</ele>
        <time>2018-09-01T08:38:33Z</time>
      </trkpt>
      <trkpt lat="45.96983" lon="4.71682">
        <ele>192</ele>
        <time>2018-09-01T08:38:34Z</time>
      </trkpt>
      <trkpt lat="45.96988" lon="4.71684">
        <ele>192</ele>
        <time>2018-09-01T08:38:35Z</time>
      </trkpt>
      <trkpt lat="45.96995" lon="4.71684">
        <ele>192</ele>
        <time>2018-09-01T08:38:36Z</time>
      </trkpt>
      <trkpt lat="45.97" lon="4.71684">
        <ele>192</ele>
        <time>2018-09-01T08:38:37Z</time>
      </trkpt>
      <trkpt lat="45.97004" lon="4.71686">
        <ele>193</ele>
        <time>2018-09-01T08:38:38Z</time>
      </trkpt>
      <trkpt lat="45.97011" lon="4.71688">
        <ele>193</ele>
        <time>2018-09-01T08:38:40Z</time>
      </trkpt>
      <trkpt lat="45.97016" lon="4.71689">
        <ele>193</ele>
        <time>2018-09-01T08:38:41Z</time>
      </trkpt>
      <trkpt lat="45.97022" lon="4.71689">
        <ele>193</ele>
        <time>2018-09-01T08:38:42Z</time>
      </trkpt>
      <trkpt lat="45.97027" lon="4.71689">
        <ele>193</ele>
        <time>2018-09-01T08:38:43Z</time>
      </trkpt>
      <trkpt lat="45.97032" lon="4.7169">
        <ele>192</ele>
        <time>2018-09-01T08:38:44Z</time>
      </trkpt>
      <trkpt lat="45.97036" lon="4.7169">
        <ele>192</ele>
        <time>2018-09-01T08:38:45Z</time>
      </trkpt>
      <trkpt lat="45.9704" lon="4.7169">
        <ele>193</ele>
        <time>2018-09-01T08:38:46Z</time>
      </trkpt>
      <trkpt lat="45.97047" lon="4.71689">
        <ele>193</ele>
        <time>2018-09-01T08:38:47Z</time>
      </trkpt>
      <trkpt lat="45.97052" lon="4.7169">
        <ele>193</ele>
        <time>2018-09-01T08:38:48Z</time>
      </trkpt>
      <trkpt lat="45.97056" lon="4.7169">
        <ele>193</ele>
        <time>2018-09-01T08:38:49Z</time>
      </trkpt>
      <trkpt lat="45.97062" lon="4.71691">
        <ele>193</ele>
        <time>2018-09-01T08:38:50Z</time>
      </trkpt>
      <trkpt lat="45.97068" lon="4.71691">
        <ele>193</ele>
        <time>2018-09-01T08:38:51Z</time>
      </trkpt>
      <trkpt lat="45.97073" lon="4.71692">
        <ele>193</ele>
        <time>2018-09-01T08:38:52Z</time>
      </trkpt>
      <trkpt lat="45.97077" lon="4.71691">
        <ele>193</ele>
        <time>2018-09-01T08:38:53Z</time>
      </trkpt>
      <trkpt lat="45.97082" lon="4.71691">
        <ele>193</ele>
        <time>2018-09-01T08:38:54Z</time>
      </trkpt>
      <trkpt lat="45.97087" lon="4.71691">
        <ele>194</ele>
        <time>2018-09-01T08:38:55Z</time>
      </trkpt>
      <trkpt lat="45.97091" lon="4.71694">
        <ele>194</ele>
        <time>2018-09-01T08:38:56Z</time>
      </trkpt>
      <trkpt lat="45.97097" lon="4.71695">
        <ele>194</ele>
        <time>2018-09-01T08:38:57Z</time>
      </trkpt>
      <trkpt lat="45.97101" lon="4.71697">
        <ele>194</ele>
        <time>2018-09-01T08:38:58Z</time>
      </trkpt>
      <trkpt lat="45.97106" lon="4.71699">
        <ele>194</ele>
        <time>2018-09-01T08:38:59Z</time>
      </trkpt>
      <trkpt lat="45.97113" lon="4.71699">
        <ele>194</ele>
        <time>2018-09-01T08:39:00Z</time>
      </trkpt>
      <trkpt lat="45.97121" lon="4.71699">
        <ele>194</ele>
        <time>2018-09-01T08:39:01Z</time>
      </trkpt>
      <trkpt lat="45.97125" lon="4.717">
        <ele>194</ele>
        <time>2018-09-01T08:39:02Z</time>
      </trkpt>
      <trkpt lat="45.97132" lon="4.71699">
        <ele>194</ele>
        <time>2018-09-01T08:39:03Z</time>
      </trkpt>
      <trkpt lat="45.97137" lon="4.717">
        <ele>194</ele>
        <time>2018-09-01T08:39:04Z</time>
      </trkpt>
      <trkpt lat="45.97142" lon="4.71698">
        <ele>195</ele>
        <time>2018-09-01T08:39:05Z</time>
      </trkpt>
      <trkpt lat="45.97148" lon="4.71699">
        <ele>195</ele>
        <time>2018-09-01T08:39:06Z</time>
      </trkpt>
      <trkpt lat="45.97153" lon="4.71701">
        <ele>195</ele>
        <time>2018-09-01T08:39:07Z</time>
      </trkpt>
      <trkpt lat="45.97159" lon="4.71701">
        <ele>195</ele>
        <time>2018-09-01T08:39:08Z</time>
      </trkpt>
      <trkpt lat="45.97164" lon="4.71701">
        <ele>195</ele>
        <time>2018-09-01T08:39:09Z</time>
      </trkpt>
      <trkpt lat="45.9717" lon="4.71702">
        <ele>196</ele>
        <time>2018-09-01T08:39:10Z</time>
      </trkpt>
      <trkpt lat="45.97176" lon="4.71702">
        <ele>196</ele>
        <time>2018-09-01T08:39:11Z</time>
      </trkpt>
      <trkpt lat="45.9718" lon="4.71702">
        <ele>196</ele>
        <time>2018-09-01T08:39:12Z</time>
      </trkpt>
      <trkpt lat="45.97185" lon="4.71703">
        <ele>196</ele>
        <time>2018-09-01T08:39:13Z</time>
      </trkpt>
      <trkpt lat="45.9719" lon="4.71705">
        <ele>196</ele>
        <time>2018-09-01T08:39:14Z</time>
      </trkpt>
      <trkpt lat="45.97196" lon="4.71706">
        <ele>196</ele>
        <time>2018-09-01T08:39:15Z</time>
      </trkpt>
      <trkpt lat="45.972" lon="4.71704">
        <ele>196</ele>
        <time>2018-09-01T08:39:16Z</time>
      </trkpt>
      <trkpt lat="45.97205" lon="4.71704">
        <ele>196</ele>
        <time>2018-09-01T08:39:17Z</time>
      </trkpt>
      <trkpt lat="45.97211" lon="4.71703">
        <ele>196</ele>
        <time>2018-09-01T08:39:18Z</time>
      </trkpt>
      <trkpt lat="45.97216" lon="4.71703">
        <ele>196</ele>
        <time>2018-09-01T08:39:19Z</time>
      </trkpt>
      <trkpt lat="45.9722" lon="4.71705">
        <ele>196</ele>
        <time>2018-09-01T08:39:20Z</time>
      </trkpt>
      <trkpt lat="45.97225" lon="4.71706">
        <ele>196</ele>
        <time>2018-09-01T08:39:21Z</time>
      </trkpt>
      <trkpt lat="45.9723" lon="4.71707">
        <ele>196</ele>
        <time>2018-09-01T08:39:22Z</time>
      </trkpt>
      <trkpt lat="45.97235" lon="4.71708">
        <ele>196</ele>
        <time>2018-09-01T08:39:23Z</time>
      </trkpt>
      <trkpt lat="45.9724" lon="4.71707">
        <ele>197</ele>
        <time>2018-09-01T08:39:24Z</time>
      </trkpt>
      <trkpt lat="45.97245" lon="4.71708">
        <ele>197</ele>
        <time>2018-09-01T08:39:25Z</time>
      </trkpt>
      <trkpt lat="45.9725" lon="4.7171">
        <ele>196</ele>
        <time>2018-09-01T08:39:26Z</time>
      </trkpt>
      <trkpt lat="45.97255" lon="4.71711">
        <ele>196</ele>
        <time>2018-09-01T08:39:27Z</time>
      </trkpt>
      <trkpt lat="45.9726" lon="4.71713">
        <ele>196</ele>
        <time>2018-09-01T08:39:28Z</time>
      </trkpt>
      <trkpt lat="45.97265" lon="4.71713">
        <ele>196</ele>
        <time>2018-09-01T08:39:29Z</time>
      </trkpt>
      <trkpt lat="45.9727" lon="4.71713">
        <ele>196</ele>
        <time>2018-09-01T08:39:30Z</time>
      </trkpt>
      <trkpt lat="45.97276" lon="4.71714">
        <ele>196</ele>
        <time>2018-09-01T08:39:31Z</time>
      </trkpt>
      <trkpt lat="45.9728" lon="4.71717">
        <ele>196</ele>
        <time>2018-09-01T08:39:32Z</time>
      </trkpt>
      <trkpt lat="45.97285" lon="4.71721">
        <ele>196</ele>
        <time>2018-09-01T08:39:33Z</time>
      </trkpt>
      <trkpt lat="45.97288" lon="4.71725">
        <ele>196</ele>
        <time>2018-09-01T08:39:34Z</time>
      </trkpt>
      <trkpt lat="45.97291" lon="4.7173">
        <ele>196</ele>
        <time>2018-09-01T08:39:35Z</time>
      </trkpt>
      <trkpt lat="45.97299" lon="4.71737">
        <ele>196</ele>
        <time>2018-09-01T08:39:37Z</time>
      </trkpt>
      <trkpt lat="45.97303" lon="4.71739">
        <ele>196</ele>
        <time>2018-09-01T08:39:38Z</time>
      </trkpt>
      <trkpt lat="45.9731" lon="4.71737">
        <ele>195</ele>
        <time>2018-09-01T08:39:40Z</time>
      </trkpt>
      <trkpt lat="45.97316" lon="4.7173">
        <ele>195</ele>
        <time>2018-09-01T08:39:41Z</time>
      </trkpt>
      <trkpt lat="45.97321" lon="4.71721">
        <ele>196</ele>
        <time>2018-09-01T08:39:45Z</time>
      </trkpt>
      <trkpt lat="45.97327" lon="4.71716">
        <ele>196</ele>
        <time>2018-09-01T08:39:46Z</time>
      </trkpt>
      <trkpt lat="45.97334" lon="4.71717">
        <ele>195</ele>
        <time>2018-09-01T08:39:48Z</time>
      </trkpt>
      <trkpt lat="45.97338" lon="4.71717">
        <ele>195</ele>
        <time>2018-09-01T08:39:49Z</time>
      </trkpt>
      <trkpt lat="45.97347" lon="4.71717">
        <ele>195</ele>
        <time>2018-09-01T08:39:51Z</time>
      </trkpt>
      <trkpt lat="45.97351" lon="4.71717">
        <ele>195</ele>
        <time>2018-09-01T08:39:52Z</time>
      </trkpt>
      <trkpt lat="45.97357" lon="4.71719">
        <ele>195</ele>
        <time>2018-09-01T08:39:53Z</time>
      </trkpt>
      <trkpt lat="45.97361" lon="4.71719">
        <ele>195</ele>
        <time>2018-09-01T08:39:54Z</time>
      </trkpt>
      <trkpt lat="45.97366" lon="4.71718">
        <ele>195</ele>
        <time>2018-09-01T08:39:55Z</time>
      </trkpt>
      <trkpt lat="45.97371" lon="4.71719">
        <ele>195</ele>
        <time>2018-09-01T08:39:56Z</time>
      </trkpt>
      <trkpt lat="45.97375" lon="4.71718">
        <ele>195</ele>
        <time>2018-09-01T08:39:57Z</time>
      </trkpt>
      <trkpt lat="45.9738" lon="4.7172">
        <ele>195</ele>
        <time>2018-09-01T08:39:58Z</time>
      </trkpt>
      <trkpt lat="45.97385" lon="4.71719">
        <ele>195</ele>
        <time>2018-09-01T08:39:59Z</time>
      </trkpt>
      <trkpt lat="45.9739" lon="4.71719">
        <ele>195</ele>
        <time>2018-09-01T08:40:00Z</time>
      </trkpt>
      <trkpt lat="45.97395" lon="4.71719">
        <ele>195</ele>
        <time>2018-09-01T08:40:01Z</time>
      </trkpt>
      <trkpt lat="45.974" lon="4.7172">
        <ele>195</ele>
        <time>2018-09-01T08:40:02Z</time>
      </trkpt>
      <trkpt lat="45.97408" lon="4.71724">
        <ele>195</ele>
        <time>2018-09-01T08:40:04Z</time>
      </trkpt>
      <trkpt lat="45.97412" lon="4.71724">
        <ele>195</ele>
        <time>2018-09-01T08:40:05Z</time>
      </trkpt>
      <trkpt lat="45.97418" lon="4.71725">
        <ele>196</ele>
        <time>2018-09-01T08:40:06Z</time>
      </trkpt>
      <trkpt lat="45.97422" lon="4.71724">
        <ele>196</ele>
        <time>2018-09-01T08:40:07Z</time>
      </trkpt>
      <trkpt lat="45.97427" lon="4.71724">
        <ele>196</ele>
        <time>2018-09-01T08:40:08Z</time>
      </trkpt>
      <trkpt lat="45.97431" lon="4.71724">
        <ele>196</ele>
        <time>2018-09-01T08:40:09Z</time>
      </trkpt>
      <trkpt lat="45.97436" lon="4.71724">
        <ele>196</ele>
        <time>2018-09-01T08:40:10Z</time>
      </trkpt>
      <trkpt lat="45.97441" lon="4.71725">
        <ele>196</ele>
        <time>2018-09-01T08:40:11Z</time>
      </trkpt>
      <trkpt lat="45.9745" lon="4.71726">
        <ele>196</ele>
        <time>2018-09-01T08:40:13Z</time>
      </trkpt>
      <trkpt lat="45.97459" lon="4.71724">
        <ele>197</ele>
        <time>2018-09-01T08:40:14Z</time>
      </trkpt>
      <trkpt lat="45.97464" lon="4.71724">
        <ele>197</ele>
        <time>2018-09-01T08:40:15Z</time>
      </trkpt>
      <trkpt lat="45.97469" lon="4.71724">
        <ele>197</ele>
        <time>2018-09-01T08:40:16Z</time>
      </trkpt>
      <trkpt lat="45.97475" lon="4.71725">
        <ele>197</ele>
        <time>2018-09-01T08:40:17Z</time>
      </trkpt>
      <trkpt lat="45.97479" lon="4.71725">
        <ele>197</ele>
        <time>2018-09-01T08:40:18Z</time>
      </trkpt>
      <trkpt lat="45.97483" lon="4.71727">
        <ele>197</ele>
        <time>2018-09-01T08:40:19Z</time>
      </trkpt>
      <trkpt lat="45.97488" lon="4.71728">
        <ele>197</ele>
        <time>2018-09-01T08:40:20Z</time>
      </trkpt>
      <trkpt lat="45.97494" lon="4.71728">
        <ele>197</ele>
        <time>2018-09-01T08:40:21Z</time>
      </trkpt>
      <trkpt lat="45.975" lon="4.71728">
        <ele>197</ele>
        <time>2018-09-01T08:40:22Z</time>
      </trkpt>
      <trkpt lat="45.97505" lon="4.7173">
        <ele>198</ele>
        <time>2018-09-01T08:40:23Z</time>
      </trkpt>
      <trkpt lat="45.9751" lon="4.71731">
        <ele>198</ele>
        <time>2018-09-01T08:40:24Z</time>
      </trkpt>
      <trkpt lat="45.97514" lon="4.71731">
        <ele>198</ele>
        <time>2018-09-01T08:40:25Z</time>
      </trkpt>
      <trkpt lat="45.97519" lon="4.71732">
        <ele>198</ele>
        <time>2018-09-01T08:40:26Z</time>
      </trkpt>
      <trkpt lat="45.97524" lon="4.71734">
        <ele>198</ele>
        <time>2018-09-01T08:40:27Z</time>
      </trkpt>
      <trkpt lat="45.97529" lon="4.71734">
        <ele>198</ele>
        <time>2018-09-01T08:40:28Z</time>
      </trkpt>
      <trkpt lat="45.97536" lon="4.71733">
        <ele>198</ele>
        <time>2018-09-01T08:40:29Z</time>
      </trkpt>
      <trkpt lat="45.97541" lon="4.71734">
        <ele>198</ele>
        <time>2018-09-01T08:40:30Z</time>
      </trkpt>
      <trkpt lat="45.97546" lon="4.71733">
        <ele>198</ele>
        <time>2018-09-01T08:40:31Z</time>
      </trkpt>
      <trkpt lat="45.97552" lon="4.71734">
        <ele>198</ele>
        <time>2018-09-01T08:40:32Z</time>
      </trkpt>
      <trkpt lat="45.97558" lon="4.71732">
        <ele>197</ele>
        <time>2018-09-01T08:40:33Z</time>
      </trkpt>
      <trkpt lat="45.97562" lon="4.71731">
        <ele>197</ele>
        <time>2018-09-01T08:40:34Z</time>
      </trkpt>
      <trkpt lat="45.97568" lon="4.71732">
        <ele>197</ele>
        <time>2018-09-01T08:40:35Z</time>
      </trkpt>
      <trkpt lat="45.97573" lon="4.71733">
        <ele>197</ele>
        <time>2018-09-01T08:40:36Z</time>
      </trkpt>
      <trkpt lat="45.97578" lon="4.71732">
        <ele>197</ele>
        <time>2018-09-01T08:40:37Z</time>
      </trkpt>
      <trkpt lat="45.97583" lon="4.71732">
        <ele>197</ele>
        <time>2018-09-01T08:40:38Z</time>
      </trkpt>
      <trkpt lat="45.97589" lon="4.71734">
        <ele>196</ele>
        <time>2018-09-01T08:40:39Z</time>
      </trkpt>
      <trkpt lat="45.97594" lon="4.71738">
        <ele>196</ele>
        <time>2018-09-01T08:40:40Z</time>
      </trkpt>
      <trkpt lat="45.97598" lon="4.71744">
        <ele>196</ele>
        <time>2018-09-01T08:40:41Z</time>
      </trkpt>
      <trkpt lat="45.97603" lon="4.7175">
        <ele>196</ele>
        <time>2018-09-01T08:40:42Z</time>
      </trkpt>
      <trkpt lat="45.97607" lon="4.71755">
        <ele>194</ele>
        <time>2018-09-01T08:40:43Z</time>
      </trkpt>
      <trkpt lat="45.97614" lon="4.71757">
        <ele>194</ele>
        <time>2018-09-01T08:40:44Z</time>
      </trkpt>
      <trkpt lat="45.9762" lon="4.71758">
        <ele>194</ele>
        <time>2018-09-01T08:40:45Z</time>
      </trkpt>
      <trkpt lat="45.97625" lon="4.71757">
        <ele>194</ele>
        <time>2018-09-01T08:40:46Z</time>
      </trkpt>
      <trkpt lat="45.9763" lon="4.71754">
        <ele>194</ele>
        <time>2018-09-01T08:40:47Z</time>
      </trkpt>
      <trkpt lat="45.97636" lon="4.71751">
        <ele>194</ele>
        <time>2018-09-01T08:40:48Z</time>
      </trkpt>
      <trkpt lat="45.97645" lon="4.71743">
        <ele>196</ele>
        <time>2018-09-01T08:40:49Z</time>
      </trkpt>
      <trkpt lat="45.9765" lon="4.71743">
        <ele>195</ele>
        <time>2018-09-01T08:40:50Z</time>
      </trkpt>
      <trkpt lat="45.97656" lon="4.71742">
        <ele>195</ele>
        <time>2018-09-01T08:40:51Z</time>
      </trkpt>
      <trkpt lat="45.9766" lon="4.71745">
        <ele>195</ele>
        <time>2018-09-01T08:40:52Z</time>
      </trkpt>
      <trkpt lat="45.97664" lon="4.71747">
        <ele>194</ele>
        <time>2018-09-01T08:40:53Z</time>
      </trkpt>
      <trkpt lat="45.9767" lon="4.71747">
        <ele>194</ele>
        <time>2018-09-01T08:40:54Z</time>
      </trkpt>
      <trkpt lat="45.97675" lon="4.71747">
        <ele>195</ele>
        <time>2018-09-01T08:40:55Z</time>
      </trkpt>
      <trkpt lat="45.9768" lon="4.71746">
        <ele>195</ele>
        <time>2018-09-01T08:40:56Z</time>
      </trkpt>
      <trkpt lat="45.97685" lon="4.71745">
        <ele>195</ele>
        <time>2018-09-01T08:40:57Z</time>
      </trkpt>
      <trkpt lat="45.9769" lon="4.71744">
        <ele>196</ele>
        <time>2018-09-01T08:40:58Z</time>
      </trkpt>
      <trkpt lat="45.97696" lon="4.7175">
        <ele>195</ele>
        <time>2018-09-01T08:40:59Z</time>
      </trkpt>
      <trkpt lat="45.97702" lon="4.71753">
        <ele>195</ele>
        <time>2018-09-01T08:41:00Z</time>
      </trkpt>
      <trkpt lat="45.97707" lon="4.71754">
        <ele>195</ele>
        <time>2018-09-01T08:41:01Z</time>
      </trkpt>
      <trkpt lat="45.97712" lon="4.71755">
        <ele>195</ele>
        <time>2018-09-01T08:41:02Z</time>
      </trkpt>
      <trkpt lat="45.97719" lon="4.71754">
        <ele>195</ele>
        <time>2018-09-01T08:41:03Z</time>
      </trkpt>
      <trkpt lat="45.97724" lon="4.71756">
        <ele>195</ele>
        <time>2018-09-01T08:41:04Z</time>
      </trkpt>
      <trkpt lat="45.97732" lon="4.71758">
        <ele>195</ele>
        <time>2018-09-01T08:41:05Z</time>
      </trkpt>
      <trkpt lat="45.97738" lon="4.71759">
        <ele>195</ele>
        <time>2018-09-01T08:41:06Z</time>
      </trkpt>
      <trkpt lat="45.97743" lon="4.71761">
        <ele>195</ele>
        <time>2018-09-01T08:41:07Z</time>
      </trkpt>
      <trkpt lat="45.9775" lon="4.7176">
        <ele>196</ele>
        <time>2018-09-01T08:41:08Z</time>
      </trkpt>
      <trkpt lat="45.97756" lon="4.71761">
        <ele>196</ele>
        <time>2018-09-01T08:41:09Z</time>
      </trkpt>
      <trkpt lat="45.9776" lon="4.71759">
        <ele>196</ele>
        <time>2018-09-01T08:41:10Z</time>
      </trkpt>
      <trkpt lat="45.97766" lon="4.71759">
        <ele>195</ele>
        <time>2018-09-01T08:41:11Z</time>
      </trkpt>
      <trkpt lat="45.97771" lon="4.71759">
        <ele>195</ele>
        <time>2018-09-01T08:41:12Z</time>
      </trkpt>
      <trkpt lat="45.97775" lon="4.71761">
        <ele>195</ele>
        <time>2018-09-01T08:41:13Z</time>
      </trkpt>
      <trkpt lat="45.9778" lon="4.71761">
        <ele>195</ele>
        <time>2018-09-01T08:41:14Z</time>
      </trkpt>
      <trkpt lat="45.97786" lon="4.71762">
        <ele>195</ele>
        <time>2018-09-01T08:41:15Z</time>
      </trkpt>
      <trkpt lat="45.97792" lon="4.71763">
        <ele>195</ele>
        <time>2018-09-01T08:41:16Z</time>
      </trkpt>
      <trkpt lat="45.97796" lon="4.71761">
        <ele>195</ele>
        <time>2018-09-01T08:41:17Z</time>
      </trkpt>
      <trkpt lat="45.97801" lon="4.71762">
        <ele>195</ele>
        <time>2018-09-01T08:41:18Z</time>
      </trkpt>
      <trkpt lat="45.97807" lon="4.71764">
        <ele>195</ele>
        <time>2018-09-01T08:41:19Z</time>
      </trkpt>
      <trkpt lat="45.97812" lon="4.71766">
        <ele>195</ele>
        <time>2018-09-01T08:41:20Z</time>
      </trkpt>
      <trkpt lat="45.97817" lon="4.71767">
        <ele>195</ele>
        <time>2018-09-01T08:41:21Z</time>
      </trkpt>
      <trkpt lat="45.97822" lon="4.71767">
        <ele>195</ele>
        <time>2018-09-01T08:41:22Z</time>
      </trkpt>
      <trkpt lat="45.97827" lon="4.71766">
        <ele>195</ele>
        <time>2018-09-01T08:41:23Z</time>
      </trkpt>
      <trkpt lat="45.97836" lon="4.71766">
        <ele>195</ele>
        <time>2018-09-01T08:41:25Z</time>
      </trkpt>
      <trkpt lat="45.97841" lon="4.71767">
        <ele>195</ele>
        <time>2018-09-01T08:41:26Z</time>
      </trkpt>
      <trkpt lat="45.97848" lon="4.71767">
        <ele>195</ele>
        <time>2018-09-01T08:41:28Z</time>
      </trkpt>
      <trkpt lat="45.97852" lon="4.7177">
        <ele>195</ele>
        <time>2018-09-01T08:41:29Z</time>
      </trkpt>
      <trkpt lat="45.9786" lon="4.71776">
        <ele>194</ele>
        <time>2018-09-01T08:41:31Z</time>
      </trkpt>
      <trkpt lat="45.97864" lon="4.71779">
        <ele>194</ele>
        <time>2018-09-01T08:41:32Z</time>
      </trkpt>
      <trkpt lat="45.97869" lon="4.71782">
        <ele>194</ele>
        <time>2018-09-01T08:41:33Z</time>
      </trkpt>
      <trkpt lat="45.97874" lon="4.71785">
        <ele>194</ele>
        <time>2018-09-01T08:41:34Z</time>
      </trkpt>
      <trkpt lat="45.97879" lon="4.71782">
        <ele>194</ele>
        <time>2018-09-01T08:41:35Z</time>
      </trkpt>
      <trkpt lat="45.97885" lon="4.71781">
        <ele>194</ele>
        <time>2018-09-01T08:41:36Z</time>
      </trkpt>
      <trkpt lat="45.97888" lon="4.71775">
        <ele>194</ele>
        <time>2018-09-01T08:41:37Z</time>
      </trkpt>
      <trkpt lat="45.97893" lon="4.71769">
        <ele>194</ele>
        <time>2018-09-01T08:41:38Z</time>
      </trkpt>
      <trkpt lat="45.97895" lon="4.71761">
        <ele>195</ele>
        <time>2018-09-01T08:41:39Z</time>
      </trkpt>
      <trkpt lat="45.97896" lon="4.71752">
        <ele>195</ele>
        <time>2018-09-01T08:41:40Z</time>
      </trkpt>
      <trkpt lat="45.97897" lon="4.71744">
        <ele>196</ele>
        <time>2018-09-01T08:41:41Z</time>
      </trkpt>
      <trkpt lat="45.97896" lon="4.71736">
        <ele>196</ele>
        <time>2018-09-01T08:41:42Z</time>
      </trkpt>
      <trkpt lat="45.97896" lon="4.71729">
        <ele>196</ele>
        <time>2018-09-01T08:41:43Z</time>
      </trkpt>
      <trkpt lat="45.97893" lon="4.71723">
        <ele>196</ele>
        <time>2018-09-01T08:41:44Z</time>
      </trkpt>
      <trkpt lat="45.97889" lon="4.71714">
        <ele>196</ele>
        <time>2018-09-01T08:41:46Z</time>
      </trkpt>
      <trkpt lat="45.97886" lon="4.7171">
        <ele>196</ele>
        <time>2018-09-01T08:41:47Z</time>
      </trkpt>
      <trkpt lat="45.97883" lon="4.71704">
        <ele>196</ele>
        <time>2018-09-01T08:41:48Z</time>
      </trkpt>
      <trkpt lat="45.97882" lon="4.71697">
        <ele>196</ele>
        <time>2018-09-01T08:41:49Z</time>
      </trkpt>
      <trkpt lat="45.97883" lon="4.71689">
        <ele>196</ele>
        <time>2018-09-01T08:41:50Z</time>
      </trkpt>
      <trkpt lat="45.97884" lon="4.71684">
        <ele>196</ele>
        <time>2018-09-01T08:41:51Z</time>
      </trkpt>
      <trkpt lat="45.97885" lon="4.71674">
        <ele>196</ele>
        <time>2018-09-01T08:41:53Z</time>
      </trkpt>
      <trkpt lat="45.97888" lon="4.71669">
        <ele>196</ele>
        <time>2018-09-01T08:41:54Z</time>
      </trkpt>
      <trkpt lat="45.97889" lon="4.71658">
        <ele>197</ele>
        <time>2018-09-01T08:41:56Z</time>
      </trkpt>
      <trkpt lat="45.9789" lon="4.71652">
        <ele>197</ele>
        <time>2018-09-01T08:41:57Z</time>
      </trkpt>
      <trkpt lat="45.9789" lon="4.7164">
        <ele>197</ele>
        <time>2018-09-01T08:41:59Z</time>
      </trkpt>
      <trkpt lat="45.97891" lon="4.71632">
        <ele>197</ele>
        <time>2018-09-01T08:42:00Z</time>
      </trkpt>
      <trkpt lat="45.97891" lon="4.71625">
        <ele>197</ele>
        <time>2018-09-01T08:42:01Z</time>
      </trkpt>
      <trkpt lat="45.97891" lon="4.71618">
        <ele>197</ele>
        <time>2018-09-01T08:42:02Z</time>
      </trkpt>
      <trkpt lat="45.9789" lon="4.71611">
        <ele>197</ele>
        <time>2018-09-01T08:42:03Z</time>
      </trkpt>
      <trkpt lat="45.9789" lon="4.71604">
        <ele>197</ele>
        <time>2018-09-01T08:42:04Z</time>
      </trkpt>
      <trkpt lat="45.97891" lon="4.71598">
        <ele>197</ele>
        <time>2018-09-01T08:42:05Z</time>
      </trkpt>
      <trkpt lat="45.97891" lon="4.71591">
        <ele>197</ele>
        <time>2018-09-01T08:42:06Z</time>
      </trkpt>
      <trkpt lat="45.97893" lon="4.71584">
        <ele>197</ele>
        <time>2018-09-01T08:42:07Z</time>
      </trkpt>
      <trkpt lat="45.97892" lon="4.71576">
        <ele>198</ele>
        <time>2018-09-01T08:42:08Z</time>
      </trkpt>
      <trkpt lat="45.97891" lon="4.71564">
        <ele>198</ele>
        <time>2018-09-01T08:42:10Z</time>
      </trkpt>
      <trkpt lat="45.97891" lon="4.71556">
        <ele>198</ele>
        <time>2018-09-01T08:42:11Z</time>
      </trkpt>
      <trkpt lat="45.97889" lon="4.71549">
        <ele>198</ele>
        <time>2018-09-01T08:42:12Z</time>
      </trkpt>
      <trkpt lat="45.97889" lon="4.71542">
        <ele>198</ele>
        <time>2018-09-01T08:42:13Z</time>
      </trkpt>
      <trkpt lat="45.97887" lon="4.71535">
        <ele>199</ele>
        <time>2018-09-01T08:42:14Z</time>
      </trkpt>
      <trkpt lat="45.97886" lon="4.71526">
        <ele>199</ele>
        <time>2018-09-01T08:42:15Z</time>
      </trkpt>
      <trkpt lat="45.97884" lon="4.7152">
        <ele>199</ele>
        <time>2018-09-01T08:42:16Z</time>
      </trkpt>
      <trkpt lat="45.97882" lon="4.71514">
        <ele>199</ele>
        <time>2018-09-01T08:42:17Z</time>
      </trkpt>
      <trkpt lat="45.97883" lon="4.71504">
        <ele>199</ele>
        <time>2018-09-01T08:42:19Z</time>
      </trkpt>
      <trkpt lat="45.97881" lon="4.71496">
        <ele>200</ele>
        <time>2018-09-01T08:42:20Z</time>
      </trkpt>
      <trkpt lat="45.97879" lon="4.71484">
        <ele>201</ele>
        <time>2018-09-01T08:42:22Z</time>
      </trkpt>
      <trkpt lat="45.97877" lon="4.71478">
        <ele>201</ele>
        <time>2018-09-01T08:42:23Z</time>
      </trkpt>
      <trkpt lat="45.97876" lon="4.71472">
        <ele>201</ele>
        <time>2018-09-01T08:42:24Z</time>
      </trkpt>
      <trkpt lat="45.97875" lon="4.71465">
        <ele>201</ele>
        <time>2018-09-01T08:42:25Z</time>
      </trkpt>
      <trkpt lat="45.97875" lon="4.71457">
        <ele>201</ele>
        <time>2018-09-01T08:42:26Z</time>
      </trkpt>
      <trkpt lat="45.97874" lon="4.71451">
        <ele>201</ele>
        <time>2018-09-01T08:42:27Z</time>
      </trkpt>
      <trkpt lat="45.97873" lon="4.71445">
        <ele>201</ele>
        <time>2018-09-01T08:42:28Z</time>
      </trkpt>
      <trkpt lat="45.97872" lon="4.71436">
        <ele>201</ele>
        <time>2018-09-01T08:42:29Z</time>
      </trkpt>
      <trkpt lat="45.97869" lon="4.71425">
        <ele>201</ele>
        <time>2018-09-01T08:42:31Z</time>
      </trkpt>
      <trkpt lat="45.97868" lon="4.71418">
        <ele>201</ele>
        <time>2018-09-01T08:42:32Z</time>
      </trkpt>
      <trkpt lat="45.97867" lon="4.71411">
        <ele>203</ele>
        <time>2018-09-01T08:42:33Z</time>
      </trkpt>
      <trkpt lat="45.97865" lon="4.71405">
        <ele>203</ele>
        <time>2018-09-01T08:42:34Z</time>
      </trkpt>
      <trkpt lat="45.97865" lon="4.71394">
        <ele>203</ele>
        <time>2018-09-01T08:42:36Z</time>
      </trkpt>
      <trkpt lat="45.97863" lon="4.71388">
        <ele>203</ele>
        <time>2018-09-01T08:42:37Z</time>
      </trkpt>
      <trkpt lat="45.97863" lon="4.71382">
        <ele>203</ele>
        <time>2018-09-01T08:42:39Z</time>
      </trkpt>
      <trkpt lat="45.97863" lon="4.71372">
        <ele>203</ele>
        <time>2018-09-01T08:42:40Z</time>
      </trkpt>
      <trkpt lat="45.97861" lon="4.71361">
        <ele>204</ele>
        <time>2018-09-01T08:42:42Z</time>
      </trkpt>
      <trkpt lat="45.97861" lon="4.71355">
        <ele>204</ele>
        <time>2018-09-01T08:42:43Z</time>
      </trkpt>
      <trkpt lat="45.97861" lon="4.71348">
        <ele>204</ele>
        <time>2018-09-01T08:42:44Z</time>
      </trkpt>
      <trkpt lat="45.97861" lon="4.71341">
        <ele>204</ele>
        <time>2018-09-01T08:42:45Z</time>
      </trkpt>
      <trkpt lat="45.97861" lon="4.71329">
        <ele>205</ele>
        <time>2018-09-01T08:42:47Z</time>
      </trkpt>
      <trkpt lat="45.9786" lon="4.71324">
        <ele>205</ele>
        <time>2018-09-01T08:42:48Z</time>
      </trkpt>
      <trkpt lat="45.97861" lon="4.71312">
        <ele>205</ele>
        <time>2018-09-01T08:42:50Z</time>
      </trkpt>
      <trkpt lat="45.97861" lon="4.71305">
        <ele>205</ele>
        <time>2018-09-01T08:42:51Z</time>
      </trkpt>
      <trkpt lat="45.97861" lon="4.71293">
        <ele>206</ele>
        <time>2018-09-01T08:42:53Z</time>
      </trkpt>
      <trkpt lat="45.97861" lon="4.71288">
        <ele>206</ele>
        <time>2018-09-01T08:42:54Z</time>
      </trkpt>
      <trkpt lat="45.97862" lon="4.71277">
        <ele>206</ele>
        <time>2018-09-01T08:42:56Z</time>
      </trkpt>
      <trkpt lat="45.97862" lon="4.71272">
        <ele>206</ele>
        <time>2018-09-01T08:42:57Z</time>
      </trkpt>
      <trkpt lat="45.97862" lon="4.71259">
        <ele>206</ele>
        <time>2018-09-01T08:43:01Z</time>
      </trkpt>
      <trkpt lat="45.97863" lon="4.71256">
        <ele>206</ele>
        <time>2018-09-01T08:43:02Z</time>
      </trkpt>
      <trkpt lat="45.97862" lon="4.71246">
        <ele>208</ele>
        <time>2018-09-01T08:43:05Z</time>
      </trkpt>
      <trkpt lat="45.97862" lon="4.71243">
        <ele>208</ele>
        <time>2018-09-01T08:43:06Z</time>
      </trkpt>
      <trkpt lat="45.97862" lon="4.7123">
        <ele>208</ele>
        <time>2018-09-01T08:43:11Z</time>
      </trkpt>
      <trkpt lat="45.97862" lon="4.71228">
        <ele>208</ele>
        <time>2018-09-01T08:43:12Z</time>
      </trkpt>
      <trkpt lat="45.97863" lon="4.71217">
        <ele>208</ele>
        <time>2018-09-01T08:43:25Z</time>
      </trkpt>
      <trkpt lat="45.97864" lon="4.71214">
        <ele>208</ele>
        <time>2018-09-01T08:43:26Z</time>
      </trkpt>
      <trkpt lat="45.97864" lon="4.71206">
        <ele>208</ele>
        <time>2018-09-01T08:43:28Z</time>
      </trkpt>
      <trkpt lat="45.97865" lon="4.71193">
        <ele>209</ele>
        <time>2018-09-01T08:43:29Z</time>
      </trkpt>
      <trkpt lat="45.97865" lon="4.71183">
        <ele>209</ele>
        <time>2018-09-01T08:43:31Z</time>
      </trkpt>
      <trkpt lat="45.97865" lon="4.71177">
        <ele>209</ele>
        <time>2018-09-01T08:43:32Z</time>
      </trkpt>
      <trkpt lat="45.97864" lon="4.71166">
        <ele>212</ele>
        <time>2018-09-01T08:43:34Z</time>
      </trkpt>
      <trkpt lat="45.97864" lon="4.71163">
        <ele>212</ele>
        <time>2018-09-01T08:43:35Z</time>
      </trkpt>
      <trkpt lat="45.97863" lon="4.71152">
        <ele>212</ele>
        <time>2018-09-01T08:43:38Z</time>
      </trkpt>
      <trkpt lat="45.97862" lon="4.71139">
        <ele>212</ele>
        <time>2018-09-01T08:43:39Z</time>
      </trkpt>
      <trkpt lat="45.97861" lon="4.71128">
        <ele>212</ele>
        <time>2018-09-01T08:43:42Z</time>
      </trkpt>
      <trkpt lat="45.9786" lon="4.71123">
        <ele>213</ele>
        <time>2018-09-01T08:43:43Z</time>
      </trkpt>
      <trkpt lat="45.97859" lon="4.71114">
        <ele>213</ele>
        <time>2018-09-01T08:43:45Z</time>
      </trkpt>
      <trkpt lat="45.97858" lon="4.71109">
        <ele>213</ele>
        <time>2018-09-01T08:43:46Z</time>
      </trkpt>
      <trkpt lat="45.97857" lon="4.711">
        <ele>213</ele>
        <time>2018-09-01T08:43:48Z</time>
      </trkpt>
      <trkpt lat="45.97856" lon="4.71095">
        <ele>213</ele>
        <time>2018-09-01T08:43:49Z</time>
      </trkpt>
      <trkpt lat="45.97855" lon="4.71084">
        <ele>213</ele>
        <time>2018-09-01T08:43:51Z</time>
      </trkpt>
      <trkpt lat="45.97854" lon="4.71079">
        <ele>215</ele>
        <time>2018-09-01T08:43:52Z</time>
      </trkpt>
      <trkpt lat="45.97853" lon="4.7107">
        <ele>215</ele>
        <time>2018-09-01T08:43:54Z</time>
      </trkpt>
      <trkpt lat="45.97851" lon="4.71056">
        <ele>215</ele>
        <time>2018-09-01T08:43:55Z</time>
      </trkpt>
      <trkpt lat="45.97849" lon="4.71044">
        <ele>216</ele>
        <time>2018-09-01T08:43:59Z</time>
      </trkpt>
      <trkpt lat="45.97848" lon="4.7104">
        <ele>216</ele>
        <time>2018-09-01T08:44:00Z</time>
      </trkpt>
      <trkpt lat="45.97847" lon="4.71028">
        <ele>216</ele>
        <time>2018-09-01T08:44:03Z</time>
      </trkpt>
      <trkpt lat="45.97846" lon="4.71024">
        <ele>216</ele>
        <time>2018-09-01T08:44:04Z</time>
      </trkpt>
      <trkpt lat="45.97845" lon="4.71016">
        <ele>216</ele>
        <time>2018-09-01T08:44:06Z</time>
      </trkpt>
      <trkpt lat="45.97845" lon="4.71011">
        <ele>216</ele>
        <time>2018-09-01T08:44:07Z</time>
      </trkpt>
      <trkpt lat="45.97844" lon="4.71002">
        <ele>216</ele>
        <time>2018-09-01T08:44:09Z</time>
      </trkpt>
      <trkpt lat="45.97844" lon="4.70997">
        <ele>217</ele>
        <time>2018-09-01T08:44:10Z</time>
      </trkpt>
      <trkpt lat="45.97843" lon="4.70985">
        <ele>217</ele>
        <time>2018-09-01T08:44:13Z</time>
      </trkpt>
      <trkpt lat="45.97842" lon="4.7098">
        <ele>217</ele>
        <time>2018-09-01T08:44:14Z</time>
      </trkpt>
      <trkpt lat="45.97841" lon="4.70972">
        <ele>217</ele>
        <time>2018-09-01T08:44:16Z</time>
      </trkpt>
      <trkpt lat="45.9784" lon="4.70968">
        <ele>217</ele>
        <time>2018-09-01T08:44:17Z</time>
      </trkpt>
      <trkpt lat="45.97839" lon="4.70959">
        <ele>218</ele>
        <time>2018-09-01T08:44:19Z</time>
      </trkpt>
      <trkpt lat="45.97839" lon="4.70955">
        <ele>218</ele>
        <time>2018-09-01T08:44:20Z</time>
      </trkpt>
      <trkpt lat="45.9784" lon="4.70946">
        <ele>218</ele>
        <time>2018-09-01T08:44:22Z</time>
      </trkpt>
      <trkpt lat="45.97841" lon="4.70942">
        <ele>218</ele>
        <time>2018-09-01T08:44:23Z</time>
      </trkpt>
      <trkpt lat="45.97844" lon="4.70934">
        <ele>218</ele>
        <time>2018-09-01T08:44:25Z</time>
      </trkpt>
      <trkpt lat="45.97845" lon="4.7093">
        <ele>218</ele>
        <time>2018-09-01T08:44:26Z</time>
      </trkpt>
      <trkpt lat="45.97845" lon="4.70919">
        <ele>219</ele>
        <time>2018-09-01T08:44:29Z</time>
      </trkpt>
      <trkpt lat="45.97844" lon="4.70915">
        <ele>219</ele>
        <time>2018-09-01T08:44:30Z</time>
      </trkpt>
      <trkpt lat="45.97841" lon="4.70908">
        <ele>219</ele>
        <time>2018-09-01T08:44:32Z</time>
      </trkpt>
      <trkpt lat="45.9784" lon="4.70903">
        <ele>219</ele>
        <time>2018-09-01T08:44:33Z</time>
      </trkpt>
      <trkpt lat="45.97839" lon="4.70894">
        <ele>220</ele>
        <time>2018-09-01T08:44:35Z</time>
      </trkpt>
      <trkpt lat="45.97839" lon="4.70889">
        <ele>220</ele>
        <time>2018-09-01T08:44:36Z</time>
      </trkpt>
      <trkpt lat="45.97839" lon="4.7088">
        <ele>220</ele>
        <time>2018-09-01T08:44:38Z</time>
      </trkpt>
      <trkpt lat="45.97838" lon="4.70876">
        <ele>220</ele>
        <time>2018-09-01T08:44:39Z</time>
      </trkpt>
      <trkpt lat="45.97838" lon="4.70867">
        <ele>220</ele>
        <time>2018-09-01T08:44:41Z</time>
      </trkpt>
      <trkpt lat="45.97837" lon="4.70852">
        <ele>220</ele>
        <time>2018-09-01T08:44:42Z</time>
      </trkpt>
      <trkpt lat="45.97835" lon="4.70843">
        <ele>221</ele>
        <time>2018-09-01T08:44:45Z</time>
      </trkpt>
      <trkpt lat="45.97834" lon="4.70839">
        <ele>221</ele>
        <time>2018-09-01T08:44:46Z</time>
      </trkpt>
      <trkpt lat="45.9783" lon="4.70828">
        <ele>221</ele>
        <time>2018-09-01T08:44:49Z</time>
      </trkpt>
      <trkpt lat="45.97825" lon="4.70816">
        <ele>221</ele>
        <time>2018-09-01T08:44:50Z</time>
      </trkpt>
      <trkpt lat="45.9782" lon="4.70806">
        <ele>221</ele>
        <time>2018-09-01T08:44:53Z</time>
      </trkpt>
      <trkpt lat="45.97819" lon="4.70797">
        <ele>221</ele>
        <time>2018-09-01T08:44:54Z</time>
      </trkpt>
      <trkpt lat="45.9782" lon="4.70785">
        <ele>221</ele>
        <time>2018-09-01T08:44:56Z</time>
      </trkpt>
      <trkpt lat="45.9782" lon="4.70782">
        <ele>221</ele>
        <time>2018-09-01T08:44:57Z</time>
      </trkpt>
      <trkpt lat="45.97819" lon="4.70774">
        <ele>221</ele>
        <time>2018-09-01T08:44:58Z</time>
      </trkpt>
      <trkpt lat="45.97818" lon="4.70768">
        <ele>221</ele>
        <time>2018-09-01T08:44:59Z</time>
      </trkpt>
      <trkpt lat="45.97815" lon="4.70759">
        <ele>221</ele>
        <time>2018-09-01T08:45:01Z</time>
      </trkpt>
      <trkpt lat="45.97814" lon="4.70756">
        <ele>221</ele>
        <time>2018-09-01T08:45:02Z</time>
      </trkpt>
      <trkpt lat="45.97809" lon="4.70747">
        <ele>221</ele>
        <time>2018-09-01T08:45:03Z</time>
      </trkpt>
      <trkpt lat="45.97805" lon="4.70742">
        <ele>222</ele>
        <time>2018-09-01T08:45:04Z</time>
      </trkpt>
      <trkpt lat="45.97802" lon="4.70737">
        <ele>222</ele>
        <time>2018-09-01T08:45:05Z</time>
      </trkpt>
      <trkpt lat="45.978" lon="4.70731">
        <ele>222</ele>
        <time>2018-09-01T08:45:06Z</time>
      </trkpt>
      <trkpt lat="45.97799" lon="4.7072">
        <ele>222</ele>
        <time>2018-09-01T08:45:08Z</time>
      </trkpt>
      <trkpt lat="45.97799" lon="4.70714">
        <ele>222</ele>
        <time>2018-09-01T08:45:09Z</time>
      </trkpt>
      <trkpt lat="45.97798" lon="4.70703">
        <ele>222</ele>
        <time>2018-09-01T08:45:11Z</time>
      </trkpt>
      <trkpt lat="45.97797" lon="4.70698">
        <ele>222</ele>
        <time>2018-09-01T08:45:12Z</time>
      </trkpt>
      <trkpt lat="45.97796" lon="4.70687">
        <ele>222</ele>
        <time>2018-09-01T08:45:14Z</time>
      </trkpt>
      <trkpt lat="45.97797" lon="4.70682">
        <ele>222</ele>
        <time>2018-09-01T08:45:15Z</time>
      </trkpt>
      <trkpt lat="45.97799" lon="4.70672">
        <ele>222</ele>
        <time>2018-09-01T08:45:17Z</time>
      </trkpt>
      <trkpt lat="45.978" lon="4.70667">
        <ele>222</ele>
        <time>2018-09-01T08:45:18Z</time>
      </trkpt>
      <trkpt lat="45.978" lon="4.70655">
        <ele>222</ele>
        <time>2018-09-01T08:45:20Z</time>
      </trkpt>
      <trkpt lat="45.978" lon="4.7065">
        <ele>222</ele>
        <time>2018-09-01T08:45:21Z</time>
      </trkpt>
      <trkpt lat="45.978" lon="4.70642">
        <ele>222</ele>
        <time>2018-09-01T08:45:23Z</time>
      </trkpt>
      <trkpt lat="45.978" lon="4.70634">
        <ele>222</ele>
        <time>2018-09-01T08:45:24Z</time>
      </trkpt>
      <trkpt lat="45.978" lon="4.70622">
        <ele>222</ele>
        <time>2018-09-01T08:45:26Z</time>
      </trkpt>
      <trkpt lat="45.978" lon="4.70616">
        <ele>222</ele>
        <time>2018-09-01T08:45:27Z</time>
      </trkpt>
      <trkpt lat="45.978" lon="4.70605">
        <ele>223</ele>
        <time>2018-09-01T08:45:29Z</time>
      </trkpt>
      <trkpt lat="45.978" lon="4.706">
        <ele>223</ele>
        <time>2018-09-01T08:45:30Z</time>
      </trkpt>
      <trkpt lat="45.97801" lon="4.70589">
        <ele>223</ele>
        <time>2018-09-01T08:45:32Z</time>
      </trkpt>
      <trkpt lat="45.97802" lon="4.70583">
        <ele>222</ele>
        <time>2018-09-01T08:45:33Z</time>
      </trkpt>
      <trkpt lat="45.97803" lon="4.70576">
        <ele>222</ele>
        <time>2018-09-01T08:45:34Z</time>
      </trkpt>
      <trkpt lat="45.97803" lon="4.70567">
        <ele>222</ele>
        <time>2018-09-01T08:45:35Z</time>
      </trkpt>
      <trkpt lat="45.97807" lon="4.70558">
        <ele>222</ele>
        <time>2018-09-01T08:45:37Z</time>
      </trkpt>
      <trkpt lat="45.97808" lon="4.70553">
        <ele>222</ele>
        <time>2018-09-01T08:45:38Z</time>
      </trkpt>
      <trkpt lat="45.97808" lon="4.70543">
        <ele>222</ele>
        <time>2018-09-01T08:45:40Z</time>
      </trkpt>
      <trkpt lat="45.97808" lon="4.70539">
        <ele>222</ele>
        <time>2018-09-01T08:45:41Z</time>
      </trkpt>
      <trkpt lat="45.97808" lon="4.70536">
        <ele>222</ele>
        <time>2018-09-01T08:45:42Z</time>
      </trkpt>
      <trkpt lat="45.97808" lon="4.70526">
        <ele>222</ele>
        <time>2018-09-01T08:45:43Z</time>
      </trkpt>
      <trkpt lat="45.97809" lon="4.70521">
        <ele>222</ele>
        <time>2018-09-01T08:45:44Z</time>
      </trkpt>
      <trkpt lat="45.97809" lon="4.70513">
        <ele>222</ele>
        <time>2018-09-01T08:45:45Z</time>
      </trkpt>
      <trkpt lat="45.97811" lon="4.70508">
        <ele>221</ele>
        <time>2018-09-01T08:45:46Z</time>
      </trkpt>
      <trkpt lat="45.9781" lon="4.70499">
        <ele>221</ele>
        <time>2018-09-01T08:45:47Z</time>
      </trkpt>
      <trkpt lat="45.97809" lon="4.70492">
        <ele>221</ele>
        <time>2018-09-01T08:45:48Z</time>
      </trkpt>
      <trkpt lat="45.97809" lon="4.70486">
        <ele>221</ele>
        <time>2018-09-01T08:45:49Z</time>
      </trkpt>
      <trkpt lat="45.9781" lon="4.70482">
        <ele>221</ele>
        <time>2018-09-01T08:45:50Z</time>
      </trkpt>
      <trkpt lat="45.97809" lon="4.7047">
        <ele>221</ele>
        <time>2018-09-01T08:45:51Z</time>
      </trkpt>
      <trkpt lat="45.9781" lon="4.70464">
        <ele>221</ele>
        <time>2018-09-01T08:45:52Z</time>
      </trkpt>
      <trkpt lat="45.97811" lon="4.70457">
        <ele>221</ele>
        <time>2018-09-01T08:45:53Z</time>
      </trkpt>
      <trkpt lat="45.97814" lon="4.70445">
        <ele>221</ele>
        <time>2018-09-01T08:45:55Z</time>
      </trkpt>
      <trkpt lat="45.97815" lon="4.70438">
        <ele>221</ele>
        <time>2018-09-01T08:45:56Z</time>
      </trkpt>
      <trkpt lat="45.97815" lon="4.7043">
        <ele>221</ele>
        <time>2018-09-01T08:45:58Z</time>
      </trkpt>
      <trkpt lat="45.97814" lon="4.70418">
        <ele>221</ele>
        <time>2018-09-01T08:45:59Z</time>
      </trkpt>
      <trkpt lat="45.97816" lon="4.70413">
        <ele>221</ele>
        <time>2018-09-01T08:46:01Z</time>
      </trkpt>
      <trkpt lat="45.97817" lon="4.704">
        <ele>221</ele>
        <time>2018-09-01T08:46:02Z</time>
      </trkpt>
      <trkpt lat="45.97819" lon="4.70389">
        <ele>222</ele>
        <time>2018-09-01T08:46:04Z</time>
      </trkpt>
      <trkpt lat="45.9782" lon="4.70383">
        <ele>222</ele>
        <time>2018-09-01T08:46:05Z</time>
      </trkpt>
      <trkpt lat="45.9782" lon="4.70376">
        <ele>222</ele>
        <time>2018-09-01T08:46:07Z</time>
      </trkpt>
      <trkpt lat="45.97821" lon="4.70367">
        <ele>222</ele>
        <time>2018-09-01T08:46:08Z</time>
      </trkpt>
      <trkpt lat="45.97823" lon="4.70355">
        <ele>222</ele>
        <time>2018-09-01T08:46:10Z</time>
      </trkpt>
      <trkpt lat="45.97824" lon="4.70348">
        <ele>222</ele>
        <time>2018-09-01T08:46:11Z</time>
      </trkpt>
      <trkpt lat="45.97826" lon="4.70335">
        <ele>221</ele>
        <time>2018-09-01T08:46:13Z</time>
      </trkpt>
      <trkpt lat="45.97826" lon="4.70329">
        <ele>222</ele>
        <time>2018-09-01T08:46:14Z</time>
      </trkpt>
      <trkpt lat="45.97828" lon="4.7032">
        <ele>222</ele>
        <time>2018-09-01T08:46:17Z</time>
      </trkpt>
      <trkpt lat="45.97829" lon="4.70311">
        <ele>222</ele>
        <time>2018-09-01T08:46:18Z</time>
      </trkpt>
      <trkpt lat="45.97828" lon="4.70301">
        <ele>223</ele>
        <time>2018-09-01T08:46:21Z</time>
      </trkpt>
      <trkpt lat="45.97828" lon="4.70288">
        <ele>223</ele>
        <time>2018-09-01T08:46:22Z</time>
      </trkpt>
      <trkpt lat="45.97829" lon="4.70275">
        <ele>223</ele>
        <time>2018-09-01T08:46:24Z</time>
      </trkpt>
      <trkpt lat="45.97829" lon="4.70269">
        <ele>223</ele>
        <time>2018-09-01T08:46:25Z</time>
      </trkpt>
      <trkpt lat="45.97828" lon="4.70257">
        <ele>222</ele>
        <time>2018-09-01T08:46:28Z</time>
      </trkpt>
      <trkpt lat="45.97828" lon="4.70248">
        <ele>222</ele>
        <time>2018-09-01T08:46:29Z</time>
      </trkpt>
      <trkpt lat="45.97828" lon="4.70236">
        <ele>223</ele>
        <time>2018-09-01T08:46:31Z</time>
      </trkpt>
      <trkpt lat="45.97829" lon="4.7023">
        <ele>223</ele>
        <time>2018-09-01T08:46:32Z</time>
      </trkpt>
      <trkpt lat="45.97832" lon="4.70219">
        <ele>223</ele>
        <time>2018-09-01T08:46:34Z</time>
      </trkpt>
      <trkpt lat="45.97832" lon="4.70213">
        <ele>223</ele>
        <time>2018-09-01T08:46:35Z</time>
      </trkpt>
      <trkpt lat="45.97833" lon="4.70206">
        <ele>223</ele>
        <time>2018-09-01T08:46:36Z</time>
      </trkpt>
      <trkpt lat="45.97833" lon="4.702">
        <ele>222</ele>
        <time>2018-09-01T08:46:37Z</time>
      </trkpt>
      <trkpt lat="45.97831" lon="4.70187">
        <ele>222</ele>
        <time>2018-09-01T08:46:39Z</time>
      </trkpt>
      <trkpt lat="45.97832" lon="4.70181">
        <ele>222</ele>
        <time>2018-09-01T08:46:40Z</time>
      </trkpt>
      <trkpt lat="45.97832" lon="4.70168">
        <ele>221</ele>
        <time>2018-09-01T08:46:42Z</time>
      </trkpt>
      <trkpt lat="45.97831" lon="4.70159">
        <ele>221</ele>
        <time>2018-09-01T08:46:43Z</time>
      </trkpt>
      <trkpt lat="45.97831" lon="4.70151">
        <ele>221</ele>
        <time>2018-09-01T08:46:44Z</time>
      </trkpt>
      <trkpt lat="45.9783" lon="4.70142">
        <ele>221</ele>
        <time>2018-09-01T08:46:45Z</time>
      </trkpt>
      <trkpt lat="45.97828" lon="4.70133">
        <ele>221</ele>
        <time>2018-09-01T08:46:46Z</time>
      </trkpt>
      <trkpt lat="45.97828" lon="4.70127">
        <ele>221</ele>
        <time>2018-09-01T08:46:47Z</time>
      </trkpt>
      <trkpt lat="45.97828" lon="4.70118">
        <ele>221</ele>
        <time>2018-09-01T08:46:48Z</time>
      </trkpt>
      <trkpt lat="45.97828" lon="4.70111">
        <ele>221</ele>
        <time>2018-09-01T08:46:49Z</time>
      </trkpt>
      <trkpt lat="45.97828" lon="4.70103">
        <ele>220</ele>
        <time>2018-09-01T08:46:50Z</time>
      </trkpt>
      <trkpt lat="45.97828" lon="4.70095">
        <ele>220</ele>
        <time>2018-09-01T08:46:51Z</time>
      </trkpt>
      <trkpt lat="45.97829" lon="4.70087">
        <ele>220</ele>
        <time>2018-09-01T08:46:52Z</time>
      </trkpt>
      <trkpt lat="45.97829" lon="4.70079">
        <ele>219</ele>
        <time>2018-09-01T08:46:53Z</time>
      </trkpt>
      <trkpt lat="45.97829" lon="4.70071">
        <ele>219</ele>
        <time>2018-09-01T08:46:54Z</time>
      </trkpt>
      <trkpt lat="45.97829" lon="4.70063">
        <ele>219</ele>
        <time>2018-09-01T08:46:55Z</time>
      </trkpt>
      <trkpt lat="45.97831" lon="4.70057">
        <ele>219</ele>
        <time>2018-09-01T08:46:56Z</time>
      </trkpt>
      <trkpt lat="45.97832" lon="4.70049">
        <ele>219</ele>
        <time>2018-09-01T08:46:57Z</time>
      </trkpt>
      <trkpt lat="45.97833" lon="4.70042">
        <ele>219</ele>
        <time>2018-09-01T08:46:58Z</time>
      </trkpt>
      <trkpt lat="45.97838" lon="4.70033">
        <ele>218</ele>
        <time>2018-09-01T08:46:59Z</time>
      </trkpt>
      <trkpt lat="45.97843" lon="4.70025">
        <ele>218</ele>
        <time>2018-09-01T08:47:00Z</time>
      </trkpt>
      <trkpt lat="45.97848" lon="4.70023">
        <ele>218</ele>
        <time>2018-09-01T08:47:01Z</time>
      </trkpt>
      <trkpt lat="45.97852" lon="4.70015">
        <ele>218</ele>
        <time>2018-09-01T08:47:02Z</time>
      </trkpt>
      <trkpt lat="45.97859" lon="4.70009">
        <ele>218</ele>
        <time>2018-09-01T08:47:03Z</time>
      </trkpt>
      <trkpt lat="45.97864" lon="4.70003">
        <ele>218</ele>
        <time>2018-09-01T08:47:04Z</time>
      </trkpt>
      <trkpt lat="45.97869" lon="4.69998">
        <ele>215</ele>
        <time>2018-09-01T08:47:05Z</time>
      </trkpt>
      <trkpt lat="45.97875" lon="4.69992">
        <ele>215</ele>
        <time>2018-09-01T08:47:06Z</time>
      </trkpt>
      <trkpt lat="45.9788" lon="4.69987">
        <ele>215</ele>
        <time>2018-09-01T08:47:07Z</time>
      </trkpt>
      <trkpt lat="45.97886" lon="4.69978">
        <ele>215</ele>
        <time>2018-09-01T08:47:08Z</time>
      </trkpt>
      <trkpt lat="45.97892" lon="4.69971">
        <ele>215</ele>
        <time>2018-09-01T08:47:09Z</time>
      </trkpt>
      <trkpt lat="45.97898" lon="4.69965">
        <ele>214</ele>
        <time>2018-09-01T08:47:10Z</time>
      </trkpt>
      <trkpt lat="45.97905" lon="4.69956">
        <ele>214</ele>
        <time>2018-09-01T08:47:11Z</time>
      </trkpt>
      <trkpt lat="45.97911" lon="4.69948">
        <ele>214</ele>
        <time>2018-09-01T08:47:12Z</time>
      </trkpt>
      <trkpt lat="45.97916" lon="4.6994">
        <ele>213</ele>
        <time>2018-09-01T08:47:13Z</time>
      </trkpt>
      <trkpt lat="45.97923" lon="4.69933">
        <ele>213</ele>
        <time>2018-09-01T08:47:14Z</time>
      </trkpt>
      <trkpt lat="45.97929" lon="4.69928">
        <ele>213</ele>
        <time>2018-09-01T08:47:15Z</time>
      </trkpt>
      <trkpt lat="45.97934" lon="4.69923">
        <ele>213</ele>
        <time>2018-09-01T08:47:16Z</time>
      </trkpt>
      <trkpt lat="45.97939" lon="4.69913">
        <ele>210</ele>
        <time>2018-09-01T08:47:17Z</time>
      </trkpt>
      <trkpt lat="45.97944" lon="4.69905">
        <ele>210</ele>
        <time>2018-09-01T08:47:18Z</time>
      </trkpt>
      <trkpt lat="45.97949" lon="4.69898">
        <ele>210</ele>
        <time>2018-09-01T08:47:19Z</time>
      </trkpt>
      <trkpt lat="45.97953" lon="4.69889">
        <ele>210</ele>
        <time>2018-09-01T08:47:20Z</time>
      </trkpt>
      <trkpt lat="45.97959" lon="4.69877">
        <ele>209</ele>
        <time>2018-09-01T08:47:21Z</time>
      </trkpt>
      <trkpt lat="45.97964" lon="4.69869">
        <ele>209</ele>
        <time>2018-09-01T08:47:22Z</time>
      </trkpt>
      <trkpt lat="45.9797" lon="4.69863">
        <ele>209</ele>
        <time>2018-09-01T08:47:23Z</time>
      </trkpt>
      <trkpt lat="45.97975" lon="4.69857">
        <ele>209</ele>
        <time>2018-09-01T08:47:24Z</time>
      </trkpt>
      <trkpt lat="45.9798" lon="4.69852">
        <ele>209</ele>
        <time>2018-09-01T08:47:25Z</time>
      </trkpt>
      <trkpt lat="45.97983" lon="4.69845">
        <ele>209</ele>
        <time>2018-09-01T08:47:26Z</time>
      </trkpt>
      <trkpt lat="45.97987" lon="4.69841">
        <ele>209</ele>
        <time>2018-09-01T08:47:27Z</time>
      </trkpt>
      <trkpt lat="45.9799" lon="4.69837">
        <ele>208</ele>
        <time>2018-09-01T08:47:28Z</time>
      </trkpt>
      <trkpt lat="45.97995" lon="4.69834">
        <ele>208</ele>
        <time>2018-09-01T08:47:29Z</time>
      </trkpt>
      <trkpt lat="45.98002" lon="4.69834">
        <ele>208</ele>
        <time>2018-09-01T08:47:31Z</time>
      </trkpt>
      <trkpt lat="45.98004" lon="4.69834">
        <ele>208</ele>
        <time>2018-09-01T08:47:32Z</time>
      </trkpt>
      <trkpt lat="45.98012" lon="4.69834">
        <ele>209</ele>
        <time>2018-09-01T08:47:36Z</time>
      </trkpt>
      <trkpt lat="45.9802" lon="4.69835">
        <ele>209</ele>
        <time>2018-09-01T08:47:37Z</time>
      </trkpt>
      <trkpt lat="45.98022" lon="4.69835">
        <ele>210</ele>
        <time>2018-09-01T08:47:38Z</time>
      </trkpt>
      <trkpt lat="45.98029" lon="4.69831">
        <ele>207</ele>
        <time>2018-09-01T08:47:39Z</time>
      </trkpt>
      <trkpt lat="45.98031" lon="4.69827">
        <ele>207</ele>
        <time>2018-09-01T08:47:40Z</time>
      </trkpt>
      <trkpt lat="45.98034" lon="4.69821">
        <ele>207</ele>
        <time>2018-09-01T08:47:41Z</time>
      </trkpt>
      <trkpt lat="45.98036" lon="4.69812">
        <ele>206</ele>
        <time>2018-09-01T08:47:42Z</time>
      </trkpt>
      <trkpt lat="45.98038" lon="4.69804">
        <ele>206</ele>
        <time>2018-09-01T08:47:43Z</time>
      </trkpt>
      <trkpt lat="45.98041" lon="4.69796">
        <ele>206</ele>
        <time>2018-09-01T08:47:44Z</time>
      </trkpt>
      <trkpt lat="45.98042" lon="4.69789">
        <ele>206</ele>
        <time>2018-09-01T08:47:45Z</time>
      </trkpt>
      <trkpt lat="45.98045" lon="4.69781">
        <ele>206</ele>
        <time>2018-09-01T08:47:46Z</time>
      </trkpt>
      <trkpt lat="45.9805" lon="4.69773">
        <ele>205</ele>
        <time>2018-09-01T08:47:47Z</time>
      </trkpt>
      <trkpt lat="45.98054" lon="4.69768">
        <ele>205</ele>
        <time>2018-09-01T08:47:48Z</time>
      </trkpt>
      <trkpt lat="45.98063" lon="4.69761">
        <ele>205</ele>
        <time>2018-09-01T08:47:49Z</time>
      </trkpt>
      <trkpt lat="45.98071" lon="4.69751">
        <ele>204</ele>
        <time>2018-09-01T08:47:50Z</time>
      </trkpt>
      <trkpt lat="45.98078" lon="4.69739">
        <ele>203</ele>
        <time>2018-09-01T08:47:51Z</time>
      </trkpt>
      <trkpt lat="45.98082" lon="4.69728">
        <ele>202</ele>
        <time>2018-09-01T08:47:52Z</time>
      </trkpt>
      <trkpt lat="45.98086" lon="4.69724">
        <ele>201</ele>
        <time>2018-09-01T08:47:53Z</time>
      </trkpt>
      <trkpt lat="45.98091" lon="4.69717">
        <ele>201</ele>
        <time>2018-09-01T08:47:54Z</time>
      </trkpt>
      <trkpt lat="45.98095" lon="4.69713">
        <ele>201</ele>
        <time>2018-09-01T08:47:55Z</time>
      </trkpt>
      <trkpt lat="45.98101" lon="4.69704">
        <ele>200</ele>
        <time>2018-09-01T08:47:56Z</time>
      </trkpt>
      <trkpt lat="45.98105" lon="4.69694">
        <ele>200</ele>
        <time>2018-09-01T08:47:57Z</time>
      </trkpt>
      <trkpt lat="45.9811" lon="4.69685">
        <ele>200</ele>
        <time>2018-09-01T08:47:58Z</time>
      </trkpt>
      <trkpt lat="45.98115" lon="4.69677">
        <ele>200</ele>
        <time>2018-09-01T08:47:59Z</time>
      </trkpt>
      <trkpt lat="45.9812" lon="4.69668">
        <ele>200</ele>
        <time>2018-09-01T08:48:00Z</time>
      </trkpt>
      <trkpt lat="45.98123" lon="4.6966">
        <ele>199</ele>
        <time>2018-09-01T08:48:01Z</time>
      </trkpt>
      <trkpt lat="45.98124" lon="4.69648">
        <ele>199</ele>
        <time>2018-09-01T08:48:02Z</time>
      </trkpt>
      <trkpt lat="45.98125" lon="4.69635">
        <ele>199</ele>
        <time>2018-09-01T08:48:03Z</time>
      </trkpt>
      <trkpt lat="45.9813" lon="4.69627">
        <ele>198</ele>
        <time>2018-09-01T08:48:04Z</time>
      </trkpt>
      <trkpt lat="45.98133" lon="4.69617">
        <ele>198</ele>
        <time>2018-09-01T08:48:05Z</time>
      </trkpt>
      <trkpt lat="45.98136" lon="4.69606">
        <ele>198</ele>
        <time>2018-09-01T08:48:06Z</time>
      </trkpt>
      <trkpt lat="45.9814" lon="4.69599">
        <ele>198</ele>
        <time>2018-09-01T08:48:07Z</time>
      </trkpt>
      <trkpt lat="45.98143" lon="4.69587">
        <ele>198</ele>
        <time>2018-09-01T08:48:08Z</time>
      </trkpt>
      <trkpt lat="45.98146" lon="4.6958">
        <ele>197</ele>
        <time>2018-09-01T08:48:09Z</time>
      </trkpt>
      <trkpt lat="45.98149" lon="4.6957">
        <ele>197</ele>
        <time>2018-09-01T08:48:10Z</time>
      </trkpt>
      <trkpt lat="45.98152" lon="4.69565">
        <ele>197</ele>
        <time>2018-09-01T08:48:11Z</time>
      </trkpt>
      <trkpt lat="45.98155" lon="4.69557">
        <ele>197</ele>
        <time>2018-09-01T08:48:12Z</time>
      </trkpt>
      <trkpt lat="45.98157" lon="4.69549">
        <ele>197</ele>
        <time>2018-09-01T08:48:13Z</time>
      </trkpt>
      <trkpt lat="45.98161" lon="4.69542">
        <ele>197</ele>
        <time>2018-09-01T08:48:14Z</time>
      </trkpt>
      <trkpt lat="45.98164" lon="4.69536">
        <ele>197</ele>
        <time>2018-09-01T08:48:15Z</time>
      </trkpt>
      <trkpt lat="45.98169" lon="4.69528">
        <ele>195</ele>
        <time>2018-09-01T08:48:19Z</time>
      </trkpt>
      <trkpt lat="45.9817" lon="4.69526">
        <ele>195</ele>
        <time>2018-09-01T08:48:20Z</time>
      </trkpt>
      <trkpt lat="45.98169" lon="4.69526">
        <ele>195</ele>
        <time>2018-09-01T08:48:21Z</time>
      </trkpt>
      <trkpt lat="45.98169" lon="4.69526">
        <ele>195</ele>
        <time>2018-09-01T08:48:22Z</time>
      </trkpt>
      <trkpt lat="45.98176" lon="4.69522">
        <ele>195</ele>
        <time>2018-09-01T08:48:28Z</time>
      </trkpt>
      <trkpt lat="45.98183" lon="4.69514">
        <ele>195</ele>
        <time>2018-09-01T08:48:29Z</time>
      </trkpt>
      <trkpt lat="45.98186" lon="4.69504">
        <ele>195</ele>
        <time>2018-09-01T08:48:31Z</time>
      </trkpt>
      <trkpt lat="45.98188" lon="4.69498">
        <ele>194</ele>
        <time>2018-09-01T08:48:32Z</time>
      </trkpt>
      <trkpt lat="45.98187" lon="4.69489">
        <ele>194</ele>
        <time>2018-09-01T08:48:33Z</time>
      </trkpt>
      <trkpt lat="45.98186" lon="4.69481">
        <ele>194</ele>
        <time>2018-09-01T08:48:34Z</time>
      </trkpt>
      <trkpt lat="45.98184" lon="4.69475">
        <ele>194</ele>
        <time>2018-09-01T08:48:35Z</time>
      </trkpt>
      <trkpt lat="45.98182" lon="4.69469">
        <ele>194</ele>
        <time>2018-09-01T08:48:36Z</time>
      </trkpt>
      <trkpt lat="45.98181" lon="4.69462">
        <ele>194</ele>
        <time>2018-09-01T08:48:37Z</time>
      </trkpt>
      <trkpt lat="45.98181" lon="4.69455">
        <ele>194</ele>
        <time>2018-09-01T08:48:38Z</time>
      </trkpt>
      <trkpt lat="45.98183" lon="4.69448">
        <ele>194</ele>
        <time>2018-09-01T08:48:39Z</time>
      </trkpt>
      <trkpt lat="45.98185" lon="4.69442">
        <ele>194</ele>
        <time>2018-09-01T08:48:40Z</time>
      </trkpt>
      <trkpt lat="45.98187" lon="4.69436">
        <ele>194</ele>
        <time>2018-09-01T08:48:41Z</time>
      </trkpt>
      <trkpt lat="45.98188" lon="4.69429">
        <ele>194</ele>
        <time>2018-09-01T08:48:42Z</time>
      </trkpt>
      <trkpt lat="45.98189" lon="4.69422">
        <ele>194</ele>
        <time>2018-09-01T08:48:43Z</time>
      </trkpt>
      <trkpt lat="45.98191" lon="4.69415">
        <ele>194</ele>
        <time>2018-09-01T08:48:44Z</time>
      </trkpt>
      <trkpt lat="45.98192" lon="4.69408">
        <ele>194</ele>
        <time>2018-09-01T08:48:45Z</time>
      </trkpt>
      <trkpt lat="45.98194" lon="4.69401">
        <ele>194</ele>
        <time>2018-09-01T08:48:46Z</time>
      </trkpt>
      <trkpt lat="45.98196" lon="4.69395">
        <ele>194</ele>
        <time>2018-09-01T08:48:47Z</time>
      </trkpt>
      <trkpt lat="45.98198" lon="4.69389">
        <ele>194</ele>
        <time>2018-09-01T08:48:48Z</time>
      </trkpt>
      <trkpt lat="45.98201" lon="4.69381">
        <ele>194</ele>
        <time>2018-09-01T08:48:49Z</time>
      </trkpt>
      <trkpt lat="45.98201" lon="4.69374">
        <ele>193</ele>
        <time>2018-09-01T08:48:50Z</time>
      </trkpt>
      <trkpt lat="45.98203" lon="4.69368">
        <ele>193</ele>
        <time>2018-09-01T08:48:51Z</time>
      </trkpt>
      <trkpt lat="45.98204" lon="4.69362">
        <ele>193</ele>
        <time>2018-09-01T08:48:52Z</time>
      </trkpt>
      <trkpt lat="45.98206" lon="4.69355">
        <ele>193</ele>
        <time>2018-09-01T08:48:53Z</time>
      </trkpt>
      <trkpt lat="45.98208" lon="4.6935">
        <ele>193</ele>
        <time>2018-09-01T08:48:54Z</time>
      </trkpt>
      <trkpt lat="45.98212" lon="4.69339">
        <ele>194</ele>
        <time>2018-09-01T08:48:56Z</time>
      </trkpt>
      <trkpt lat="45.98215" lon="4.69333">
        <ele>194</ele>
        <time>2018-09-01T08:48:57Z</time>
      </trkpt>
      <trkpt lat="45.98217" lon="4.69326">
        <ele>194</ele>
        <time>2018-09-01T08:48:58Z</time>
      </trkpt>
      <trkpt lat="45.98218" lon="4.6932">
        <ele>194</ele>
        <time>2018-09-01T08:48:59Z</time>
      </trkpt>
      <trkpt lat="45.98217" lon="4.69312">
        <ele>194</ele>
        <time>2018-09-01T08:49:00Z</time>
      </trkpt>
      <trkpt lat="45.98218" lon="4.69305">
        <ele>194</ele>
        <time>2018-09-01T08:49:01Z</time>
      </trkpt>
      <trkpt lat="45.98218" lon="4.69294">
        <ele>194</ele>
        <time>2018-09-01T08:49:03Z</time>
      </trkpt>
      <trkpt lat="45.98218" lon="4.69288">
        <ele>194</ele>
        <time>2018-09-01T08:49:04Z</time>
      </trkpt>
      <trkpt lat="45.98221" lon="4.69281">
        <ele>194</ele>
        <time>2018-09-01T08:49:05Z</time>
      </trkpt>
      <trkpt lat="45.98221" lon="4.69276">
        <ele>194</ele>
        <time>2018-09-01T08:49:06Z</time>
      </trkpt>
      <trkpt lat="45.98223" lon="4.69266">
        <ele>194</ele>
        <time>2018-09-01T08:49:08Z</time>
      </trkpt>
      <trkpt lat="45.98225" lon="4.69261">
        <ele>194</ele>
        <time>2018-09-01T08:49:09Z</time>
      </trkpt>
      <trkpt lat="45.98225" lon="4.69254">
        <ele>194</ele>
        <time>2018-09-01T08:49:10Z</time>
      </trkpt>
      <trkpt lat="45.98226" lon="4.69248">
        <ele>195</ele>
        <time>2018-09-01T08:49:11Z</time>
      </trkpt>
      <trkpt lat="45.98226" lon="4.69237">
        <ele>196</ele>
        <time>2018-09-01T08:49:13Z</time>
      </trkpt>
      <trkpt lat="45.98227" lon="4.69231">
        <ele>196</ele>
        <time>2018-09-01T08:49:14Z</time>
      </trkpt>
      <trkpt lat="45.98229" lon="4.69221">
        <ele>196</ele>
        <time>2018-09-01T08:49:16Z</time>
      </trkpt>
      <trkpt lat="45.98229" lon="4.69218">
        <ele>196</ele>
        <time>2018-09-01T08:49:17Z</time>
      </trkpt>
      <trkpt lat="45.98231" lon="4.69208">
        <ele>196</ele>
        <time>2018-09-01T08:49:20Z</time>
      </trkpt>
      <trkpt lat="45.98231" lon="4.69205">
        <ele>196</ele>
        <time>2018-09-01T08:49:21Z</time>
      </trkpt>
      <trkpt lat="45.98233" lon="4.69193">
        <ele>197</ele>
        <time>2018-09-01T08:49:24Z</time>
      </trkpt>
      <trkpt lat="45.98233" lon="4.69189">
        <ele>197</ele>
        <time>2018-09-01T08:49:25Z</time>
      </trkpt>
      <trkpt lat="45.98234" lon="4.6918">
        <ele>197</ele>
        <time>2018-09-01T08:49:27Z</time>
      </trkpt>
      <trkpt lat="45.98234" lon="4.69165">
        <ele>199</ele>
        <time>2018-09-01T08:49:28Z</time>
      </trkpt>
      <trkpt lat="45.98234" lon="4.69156">
        <ele>199</ele>
        <time>2018-09-01T08:49:31Z</time>
      </trkpt>
      <trkpt lat="45.98234" lon="4.69152">
        <ele>199</ele>
        <time>2018-09-01T08:49:32Z</time>
      </trkpt>
      <trkpt lat="45.98233" lon="4.69148">
        <ele>199</ele>
        <time>2018-09-01T08:49:33Z</time>
      </trkpt>
      <trkpt lat="45.98232" lon="4.69136">
        <ele>199</ele>
        <time>2018-09-01T08:49:34Z</time>
      </trkpt>
      <trkpt lat="45.98229" lon="4.69126">
        <ele>199</ele>
        <time>2018-09-01T08:49:36Z</time>
      </trkpt>
      <trkpt lat="45.98227" lon="4.69121">
        <ele>199</ele>
        <time>2018-09-01T08:49:37Z</time>
      </trkpt>
      <trkpt lat="45.98225" lon="4.69114">
        <ele>200</ele>
        <time>2018-09-01T08:49:40Z</time>
      </trkpt>
      <trkpt lat="45.98222" lon="4.69102">
        <ele>200</ele>
        <time>2018-09-01T08:49:41Z</time>
      </trkpt>
      <trkpt lat="45.98219" lon="4.6909">
        <ele>200</ele>
        <time>2018-09-01T08:49:43Z</time>
      </trkpt>
      <trkpt lat="45.98217" lon="4.69085">
        <ele>200</ele>
        <time>2018-09-01T08:49:44Z</time>
      </trkpt>
      <trkpt lat="45.98213" lon="4.69077">
        <ele>201</ele>
        <time>2018-09-01T08:49:46Z</time>
      </trkpt>
      <trkpt lat="45.9821" lon="4.69071">
        <ele>201</ele>
        <time>2018-09-01T08:49:47Z</time>
      </trkpt>
      <trkpt lat="45.98206" lon="4.69062">
        <ele>201</ele>
        <time>2018-09-01T08:49:49Z</time>
      </trkpt>
      <trkpt lat="45.98205" lon="4.69058">
        <ele>201</ele>
        <time>2018-09-01T08:49:50Z</time>
      </trkpt>
      <trkpt lat="45.982" lon="4.69048">
        <ele>201</ele>
        <time>2018-09-01T08:49:53Z</time>
      </trkpt>
      <trkpt lat="45.98195" lon="4.69035">
        <ele>201</ele>
        <time>2018-09-01T08:49:54Z</time>
      </trkpt>
      <trkpt lat="45.98191" lon="4.69024">
        <ele>201</ele>
        <time>2018-09-01T08:49:56Z</time>
      </trkpt>
      <trkpt lat="45.98189" lon="4.69016">
        <ele>201</ele>
        <time>2018-09-01T08:49:57Z</time>
      </trkpt>
      <trkpt lat="45.98191" lon="4.69011">
        <ele>201</ele>
        <time>2018-09-01T08:49:58Z</time>
      </trkpt>
      <trkpt lat="45.98192" lon="4.69003">
        <ele>201</ele>
        <time>2018-09-01T08:49:59Z</time>
      </trkpt>
      <trkpt lat="45.98192" lon="4.68991">
        <ele>202</ele>
        <time>2018-09-01T08:50:01Z</time>
      </trkpt>
      <trkpt lat="45.98192" lon="4.68983">
        <ele>202</ele>
        <time>2018-09-01T08:50:02Z</time>
      </trkpt>
      <trkpt lat="45.98193" lon="4.68972">
        <ele>202</ele>
        <time>2018-09-01T08:50:04Z</time>
      </trkpt>
      <trkpt lat="45.98192" lon="4.68966">
        <ele>202</ele>
        <time>2018-09-01T08:50:05Z</time>
      </trkpt>
      <trkpt lat="45.98193" lon="4.68959">
        <ele>202</ele>
        <time>2018-09-01T08:50:06Z</time>
      </trkpt>
      <trkpt lat="45.98194" lon="4.68951">
        <ele>202</ele>
        <time>2018-09-01T08:50:07Z</time>
      </trkpt>
      <trkpt lat="45.98195" lon="4.68944">
        <ele>202</ele>
        <time>2018-09-01T08:50:08Z</time>
      </trkpt>
      <trkpt lat="45.98196" lon="4.68938">
        <ele>202</ele>
        <time>2018-09-01T08:50:09Z</time>
      </trkpt>
      <trkpt lat="45.98197" lon="4.68932">
        <ele>202</ele>
        <time>2018-09-01T08:50:10Z</time>
      </trkpt>
      <trkpt lat="45.98197" lon="4.68924">
        <ele>202</ele>
        <time>2018-09-01T08:50:11Z</time>
      </trkpt>
      <trkpt lat="45.98198" lon="4.68917">
        <ele>202</ele>
        <time>2018-09-01T08:50:12Z</time>
      </trkpt>
      <trkpt lat="45.98201" lon="4.68909">
        <ele>202</ele>
        <time>2018-09-01T08:50:13Z</time>
      </trkpt>
      <trkpt lat="45.982" lon="4.68903">
        <ele>202</ele>
        <time>2018-09-01T08:50:14Z</time>
      </trkpt>
      <trkpt lat="45.98201" lon="4.68896">
        <ele>202</ele>
        <time>2018-09-01T08:50:15Z</time>
      </trkpt>
      <trkpt lat="45.98202" lon="4.68883">
        <ele>203</ele>
        <time>2018-09-01T08:50:17Z</time>
      </trkpt>
      <trkpt lat="45.98202" lon="4.68877">
        <ele>203</ele>
        <time>2018-09-01T08:50:18Z</time>
      </trkpt>
      <trkpt lat="45.98202" lon="4.68869">
        <ele>203</ele>
        <time>2018-09-01T08:50:19Z</time>
      </trkpt>
      <trkpt lat="45.98202" lon="4.68863">
        <ele>203</ele>
        <time>2018-09-01T08:50:20Z</time>
      </trkpt>
      <trkpt lat="45.98204" lon="4.68851">
        <ele>203</ele>
        <time>2018-09-01T08:50:22Z</time>
      </trkpt>
      <trkpt lat="45.98204" lon="4.68845">
        <ele>203</ele>
        <time>2018-09-01T08:50:23Z</time>
      </trkpt>
      <trkpt lat="45.98206" lon="4.68833">
        <ele>204</ele>
        <time>2018-09-01T08:50:25Z</time>
      </trkpt>
      <trkpt lat="45.98207" lon="4.68828">
        <ele>204</ele>
        <time>2018-09-01T08:50:26Z</time>
      </trkpt>
      <trkpt lat="45.98208" lon="4.68816">
        <ele>204</ele>
        <time>2018-09-01T08:50:28Z</time>
      </trkpt>
      <trkpt lat="45.98209" lon="4.6881">
        <ele>204</ele>
        <time>2018-09-01T08:50:29Z</time>
      </trkpt>
      <trkpt lat="45.98211" lon="4.68799">
        <ele>204</ele>
        <time>2018-09-01T08:50:31Z</time>
      </trkpt>
      <trkpt lat="45.98211" lon="4.68793">
        <ele>204</ele>
        <time>2018-09-01T08:50:32Z</time>
      </trkpt>
      <trkpt lat="45.98212" lon="4.6878">
        <ele>204</ele>
        <time>2018-09-01T08:50:34Z</time>
      </trkpt>
      <trkpt lat="45.98214" lon="4.68773">
        <ele>204</ele>
        <time>2018-09-01T08:50:35Z</time>
      </trkpt>
      <trkpt lat="45.98216" lon="4.68762">
        <ele>205</ele>
        <time>2018-09-01T08:50:37Z</time>
      </trkpt>
      <trkpt lat="45.98216" lon="4.68757">
        <ele>205</ele>
        <time>2018-09-01T08:50:38Z</time>
      </trkpt>
      <trkpt lat="45.98219" lon="4.68746">
        <ele>206</ele>
        <time>2018-09-01T08:50:40Z</time>
      </trkpt>
      <trkpt lat="45.98219" lon="4.6874">
        <ele>206</ele>
        <time>2018-09-01T08:50:41Z</time>
      </trkpt>
      <trkpt lat="45.98221" lon="4.68729">
        <ele>206</ele>
        <time>2018-09-01T08:50:43Z</time>
      </trkpt>
      <trkpt lat="45.98221" lon="4.68724">
        <ele>206</ele>
        <time>2018-09-01T08:50:44Z</time>
      </trkpt>
      <trkpt lat="45.98223" lon="4.68713">
        <ele>207</ele>
        <time>2018-09-01T08:50:46Z</time>
      </trkpt>
      <trkpt lat="45.98223" lon="4.68708">
        <ele>207</ele>
        <time>2018-09-01T08:50:47Z</time>
      </trkpt>
      <trkpt lat="45.98225" lon="4.68697">
        <ele>207</ele>
        <time>2018-09-01T08:50:50Z</time>
      </trkpt>
      <trkpt lat="45.98226" lon="4.68693">
        <ele>207</ele>
        <time>2018-09-01T08:50:51Z</time>
      </trkpt>
      <trkpt lat="45.98227" lon="4.68686">
        <ele>207</ele>
        <time>2018-09-01T08:50:53Z</time>
      </trkpt>
      <trkpt lat="45.98227" lon="4.6868">
        <ele>207</ele>
        <time>2018-09-01T08:50:54Z</time>
      </trkpt>
      <trkpt lat="45.98228" lon="4.68672">
        <ele>208</ele>
        <time>2018-09-01T08:50:56Z</time>
      </trkpt>
      <trkpt lat="45.98229" lon="4.68667">
        <ele>208</ele>
        <time>2018-09-01T08:50:57Z</time>
      </trkpt>
      <trkpt lat="45.98231" lon="4.68655">
        <ele>209</ele>
        <time>2018-09-01T08:51:00Z</time>
      </trkpt>
      <trkpt lat="45.98232" lon="4.68651">
        <ele>209</ele>
        <time>2018-09-01T08:51:01Z</time>
      </trkpt>
      <trkpt lat="45.98235" lon="4.68642">
        <ele>208</ele>
        <time>2018-09-01T08:51:03Z</time>
      </trkpt>
      <trkpt lat="45.98236" lon="4.68638">
        <ele>208</ele>
        <time>2018-09-01T08:51:04Z</time>
      </trkpt>
      <trkpt lat="45.98239" lon="4.68626">
        <ele>208</ele>
        <time>2018-09-01T08:51:07Z</time>
      </trkpt>
      <trkpt lat="45.98239" lon="4.68621">
        <ele>208</ele>
        <time>2018-09-01T08:51:08Z</time>
      </trkpt>
      <trkpt lat="45.98239" lon="4.68613">
        <ele>209</ele>
        <time>2018-09-01T08:51:10Z</time>
      </trkpt>
      <trkpt lat="45.98239" lon="4.68608">
        <ele>209</ele>
        <time>2018-09-01T08:51:11Z</time>
      </trkpt>
      <trkpt lat="45.98239" lon="4.68599">
        <ele>209</ele>
        <time>2018-09-01T08:51:13Z</time>
      </trkpt>
      <trkpt lat="45.98238" lon="4.68594">
        <ele>209</ele>
        <time>2018-09-01T08:51:14Z</time>
      </trkpt>
      <trkpt lat="45.98238" lon="4.68585">
        <ele>209</ele>
        <time>2018-09-01T08:51:16Z</time>
      </trkpt>
      <trkpt lat="45.98237" lon="4.6858">
        <ele>210</ele>
        <time>2018-09-01T08:51:17Z</time>
      </trkpt>
      <trkpt lat="45.98236" lon="4.6857">
        <ele>210</ele>
        <time>2018-09-01T08:51:19Z</time>
      </trkpt>
      <trkpt lat="45.98236" lon="4.68565">
        <ele>210</ele>
        <time>2018-09-01T08:51:20Z</time>
      </trkpt>
      <trkpt lat="45.98236" lon="4.68555">
        <ele>210</ele>
        <time>2018-09-01T08:51:22Z</time>
      </trkpt>
      <trkpt lat="45.98235" lon="4.68551">
        <ele>210</ele>
        <time>2018-09-01T08:51:23Z</time>
      </trkpt>
      <trkpt lat="45.98235" lon="4.68542">
        <ele>210</ele>
        <time>2018-09-01T08:51:25Z</time>
      </trkpt>
      <trkpt lat="45.98234" lon="4.68538">
        <ele>210</ele>
        <time>2018-09-01T08:51:26Z</time>
      </trkpt>
      <trkpt lat="45.98233" lon="4.68526">
        <ele>210</ele>
        <time>2018-09-01T08:51:29Z</time>
      </trkpt>
      <trkpt lat="45.98233" lon="4.68522">
        <ele>211</ele>
        <time>2018-09-01T08:51:30Z</time>
      </trkpt>
      <trkpt lat="45.98233" lon="4.6851">
        <ele>211</ele>
        <time>2018-09-01T08:51:33Z</time>
      </trkpt>
      <trkpt lat="45.98233" lon="4.68506">
        <ele>211</ele>
        <time>2018-09-01T08:51:34Z</time>
      </trkpt>
      <trkpt lat="45.98233" lon="4.68495">
        <ele>213</ele>
        <time>2018-09-01T08:51:37Z</time>
      </trkpt>
      <trkpt lat="45.98233" lon="4.68491">
        <ele>213</ele>
        <time>2018-09-01T08:51:38Z</time>
      </trkpt>
      <trkpt lat="45.98233" lon="4.68481">
        <ele>213</ele>
        <time>2018-09-01T08:51:41Z</time>
      </trkpt>
      <trkpt lat="45.98233" lon="4.68477">
        <ele>213</ele>
        <time>2018-09-01T08:51:42Z</time>
      </trkpt>
      <trkpt lat="45.98233" lon="4.68466">
        <ele>213</ele>
        <time>2018-09-01T08:51:45Z</time>
      </trkpt>
      <trkpt lat="45.98233" lon="4.68462">
        <ele>213</ele>
        <time>2018-09-01T08:51:46Z</time>
      </trkpt>
      <trkpt lat="45.98234" lon="4.6845">
        <ele>214</ele>
        <time>2018-09-01T08:51:49Z</time>
      </trkpt>
      <trkpt lat="45.98234" lon="4.68446">
        <ele>214</ele>
        <time>2018-09-01T08:51:50Z</time>
      </trkpt>
      <trkpt lat="45.98235" lon="4.68435">
        <ele>214</ele>
        <time>2018-09-01T08:51:53Z</time>
      </trkpt>
      <trkpt lat="45.98235" lon="4.68431">
        <ele>215</ele>
        <time>2018-09-01T08:51:54Z</time>
      </trkpt>
      <trkpt lat="45.98234" lon="4.68419">
        <ele>215</ele>
        <time>2018-09-01T08:51:57Z</time>
      </trkpt>
      <trkpt lat="45.98234" lon="4.68415">
        <ele>217</ele>
        <time>2018-09-01T08:51:58Z</time>
      </trkpt>
      <trkpt lat="45.98234" lon="4.68403">
        <ele>217</ele>
        <time>2018-09-01T08:52:01Z</time>
      </trkpt>
      <trkpt lat="45.98235" lon="4.684">
        <ele>217</ele>
        <time>2018-09-01T08:52:02Z</time>
      </trkpt>
      <trkpt lat="45.98236" lon="4.6839">
        <ele>217</ele>
        <time>2018-09-01T08:52:05Z</time>
      </trkpt>
      <trkpt lat="45.98236" lon="4.68386">
        <ele>217</ele>
        <time>2018-09-01T08:52:06Z</time>
      </trkpt>
      <trkpt lat="45.98237" lon="4.68373">
        <ele>218</ele>
        <time>2018-09-01T08:52:09Z</time>
      </trkpt>
      <trkpt lat="45.98237" lon="4.68369">
        <ele>218</ele>
        <time>2018-09-01T08:52:10Z</time>
      </trkpt>
      <trkpt lat="45.98237" lon="4.68356">
        <ele>218</ele>
        <time>2018-09-01T08:52:13Z</time>
      </trkpt>
      <trkpt lat="45.98237" lon="4.68352">
        <ele>218</ele>
        <time>2018-09-01T08:52:14Z</time>
      </trkpt>
      <trkpt lat="45.98237" lon="4.6834">
        <ele>219</ele>
        <time>2018-09-01T08:52:17Z</time>
      </trkpt>
      <trkpt lat="45.98237" lon="4.68336">
        <ele>219</ele>
        <time>2018-09-01T08:52:18Z</time>
      </trkpt>
      <trkpt lat="45.98236" lon="4.68327">
        <ele>221</ele>
        <time>2018-09-01T08:52:20Z</time>
      </trkpt>
      <trkpt lat="45.98236" lon="4.68323">
        <ele>221</ele>
        <time>2018-09-01T08:52:21Z</time>
      </trkpt>
      <trkpt lat="45.98236" lon="4.68311">
        <ele>221</ele>
        <time>2018-09-01T08:52:24Z</time>
      </trkpt>
      <trkpt lat="45.98236" lon="4.68307">
        <ele>221</ele>
        <time>2018-09-01T08:52:25Z</time>
      </trkpt>
      <trkpt lat="45.98236" lon="4.68295">
        <ele>222</ele>
        <time>2018-09-01T08:52:28Z</time>
      </trkpt>
      <trkpt lat="45.98236" lon="4.68292">
        <ele>222</ele>
        <time>2018-09-01T08:52:29Z</time>
      </trkpt>
      <trkpt lat="45.98236" lon="4.68284">
        <ele>222</ele>
        <time>2018-09-01T08:52:31Z</time>
      </trkpt>
      <trkpt lat="45.98236" lon="4.68279">
        <ele>222</ele>
        <time>2018-09-01T08:52:32Z</time>
      </trkpt>
      <trkpt lat="45.98236" lon="4.68268">
        <ele>223</ele>
        <time>2018-09-01T08:52:35Z</time>
      </trkpt>
      <trkpt lat="45.98236" lon="4.68264">
        <ele>223</ele>
        <time>2018-09-01T08:52:36Z</time>
      </trkpt>
      <trkpt lat="45.98235" lon="4.68252">
        <ele>223</ele>
        <time>2018-09-01T08:52:39Z</time>
      </trkpt>
      <trkpt lat="45.98234" lon="4.68249">
        <ele>225</ele>
        <time>2018-09-01T08:52:40Z</time>
      </trkpt>
      <trkpt lat="45.98233" lon="4.68236">
        <ele>225</ele>
        <time>2018-09-01T08:52:43Z</time>
      </trkpt>
      <trkpt lat="45.98232" lon="4.68232">
        <ele>226</ele>
        <time>2018-09-01T08:52:44Z</time>
      </trkpt>
      <trkpt lat="45.9823" lon="4.6822">
        <ele>226</ele>
        <time>2018-09-01T08:52:47Z</time>
      </trkpt>
      <trkpt lat="45.98229" lon="4.68215">
        <ele>226</ele>
        <time>2018-09-01T08:52:48Z</time>
      </trkpt>
      <trkpt lat="45.98227" lon="4.68206">
        <ele>226</ele>
        <time>2018-09-01T08:52:50Z</time>
      </trkpt>
      <trkpt lat="45.98227" lon="4.68202">
        <ele>226</ele>
        <time>2018-09-01T08:52:51Z</time>
      </trkpt>
      <trkpt lat="45.98225" lon="4.6819">
        <ele>227</ele>
        <time>2018-09-01T08:52:54Z</time>
      </trkpt>
      <trkpt lat="45.98225" lon="4.68186">
        <ele>227</ele>
        <time>2018-09-01T08:52:55Z</time>
      </trkpt>
      <trkpt lat="45.98225" lon="4.68177">
        <ele>227</ele>
        <time>2018-09-01T08:52:57Z</time>
      </trkpt>
      <trkpt lat="45.98225" lon="4.68163">
        <ele>228</ele>
        <time>2018-09-01T08:52:58Z</time>
      </trkpt>
      <trkpt lat="45.98224" lon="4.68151">
        <ele>228</ele>
        <time>2018-09-01T08:53:02Z</time>
      </trkpt>
      <trkpt lat="45.98224" lon="4.68146">
        <ele>228</ele>
        <time>2018-09-01T08:53:03Z</time>
      </trkpt>
      <trkpt lat="45.98223" lon="4.68134">
        <ele>228</ele>
        <time>2018-09-01T08:53:04Z</time>
      </trkpt>
      <trkpt lat="45.98223" lon="4.68132">
        <ele>228</ele>
        <time>2018-09-01T08:53:05Z</time>
      </trkpt>
      <trkpt lat="45.98222" lon="4.68119">
        <ele>228</ele>
        <time>2018-09-01T08:53:09Z</time>
      </trkpt>
      <trkpt lat="45.98222" lon="4.68116">
        <ele>228</ele>
        <time>2018-09-01T08:53:10Z</time>
      </trkpt>
      <trkpt lat="45.98222" lon="4.68105">
        <ele>228</ele>
        <time>2018-09-01T08:53:13Z</time>
      </trkpt>
      <trkpt lat="45.98221" lon="4.68101">
        <ele>228</ele>
        <time>2018-09-01T08:53:14Z</time>
      </trkpt>
      <trkpt lat="45.98221" lon="4.68091">
        <ele>228</ele>
        <time>2018-09-01T08:53:16Z</time>
      </trkpt>
      <trkpt lat="45.98222" lon="4.68087">
        <ele>228</ele>
        <time>2018-09-01T08:53:17Z</time>
      </trkpt>
      <trkpt lat="45.98222" lon="4.68078">
        <ele>228</ele>
        <time>2018-09-01T08:53:19Z</time>
      </trkpt>
      <trkpt lat="45.98222" lon="4.68073">
        <ele>228</ele>
        <time>2018-09-01T08:53:20Z</time>
      </trkpt>
      <trkpt lat="45.98222" lon="4.68063">
        <ele>228</ele>
        <time>2018-09-01T08:53:22Z</time>
      </trkpt>
      <trkpt lat="45.98221" lon="4.68057">
        <ele>228</ele>
        <time>2018-09-01T08:53:23Z</time>
      </trkpt>
      <trkpt lat="45.98221" lon="4.68047">
        <ele>228</ele>
        <time>2018-09-01T08:53:25Z</time>
      </trkpt>
      <trkpt lat="45.98222" lon="4.68042">
        <ele>228</ele>
        <time>2018-09-01T08:53:26Z</time>
      </trkpt>
      <trkpt lat="45.98222" lon="4.68034">
        <ele>228</ele>
        <time>2018-09-01T08:53:28Z</time>
      </trkpt>
      <trkpt lat="45.98222" lon="4.68029">
        <ele>228</ele>
        <time>2018-09-01T08:53:29Z</time>
      </trkpt>
      <trkpt lat="45.98222" lon="4.68024">
        <ele>228</ele>
        <time>2018-09-01T08:53:30Z</time>
      </trkpt>
      <trkpt lat="45.98223" lon="4.68012">
        <ele>228</ele>
        <time>2018-09-01T08:53:31Z</time>
      </trkpt>
      <trkpt lat="45.98223" lon="4.67999">
        <ele>229</ele>
        <time>2018-09-01T08:53:35Z</time>
      </trkpt>
      <trkpt lat="45.98223" lon="4.67995">
        <ele>229</ele>
        <time>2018-09-01T08:53:36Z</time>
      </trkpt>
      <trkpt lat="45.98223" lon="4.67984">
        <ele>229</ele>
        <time>2018-09-01T08:53:39Z</time>
      </trkpt>
      <trkpt lat="45.98223" lon="4.67979">
        <ele>229</ele>
        <time>2018-09-01T08:53:40Z</time>
      </trkpt>
      <trkpt lat="45.98222" lon="4.67975">
        <ele>229</ele>
        <time>2018-09-01T08:53:41Z</time>
      </trkpt>
      <trkpt lat="45.98221" lon="4.67961">
        <ele>229</ele>
        <time>2018-09-01T08:53:42Z</time>
      </trkpt>
      <trkpt lat="45.98219" lon="4.6795">
        <ele>229</ele>
        <time>2018-09-01T08:53:45Z</time>
      </trkpt>
      <trkpt lat="45.98219" lon="4.67947">
        <ele>229</ele>
        <time>2018-09-01T08:53:46Z</time>
      </trkpt>
      <trkpt lat="45.98214" lon="4.67937">
        <ele>229</ele>
        <time>2018-09-01T08:53:47Z</time>
      </trkpt>
      <trkpt lat="45.98215" lon="4.67935">
        <ele>229</ele>
        <time>2018-09-01T08:53:48Z</time>
      </trkpt>
      <trkpt lat="45.98215" lon="4.67922">
        <ele>230</ele>
        <time>2018-09-01T08:53:52Z</time>
      </trkpt>
      <trkpt lat="45.98214" lon="4.67918">
        <ele>230</ele>
        <time>2018-09-01T08:53:53Z</time>
      </trkpt>
      <trkpt lat="45.98213" lon="4.67907">
        <ele>232</ele>
        <time>2018-09-01T08:53:56Z</time>
      </trkpt>
      <trkpt lat="45.98213" lon="4.67903">
        <ele>232</ele>
        <time>2018-09-01T08:53:57Z</time>
      </trkpt>
      <trkpt lat="45.98213" lon="4.67892">
        <ele>232</ele>
        <time>2018-09-01T08:54:00Z</time>
      </trkpt>
      <trkpt lat="45.98212" lon="4.67888">
        <ele>232</ele>
        <time>2018-09-01T08:54:01Z</time>
      </trkpt>
      <trkpt lat="45.98212" lon="4.67876">
        <ele>233</ele>
        <time>2018-09-01T08:54:04Z</time>
      </trkpt>
      <trkpt lat="45.98212" lon="4.67872">
        <ele>233</ele>
        <time>2018-09-01T08:54:05Z</time>
      </trkpt>
      <trkpt lat="45.98212" lon="4.67861">
        <ele>233</ele>
        <time>2018-09-01T08:54:08Z</time>
      </trkpt>
      <trkpt lat="45.98212" lon="4.67857">
        <ele>233</ele>
        <time>2018-09-01T08:54:09Z</time>
      </trkpt>
      <trkpt lat="45.98212" lon="4.67847">
        <ele>233</ele>
        <time>2018-09-01T08:54:12Z</time>
      </trkpt>
      <trkpt lat="45.98212" lon="4.67843">
        <ele>233</ele>
        <time>2018-09-01T08:54:13Z</time>
      </trkpt>
      <trkpt lat="45.98213" lon="4.67831">
        <ele>237</ele>
        <time>2018-09-01T08:54:17Z</time>
      </trkpt>
      <trkpt lat="45.98213" lon="4.67828">
        <ele>237</ele>
        <time>2018-09-01T08:54:18Z</time>
      </trkpt>
      <trkpt lat="45.98215" lon="4.67818">
        <ele>237</ele>
        <time>2018-09-01T08:54:21Z</time>
      </trkpt>
      <trkpt lat="45.98216" lon="4.67814">
        <ele>237</ele>
        <time>2018-09-01T08:54:22Z</time>
      </trkpt>
      <trkpt lat="45.98218" lon="4.67805">
        <ele>238</ele>
        <time>2018-09-01T08:54:25Z</time>
      </trkpt>
      <trkpt lat="45.98219" lon="4.67802">
        <ele>238</ele>
        <time>2018-09-01T08:54:26Z</time>
      </trkpt>
      <trkpt lat="45.98223" lon="4.67791">
        <ele>238</ele>
        <time>2018-09-01T08:54:30Z</time>
      </trkpt>
      <trkpt lat="45.98224" lon="4.67789">
        <ele>238</ele>
        <time>2018-09-01T08:54:31Z</time>
      </trkpt>
      <trkpt lat="45.98227" lon="4.67778">
        <ele>239</ele>
        <time>2018-09-01T08:54:35Z</time>
      </trkpt>
      <trkpt lat="45.98228" lon="4.67776">
        <ele>239</ele>
        <time>2018-09-01T08:54:36Z</time>
      </trkpt>
      <trkpt lat="45.98232" lon="4.67766">
        <ele>239</ele>
        <time>2018-09-01T08:54:40Z</time>
      </trkpt>
      <trkpt lat="45.98234" lon="4.67764">
        <ele>240</ele>
        <time>2018-09-01T08:54:41Z</time>
      </trkpt>
      <trkpt lat="45.98237" lon="4.67752">
        <ele>240</ele>
        <time>2018-09-01T08:54:45Z</time>
      </trkpt>
      <trkpt lat="45.98237" lon="4.67749">
        <ele>242</ele>
        <time>2018-09-01T08:54:46Z</time>
      </trkpt>
      <trkpt lat="45.98238" lon="4.67736">
        <ele>242</ele>
        <time>2018-09-01T08:54:50Z</time>
      </trkpt>
      <trkpt lat="45.98238" lon="4.67732">
        <ele>242</ele>
        <time>2018-09-01T08:54:51Z</time>
      </trkpt>
      <trkpt lat="45.98237" lon="4.67722">
        <ele>243</ele>
        <time>2018-09-01T08:54:54Z</time>
      </trkpt>
      <trkpt lat="45.98236" lon="4.67718">
        <ele>243</ele>
        <time>2018-09-01T08:54:55Z</time>
      </trkpt>
      <trkpt lat="45.98235" lon="4.67708">
        <ele>243</ele>
        <time>2018-09-01T08:54:58Z</time>
      </trkpt>
      <trkpt lat="45.98235" lon="4.67704">
        <ele>243</ele>
        <time>2018-09-01T08:54:59Z</time>
      </trkpt>
      <trkpt lat="45.98234" lon="4.67694">
        <ele>244</ele>
        <time>2018-09-01T08:55:02Z</time>
      </trkpt>
      <trkpt lat="45.98234" lon="4.67691">
        <ele>244</ele>
        <time>2018-09-01T08:55:03Z</time>
      </trkpt>
      <trkpt lat="45.98234" lon="4.67678">
        <ele>244</ele>
        <time>2018-09-01T08:55:07Z</time>
      </trkpt>
      <trkpt lat="45.98234" lon="4.67675">
        <ele>244</ele>
        <time>2018-09-01T08:55:08Z</time>
      </trkpt>
      <trkpt lat="45.98232" lon="4.67665">
        <ele>246</ele>
        <time>2018-09-01T08:55:11Z</time>
      </trkpt>
      <trkpt lat="45.98232" lon="4.67662">
        <ele>246</ele>
        <time>2018-09-01T08:55:12Z</time>
      </trkpt>
      <trkpt lat="45.98229" lon="4.67652">
        <ele>246</ele>
        <time>2018-09-01T08:55:15Z</time>
      </trkpt>
      <trkpt lat="45.98228" lon="4.67649">
        <ele>246</ele>
        <time>2018-09-01T08:55:16Z</time>
      </trkpt>
      <trkpt lat="45.98224" lon="4.6764">
        <ele>246</ele>
        <time>2018-09-01T08:55:19Z</time>
      </trkpt>
      <trkpt lat="45.98223" lon="4.67637">
        <ele>246</ele>
        <time>2018-09-01T08:55:20Z</time>
      </trkpt>
      <trkpt lat="45.9822" lon="4.67626">
        <ele>246</ele>
        <time>2018-09-01T08:55:23Z</time>
      </trkpt>
      <trkpt lat="45.98219" lon="4.67622">
        <ele>246</ele>
        <time>2018-09-01T08:55:24Z</time>
      </trkpt>
      <trkpt lat="45.98217" lon="4.67611">
        <ele>246</ele>
        <time>2018-09-01T08:55:27Z</time>
      </trkpt>
      <trkpt lat="45.98216" lon="4.67608">
        <ele>246</ele>
        <time>2018-09-01T08:55:28Z</time>
      </trkpt>
      <trkpt lat="45.98215" lon="4.67598">
        <ele>246</ele>
        <time>2018-09-01T08:55:31Z</time>
      </trkpt>
      <trkpt lat="45.98215" lon="4.67594">
        <ele>246</ele>
        <time>2018-09-01T08:55:32Z</time>
      </trkpt>
      <trkpt lat="45.98214" lon="4.67583">
        <ele>247</ele>
        <time>2018-09-01T08:55:35Z</time>
      </trkpt>
      <trkpt lat="45.98213" lon="4.6758">
        <ele>247</ele>
        <time>2018-09-01T08:55:36Z</time>
      </trkpt>
      <trkpt lat="45.98212" lon="4.67568">
        <ele>247</ele>
        <time>2018-09-01T08:55:39Z</time>
      </trkpt>
      <trkpt lat="45.98211" lon="4.67566">
        <ele>247</ele>
        <time>2018-09-01T08:55:40Z</time>
      </trkpt>
      <trkpt lat="45.98211" lon="4.67553">
        <ele>247</ele>
        <time>2018-09-01T08:55:42Z</time>
      </trkpt>
      <trkpt lat="45.9821" lon="4.67548">
        <ele>247</ele>
        <time>2018-09-01T08:55:43Z</time>
      </trkpt>
      <trkpt lat="45.9821" lon="4.67539">
        <ele>247</ele>
        <time>2018-09-01T08:55:45Z</time>
      </trkpt>
      <trkpt lat="45.98209" lon="4.67535">
        <ele>247</ele>
        <time>2018-09-01T08:55:46Z</time>
      </trkpt>
      <trkpt lat="45.98208" lon="4.67526">
        <ele>247</ele>
        <time>2018-09-01T08:55:48Z</time>
      </trkpt>
      <trkpt lat="45.98207" lon="4.67522">
        <ele>247</ele>
        <time>2018-09-01T08:55:49Z</time>
      </trkpt>
      <trkpt lat="45.98206" lon="4.67513">
        <ele>247</ele>
        <time>2018-09-01T08:55:51Z</time>
      </trkpt>
      <trkpt lat="45.98206" lon="4.67508">
        <ele>247</ele>
        <time>2018-09-01T08:55:52Z</time>
      </trkpt>
      <trkpt lat="45.98205" lon="4.67498">
        <ele>247</ele>
        <time>2018-09-01T08:55:54Z</time>
      </trkpt>
      <trkpt lat="45.98204" lon="4.67493">
        <ele>247</ele>
        <time>2018-09-01T08:55:55Z</time>
      </trkpt>
      <trkpt lat="45.98204" lon="4.67483">
        <ele>247</ele>
        <time>2018-09-01T08:55:57Z</time>
      </trkpt>
      <trkpt lat="45.98203" lon="4.67467">
        <ele>247</ele>
        <time>2018-09-01T08:55:58Z</time>
      </trkpt>
      <trkpt lat="45.98204" lon="4.67455">
        <ele>247</ele>
        <time>2018-09-01T08:56:01Z</time>
      </trkpt>
      <trkpt lat="45.98204" lon="4.67452">
        <ele>247</ele>
        <time>2018-09-01T08:56:02Z</time>
      </trkpt>
      <trkpt lat="45.98204" lon="4.67442">
        <ele>247</ele>
        <time>2018-09-01T08:56:03Z</time>
      </trkpt>
      <trkpt lat="45.98204" lon="4.67437">
        <ele>247</ele>
        <time>2018-09-01T08:56:04Z</time>
      </trkpt>
      <trkpt lat="45.98203" lon="4.67427">
        <ele>247</ele>
        <time>2018-09-01T08:56:06Z</time>
      </trkpt>
      <trkpt lat="45.98203" lon="4.67422">
        <ele>247</ele>
        <time>2018-09-01T08:56:07Z</time>
      </trkpt>
      <trkpt lat="45.98202" lon="4.67411">
        <ele>248</ele>
        <time>2018-09-01T08:56:09Z</time>
      </trkpt>
      <trkpt lat="45.98202" lon="4.67406">
        <ele>248</ele>
        <time>2018-09-01T08:56:10Z</time>
      </trkpt>
      <trkpt lat="45.98201" lon="4.67395">
        <ele>248</ele>
        <time>2018-09-01T08:56:13Z</time>
      </trkpt>
      <trkpt lat="45.98201" lon="4.67391">
        <ele>248</ele>
        <time>2018-09-01T08:56:14Z</time>
      </trkpt>
      <trkpt lat="45.98201" lon="4.67379">
        <ele>248</ele>
        <time>2018-09-01T08:56:17Z</time>
      </trkpt>
      <trkpt lat="45.98201" lon="4.67375">
        <ele>248</ele>
        <time>2018-09-01T08:56:18Z</time>
      </trkpt>
      <trkpt lat="45.98201" lon="4.67371">
        <ele>248</ele>
        <time>2018-09-01T08:56:19Z</time>
      </trkpt>
      <trkpt lat="45.982" lon="4.67357">
        <ele>248</ele>
        <time>2018-09-01T08:56:20Z</time>
      </trkpt>
      <trkpt lat="45.98199" lon="4.67347">
        <ele>248</ele>
        <time>2018-09-01T08:56:22Z</time>
      </trkpt>
      <trkpt lat="45.98199" lon="4.67341">
        <ele>248</ele>
        <time>2018-09-01T08:56:23Z</time>
      </trkpt>
      <trkpt lat="45.982" lon="4.6733">
        <ele>249</ele>
        <time>2018-09-01T08:56:25Z</time>
      </trkpt>
      <trkpt lat="45.982" lon="4.67325">
        <ele>249</ele>
        <time>2018-09-01T08:56:26Z</time>
      </trkpt>
      <trkpt lat="45.982" lon="4.67315">
        <ele>249</ele>
        <time>2018-09-01T08:56:28Z</time>
      </trkpt>
      <trkpt lat="45.982" lon="4.67309">
        <ele>249</ele>
        <time>2018-09-01T08:56:29Z</time>
      </trkpt>
      <trkpt lat="45.98199" lon="4.67296">
        <ele>249</ele>
        <time>2018-09-01T08:56:33Z</time>
      </trkpt>
      <trkpt lat="45.98199" lon="4.67293">
        <ele>249</ele>
        <time>2018-09-01T08:56:34Z</time>
      </trkpt>
      <trkpt lat="45.98197" lon="4.67281">
        <ele>249</ele>
        <time>2018-09-01T08:56:37Z</time>
      </trkpt>
      <trkpt lat="45.98197" lon="4.67276">
        <ele>249</ele>
        <time>2018-09-01T08:56:38Z</time>
      </trkpt>
      <trkpt lat="45.98196" lon="4.67272">
        <ele>250</ele>
        <time>2018-09-01T08:56:39Z</time>
      </trkpt>
      <trkpt lat="45.98194" lon="4.67258">
        <ele>250</ele>
        <time>2018-09-01T08:56:40Z</time>
      </trkpt>
      <trkpt lat="45.98194" lon="4.67252">
        <ele>250</ele>
        <time>2018-09-01T08:56:42Z</time>
      </trkpt>
      <trkpt lat="45.98193" lon="4.67243">
        <ele>250</ele>
        <time>2018-09-01T08:56:43Z</time>
      </trkpt>
      <trkpt lat="45.98192" lon="4.67232">
        <ele>250</ele>
        <time>2018-09-01T08:56:45Z</time>
      </trkpt>
      <trkpt lat="45.98191" lon="4.67226">
        <ele>250</ele>
        <time>2018-09-01T08:56:46Z</time>
      </trkpt>
      <trkpt lat="45.98189" lon="4.67216">
        <ele>250</ele>
        <time>2018-09-01T08:56:48Z</time>
      </trkpt>
      <trkpt lat="45.98188" lon="4.67211">
        <ele>250</ele>
        <time>2018-09-01T08:56:49Z</time>
      </trkpt>
      <trkpt lat="45.98186" lon="4.67201">
        <ele>250</ele>
        <time>2018-09-01T08:56:51Z</time>
      </trkpt>
      <trkpt lat="45.98185" lon="4.67196">
        <ele>250</ele>
        <time>2018-09-01T08:56:52Z</time>
      </trkpt>
      <trkpt lat="45.98183" lon="4.67186">
        <ele>250</ele>
        <time>2018-09-01T08:56:54Z</time>
      </trkpt>
      <trkpt lat="45.98182" lon="4.67181">
        <ele>250</ele>
        <time>2018-09-01T08:56:55Z</time>
      </trkpt>
      <trkpt lat="45.98179" lon="4.67171">
        <ele>251</ele>
        <time>2018-09-01T08:56:57Z</time>
      </trkpt>
      <trkpt lat="45.98179" lon="4.67169">
        <ele>251</ele>
        <time>2018-09-01T08:56:58Z</time>
      </trkpt>
      <trkpt lat="45.98178" lon="4.67166">
        <ele>250</ele>
        <time>2018-09-01T08:56:59Z</time>
      </trkpt>
      <trkpt lat="45.98175" lon="4.67156">
        <ele>250</ele>
        <time>2018-09-01T08:57:00Z</time>
      </trkpt>
      <trkpt lat="45.98172" lon="4.67146">
        <ele>249</ele>
        <time>2018-09-01T08:57:02Z</time>
      </trkpt>
      <trkpt lat="45.9817" lon="4.67141">
        <ele>249</ele>
        <time>2018-09-01T08:57:03Z</time>
      </trkpt>
      <trkpt lat="45.98167" lon="4.67131">
        <ele>251</ele>
        <time>2018-09-01T08:57:05Z</time>
      </trkpt>
      <trkpt lat="45.98165" lon="4.67126">
        <ele>251</ele>
        <time>2018-09-01T08:57:06Z</time>
      </trkpt>
      <trkpt lat="45.98161" lon="4.67115">
        <ele>251</ele>
        <time>2018-09-01T08:57:08Z</time>
      </trkpt>
      <trkpt lat="45.9816" lon="4.6711">
        <ele>251</ele>
        <time>2018-09-01T08:57:09Z</time>
      </trkpt>
      <trkpt lat="45.98157" lon="4.67099">
        <ele>251</ele>
        <time>2018-09-01T08:57:11Z</time>
      </trkpt>
      <trkpt lat="45.98156" lon="4.67094">
        <ele>251</ele>
        <time>2018-09-01T08:57:12Z</time>
      </trkpt>
      <trkpt lat="45.98152" lon="4.67083">
        <ele>251</ele>
        <time>2018-09-01T08:57:14Z</time>
      </trkpt>
      <trkpt lat="45.9815" lon="4.67078">
        <ele>251</ele>
        <time>2018-09-01T08:57:15Z</time>
      </trkpt>
      <trkpt lat="45.98147" lon="4.67067">
        <ele>251</ele>
        <time>2018-09-01T08:57:17Z</time>
      </trkpt>
      <trkpt lat="45.98145" lon="4.67061">
        <ele>251</ele>
        <time>2018-09-01T08:57:18Z</time>
      </trkpt>
      <trkpt lat="45.98144" lon="4.67055">
        <ele>251</ele>
        <time>2018-09-01T08:57:19Z</time>
      </trkpt>
      <trkpt lat="45.98143" lon="4.67049">
        <ele>251</ele>
        <time>2018-09-01T08:57:20Z</time>
      </trkpt>
      <trkpt lat="45.98142" lon="4.67036">
        <ele>251</ele>
        <time>2018-09-01T08:57:22Z</time>
      </trkpt>
      <trkpt lat="45.9814" lon="4.6703">
        <ele>251</ele>
        <time>2018-09-01T08:57:23Z</time>
      </trkpt>
      <trkpt lat="45.9814" lon="4.67019">
        <ele>251</ele>
        <time>2018-09-01T08:57:25Z</time>
      </trkpt>
      <trkpt lat="45.9814" lon="4.67013">
        <ele>251</ele>
        <time>2018-09-01T08:57:26Z</time>
      </trkpt>
      <trkpt lat="45.98142" lon="4.67002">
        <ele>251</ele>
        <time>2018-09-01T08:57:28Z</time>
      </trkpt>
      <trkpt lat="45.98141" lon="4.66995">
        <ele>253</ele>
        <time>2018-09-01T08:57:29Z</time>
      </trkpt>
      <trkpt lat="45.98141" lon="4.66985">
        <ele>253</ele>
        <time>2018-09-01T08:57:31Z</time>
      </trkpt>
      <trkpt lat="45.98141" lon="4.6698">
        <ele>253</ele>
        <time>2018-09-01T08:57:32Z</time>
      </trkpt>
      <trkpt lat="45.9814" lon="4.66971">
        <ele>253</ele>
        <time>2018-09-01T08:57:33Z</time>
      </trkpt>
      <trkpt lat="45.9814" lon="4.66964">
        <ele>253</ele>
        <time>2018-09-01T08:57:34Z</time>
      </trkpt>
      <trkpt lat="45.98141" lon="4.66953">
        <ele>253</ele>
        <time>2018-09-01T08:57:36Z</time>
      </trkpt>
      <trkpt lat="45.98141" lon="4.66947">
        <ele>253</ele>
        <time>2018-09-01T08:57:37Z</time>
      </trkpt>
      <trkpt lat="45.98139" lon="4.66936">
        <ele>253</ele>
        <time>2018-09-01T08:57:39Z</time>
      </trkpt>
      <trkpt lat="45.9814" lon="4.6693">
        <ele>253</ele>
        <time>2018-09-01T08:57:40Z</time>
      </trkpt>
      <trkpt lat="45.9814" lon="4.66919">
        <ele>253</ele>
        <time>2018-09-01T08:57:42Z</time>
      </trkpt>
      <trkpt lat="45.98141" lon="4.66914">
        <ele>254</ele>
        <time>2018-09-01T08:57:43Z</time>
      </trkpt>
      <trkpt lat="45.98142" lon="4.66904">
        <ele>254</ele>
        <time>2018-09-01T08:57:45Z</time>
      </trkpt>
      <trkpt lat="45.98142" lon="4.66898">
        <ele>254</ele>
        <time>2018-09-01T08:57:46Z</time>
      </trkpt>
      <trkpt lat="45.9814" lon="4.66888">
        <ele>254</ele>
        <time>2018-09-01T08:57:48Z</time>
      </trkpt>
      <trkpt lat="45.98139" lon="4.66882">
        <ele>254</ele>
        <time>2018-09-01T08:57:49Z</time>
      </trkpt>
      <trkpt lat="45.98137" lon="4.66871">
        <ele>254</ele>
        <time>2018-09-01T08:57:51Z</time>
      </trkpt>
      <trkpt lat="45.98136" lon="4.66866">
        <ele>254</ele>
        <time>2018-09-01T08:57:52Z</time>
      </trkpt>
      <trkpt lat="45.98134" lon="4.66855">
        <ele>254</ele>
        <time>2018-09-01T08:57:54Z</time>
      </trkpt>
      <trkpt lat="45.98133" lon="4.6685">
        <ele>254</ele>
        <time>2018-09-01T08:57:55Z</time>
      </trkpt>
      <trkpt lat="45.98132" lon="4.66843">
        <ele>254</ele>
        <time>2018-09-01T08:57:57Z</time>
      </trkpt>
      <trkpt lat="45.98131" lon="4.66835">
        <ele>254</ele>
        <time>2018-09-01T08:57:58Z</time>
      </trkpt>
      <trkpt lat="45.9813" lon="4.66824">
        <ele>254</ele>
        <time>2018-09-01T08:58:00Z</time>
      </trkpt>
      <trkpt lat="45.98129" lon="4.66819">
        <ele>254</ele>
        <time>2018-09-01T08:58:01Z</time>
      </trkpt>
      <trkpt lat="45.98127" lon="4.66809">
        <ele>254</ele>
        <time>2018-09-01T08:58:03Z</time>
      </trkpt>
      <trkpt lat="45.98126" lon="4.66803">
        <ele>254</ele>
        <time>2018-09-01T08:58:04Z</time>
      </trkpt>
      <trkpt lat="45.98124" lon="4.66793">
        <ele>255</ele>
        <time>2018-09-01T08:58:06Z</time>
      </trkpt>
      <trkpt lat="45.98123" lon="4.66788">
        <ele>255</ele>
        <time>2018-09-01T08:58:07Z</time>
      </trkpt>
      <trkpt lat="45.98121" lon="4.66777">
        <ele>255</ele>
        <time>2018-09-01T08:58:09Z</time>
      </trkpt>
      <trkpt lat="45.9812" lon="4.66772">
        <ele>255</ele>
        <time>2018-09-01T08:58:10Z</time>
      </trkpt>
      <trkpt lat="45.98119" lon="4.66762">
        <ele>255</ele>
        <time>2018-09-01T08:58:12Z</time>
      </trkpt>
      <trkpt lat="45.98118" lon="4.66757">
        <ele>255</ele>
        <time>2018-09-01T08:58:13Z</time>
      </trkpt>
      <trkpt lat="45.98116" lon="4.66746">
        <ele>256</ele>
        <time>2018-09-01T08:58:16Z</time>
      </trkpt>
      <trkpt lat="45.98116" lon="4.66743">
        <ele>256</ele>
        <time>2018-09-01T08:58:17Z</time>
      </trkpt>
      <trkpt lat="45.98113" lon="4.66732">
        <ele>256</ele>
        <time>2018-09-01T08:58:20Z</time>
      </trkpt>
      <trkpt lat="45.98113" lon="4.66728">
        <ele>256</ele>
        <time>2018-09-01T08:58:21Z</time>
      </trkpt>
      <trkpt lat="45.98111" lon="4.6672">
        <ele>257</ele>
        <time>2018-09-01T08:58:23Z</time>
      </trkpt>
      <trkpt lat="45.9811" lon="4.66715">
        <ele>257</ele>
        <time>2018-09-01T08:58:24Z</time>
      </trkpt>
      <trkpt lat="45.98108" lon="4.66705">
        <ele>257</ele>
        <time>2018-09-01T08:58:26Z</time>
      </trkpt>
      <trkpt lat="45.98107" lon="4.66701">
        <ele>257</ele>
        <time>2018-09-01T08:58:27Z</time>
      </trkpt>
      <trkpt lat="45.98105" lon="4.66691">
        <ele>257</ele>
        <time>2018-09-01T08:58:29Z</time>
      </trkpt>
      <trkpt lat="45.98104" lon="4.66686">
        <ele>257</ele>
        <time>2018-09-01T08:58:30Z</time>
      </trkpt>
      <trkpt lat="45.98102" lon="4.66676">
        <ele>258</ele>
        <time>2018-09-01T08:58:32Z</time>
      </trkpt>
      <trkpt lat="45.98101" lon="4.66671">
        <ele>258</ele>
        <time>2018-09-01T08:58:33Z</time>
      </trkpt>
      <trkpt lat="45.98099" lon="4.66662">
        <ele>259</ele>
        <time>2018-09-01T08:58:35Z</time>
      </trkpt>
      <trkpt lat="45.98098" lon="4.66657">
        <ele>259</ele>
        <time>2018-09-01T08:58:36Z</time>
      </trkpt>
      <trkpt lat="45.98095" lon="4.66647">
        <ele>259</ele>
        <time>2018-09-01T08:58:38Z</time>
      </trkpt>
      <trkpt lat="45.98093" lon="4.66643">
        <ele>259</ele>
        <time>2018-09-01T08:58:39Z</time>
      </trkpt>
      <trkpt lat="45.9809" lon="4.66634">
        <ele>259</ele>
        <time>2018-09-01T08:58:41Z</time>
      </trkpt>
      <trkpt lat="45.98088" lon="4.6663">
        <ele>259</ele>
        <time>2018-09-01T08:58:42Z</time>
      </trkpt>
      <trkpt lat="45.98086" lon="4.66621">
        <ele>260</ele>
        <time>2018-09-01T08:58:44Z</time>
      </trkpt>
      <trkpt lat="45.98085" lon="4.66616">
        <ele>260</ele>
        <time>2018-09-01T08:58:45Z</time>
      </trkpt>
      <trkpt lat="45.98083" lon="4.66604">
        <ele>262</ele>
        <time>2018-09-01T08:58:48Z</time>
      </trkpt>
      <trkpt lat="45.98082" lon="4.666">
        <ele>262</ele>
        <time>2018-09-01T08:58:49Z</time>
      </trkpt>
      <trkpt lat="45.98081" lon="4.66588">
        <ele>262</ele>
        <time>2018-09-01T08:58:52Z</time>
      </trkpt>
      <trkpt lat="45.9808" lon="4.66584">
        <ele>262</ele>
        <time>2018-09-01T08:58:53Z</time>
      </trkpt>
      <trkpt lat="45.9808" lon="4.66572">
        <ele>263</ele>
        <time>2018-09-01T08:58:56Z</time>
      </trkpt>
      <trkpt lat="45.9808" lon="4.66567">
        <ele>263</ele>
        <time>2018-09-01T08:58:57Z</time>
      </trkpt>
      <trkpt lat="45.98079" lon="4.66555">
        <ele>264</ele>
        <time>2018-09-01T08:59:00Z</time>
      </trkpt>
      <trkpt lat="45.98078" lon="4.6655">
        <ele>264</ele>
        <time>2018-09-01T08:59:01Z</time>
      </trkpt>
      <trkpt lat="45.98076" lon="4.66541">
        <ele>264</ele>
        <time>2018-09-01T08:59:03Z</time>
      </trkpt>
      <trkpt lat="45.98076" lon="4.66536">
        <ele>264</ele>
        <time>2018-09-01T08:59:04Z</time>
      </trkpt>
      <trkpt lat="45.98075" lon="4.66527">
        <ele>264</ele>
        <time>2018-09-01T08:59:06Z</time>
      </trkpt>
      <trkpt lat="45.98074" lon="4.66523">
        <ele>264</ele>
        <time>2018-09-01T08:59:07Z</time>
      </trkpt>
      <trkpt lat="45.98074" lon="4.66514">
        <ele>265</ele>
        <time>2018-09-01T08:59:09Z</time>
      </trkpt>
      <trkpt lat="45.98074" lon="4.6651">
        <ele>265</ele>
        <time>2018-09-01T08:59:10Z</time>
      </trkpt>
      <trkpt lat="45.98074" lon="4.66501">
        <ele>265</ele>
        <time>2018-09-01T08:59:12Z</time>
      </trkpt>
      <trkpt lat="45.98074" lon="4.66497">
        <ele>265</ele>
        <time>2018-09-01T08:59:13Z</time>
      </trkpt>
      <trkpt lat="45.98073" lon="4.66488">
        <ele>265</ele>
        <time>2018-09-01T08:59:15Z</time>
      </trkpt>
      <trkpt lat="45.98073" lon="4.66483">
        <ele>265</ele>
        <time>2018-09-01T08:59:16Z</time>
      </trkpt>
      <trkpt lat="45.98072" lon="4.6647">
        <ele>266</ele>
        <time>2018-09-01T08:59:19Z</time>
      </trkpt>
      <trkpt lat="45.98072" lon="4.66466">
        <ele>266</ele>
        <time>2018-09-01T08:59:20Z</time>
      </trkpt>
      <trkpt lat="45.98071" lon="4.66456">
        <ele>266</ele>
        <time>2018-09-01T08:59:22Z</time>
      </trkpt>
      <trkpt lat="45.9807" lon="4.66452">
        <ele>266</ele>
        <time>2018-09-01T08:59:23Z</time>
      </trkpt>
      <trkpt lat="45.98068" lon="4.6644">
        <ele>266</ele>
        <time>2018-09-01T08:59:26Z</time>
      </trkpt>
      <trkpt lat="45.98067" lon="4.66436">
        <ele>266</ele>
        <time>2018-09-01T08:59:27Z</time>
      </trkpt>
      <trkpt lat="45.98065" lon="4.66427">
        <ele>266</ele>
        <time>2018-09-01T08:59:29Z</time>
      </trkpt>
      <trkpt lat="45.98064" lon="4.66423">
        <ele>266</ele>
        <time>2018-09-01T08:59:30Z</time>
      </trkpt>
      <trkpt lat="45.98062" lon="4.66414">
        <ele>266</ele>
        <time>2018-09-01T08:59:32Z</time>
      </trkpt>
      <trkpt lat="45.98061" lon="4.66409">
        <ele>266</ele>
        <time>2018-09-01T08:59:33Z</time>
      </trkpt>
      <trkpt lat="45.98058" lon="4.664">
        <ele>266</ele>
        <time>2018-09-01T08:59:35Z</time>
      </trkpt>
      <trkpt lat="45.98057" lon="4.66395">
        <ele>267</ele>
        <time>2018-09-01T08:59:36Z</time>
      </trkpt>
      <trkpt lat="45.98054" lon="4.66386">
        <ele>267</ele>
        <time>2018-09-01T08:59:38Z</time>
      </trkpt>
      <trkpt lat="45.98053" lon="4.66382">
        <ele>267</ele>
        <time>2018-09-01T08:59:39Z</time>
      </trkpt>
      <trkpt lat="45.98048" lon="4.66368">
        <ele>267</ele>
        <time>2018-09-01T08:59:40Z</time>
      </trkpt>
      <trkpt lat="45.98044" lon="4.6636">
        <ele>267</ele>
        <time>2018-09-01T08:59:43Z</time>
      </trkpt>
      <trkpt lat="45.98043" lon="4.66357">
        <ele>267</ele>
        <time>2018-09-01T08:59:44Z</time>
      </trkpt>
      <trkpt lat="45.9804" lon="4.66349">
        <ele>267</ele>
        <time>2018-09-01T08:59:46Z</time>
      </trkpt>
      <trkpt lat="45.98038" lon="4.66345">
        <ele>267</ele>
        <time>2018-09-01T08:59:47Z</time>
      </trkpt>
      <trkpt lat="45.98035" lon="4.66337">
        <ele>267</ele>
        <time>2018-09-01T08:59:49Z</time>
      </trkpt>
      <trkpt lat="45.98033" lon="4.66334">
        <ele>267</ele>
        <time>2018-09-01T08:59:50Z</time>
      </trkpt>
      <trkpt lat="45.98029" lon="4.66323">
        <ele>268</ele>
        <time>2018-09-01T08:59:53Z</time>
      </trkpt>
      <trkpt lat="45.98027" lon="4.66319">
        <ele>268</ele>
        <time>2018-09-01T08:59:54Z</time>
      </trkpt>
      <trkpt lat="45.98023" lon="4.66313">
        <ele>268</ele>
        <time>2018-09-01T08:59:56Z</time>
      </trkpt>
      <trkpt lat="45.98021" lon="4.66309">
        <ele>268</ele>
        <time>2018-09-01T08:59:57Z</time>
      </trkpt>
      <trkpt lat="45.98016" lon="4.66303">
        <ele>268</ele>
        <time>2018-09-01T08:59:59Z</time>
      </trkpt>
      <trkpt lat="45.98013" lon="4.663">
        <ele>268</ele>
        <time>2018-09-01T09:00:00Z</time>
      </trkpt>
      <trkpt lat="45.9801" lon="4.66297">
        <ele>268</ele>
        <time>2018-09-01T09:00:01Z</time>
      </trkpt>
      <trkpt lat="45.98002" lon="4.66289">
        <ele>268</ele>
        <time>2018-09-01T09:00:02Z</time>
      </trkpt>
      <trkpt lat="45.97996" lon="4.66282">
        <ele>270</ele>
        <time>2018-09-01T09:00:04Z</time>
      </trkpt>
      <trkpt lat="45.97993" lon="4.66279">
        <ele>270</ele>
        <time>2018-09-01T09:00:05Z</time>
      </trkpt>
      <trkpt lat="45.97987" lon="4.66272">
        <ele>270</ele>
        <time>2018-09-01T09:00:07Z</time>
      </trkpt>
      <trkpt lat="45.97984" lon="4.66268">
        <ele>270</ele>
        <time>2018-09-01T09:00:08Z</time>
      </trkpt>
      <trkpt lat="45.9798" lon="4.66264">
        <ele>270</ele>
        <time>2018-09-01T09:00:10Z</time>
      </trkpt>
      <trkpt lat="45.97975" lon="4.66258">
        <ele>270</ele>
        <time>2018-09-01T09:00:11Z</time>
      </trkpt>
      <trkpt lat="45.97969" lon="4.66251">
        <ele>270</ele>
        <time>2018-09-01T09:00:13Z</time>
      </trkpt>
      <trkpt lat="45.97966" lon="4.66247">
        <ele>270</ele>
        <time>2018-09-01T09:00:14Z</time>
      </trkpt>
      <trkpt lat="45.97961" lon="4.66238">
        <ele>270</ele>
        <time>2018-09-01T09:00:16Z</time>
      </trkpt>
      <trkpt lat="45.97959" lon="4.66233">
        <ele>270</ele>
        <time>2018-09-01T09:00:17Z</time>
      </trkpt>
      <trkpt lat="45.97956" lon="4.66223">
        <ele>270</ele>
        <time>2018-09-01T09:00:19Z</time>
      </trkpt>
      <trkpt lat="45.97954" lon="4.66217">
        <ele>270</ele>
        <time>2018-09-01T09:00:20Z</time>
      </trkpt>
      <trkpt lat="45.97953" lon="4.66211">
        <ele>270</ele>
        <time>2018-09-01T09:00:21Z</time>
      </trkpt>
      <trkpt lat="45.97951" lon="4.66203">
        <ele>270</ele>
        <time>2018-09-01T09:00:22Z</time>
      </trkpt>
      <trkpt lat="45.9795" lon="4.66192">
        <ele>270</ele>
        <time>2018-09-01T09:00:24Z</time>
      </trkpt>
      <trkpt lat="45.97947" lon="4.66187">
        <ele>270</ele>
        <time>2018-09-01T09:00:25Z</time>
      </trkpt>
      <trkpt lat="45.97946" lon="4.66181">
        <ele>270</ele>
        <time>2018-09-01T09:00:26Z</time>
      </trkpt>
      <trkpt lat="45.97943" lon="4.66176">
        <ele>270</ele>
        <time>2018-09-01T09:00:27Z</time>
      </trkpt>
      <trkpt lat="45.97944" lon="4.66166">
        <ele>269</ele>
        <time>2018-09-01T09:00:29Z</time>
      </trkpt>
      <trkpt lat="45.97943" lon="4.6616">
        <ele>269</ele>
        <time>2018-09-01T09:00:30Z</time>
      </trkpt>
      <trkpt lat="45.9794" lon="4.66149">
        <ele>269</ele>
        <time>2018-09-01T09:00:32Z</time>
      </trkpt>
      <trkpt lat="45.97939" lon="4.66144">
        <ele>269</ele>
        <time>2018-09-01T09:00:33Z</time>
      </trkpt>
      <trkpt lat="45.97937" lon="4.66132">
        <ele>269</ele>
        <time>2018-09-01T09:00:35Z</time>
      </trkpt>
      <trkpt lat="45.97937" lon="4.66126">
        <ele>269</ele>
        <time>2018-09-01T09:00:36Z</time>
      </trkpt>
      <trkpt lat="45.97935" lon="4.66116">
        <ele>269</ele>
        <time>2018-09-01T09:00:38Z</time>
      </trkpt>
      <trkpt lat="45.97934" lon="4.6611">
        <ele>269</ele>
        <time>2018-09-01T09:00:39Z</time>
      </trkpt>
      <trkpt lat="45.97932" lon="4.66098">
        <ele>270</ele>
        <time>2018-09-01T09:00:41Z</time>
      </trkpt>
      <trkpt lat="45.97931" lon="4.66092">
        <ele>270</ele>
        <time>2018-09-01T09:00:42Z</time>
      </trkpt>
      <trkpt lat="45.97931" lon="4.6608">
        <ele>270</ele>
        <time>2018-09-01T09:00:44Z</time>
      </trkpt>
      <trkpt lat="45.9793" lon="4.66074">
        <ele>270</ele>
        <time>2018-09-01T09:00:45Z</time>
      </trkpt>
      <trkpt lat="45.9793" lon="4.66063">
        <ele>270</ele>
        <time>2018-09-01T09:00:47Z</time>
      </trkpt>
      <trkpt lat="45.9793" lon="4.66057">
        <ele>270</ele>
        <time>2018-09-01T09:00:48Z</time>
      </trkpt>
      <trkpt lat="45.9793" lon="4.66046">
        <ele>270</ele>
        <time>2018-09-01T09:00:50Z</time>
      </trkpt>
      <trkpt lat="45.97929" lon="4.6604">
        <ele>270</ele>
        <time>2018-09-01T09:00:51Z</time>
      </trkpt>
      <trkpt lat="45.9793" lon="4.66028">
        <ele>270</ele>
        <time>2018-09-01T09:00:53Z</time>
      </trkpt>
      <trkpt lat="45.9793" lon="4.66022">
        <ele>270</ele>
        <time>2018-09-01T09:00:54Z</time>
      </trkpt>
      <trkpt lat="45.97931" lon="4.66011">
        <ele>271</ele>
        <time>2018-09-01T09:00:56Z</time>
      </trkpt>
      <trkpt lat="45.97931" lon="4.66004">
        <ele>271</ele>
        <time>2018-09-01T09:00:57Z</time>
      </trkpt>
      <trkpt lat="45.97931" lon="4.65995">
        <ele>272</ele>
        <time>2018-09-01T09:00:59Z</time>
      </trkpt>
      <trkpt lat="45.97931" lon="4.6599">
        <ele>272</ele>
        <time>2018-09-01T09:01:00Z</time>
      </trkpt>
      <trkpt lat="45.97932" lon="4.65979">
        <ele>272</ele>
        <time>2018-09-01T09:01:02Z</time>
      </trkpt>
      <trkpt lat="45.97931" lon="4.65973">
        <ele>272</ele>
        <time>2018-09-01T09:01:03Z</time>
      </trkpt>
      <trkpt lat="45.9793" lon="4.6596">
        <ele>272</ele>
        <time>2018-09-01T09:01:05Z</time>
      </trkpt>
      <trkpt lat="45.9793" lon="4.65954">
        <ele>273</ele>
        <time>2018-09-01T09:01:06Z</time>
      </trkpt>
      <trkpt lat="45.9793" lon="4.65942">
        <ele>273</ele>
        <time>2018-09-01T09:01:08Z</time>
      </trkpt>
      <trkpt lat="45.9793" lon="4.65937">
        <ele>274</ele>
        <time>2018-09-01T09:01:09Z</time>
      </trkpt>
      <trkpt lat="45.97929" lon="4.65926">
        <ele>274</ele>
        <time>2018-09-01T09:01:11Z</time>
      </trkpt>
      <trkpt lat="45.97929" lon="4.6592">
        <ele>275</ele>
        <time>2018-09-01T09:01:12Z</time>
      </trkpt>
      <trkpt lat="45.97928" lon="4.65909">
        <ele>276</ele>
        <time>2018-09-01T09:01:14Z</time>
      </trkpt>
      <trkpt lat="45.97928" lon="4.65904">
        <ele>276</ele>
        <time>2018-09-01T09:01:15Z</time>
      </trkpt>
      <trkpt lat="45.97926" lon="4.65894">
        <ele>276</ele>
        <time>2018-09-01T09:01:17Z</time>
      </trkpt>
      <trkpt lat="45.97925" lon="4.65888">
        <ele>276</ele>
        <time>2018-09-01T09:01:18Z</time>
      </trkpt>
      <trkpt lat="45.97923" lon="4.65881">
        <ele>276</ele>
        <time>2018-09-01T09:01:20Z</time>
      </trkpt>
      <trkpt lat="45.97921" lon="4.65874">
        <ele>276</ele>
        <time>2018-09-01T09:01:21Z</time>
      </trkpt>
      <trkpt lat="45.97918" lon="4.65864">
        <ele>276</ele>
        <time>2018-09-01T09:01:24Z</time>
      </trkpt>
      <trkpt lat="45.97916" lon="4.65861">
        <ele>277</ele>
        <time>2018-09-01T09:01:25Z</time>
      </trkpt>
      <trkpt lat="45.97913" lon="4.6585">
        <ele>277</ele>
        <time>2018-09-01T09:01:28Z</time>
      </trkpt>
      <trkpt lat="45.9791" lon="4.65838">
        <ele>277</ele>
        <time>2018-09-01T09:01:29Z</time>
      </trkpt>
      <trkpt lat="45.97906" lon="4.65829">
        <ele>278</ele>
        <time>2018-09-01T09:01:31Z</time>
      </trkpt>
      <trkpt lat="45.97905" lon="4.65824">
        <ele>277</ele>
        <time>2018-09-01T09:01:32Z</time>
      </trkpt>
      <trkpt lat="45.97902" lon="4.65819">
        <ele>277</ele>
        <time>2018-09-01T09:01:34Z</time>
      </trkpt>
      <trkpt lat="45.97899" lon="4.65812">
        <ele>277</ele>
        <time>2018-09-01T09:01:35Z</time>
      </trkpt>
      <trkpt lat="45.97895" lon="4.65803">
        <ele>277</ele>
        <time>2018-09-01T09:01:37Z</time>
      </trkpt>
      <trkpt lat="45.97893" lon="4.65798">
        <ele>277</ele>
        <time>2018-09-01T09:01:38Z</time>
      </trkpt>
      <trkpt lat="45.97889" lon="4.65789">
        <ele>277</ele>
        <time>2018-09-01T09:01:40Z</time>
      </trkpt>
      <trkpt lat="45.97888" lon="4.65784">
        <ele>277</ele>
        <time>2018-09-01T09:01:41Z</time>
      </trkpt>
      <trkpt lat="45.97885" lon="4.65774">
        <ele>277</ele>
        <time>2018-09-01T09:01:43Z</time>
      </trkpt>
      <trkpt lat="45.97884" lon="4.65769">
        <ele>277</ele>
        <time>2018-09-01T09:01:44Z</time>
      </trkpt>
      <trkpt lat="45.9788" lon="4.65759">
        <ele>277</ele>
        <time>2018-09-01T09:01:46Z</time>
      </trkpt>
      <trkpt lat="45.97879" lon="4.65754">
        <ele>277</ele>
        <time>2018-09-01T09:01:47Z</time>
      </trkpt>
      <trkpt lat="45.97875" lon="4.65743">
        <ele>278</ele>
        <time>2018-09-01T09:01:49Z</time>
      </trkpt>
      <trkpt lat="45.97873" lon="4.65737">
        <ele>278</ele>
        <time>2018-09-01T09:01:50Z</time>
      </trkpt>
      <trkpt lat="45.9787" lon="4.65727">
        <ele>278</ele>
        <time>2018-09-01T09:01:52Z</time>
      </trkpt>
      <trkpt lat="45.97868" lon="4.65721">
        <ele>278</ele>
        <time>2018-09-01T09:01:53Z</time>
      </trkpt>
      <trkpt lat="45.97865" lon="4.65711">
        <ele>278</ele>
        <time>2018-09-01T09:01:55Z</time>
      </trkpt>
      <trkpt lat="45.97863" lon="4.65706">
        <ele>278</ele>
        <time>2018-09-01T09:01:56Z</time>
      </trkpt>
      <trkpt lat="45.9786" lon="4.65696">
        <ele>278</ele>
        <time>2018-09-01T09:01:58Z</time>
      </trkpt>
      <trkpt lat="45.97859" lon="4.6569">
        <ele>278</ele>
        <time>2018-09-01T09:01:59Z</time>
      </trkpt>
      <trkpt lat="45.97856" lon="4.65679">
        <ele>278</ele>
        <time>2018-09-01T09:02:01Z</time>
      </trkpt>
      <trkpt lat="45.97855" lon="4.65674">
        <ele>278</ele>
        <time>2018-09-01T09:02:02Z</time>
      </trkpt>
      <trkpt lat="45.97852" lon="4.65664">
        <ele>279</ele>
        <time>2018-09-01T09:02:04Z</time>
      </trkpt>
      <trkpt lat="45.97851" lon="4.65658">
        <ele>279</ele>
        <time>2018-09-01T09:02:05Z</time>
      </trkpt>
      <trkpt lat="45.97849" lon="4.65648">
        <ele>279</ele>
        <time>2018-09-01T09:02:07Z</time>
      </trkpt>
      <trkpt lat="45.97848" lon="4.65642">
        <ele>279</ele>
        <time>2018-09-01T09:02:08Z</time>
      </trkpt>
      <trkpt lat="45.97845" lon="4.65632">
        <ele>279</ele>
        <time>2018-09-01T09:02:10Z</time>
      </trkpt>
      <trkpt lat="45.97843" lon="4.65627">
        <ele>279</ele>
        <time>2018-09-01T09:02:11Z</time>
      </trkpt>
      <trkpt lat="45.9784" lon="4.65618">
        <ele>279</ele>
        <time>2018-09-01T09:02:13Z</time>
      </trkpt>
      <trkpt lat="45.97838" lon="4.65613">
        <ele>279</ele>
        <time>2018-09-01T09:02:14Z</time>
      </trkpt>
      <trkpt lat="45.97835" lon="4.65603">
        <ele>280</ele>
        <time>2018-09-01T09:02:16Z</time>
      </trkpt>
      <trkpt lat="45.97834" lon="4.65598">
        <ele>280</ele>
        <time>2018-09-01T09:02:17Z</time>
      </trkpt>
      <trkpt lat="45.9783" lon="4.65586">
        <ele>280</ele>
        <time>2018-09-01T09:02:19Z</time>
      </trkpt>
      <trkpt lat="45.97828" lon="4.65581">
        <ele>280</ele>
        <time>2018-09-01T09:02:20Z</time>
      </trkpt>
      <trkpt lat="45.97826" lon="4.65574">
        <ele>280</ele>
        <time>2018-09-01T09:02:21Z</time>
      </trkpt>
      <trkpt lat="45.97825" lon="4.65568">
        <ele>280</ele>
        <time>2018-09-01T09:02:22Z</time>
      </trkpt>
      <trkpt lat="45.97823" lon="4.65557">
        <ele>280</ele>
        <time>2018-09-01T09:02:24Z</time>
      </trkpt>
      <trkpt lat="45.97822" lon="4.65552">
        <ele>280</ele>
        <time>2018-09-01T09:02:25Z</time>
      </trkpt>
      <trkpt lat="45.9782" lon="4.65541">
        <ele>280</ele>
        <time>2018-09-01T09:02:27Z</time>
      </trkpt>
      <trkpt lat="45.97819" lon="4.65536">
        <ele>280</ele>
        <time>2018-09-01T09:02:28Z</time>
      </trkpt>
      <trkpt lat="45.97817" lon="4.65523">
        <ele>280</ele>
        <time>2018-09-01T09:02:30Z</time>
      </trkpt>
      <trkpt lat="45.97816" lon="4.65517">
        <ele>280</ele>
        <time>2018-09-01T09:02:31Z</time>
      </trkpt>
      <trkpt lat="45.97814" lon="4.65507">
        <ele>280</ele>
        <time>2018-09-01T09:02:33Z</time>
      </trkpt>
      <trkpt lat="45.97812" lon="4.65501">
        <ele>280</ele>
        <time>2018-09-01T09:02:34Z</time>
      </trkpt>
      <trkpt lat="45.9781" lon="4.6549">
        <ele>280</ele>
        <time>2018-09-01T09:02:36Z</time>
      </trkpt>
      <trkpt lat="45.97808" lon="4.65484">
        <ele>281</ele>
        <time>2018-09-01T09:02:37Z</time>
      </trkpt>
      <trkpt lat="45.97805" lon="4.65473">
        <ele>281</ele>
        <time>2018-09-01T09:02:39Z</time>
      </trkpt>
      <trkpt lat="45.97804" lon="4.65468">
        <ele>281</ele>
        <time>2018-09-01T09:02:40Z</time>
      </trkpt>
      <trkpt lat="45.97801" lon="4.65457">
        <ele>281</ele>
        <time>2018-09-01T09:02:42Z</time>
      </trkpt>
      <trkpt lat="45.97799" lon="4.65452">
        <ele>281</ele>
        <time>2018-09-01T09:02:43Z</time>
      </trkpt>
      <trkpt lat="45.97796" lon="4.65441">
        <ele>281</ele>
        <time>2018-09-01T09:02:45Z</time>
      </trkpt>
      <trkpt lat="45.97793" lon="4.65436">
        <ele>281</ele>
        <time>2018-09-01T09:02:46Z</time>
      </trkpt>
      <trkpt lat="45.9779" lon="4.65429">
        <ele>281</ele>
        <time>2018-09-01T09:02:48Z</time>
      </trkpt>
      <trkpt lat="45.97788" lon="4.65421">
        <ele>281</ele>
        <time>2018-09-01T09:02:49Z</time>
      </trkpt>
      <trkpt lat="45.97784" lon="4.65411">
        <ele>282</ele>
        <time>2018-09-01T09:02:51Z</time>
      </trkpt>
      <trkpt lat="45.97783" lon="4.65406">
        <ele>282</ele>
        <time>2018-09-01T09:02:52Z</time>
      </trkpt>
      <trkpt lat="45.97778" lon="4.65397">
        <ele>282</ele>
        <time>2018-09-01T09:02:54Z</time>
      </trkpt>
      <trkpt lat="45.97776" lon="4.65392">
        <ele>282</ele>
        <time>2018-09-01T09:02:55Z</time>
      </trkpt>
      <trkpt lat="45.97773" lon="4.6538">
        <ele>282</ele>
        <time>2018-09-01T09:02:57Z</time>
      </trkpt>
      <trkpt lat="45.97772" lon="4.65376">
        <ele>282</ele>
        <time>2018-09-01T09:02:58Z</time>
      </trkpt>
      <trkpt lat="45.97768" lon="4.65365">
        <ele>282</ele>
        <time>2018-09-01T09:03:00Z</time>
      </trkpt>
      <trkpt lat="45.97767" lon="4.6536">
        <ele>282</ele>
        <time>2018-09-01T09:03:01Z</time>
      </trkpt>
      <trkpt lat="45.97762" lon="4.6535">
        <ele>282</ele>
        <time>2018-09-01T09:03:03Z</time>
      </trkpt>
      <trkpt lat="45.97761" lon="4.65346">
        <ele>282</ele>
        <time>2018-09-01T09:03:04Z</time>
      </trkpt>
      <trkpt lat="45.97761" lon="4.65335">
        <ele>282</ele>
        <time>2018-09-01T09:03:07Z</time>
      </trkpt>
      <trkpt lat="45.97759" lon="4.6533">
        <ele>282</ele>
        <time>2018-09-01T09:03:08Z</time>
      </trkpt>
      <trkpt lat="45.97756" lon="4.65323">
        <ele>282</ele>
        <time>2018-09-01T09:03:09Z</time>
      </trkpt>
      <trkpt lat="45.9775" lon="4.65316">
        <ele>282</ele>
        <time>2018-09-01T09:03:10Z</time>
      </trkpt>
      <trkpt lat="45.97746" lon="4.65305">
        <ele>282</ele>
        <time>2018-09-01T09:03:12Z</time>
      </trkpt>
      <trkpt lat="45.97745" lon="4.65302">
        <ele>282</ele>
        <time>2018-09-01T09:03:13Z</time>
      </trkpt>
      <trkpt lat="45.97743" lon="4.65292">
        <ele>283</ele>
        <time>2018-09-01T09:03:15Z</time>
      </trkpt>
      <trkpt lat="45.9774" lon="4.65284">
        <ele>283</ele>
        <time>2018-09-01T09:03:16Z</time>
      </trkpt>
      <trkpt lat="45.97742" lon="4.65275">
        <ele>283</ele>
        <time>2018-09-01T09:03:18Z</time>
      </trkpt>
      <trkpt lat="45.97745" lon="4.65272">
        <ele>283</ele>
        <time>2018-09-01T09:03:19Z</time>
      </trkpt>
      <trkpt lat="45.97743" lon="4.65261">
        <ele>283</ele>
        <time>2018-09-01T09:03:21Z</time>
      </trkpt>
      <trkpt lat="45.97742" lon="4.65256">
        <ele>283</ele>
        <time>2018-09-01T09:03:22Z</time>
      </trkpt>
      <trkpt lat="45.9774" lon="4.65244">
        <ele>284</ele>
        <time>2018-09-01T09:03:24Z</time>
      </trkpt>
      <trkpt lat="45.97739" lon="4.65238">
        <ele>284</ele>
        <time>2018-09-01T09:03:25Z</time>
      </trkpt>
      <trkpt lat="45.97738" lon="4.65232">
        <ele>284</ele>
        <time>2018-09-01T09:03:26Z</time>
      </trkpt>
      <trkpt lat="45.97736" lon="4.65226">
        <ele>284</ele>
        <time>2018-09-01T09:03:27Z</time>
      </trkpt>
      <trkpt lat="45.97735" lon="4.65219">
        <ele>284</ele>
        <time>2018-09-01T09:03:28Z</time>
      </trkpt>
      <trkpt lat="45.97734" lon="4.65212">
        <ele>284</ele>
        <time>2018-09-01T09:03:29Z</time>
      </trkpt>
      <trkpt lat="45.97733" lon="4.65206">
        <ele>284</ele>
        <time>2018-09-01T09:03:30Z</time>
      </trkpt>
      <trkpt lat="45.97732" lon="4.65199">
        <ele>284</ele>
        <time>2018-09-01T09:03:31Z</time>
      </trkpt>
      <trkpt lat="45.97731" lon="4.65193">
        <ele>284</ele>
        <time>2018-09-01T09:03:32Z</time>
      </trkpt>
      <trkpt lat="45.97731" lon="4.65186">
        <ele>284</ele>
        <time>2018-09-01T09:03:33Z</time>
      </trkpt>
      <trkpt lat="45.97729" lon="4.65174">
        <ele>284</ele>
        <time>2018-09-01T09:03:35Z</time>
      </trkpt>
      <trkpt lat="45.97729" lon="4.65168">
        <ele>284</ele>
        <time>2018-09-01T09:03:36Z</time>
      </trkpt>
      <trkpt lat="45.97727" lon="4.65155">
        <ele>285</ele>
        <time>2018-09-01T09:03:38Z</time>
      </trkpt>
      <trkpt lat="45.97726" lon="4.65149">
        <ele>285</ele>
        <time>2018-09-01T09:03:39Z</time>
      </trkpt>
      <trkpt lat="45.97725" lon="4.65141">
        <ele>285</ele>
        <time>2018-09-01T09:03:40Z</time>
      </trkpt>
      <trkpt lat="45.97726" lon="4.65134">
        <ele>285</ele>
        <time>2018-09-01T09:03:41Z</time>
      </trkpt>
      <trkpt lat="45.97725" lon="4.65123">
        <ele>285</ele>
        <time>2018-09-01T09:03:43Z</time>
      </trkpt>
      <trkpt lat="45.97724" lon="4.65115">
        <ele>285</ele>
        <time>2018-09-01T09:03:44Z</time>
      </trkpt>
      <trkpt lat="45.97722" lon="4.65103">
        <ele>285</ele>
        <time>2018-09-01T09:03:46Z</time>
      </trkpt>
      <trkpt lat="45.97722" lon="4.65096">
        <ele>285</ele>
        <time>2018-09-01T09:03:47Z</time>
      </trkpt>
      <trkpt lat="45.9772" lon="4.65085">
        <ele>285</ele>
        <time>2018-09-01T09:03:49Z</time>
      </trkpt>
      <trkpt lat="45.97719" lon="4.65079">
        <ele>285</ele>
        <time>2018-09-01T09:03:50Z</time>
      </trkpt>
      <trkpt lat="45.97719" lon="4.65072">
        <ele>285</ele>
        <time>2018-09-01T09:03:51Z</time>
      </trkpt>
      <trkpt lat="45.97718" lon="4.65064">
        <ele>285</ele>
        <time>2018-09-01T09:03:52Z</time>
      </trkpt>
      <trkpt lat="45.97718" lon="4.65057">
        <ele>285</ele>
        <time>2018-09-01T09:03:53Z</time>
      </trkpt>
      <trkpt lat="45.97721" lon="4.65051">
        <ele>286</ele>
        <time>2018-09-01T09:03:54Z</time>
      </trkpt>
      <trkpt lat="45.97718" lon="4.65044">
        <ele>286</ele>
        <time>2018-09-01T09:03:55Z</time>
      </trkpt>
      <trkpt lat="45.97718" lon="4.65038">
        <ele>286</ele>
        <time>2018-09-01T09:03:56Z</time>
      </trkpt>
      <trkpt lat="45.97715" lon="4.65032">
        <ele>286</ele>
        <time>2018-09-01T09:03:57Z</time>
      </trkpt>
      <trkpt lat="45.97713" lon="4.65026">
        <ele>286</ele>
        <time>2018-09-01T09:03:58Z</time>
      </trkpt>
      <trkpt lat="45.97712" lon="4.65013">
        <ele>286</ele>
        <time>2018-09-01T09:04:00Z</time>
      </trkpt>
      <trkpt lat="45.97711" lon="4.65006">
        <ele>286</ele>
        <time>2018-09-01T09:04:01Z</time>
      </trkpt>
      <trkpt lat="45.97708" lon="4.64999">
        <ele>287</ele>
        <time>2018-09-01T09:04:02Z</time>
      </trkpt>
      <trkpt lat="45.97708" lon="4.64992">
        <ele>287</ele>
        <time>2018-09-01T09:04:03Z</time>
      </trkpt>
      <trkpt lat="45.97708" lon="4.64985">
        <ele>287</ele>
        <time>2018-09-01T09:04:04Z</time>
      </trkpt>
      <trkpt lat="45.97706" lon="4.64979">
        <ele>287</ele>
        <time>2018-09-01T09:04:05Z</time>
      </trkpt>
      <trkpt lat="45.97704" lon="4.64967">
        <ele>287</ele>
        <time>2018-09-01T09:04:07Z</time>
      </trkpt>
      <trkpt lat="45.97703" lon="4.64962">
        <ele>287</ele>
        <time>2018-09-01T09:04:08Z</time>
      </trkpt>
      <trkpt lat="45.977" lon="4.64952">
        <ele>287</ele>
        <time>2018-09-01T09:04:10Z</time>
      </trkpt>
      <trkpt lat="45.977" lon="4.64947">
        <ele>287</ele>
        <time>2018-09-01T09:04:11Z</time>
      </trkpt>
      <trkpt lat="45.97698" lon="4.64937">
        <ele>287</ele>
        <time>2018-09-01T09:04:13Z</time>
      </trkpt>
      <trkpt lat="45.97697" lon="4.64931">
        <ele>287</ele>
        <time>2018-09-01T09:04:14Z</time>
      </trkpt>
      <trkpt lat="45.97697" lon="4.64919">
        <ele>288</ele>
        <time>2018-09-01T09:04:17Z</time>
      </trkpt>
      <trkpt lat="45.97698" lon="4.64912">
        <ele>288</ele>
        <time>2018-09-01T09:04:18Z</time>
      </trkpt>
      <trkpt lat="45.97697" lon="4.64903">
        <ele>288</ele>
        <time>2018-09-01T09:04:20Z</time>
      </trkpt>
      <trkpt lat="45.97696" lon="4.64897">
        <ele>288</ele>
        <time>2018-09-01T09:04:21Z</time>
      </trkpt>
      <trkpt lat="45.97695" lon="4.64885">
        <ele>288</ele>
        <time>2018-09-01T09:04:25Z</time>
      </trkpt>
      <trkpt lat="45.97695" lon="4.64881">
        <ele>288</ele>
        <time>2018-09-01T09:04:26Z</time>
      </trkpt>
      <trkpt lat="45.97694" lon="4.64869">
        <ele>289</ele>
        <time>2018-09-01T09:04:27Z</time>
      </trkpt>
      <trkpt lat="45.97693" lon="4.64863">
        <ele>289</ele>
        <time>2018-09-01T09:04:28Z</time>
      </trkpt>
      <trkpt lat="45.97691" lon="4.64851">
        <ele>289</ele>
        <time>2018-09-01T09:04:31Z</time>
      </trkpt>
      <trkpt lat="45.97691" lon="4.64848">
        <ele>289</ele>
        <time>2018-09-01T09:04:32Z</time>
      </trkpt>
      <trkpt lat="45.9769" lon="4.64844">
        <ele>289</ele>
        <time>2018-09-01T09:04:33Z</time>
      </trkpt>
      <trkpt lat="45.97689" lon="4.64833">
        <ele>289</ele>
        <time>2018-09-01T09:04:34Z</time>
      </trkpt>
      <trkpt lat="45.97688" lon="4.64821">
        <ele>289</ele>
        <time>2018-09-01T09:04:38Z</time>
      </trkpt>
      <trkpt lat="45.97688" lon="4.64817">
        <ele>289</ele>
        <time>2018-09-01T09:04:39Z</time>
      </trkpt>
      <trkpt lat="45.97686" lon="4.64805">
        <ele>290</ele>
        <time>2018-09-01T09:04:42Z</time>
      </trkpt>
      <trkpt lat="45.97686" lon="4.64801">
        <ele>290</ele>
        <time>2018-09-01T09:04:43Z</time>
      </trkpt>
      <trkpt lat="45.97685" lon="4.64792">
        <ele>290</ele>
        <time>2018-09-01T09:04:45Z</time>
      </trkpt>
      <trkpt lat="45.97685" lon="4.64788">
        <ele>290</ele>
        <time>2018-09-01T09:04:46Z</time>
      </trkpt>
      <trkpt lat="45.97684" lon="4.64779">
        <ele>290</ele>
        <time>2018-09-01T09:04:48Z</time>
      </trkpt>
      <trkpt lat="45.97683" lon="4.64775">
        <ele>290</ele>
        <time>2018-09-01T09:04:49Z</time>
      </trkpt>
      <trkpt lat="45.97682" lon="4.64763">
        <ele>290</ele>
        <time>2018-09-01T09:04:52Z</time>
      </trkpt>
      <trkpt lat="45.97681" lon="4.64758">
        <ele>290</ele>
        <time>2018-09-01T09:04:53Z</time>
      </trkpt>
      <trkpt lat="45.9768" lon="4.64746">
        <ele>291</ele>
        <time>2018-09-01T09:04:56Z</time>
      </trkpt>
      <trkpt lat="45.97679" lon="4.64743">
        <ele>291</ele>
        <time>2018-09-01T09:04:57Z</time>
      </trkpt>
      <trkpt lat="45.97678" lon="4.64731">
        <ele>291</ele>
        <time>2018-09-01T09:05:00Z</time>
      </trkpt>
      <trkpt lat="45.97677" lon="4.64728">
        <ele>291</ele>
        <time>2018-09-01T09:05:01Z</time>
      </trkpt>
      <trkpt lat="45.97676" lon="4.64716">
        <ele>291</ele>
        <time>2018-09-01T09:05:04Z</time>
      </trkpt>
      <trkpt lat="45.97675" lon="4.64713">
        <ele>291</ele>
        <time>2018-09-01T09:05:05Z</time>
      </trkpt>
      <trkpt lat="45.97674" lon="4.647">
        <ele>291</ele>
        <time>2018-09-01T09:05:08Z</time>
      </trkpt>
      <trkpt lat="45.97673" lon="4.64696">
        <ele>291</ele>
        <time>2018-09-01T09:05:09Z</time>
      </trkpt>
      <trkpt lat="45.97671" lon="4.64685">
        <ele>291</ele>
        <time>2018-09-01T09:05:12Z</time>
      </trkpt>
      <trkpt lat="45.9767" lon="4.6468">
        <ele>292</ele>
        <time>2018-09-01T09:05:13Z</time>
      </trkpt>
      <trkpt lat="45.97669" lon="4.64672">
        <ele>292</ele>
        <time>2018-09-01T09:05:15Z</time>
      </trkpt>
      <trkpt lat="45.97668" lon="4.64667">
        <ele>292</ele>
        <time>2018-09-01T09:05:16Z</time>
      </trkpt>
      <trkpt lat="45.97669" lon="4.64655">
        <ele>293</ele>
        <time>2018-09-01T09:05:19Z</time>
      </trkpt>
      <trkpt lat="45.97669" lon="4.6465">
        <ele>293</ele>
        <time>2018-09-01T09:05:20Z</time>
      </trkpt>
      <trkpt lat="45.97668" lon="4.64641">
        <ele>293</ele>
        <time>2018-09-01T09:05:22Z</time>
      </trkpt>
      <trkpt lat="45.97668" lon="4.64637">
        <ele>293</ele>
        <time>2018-09-01T09:05:23Z</time>
      </trkpt>
      <trkpt lat="45.97667" lon="4.64624">
        <ele>294</ele>
        <time>2018-09-01T09:05:26Z</time>
      </trkpt>
      <trkpt lat="45.97667" lon="4.64619">
        <ele>294</ele>
        <time>2018-09-01T09:05:27Z</time>
      </trkpt>
      <trkpt lat="45.97667" lon="4.64607">
        <ele>295</ele>
        <time>2018-09-01T09:05:30Z</time>
      </trkpt>
      <trkpt lat="45.97667" lon="4.64603">
        <ele>296</ele>
        <time>2018-09-01T09:05:31Z</time>
      </trkpt>
      <trkpt lat="45.97666" lon="4.64594">
        <ele>296</ele>
        <time>2018-09-01T09:05:33Z</time>
      </trkpt>
      <trkpt lat="45.97665" lon="4.6459">
        <ele>296</ele>
        <time>2018-09-01T09:05:34Z</time>
      </trkpt>
      <trkpt lat="45.97663" lon="4.64581">
        <ele>297</ele>
        <time>2018-09-01T09:05:36Z</time>
      </trkpt>
      <trkpt lat="45.97662" lon="4.64576">
        <ele>298</ele>
        <time>2018-09-01T09:05:37Z</time>
      </trkpt>
      <trkpt lat="45.9766" lon="4.64567">
        <ele>298</ele>
        <time>2018-09-01T09:05:39Z</time>
      </trkpt>
      <trkpt lat="45.97659" lon="4.64562">
        <ele>298</ele>
        <time>2018-09-01T09:05:40Z</time>
      </trkpt>
      <trkpt lat="45.97657" lon="4.64552">
        <ele>299</ele>
        <time>2018-09-01T09:05:42Z</time>
      </trkpt>
      <trkpt lat="45.97657" lon="4.64548">
        <ele>299</ele>
        <time>2018-09-01T09:05:43Z</time>
      </trkpt>
      <trkpt lat="45.97655" lon="4.64538">
        <ele>299</ele>
        <time>2018-09-01T09:05:45Z</time>
      </trkpt>
      <trkpt lat="45.97655" lon="4.64533">
        <ele>299</ele>
        <time>2018-09-01T09:05:46Z</time>
      </trkpt>
      <trkpt lat="45.97653" lon="4.64524">
        <ele>300</ele>
        <time>2018-09-01T09:05:48Z</time>
      </trkpt>
      <trkpt lat="45.97653" lon="4.6452">
        <ele>300</ele>
        <time>2018-09-01T09:05:49Z</time>
      </trkpt>
      <trkpt lat="45.97651" lon="4.64511">
        <ele>300</ele>
        <time>2018-09-01T09:05:51Z</time>
      </trkpt>
      <trkpt lat="45.97651" lon="4.64506">
        <ele>301</ele>
        <time>2018-09-01T09:05:52Z</time>
      </trkpt>
      <trkpt lat="45.9765" lon="4.64501">
        <ele>301</ele>
        <time>2018-09-01T09:05:53Z</time>
      </trkpt>
      <trkpt lat="45.97648" lon="4.64487">
        <ele>302</ele>
        <time>2018-09-01T09:05:54Z</time>
      </trkpt>
      <trkpt lat="45.97649" lon="4.64474">
        <ele>302</ele>
        <time>2018-09-01T09:05:58Z</time>
      </trkpt>
      <trkpt lat="45.97649" lon="4.64471">
        <ele>302</ele>
        <time>2018-09-01T09:05:59Z</time>
      </trkpt>
      <trkpt lat="45.97648" lon="4.64458">
        <ele>302</ele>
        <time>2018-09-01T09:06:02Z</time>
      </trkpt>
      <trkpt lat="45.97647" lon="4.64453">
        <ele>302</ele>
        <time>2018-09-01T09:06:03Z</time>
      </trkpt>
      <trkpt lat="45.97646" lon="4.64444">
        <ele>302</ele>
        <time>2018-09-01T09:06:05Z</time>
      </trkpt>
      <trkpt lat="45.97646" lon="4.6444">
        <ele>302</ele>
        <time>2018-09-01T09:06:06Z</time>
      </trkpt>
      <trkpt lat="45.97645" lon="4.64427">
        <ele>302</ele>
        <time>2018-09-01T09:06:09Z</time>
      </trkpt>
      <trkpt lat="45.97645" lon="4.64423">
        <ele>302</ele>
        <time>2018-09-01T09:06:10Z</time>
      </trkpt>
      <trkpt lat="45.97644" lon="4.64411">
        <ele>302</ele>
        <time>2018-09-01T09:06:13Z</time>
      </trkpt>
      <trkpt lat="45.97643" lon="4.64407">
        <ele>302</ele>
        <time>2018-09-01T09:06:14Z</time>
      </trkpt>
      <trkpt lat="45.97641" lon="4.64398">
        <ele>302</ele>
        <time>2018-09-01T09:06:16Z</time>
      </trkpt>
      <trkpt lat="45.97641" lon="4.64394">
        <ele>302</ele>
        <time>2018-09-01T09:06:17Z</time>
      </trkpt>
      <trkpt lat="45.97641" lon="4.64383">
        <ele>303</ele>
        <time>2018-09-01T09:06:20Z</time>
      </trkpt>
      <trkpt lat="45.97641" lon="4.64379">
        <ele>303</ele>
        <time>2018-09-01T09:06:21Z</time>
      </trkpt>
      <trkpt lat="45.97641" lon="4.64367">
        <ele>303</ele>
        <time>2018-09-01T09:06:24Z</time>
      </trkpt>
      <trkpt lat="45.97641" lon="4.64363">
        <ele>303</ele>
        <time>2018-09-01T09:06:25Z</time>
      </trkpt>
      <trkpt lat="45.9764" lon="4.64351">
        <ele>303</ele>
        <time>2018-09-01T09:06:28Z</time>
      </trkpt>
      <trkpt lat="45.97639" lon="4.64347">
        <ele>303</ele>
        <time>2018-09-01T09:06:29Z</time>
      </trkpt>
      <trkpt lat="45.97638" lon="4.64336">
        <ele>303</ele>
        <time>2018-09-01T09:06:32Z</time>
      </trkpt>
      <trkpt lat="45.97637" lon="4.64332">
        <ele>304</ele>
        <time>2018-09-01T09:06:33Z</time>
      </trkpt>
      <trkpt lat="45.97636" lon="4.6432">
        <ele>304</ele>
        <time>2018-09-01T09:06:36Z</time>
      </trkpt>
      <trkpt lat="45.97635" lon="4.64316">
        <ele>304</ele>
        <time>2018-09-01T09:06:37Z</time>
      </trkpt>
      <trkpt lat="45.97634" lon="4.64307">
        <ele>304</ele>
        <time>2018-09-01T09:06:39Z</time>
      </trkpt>
      <trkpt lat="45.97633" lon="4.64303">
        <ele>304</ele>
        <time>2018-09-01T09:06:40Z</time>
      </trkpt>
      <trkpt lat="45.97632" lon="4.64294">
        <ele>304</ele>
        <time>2018-09-01T09:06:42Z</time>
      </trkpt>
      <trkpt lat="45.97631" lon="4.64289">
        <ele>304</ele>
        <time>2018-09-01T09:06:43Z</time>
      </trkpt>
      <trkpt lat="45.9763" lon="4.64277">
        <ele>305</ele>
        <time>2018-09-01T09:06:46Z</time>
      </trkpt>
      <trkpt lat="45.9763" lon="4.64272">
        <ele>305</ele>
        <time>2018-09-01T09:06:47Z</time>
      </trkpt>
      <trkpt lat="45.97629" lon="4.6426">
        <ele>305</ele>
        <time>2018-09-01T09:06:50Z</time>
      </trkpt>
      <trkpt lat="45.97629" lon="4.64256">
        <ele>305</ele>
        <time>2018-09-01T09:06:51Z</time>
      </trkpt>
      <trkpt lat="45.97627" lon="4.64244">
        <ele>305</ele>
        <time>2018-09-01T09:06:54Z</time>
      </trkpt>
      <trkpt lat="45.97626" lon="4.64239">
        <ele>305</ele>
        <time>2018-09-01T09:06:55Z</time>
      </trkpt>
      <trkpt lat="45.97625" lon="4.64231">
        <ele>306</ele>
        <time>2018-09-01T09:06:57Z</time>
      </trkpt>
      <trkpt lat="45.97625" lon="4.64227">
        <ele>306</ele>
        <time>2018-09-01T09:06:58Z</time>
      </trkpt>
      <trkpt lat="45.97623" lon="4.64214">
        <ele>306</ele>
        <time>2018-09-01T09:07:01Z</time>
      </trkpt>
      <trkpt lat="45.97623" lon="4.6421">
        <ele>306</ele>
        <time>2018-09-01T09:07:02Z</time>
      </trkpt>
      <trkpt lat="45.97621" lon="4.64197">
        <ele>306</ele>
        <time>2018-09-01T09:07:05Z</time>
      </trkpt>
      <trkpt lat="45.97621" lon="4.64193">
        <ele>306</ele>
        <time>2018-09-01T09:07:06Z</time>
      </trkpt>
      <trkpt lat="45.9762" lon="4.64184">
        <ele>306</ele>
        <time>2018-09-01T09:07:08Z</time>
      </trkpt>
      <trkpt lat="45.97619" lon="4.64179">
        <ele>306</ele>
        <time>2018-09-01T09:07:09Z</time>
      </trkpt>
      <trkpt lat="45.97618" lon="4.6417">
        <ele>306</ele>
        <time>2018-09-01T09:07:11Z</time>
      </trkpt>
      <trkpt lat="45.97617" lon="4.64166">
        <ele>306</ele>
        <time>2018-09-01T09:07:12Z</time>
      </trkpt>
      <trkpt lat="45.97615" lon="4.64156">
        <ele>307</ele>
        <time>2018-09-01T09:07:14Z</time>
      </trkpt>
      <trkpt lat="45.97615" lon="4.64152">
        <ele>307</ele>
        <time>2018-09-01T09:07:15Z</time>
      </trkpt>
      <trkpt lat="45.97613" lon="4.64143">
        <ele>307</ele>
        <time>2018-09-01T09:07:17Z</time>
      </trkpt>
      <trkpt lat="45.97613" lon="4.64139">
        <ele>307</ele>
        <time>2018-09-01T09:07:18Z</time>
      </trkpt>
      <trkpt lat="45.97612" lon="4.6413">
        <ele>307</ele>
        <time>2018-09-01T09:07:20Z</time>
      </trkpt>
      <trkpt lat="45.97612" lon="4.64125">
        <ele>307</ele>
        <time>2018-09-01T09:07:21Z</time>
      </trkpt>
      <trkpt lat="45.97611" lon="4.64116">
        <ele>307</ele>
        <time>2018-09-01T09:07:23Z</time>
      </trkpt>
      <trkpt lat="45.9761" lon="4.64112">
        <ele>307</ele>
        <time>2018-09-01T09:07:24Z</time>
      </trkpt>
      <trkpt lat="45.97609" lon="4.64104">
        <ele>308</ele>
        <time>2018-09-01T09:07:26Z</time>
      </trkpt>
      <trkpt lat="45.97609" lon="4.64099">
        <ele>308</ele>
        <time>2018-09-01T09:07:27Z</time>
      </trkpt>
      <trkpt lat="45.97608" lon="4.6409">
        <ele>308</ele>
        <time>2018-09-01T09:07:29Z</time>
      </trkpt>
      <trkpt lat="45.97607" lon="4.64085">
        <ele>308</ele>
        <time>2018-09-01T09:07:30Z</time>
      </trkpt>
      <trkpt lat="45.97606" lon="4.64073">
        <ele>310</ele>
        <time>2018-09-01T09:07:33Z</time>
      </trkpt>
      <trkpt lat="45.97605" lon="4.64069">
        <ele>310</ele>
        <time>2018-09-01T09:07:34Z</time>
      </trkpt>
      <trkpt lat="45.97604" lon="4.64056">
        <ele>310</ele>
        <time>2018-09-01T09:07:37Z</time>
      </trkpt>
      <trkpt lat="45.97603" lon="4.64051">
        <ele>310</ele>
        <time>2018-09-01T09:07:38Z</time>
      </trkpt>
      <trkpt lat="45.97602" lon="4.64043">
        <ele>310</ele>
        <time>2018-09-01T09:07:40Z</time>
      </trkpt>
      <trkpt lat="45.97602" lon="4.64039">
        <ele>310</ele>
        <time>2018-09-01T09:07:41Z</time>
      </trkpt>
      <trkpt lat="45.976" lon="4.64026">
        <ele>310</ele>
        <time>2018-09-01T09:07:44Z</time>
      </trkpt>
      <trkpt lat="45.97599" lon="4.64022">
        <ele>310</ele>
        <time>2018-09-01T09:07:45Z</time>
      </trkpt>
      <trkpt lat="45.97597" lon="4.6401">
        <ele>311</ele>
        <time>2018-09-01T09:07:48Z</time>
      </trkpt>
      <trkpt lat="45.97597" lon="4.64006">
        <ele>311</ele>
        <time>2018-09-01T09:07:49Z</time>
      </trkpt>
      <trkpt lat="45.97596" lon="4.63997">
        <ele>312</ele>
        <time>2018-09-01T09:07:51Z</time>
      </trkpt>
      <trkpt lat="45.97596" lon="4.63993">
        <ele>312</ele>
        <time>2018-09-01T09:07:52Z</time>
      </trkpt>
      <trkpt lat="45.97595" lon="4.63984">
        <ele>312</ele>
        <time>2018-09-01T09:07:54Z</time>
      </trkpt>
      <trkpt lat="45.97595" lon="4.6398">
        <ele>312</ele>
        <time>2018-09-01T09:07:55Z</time>
      </trkpt>
      <trkpt lat="45.97594" lon="4.63967">
        <ele>312</ele>
        <time>2018-09-01T09:07:58Z</time>
      </trkpt>
      <trkpt lat="45.97593" lon="4.63963">
        <ele>312</ele>
        <time>2018-09-01T09:07:59Z</time>
      </trkpt>
      <trkpt lat="45.97592" lon="4.63951">
        <ele>312</ele>
        <time>2018-09-01T09:08:02Z</time>
      </trkpt>
      <trkpt lat="45.97592" lon="4.63947">
        <ele>313</ele>
        <time>2018-09-01T09:08:03Z</time>
      </trkpt>
      <trkpt lat="45.97591" lon="4.63935">
        <ele>313</ele>
        <time>2018-09-01T09:08:06Z</time>
      </trkpt>
      <trkpt lat="45.97591" lon="4.63932">
        <ele>314</ele>
        <time>2018-09-01T09:08:07Z</time>
      </trkpt>
      <trkpt lat="45.9759" lon="4.6392">
        <ele>315</ele>
        <time>2018-09-01T09:08:10Z</time>
      </trkpt>
      <trkpt lat="45.9759" lon="4.63915">
        <ele>315</ele>
        <time>2018-09-01T09:08:11Z</time>
      </trkpt>
      <trkpt lat="45.97588" lon="4.63903">
        <ele>315</ele>
        <time>2018-09-01T09:08:14Z</time>
      </trkpt>
      <trkpt lat="45.97587" lon="4.63899">
        <ele>315</ele>
        <time>2018-09-01T09:08:15Z</time>
      </trkpt>
      <trkpt lat="45.97585" lon="4.63887">
        <ele>314</ele>
        <time>2018-09-01T09:08:18Z</time>
      </trkpt>
      <trkpt lat="45.97584" lon="4.63883">
        <ele>314</ele>
        <time>2018-09-01T09:08:19Z</time>
      </trkpt>
      <trkpt lat="45.97582" lon="4.63874">
        <ele>318</ele>
        <time>2018-09-01T09:08:21Z</time>
      </trkpt>
      <trkpt lat="45.97582" lon="4.6387">
        <ele>318</ele>
        <time>2018-09-01T09:08:22Z</time>
      </trkpt>
      <trkpt lat="45.9758" lon="4.63857">
        <ele>318</ele>
        <time>2018-09-01T09:08:25Z</time>
      </trkpt>
      <trkpt lat="45.9758" lon="4.63853">
        <ele>318</ele>
        <time>2018-09-01T09:08:26Z</time>
      </trkpt>
      <trkpt lat="45.97579" lon="4.63845">
        <ele>318</ele>
        <time>2018-09-01T09:08:28Z</time>
      </trkpt>
      <trkpt lat="45.97579" lon="4.63831">
        <ele>319</ele>
        <time>2018-09-01T09:08:29Z</time>
      </trkpt>
      <trkpt lat="45.97578" lon="4.63819">
        <ele>320</ele>
        <time>2018-09-01T09:08:34Z</time>
      </trkpt>
      <trkpt lat="45.97578" lon="4.63814">
        <ele>320</ele>
        <time>2018-09-01T09:08:35Z</time>
      </trkpt>
      <trkpt lat="45.97577" lon="4.63804">
        <ele>321</ele>
        <time>2018-09-01T09:08:37Z</time>
      </trkpt>
      <trkpt lat="45.97576" lon="4.638">
        <ele>321</ele>
        <time>2018-09-01T09:08:38Z</time>
      </trkpt>
      <trkpt lat="45.97575" lon="4.63792">
        <ele>321</ele>
        <time>2018-09-01T09:08:40Z</time>
      </trkpt>
      <trkpt lat="45.97575" lon="4.63787">
        <ele>322</ele>
        <time>2018-09-01T09:08:41Z</time>
      </trkpt>
      <trkpt lat="45.97574" lon="4.63778">
        <ele>322</ele>
        <time>2018-09-01T09:08:43Z</time>
      </trkpt>
      <trkpt lat="45.97573" lon="4.63774">
        <ele>322</ele>
        <time>2018-09-01T09:08:44Z</time>
      </trkpt>
      <trkpt lat="45.97573" lon="4.63765">
        <ele>322</ele>
        <time>2018-09-01T09:08:46Z</time>
      </trkpt>
      <trkpt lat="45.97572" lon="4.63761">
        <ele>322</ele>
        <time>2018-09-01T09:08:47Z</time>
      </trkpt>
      <trkpt lat="45.97571" lon="4.63748">
        <ele>323</ele>
        <time>2018-09-01T09:08:50Z</time>
      </trkpt>
      <trkpt lat="45.97571" lon="4.63744">
        <ele>323</ele>
        <time>2018-09-01T09:08:51Z</time>
      </trkpt>
      <trkpt lat="45.9757" lon="4.63732">
        <ele>324</ele>
        <time>2018-09-01T09:08:54Z</time>
      </trkpt>
      <trkpt lat="45.9757" lon="4.63728">
        <ele>324</ele>
        <time>2018-09-01T09:08:55Z</time>
      </trkpt>
      <trkpt lat="45.9757" lon="4.63716">
        <ele>324</ele>
        <time>2018-09-01T09:08:58Z</time>
      </trkpt>
      <trkpt lat="45.9757" lon="4.63712">
        <ele>325</ele>
        <time>2018-09-01T09:08:59Z</time>
      </trkpt>
      <trkpt lat="45.9757" lon="4.63703">
        <ele>325</ele>
        <time>2018-09-01T09:09:01Z</time>
      </trkpt>
      <trkpt lat="45.9757" lon="4.63699">
        <ele>325</ele>
        <time>2018-09-01T09:09:02Z</time>
      </trkpt>
      <trkpt lat="45.9757" lon="4.6369">
        <ele>325</ele>
        <time>2018-09-01T09:09:04Z</time>
      </trkpt>
      <trkpt lat="45.9757" lon="4.63685">
        <ele>325</ele>
        <time>2018-09-01T09:09:05Z</time>
      </trkpt>
      <trkpt lat="45.97568" lon="4.63673">
        <ele>325</ele>
        <time>2018-09-01T09:09:08Z</time>
      </trkpt>
      <trkpt lat="45.97568" lon="4.63669">
        <ele>325</ele>
        <time>2018-09-01T09:09:09Z</time>
      </trkpt>
      <trkpt lat="45.97567" lon="4.63657">
        <ele>326</ele>
        <time>2018-09-01T09:09:12Z</time>
      </trkpt>
      <trkpt lat="45.97566" lon="4.63653">
        <ele>326</ele>
        <time>2018-09-01T09:09:13Z</time>
      </trkpt>
      <trkpt lat="45.97564" lon="4.63641">
        <ele>326</ele>
        <time>2018-09-01T09:09:16Z</time>
      </trkpt>
      <trkpt lat="45.97564" lon="4.63637">
        <ele>326</ele>
        <time>2018-09-01T09:09:17Z</time>
      </trkpt>
      <trkpt lat="45.97562" lon="4.63625">
        <ele>327</ele>
        <time>2018-09-01T09:09:20Z</time>
      </trkpt>
      <trkpt lat="45.97561" lon="4.6362">
        <ele>327</ele>
        <time>2018-09-01T09:09:21Z</time>
      </trkpt>
      <trkpt lat="45.97559" lon="4.63611">
        <ele>327</ele>
        <time>2018-09-01T09:09:23Z</time>
      </trkpt>
      <trkpt lat="45.97558" lon="4.63607">
        <ele>327</ele>
        <time>2018-09-01T09:09:24Z</time>
      </trkpt>
      <trkpt lat="45.97557" lon="4.63598">
        <ele>327</ele>
        <time>2018-09-01T09:09:26Z</time>
      </trkpt>
      <trkpt lat="45.97556" lon="4.63593">
        <ele>327</ele>
        <time>2018-09-01T09:09:27Z</time>
      </trkpt>
      <trkpt lat="45.97554" lon="4.63585">
        <ele>327</ele>
        <time>2018-09-01T09:09:29Z</time>
      </trkpt>
      <trkpt lat="45.97553" lon="4.63581">
        <ele>328</ele>
        <time>2018-09-01T09:09:30Z</time>
      </trkpt>
      <trkpt lat="45.97551" lon="4.63573">
        <ele>328</ele>
        <time>2018-09-01T09:09:32Z</time>
      </trkpt>
      <trkpt lat="45.9755" lon="4.63568">
        <ele>328</ele>
        <time>2018-09-01T09:09:33Z</time>
      </trkpt>
      <trkpt lat="45.97549" lon="4.63556">
        <ele>329</ele>
        <time>2018-09-01T09:09:36Z</time>
      </trkpt>
      <trkpt lat="45.97548" lon="4.63552">
        <ele>329</ele>
        <time>2018-09-01T09:09:37Z</time>
      </trkpt>
      <trkpt lat="45.97547" lon="4.6354">
        <ele>329</ele>
        <time>2018-09-01T09:09:40Z</time>
      </trkpt>
      <trkpt lat="45.97547" lon="4.63536">
        <ele>329</ele>
        <time>2018-09-01T09:09:41Z</time>
      </trkpt>
      <trkpt lat="45.97546" lon="4.63526">
        <ele>329</ele>
        <time>2018-09-01T09:09:44Z</time>
      </trkpt>
      <trkpt lat="45.97546" lon="4.63522">
        <ele>329</ele>
        <time>2018-09-01T09:09:45Z</time>
      </trkpt>
      <trkpt lat="45.97545" lon="4.63512">
        <ele>329</ele>
        <time>2018-09-01T09:09:48Z</time>
      </trkpt>
      <trkpt lat="45.97544" lon="4.63508">
        <ele>329</ele>
        <time>2018-09-01T09:09:49Z</time>
      </trkpt>
      <trkpt lat="45.97543" lon="4.63498">
        <ele>330</ele>
        <time>2018-09-01T09:09:52Z</time>
      </trkpt>
      <trkpt lat="45.97542" lon="4.63494">
        <ele>330</ele>
        <time>2018-09-01T09:09:53Z</time>
      </trkpt>
      <trkpt lat="45.97541" lon="4.63482">
        <ele>331</ele>
        <time>2018-09-01T09:09:56Z</time>
      </trkpt>
      <trkpt lat="45.97541" lon="4.63478">
        <ele>331</ele>
        <time>2018-09-01T09:09:57Z</time>
      </trkpt>
      <trkpt lat="45.9754" lon="4.63466">
        <ele>331</ele>
        <time>2018-09-01T09:10:00Z</time>
      </trkpt>
      <trkpt lat="45.97539" lon="4.63463">
        <ele>331</ele>
        <time>2018-09-01T09:10:01Z</time>
      </trkpt>
      <trkpt lat="45.97538" lon="4.63451">
        <ele>331</ele>
        <time>2018-09-01T09:10:04Z</time>
      </trkpt>
      <trkpt lat="45.97537" lon="4.63447">
        <ele>331</ele>
        <time>2018-09-01T09:10:05Z</time>
      </trkpt>
      <trkpt lat="45.97535" lon="4.63435">
        <ele>331</ele>
        <time>2018-09-01T09:10:08Z</time>
      </trkpt>
      <trkpt lat="45.97534" lon="4.63431">
        <ele>331</ele>
        <time>2018-09-01T09:10:09Z</time>
      </trkpt>
      <trkpt lat="45.97533" lon="4.6342">
        <ele>332</ele>
        <time>2018-09-01T09:10:12Z</time>
      </trkpt>
      <trkpt lat="45.97533" lon="4.63416">
        <ele>333</ele>
        <time>2018-09-01T09:10:13Z</time>
      </trkpt>
      <trkpt lat="45.97532" lon="4.63406">
        <ele>333</ele>
        <time>2018-09-01T09:10:16Z</time>
      </trkpt>
      <trkpt lat="45.97532" lon="4.63403">
        <ele>333</ele>
        <time>2018-09-01T09:10:17Z</time>
      </trkpt>
      <trkpt lat="45.97531" lon="4.63393">
        <ele>333</ele>
        <time>2018-09-01T09:10:20Z</time>
      </trkpt>
      <trkpt lat="45.97531" lon="4.6339">
        <ele>333</ele>
        <time>2018-09-01T09:10:21Z</time>
      </trkpt>
      <trkpt lat="45.9753" lon="4.6338">
        <ele>333</ele>
        <time>2018-09-01T09:10:24Z</time>
      </trkpt>
      <trkpt lat="45.9753" lon="4.63377">
        <ele>333</ele>
        <time>2018-09-01T09:10:25Z</time>
      </trkpt>
      <trkpt lat="45.97527" lon="4.63366">
        <ele>333</ele>
        <time>2018-09-01T09:10:28Z</time>
      </trkpt>
      <trkpt lat="45.97526" lon="4.63362">
        <ele>333</ele>
        <time>2018-09-01T09:10:29Z</time>
      </trkpt>
      <trkpt lat="45.97523" lon="4.63351">
        <ele>334</ele>
        <time>2018-09-01T09:10:32Z</time>
      </trkpt>
      <trkpt lat="45.97522" lon="4.63347">
        <ele>334</ele>
        <time>2018-09-01T09:10:33Z</time>
      </trkpt>
      <trkpt lat="45.97519" lon="4.63336">
        <ele>335</ele>
        <time>2018-09-01T09:10:36Z</time>
      </trkpt>
      <trkpt lat="45.97519" lon="4.63331">
        <ele>336</ele>
        <time>2018-09-01T09:10:37Z</time>
      </trkpt>
      <trkpt lat="45.97517" lon="4.63319">
        <ele>335</ele>
        <time>2018-09-01T09:10:40Z</time>
      </trkpt>
      <trkpt lat="45.97517" lon="4.63315">
        <ele>335</ele>
        <time>2018-09-01T09:10:41Z</time>
      </trkpt>
      <trkpt lat="45.97515" lon="4.63304">
        <ele>335</ele>
        <time>2018-09-01T09:10:44Z</time>
      </trkpt>
      <trkpt lat="45.97515" lon="4.633">
        <ele>335</ele>
        <time>2018-09-01T09:10:45Z</time>
      </trkpt>
      <trkpt lat="45.97515" lon="4.63288">
        <ele>335</ele>
        <time>2018-09-01T09:10:48Z</time>
      </trkpt>
      <trkpt lat="45.97515" lon="4.63284">
        <ele>335</ele>
        <time>2018-09-01T09:10:49Z</time>
      </trkpt>
      <trkpt lat="45.97516" lon="4.63274">
        <ele>335</ele>
        <time>2018-09-01T09:10:52Z</time>
      </trkpt>
      <trkpt lat="45.97516" lon="4.63271">
        <ele>336</ele>
        <time>2018-09-01T09:10:53Z</time>
      </trkpt>
      <trkpt lat="45.97515" lon="4.6326">
        <ele>336</ele>
        <time>2018-09-01T09:10:56Z</time>
      </trkpt>
      <trkpt lat="45.97514" lon="4.63257">
        <ele>337</ele>
        <time>2018-09-01T09:10:57Z</time>
      </trkpt>
      <trkpt lat="45.97513" lon="4.63246">
        <ele>337</ele>
        <time>2018-09-01T09:11:00Z</time>
      </trkpt>
      <trkpt lat="45.97513" lon="4.63243">
        <ele>337</ele>
        <time>2018-09-01T09:11:01Z</time>
      </trkpt>
      <trkpt lat="45.97512" lon="4.63233">
        <ele>337</ele>
        <time>2018-09-01T09:11:04Z</time>
      </trkpt>
      <trkpt lat="45.97511" lon="4.63229">
        <ele>337</ele>
        <time>2018-09-01T09:11:05Z</time>
      </trkpt>
      <trkpt lat="45.97511" lon="4.6322">
        <ele>336</ele>
        <time>2018-09-01T09:11:08Z</time>
      </trkpt>
      <trkpt lat="45.97511" lon="4.63216">
        <ele>336</ele>
        <time>2018-09-01T09:11:09Z</time>
      </trkpt>
      <trkpt lat="45.97511" lon="4.63204">
        <ele>336</ele>
        <time>2018-09-01T09:11:12Z</time>
      </trkpt>
      <trkpt lat="45.9751" lon="4.632">
        <ele>336</ele>
        <time>2018-09-01T09:11:13Z</time>
      </trkpt>
      <trkpt lat="45.9751" lon="4.63192">
        <ele>336</ele>
        <time>2018-09-01T09:11:15Z</time>
      </trkpt>
      <trkpt lat="45.97509" lon="4.63187">
        <ele>337</ele>
        <time>2018-09-01T09:11:16Z</time>
      </trkpt>
      <trkpt lat="45.97507" lon="4.63177">
        <ele>337</ele>
        <time>2018-09-01T09:11:18Z</time>
      </trkpt>
      <trkpt lat="45.97506" lon="4.63171">
        <ele>338</ele>
        <time>2018-09-01T09:11:19Z</time>
      </trkpt>
      <trkpt lat="45.97505" lon="4.63162">
        <ele>338</ele>
        <time>2018-09-01T09:11:21Z</time>
      </trkpt>
      <trkpt lat="45.97504" lon="4.63158">
        <ele>338</ele>
        <time>2018-09-01T09:11:22Z</time>
      </trkpt>
      <trkpt lat="45.97504" lon="4.63153">
        <ele>338</ele>
        <time>2018-09-01T09:11:23Z</time>
      </trkpt>
      <trkpt lat="45.97503" lon="4.6314">
        <ele>337</ele>
        <time>2018-09-01T09:11:24Z</time>
      </trkpt>
      <trkpt lat="45.97502" lon="4.6313">
        <ele>337</ele>
        <time>2018-09-01T09:11:26Z</time>
      </trkpt>
      <trkpt lat="45.97502" lon="4.63127">
        <ele>337</ele>
        <time>2018-09-01T09:11:27Z</time>
      </trkpt>
      <trkpt lat="45.97501" lon="4.63117">
        <ele>337</ele>
        <time>2018-09-01T09:11:30Z</time>
      </trkpt>
      <trkpt lat="45.97501" lon="4.63113">
        <ele>337</ele>
        <time>2018-09-01T09:11:31Z</time>
      </trkpt>
      <trkpt lat="45.975" lon="4.63101">
        <ele>342</ele>
        <time>2018-09-01T09:11:34Z</time>
      </trkpt>
      <trkpt lat="45.97499" lon="4.63097">
        <ele>341</ele>
        <time>2018-09-01T09:11:35Z</time>
      </trkpt>
      <trkpt lat="45.97498" lon="4.63088">
        <ele>341</ele>
        <time>2018-09-01T09:11:37Z</time>
      </trkpt>
      <trkpt lat="45.97497" lon="4.63084">
        <ele>340</ele>
        <time>2018-09-01T09:11:38Z</time>
      </trkpt>
      <trkpt lat="45.97496" lon="4.63071">
        <ele>342</ele>
        <time>2018-09-01T09:11:41Z</time>
      </trkpt>
      <trkpt lat="45.97495" lon="4.63067">
        <ele>343</ele>
        <time>2018-09-01T09:11:42Z</time>
      </trkpt>
      <trkpt lat="45.97494" lon="4.63058">
        <ele>343</ele>
        <time>2018-09-01T09:11:44Z</time>
      </trkpt>
      <trkpt lat="45.97494" lon="4.63054">
        <ele>344</ele>
        <time>2018-09-01T09:11:45Z</time>
      </trkpt>
      <trkpt lat="45.97492" lon="4.63041">
        <ele>344</ele>
        <time>2018-09-01T09:11:48Z</time>
      </trkpt>
      <trkpt lat="45.97491" lon="4.63036">
        <ele>344</ele>
        <time>2018-09-01T09:11:49Z</time>
      </trkpt>
      <trkpt lat="45.97489" lon="4.63027">
        <ele>344</ele>
        <time>2018-09-01T09:11:51Z</time>
      </trkpt>
      <trkpt lat="45.97488" lon="4.63023">
        <ele>344</ele>
        <time>2018-09-01T09:11:52Z</time>
      </trkpt>
      <trkpt lat="45.97485" lon="4.63011">
        <ele>344</ele>
        <time>2018-09-01T09:11:53Z</time>
      </trkpt>
      <trkpt lat="45.97482" lon="4.62999">
        <ele>344</ele>
        <time>2018-09-01T09:11:57Z</time>
      </trkpt>
      <trkpt lat="45.97478" lon="4.62989">
        <ele>345</ele>
        <time>2018-09-01T09:11:58Z</time>
      </trkpt>
      <trkpt lat="45.97475" lon="4.62977">
        <ele>345</ele>
        <time>2018-09-01T09:12:02Z</time>
      </trkpt>
      <trkpt lat="45.97474" lon="4.62973">
        <ele>345</ele>
        <time>2018-09-01T09:12:03Z</time>
      </trkpt>
      <trkpt lat="45.97471" lon="4.62962">
        <ele>345</ele>
        <time>2018-09-01T09:12:06Z</time>
      </trkpt>
      <trkpt lat="45.9747" lon="4.62958">
        <ele>345</ele>
        <time>2018-09-01T09:12:07Z</time>
      </trkpt>
      <trkpt lat="45.97467" lon="4.6295">
        <ele>345</ele>
        <time>2018-09-01T09:12:09Z</time>
      </trkpt>
      <trkpt lat="45.97466" lon="4.62945">
        <ele>345</ele>
        <time>2018-09-01T09:12:10Z</time>
      </trkpt>
      <trkpt lat="45.97464" lon="4.62936">
        <ele>345</ele>
        <time>2018-09-01T09:12:12Z</time>
      </trkpt>
      <trkpt lat="45.97463" lon="4.62932">
        <ele>345</ele>
        <time>2018-09-01T09:12:13Z</time>
      </trkpt>
      <trkpt lat="45.97461" lon="4.62919">
        <ele>345</ele>
        <time>2018-09-01T09:12:16Z</time>
      </trkpt>
      <trkpt lat="45.9746" lon="4.62915">
        <ele>345</ele>
        <time>2018-09-01T09:12:17Z</time>
      </trkpt>
      <trkpt lat="45.97459" lon="4.6291">
        <ele>345</ele>
        <time>2018-09-01T09:12:18Z</time>
      </trkpt>
      <trkpt lat="45.97457" lon="4.62898">
        <ele>345</ele>
        <time>2018-09-01T09:12:19Z</time>
      </trkpt>
      <trkpt lat="45.97456" lon="4.62885">
        <ele>346</ele>
        <time>2018-09-01T09:12:24Z</time>
      </trkpt>
      <trkpt lat="45.97455" lon="4.62882">
        <ele>346</ele>
        <time>2018-09-01T09:12:25Z</time>
      </trkpt>
      <trkpt lat="45.97454" lon="4.62872">
        <ele>346</ele>
        <time>2018-09-01T09:12:28Z</time>
      </trkpt>
      <trkpt lat="45.97454" lon="4.62869">
        <ele>346</ele>
        <time>2018-09-01T09:12:29Z</time>
      </trkpt>
      <trkpt lat="45.97452" lon="4.62857">
        <ele>346</ele>
        <time>2018-09-01T09:12:32Z</time>
      </trkpt>
      <trkpt lat="45.97452" lon="4.62854">
        <ele>346</ele>
        <time>2018-09-01T09:12:33Z</time>
      </trkpt>
      <trkpt lat="45.97449" lon="4.62841">
        <ele>346</ele>
        <time>2018-09-01T09:12:36Z</time>
      </trkpt>
      <trkpt lat="45.97448" lon="4.62837">
        <ele>346</ele>
        <time>2018-09-01T09:12:37Z</time>
      </trkpt>
      <trkpt lat="45.97446" lon="4.62825">
        <ele>347</ele>
        <time>2018-09-01T09:12:40Z</time>
      </trkpt>
      <trkpt lat="45.97446" lon="4.62822">
        <ele>347</ele>
        <time>2018-09-01T09:12:41Z</time>
      </trkpt>
      <trkpt lat="45.97443" lon="4.62811">
        <ele>347</ele>
        <time>2018-09-01T09:12:44Z</time>
      </trkpt>
      <trkpt lat="45.97442" lon="4.62807">
        <ele>347</ele>
        <time>2018-09-01T09:12:45Z</time>
      </trkpt>
      <trkpt lat="45.9744" lon="4.62796">
        <ele>347</ele>
        <time>2018-09-01T09:12:48Z</time>
      </trkpt>
      <trkpt lat="45.97439" lon="4.62793">
        <ele>348</ele>
        <time>2018-09-01T09:12:49Z</time>
      </trkpt>
      <trkpt lat="45.97438" lon="4.62784">
        <ele>348</ele>
        <time>2018-09-01T09:12:51Z</time>
      </trkpt>
      <trkpt lat="45.97436" lon="4.62779">
        <ele>348</ele>
        <time>2018-09-01T09:12:52Z</time>
      </trkpt>
      <trkpt lat="45.97434" lon="4.62771">
        <ele>348</ele>
        <time>2018-09-01T09:12:54Z</time>
      </trkpt>
      <trkpt lat="45.97433" lon="4.62766">
        <ele>349</ele>
        <time>2018-09-01T09:12:55Z</time>
      </trkpt>
      <trkpt lat="45.9743" lon="4.62754">
        <ele>350</ele>
        <time>2018-09-01T09:12:58Z</time>
      </trkpt>
      <trkpt lat="45.97429" lon="4.62751">
        <ele>350</ele>
        <time>2018-09-01T09:12:59Z</time>
      </trkpt>
      <trkpt lat="45.97426" lon="4.62739">
        <ele>350</ele>
        <time>2018-09-01T09:13:02Z</time>
      </trkpt>
      <trkpt lat="45.97426" lon="4.62736">
        <ele>350</ele>
        <time>2018-09-01T09:13:03Z</time>
      </trkpt>
      <trkpt lat="45.97424" lon="4.62724">
        <ele>350</ele>
        <time>2018-09-01T09:13:07Z</time>
      </trkpt>
      <trkpt lat="45.97424" lon="4.6272">
        <ele>349</ele>
        <time>2018-09-01T09:13:08Z</time>
      </trkpt>
      <trkpt lat="45.97422" lon="4.62711">
        <ele>349</ele>
        <time>2018-09-01T09:13:11Z</time>
      </trkpt>
      <trkpt lat="45.97421" lon="4.62708">
        <ele>349</ele>
        <time>2018-09-01T09:13:12Z</time>
      </trkpt>
      <trkpt lat="45.9742" lon="4.62697">
        <ele>350</ele>
        <time>2018-09-01T09:13:15Z</time>
      </trkpt>
      <trkpt lat="45.97419" lon="4.62694">
        <ele>350</ele>
        <time>2018-09-01T09:13:16Z</time>
      </trkpt>
      <trkpt lat="45.97417" lon="4.62684">
        <ele>354</ele>
        <time>2018-09-01T09:13:19Z</time>
      </trkpt>
      <trkpt lat="45.97416" lon="4.6268">
        <ele>354</ele>
        <time>2018-09-01T09:13:20Z</time>
      </trkpt>
      <trkpt lat="45.97413" lon="4.6267">
        <ele>353</ele>
        <time>2018-09-01T09:13:23Z</time>
      </trkpt>
      <trkpt lat="45.97412" lon="4.62666">
        <ele>354</ele>
        <time>2018-09-01T09:13:24Z</time>
      </trkpt>
      <trkpt lat="45.97409" lon="4.62656">
        <ele>355</ele>
        <time>2018-09-01T09:13:27Z</time>
      </trkpt>
      <trkpt lat="45.97408" lon="4.62653">
        <ele>355</ele>
        <time>2018-09-01T09:13:28Z</time>
      </trkpt>
      <trkpt lat="45.97404" lon="4.62641">
        <ele>356</ele>
        <time>2018-09-01T09:13:31Z</time>
      </trkpt>
      <trkpt lat="45.97403" lon="4.62637">
        <ele>356</ele>
        <time>2018-09-01T09:13:32Z</time>
      </trkpt>
      <trkpt lat="45.97401" lon="4.62627">
        <ele>356</ele>
        <time>2018-09-01T09:13:35Z</time>
      </trkpt>
      <trkpt lat="45.974" lon="4.62624">
        <ele>357</ele>
        <time>2018-09-01T09:13:36Z</time>
      </trkpt>
      <trkpt lat="45.97399" lon="4.62613">
        <ele>357</ele>
        <time>2018-09-01T09:13:39Z</time>
      </trkpt>
      <trkpt lat="45.97399" lon="4.6261">
        <ele>357</ele>
        <time>2018-09-01T09:13:40Z</time>
      </trkpt>
      <trkpt lat="45.97398" lon="4.626">
        <ele>357</ele>
        <time>2018-09-01T09:13:43Z</time>
      </trkpt>
      <trkpt lat="45.97398" lon="4.62597">
        <ele>357</ele>
        <time>2018-09-01T09:13:44Z</time>
      </trkpt>
      <trkpt lat="45.97397" lon="4.62587">
        <ele>357</ele>
        <time>2018-09-01T09:13:47Z</time>
      </trkpt>
      <trkpt lat="45.97397" lon="4.62583">
        <ele>359</ele>
        <time>2018-09-01T09:13:48Z</time>
      </trkpt>
      <trkpt lat="45.97397" lon="4.62573">
        <ele>359</ele>
        <time>2018-09-01T09:13:51Z</time>
      </trkpt>
      <trkpt lat="45.97397" lon="4.6257">
        <ele>359</ele>
        <time>2018-09-01T09:13:52Z</time>
      </trkpt>
      <trkpt lat="45.97396" lon="4.62559">
        <ele>360</ele>
        <time>2018-09-01T09:13:55Z</time>
      </trkpt>
      <trkpt lat="45.97396" lon="4.62556">
        <ele>360</ele>
        <time>2018-09-01T09:13:56Z</time>
      </trkpt>
      <trkpt lat="45.97397" lon="4.62545">
        <ele>360</ele>
        <time>2018-09-01T09:13:59Z</time>
      </trkpt>
      <trkpt lat="45.97397" lon="4.62542">
        <ele>360</ele>
        <time>2018-09-01T09:14:00Z</time>
      </trkpt>
      <trkpt lat="45.97397" lon="4.62531">
        <ele>361</ele>
        <time>2018-09-01T09:14:03Z</time>
      </trkpt>
      <trkpt lat="45.97397" lon="4.62528">
        <ele>361</ele>
        <time>2018-09-01T09:14:04Z</time>
      </trkpt>
      <trkpt lat="45.97399" lon="4.62518">
        <ele>361</ele>
        <time>2018-09-01T09:14:07Z</time>
      </trkpt>
      <trkpt lat="45.97399" lon="4.62514">
        <ele>360</ele>
        <time>2018-09-01T09:14:08Z</time>
      </trkpt>
      <trkpt lat="45.97401" lon="4.62504">
        <ele>360</ele>
        <time>2018-09-01T09:14:11Z</time>
      </trkpt>
      <trkpt lat="45.97401" lon="4.625">
        <ele>361</ele>
        <time>2018-09-01T09:14:12Z</time>
      </trkpt>
      <trkpt lat="45.97402" lon="4.6249">
        <ele>362</ele>
        <time>2018-09-01T09:14:15Z</time>
      </trkpt>
      <trkpt lat="45.97402" lon="4.62487">
        <ele>363</ele>
        <time>2018-09-01T09:14:16Z</time>
      </trkpt>
      <trkpt lat="45.97404" lon="4.62474">
        <ele>364</ele>
        <time>2018-09-01T09:14:20Z</time>
      </trkpt>
      <trkpt lat="45.97404" lon="4.62471">
        <ele>364</ele>
        <time>2018-09-01T09:14:21Z</time>
      </trkpt>
      <trkpt lat="45.97405" lon="4.62462">
        <ele>364</ele>
        <time>2018-09-01T09:14:24Z</time>
      </trkpt>
      <trkpt lat="45.97406" lon="4.62458">
        <ele>364</ele>
        <time>2018-09-01T09:14:25Z</time>
      </trkpt>
      <trkpt lat="45.97408" lon="4.62448">
        <ele>364</ele>
        <time>2018-09-01T09:14:28Z</time>
      </trkpt>
      <trkpt lat="45.97408" lon="4.62445">
        <ele>364</ele>
        <time>2018-09-01T09:14:29Z</time>
      </trkpt>
      <trkpt lat="45.97409" lon="4.62435">
        <ele>364</ele>
        <time>2018-09-01T09:14:32Z</time>
      </trkpt>
      <trkpt lat="45.9741" lon="4.62432">
        <ele>364</ele>
        <time>2018-09-01T09:14:33Z</time>
      </trkpt>
      <trkpt lat="45.97412" lon="4.62422">
        <ele>364</ele>
        <time>2018-09-01T09:14:36Z</time>
      </trkpt>
      <trkpt lat="45.97413" lon="4.62419">
        <ele>363</ele>
        <time>2018-09-01T09:14:37Z</time>
      </trkpt>
      <trkpt lat="45.97415" lon="4.6241">
        <ele>365</ele>
        <time>2018-09-01T09:14:40Z</time>
      </trkpt>
      <trkpt lat="45.97416" lon="4.62406">
        <ele>365</ele>
        <time>2018-09-01T09:14:41Z</time>
      </trkpt>
      <trkpt lat="45.97419" lon="4.62396">
        <ele>362</ele>
        <time>2018-09-01T09:14:44Z</time>
      </trkpt>
      <trkpt lat="45.97419" lon="4.62393">
        <ele>362</ele>
        <time>2018-09-01T09:14:45Z</time>
      </trkpt>
      <trkpt lat="45.97422" lon="4.6238">
        <ele>362</ele>
        <time>2018-09-01T09:14:49Z</time>
      </trkpt>
      <trkpt lat="45.97422" lon="4.62377">
        <ele>363</ele>
        <time>2018-09-01T09:14:50Z</time>
      </trkpt>
      <trkpt lat="45.97424" lon="4.62365">
        <ele>363</ele>
        <time>2018-09-01T09:14:54Z</time>
      </trkpt>
      <trkpt lat="45.97424" lon="4.62362">
        <ele>363</ele>
        <time>2018-09-01T09:14:55Z</time>
      </trkpt>
      <trkpt lat="45.97425" lon="4.6235">
        <ele>364</ele>
        <time>2018-09-01T09:14:59Z</time>
      </trkpt>
      <trkpt lat="45.97425" lon="4.62347">
        <ele>365</ele>
        <time>2018-09-01T09:15:00Z</time>
      </trkpt>
      <trkpt lat="45.97426" lon="4.62336">
        <ele>366</ele>
        <time>2018-09-01T09:15:03Z</time>
      </trkpt>
      <trkpt lat="45.97426" lon="4.62332">
        <ele>367</ele>
        <time>2018-09-01T09:15:04Z</time>
      </trkpt>
      <trkpt lat="45.97426" lon="4.62322">
        <ele>367</ele>
        <time>2018-09-01T09:15:07Z</time>
      </trkpt>
      <trkpt lat="45.97426" lon="4.62318">
        <ele>367</ele>
        <time>2018-09-01T09:15:08Z</time>
      </trkpt>
      <trkpt lat="45.97426" lon="4.62308">
        <ele>367</ele>
        <time>2018-09-01T09:15:11Z</time>
      </trkpt>
      <trkpt lat="45.97426" lon="4.62305">
        <ele>367</ele>
        <time>2018-09-01T09:15:12Z</time>
      </trkpt>
      <trkpt lat="45.97428" lon="4.62293">
        <ele>367</ele>
        <time>2018-09-01T09:15:16Z</time>
      </trkpt>
      <trkpt lat="45.97429" lon="4.6229">
        <ele>367</ele>
        <time>2018-09-01T09:15:17Z</time>
      </trkpt>
      <trkpt lat="45.97429" lon="4.6228">
        <ele>367</ele>
        <time>2018-09-01T09:15:20Z</time>
      </trkpt>
      <trkpt lat="45.97429" lon="4.62276">
        <ele>367</ele>
        <time>2018-09-01T09:15:21Z</time>
      </trkpt>
      <trkpt lat="45.97429" lon="4.62264">
        <ele>368</ele>
        <time>2018-09-01T09:15:25Z</time>
      </trkpt>
      <trkpt lat="45.9743" lon="4.62261">
        <ele>368</ele>
        <time>2018-09-01T09:15:26Z</time>
      </trkpt>
      <trkpt lat="45.97431" lon="4.62248">
        <ele>370</ele>
        <time>2018-09-01T09:15:30Z</time>
      </trkpt>
      <trkpt lat="45.97431" lon="4.62245">
        <ele>370</ele>
        <time>2018-09-01T09:15:31Z</time>
      </trkpt>
      <trkpt lat="45.97432" lon="4.62234">
        <ele>370</ele>
        <time>2018-09-01T09:15:35Z</time>
      </trkpt>
      <trkpt lat="45.97432" lon="4.62231">
        <ele>370</ele>
        <time>2018-09-01T09:15:36Z</time>
      </trkpt>
      <trkpt lat="45.97432" lon="4.62221">
        <ele>370</ele>
        <time>2018-09-01T09:15:39Z</time>
      </trkpt>
      <trkpt lat="45.97432" lon="4.62218">
        <ele>370</ele>
        <time>2018-09-01T09:15:40Z</time>
      </trkpt>
      <trkpt lat="45.97433" lon="4.62208">
        <ele>371</ele>
        <time>2018-09-01T09:15:43Z</time>
      </trkpt>
      <trkpt lat="45.97433" lon="4.62204">
        <ele>371</ele>
        <time>2018-09-01T09:15:44Z</time>
      </trkpt>
      <trkpt lat="45.97434" lon="4.62194">
        <ele>371</ele>
        <time>2018-09-01T09:15:47Z</time>
      </trkpt>
      <trkpt lat="45.97435" lon="4.62191">
        <ele>371</ele>
        <time>2018-09-01T09:15:48Z</time>
      </trkpt>
      <trkpt lat="45.97435" lon="4.62181">
        <ele>372</ele>
        <time>2018-09-01T09:15:51Z</time>
      </trkpt>
      <trkpt lat="45.97435" lon="4.62177">
        <ele>372</ele>
        <time>2018-09-01T09:15:52Z</time>
      </trkpt>
      <trkpt lat="45.97436" lon="4.62168">
        <ele>372</ele>
        <time>2018-09-01T09:15:55Z</time>
      </trkpt>
      <trkpt lat="45.97436" lon="4.62164">
        <ele>375</ele>
        <time>2018-09-01T09:15:56Z</time>
      </trkpt>
      <trkpt lat="45.97437" lon="4.62155">
        <ele>375</ele>
        <time>2018-09-01T09:15:59Z</time>
      </trkpt>
      <trkpt lat="45.97437" lon="4.62151">
        <ele>375</ele>
        <time>2018-09-01T09:16:00Z</time>
      </trkpt>
      <trkpt lat="45.97439" lon="4.62141">
        <ele>375</ele>
        <time>2018-09-01T09:16:03Z</time>
      </trkpt>
      <trkpt lat="45.97439" lon="4.62138">
        <ele>375</ele>
        <time>2018-09-01T09:16:04Z</time>
      </trkpt>
      <trkpt lat="45.9744" lon="4.62128">
        <ele>376</ele>
        <time>2018-09-01T09:16:07Z</time>
      </trkpt>
      <trkpt lat="45.9744" lon="4.62125">
        <ele>376</ele>
        <time>2018-09-01T09:16:08Z</time>
      </trkpt>
      <trkpt lat="45.97441" lon="4.62112">
        <ele>376</ele>
        <time>2018-09-01T09:16:12Z</time>
      </trkpt>
      <trkpt lat="45.97441" lon="4.62109">
        <ele>377</ele>
        <time>2018-09-01T09:16:13Z</time>
      </trkpt>
      <trkpt lat="45.97443" lon="4.62098">
        <ele>377</ele>
        <time>2018-09-01T09:16:17Z</time>
      </trkpt>
      <trkpt lat="45.97443" lon="4.62095">
        <ele>377</ele>
        <time>2018-09-01T09:16:18Z</time>
      </trkpt>
      <trkpt lat="45.97444" lon="4.62086">
        <ele>377</ele>
        <time>2018-09-01T09:16:21Z</time>
      </trkpt>
      <trkpt lat="45.97444" lon="4.62082">
        <ele>379</ele>
        <time>2018-09-01T09:16:22Z</time>
      </trkpt>
      <trkpt lat="45.97445" lon="4.62071">
        <ele>379</ele>
        <time>2018-09-01T09:16:25Z</time>
      </trkpt>
      <trkpt lat="45.97445" lon="4.62068">
        <ele>379</ele>
        <time>2018-09-01T09:16:26Z</time>
      </trkpt>
      <trkpt lat="45.97446" lon="4.62056">
        <ele>379</ele>
        <time>2018-09-01T09:16:30Z</time>
      </trkpt>
      <trkpt lat="45.97446" lon="4.62053">
        <ele>379</ele>
        <time>2018-09-01T09:16:31Z</time>
      </trkpt>
      <trkpt lat="45.97445" lon="4.62041">
        <ele>379</ele>
        <time>2018-09-01T09:16:35Z</time>
      </trkpt>
      <trkpt lat="45.97445" lon="4.62038">
        <ele>379</ele>
        <time>2018-09-01T09:16:36Z</time>
      </trkpt>
      <trkpt lat="45.97444" lon="4.62025">
        <ele>379</ele>
        <time>2018-09-01T09:16:40Z</time>
      </trkpt>
      <trkpt lat="45.97444" lon="4.62022">
        <ele>379</ele>
        <time>2018-09-01T09:16:41Z</time>
      </trkpt>
      <trkpt lat="45.97444" lon="4.62012">
        <ele>379</ele>
        <time>2018-09-01T09:16:44Z</time>
      </trkpt>
      <trkpt lat="45.97444" lon="4.62008">
        <ele>379</ele>
        <time>2018-09-01T09:16:45Z</time>
      </trkpt>
      <trkpt lat="45.97443" lon="4.61997">
        <ele>380</ele>
        <time>2018-09-01T09:16:49Z</time>
      </trkpt>
      <trkpt lat="45.97443" lon="4.61994">
        <ele>380</ele>
        <time>2018-09-01T09:16:50Z</time>
      </trkpt>
      <trkpt lat="45.97443" lon="4.61981">
        <ele>380</ele>
        <time>2018-09-01T09:16:54Z</time>
      </trkpt>
      <trkpt lat="45.97443" lon="4.61979">
        <ele>380</ele>
        <time>2018-09-01T09:16:55Z</time>
      </trkpt>
      <trkpt lat="45.97443" lon="4.61967">
        <ele>380</ele>
        <time>2018-09-01T09:16:59Z</time>
      </trkpt>
      <trkpt lat="45.97443" lon="4.61964">
        <ele>380</ele>
        <time>2018-09-01T09:17:00Z</time>
      </trkpt>
      <trkpt lat="45.97442" lon="4.61951">
        <ele>381</ele>
        <time>2018-09-01T09:17:04Z</time>
      </trkpt>
      <trkpt lat="45.97441" lon="4.61949">
        <ele>381</ele>
        <time>2018-09-01T09:17:05Z</time>
      </trkpt>
      <trkpt lat="45.9744" lon="4.61937">
        <ele>381</ele>
        <time>2018-09-01T09:17:09Z</time>
      </trkpt>
      <trkpt lat="45.9744" lon="4.61934">
        <ele>381</ele>
        <time>2018-09-01T09:17:10Z</time>
      </trkpt>
      <trkpt lat="45.9744" lon="4.61924">
        <ele>381</ele>
        <time>2018-09-01T09:17:13Z</time>
      </trkpt>
      <trkpt lat="45.97439" lon="4.6192">
        <ele>382</ele>
        <time>2018-09-01T09:17:14Z</time>
      </trkpt>
      <trkpt lat="45.97438" lon="4.6191">
        <ele>383</ele>
        <time>2018-09-01T09:17:17Z</time>
      </trkpt>
      <trkpt lat="45.97437" lon="4.61907">
        <ele>383</ele>
        <time>2018-09-01T09:17:18Z</time>
      </trkpt>
      <trkpt lat="45.97436" lon="4.61896">
        <ele>383</ele>
        <time>2018-09-01T09:17:21Z</time>
      </trkpt>
      <trkpt lat="45.97436" lon="4.61892">
        <ele>383</ele>
        <time>2018-09-01T09:17:22Z</time>
      </trkpt>
      <trkpt lat="45.97435" lon="4.61882">
        <ele>383</ele>
        <time>2018-09-01T09:17:25Z</time>
      </trkpt>
      <trkpt lat="45.97435" lon="4.61879">
        <ele>383</ele>
        <time>2018-09-01T09:17:26Z</time>
      </trkpt>
      <trkpt lat="45.97434" lon="4.61869">
        <ele>384</ele>
        <time>2018-09-01T09:17:29Z</time>
      </trkpt>
      <trkpt lat="45.97434" lon="4.61866">
        <ele>384</ele>
        <time>2018-09-01T09:17:30Z</time>
      </trkpt>
      <trkpt lat="45.97433" lon="4.61853">
        <ele>384</ele>
        <time>2018-09-01T09:17:34Z</time>
      </trkpt>
      <trkpt lat="45.97433" lon="4.6185">
        <ele>384</ele>
        <time>2018-09-01T09:17:35Z</time>
      </trkpt>
      <trkpt lat="45.97433" lon="4.61838">
        <ele>385</ele>
        <time>2018-09-01T09:17:39Z</time>
      </trkpt>
      <trkpt lat="45.97433" lon="4.61835">
        <ele>385</ele>
        <time>2018-09-01T09:17:40Z</time>
      </trkpt>
      <trkpt lat="45.97432" lon="4.61823">
        <ele>386</ele>
        <time>2018-09-01T09:17:44Z</time>
      </trkpt>
      <trkpt lat="45.97432" lon="4.6182">
        <ele>386</ele>
        <time>2018-09-01T09:17:45Z</time>
      </trkpt>
      <trkpt lat="45.97433" lon="4.61809">
        <ele>387</ele>
        <time>2018-09-01T09:17:49Z</time>
      </trkpt>
      <trkpt lat="45.97433" lon="4.61805">
        <ele>387</ele>
        <time>2018-09-01T09:17:50Z</time>
      </trkpt>
      <trkpt lat="45.97435" lon="4.61793">
        <ele>387</ele>
        <time>2018-09-01T09:17:54Z</time>
      </trkpt>
      <trkpt lat="45.97435" lon="4.61788">
        <ele>387</ele>
        <time>2018-09-01T09:17:55Z</time>
      </trkpt>
      <trkpt lat="45.97437" lon="4.61778">
        <ele>388</ele>
        <time>2018-09-01T09:17:58Z</time>
      </trkpt>
      <trkpt lat="45.97438" lon="4.61774">
        <ele>388</ele>
        <time>2018-09-01T09:17:59Z</time>
      </trkpt>
      <trkpt lat="45.9744" lon="4.61764">
        <ele>388</ele>
        <time>2018-09-01T09:18:02Z</time>
      </trkpt>
      <trkpt lat="45.9744" lon="4.61761">
        <ele>388</ele>
        <time>2018-09-01T09:18:03Z</time>
      </trkpt>
      <trkpt lat="45.97445" lon="4.6175">
        <ele>390</ele>
        <time>2018-09-01T09:18:07Z</time>
      </trkpt>
      <trkpt lat="45.97446" lon="4.61747">
        <ele>390</ele>
        <time>2018-09-01T09:18:08Z</time>
      </trkpt>
      <trkpt lat="45.97449" lon="4.61736">
        <ele>390</ele>
        <time>2018-09-01T09:18:12Z</time>
      </trkpt>
      <trkpt lat="45.9745" lon="4.61734">
        <ele>390</ele>
        <time>2018-09-01T09:18:13Z</time>
      </trkpt>
      <trkpt lat="45.97453" lon="4.61722">
        <ele>390</ele>
        <time>2018-09-01T09:18:17Z</time>
      </trkpt>
      <trkpt lat="45.97454" lon="4.61719">
        <ele>390</ele>
        <time>2018-09-01T09:18:18Z</time>
      </trkpt>
      <trkpt lat="45.97457" lon="4.61707">
        <ele>390</ele>
        <time>2018-09-01T09:18:22Z</time>
      </trkpt>
      <trkpt lat="45.97457" lon="4.61704">
        <ele>390</ele>
        <time>2018-09-01T09:18:23Z</time>
      </trkpt>
      <trkpt lat="45.97458" lon="4.61694">
        <ele>390</ele>
        <time>2018-09-01T09:18:26Z</time>
      </trkpt>
      <trkpt lat="45.97459" lon="4.6169">
        <ele>390</ele>
        <time>2018-09-01T09:18:27Z</time>
      </trkpt>
      <trkpt lat="45.9746" lon="4.61681">
        <ele>390</ele>
        <time>2018-09-01T09:18:30Z</time>
      </trkpt>
      <trkpt lat="45.97461" lon="4.61677">
        <ele>390</ele>
        <time>2018-09-01T09:18:31Z</time>
      </trkpt>
      <trkpt lat="45.97461" lon="4.61668">
        <ele>390</ele>
        <time>2018-09-01T09:18:34Z</time>
      </trkpt>
      <trkpt lat="45.97462" lon="4.61665">
        <ele>393</ele>
        <time>2018-09-01T09:18:35Z</time>
      </trkpt>
      <trkpt lat="45.97462" lon="4.61653">
        <ele>393</ele>
        <time>2018-09-01T09:18:39Z</time>
      </trkpt>
      <trkpt lat="45.97462" lon="4.6165">
        <ele>393</ele>
        <time>2018-09-01T09:18:40Z</time>
      </trkpt>
      <trkpt lat="45.97463" lon="4.6164">
        <ele>393</ele>
        <time>2018-09-01T09:18:43Z</time>
      </trkpt>
      <trkpt lat="45.97462" lon="4.61637">
        <ele>393</ele>
        <time>2018-09-01T09:18:44Z</time>
      </trkpt>
      <trkpt lat="45.97462" lon="4.61626">
        <ele>394</ele>
        <time>2018-09-01T09:18:47Z</time>
      </trkpt>
      <trkpt lat="45.97462" lon="4.61623">
        <ele>394</ele>
        <time>2018-09-01T09:18:48Z</time>
      </trkpt>
      <trkpt lat="45.97461" lon="4.61612">
        <ele>394</ele>
        <time>2018-09-01T09:18:51Z</time>
      </trkpt>
      <trkpt lat="45.97461" lon="4.61608">
        <ele>394</ele>
        <time>2018-09-01T09:18:52Z</time>
      </trkpt>
      <trkpt lat="45.97461" lon="4.61596">
        <ele>394</ele>
        <time>2018-09-01T09:18:55Z</time>
      </trkpt>
      <trkpt lat="45.9746" lon="4.61592">
        <ele>394</ele>
        <time>2018-09-01T09:18:56Z</time>
      </trkpt>
      <trkpt lat="45.97459" lon="4.61583">
        <ele>395</ele>
        <time>2018-09-01T09:18:58Z</time>
      </trkpt>
      <trkpt lat="45.97459" lon="4.61577">
        <ele>395</ele>
        <time>2018-09-01T09:18:59Z</time>
      </trkpt>
      <trkpt lat="45.97458" lon="4.61568">
        <ele>396</ele>
        <time>2018-09-01T09:19:01Z</time>
      </trkpt>
      <trkpt lat="45.97457" lon="4.61563">
        <ele>396</ele>
        <time>2018-09-01T09:19:02Z</time>
      </trkpt>
      <trkpt lat="45.97456" lon="4.61553">
        <ele>396</ele>
        <time>2018-09-01T09:19:04Z</time>
      </trkpt>
      <trkpt lat="45.97456" lon="4.61549">
        <ele>396</ele>
        <time>2018-09-01T09:19:05Z</time>
      </trkpt>
      <trkpt lat="45.97454" lon="4.61541">
        <ele>396</ele>
        <time>2018-09-01T09:19:07Z</time>
      </trkpt>
      <trkpt lat="45.97454" lon="4.61536">
        <ele>396</ele>
        <time>2018-09-01T09:19:08Z</time>
      </trkpt>
      <trkpt lat="45.97452" lon="4.61525">
        <ele>396</ele>
        <time>2018-09-01T09:19:11Z</time>
      </trkpt>
      <trkpt lat="45.97451" lon="4.61522">
        <ele>396</ele>
        <time>2018-09-01T09:19:12Z</time>
      </trkpt>
      <trkpt lat="45.9745" lon="4.6151">
        <ele>396</ele>
        <time>2018-09-01T09:19:15Z</time>
      </trkpt>
      <trkpt lat="45.97449" lon="4.61506">
        <ele>396</ele>
        <time>2018-09-01T09:19:16Z</time>
      </trkpt>
      <trkpt lat="45.97448" lon="4.61495">
        <ele>396</ele>
        <time>2018-09-01T09:19:19Z</time>
      </trkpt>
      <trkpt lat="45.97447" lon="4.61491">
        <ele>396</ele>
        <time>2018-09-01T09:19:20Z</time>
      </trkpt>
      <trkpt lat="45.97447" lon="4.6148">
        <ele>396</ele>
        <time>2018-09-01T09:19:23Z</time>
      </trkpt>
      <trkpt lat="45.97446" lon="4.61476">
        <ele>395</ele>
        <time>2018-09-01T09:19:24Z</time>
      </trkpt>
      <trkpt lat="45.97445" lon="4.61464">
        <ele>395</ele>
        <time>2018-09-01T09:19:27Z</time>
      </trkpt>
      <trkpt lat="45.97445" lon="4.6146">
        <ele>395</ele>
        <time>2018-09-01T09:19:28Z</time>
      </trkpt>
      <trkpt lat="45.97443" lon="4.61448">
        <ele>395</ele>
        <time>2018-09-01T09:19:31Z</time>
      </trkpt>
      <trkpt lat="45.97442" lon="4.61444">
        <ele>395</ele>
        <time>2018-09-01T09:19:32Z</time>
      </trkpt>
      <trkpt lat="45.97439" lon="4.61435">
        <ele>396</ele>
        <time>2018-09-01T09:19:34Z</time>
      </trkpt>
      <trkpt lat="45.97438" lon="4.6143">
        <ele>396</ele>
        <time>2018-09-01T09:19:35Z</time>
      </trkpt>
      <trkpt lat="45.97436" lon="4.61421">
        <ele>396</ele>
        <time>2018-09-01T09:19:37Z</time>
      </trkpt>
      <trkpt lat="45.97435" lon="4.61417">
        <ele>396</ele>
        <time>2018-09-01T09:19:38Z</time>
      </trkpt>
      <trkpt lat="45.97433" lon="4.61405">
        <ele>395</ele>
        <time>2018-09-01T09:19:41Z</time>
      </trkpt>
      <trkpt lat="45.97432" lon="4.61401">
        <ele>395</ele>
        <time>2018-09-01T09:19:42Z</time>
      </trkpt>
      <trkpt lat="45.97431" lon="4.61393">
        <ele>394</ele>
        <time>2018-09-01T09:19:44Z</time>
      </trkpt>
      <trkpt lat="45.9743" lon="4.61388">
        <ele>394</ele>
        <time>2018-09-01T09:19:45Z</time>
      </trkpt>
      <trkpt lat="45.97429" lon="4.61384">
        <ele>394</ele>
        <time>2018-09-01T09:19:46Z</time>
      </trkpt>
      <trkpt lat="45.97428" lon="4.61371">
        <ele>394</ele>
        <time>2018-09-01T09:19:47Z</time>
      </trkpt>
      <trkpt lat="45.97425" lon="4.61361">
        <ele>394</ele>
        <time>2018-09-01T09:19:49Z</time>
      </trkpt>
      <trkpt lat="45.97424" lon="4.61356">
        <ele>394</ele>
        <time>2018-09-01T09:19:50Z</time>
      </trkpt>
      <trkpt lat="45.97422" lon="4.61346">
        <ele>394</ele>
        <time>2018-09-01T09:19:52Z</time>
      </trkpt>
      <trkpt lat="45.97421" lon="4.6134">
        <ele>395</ele>
        <time>2018-09-01T09:19:53Z</time>
      </trkpt>
      <trkpt lat="45.97419" lon="4.6133">
        <ele>395</ele>
        <time>2018-09-01T09:19:55Z</time>
      </trkpt>
      <trkpt lat="45.97418" lon="4.61325">
        <ele>394</ele>
        <time>2018-09-01T09:19:56Z</time>
      </trkpt>
      <trkpt lat="45.97415" lon="4.61313">
        <ele>397</ele>
        <time>2018-09-01T09:19:58Z</time>
      </trkpt>
      <trkpt lat="45.97413" lon="4.61307">
        <ele>397</ele>
        <time>2018-09-01T09:19:59Z</time>
      </trkpt>
      <trkpt lat="45.9741" lon="4.61299">
        <ele>397</ele>
        <time>2018-09-01T09:20:00Z</time>
      </trkpt>
      <trkpt lat="45.97408" lon="4.61292">
        <ele>397</ele>
        <time>2018-09-01T09:20:01Z</time>
      </trkpt>
      <trkpt lat="45.97409" lon="4.61281">
        <ele>397</ele>
        <time>2018-09-01T09:20:03Z</time>
      </trkpt>
      <trkpt lat="45.97406" lon="4.61275">
        <ele>396</ele>
        <time>2018-09-01T09:20:04Z</time>
      </trkpt>
      <trkpt lat="45.97403" lon="4.61268">
        <ele>396</ele>
        <time>2018-09-01T09:20:05Z</time>
      </trkpt>
      <trkpt lat="45.97402" lon="4.61261">
        <ele>395</ele>
        <time>2018-09-01T09:20:06Z</time>
      </trkpt>
      <trkpt lat="45.97398" lon="4.61249">
        <ele>394</ele>
        <time>2018-09-01T09:20:08Z</time>
      </trkpt>
      <trkpt lat="45.97397" lon="4.61242">
        <ele>394</ele>
        <time>2018-09-01T09:20:09Z</time>
      </trkpt>
      <trkpt lat="45.97392" lon="4.61231">
        <ele>395</ele>
        <time>2018-09-01T09:20:11Z</time>
      </trkpt>
      <trkpt lat="45.97393" lon="4.61224">
        <ele>395</ele>
        <time>2018-09-01T09:20:12Z</time>
      </trkpt>
      <trkpt lat="45.97391" lon="4.61217">
        <ele>395</ele>
        <time>2018-09-01T09:20:13Z</time>
      </trkpt>
      <trkpt lat="45.97391" lon="4.61211">
        <ele>395</ele>
        <time>2018-09-01T09:20:14Z</time>
      </trkpt>
      <trkpt lat="45.97392" lon="4.61204">
        <ele>395</ele>
        <time>2018-09-01T09:20:15Z</time>
      </trkpt>
      <trkpt lat="45.97392" lon="4.61196">
        <ele>395</ele>
        <time>2018-09-01T09:20:16Z</time>
      </trkpt>
      <trkpt lat="45.97394" lon="4.61189">
        <ele>394</ele>
        <time>2018-09-01T09:20:17Z</time>
      </trkpt>
      <trkpt lat="45.97395" lon="4.61182">
        <ele>394</ele>
        <time>2018-09-01T09:20:18Z</time>
      </trkpt>
      <trkpt lat="45.97395" lon="4.61175">
        <ele>393</ele>
        <time>2018-09-01T09:20:19Z</time>
      </trkpt>
      <trkpt lat="45.97394" lon="4.61168">
        <ele>393</ele>
        <time>2018-09-01T09:20:20Z</time>
      </trkpt>
      <trkpt lat="45.97396" lon="4.61162">
        <ele>395</ele>
        <time>2018-09-01T09:20:21Z</time>
      </trkpt>
      <trkpt lat="45.97396" lon="4.61154">
        <ele>395</ele>
        <time>2018-09-01T09:20:22Z</time>
      </trkpt>
      <trkpt lat="45.97399" lon="4.61144">
        <ele>396</ele>
        <time>2018-09-01T09:20:24Z</time>
      </trkpt>
      <trkpt lat="45.97398" lon="4.61136">
        <ele>397</ele>
        <time>2018-09-01T09:20:25Z</time>
      </trkpt>
      <trkpt lat="45.97402" lon="4.61126">
        <ele>397</ele>
        <time>2018-09-01T09:20:27Z</time>
      </trkpt>
      <trkpt lat="45.97405" lon="4.61121">
        <ele>397</ele>
        <time>2018-09-01T09:20:28Z</time>
      </trkpt>
      <trkpt lat="45.97406" lon="4.61114">
        <ele>397</ele>
        <time>2018-09-01T09:20:29Z</time>
      </trkpt>
      <trkpt lat="45.97408" lon="4.61108">
        <ele>397</ele>
        <time>2018-09-01T09:20:30Z</time>
      </trkpt>
      <trkpt lat="45.9741" lon="4.61099">
        <ele>396</ele>
        <time>2018-09-01T09:20:33Z</time>
      </trkpt>
      <trkpt lat="45.97411" lon="4.61096">
        <ele>396</ele>
        <time>2018-09-01T09:20:34Z</time>
      </trkpt>
      <trkpt lat="45.97414" lon="4.61084">
        <ele>394</ele>
        <time>2018-09-01T09:20:37Z</time>
      </trkpt>
      <trkpt lat="45.97415" lon="4.61081">
        <ele>395</ele>
        <time>2018-09-01T09:20:38Z</time>
      </trkpt>
      <trkpt lat="45.97418" lon="4.6107">
        <ele>392</ele>
        <time>2018-09-01T09:20:41Z</time>
      </trkpt>
      <trkpt lat="45.97419" lon="4.61066">
        <ele>392</ele>
        <time>2018-09-01T09:20:42Z</time>
      </trkpt>
      <trkpt lat="45.97421" lon="4.61054">
        <ele>392</ele>
        <time>2018-09-01T09:20:45Z</time>
      </trkpt>
      <trkpt lat="45.97422" lon="4.6105">
        <ele>392</ele>
        <time>2018-09-01T09:20:46Z</time>
      </trkpt>
      <trkpt lat="45.97426" lon="4.61039">
        <ele>393</ele>
        <time>2018-09-01T09:20:49Z</time>
      </trkpt>
      <trkpt lat="45.97427" lon="4.61035">
        <ele>394</ele>
        <time>2018-09-01T09:20:50Z</time>
      </trkpt>
      <trkpt lat="45.97431" lon="4.61024">
        <ele>395</ele>
        <time>2018-09-01T09:20:53Z</time>
      </trkpt>
      <trkpt lat="45.97432" lon="4.6102">
        <ele>396</ele>
        <time>2018-09-01T09:20:54Z</time>
      </trkpt>
      <trkpt lat="45.97435" lon="4.61011">
        <ele>396</ele>
        <time>2018-09-01T09:20:56Z</time>
      </trkpt>
      <trkpt lat="45.97437" lon="4.61007">
        <ele>396</ele>
        <time>2018-09-01T09:20:57Z</time>
      </trkpt>
      <trkpt lat="45.9744" lon="4.60996">
        <ele>400</ele>
        <time>2018-09-01T09:21:00Z</time>
      </trkpt>
      <trkpt lat="45.97441" lon="4.60991">
        <ele>400</ele>
        <time>2018-09-01T09:21:01Z</time>
      </trkpt>
      <trkpt lat="45.97442" lon="4.60982">
        <ele>399</ele>
        <time>2018-09-01T09:21:03Z</time>
      </trkpt>
      <trkpt lat="45.97443" lon="4.60977">
        <ele>399</ele>
        <time>2018-09-01T09:21:04Z</time>
      </trkpt>
      <trkpt lat="45.97446" lon="4.60964">
        <ele>398</ele>
        <time>2018-09-01T09:21:05Z</time>
      </trkpt>
      <trkpt lat="45.97449" lon="4.60953">
        <ele>399</ele>
        <time>2018-09-01T09:21:07Z</time>
      </trkpt>
      <trkpt lat="45.97449" lon="4.60951">
        <ele>399</ele>
        <time>2018-09-01T09:21:08Z</time>
      </trkpt>
      <trkpt lat="45.9745" lon="4.60944">
        <ele>399</ele>
        <time>2018-09-01T09:21:10Z</time>
      </trkpt>
      <trkpt lat="45.97452" lon="4.60933">
        <ele>399</ele>
        <time>2018-09-01T09:21:11Z</time>
      </trkpt>
      <trkpt lat="45.97455" lon="4.60921">
        <ele>399</ele>
        <time>2018-09-01T09:21:13Z</time>
      </trkpt>
      <trkpt lat="45.97456" lon="4.60915">
        <ele>402</ele>
        <time>2018-09-01T09:21:14Z</time>
      </trkpt>
      <trkpt lat="45.97458" lon="4.60903">
        <ele>401</ele>
        <time>2018-09-01T09:21:16Z</time>
      </trkpt>
      <trkpt lat="45.97459" lon="4.60898">
        <ele>401</ele>
        <time>2018-09-01T09:21:17Z</time>
      </trkpt>
      <trkpt lat="45.97462" lon="4.60886">
        <ele>401</ele>
        <time>2018-09-01T09:21:19Z</time>
      </trkpt>
      <trkpt lat="45.97465" lon="4.60879">
        <ele>401</ele>
        <time>2018-09-01T09:21:20Z</time>
      </trkpt>
      <trkpt lat="45.97465" lon="4.60868">
        <ele>402</ele>
        <time>2018-09-01T09:21:22Z</time>
      </trkpt>
      <trkpt lat="45.97466" lon="4.60862">
        <ele>402</ele>
        <time>2018-09-01T09:21:23Z</time>
      </trkpt>
      <trkpt lat="45.97468" lon="4.60852">
        <ele>401</ele>
        <time>2018-09-01T09:21:25Z</time>
      </trkpt>
      <trkpt lat="45.97469" lon="4.60847">
        <ele>401</ele>
        <time>2018-09-01T09:21:26Z</time>
      </trkpt>
      <trkpt lat="45.97471" lon="4.60836">
        <ele>401</ele>
        <time>2018-09-01T09:21:28Z</time>
      </trkpt>
      <trkpt lat="45.97471" lon="4.60831">
        <ele>402</ele>
        <time>2018-09-01T09:21:29Z</time>
      </trkpt>
      <trkpt lat="45.97472" lon="4.60824">
        <ele>402</ele>
        <time>2018-09-01T09:21:30Z</time>
      </trkpt>
      <trkpt lat="45.97474" lon="4.60818">
        <ele>402</ele>
        <time>2018-09-01T09:21:31Z</time>
      </trkpt>
      <trkpt lat="45.97476" lon="4.60806">
        <ele>403</ele>
        <time>2018-09-01T09:21:33Z</time>
      </trkpt>
      <trkpt lat="45.97477" lon="4.60798">
        <ele>403</ele>
        <time>2018-09-01T09:21:34Z</time>
      </trkpt>
      <trkpt lat="45.97478" lon="4.60792">
        <ele>403</ele>
        <time>2018-09-01T09:21:35Z</time>
      </trkpt>
      <trkpt lat="45.9748" lon="4.60785">
        <ele>403</ele>
        <time>2018-09-01T09:21:36Z</time>
      </trkpt>
      <trkpt lat="45.97481" lon="4.60774">
        <ele>403</ele>
        <time>2018-09-01T09:21:38Z</time>
      </trkpt>
      <trkpt lat="45.97483" lon="4.60769">
        <ele>402</ele>
        <time>2018-09-01T09:21:39Z</time>
      </trkpt>
      <trkpt lat="45.97485" lon="4.60758">
        <ele>402</ele>
        <time>2018-09-01T09:21:41Z</time>
      </trkpt>
      <trkpt lat="45.97487" lon="4.60753">
        <ele>401</ele>
        <time>2018-09-01T09:21:42Z</time>
      </trkpt>
      <trkpt lat="45.97492" lon="4.60744">
        <ele>400</ele>
        <time>2018-09-01T09:21:44Z</time>
      </trkpt>
      <trkpt lat="45.97494" lon="4.60739">
        <ele>401</ele>
        <time>2018-09-01T09:21:45Z</time>
      </trkpt>
      <trkpt lat="45.97496" lon="4.60732">
        <ele>402</ele>
        <time>2018-09-01T09:21:46Z</time>
      </trkpt>
      <trkpt lat="45.97498" lon="4.60725">
        <ele>402</ele>
        <time>2018-09-01T09:21:47Z</time>
      </trkpt>
      <trkpt lat="45.975" lon="4.60718">
        <ele>403</ele>
        <time>2018-09-01T09:21:48Z</time>
      </trkpt>
      <trkpt lat="45.97502" lon="4.60713">
        <ele>397</ele>
        <time>2018-09-01T09:21:49Z</time>
      </trkpt>
      <trkpt lat="45.97506" lon="4.60702">
        <ele>398</ele>
        <time>2018-09-01T09:21:51Z</time>
      </trkpt>
      <trkpt lat="45.9751" lon="4.607">
        <ele>398</ele>
        <time>2018-09-01T09:21:52Z</time>
      </trkpt>
      <trkpt lat="45.97513" lon="4.60688">
        <ele>398</ele>
        <time>2018-09-01T09:21:54Z</time>
      </trkpt>
      <trkpt lat="45.97514" lon="4.60686">
        <ele>399</ele>
        <time>2018-09-01T09:21:55Z</time>
      </trkpt>
      <trkpt lat="45.97518" lon="4.6068">
        <ele>399</ele>
        <time>2018-09-01T09:21:56Z</time>
      </trkpt>
      <trkpt lat="45.9752" lon="4.60675">
        <ele>399</ele>
        <time>2018-09-01T09:21:57Z</time>
      </trkpt>
      <trkpt lat="45.97524" lon="4.60666">
        <ele>402</ele>
        <time>2018-09-01T09:21:59Z</time>
      </trkpt>
      <trkpt lat="45.97526" lon="4.60661">
        <ele>402</ele>
        <time>2018-09-01T09:22:00Z</time>
      </trkpt>
      <trkpt lat="45.97531" lon="4.60651">
        <ele>402</ele>
        <time>2018-09-01T09:22:02Z</time>
      </trkpt>
      <trkpt lat="45.97534" lon="4.60646">
        <ele>402</ele>
        <time>2018-09-01T09:22:03Z</time>
      </trkpt>
      <trkpt lat="45.97539" lon="4.60637">
        <ele>402</ele>
        <time>2018-09-01T09:22:06Z</time>
      </trkpt>
      <trkpt lat="45.9754" lon="4.60634">
        <ele>402</ele>
        <time>2018-09-01T09:22:07Z</time>
      </trkpt>
      <trkpt lat="45.97544" lon="4.60624">
        <ele>402</ele>
        <time>2018-09-01T09:22:10Z</time>
      </trkpt>
      <trkpt lat="45.97546" lon="4.60621">
        <ele>402</ele>
        <time>2018-09-01T09:22:11Z</time>
      </trkpt>
      <trkpt lat="45.97549" lon="4.60613">
        <ele>402</ele>
        <time>2018-09-01T09:22:13Z</time>
      </trkpt>
      <trkpt lat="45.97551" lon="4.6061">
        <ele>402</ele>
        <time>2018-09-01T09:22:14Z</time>
      </trkpt>
      <trkpt lat="45.97554" lon="4.60602">
        <ele>402</ele>
        <time>2018-09-01T09:22:16Z</time>
      </trkpt>
      <trkpt lat="45.97556" lon="4.60597">
        <ele>402</ele>
        <time>2018-09-01T09:22:17Z</time>
      </trkpt>
      <trkpt lat="45.9756" lon="4.6059">
        <ele>402</ele>
        <time>2018-09-01T09:22:19Z</time>
      </trkpt>
      <trkpt lat="45.97562" lon="4.60587">
        <ele>402</ele>
        <time>2018-09-01T09:22:20Z</time>
      </trkpt>
      <trkpt lat="45.97567" lon="4.60576">
        <ele>404</ele>
        <time>2018-09-01T09:22:23Z</time>
      </trkpt>
      <trkpt lat="45.97568" lon="4.60573">
        <ele>404</ele>
        <time>2018-09-01T09:22:24Z</time>
      </trkpt>
      <trkpt lat="45.97572" lon="4.60563">
        <ele>405</ele>
        <time>2018-09-01T09:22:27Z</time>
      </trkpt>
      <trkpt lat="45.97574" lon="4.6056">
        <ele>405</ele>
        <time>2018-09-01T09:22:28Z</time>
      </trkpt>
      <trkpt lat="45.97579" lon="4.6055">
        <ele>405</ele>
        <time>2018-09-01T09:22:31Z</time>
      </trkpt>
      <trkpt lat="45.97581" lon="4.60547">
        <ele>406</ele>
        <time>2018-09-01T09:22:32Z</time>
      </trkpt>
      <trkpt lat="45.97585" lon="4.60538">
        <ele>405</ele>
        <time>2018-09-01T09:22:35Z</time>
      </trkpt>
      <trkpt lat="45.97587" lon="4.60536">
        <ele>405</ele>
        <time>2018-09-01T09:22:36Z</time>
      </trkpt>
      <trkpt lat="45.97592" lon="4.60528">
        <ele>406</ele>
        <time>2018-09-01T09:22:39Z</time>
      </trkpt>
      <trkpt lat="45.97593" lon="4.60525">
        <ele>406</ele>
        <time>2018-09-01T09:22:40Z</time>
      </trkpt>
      <trkpt lat="45.97597" lon="4.60516">
        <ele>406</ele>
        <time>2018-09-01T09:22:43Z</time>
      </trkpt>
      <trkpt lat="45.97598" lon="4.60514">
        <ele>407</ele>
        <time>2018-09-01T09:22:44Z</time>
      </trkpt>
      <trkpt lat="45.97602" lon="4.60504">
        <ele>407</ele>
        <time>2018-09-01T09:22:47Z</time>
      </trkpt>
      <trkpt lat="45.97604" lon="4.60501">
        <ele>407</ele>
        <time>2018-09-01T09:22:48Z</time>
      </trkpt>
      <trkpt lat="45.97608" lon="4.60492">
        <ele>409</ele>
        <time>2018-09-01T09:22:51Z</time>
      </trkpt>
      <trkpt lat="45.9761" lon="4.60489">
        <ele>409</ele>
        <time>2018-09-01T09:22:52Z</time>
      </trkpt>
      <trkpt lat="45.97613" lon="4.60483">
        <ele>409</ele>
        <time>2018-09-01T09:22:54Z</time>
      </trkpt>
      <trkpt lat="45.97615" lon="4.60478">
        <ele>409</ele>
        <time>2018-09-01T09:22:55Z</time>
      </trkpt>
      <trkpt lat="45.9762" lon="4.60469">
        <ele>409</ele>
        <time>2018-09-01T09:22:58Z</time>
      </trkpt>
      <trkpt lat="45.97621" lon="4.60466">
        <ele>409</ele>
        <time>2018-09-01T09:22:59Z</time>
      </trkpt>
      <trkpt lat="45.97625" lon="4.60458">
        <ele>410</ele>
        <time>2018-09-01T09:23:02Z</time>
      </trkpt>
      <trkpt lat="45.97626" lon="4.60455">
        <ele>410</ele>
        <time>2018-09-01T09:23:03Z</time>
      </trkpt>
      <trkpt lat="45.97631" lon="4.60444">
        <ele>410</ele>
        <time>2018-09-01T09:23:07Z</time>
      </trkpt>
      <trkpt lat="45.97632" lon="4.60441">
        <ele>410</ele>
        <time>2018-09-01T09:23:08Z</time>
      </trkpt>
      <trkpt lat="45.97635" lon="4.60432">
        <ele>410</ele>
        <time>2018-09-01T09:23:11Z</time>
      </trkpt>
      <trkpt lat="45.97636" lon="4.60428">
        <ele>410</ele>
        <time>2018-09-01T09:23:12Z</time>
      </trkpt>
      <trkpt lat="45.97639" lon="4.60419">
        <ele>409</ele>
        <time>2018-09-01T09:23:15Z</time>
      </trkpt>
      <trkpt lat="45.9764" lon="4.60416">
        <ele>412</ele>
        <time>2018-09-01T09:23:16Z</time>
      </trkpt>
      <trkpt lat="45.97642" lon="4.60407">
        <ele>412</ele>
        <time>2018-09-01T09:23:19Z</time>
      </trkpt>
      <trkpt lat="45.97643" lon="4.60404">
        <ele>412</ele>
        <time>2018-09-01T09:23:20Z</time>
      </trkpt>
      <trkpt lat="45.97645" lon="4.60393">
        <ele>413</ele>
        <time>2018-09-01T09:23:23Z</time>
      </trkpt>
      <trkpt lat="45.97646" lon="4.6039">
        <ele>413</ele>
        <time>2018-09-01T09:23:24Z</time>
      </trkpt>
      <trkpt lat="45.9765" lon="4.60379">
        <ele>413</ele>
        <time>2018-09-01T09:23:27Z</time>
      </trkpt>
      <trkpt lat="45.97651" lon="4.60376">
        <ele>414</ele>
        <time>2018-09-01T09:23:28Z</time>
      </trkpt>
      <trkpt lat="45.97654" lon="4.60366">
        <ele>414</ele>
        <time>2018-09-01T09:23:31Z</time>
      </trkpt>
      <trkpt lat="45.97655" lon="4.60362">
        <ele>414</ele>
        <time>2018-09-01T09:23:32Z</time>
      </trkpt>
      <trkpt lat="45.97658" lon="4.60352">
        <ele>414</ele>
        <time>2018-09-01T09:23:35Z</time>
      </trkpt>
      <trkpt lat="45.97658" lon="4.60349">
        <ele>414</ele>
        <time>2018-09-01T09:23:36Z</time>
      </trkpt>
      <trkpt lat="45.97661" lon="4.6034">
        <ele>414</ele>
        <time>2018-09-01T09:23:39Z</time>
      </trkpt>
      <trkpt lat="45.97662" lon="4.60336">
        <ele>413</ele>
        <time>2018-09-01T09:23:40Z</time>
      </trkpt>
      <trkpt lat="45.97665" lon="4.60327">
        <ele>415</ele>
        <time>2018-09-01T09:23:43Z</time>
      </trkpt>
      <trkpt lat="45.97666" lon="4.60323">
        <ele>416</ele>
        <time>2018-09-01T09:23:44Z</time>
      </trkpt>
      <trkpt lat="45.97669" lon="4.60314">
        <ele>413</ele>
        <time>2018-09-01T09:23:47Z</time>
      </trkpt>
      <trkpt lat="45.9767" lon="4.6031">
        <ele>413</ele>
        <time>2018-09-01T09:23:48Z</time>
      </trkpt>
      <trkpt lat="45.97673" lon="4.60298">
        <ele>414</ele>
        <time>2018-09-01T09:23:52Z</time>
      </trkpt>
      <trkpt lat="45.97674" lon="4.60296">
        <ele>414</ele>
        <time>2018-09-01T09:23:53Z</time>
      </trkpt>
      <trkpt lat="45.97678" lon="4.60287">
        <ele>414</ele>
        <time>2018-09-01T09:23:56Z</time>
      </trkpt>
      <trkpt lat="45.97679" lon="4.60284">
        <ele>414</ele>
        <time>2018-09-01T09:23:57Z</time>
      </trkpt>
      <trkpt lat="45.97683" lon="4.60273">
        <ele>415</ele>
        <time>2018-09-01T09:24:01Z</time>
      </trkpt>
      <trkpt lat="45.97684" lon="4.6027">
        <ele>415</ele>
        <time>2018-09-01T09:24:02Z</time>
      </trkpt>
      <trkpt lat="45.97687" lon="4.6026">
        <ele>415</ele>
        <time>2018-09-01T09:24:05Z</time>
      </trkpt>
      <trkpt lat="45.97688" lon="4.60256">
        <ele>416</ele>
        <time>2018-09-01T09:24:06Z</time>
      </trkpt>
      <trkpt lat="45.97691" lon="4.60245">
        <ele>418</ele>
        <time>2018-09-01T09:24:09Z</time>
      </trkpt>
      <trkpt lat="45.97692" lon="4.60241">
        <ele>417</ele>
        <time>2018-09-01T09:24:10Z</time>
      </trkpt>
      <trkpt lat="45.97696" lon="4.60231">
        <ele>417</ele>
        <time>2018-09-01T09:24:13Z</time>
      </trkpt>
      <trkpt lat="45.97697" lon="4.60227">
        <ele>417</ele>
        <time>2018-09-01T09:24:14Z</time>
      </trkpt>
      <trkpt lat="45.97699" lon="4.60217">
        <ele>417</ele>
        <time>2018-09-01T09:24:17Z</time>
      </trkpt>
      <trkpt lat="45.977" lon="4.60214">
        <ele>417</ele>
        <time>2018-09-01T09:24:18Z</time>
      </trkpt>
      <trkpt lat="45.97703" lon="4.60202">
        <ele>417</ele>
        <time>2018-09-01T09:24:21Z</time>
      </trkpt>
      <trkpt lat="45.97704" lon="4.60199">
        <ele>417</ele>
        <time>2018-09-01T09:24:22Z</time>
      </trkpt>
      <trkpt lat="45.97708" lon="4.60188">
        <ele>417</ele>
        <time>2018-09-01T09:24:25Z</time>
      </trkpt>
      <trkpt lat="45.97709" lon="4.60184">
        <ele>417</ele>
        <time>2018-09-01T09:24:26Z</time>
      </trkpt>
      <trkpt lat="45.97712" lon="4.60174">
        <ele>417</ele>
        <time>2018-09-01T09:24:29Z</time>
      </trkpt>
      <trkpt lat="45.97714" lon="4.6017">
        <ele>417</ele>
        <time>2018-09-01T09:24:30Z</time>
      </trkpt>
      <trkpt lat="45.97717" lon="4.60158">
        <ele>419</ele>
        <time>2018-09-01T09:24:33Z</time>
      </trkpt>
      <trkpt lat="45.97718" lon="4.60155">
        <ele>419</ele>
        <time>2018-09-01T09:24:34Z</time>
      </trkpt>
      <trkpt lat="45.9772" lon="4.60144">
        <ele>419</ele>
        <time>2018-09-01T09:24:37Z</time>
      </trkpt>
      <trkpt lat="45.97721" lon="4.6014">
        <ele>420</ele>
        <time>2018-09-01T09:24:38Z</time>
      </trkpt>
      <trkpt lat="45.97723" lon="4.60128">
        <ele>420</ele>
        <time>2018-09-01T09:24:41Z</time>
      </trkpt>
      <trkpt lat="45.97724" lon="4.60125">
        <ele>420</ele>
        <time>2018-09-01T09:24:42Z</time>
      </trkpt>
      <trkpt lat="45.97726" lon="4.60114">
        <ele>420</ele>
        <time>2018-09-01T09:24:45Z</time>
      </trkpt>
      <trkpt lat="45.97727" lon="4.6011">
        <ele>420</ele>
        <time>2018-09-01T09:24:46Z</time>
      </trkpt>
      <trkpt lat="45.97728" lon="4.60101">
        <ele>420</ele>
        <time>2018-09-01T09:24:49Z</time>
      </trkpt>
      <trkpt lat="45.97729" lon="4.60098">
        <ele>420</ele>
        <time>2018-09-01T09:24:50Z</time>
      </trkpt>
      <trkpt lat="45.97733" lon="4.60089">
        <ele>420</ele>
        <time>2018-09-01T09:24:53Z</time>
      </trkpt>
      <trkpt lat="45.97734" lon="4.60086">
        <ele>420</ele>
        <time>2018-09-01T09:24:54Z</time>
      </trkpt>
      <trkpt lat="45.97737" lon="4.60075">
        <ele>422</ele>
        <time>2018-09-01T09:24:58Z</time>
      </trkpt>
      <trkpt lat="45.97738" lon="4.60072">
        <ele>422</ele>
        <time>2018-09-01T09:24:59Z</time>
      </trkpt>
      <trkpt lat="45.9774" lon="4.60063">
        <ele>423</ele>
        <time>2018-09-01T09:25:02Z</time>
      </trkpt>
      <trkpt lat="45.97741" lon="4.6006">
        <ele>423</ele>
        <time>2018-09-01T09:25:03Z</time>
      </trkpt>
      <trkpt lat="45.97742" lon="4.60048">
        <ele>424</ele>
        <time>2018-09-01T09:25:07Z</time>
      </trkpt>
      <trkpt lat="45.97743" lon="4.60045">
        <ele>424</ele>
        <time>2018-09-01T09:25:08Z</time>
      </trkpt>
      <trkpt lat="45.97745" lon="4.60033">
        <ele>425</ele>
        <time>2018-09-01T09:25:12Z</time>
      </trkpt>
      <trkpt lat="45.97746" lon="4.60031">
        <ele>425</ele>
        <time>2018-09-01T09:25:13Z</time>
      </trkpt>
      <trkpt lat="45.97748" lon="4.60021">
        <ele>425</ele>
        <time>2018-09-01T09:25:16Z</time>
      </trkpt>
      <trkpt lat="45.97748" lon="4.60018">
        <ele>425</ele>
        <time>2018-09-01T09:25:17Z</time>
      </trkpt>
      <trkpt lat="45.9775" lon="4.60007">
        <ele>425</ele>
        <time>2018-09-01T09:25:21Z</time>
      </trkpt>
      <trkpt lat="45.9775" lon="4.60004">
        <ele>425</ele>
        <time>2018-09-01T09:25:22Z</time>
      </trkpt>
      <trkpt lat="45.97753" lon="4.59992">
        <ele>425</ele>
        <time>2018-09-01T09:25:26Z</time>
      </trkpt>
      <trkpt lat="45.97753" lon="4.5999">
        <ele>425</ele>
        <time>2018-09-01T09:25:27Z</time>
      </trkpt>
      <trkpt lat="45.97756" lon="4.59978">
        <ele>424</ele>
        <time>2018-09-01T09:25:31Z</time>
      </trkpt>
      <trkpt lat="45.97757" lon="4.59975">
        <ele>425</ele>
        <time>2018-09-01T09:25:32Z</time>
      </trkpt>
      <trkpt lat="45.97759" lon="4.59965">
        <ele>425</ele>
        <time>2018-09-01T09:25:36Z</time>
      </trkpt>
      <trkpt lat="45.9776" lon="4.59962">
        <ele>425</ele>
        <time>2018-09-01T09:25:37Z</time>
      </trkpt>
      <trkpt lat="45.97762" lon="4.5995">
        <ele>425</ele>
        <time>2018-09-01T09:25:40Z</time>
      </trkpt>
      <trkpt lat="45.97762" lon="4.59947">
        <ele>426</ele>
        <time>2018-09-01T09:25:41Z</time>
      </trkpt>
      <trkpt lat="45.97762" lon="4.59936">
        <ele>426</ele>
        <time>2018-09-01T09:25:45Z</time>
      </trkpt>
      <trkpt lat="45.97763" lon="4.59933">
        <ele>427</ele>
        <time>2018-09-01T09:25:46Z</time>
      </trkpt>
      <trkpt lat="45.97764" lon="4.59921">
        <ele>427</ele>
        <time>2018-09-01T09:25:51Z</time>
      </trkpt>
      <trkpt lat="45.97765" lon="4.59918">
        <ele>427</ele>
        <time>2018-09-01T09:25:52Z</time>
      </trkpt>
      <trkpt lat="45.97767" lon="4.59908">
        <ele>430</ele>
        <time>2018-09-01T09:25:56Z</time>
      </trkpt>
      <trkpt lat="45.97767" lon="4.59905">
        <ele>430</ele>
        <time>2018-09-01T09:25:57Z</time>
      </trkpt>
      <trkpt lat="45.9777" lon="4.59894">
        <ele>430</ele>
        <time>2018-09-01T09:26:01Z</time>
      </trkpt>
      <trkpt lat="45.9777" lon="4.59891">
        <ele>430</ele>
        <time>2018-09-01T09:26:02Z</time>
      </trkpt>
      <trkpt lat="45.97772" lon="4.5988">
        <ele>430</ele>
        <time>2018-09-01T09:26:06Z</time>
      </trkpt>
      <trkpt lat="45.97772" lon="4.59877">
        <ele>430</ele>
        <time>2018-09-01T09:26:07Z</time>
      </trkpt>
      <trkpt lat="45.97773" lon="4.59865">
        <ele>431</ele>
        <time>2018-09-01T09:26:11Z</time>
      </trkpt>
      <trkpt lat="45.97773" lon="4.59862">
        <ele>431</ele>
        <time>2018-09-01T09:26:12Z</time>
      </trkpt>
      <trkpt lat="45.97773" lon="4.59851">
        <ele>431</ele>
        <time>2018-09-01T09:26:16Z</time>
      </trkpt>
      <trkpt lat="45.97773" lon="4.59849">
        <ele>432</ele>
        <time>2018-09-01T09:26:17Z</time>
      </trkpt>
      <trkpt lat="45.97775" lon="4.59837">
        <ele>432</ele>
        <time>2018-09-01T09:26:21Z</time>
      </trkpt>
      <trkpt lat="45.97775" lon="4.59835">
        <ele>432</ele>
        <time>2018-09-01T09:26:22Z</time>
      </trkpt>
      <trkpt lat="45.97776" lon="4.59822">
        <ele>435</ele>
        <time>2018-09-01T09:26:27Z</time>
      </trkpt>
      <trkpt lat="45.97777" lon="4.5982">
        <ele>435</ele>
        <time>2018-09-01T09:26:28Z</time>
      </trkpt>
      <trkpt lat="45.97778" lon="4.59809">
        <ele>435</ele>
        <time>2018-09-01T09:26:32Z</time>
      </trkpt>
      <trkpt lat="45.97778" lon="4.59806">
        <ele>435</ele>
        <time>2018-09-01T09:26:33Z</time>
      </trkpt>
      <trkpt lat="45.97781" lon="4.59796">
        <ele>435</ele>
        <time>2018-09-01T09:26:37Z</time>
      </trkpt>
      <trkpt lat="45.97782" lon="4.59793">
        <ele>435</ele>
        <time>2018-09-01T09:26:38Z</time>
      </trkpt>
      <trkpt lat="45.97785" lon="4.59782">
        <ele>435</ele>
        <time>2018-09-01T09:26:43Z</time>
      </trkpt>
      <trkpt lat="45.97785" lon="4.59779">
        <ele>435</ele>
        <time>2018-09-01T09:26:44Z</time>
      </trkpt>
      <trkpt lat="45.97788" lon="4.59767">
        <ele>435</ele>
        <time>2018-09-01T09:26:48Z</time>
      </trkpt>
      <trkpt lat="45.97788" lon="4.59763">
        <ele>435</ele>
        <time>2018-09-01T09:26:49Z</time>
      </trkpt>
      <trkpt lat="45.9779" lon="4.59752">
        <ele>435</ele>
        <time>2018-09-01T09:26:53Z</time>
      </trkpt>
      <trkpt lat="45.97791" lon="4.5975">
        <ele>439</ele>
        <time>2018-09-01T09:26:54Z</time>
      </trkpt>
      <trkpt lat="45.97793" lon="4.59738">
        <ele>439</ele>
        <time>2018-09-01T09:26:58Z</time>
      </trkpt>
      <trkpt lat="45.97793" lon="4.59736">
        <ele>439</ele>
        <time>2018-09-01T09:26:59Z</time>
      </trkpt>
      <trkpt lat="45.97794" lon="4.59724">
        <ele>440</ele>
        <time>2018-09-01T09:27:03Z</time>
      </trkpt>
      <trkpt lat="45.97795" lon="4.59722">
        <ele>440</ele>
        <time>2018-09-01T09:27:04Z</time>
      </trkpt>
      <trkpt lat="45.97797" lon="4.59711">
        <ele>440</ele>
        <time>2018-09-01T09:27:08Z</time>
      </trkpt>
      <trkpt lat="45.97798" lon="4.59708">
        <ele>440</ele>
        <time>2018-09-01T09:27:09Z</time>
      </trkpt>
      <trkpt lat="45.97801" lon="4.59697">
        <ele>440</ele>
        <time>2018-09-01T09:27:13Z</time>
      </trkpt>
      <trkpt lat="45.97802" lon="4.59694">
        <ele>440</ele>
        <time>2018-09-01T09:27:14Z</time>
      </trkpt>
      <trkpt lat="45.97807" lon="4.59685">
        <ele>440</ele>
        <time>2018-09-01T09:27:18Z</time>
      </trkpt>
      <trkpt lat="45.97808" lon="4.59682">
        <ele>440</ele>
        <time>2018-09-01T09:27:19Z</time>
      </trkpt>
      <trkpt lat="45.97813" lon="4.59672">
        <ele>440</ele>
        <time>2018-09-01T09:27:24Z</time>
      </trkpt>
      <trkpt lat="45.97814" lon="4.59671">
        <ele>440</ele>
        <time>2018-09-01T09:27:25Z</time>
      </trkpt>
      <trkpt lat="45.9782" lon="4.5966">
        <ele>445</ele>
        <time>2018-09-01T09:27:30Z</time>
      </trkpt>
      <trkpt lat="45.97821" lon="4.59658">
        <ele>445</ele>
        <time>2018-09-01T09:27:31Z</time>
      </trkpt>
      <trkpt lat="45.97827" lon="4.59649">
        <ele>447</ele>
        <time>2018-09-01T09:27:36Z</time>
      </trkpt>
      <trkpt lat="45.97828" lon="4.59647">
        <ele>447</ele>
        <time>2018-09-01T09:27:37Z</time>
      </trkpt>
      <trkpt lat="45.97835" lon="4.59642">
        <ele>444</ele>
        <time>2018-09-01T09:27:41Z</time>
      </trkpt>
      <trkpt lat="45.97837" lon="4.59641">
        <ele>444</ele>
        <time>2018-09-01T09:27:42Z</time>
      </trkpt>
      <trkpt lat="45.97844" lon="4.59634">
        <ele>446</ele>
        <time>2018-09-01T09:27:47Z</time>
      </trkpt>
      <trkpt lat="45.97845" lon="4.59633">
        <ele>446</ele>
        <time>2018-09-01T09:27:48Z</time>
      </trkpt>
      <trkpt lat="45.97852" lon="4.59629">
        <ele>446</ele>
        <time>2018-09-01T09:27:53Z</time>
      </trkpt>
      <trkpt lat="45.97854" lon="4.59629">
        <ele>446</ele>
        <time>2018-09-01T09:27:54Z</time>
      </trkpt>
      <trkpt lat="45.97862" lon="4.59625">
        <ele>446</ele>
        <time>2018-09-01T09:27:59Z</time>
      </trkpt>
      <trkpt lat="45.97864" lon="4.59624">
        <ele>446</ele>
        <time>2018-09-01T09:28:00Z</time>
      </trkpt>
      <trkpt lat="45.97871" lon="4.59621">
        <ele>446</ele>
        <time>2018-09-01T09:28:04Z</time>
      </trkpt>
      <trkpt lat="45.97873" lon="4.59621">
        <ele>446</ele>
        <time>2018-09-01T09:28:05Z</time>
      </trkpt>
      <trkpt lat="45.9788" lon="4.59621">
        <ele>446</ele>
        <time>2018-09-01T09:28:09Z</time>
      </trkpt>
      <trkpt lat="45.97882" lon="4.59621">
        <ele>446</ele>
        <time>2018-09-01T09:28:10Z</time>
      </trkpt>
      <trkpt lat="45.97889" lon="4.59617">
        <ele>446</ele>
        <time>2018-09-01T09:28:14Z</time>
      </trkpt>
      <trkpt lat="45.97891" lon="4.59616">
        <ele>446</ele>
        <time>2018-09-01T09:28:15Z</time>
      </trkpt>
      <trkpt lat="45.979" lon="4.59614">
        <ele>446</ele>
        <time>2018-09-01T09:28:20Z</time>
      </trkpt>
      <trkpt lat="45.97902" lon="4.59614">
        <ele>446</ele>
        <time>2018-09-01T09:28:21Z</time>
      </trkpt>
      <trkpt lat="45.97909" lon="4.59613">
        <ele>446</ele>
        <time>2018-09-01T09:28:25Z</time>
      </trkpt>
      <trkpt lat="45.97911" lon="4.59612">
        <ele>446</ele>
        <time>2018-09-01T09:28:26Z</time>
      </trkpt>
      <trkpt lat="45.97917" lon="4.59606">
        <ele>440</ele>
        <time>2018-09-01T09:28:30Z</time>
      </trkpt>
      <trkpt lat="45.97919" lon="4.59605">
        <ele>441</ele>
        <time>2018-09-01T09:28:31Z</time>
      </trkpt>
      <trkpt lat="45.97925" lon="4.59596">
        <ele>442</ele>
        <time>2018-09-01T09:28:36Z</time>
      </trkpt>
      <trkpt lat="45.97927" lon="4.59595">
        <ele>442</ele>
        <time>2018-09-01T09:28:37Z</time>
      </trkpt>
      <trkpt lat="45.97931" lon="4.59586">
        <ele>442</ele>
        <time>2018-09-01T09:28:41Z</time>
      </trkpt>
      <trkpt lat="45.97932" lon="4.59584">
        <ele>442</ele>
        <time>2018-09-01T09:28:42Z</time>
      </trkpt>
      <trkpt lat="45.97938" lon="4.59577">
        <ele>447</ele>
        <time>2018-09-01T09:28:47Z</time>
      </trkpt>
      <trkpt lat="45.97939" lon="4.59575">
        <ele>447</ele>
        <time>2018-09-01T09:28:48Z</time>
      </trkpt>
      <trkpt lat="45.97942" lon="4.59566">
        <ele>447</ele>
        <time>2018-09-01T09:28:52Z</time>
      </trkpt>
      <trkpt lat="45.97943" lon="4.59563">
        <ele>447</ele>
        <time>2018-09-01T09:28:53Z</time>
      </trkpt>
      <trkpt lat="45.97944" lon="4.59552">
        <ele>447</ele>
        <time>2018-09-01T09:28:57Z</time>
      </trkpt>
      <trkpt lat="45.97944" lon="4.59549">
        <ele>448</ele>
        <time>2018-09-01T09:28:58Z</time>
      </trkpt>
      <trkpt lat="45.97944" lon="4.59538">
        <ele>449</ele>
        <time>2018-09-01T09:29:02Z</time>
      </trkpt>
      <trkpt lat="45.97944" lon="4.59535">
        <ele>449</ele>
        <time>2018-09-01T09:29:03Z</time>
      </trkpt>
      <trkpt lat="45.97946" lon="4.59525">
        <ele>450</ele>
        <time>2018-09-01T09:29:07Z</time>
      </trkpt>
      <trkpt lat="45.97946" lon="4.59522">
        <ele>450</ele>
        <time>2018-09-01T09:29:08Z</time>
      </trkpt>
      <trkpt lat="45.97948" lon="4.59511">
        <ele>451</ele>
        <time>2018-09-01T09:29:13Z</time>
      </trkpt>
      <trkpt lat="45.97948" lon="4.59508">
        <ele>451</ele>
        <time>2018-09-01T09:29:14Z</time>
      </trkpt>
      <trkpt lat="45.97949" lon="4.59497">
        <ele>458</ele>
        <time>2018-09-01T09:29:18Z</time>
      </trkpt>
      <trkpt lat="45.9795" lon="4.59495">
        <ele>458</ele>
        <time>2018-09-01T09:29:19Z</time>
      </trkpt>
      <trkpt lat="45.97953" lon="4.59485">
        <ele>458</ele>
        <time>2018-09-01T09:29:23Z</time>
      </trkpt>
      <trkpt lat="45.97953" lon="4.59483">
        <ele>458</ele>
        <time>2018-09-01T09:29:24Z</time>
      </trkpt>
      <trkpt lat="45.97955" lon="4.59471">
        <ele>459</ele>
        <time>2018-09-01T09:29:29Z</time>
      </trkpt>
      <trkpt lat="45.97956" lon="4.59468">
        <ele>459</ele>
        <time>2018-09-01T09:29:30Z</time>
      </trkpt>
      <trkpt lat="45.9796" lon="4.59456">
        <ele>459</ele>
        <time>2018-09-01T09:29:35Z</time>
      </trkpt>
      <trkpt lat="45.97961" lon="4.59454">
        <ele>459</ele>
        <time>2018-09-01T09:29:36Z</time>
      </trkpt>
      <trkpt lat="45.97966" lon="4.59446">
        <ele>459</ele>
        <time>2018-09-01T09:29:40Z</time>
      </trkpt>
      <trkpt lat="45.97967" lon="4.59444">
        <ele>459</ele>
        <time>2018-09-01T09:29:41Z</time>
      </trkpt>
      <trkpt lat="45.97971" lon="4.59436">
        <ele>459</ele>
        <time>2018-09-01T09:29:45Z</time>
      </trkpt>
      <trkpt lat="45.97972" lon="4.59434">
        <ele>459</ele>
        <time>2018-09-01T09:29:46Z</time>
      </trkpt>
      <trkpt lat="45.97978" lon="4.59424">
        <ele>458</ele>
        <time>2018-09-01T09:29:50Z</time>
      </trkpt>
      <trkpt lat="45.97979" lon="4.59422">
        <ele>458</ele>
        <time>2018-09-01T09:29:51Z</time>
      </trkpt>
      <trkpt lat="45.97983" lon="4.59413">
        <ele>461</ele>
        <time>2018-09-01T09:29:55Z</time>
      </trkpt>
      <trkpt lat="45.97984" lon="4.5941">
        <ele>461</ele>
        <time>2018-09-01T09:29:56Z</time>
      </trkpt>
      <trkpt lat="45.97984" lon="4.59399">
        <ele>462</ele>
        <time>2018-09-01T09:30:00Z</time>
      </trkpt>
      <trkpt lat="45.97985" lon="4.59396">
        <ele>462</ele>
        <time>2018-09-01T09:30:01Z</time>
      </trkpt>
      <trkpt lat="45.97985" lon="4.59384">
        <ele>463</ele>
        <time>2018-09-01T09:30:06Z</time>
      </trkpt>
      <trkpt lat="45.97985" lon="4.59382">
        <ele>463</ele>
        <time>2018-09-01T09:30:07Z</time>
      </trkpt>
      <trkpt lat="45.97985" lon="4.5937">
        <ele>463</ele>
        <time>2018-09-01T09:30:12Z</time>
      </trkpt>
      <trkpt lat="45.97984" lon="4.59368">
        <ele>463</ele>
        <time>2018-09-01T09:30:13Z</time>
      </trkpt>
      <trkpt lat="45.97983" lon="4.59357">
        <ele>463</ele>
        <time>2018-09-01T09:30:17Z</time>
      </trkpt>
      <trkpt lat="45.97982" lon="4.59355">
        <ele>463</ele>
        <time>2018-09-01T09:30:18Z</time>
      </trkpt>
      <trkpt lat="45.97979" lon="4.59344">
        <ele>463</ele>
        <time>2018-09-01T09:30:22Z</time>
      </trkpt>
      <trkpt lat="45.97978" lon="4.59342">
        <ele>463</ele>
        <time>2018-09-01T09:30:23Z</time>
      </trkpt>
      <trkpt lat="45.97975" lon="4.59329">
        <ele>465</ele>
        <time>2018-09-01T09:30:28Z</time>
      </trkpt>
      <trkpt lat="45.97975" lon="4.59327">
        <ele>465</ele>
        <time>2018-09-01T09:30:29Z</time>
      </trkpt>
      <trkpt lat="45.97973" lon="4.59316">
        <ele>466</ele>
        <time>2018-09-01T09:30:33Z</time>
      </trkpt>
      <trkpt lat="45.97972" lon="4.59313">
        <ele>466</ele>
        <time>2018-09-01T09:30:34Z</time>
      </trkpt>
      <trkpt lat="45.97971" lon="4.59303">
        <ele>467</ele>
        <time>2018-09-01T09:30:38Z</time>
      </trkpt>
      <trkpt lat="45.9797" lon="4.593">
        <ele>467</ele>
        <time>2018-09-01T09:30:39Z</time>
      </trkpt>
      <trkpt lat="45.97968" lon="4.59289">
        <ele>468</ele>
        <time>2018-09-01T09:30:44Z</time>
      </trkpt>
      <trkpt lat="45.97967" lon="4.59286">
        <ele>468</ele>
        <time>2018-09-01T09:30:45Z</time>
      </trkpt>
      <trkpt lat="45.97966" lon="4.59276">
        <ele>468</ele>
        <time>2018-09-01T09:30:49Z</time>
      </trkpt>
      <trkpt lat="45.97965" lon="4.59273">
        <ele>468</ele>
        <time>2018-09-01T09:30:50Z</time>
      </trkpt>
      <trkpt lat="45.97964" lon="4.5926">
        <ele>468</ele>
        <time>2018-09-01T09:30:54Z</time>
      </trkpt>
      <trkpt lat="45.97963" lon="4.59258">
        <ele>468</ele>
        <time>2018-09-01T09:30:55Z</time>
      </trkpt>
      <trkpt lat="45.97961" lon="4.59247">
        <ele>471</ele>
        <time>2018-09-01T09:31:00Z</time>
      </trkpt>
      <trkpt lat="45.97961" lon="4.59245">
        <ele>471</ele>
        <time>2018-09-01T09:31:01Z</time>
      </trkpt>
      <trkpt lat="45.97961" lon="4.59232">
        <ele>472</ele>
        <time>2018-09-01T09:31:07Z</time>
      </trkpt>
      <trkpt lat="45.97961" lon="4.59229">
        <ele>472</ele>
        <time>2018-09-01T09:31:08Z</time>
      </trkpt>
      <trkpt lat="45.97963" lon="4.59217">
        <ele>472</ele>
        <time>2018-09-01T09:31:12Z</time>
      </trkpt>
      <trkpt lat="45.97964" lon="4.59214">
        <ele>472</ele>
        <time>2018-09-01T09:31:13Z</time>
      </trkpt>
      <trkpt lat="45.97967" lon="4.59204">
        <ele>472</ele>
        <time>2018-09-01T09:31:17Z</time>
      </trkpt>
      <trkpt lat="45.97968" lon="4.59202">
        <ele>472</ele>
        <time>2018-09-01T09:31:18Z</time>
      </trkpt>
      <trkpt lat="45.97972" lon="4.59193">
        <ele>472</ele>
        <time>2018-09-01T09:31:22Z</time>
      </trkpt>
      <trkpt lat="45.97974" lon="4.59192">
        <ele>472</ele>
        <time>2018-09-01T09:31:23Z</time>
      </trkpt>
      <trkpt lat="45.9798" lon="4.59186">
        <ele>472</ele>
        <time>2018-09-01T09:31:27Z</time>
      </trkpt>
      <trkpt lat="45.97982" lon="4.59184">
        <ele>471</ele>
        <time>2018-09-01T09:31:28Z</time>
      </trkpt>
      <trkpt lat="45.97989" lon="4.59178">
        <ele>471</ele>
        <time>2018-09-01T09:31:32Z</time>
      </trkpt>
      <trkpt lat="45.97991" lon="4.59176">
        <ele>471</ele>
        <time>2018-09-01T09:31:33Z</time>
      </trkpt>
      <trkpt lat="45.97999" lon="4.59172">
        <ele>470</ele>
        <time>2018-09-01T09:31:37Z</time>
      </trkpt>
      <trkpt lat="45.98" lon="4.59171">
        <ele>467</ele>
        <time>2018-09-01T09:31:38Z</time>
      </trkpt>
      <trkpt lat="45.98009" lon="4.59167">
        <ele>466</ele>
        <time>2018-09-01T09:31:43Z</time>
      </trkpt>
      <trkpt lat="45.9801" lon="4.59166">
        <ele>470</ele>
        <time>2018-09-01T09:31:44Z</time>
      </trkpt>
      <trkpt lat="45.98018" lon="4.59161">
        <ele>470</ele>
        <time>2018-09-01T09:31:49Z</time>
      </trkpt>
      <trkpt lat="45.98019" lon="4.59159">
        <ele>470</ele>
        <time>2018-09-01T09:31:50Z</time>
      </trkpt>
      <trkpt lat="45.98026" lon="4.59152">
        <ele>471</ele>
        <time>2018-09-01T09:31:54Z</time>
      </trkpt>
      <trkpt lat="45.98028" lon="4.5915">
        <ele>471</ele>
        <time>2018-09-01T09:31:55Z</time>
      </trkpt>
      <trkpt lat="45.98034" lon="4.59143">
        <ele>471</ele>
        <time>2018-09-01T09:31:59Z</time>
      </trkpt>
      <trkpt lat="45.98035" lon="4.59141">
        <ele>471</ele>
        <time>2018-09-01T09:32:00Z</time>
      </trkpt>
      <trkpt lat="45.9804" lon="4.59132">
        <ele>471</ele>
        <time>2018-09-01T09:32:04Z</time>
      </trkpt>
      <trkpt lat="45.98041" lon="4.5913">
        <ele>471</ele>
        <time>2018-09-01T09:32:05Z</time>
      </trkpt>
      <trkpt lat="45.98046" lon="4.5912">
        <ele>472</ele>
        <time>2018-09-01T09:32:10Z</time>
      </trkpt>
      <trkpt lat="45.98048" lon="4.59119">
        <ele>472</ele>
        <time>2018-09-01T09:32:11Z</time>
      </trkpt>
      <trkpt lat="45.98054" lon="4.5911">
        <ele>472</ele>
        <time>2018-09-01T09:32:15Z</time>
      </trkpt>
      <trkpt lat="45.98055" lon="4.59108">
        <ele>472</ele>
        <time>2018-09-01T09:32:16Z</time>
      </trkpt>
      <trkpt lat="45.9806" lon="4.59099">
        <ele>473</ele>
        <time>2018-09-01T09:32:20Z</time>
      </trkpt>
      <trkpt lat="45.98061" lon="4.59097">
        <ele>473</ele>
        <time>2018-09-01T09:32:21Z</time>
      </trkpt>
      <trkpt lat="45.98065" lon="4.59087">
        <ele>473</ele>
        <time>2018-09-01T09:32:26Z</time>
      </trkpt>
      <trkpt lat="45.98066" lon="4.59084">
        <ele>473</ele>
        <time>2018-09-01T09:32:27Z</time>
      </trkpt>
      <trkpt lat="45.98071" lon="4.59076">
        <ele>477</ele>
        <time>2018-09-01T09:32:31Z</time>
      </trkpt>
      <trkpt lat="45.98072" lon="4.59073">
        <ele>477</ele>
        <time>2018-09-01T09:32:32Z</time>
      </trkpt>
      <trkpt lat="45.98077" lon="4.59064">
        <ele>478</ele>
        <time>2018-09-01T09:32:36Z</time>
      </trkpt>
      <trkpt lat="45.98078" lon="4.59061">
        <ele>478</ele>
        <time>2018-09-01T09:32:37Z</time>
      </trkpt>
      <trkpt lat="45.9808" lon="4.59052">
        <ele>479</ele>
        <time>2018-09-01T09:32:41Z</time>
      </trkpt>
      <trkpt lat="45.98081" lon="4.59049">
        <ele>479</ele>
        <time>2018-09-01T09:32:42Z</time>
      </trkpt>
      <trkpt lat="45.98085" lon="4.5904">
        <ele>471</ele>
        <time>2018-09-01T09:32:46Z</time>
      </trkpt>
      <trkpt lat="45.98086" lon="4.59037">
        <ele>471</ele>
        <time>2018-09-01T09:32:47Z</time>
      </trkpt>
      <trkpt lat="45.9809" lon="4.59028">
        <ele>471</ele>
        <time>2018-09-01T09:32:51Z</time>
      </trkpt>
      <trkpt lat="45.98091" lon="4.59026">
        <ele>472</ele>
        <time>2018-09-01T09:32:52Z</time>
      </trkpt>
      <trkpt lat="45.98095" lon="4.59016">
        <ele>473</ele>
        <time>2018-09-01T09:32:56Z</time>
      </trkpt>
      <trkpt lat="45.98096" lon="4.59014">
        <ele>473</ele>
        <time>2018-09-01T09:32:57Z</time>
      </trkpt>
      <trkpt lat="45.98101" lon="4.59005">
        <ele>473</ele>
        <time>2018-09-01T09:33:01Z</time>
      </trkpt>
      <trkpt lat="45.98102" lon="4.59003">
        <ele>473</ele>
        <time>2018-09-01T09:33:02Z</time>
      </trkpt>
      <trkpt lat="45.98104" lon="4.58992">
        <ele>476</ele>
        <time>2018-09-01T09:33:07Z</time>
      </trkpt>
      <trkpt lat="45.98105" lon="4.5899">
        <ele>476</ele>
        <time>2018-09-01T09:33:08Z</time>
      </trkpt>
      <trkpt lat="45.98105" lon="4.58979">
        <ele>476</ele>
        <time>2018-09-01T09:33:12Z</time>
      </trkpt>
      <trkpt lat="45.98105" lon="4.58977">
        <ele>476</ele>
        <time>2018-09-01T09:33:13Z</time>
      </trkpt>
      <trkpt lat="45.98105" lon="4.58966">
        <ele>476</ele>
        <time>2018-09-01T09:33:18Z</time>
      </trkpt>
      <trkpt lat="45.98106" lon="4.58963">
        <ele>476</ele>
        <time>2018-09-01T09:33:19Z</time>
      </trkpt>
      <trkpt lat="45.98106" lon="4.58953">
        <ele>477</ele>
        <time>2018-09-01T09:33:23Z</time>
      </trkpt>
      <trkpt lat="45.98106" lon="4.5895">
        <ele>477</ele>
        <time>2018-09-01T09:33:24Z</time>
      </trkpt>
      <trkpt lat="45.98105" lon="4.58939">
        <ele>478</ele>
        <time>2018-09-01T09:33:27Z</time>
      </trkpt>
      <trkpt lat="45.98104" lon="4.58936">
        <ele>478</ele>
        <time>2018-09-01T09:33:28Z</time>
      </trkpt>
      <trkpt lat="45.98103" lon="4.58925">
        <ele>479</ele>
        <time>2018-09-01T09:33:32Z</time>
      </trkpt>
      <trkpt lat="45.98103" lon="4.58922">
        <ele>479</ele>
        <time>2018-09-01T09:33:33Z</time>
      </trkpt>
      <trkpt lat="45.98102" lon="4.5891">
        <ele>484</ele>
        <time>2018-09-01T09:33:37Z</time>
      </trkpt>
      <trkpt lat="45.98102" lon="4.58907">
        <ele>484</ele>
        <time>2018-09-01T09:33:38Z</time>
      </trkpt>
      <trkpt lat="45.98102" lon="4.58896">
        <ele>484</ele>
        <time>2018-09-01T09:33:42Z</time>
      </trkpt>
      <trkpt lat="45.98102" lon="4.58893">
        <ele>484</ele>
        <time>2018-09-01T09:33:43Z</time>
      </trkpt>
      <trkpt lat="45.98102" lon="4.58883">
        <ele>485</ele>
        <time>2018-09-01T09:33:46Z</time>
      </trkpt>
      <trkpt lat="45.98102" lon="4.5888">
        <ele>485</ele>
        <time>2018-09-01T09:33:47Z</time>
      </trkpt>
      <trkpt lat="45.98104" lon="4.58869">
        <ele>485</ele>
        <time>2018-09-01T09:33:51Z</time>
      </trkpt>
      <trkpt lat="45.98105" lon="4.58866">
        <ele>485</ele>
        <time>2018-09-01T09:33:52Z</time>
      </trkpt>
      <trkpt lat="45.98109" lon="4.58855">
        <ele>486</ele>
        <time>2018-09-01T09:33:57Z</time>
      </trkpt>
      <trkpt lat="45.9811" lon="4.58854">
        <ele>486</ele>
        <time>2018-09-01T09:33:58Z</time>
      </trkpt>
      <trkpt lat="45.98116" lon="4.58846">
        <ele>486</ele>
        <time>2018-09-01T09:34:03Z</time>
      </trkpt>
      <trkpt lat="45.98117" lon="4.58844">
        <ele>486</ele>
        <time>2018-09-01T09:34:04Z</time>
      </trkpt>
      <trkpt lat="45.98124" lon="4.58838">
        <ele>486</ele>
        <time>2018-09-01T09:34:10Z</time>
      </trkpt>
      <trkpt lat="45.98125" lon="4.58837">
        <ele>486</ele>
        <time>2018-09-01T09:34:11Z</time>
      </trkpt>
      <trkpt lat="45.98133" lon="4.58832">
        <ele>493</ele>
        <time>2018-09-01T09:34:16Z</time>
      </trkpt>
      <trkpt lat="45.98134" lon="4.58832">
        <ele>493</ele>
        <time>2018-09-01T09:34:17Z</time>
      </trkpt>
      <trkpt lat="45.98141" lon="4.58826">
        <ele>493</ele>
        <time>2018-09-01T09:34:22Z</time>
      </trkpt>
      <trkpt lat="45.98141" lon="4.58826">
        <ele>493</ele>
        <time>2018-09-01T09:34:23Z</time>
      </trkpt>
      <trkpt lat="45.98141" lon="4.58826">
        <ele>493</ele>
        <time>2018-09-01T09:34:26Z</time>
      </trkpt>
      <trkpt lat="45.98141" lon="4.58826">
        <ele>493</ele>
        <time>2018-09-01T09:34:27Z</time>
      </trkpt>
      <trkpt lat="45.98145" lon="4.58827">
        <ele>492</ele>
        <time>2018-09-01T09:34:54Z</time>
      </trkpt>
      <trkpt lat="45.98145" lon="4.58827">
        <ele>492</ele>
        <time>2018-09-01T09:34:55Z</time>
      </trkpt>
      <trkpt lat="45.98147" lon="4.58826">
        <ele>492</ele>
        <time>2018-09-01T09:35:19Z</time>
      </trkpt>
      <trkpt lat="45.98147" lon="4.58825">
        <ele>492</ele>
        <time>2018-09-01T09:35:20Z</time>
      </trkpt>
      <trkpt lat="45.98154" lon="4.5882">
        <ele>492</ele>
        <time>2018-09-01T09:35:26Z</time>
      </trkpt>
      <trkpt lat="45.98156" lon="4.58819">
        <ele>492</ele>
        <time>2018-09-01T09:35:27Z</time>
      </trkpt>
      <trkpt lat="45.98162" lon="4.58812">
        <ele>493</ele>
        <time>2018-09-01T09:35:31Z</time>
      </trkpt>
      <trkpt lat="45.98164" lon="4.5881">
        <ele>493</ele>
        <time>2018-09-01T09:35:32Z</time>
      </trkpt>
      <trkpt lat="45.9817" lon="4.58804">
        <ele>492</ele>
        <time>2018-09-01T09:35:35Z</time>
      </trkpt>
      <trkpt lat="45.98172" lon="4.58801">
        <ele>492</ele>
        <time>2018-09-01T09:35:36Z</time>
      </trkpt>
      <trkpt lat="45.98178" lon="4.58794">
        <ele>492</ele>
        <time>2018-09-01T09:35:40Z</time>
      </trkpt>
      <trkpt lat="45.9818" lon="4.58792">
        <ele>493</ele>
        <time>2018-09-01T09:35:41Z</time>
      </trkpt>
      <trkpt lat="45.98187" lon="4.58786">
        <ele>493</ele>
        <time>2018-09-01T09:35:45Z</time>
      </trkpt>
      <trkpt lat="45.98189" lon="4.58784">
        <ele>493</ele>
        <time>2018-09-01T09:35:46Z</time>
      </trkpt>
      <trkpt lat="45.98195" lon="4.58777">
        <ele>493</ele>
        <time>2018-09-01T09:35:50Z</time>
      </trkpt>
      <trkpt lat="45.98196" lon="4.58776">
        <ele>493</ele>
        <time>2018-09-01T09:35:51Z</time>
      </trkpt>
      <trkpt lat="45.98203" lon="4.58769">
        <ele>493</ele>
        <time>2018-09-01T09:35:57Z</time>
      </trkpt>
      <trkpt lat="45.98204" lon="4.58768">
        <ele>493</ele>
        <time>2018-09-01T09:35:58Z</time>
      </trkpt>
      <trkpt lat="45.98212" lon="4.58763">
        <ele>493</ele>
        <time>2018-09-01T09:36:03Z</time>
      </trkpt>
      <trkpt lat="45.98214" lon="4.58762">
        <ele>493</ele>
        <time>2018-09-01T09:36:04Z</time>
      </trkpt>
      <trkpt lat="45.98221" lon="4.58758">
        <ele>493</ele>
        <time>2018-09-01T09:36:07Z</time>
      </trkpt>
      <trkpt lat="45.98223" lon="4.58757">
        <ele>493</ele>
        <time>2018-09-01T09:36:08Z</time>
      </trkpt>
      <trkpt lat="45.9823" lon="4.58751">
        <ele>493</ele>
        <time>2018-09-01T09:36:13Z</time>
      </trkpt>
      <trkpt lat="45.98232" lon="4.58749">
        <ele>498</ele>
        <time>2018-09-01T09:36:14Z</time>
      </trkpt>
      <trkpt lat="45.98239" lon="4.58744">
        <ele>497</ele>
        <time>2018-09-01T09:36:18Z</time>
      </trkpt>
      <trkpt lat="45.9824" lon="4.58743">
        <ele>497</ele>
        <time>2018-09-01T09:36:19Z</time>
      </trkpt>
      <trkpt lat="45.98248" lon="4.58739">
        <ele>497</ele>
        <time>2018-09-01T09:36:23Z</time>
      </trkpt>
      <trkpt lat="45.98249" lon="4.58737">
        <ele>497</ele>
        <time>2018-09-01T09:36:24Z</time>
      </trkpt>
      <trkpt lat="45.98258" lon="4.58733">
        <ele>497</ele>
        <time>2018-09-01T09:36:29Z</time>
      </trkpt>
      <trkpt lat="45.98259" lon="4.58732">
        <ele>497</ele>
        <time>2018-09-01T09:36:30Z</time>
      </trkpt>
      <trkpt lat="45.98265" lon="4.58726">
        <ele>497</ele>
        <time>2018-09-01T09:36:34Z</time>
      </trkpt>
      <trkpt lat="45.98267" lon="4.58724">
        <ele>497</ele>
        <time>2018-09-01T09:36:35Z</time>
      </trkpt>
      <trkpt lat="45.98272" lon="4.58716">
        <ele>498</ele>
        <time>2018-09-01T09:36:39Z</time>
      </trkpt>
      <trkpt lat="45.98273" lon="4.58713">
        <ele>498</ele>
        <time>2018-09-01T09:36:40Z</time>
      </trkpt>
      <trkpt lat="45.98278" lon="4.58705">
        <ele>499</ele>
        <time>2018-09-01T09:36:43Z</time>
      </trkpt>
      <trkpt lat="45.98279" lon="4.58703">
        <ele>499</ele>
        <time>2018-09-01T09:36:44Z</time>
      </trkpt>
      <trkpt lat="45.98285" lon="4.58697">
        <ele>499</ele>
        <time>2018-09-01T09:36:48Z</time>
      </trkpt>
      <trkpt lat="45.98287" lon="4.58695">
        <ele>499</ele>
        <time>2018-09-01T09:36:49Z</time>
      </trkpt>
      <trkpt lat="45.98294" lon="4.58691">
        <ele>499</ele>
        <time>2018-09-01T09:36:54Z</time>
      </trkpt>
      <trkpt lat="45.98296" lon="4.5869">
        <ele>499</ele>
        <time>2018-09-01T09:36:55Z</time>
      </trkpt>
      <trkpt lat="45.98303" lon="4.58686">
        <ele>500</ele>
        <time>2018-09-01T09:36:59Z</time>
      </trkpt>
      <trkpt lat="45.98305" lon="4.58685">
        <ele>500</ele>
        <time>2018-09-01T09:37:00Z</time>
      </trkpt>
      <trkpt lat="45.98312" lon="4.58681">
        <ele>500</ele>
        <time>2018-09-01T09:37:04Z</time>
      </trkpt>
      <trkpt lat="45.98315" lon="4.58679">
        <ele>500</ele>
        <time>2018-09-01T09:37:05Z</time>
      </trkpt>
      <trkpt lat="45.98321" lon="4.58673">
        <ele>501</ele>
        <time>2018-09-01T09:37:08Z</time>
      </trkpt>
      <trkpt lat="45.98323" lon="4.58672">
        <ele>501</ele>
        <time>2018-09-01T09:37:09Z</time>
      </trkpt>
      <trkpt lat="45.9833" lon="4.58666">
        <ele>503</ele>
        <time>2018-09-01T09:37:13Z</time>
      </trkpt>
      <trkpt lat="45.98331" lon="4.58665">
        <ele>503</ele>
        <time>2018-09-01T09:37:14Z</time>
      </trkpt>
      <trkpt lat="45.98339" lon="4.5866">
        <ele>502</ele>
        <time>2018-09-01T09:37:19Z</time>
      </trkpt>
      <trkpt lat="45.98341" lon="4.58658">
        <ele>502</ele>
        <time>2018-09-01T09:37:20Z</time>
      </trkpt>
      <trkpt lat="45.98346" lon="4.5865">
        <ele>503</ele>
        <time>2018-09-01T09:37:24Z</time>
      </trkpt>
      <trkpt lat="45.98348" lon="4.58648">
        <ele>503</ele>
        <time>2018-09-01T09:37:25Z</time>
      </trkpt>
      <trkpt lat="45.98353" lon="4.58642">
        <ele>503</ele>
        <time>2018-09-01T09:37:28Z</time>
      </trkpt>
      <trkpt lat="45.98355" lon="4.5864">
        <ele>503</ele>
        <time>2018-09-01T09:37:29Z</time>
      </trkpt>
      <trkpt lat="45.98361" lon="4.58633">
        <ele>503</ele>
        <time>2018-09-01T09:37:32Z</time>
      </trkpt>
      <trkpt lat="45.98362" lon="4.58631">
        <ele>503</ele>
        <time>2018-09-01T09:37:33Z</time>
      </trkpt>
      <trkpt lat="45.9837" lon="4.58624">
        <ele>503</ele>
        <time>2018-09-01T09:37:37Z</time>
      </trkpt>
      <trkpt lat="45.98371" lon="4.58622">
        <ele>503</ele>
        <time>2018-09-01T09:37:38Z</time>
      </trkpt>
      <trkpt lat="45.98378" lon="4.58614">
        <ele>503</ele>
        <time>2018-09-01T09:37:42Z</time>
      </trkpt>
      <trkpt lat="45.98379" lon="4.58612">
        <ele>503</ele>
        <time>2018-09-01T09:37:43Z</time>
      </trkpt>
      <trkpt lat="45.98382" lon="4.58601">
        <ele>503</ele>
        <time>2018-09-01T09:37:48Z</time>
      </trkpt>
      <trkpt lat="45.98382" lon="4.58599">
        <ele>503</ele>
        <time>2018-09-01T09:37:49Z</time>
      </trkpt>
      <trkpt lat="45.98381" lon="4.58588">
        <ele>504</ele>
        <time>2018-09-01T09:37:53Z</time>
      </trkpt>
      <trkpt lat="45.9838" lon="4.58585">
        <ele>504</ele>
        <time>2018-09-01T09:37:54Z</time>
      </trkpt>
      <trkpt lat="45.98373" lon="4.58578">
        <ele>510</ele>
        <time>2018-09-01T09:37:58Z</time>
      </trkpt>
      <trkpt lat="45.98371" lon="4.58577">
        <ele>510</ele>
        <time>2018-09-01T09:37:59Z</time>
      </trkpt>
      <trkpt lat="45.98362" lon="4.58573">
        <ele>510</ele>
        <time>2018-09-01T09:38:03Z</time>
      </trkpt>
      <trkpt lat="45.98361" lon="4.58573">
        <ele>510</ele>
        <time>2018-09-01T09:38:04Z</time>
      </trkpt>
      <trkpt lat="45.98352" lon="4.58573">
        <ele>510</ele>
        <time>2018-09-01T09:38:09Z</time>
      </trkpt>
      <trkpt lat="45.9835" lon="4.58573">
        <ele>510</ele>
        <time>2018-09-01T09:38:10Z</time>
      </trkpt>
      <trkpt lat="45.98342" lon="4.58573">
        <ele>510</ele>
        <time>2018-09-01T09:38:14Z</time>
      </trkpt>
      <trkpt lat="45.98339" lon="4.58574">
        <ele>510</ele>
        <time>2018-09-01T09:38:15Z</time>
      </trkpt>
      <trkpt lat="45.98332" lon="4.58575">
        <ele>513</ele>
        <time>2018-09-01T09:38:19Z</time>
      </trkpt>
      <trkpt lat="45.9833" lon="4.58575">
        <ele>513</ele>
        <time>2018-09-01T09:38:20Z</time>
      </trkpt>
      <trkpt lat="45.98322" lon="4.58574">
        <ele>514</ele>
        <time>2018-09-01T09:38:26Z</time>
      </trkpt>
      <trkpt lat="45.9832" lon="4.58574">
        <ele>514</ele>
        <time>2018-09-01T09:38:27Z</time>
      </trkpt>
      <trkpt lat="45.98311" lon="4.58573">
        <ele>516</ele>
        <time>2018-09-01T09:38:31Z</time>
      </trkpt>
      <trkpt lat="45.9831" lon="4.58574">
        <ele>516</ele>
        <time>2018-09-01T09:38:32Z</time>
      </trkpt>
      <trkpt lat="45.98301" lon="4.58575">
        <ele>517</ele>
        <time>2018-09-01T09:38:37Z</time>
      </trkpt>
      <trkpt lat="45.98299" lon="4.58576">
        <ele>517</ele>
        <time>2018-09-01T09:38:38Z</time>
      </trkpt>
      <trkpt lat="45.98292" lon="4.58576">
        <ele>517</ele>
        <time>2018-09-01T09:38:42Z</time>
      </trkpt>
      <trkpt lat="45.9829" lon="4.58576">
        <ele>518</ele>
        <time>2018-09-01T09:38:43Z</time>
      </trkpt>
      <trkpt lat="45.98282" lon="4.58576">
        <ele>518</ele>
        <time>2018-09-01T09:38:47Z</time>
      </trkpt>
      <trkpt lat="45.98281" lon="4.58576">
        <ele>518</ele>
        <time>2018-09-01T09:38:48Z</time>
      </trkpt>
      <trkpt lat="45.98272" lon="4.58575">
        <ele>518</ele>
        <time>2018-09-01T09:38:53Z</time>
      </trkpt>
      <trkpt lat="45.9827" lon="4.58575">
        <ele>518</ele>
        <time>2018-09-01T09:38:54Z</time>
      </trkpt>
      <trkpt lat="45.98261" lon="4.58574">
        <ele>519</ele>
        <time>2018-09-01T09:38:59Z</time>
      </trkpt>
      <trkpt lat="45.98259" lon="4.58575">
        <ele>519</ele>
        <time>2018-09-01T09:39:00Z</time>
      </trkpt>
      <trkpt lat="45.98251" lon="4.58577">
        <ele>518</ele>
        <time>2018-09-01T09:39:06Z</time>
      </trkpt>
      <trkpt lat="45.98249" lon="4.58577">
        <ele>519</ele>
        <time>2018-09-01T09:39:07Z</time>
      </trkpt>
      <trkpt lat="45.98242" lon="4.58576">
        <ele>520</ele>
        <time>2018-09-01T09:39:11Z</time>
      </trkpt>
      <trkpt lat="45.9824" lon="4.58575">
        <ele>520</ele>
        <time>2018-09-01T09:39:12Z</time>
      </trkpt>
      <trkpt lat="45.98231" lon="4.58573">
        <ele>521</ele>
        <time>2018-09-01T09:39:17Z</time>
      </trkpt>
      <trkpt lat="45.98229" lon="4.58573">
        <ele>521</ele>
        <time>2018-09-01T09:39:18Z</time>
      </trkpt>
      <trkpt lat="45.9822" lon="4.58573">
        <ele>522</ele>
        <time>2018-09-01T09:39:25Z</time>
      </trkpt>
      <trkpt lat="45.98218" lon="4.58573">
        <ele>522</ele>
        <time>2018-09-01T09:39:26Z</time>
      </trkpt>
      <trkpt lat="45.9821" lon="4.58571">
        <ele>522</ele>
        <time>2018-09-01T09:39:30Z</time>
      </trkpt>
      <trkpt lat="45.98208" lon="4.5857">
        <ele>522</ele>
        <time>2018-09-01T09:39:31Z</time>
      </trkpt>
      <trkpt lat="45.982" lon="4.58568">
        <ele>522</ele>
        <time>2018-09-01T09:39:35Z</time>
      </trkpt>
      <trkpt lat="45.98199" lon="4.58568">
        <ele>522</ele>
        <time>2018-09-01T09:39:36Z</time>
      </trkpt>
      <trkpt lat="45.98191" lon="4.58568">
        <ele>522</ele>
        <time>2018-09-01T09:39:40Z</time>
      </trkpt>
      <trkpt lat="45.98188" lon="4.58568">
        <ele>522</ele>
        <time>2018-09-01T09:39:41Z</time>
      </trkpt>
      <trkpt lat="45.9818" lon="4.58567">
        <ele>522</ele>
        <time>2018-09-01T09:39:46Z</time>
      </trkpt>
      <trkpt lat="45.98179" lon="4.58567">
        <ele>521</ele>
        <time>2018-09-01T09:39:47Z</time>
      </trkpt>
      <trkpt lat="45.98171" lon="4.58565">
        <ele>521</ele>
        <time>2018-09-01T09:39:51Z</time>
      </trkpt>
      <trkpt lat="45.98169" lon="4.58565">
        <ele>521</ele>
        <time>2018-09-01T09:39:52Z</time>
      </trkpt>
      <trkpt lat="45.98162" lon="4.58564">
        <ele>523</ele>
        <time>2018-09-01T09:39:56Z</time>
      </trkpt>
      <trkpt lat="45.9816" lon="4.58563">
        <ele>523</ele>
        <time>2018-09-01T09:39:57Z</time>
      </trkpt>
      <trkpt lat="45.98153" lon="4.58559">
        <ele>523</ele>
        <time>2018-09-01T09:40:01Z</time>
      </trkpt>
      <trkpt lat="45.98151" lon="4.58558">
        <ele>524</ele>
        <time>2018-09-01T09:40:02Z</time>
      </trkpt>
      <trkpt lat="45.98144" lon="4.58556">
        <ele>524</ele>
        <time>2018-09-01T09:40:06Z</time>
      </trkpt>
      <trkpt lat="45.98142" lon="4.58555">
        <ele>524</ele>
        <time>2018-09-01T09:40:07Z</time>
      </trkpt>
      <trkpt lat="45.98134" lon="4.58555">
        <ele>525</ele>
        <time>2018-09-01T09:40:11Z</time>
      </trkpt>
      <trkpt lat="45.98132" lon="4.58556">
        <ele>525</ele>
        <time>2018-09-01T09:40:12Z</time>
      </trkpt>
      <trkpt lat="45.98124" lon="4.58557">
        <ele>525</ele>
        <time>2018-09-01T09:40:17Z</time>
      </trkpt>
      <trkpt lat="45.98122" lon="4.58557">
        <ele>525</ele>
        <time>2018-09-01T09:40:18Z</time>
      </trkpt>
      <trkpt lat="45.98114" lon="4.58554">
        <ele>525</ele>
        <time>2018-09-01T09:40:22Z</time>
      </trkpt>
      <trkpt lat="45.98112" lon="4.58553">
        <ele>525</ele>
        <time>2018-09-01T09:40:23Z</time>
      </trkpt>
      <trkpt lat="45.98104" lon="4.58551">
        <ele>525</ele>
        <time>2018-09-01T09:40:28Z</time>
      </trkpt>
      <trkpt lat="45.98103" lon="4.58551">
        <ele>525</ele>
        <time>2018-09-01T09:40:29Z</time>
      </trkpt>
      <trkpt lat="45.98094" lon="4.58551">
        <ele>525</ele>
        <time>2018-09-01T09:40:34Z</time>
      </trkpt>
      <trkpt lat="45.98093" lon="4.58551">
        <ele>525</ele>
        <time>2018-09-01T09:40:35Z</time>
      </trkpt>
      <trkpt lat="45.98084" lon="4.58551">
        <ele>525</ele>
        <time>2018-09-01T09:40:41Z</time>
      </trkpt>
      <trkpt lat="45.98083" lon="4.58551">
        <ele>528</ele>
        <time>2018-09-01T09:40:42Z</time>
      </trkpt>
      <trkpt lat="45.98075" lon="4.58552">
        <ele>528</ele>
        <time>2018-09-01T09:40:48Z</time>
      </trkpt>
      <trkpt lat="45.98071" lon="4.58551">
        <ele>528</ele>
        <time>2018-09-01T09:40:49Z</time>
      </trkpt>
      <trkpt lat="45.98063" lon="4.58548">
        <ele>529</ele>
        <time>2018-09-01T09:40:53Z</time>
      </trkpt>
      <trkpt lat="45.98061" lon="4.58548">
        <ele>529</ele>
        <time>2018-09-01T09:40:54Z</time>
      </trkpt>
      <trkpt lat="45.98054" lon="4.58545">
        <ele>529</ele>
        <time>2018-09-01T09:40:58Z</time>
      </trkpt>
      <trkpt lat="45.98052" lon="4.58545">
        <ele>529</ele>
        <time>2018-09-01T09:40:59Z</time>
      </trkpt>
      <trkpt lat="45.98044" lon="4.58546">
        <ele>529</ele>
        <time>2018-09-01T09:41:03Z</time>
      </trkpt>
      <trkpt lat="45.98042" lon="4.58546">
        <ele>529</ele>
        <time>2018-09-01T09:41:04Z</time>
      </trkpt>
      <trkpt lat="45.98035" lon="4.58546">
        <ele>530</ele>
        <time>2018-09-01T09:41:08Z</time>
      </trkpt>
      <trkpt lat="45.98033" lon="4.58546">
        <ele>530</ele>
        <time>2018-09-01T09:41:09Z</time>
      </trkpt>
      <trkpt lat="45.98024" lon="4.58545">
        <ele>530</ele>
        <time>2018-09-01T09:41:14Z</time>
      </trkpt>
      <trkpt lat="45.98023" lon="4.58544">
        <ele>530</ele>
        <time>2018-09-01T09:41:15Z</time>
      </trkpt>
      <trkpt lat="45.98015" lon="4.58543">
        <ele>530</ele>
        <time>2018-09-01T09:41:20Z</time>
      </trkpt>
      <trkpt lat="45.98013" lon="4.58543">
        <ele>530</ele>
        <time>2018-09-01T09:41:21Z</time>
      </trkpt>
      <trkpt lat="45.98004" lon="4.58543">
        <ele>531</ele>
        <time>2018-09-01T09:41:26Z</time>
      </trkpt>
      <trkpt lat="45.98003" lon="4.58543">
        <ele>531</ele>
        <time>2018-09-01T09:41:27Z</time>
      </trkpt>
      <trkpt lat="45.97995" lon="4.58542">
        <ele>534</ele>
        <time>2018-09-01T09:41:33Z</time>
      </trkpt>
      <trkpt lat="45.97994" lon="4.58543">
        <ele>534</ele>
        <time>2018-09-01T09:41:34Z</time>
      </trkpt>
      <trkpt lat="45.97986" lon="4.58544">
        <ele>534</ele>
        <time>2018-09-01T09:41:38Z</time>
      </trkpt>
      <trkpt lat="45.97984" lon="4.58544">
        <ele>534</ele>
        <time>2018-09-01T09:41:39Z</time>
      </trkpt>
      <trkpt lat="45.97975" lon="4.58545">
        <ele>535</ele>
        <time>2018-09-01T09:41:47Z</time>
      </trkpt>
      <trkpt lat="45.97974" lon="4.58546">
        <ele>535</ele>
        <time>2018-09-01T09:41:48Z</time>
      </trkpt>
      <trkpt lat="45.97966" lon="4.58548">
        <ele>535</ele>
        <time>2018-09-01T09:41:52Z</time>
      </trkpt>
      <trkpt lat="45.97963" lon="4.58548">
        <ele>535</ele>
        <time>2018-09-01T09:41:53Z</time>
      </trkpt>
      <trkpt lat="45.97955" lon="4.5855">
        <ele>535</ele>
        <time>2018-09-01T09:41:57Z</time>
      </trkpt>
      <trkpt lat="45.97952" lon="4.5855">
        <ele>535</ele>
        <time>2018-09-01T09:41:58Z</time>
      </trkpt>
      <trkpt lat="45.97944" lon="4.58551">
        <ele>536</ele>
        <time>2018-09-01T09:42:02Z</time>
      </trkpt>
      <trkpt lat="45.97942" lon="4.58551">
        <ele>536</ele>
        <time>2018-09-01T09:42:03Z</time>
      </trkpt>
      <trkpt lat="45.97934" lon="4.58552">
        <ele>536</ele>
        <time>2018-09-01T09:42:07Z</time>
      </trkpt>
      <trkpt lat="45.97931" lon="4.58552">
        <ele>536</ele>
        <time>2018-09-01T09:42:08Z</time>
      </trkpt>
      <trkpt lat="45.97924" lon="4.58551">
        <ele>536</ele>
        <time>2018-09-01T09:42:12Z</time>
      </trkpt>
      <trkpt lat="45.97922" lon="4.58551">
        <ele>536</ele>
        <time>2018-09-01T09:42:13Z</time>
      </trkpt>
      <trkpt lat="45.97914" lon="4.5855">
        <ele>539</ele>
        <time>2018-09-01T09:42:19Z</time>
      </trkpt>
      <trkpt lat="45.97912" lon="4.5855">
        <ele>539</ele>
        <time>2018-09-01T09:42:20Z</time>
      </trkpt>
      <trkpt lat="45.97905" lon="4.58548">
        <ele>539</ele>
        <time>2018-09-01T09:42:24Z</time>
      </trkpt>
      <trkpt lat="45.97903" lon="4.58548">
        <ele>539</ele>
        <time>2018-09-01T09:42:25Z</time>
      </trkpt>
      <trkpt lat="45.97895" lon="4.58547">
        <ele>540</ele>
        <time>2018-09-01T09:42:29Z</time>
      </trkpt>
      <trkpt lat="45.97893" lon="4.58547">
        <ele>540</ele>
        <time>2018-09-01T09:42:30Z</time>
      </trkpt>
      <trkpt lat="45.97885" lon="4.58551">
        <ele>540</ele>
        <time>2018-09-01T09:42:38Z</time>
      </trkpt>
      <trkpt lat="45.97883" lon="4.58551">
        <ele>540</ele>
        <time>2018-09-01T09:42:39Z</time>
      </trkpt>
      <trkpt lat="45.97875" lon="4.58552">
        <ele>540</ele>
        <time>2018-09-01T09:42:43Z</time>
      </trkpt>
      <trkpt lat="45.97872" lon="4.58552">
        <ele>540</ele>
        <time>2018-09-01T09:42:44Z</time>
      </trkpt>
      <trkpt lat="45.97864" lon="4.58552">
        <ele>540</ele>
        <time>2018-09-01T09:42:48Z</time>
      </trkpt>
      <trkpt lat="45.97862" lon="4.58552">
        <ele>540</ele>
        <time>2018-09-01T09:42:49Z</time>
      </trkpt>
      <trkpt lat="45.97854" lon="4.58552">
        <ele>540</ele>
        <time>2018-09-01T09:42:53Z</time>
      </trkpt>
      <trkpt lat="45.97852" lon="4.58551">
        <ele>540</ele>
        <time>2018-09-01T09:42:54Z</time>
      </trkpt>
      <trkpt lat="45.97844" lon="4.58548">
        <ele>540</ele>
        <time>2018-09-01T09:42:58Z</time>
      </trkpt>
      <trkpt lat="45.97843" lon="4.58547">
        <ele>541</ele>
        <time>2018-09-01T09:42:59Z</time>
      </trkpt>
      <trkpt lat="45.97835" lon="4.58541">
        <ele>541</ele>
        <time>2018-09-01T09:43:03Z</time>
      </trkpt>
      <trkpt lat="45.97834" lon="4.5854">
        <ele>541</ele>
        <time>2018-09-01T09:43:04Z</time>
      </trkpt>
      <trkpt lat="45.97828" lon="4.58533">
        <ele>544</ele>
        <time>2018-09-01T09:43:08Z</time>
      </trkpt>
      <trkpt lat="45.97827" lon="4.58531">
        <ele>544</ele>
        <time>2018-09-01T09:43:09Z</time>
      </trkpt>
      <trkpt lat="45.97824" lon="4.58519">
        <ele>544</ele>
        <time>2018-09-01T09:43:14Z</time>
      </trkpt>
      <trkpt lat="45.97823" lon="4.58517">
        <ele>544</ele>
        <time>2018-09-01T09:43:15Z</time>
      </trkpt>
      <trkpt lat="45.97822" lon="4.58507">
        <ele>545</ele>
        <time>2018-09-01T09:43:19Z</time>
      </trkpt>
      <trkpt lat="45.97822" lon="4.58504">
        <ele>545</ele>
        <time>2018-09-01T09:43:20Z</time>
      </trkpt>
      <trkpt lat="45.97823" lon="4.58491">
        <ele>547</ele>
        <time>2018-09-01T09:43:25Z</time>
      </trkpt>
      <trkpt lat="45.97823" lon="4.58489">
        <ele>547</ele>
        <time>2018-09-01T09:43:26Z</time>
      </trkpt>
      <trkpt lat="45.97824" lon="4.58477">
        <ele>547</ele>
        <time>2018-09-01T09:43:31Z</time>
      </trkpt>
      <trkpt lat="45.97824" lon="4.58475">
        <ele>548</ele>
        <time>2018-09-01T09:43:32Z</time>
      </trkpt>
      <trkpt lat="45.97824" lon="4.58463">
        <ele>548</ele>
        <time>2018-09-01T09:43:37Z</time>
      </trkpt>
      <trkpt lat="45.97823" lon="4.58461">
        <ele>548</ele>
        <time>2018-09-01T09:43:38Z</time>
      </trkpt>
      <trkpt lat="45.97823" lon="4.58449">
        <ele>549</ele>
        <time>2018-09-01T09:43:42Z</time>
      </trkpt>
      <trkpt lat="45.97822" lon="4.58446">
        <ele>549</ele>
        <time>2018-09-01T09:43:43Z</time>
      </trkpt>
      <trkpt lat="45.97822" lon="4.58433">
        <ele>550</ele>
        <time>2018-09-01T09:43:48Z</time>
      </trkpt>
      <trkpt lat="45.97822" lon="4.58431">
        <ele>550</ele>
        <time>2018-09-01T09:43:49Z</time>
      </trkpt>
      <trkpt lat="45.97822" lon="4.58419">
        <ele>550</ele>
        <time>2018-09-01T09:43:54Z</time>
      </trkpt>
      <trkpt lat="45.97822" lon="4.58417">
        <ele>550</ele>
        <time>2018-09-01T09:43:55Z</time>
      </trkpt>
      <trkpt lat="45.97821" lon="4.58404">
        <ele>551</ele>
        <time>2018-09-01T09:44:00Z</time>
      </trkpt>
      <trkpt lat="45.97821" lon="4.58401">
        <ele>551</ele>
        <time>2018-09-01T09:44:01Z</time>
      </trkpt>
      <trkpt lat="45.97819" lon="4.58389">
        <ele>551</ele>
        <time>2018-09-01T09:44:05Z</time>
      </trkpt>
      <trkpt lat="45.97819" lon="4.58386">
        <ele>551</ele>
        <time>2018-09-01T09:44:06Z</time>
      </trkpt>
      <trkpt lat="45.97817" lon="4.58374">
        <ele>551</ele>
        <time>2018-09-01T09:44:10Z</time>
      </trkpt>
      <trkpt lat="45.97817" lon="4.58371">
        <ele>551</ele>
        <time>2018-09-01T09:44:11Z</time>
      </trkpt>
      <trkpt lat="45.97817" lon="4.58361">
        <ele>551</ele>
        <time>2018-09-01T09:44:14Z</time>
      </trkpt>
      <trkpt lat="45.97818" lon="4.58357">
        <ele>551</ele>
        <time>2018-09-01T09:44:15Z</time>
      </trkpt>
      <trkpt lat="45.97818" lon="4.58345">
        <ele>551</ele>
        <time>2018-09-01T09:44:20Z</time>
      </trkpt>
      <trkpt lat="45.97819" lon="4.58343">
        <ele>551</ele>
        <time>2018-09-01T09:44:21Z</time>
      </trkpt>
      <trkpt lat="45.97821" lon="4.58332">
        <ele>551</ele>
        <time>2018-09-01T09:44:25Z</time>
      </trkpt>
      <trkpt lat="45.97821" lon="4.5833">
        <ele>551</ele>
        <time>2018-09-01T09:44:26Z</time>
      </trkpt>
      <trkpt lat="45.97822" lon="4.58318">
        <ele>551</ele>
        <time>2018-09-01T09:44:32Z</time>
      </trkpt>
      <trkpt lat="45.97822" lon="4.58316">
        <ele>551</ele>
        <time>2018-09-01T09:44:33Z</time>
      </trkpt>
      <trkpt lat="45.97823" lon="4.58315">
        <ele>551</ele>
        <time>2018-09-01T09:44:34Z</time>
      </trkpt>
      <trkpt lat="45.97824" lon="4.58314">
        <ele>551</ele>
        <time>2018-09-01T09:44:39Z</time>
      </trkpt>
      <trkpt lat="45.97824" lon="4.58314">
        <ele>551</ele>
        <time>2018-09-01T09:44:40Z</time>
      </trkpt>
      <trkpt lat="45.97827" lon="4.58302">
        <ele>551</ele>
        <time>2018-09-01T09:44:55Z</time>
      </trkpt>
      <trkpt lat="45.97827" lon="4.58301">
        <ele>551</ele>
        <time>2018-09-01T09:44:56Z</time>
      </trkpt>
      <trkpt lat="45.97821" lon="4.58293">
        <ele>551</ele>
        <time>2018-09-01T09:45:38Z</time>
      </trkpt>
      <trkpt lat="45.9782" lon="4.58293">
        <ele>551</ele>
        <time>2018-09-01T09:45:39Z</time>
      </trkpt>
      <trkpt lat="45.97812" lon="4.58291">
        <ele>551</ele>
        <time>2018-09-01T09:45:43Z</time>
      </trkpt>
      <trkpt lat="45.97809" lon="4.5829">
        <ele>551</ele>
        <time>2018-09-01T09:45:44Z</time>
      </trkpt>
      <trkpt lat="45.97802" lon="4.58284">
        <ele>551</ele>
        <time>2018-09-01T09:45:47Z</time>
      </trkpt>
      <trkpt lat="45.978" lon="4.58281">
        <ele>551</ele>
        <time>2018-09-01T09:45:48Z</time>
      </trkpt>
      <trkpt lat="45.97794" lon="4.58272">
        <ele>551</ele>
        <time>2018-09-01T09:45:51Z</time>
      </trkpt>
      <trkpt lat="45.97792" lon="4.58269">
        <ele>551</ele>
        <time>2018-09-01T09:45:52Z</time>
      </trkpt>
      <trkpt lat="45.97787" lon="4.58261">
        <ele>551</ele>
        <time>2018-09-01T09:45:55Z</time>
      </trkpt>
      <trkpt lat="45.97784" lon="4.58259">
        <ele>551</ele>
        <time>2018-09-01T09:45:56Z</time>
      </trkpt>
      <trkpt lat="45.97782" lon="4.58256">
        <ele>551</ele>
        <time>2018-09-01T09:45:57Z</time>
      </trkpt>
      <trkpt lat="45.97774" lon="4.58247">
        <ele>550</ele>
        <time>2018-09-01T09:45:58Z</time>
      </trkpt>
      <trkpt lat="45.97766" lon="4.58239">
        <ele>550</ele>
        <time>2018-09-01T09:46:00Z</time>
      </trkpt>
      <trkpt lat="45.97763" lon="4.58236">
        <ele>550</ele>
        <time>2018-09-01T09:46:01Z</time>
      </trkpt>
      <trkpt lat="45.97756" lon="4.58229">
        <ele>549</ele>
        <time>2018-09-01T09:46:03Z</time>
      </trkpt>
      <trkpt lat="45.97752" lon="4.58226">
        <ele>549</ele>
        <time>2018-09-01T09:46:04Z</time>
      </trkpt>
      <trkpt lat="45.97744" lon="4.58221">
        <ele>549</ele>
        <time>2018-09-01T09:46:06Z</time>
      </trkpt>
      <trkpt lat="45.9774" lon="4.58218">
        <ele>548</ele>
        <time>2018-09-01T09:46:07Z</time>
      </trkpt>
      <trkpt lat="45.97734" lon="4.58217">
        <ele>548</ele>
        <time>2018-09-01T09:46:08Z</time>
      </trkpt>
      <trkpt lat="45.9773" lon="4.58214">
        <ele>548</ele>
        <time>2018-09-01T09:46:09Z</time>
      </trkpt>
      <trkpt lat="45.97724" lon="4.58209">
        <ele>548</ele>
        <time>2018-09-01T09:46:11Z</time>
      </trkpt>
      <trkpt lat="45.9772" lon="4.58206">
        <ele>547</ele>
        <time>2018-09-01T09:46:12Z</time>
      </trkpt>
      <trkpt lat="45.97716" lon="4.58203">
        <ele>547</ele>
        <time>2018-09-01T09:46:13Z</time>
      </trkpt>
      <trkpt lat="45.97708" lon="4.58199">
        <ele>547</ele>
        <time>2018-09-01T09:46:14Z</time>
      </trkpt>
      <trkpt lat="45.97703" lon="4.58198">
        <ele>547</ele>
        <time>2018-09-01T09:46:15Z</time>
      </trkpt>
      <trkpt lat="45.97699" lon="4.58196">
        <ele>547</ele>
        <time>2018-09-01T09:46:16Z</time>
      </trkpt>
      <trkpt lat="45.97694" lon="4.58194">
        <ele>546</ele>
        <time>2018-09-01T09:46:17Z</time>
      </trkpt>
      <trkpt lat="45.97688" lon="4.58191">
        <ele>546</ele>
        <time>2018-09-01T09:46:18Z</time>
      </trkpt>
      <trkpt lat="45.97682" lon="4.58191">
        <ele>546</ele>
        <time>2018-09-01T09:46:19Z</time>
      </trkpt>
      <trkpt lat="45.97678" lon="4.5819">
        <ele>546</ele>
        <time>2018-09-01T09:46:20Z</time>
      </trkpt>
      <trkpt lat="45.97674" lon="4.58188">
        <ele>545</ele>
        <time>2018-09-01T09:46:21Z</time>
      </trkpt>
      <trkpt lat="45.97669" lon="4.58185">
        <ele>545</ele>
        <time>2018-09-01T09:46:22Z</time>
      </trkpt>
      <trkpt lat="45.97663" lon="4.58183">
        <ele>545</ele>
        <time>2018-09-01T09:46:23Z</time>
      </trkpt>
      <trkpt lat="45.97656" lon="4.58181">
        <ele>545</ele>
        <time>2018-09-01T09:46:24Z</time>
      </trkpt>
      <trkpt lat="45.9765" lon="4.58179">
        <ele>545</ele>
        <time>2018-09-01T09:46:25Z</time>
      </trkpt>
      <trkpt lat="45.97644" lon="4.58179">
        <ele>546</ele>
        <time>2018-09-01T09:46:26Z</time>
      </trkpt>
      <trkpt lat="45.97635" lon="4.58176">
        <ele>546</ele>
        <time>2018-09-01T09:46:27Z</time>
      </trkpt>
      <trkpt lat="45.97628" lon="4.58174">
        <ele>546</ele>
        <time>2018-09-01T09:46:28Z</time>
      </trkpt>
      <trkpt lat="45.97622" lon="4.58173">
        <ele>546</ele>
        <time>2018-09-01T09:46:29Z</time>
      </trkpt>
      <trkpt lat="45.97615" lon="4.58171">
        <ele>545</ele>
        <time>2018-09-01T09:46:30Z</time>
      </trkpt>
      <trkpt lat="45.97608" lon="4.5817">
        <ele>545</ele>
        <time>2018-09-01T09:46:31Z</time>
      </trkpt>
      <trkpt lat="45.97602" lon="4.5817">
        <ele>544</ele>
        <time>2018-09-01T09:46:32Z</time>
      </trkpt>
      <trkpt lat="45.97594" lon="4.5817">
        <ele>543</ele>
        <time>2018-09-01T09:46:33Z</time>
      </trkpt>
      <trkpt lat="45.97587" lon="4.58169">
        <ele>542</ele>
        <time>2018-09-01T09:46:34Z</time>
      </trkpt>
      <trkpt lat="45.97581" lon="4.58167">
        <ele>541</ele>
        <time>2018-09-01T09:46:35Z</time>
      </trkpt>
      <trkpt lat="45.97574" lon="4.58165">
        <ele>540</ele>
        <time>2018-09-01T09:46:36Z</time>
      </trkpt>
      <trkpt lat="45.97568" lon="4.58164">
        <ele>540</ele>
        <time>2018-09-01T09:46:37Z</time>
      </trkpt>
      <trkpt lat="45.97563" lon="4.58162">
        <ele>539</ele>
        <time>2018-09-01T09:46:38Z</time>
      </trkpt>
      <trkpt lat="45.97557" lon="4.58162">
        <ele>539</ele>
        <time>2018-09-01T09:46:39Z</time>
      </trkpt>
      <trkpt lat="45.97546" lon="4.58159">
        <ele>540</ele>
        <time>2018-09-01T09:46:40Z</time>
      </trkpt>
      <trkpt lat="45.97539" lon="4.58158">
        <ele>540</ele>
        <time>2018-09-01T09:46:41Z</time>
      </trkpt>
      <trkpt lat="45.97532" lon="4.58156">
        <ele>541</ele>
        <time>2018-09-01T09:46:42Z</time>
      </trkpt>
      <trkpt lat="45.97526" lon="4.58153">
        <ele>541</ele>
        <time>2018-09-01T09:46:43Z</time>
      </trkpt>
      <trkpt lat="45.97519" lon="4.5815">
        <ele>542</ele>
        <time>2018-09-01T09:46:44Z</time>
      </trkpt>
      <trkpt lat="45.97512" lon="4.58147">
        <ele>542</ele>
        <time>2018-09-01T09:46:45Z</time>
      </trkpt>
      <trkpt lat="45.97505" lon="4.58143">
        <ele>542</ele>
        <time>2018-09-01T09:46:46Z</time>
      </trkpt>
      <trkpt lat="45.97496" lon="4.58139">
        <ele>546</ele>
        <time>2018-09-01T09:46:47Z</time>
      </trkpt>
      <trkpt lat="45.9749" lon="4.58138">
        <ele>546</ele>
        <time>2018-09-01T09:46:48Z</time>
      </trkpt>
      <trkpt lat="45.97482" lon="4.58135">
        <ele>546</ele>
        <time>2018-09-01T09:46:49Z</time>
      </trkpt>
      <trkpt lat="45.97476" lon="4.58131">
        <ele>546</ele>
        <time>2018-09-01T09:46:50Z</time>
      </trkpt>
      <trkpt lat="45.97469" lon="4.58128">
        <ele>546</ele>
        <time>2018-09-01T09:46:51Z</time>
      </trkpt>
      <trkpt lat="45.97464" lon="4.58122">
        <ele>546</ele>
        <time>2018-09-01T09:46:52Z</time>
      </trkpt>
      <trkpt lat="45.97459" lon="4.58117">
        <ele>546</ele>
        <time>2018-09-01T09:46:53Z</time>
      </trkpt>
      <trkpt lat="45.97452" lon="4.58114">
        <ele>546</ele>
        <time>2018-09-01T09:46:54Z</time>
      </trkpt>
      <trkpt lat="45.97447" lon="4.58108">
        <ele>545</ele>
        <time>2018-09-01T09:46:55Z</time>
      </trkpt>
      <trkpt lat="45.97443" lon="4.58103">
        <ele>545</ele>
        <time>2018-09-01T09:46:56Z</time>
      </trkpt>
      <trkpt lat="45.97435" lon="4.58098">
        <ele>545</ele>
        <time>2018-09-01T09:46:57Z</time>
      </trkpt>
      <trkpt lat="45.97427" lon="4.58092">
        <ele>545</ele>
        <time>2018-09-01T09:46:58Z</time>
      </trkpt>
      <trkpt lat="45.97419" lon="4.58086">
        <ele>544</ele>
        <time>2018-09-01T09:46:59Z</time>
      </trkpt>
      <trkpt lat="45.97417" lon="4.5808">
        <ele>542</ele>
        <time>2018-09-01T09:47:00Z</time>
      </trkpt>
      <trkpt lat="45.97413" lon="4.58074">
        <ele>541</ele>
        <time>2018-09-01T09:47:01Z</time>
      </trkpt>
      <trkpt lat="45.97408" lon="4.58067">
        <ele>540</ele>
        <time>2018-09-01T09:47:02Z</time>
      </trkpt>
      <trkpt lat="45.97403" lon="4.58061">
        <ele>538</ele>
        <time>2018-09-01T09:47:03Z</time>
      </trkpt>
      <trkpt lat="45.97398" lon="4.58055">
        <ele>537</ele>
        <time>2018-09-01T09:47:04Z</time>
      </trkpt>
      <trkpt lat="45.97392" lon="4.58051">
        <ele>537</ele>
        <time>2018-09-01T09:47:05Z</time>
      </trkpt>
      <trkpt lat="45.97385" lon="4.58046">
        <ele>536</ele>
        <time>2018-09-01T09:47:06Z</time>
      </trkpt>
      <trkpt lat="45.9738" lon="4.58044">
        <ele>536</ele>
        <time>2018-09-01T09:47:07Z</time>
      </trkpt>
      <trkpt lat="45.97373" lon="4.58041">
        <ele>535</ele>
        <time>2018-09-01T09:47:08Z</time>
      </trkpt>
      <trkpt lat="45.97368" lon="4.58043">
        <ele>535</ele>
        <time>2018-09-01T09:47:09Z</time>
      </trkpt>
      <trkpt lat="45.97362" lon="4.58042">
        <ele>535</ele>
        <time>2018-09-01T09:47:10Z</time>
      </trkpt>
      <trkpt lat="45.97355" lon="4.58045">
        <ele>535</ele>
        <time>2018-09-01T09:47:11Z</time>
      </trkpt>
      <trkpt lat="45.97349" lon="4.58045">
        <ele>535</ele>
        <time>2018-09-01T09:47:12Z</time>
      </trkpt>
      <trkpt lat="45.97343" lon="4.58049">
        <ele>536</ele>
        <time>2018-09-01T09:47:13Z</time>
      </trkpt>
      <trkpt lat="45.97336" lon="4.58052">
        <ele>537</ele>
        <time>2018-09-01T09:47:14Z</time>
      </trkpt>
      <trkpt lat="45.9733" lon="4.58057">
        <ele>536</ele>
        <time>2018-09-01T09:47:15Z</time>
      </trkpt>
      <trkpt lat="45.97325" lon="4.58062">
        <ele>537</ele>
        <time>2018-09-01T09:47:16Z</time>
      </trkpt>
      <trkpt lat="45.97319" lon="4.58067">
        <ele>538</ele>
        <time>2018-09-01T09:47:17Z</time>
      </trkpt>
      <trkpt lat="45.97313" lon="4.58072">
        <ele>538</ele>
        <time>2018-09-01T09:47:18Z</time>
      </trkpt>
      <trkpt lat="45.97306" lon="4.58079">
        <ele>538</ele>
        <time>2018-09-01T09:47:19Z</time>
      </trkpt>
      <trkpt lat="45.973" lon="4.58083">
        <ele>550</ele>
        <time>2018-09-01T09:47:20Z</time>
      </trkpt>
      <trkpt lat="45.97293" lon="4.58089">
        <ele>550</ele>
        <time>2018-09-01T09:47:21Z</time>
      </trkpt>
      <trkpt lat="45.97285" lon="4.58094">
        <ele>550</ele>
        <time>2018-09-01T09:47:22Z</time>
      </trkpt>
      <trkpt lat="45.97277" lon="4.58095">
        <ele>550</ele>
        <time>2018-09-01T09:47:23Z</time>
      </trkpt>
      <trkpt lat="45.97271" lon="4.58098">
        <ele>550</ele>
        <time>2018-09-01T09:47:24Z</time>
      </trkpt>
      <trkpt lat="45.97264" lon="4.58099">
        <ele>549</ele>
        <time>2018-09-01T09:47:25Z</time>
      </trkpt>
      <trkpt lat="45.97258" lon="4.58102">
        <ele>550</ele>
        <time>2018-09-01T09:47:26Z</time>
      </trkpt>
      <trkpt lat="45.9725" lon="4.58098">
        <ele>549</ele>
        <time>2018-09-01T09:47:27Z</time>
      </trkpt>
      <trkpt lat="45.97243" lon="4.58094">
        <ele>549</ele>
        <time>2018-09-01T09:47:28Z</time>
      </trkpt>
      <trkpt lat="45.97237" lon="4.58085">
        <ele>549</ele>
        <time>2018-09-01T09:47:29Z</time>
      </trkpt>
      <trkpt lat="45.97232" lon="4.58079">
        <ele>541</ele>
        <time>2018-09-01T09:47:30Z</time>
      </trkpt>
      <trkpt lat="45.97227" lon="4.58077">
        <ele>540</ele>
        <time>2018-09-01T09:47:31Z</time>
      </trkpt>
      <trkpt lat="45.97222" lon="4.58072">
        <ele>540</ele>
        <time>2018-09-01T09:47:32Z</time>
      </trkpt>
      <trkpt lat="45.97217" lon="4.58062">
        <ele>539</ele>
        <time>2018-09-01T09:47:33Z</time>
      </trkpt>
      <trkpt lat="45.97213" lon="4.58057">
        <ele>539</ele>
        <time>2018-09-01T09:47:34Z</time>
      </trkpt>
      <trkpt lat="45.97209" lon="4.58052">
        <ele>538</ele>
        <time>2018-09-01T09:47:35Z</time>
      </trkpt>
      <trkpt lat="45.972" lon="4.58048">
        <ele>538</ele>
        <time>2018-09-01T09:47:36Z</time>
      </trkpt>
      <trkpt lat="45.97195" lon="4.58043">
        <ele>538</ele>
        <time>2018-09-01T09:47:37Z</time>
      </trkpt>
      <trkpt lat="45.9719" lon="4.58036">
        <ele>537</ele>
        <time>2018-09-01T09:47:38Z</time>
      </trkpt>
      <trkpt lat="45.97185" lon="4.5803">
        <ele>536</ele>
        <time>2018-09-01T09:47:39Z</time>
      </trkpt>
      <trkpt lat="45.9718" lon="4.58025">
        <ele>536</ele>
        <time>2018-09-01T09:47:40Z</time>
      </trkpt>
      <trkpt lat="45.97175" lon="4.5802">
        <ele>535</ele>
        <time>2018-09-01T09:47:41Z</time>
      </trkpt>
      <trkpt lat="45.97168" lon="4.58014">
        <ele>534</ele>
        <time>2018-09-01T09:47:42Z</time>
      </trkpt>
      <trkpt lat="45.97161" lon="4.58013">
        <ele>535</ele>
        <time>2018-09-01T09:47:43Z</time>
      </trkpt>
      <trkpt lat="45.97155" lon="4.58009">
        <ele>535</ele>
        <time>2018-09-01T09:47:44Z</time>
      </trkpt>
      <trkpt lat="45.97149" lon="4.58005">
        <ele>536</ele>
        <time>2018-09-01T09:47:45Z</time>
      </trkpt>
      <trkpt lat="45.97143" lon="4.58001">
        <ele>536</ele>
        <time>2018-09-01T09:47:46Z</time>
      </trkpt>
      <trkpt lat="45.97137" lon="4.58">
        <ele>536</ele>
        <time>2018-09-01T09:47:47Z</time>
      </trkpt>
      <trkpt lat="45.97131" lon="4.57997">
        <ele>527</ele>
        <time>2018-09-01T09:47:48Z</time>
      </trkpt>
      <trkpt lat="45.97124" lon="4.57993">
        <ele>526</ele>
        <time>2018-09-01T09:47:49Z</time>
      </trkpt>
      <trkpt lat="45.97116" lon="4.57991">
        <ele>526</ele>
        <time>2018-09-01T09:47:50Z</time>
      </trkpt>
      <trkpt lat="45.9711" lon="4.57992">
        <ele>526</ele>
        <time>2018-09-01T09:47:51Z</time>
      </trkpt>
      <trkpt lat="45.97105" lon="4.57997">
        <ele>527</ele>
        <time>2018-09-01T09:47:52Z</time>
      </trkpt>
      <trkpt lat="45.97097" lon="4.57997">
        <ele>528</ele>
        <time>2018-09-01T09:47:53Z</time>
      </trkpt>
      <trkpt lat="45.97091" lon="4.58001">
        <ele>532</ele>
        <time>2018-09-01T09:47:54Z</time>
      </trkpt>
      <trkpt lat="45.97085" lon="4.58005">
        <ele>532</ele>
        <time>2018-09-01T09:47:55Z</time>
      </trkpt>
      <trkpt lat="45.9708" lon="4.58011">
        <ele>530</ele>
        <time>2018-09-01T09:47:56Z</time>
      </trkpt>
      <trkpt lat="45.97076" lon="4.58016">
        <ele>531</ele>
        <time>2018-09-01T09:47:57Z</time>
      </trkpt>
      <trkpt lat="45.97071" lon="4.58024">
        <ele>531</ele>
        <time>2018-09-01T09:47:58Z</time>
      </trkpt>
      <trkpt lat="45.97066" lon="4.5803">
        <ele>531</ele>
        <time>2018-09-01T09:47:59Z</time>
      </trkpt>
      <trkpt lat="45.97061" lon="4.58038">
        <ele>532</ele>
        <time>2018-09-01T09:48:00Z</time>
      </trkpt>
      <trkpt lat="45.97055" lon="4.58045">
        <ele>532</ele>
        <time>2018-09-01T09:48:01Z</time>
      </trkpt>
      <trkpt lat="45.97054" lon="4.58055">
        <ele>533</ele>
        <time>2018-09-01T09:48:02Z</time>
      </trkpt>
      <trkpt lat="45.97049" lon="4.58062">
        <ele>533</ele>
        <time>2018-09-01T09:48:03Z</time>
      </trkpt>
      <trkpt lat="45.97042" lon="4.58067">
        <ele>533</ele>
        <time>2018-09-01T09:48:04Z</time>
      </trkpt>
      <trkpt lat="45.97037" lon="4.58074">
        <ele>533</ele>
        <time>2018-09-01T09:48:05Z</time>
      </trkpt>
      <trkpt lat="45.97033" lon="4.58083">
        <ele>533</ele>
        <time>2018-09-01T09:48:06Z</time>
      </trkpt>
      <trkpt lat="45.97028" lon="4.58089">
        <ele>544</ele>
        <time>2018-09-01T09:48:07Z</time>
      </trkpt>
      <trkpt lat="45.97023" lon="4.58095">
        <ele>543</ele>
        <time>2018-09-01T09:48:08Z</time>
      </trkpt>
      <trkpt lat="45.97019" lon="4.58101">
        <ele>543</ele>
        <time>2018-09-01T09:48:09Z</time>
      </trkpt>
      <trkpt lat="45.97013" lon="4.58105">
        <ele>543</ele>
        <time>2018-09-01T09:48:10Z</time>
      </trkpt>
      <trkpt lat="45.97007" lon="4.58108">
        <ele>544</ele>
        <time>2018-09-01T09:48:11Z</time>
      </trkpt>
      <trkpt lat="45.97002" lon="4.58112">
        <ele>544</ele>
        <time>2018-09-01T09:48:12Z</time>
      </trkpt>
      <trkpt lat="45.96997" lon="4.58111">
        <ele>542</ele>
        <time>2018-09-01T09:48:13Z</time>
      </trkpt>
      <trkpt lat="45.96989" lon="4.58116">
        <ele>544</ele>
        <time>2018-09-01T09:48:15Z</time>
      </trkpt>
      <trkpt lat="45.96984" lon="4.58117">
        <ele>544</ele>
        <time>2018-09-01T09:48:16Z</time>
      </trkpt>
      <trkpt lat="45.96977" lon="4.58107">
        <ele>543</ele>
        <time>2018-09-01T09:48:17Z</time>
      </trkpt>
      <trkpt lat="45.9697" lon="4.58101">
        <ele>543</ele>
        <time>2018-09-01T09:48:18Z</time>
      </trkpt>
      <trkpt lat="45.96966" lon="4.58098">
        <ele>543</ele>
        <time>2018-09-01T09:48:19Z</time>
      </trkpt>
      <trkpt lat="45.96959" lon="4.58093">
        <ele>542</ele>
        <time>2018-09-01T09:48:20Z</time>
      </trkpt>
      <trkpt lat="45.96955" lon="4.58083">
        <ele>531</ele>
        <time>2018-09-01T09:48:21Z</time>
      </trkpt>
      <trkpt lat="45.9695" lon="4.58077">
        <ele>531</ele>
        <time>2018-09-01T09:48:22Z</time>
      </trkpt>
      <trkpt lat="45.96946" lon="4.58073">
        <ele>531</ele>
        <time>2018-09-01T09:48:23Z</time>
      </trkpt>
      <trkpt lat="45.9694" lon="4.58067">
        <ele>531</ele>
        <time>2018-09-01T09:48:24Z</time>
      </trkpt>
      <trkpt lat="45.96935" lon="4.58062">
        <ele>531</ele>
        <time>2018-09-01T09:48:25Z</time>
      </trkpt>
      <trkpt lat="45.96927" lon="4.58057">
        <ele>530</ele>
        <time>2018-09-01T09:48:26Z</time>
      </trkpt>
      <trkpt lat="45.96921" lon="4.5805">
        <ele>529</ele>
        <time>2018-09-01T09:48:27Z</time>
      </trkpt>
      <trkpt lat="45.96913" lon="4.58046">
        <ele>531</ele>
        <time>2018-09-01T09:48:28Z</time>
      </trkpt>
      <trkpt lat="45.96907" lon="4.58041">
        <ele>530</ele>
        <time>2018-09-01T09:48:29Z</time>
      </trkpt>
      <trkpt lat="45.96902" lon="4.58033">
        <ele>529</ele>
        <time>2018-09-01T09:48:30Z</time>
      </trkpt>
      <trkpt lat="45.96895" lon="4.58027">
        <ele>529</ele>
        <time>2018-09-01T09:48:31Z</time>
      </trkpt>
      <trkpt lat="45.96888" lon="4.58021">
        <ele>528</ele>
        <time>2018-09-01T09:48:32Z</time>
      </trkpt>
      <trkpt lat="45.96879" lon="4.58017">
        <ele>528</ele>
        <time>2018-09-01T09:48:33Z</time>
      </trkpt>
      <trkpt lat="45.96874" lon="4.58011">
        <ele>528</ele>
        <time>2018-09-01T09:48:34Z</time>
      </trkpt>
      <trkpt lat="45.96865" lon="4.58009">
        <ele>528</ele>
        <time>2018-09-01T09:48:35Z</time>
      </trkpt>
      <trkpt lat="45.96858" lon="4.58005">
        <ele>527</ele>
        <time>2018-09-01T09:48:36Z</time>
      </trkpt>
      <trkpt lat="45.96852" lon="4.58006">
        <ele>527</ele>
        <time>2018-09-01T09:48:37Z</time>
      </trkpt>
      <trkpt lat="45.96845" lon="4.58007">
        <ele>526</ele>
        <time>2018-09-01T09:48:38Z</time>
      </trkpt>
      <trkpt lat="45.96838" lon="4.58009">
        <ele>526</ele>
        <time>2018-09-01T09:48:39Z</time>
      </trkpt>
      <trkpt lat="45.9683" lon="4.58012">
        <ele>523</ele>
        <time>2018-09-01T09:48:40Z</time>
      </trkpt>
      <trkpt lat="45.96823" lon="4.58016">
        <ele>522</ele>
        <time>2018-09-01T09:48:41Z</time>
      </trkpt>
      <trkpt lat="45.96816" lon="4.58021">
        <ele>522</ele>
        <time>2018-09-01T09:48:42Z</time>
      </trkpt>
      <trkpt lat="45.96809" lon="4.58027">
        <ele>522</ele>
        <time>2018-09-01T09:48:43Z</time>
      </trkpt>
      <trkpt lat="45.96803" lon="4.58031">
        <ele>522</ele>
        <time>2018-09-01T09:48:44Z</time>
      </trkpt>
      <trkpt lat="45.96798" lon="4.58038">
        <ele>522</ele>
        <time>2018-09-01T09:48:45Z</time>
      </trkpt>
      <trkpt lat="45.96793" lon="4.58047">
        <ele>522</ele>
        <time>2018-09-01T09:48:46Z</time>
      </trkpt>
      <trkpt lat="45.96787" lon="4.58054">
        <ele>522</ele>
        <time>2018-09-01T09:48:47Z</time>
      </trkpt>
      <trkpt lat="45.96782" lon="4.58063">
        <ele>521</ele>
        <time>2018-09-01T09:48:48Z</time>
      </trkpt>
      <trkpt lat="45.96779" lon="4.58072">
        <ele>521</ele>
        <time>2018-09-01T09:48:49Z</time>
      </trkpt>
      <trkpt lat="45.96775" lon="4.58081">
        <ele>521</ele>
        <time>2018-09-01T09:48:50Z</time>
      </trkpt>
      <trkpt lat="45.9677" lon="4.58088">
        <ele>527</ele>
        <time>2018-09-01T09:48:51Z</time>
      </trkpt>
      <trkpt lat="45.96765" lon="4.58096">
        <ele>527</ele>
        <time>2018-09-01T09:48:52Z</time>
      </trkpt>
      <trkpt lat="45.96761" lon="4.58104">
        <ele>528</ele>
        <time>2018-09-01T09:48:53Z</time>
      </trkpt>
      <trkpt lat="45.96757" lon="4.58113">
        <ele>529</ele>
        <time>2018-09-01T09:48:54Z</time>
      </trkpt>
      <trkpt lat="45.96752" lon="4.58123">
        <ele>530</ele>
        <time>2018-09-01T09:48:55Z</time>
      </trkpt>
      <trkpt lat="45.96748" lon="4.58131">
        <ele>515</ele>
        <time>2018-09-01T09:48:56Z</time>
      </trkpt>
      <trkpt lat="45.96742" lon="4.5814">
        <ele>516</ele>
        <time>2018-09-01T09:48:57Z</time>
      </trkpt>
      <trkpt lat="45.96738" lon="4.58149">
        <ele>518</ele>
        <time>2018-09-01T09:48:58Z</time>
      </trkpt>
      <trkpt lat="45.96733" lon="4.58158">
        <ele>518</ele>
        <time>2018-09-01T09:48:59Z</time>
      </trkpt>
      <trkpt lat="45.96728" lon="4.58167">
        <ele>522</ele>
        <time>2018-09-01T09:49:00Z</time>
      </trkpt>
      <trkpt lat="45.96724" lon="4.58177">
        <ele>520</ele>
        <time>2018-09-01T09:49:01Z</time>
      </trkpt>
      <trkpt lat="45.96722" lon="4.58187">
        <ele>520</ele>
        <time>2018-09-01T09:49:02Z</time>
      </trkpt>
      <trkpt lat="45.9672" lon="4.58197">
        <ele>519</ele>
        <time>2018-09-01T09:49:03Z</time>
      </trkpt>
      <trkpt lat="45.96719" lon="4.58209">
        <ele>519</ele>
        <time>2018-09-01T09:49:04Z</time>
      </trkpt>
      <trkpt lat="45.96719" lon="4.58221">
        <ele>520</ele>
        <time>2018-09-01T09:49:05Z</time>
      </trkpt>
      <trkpt lat="45.96719" lon="4.58232">
        <ele>521</ele>
        <time>2018-09-01T09:49:06Z</time>
      </trkpt>
      <trkpt lat="45.96721" lon="4.58242">
        <ele>522</ele>
        <time>2018-09-01T09:49:07Z</time>
      </trkpt>
      <trkpt lat="45.96721" lon="4.58253">
        <ele>523</ele>
        <time>2018-09-01T09:49:08Z</time>
      </trkpt>
      <trkpt lat="45.96722" lon="4.58263">
        <ele>523</ele>
        <time>2018-09-01T09:49:09Z</time>
      </trkpt>
      <trkpt lat="45.96725" lon="4.58271">
        <ele>523</ele>
        <time>2018-09-01T09:49:10Z</time>
      </trkpt>
      <trkpt lat="45.96727" lon="4.58281">
        <ele>523</ele>
        <time>2018-09-01T09:49:11Z</time>
      </trkpt>
      <trkpt lat="45.9673" lon="4.5829">
        <ele>523</ele>
        <time>2018-09-01T09:49:12Z</time>
      </trkpt>
      <trkpt lat="45.96733" lon="4.58299">
        <ele>523</ele>
        <time>2018-09-01T09:49:13Z</time>
      </trkpt>
      <trkpt lat="45.96737" lon="4.58309">
        <ele>524</ele>
        <time>2018-09-01T09:49:14Z</time>
      </trkpt>
      <trkpt lat="45.9674" lon="4.58319">
        <ele>527</ele>
        <time>2018-09-01T09:49:15Z</time>
      </trkpt>
      <trkpt lat="45.96742" lon="4.58331">
        <ele>530</ele>
        <time>2018-09-01T09:49:16Z</time>
      </trkpt>
      <trkpt lat="45.96743" lon="4.58343">
        <ele>528</ele>
        <time>2018-09-01T09:49:17Z</time>
      </trkpt>
      <trkpt lat="45.96745" lon="4.58352">
        <ele>525</ele>
        <time>2018-09-01T09:49:18Z</time>
      </trkpt>
      <trkpt lat="45.96745" lon="4.58363">
        <ele>523</ele>
        <time>2018-09-01T09:49:19Z</time>
      </trkpt>
      <trkpt lat="45.96747" lon="4.58372">
        <ele>522</ele>
        <time>2018-09-01T09:49:20Z</time>
      </trkpt>
      <trkpt lat="45.96749" lon="4.58381">
        <ele>522</ele>
        <time>2018-09-01T09:49:21Z</time>
      </trkpt>
      <trkpt lat="45.96749" lon="4.5839">
        <ele>522</ele>
        <time>2018-09-01T09:49:22Z</time>
      </trkpt>
      <trkpt lat="45.96751" lon="4.58397">
        <ele>541</ele>
        <time>2018-09-01T09:49:23Z</time>
      </trkpt>
      <trkpt lat="45.96751" lon="4.58407">
        <ele>536</ele>
        <time>2018-09-01T09:49:24Z</time>
      </trkpt>
      <trkpt lat="45.96752" lon="4.58418">
        <ele>531</ele>
        <time>2018-09-01T09:49:25Z</time>
      </trkpt>
      <trkpt lat="45.96753" lon="4.58426">
        <ele>537</ele>
        <time>2018-09-01T09:49:26Z</time>
      </trkpt>
      <trkpt lat="45.96752" lon="4.58434">
        <ele>540</ele>
        <time>2018-09-01T09:49:27Z</time>
      </trkpt>
      <trkpt lat="45.96751" lon="4.58442">
        <ele>543</ele>
        <time>2018-09-01T09:49:28Z</time>
      </trkpt>
      <trkpt lat="45.9675" lon="4.5845">
        <ele>544</ele>
        <time>2018-09-01T09:49:29Z</time>
      </trkpt>
      <trkpt lat="45.96748" lon="4.58459">
        <ele>525</ele>
        <time>2018-09-01T09:49:30Z</time>
      </trkpt>
      <trkpt lat="45.96747" lon="4.58469">
        <ele>526</ele>
        <time>2018-09-01T09:49:31Z</time>
      </trkpt>
      <trkpt lat="45.96745" lon="4.58476">
        <ele>527</ele>
        <time>2018-09-01T09:49:32Z</time>
      </trkpt>
      <trkpt lat="45.96743" lon="4.58484">
        <ele>528</ele>
        <time>2018-09-01T09:49:33Z</time>
      </trkpt>
      <trkpt lat="45.9674" lon="4.58491">
        <ele>529</ele>
        <time>2018-09-01T09:49:34Z</time>
      </trkpt>
      <trkpt lat="45.96739" lon="4.58499">
        <ele>530</ele>
        <time>2018-09-01T09:49:35Z</time>
      </trkpt>
      <trkpt lat="45.96738" lon="4.58506">
        <ele>535</ele>
        <time>2018-09-01T09:49:36Z</time>
      </trkpt>
      <trkpt lat="45.96735" lon="4.58514">
        <ele>535</ele>
        <time>2018-09-01T09:49:37Z</time>
      </trkpt>
      <trkpt lat="45.96731" lon="4.58521">
        <ele>535</ele>
        <time>2018-09-01T09:49:38Z</time>
      </trkpt>
      <trkpt lat="45.96728" lon="4.58526">
        <ele>535</ele>
        <time>2018-09-01T09:49:39Z</time>
      </trkpt>
      <trkpt lat="45.96724" lon="4.58533">
        <ele>535</ele>
        <time>2018-09-01T09:49:40Z</time>
      </trkpt>
      <trkpt lat="45.9672" lon="4.58537">
        <ele>535</ele>
        <time>2018-09-01T09:49:41Z</time>
      </trkpt>
      <trkpt lat="45.96715" lon="4.5854">
        <ele>535</ele>
        <time>2018-09-01T09:49:42Z</time>
      </trkpt>
      <trkpt lat="45.9671" lon="4.58541">
        <ele>535</ele>
        <time>2018-09-01T09:49:43Z</time>
      </trkpt>
      <trkpt lat="45.96705" lon="4.58541">
        <ele>535</ele>
        <time>2018-09-01T09:49:44Z</time>
      </trkpt>
      <trkpt lat="45.967" lon="4.58542">
        <ele>534</ele>
        <time>2018-09-01T09:49:45Z</time>
      </trkpt>
      <trkpt lat="45.96694" lon="4.58543">
        <ele>534</ele>
        <time>2018-09-01T09:49:46Z</time>
      </trkpt>
      <trkpt lat="45.96689" lon="4.58541">
        <ele>534</ele>
        <time>2018-09-01T09:49:47Z</time>
      </trkpt>
      <trkpt lat="45.96684" lon="4.5854">
        <ele>533</ele>
        <time>2018-09-01T09:49:48Z</time>
      </trkpt>
      <trkpt lat="45.96678" lon="4.58537">
        <ele>532</ele>
        <time>2018-09-01T09:49:49Z</time>
      </trkpt>
      <trkpt lat="45.96673" lon="4.58534">
        <ele>531</ele>
        <time>2018-09-01T09:49:50Z</time>
      </trkpt>
      <trkpt lat="45.96668" lon="4.58531">
        <ele>531</ele>
        <time>2018-09-01T09:49:51Z</time>
      </trkpt>
      <trkpt lat="45.96661" lon="4.58526">
        <ele>531</ele>
        <time>2018-09-01T09:49:52Z</time>
      </trkpt>
      <trkpt lat="45.96656" lon="4.5852">
        <ele>530</ele>
        <time>2018-09-01T09:49:53Z</time>
      </trkpt>
      <trkpt lat="45.96649" lon="4.58515">
        <ele>530</ele>
        <time>2018-09-01T09:49:55Z</time>
      </trkpt>
      <trkpt lat="45.96643" lon="4.58509">
        <ele>531</ele>
        <time>2018-09-01T09:49:56Z</time>
      </trkpt>
      <trkpt lat="45.9664" lon="4.58504">
        <ele>531</ele>
        <time>2018-09-01T09:49:57Z</time>
      </trkpt>
      <trkpt lat="45.96636" lon="4.585">
        <ele>520</ele>
        <time>2018-09-01T09:49:58Z</time>
      </trkpt>
      <trkpt lat="45.9663" lon="4.58494">
        <ele>520</ele>
        <time>2018-09-01T09:49:59Z</time>
      </trkpt>
      <trkpt lat="45.96626" lon="4.58488">
        <ele>520</ele>
        <time>2018-09-01T09:50:00Z</time>
      </trkpt>
      <trkpt lat="45.96622" lon="4.58482">
        <ele>520</ele>
        <time>2018-09-01T09:50:01Z</time>
      </trkpt>
      <trkpt lat="45.9662" lon="4.58478">
        <ele>520</ele>
        <time>2018-09-01T09:50:02Z</time>
      </trkpt>
      <trkpt lat="45.96614" lon="4.58473">
        <ele>520</ele>
        <time>2018-09-01T09:50:03Z</time>
      </trkpt>
      <trkpt lat="45.96609" lon="4.58469">
        <ele>520</ele>
        <time>2018-09-01T09:50:04Z</time>
      </trkpt>
      <trkpt lat="45.96604" lon="4.58462">
        <ele>520</ele>
        <time>2018-09-01T09:50:06Z</time>
      </trkpt>
      <trkpt lat="45.96601" lon="4.58458">
        <ele>519</ele>
        <time>2018-09-01T09:50:07Z</time>
      </trkpt>
      <trkpt lat="45.96598" lon="4.58454">
        <ele>519</ele>
        <time>2018-09-01T09:50:10Z</time>
      </trkpt>
      <trkpt lat="45.96588" lon="4.58449">
        <ele>518</ele>
        <time>2018-09-01T09:50:11Z</time>
      </trkpt>
      <trkpt lat="45.96586" lon="4.58446">
        <ele>518</ele>
        <time>2018-09-01T09:50:12Z</time>
      </trkpt>
      <trkpt lat="45.9658" lon="4.58441">
        <ele>525</ele>
        <time>2018-09-01T09:50:13Z</time>
      </trkpt>
      <trkpt lat="45.96572" lon="4.58438">
        <ele>525</ele>
        <time>2018-09-01T09:50:14Z</time>
      </trkpt>
      <trkpt lat="45.96568" lon="4.58435">
        <ele>525</ele>
        <time>2018-09-01T09:50:15Z</time>
      </trkpt>
      <trkpt lat="45.96562" lon="4.58432">
        <ele>525</ele>
        <time>2018-09-01T09:50:16Z</time>
      </trkpt>
      <trkpt lat="45.96558" lon="4.58427">
        <ele>525</ele>
        <time>2018-09-01T09:50:17Z</time>
      </trkpt>
      <trkpt lat="45.96554" lon="4.58424">
        <ele>526</ele>
        <time>2018-09-01T09:50:18Z</time>
      </trkpt>
      <trkpt lat="45.96549" lon="4.58419">
        <ele>526</ele>
        <time>2018-09-01T09:50:19Z</time>
      </trkpt>
      <trkpt lat="45.96543" lon="4.58416">
        <ele>514</ele>
        <time>2018-09-01T09:50:20Z</time>
      </trkpt>
      <trkpt lat="45.96537" lon="4.58414">
        <ele>514</ele>
        <time>2018-09-01T09:50:21Z</time>
      </trkpt>
      <trkpt lat="45.96532" lon="4.58412">
        <ele>515</ele>
        <time>2018-09-01T09:50:22Z</time>
      </trkpt>
      <trkpt lat="45.96527" lon="4.58413">
        <ele>516</ele>
        <time>2018-09-01T09:50:23Z</time>
      </trkpt>
      <trkpt lat="45.96522" lon="4.5841">
        <ele>517</ele>
        <time>2018-09-01T09:50:24Z</time>
      </trkpt>
      <trkpt lat="45.96519" lon="4.58408">
        <ele>518</ele>
        <time>2018-09-01T09:50:25Z</time>
      </trkpt>
      <trkpt lat="45.96511" lon="4.58402">
        <ele>518</ele>
        <time>2018-09-01T09:50:27Z</time>
      </trkpt>
      <trkpt lat="45.96507" lon="4.584">
        <ele>518</ele>
        <time>2018-09-01T09:50:28Z</time>
      </trkpt>
      <trkpt lat="45.96502" lon="4.58398">
        <ele>518</ele>
        <time>2018-09-01T09:50:29Z</time>
      </trkpt>
      <trkpt lat="45.96497" lon="4.58398">
        <ele>518</ele>
        <time>2018-09-01T09:50:30Z</time>
      </trkpt>
      <trkpt lat="45.96492" lon="4.58397">
        <ele>517</ele>
        <time>2018-09-01T09:50:31Z</time>
      </trkpt>
      <trkpt lat="45.96487" lon="4.58398">
        <ele>517</ele>
        <time>2018-09-01T09:50:32Z</time>
      </trkpt>
      <trkpt lat="45.96481" lon="4.58398">
        <ele>516</ele>
        <time>2018-09-01T09:50:33Z</time>
      </trkpt>
      <trkpt lat="45.96476" lon="4.584">
        <ele>515</ele>
        <time>2018-09-01T09:50:34Z</time>
      </trkpt>
      <trkpt lat="45.96472" lon="4.58404">
        <ele>515</ele>
        <time>2018-09-01T09:50:35Z</time>
      </trkpt>
      <trkpt lat="45.96467" lon="4.58407">
        <ele>514</ele>
        <time>2018-09-01T09:50:36Z</time>
      </trkpt>
      <trkpt lat="45.96462" lon="4.58411">
        <ele>514</ele>
        <time>2018-09-01T09:50:37Z</time>
      </trkpt>
      <trkpt lat="45.96458" lon="4.58413">
        <ele>513</ele>
        <time>2018-09-01T09:50:38Z</time>
      </trkpt>
      <trkpt lat="45.96451" lon="4.58422">
        <ele>525</ele>
        <time>2018-09-01T09:50:40Z</time>
      </trkpt>
      <trkpt lat="45.96448" lon="4.58425">
        <ele>525</ele>
        <time>2018-09-01T09:50:41Z</time>
      </trkpt>
      <trkpt lat="45.96444" lon="4.5843">
        <ele>525</ele>
        <time>2018-09-01T09:50:42Z</time>
      </trkpt>
      <trkpt lat="45.9644" lon="4.58435">
        <ele>525</ele>
        <time>2018-09-01T09:50:43Z</time>
      </trkpt>
      <trkpt lat="45.96436" lon="4.5844">
        <ele>525</ele>
        <time>2018-09-01T09:50:44Z</time>
      </trkpt>
      <trkpt lat="45.96431" lon="4.58446">
        <ele>526</ele>
        <time>2018-09-01T09:50:45Z</time>
      </trkpt>
      <trkpt lat="45.96426" lon="4.58451">
        <ele>527</ele>
        <time>2018-09-01T09:50:46Z</time>
      </trkpt>
      <trkpt lat="45.96423" lon="4.58455">
        <ele>527</ele>
        <time>2018-09-01T09:50:47Z</time>
      </trkpt>
      <trkpt lat="45.9642" lon="4.58461">
        <ele>528</ele>
        <time>2018-09-01T09:50:48Z</time>
      </trkpt>
      <trkpt lat="45.96416" lon="4.58468">
        <ele>518</ele>
        <time>2018-09-01T09:50:49Z</time>
      </trkpt>
      <trkpt lat="45.96412" lon="4.58473">
        <ele>519</ele>
        <time>2018-09-01T09:50:50Z</time>
      </trkpt>
      <trkpt lat="45.96408" lon="4.58479">
        <ele>521</ele>
        <time>2018-09-01T09:50:51Z</time>
      </trkpt>
      <trkpt lat="45.96405" lon="4.58483">
        <ele>521</ele>
        <time>2018-09-01T09:50:52Z</time>
      </trkpt>
      <trkpt lat="45.964" lon="4.58486">
        <ele>521</ele>
        <time>2018-09-01T09:50:53Z</time>
      </trkpt>
      <trkpt lat="45.96396" lon="4.58491">
        <ele>521</ele>
        <time>2018-09-01T09:50:54Z</time>
      </trkpt>
      <trkpt lat="45.96392" lon="4.58496">
        <ele>520</ele>
        <time>2018-09-01T09:50:55Z</time>
      </trkpt>
      <trkpt lat="45.96386" lon="4.585">
        <ele>531</ele>
        <time>2018-09-01T09:50:56Z</time>
      </trkpt>
      <trkpt lat="45.96382" lon="4.58506">
        <ele>531</ele>
        <time>2018-09-01T09:50:57Z</time>
      </trkpt>
      <trkpt lat="45.96377" lon="4.5851">
        <ele>530</ele>
        <time>2018-09-01T09:50:58Z</time>
      </trkpt>
      <trkpt lat="45.96376" lon="4.58517">
        <ele>531</ele>
        <time>2018-09-01T09:50:59Z</time>
      </trkpt>
      <trkpt lat="45.96373" lon="4.58523">
        <ele>531</ele>
        <time>2018-09-01T09:51:00Z</time>
      </trkpt>
      <trkpt lat="45.96367" lon="4.58525">
        <ele>530</ele>
        <time>2018-09-01T09:51:01Z</time>
      </trkpt>
      <trkpt lat="45.96363" lon="4.58529">
        <ele>530</ele>
        <time>2018-09-01T09:51:02Z</time>
      </trkpt>
      <trkpt lat="45.96358" lon="4.58533">
        <ele>530</ele>
        <time>2018-09-01T09:51:03Z</time>
      </trkpt>
      <trkpt lat="45.96352" lon="4.58536">
        <ele>530</ele>
        <time>2018-09-01T09:51:04Z</time>
      </trkpt>
      <trkpt lat="45.96347" lon="4.58536">
        <ele>529</ele>
        <time>2018-09-01T09:51:05Z</time>
      </trkpt>
      <trkpt lat="45.96342" lon="4.58539">
        <ele>530</ele>
        <time>2018-09-01T09:51:06Z</time>
      </trkpt>
      <trkpt lat="45.96336" lon="4.5854">
        <ele>530</ele>
        <time>2018-09-01T09:51:07Z</time>
      </trkpt>
      <trkpt lat="45.9633" lon="4.58541">
        <ele>526</ele>
        <time>2018-09-01T09:51:08Z</time>
      </trkpt>
      <trkpt lat="45.96325" lon="4.58539">
        <ele>526</ele>
        <time>2018-09-01T09:51:09Z</time>
      </trkpt>
      <trkpt lat="45.96319" lon="4.58537">
        <ele>526</ele>
        <time>2018-09-01T09:51:10Z</time>
      </trkpt>
      <trkpt lat="45.96314" lon="4.58536">
        <ele>526</ele>
        <time>2018-09-01T09:51:11Z</time>
      </trkpt>
      <trkpt lat="45.96307" lon="4.58533">
        <ele>525</ele>
        <time>2018-09-01T09:51:12Z</time>
      </trkpt>
      <trkpt lat="45.96301" lon="4.58533">
        <ele>526</ele>
        <time>2018-09-01T09:51:13Z</time>
      </trkpt>
      <trkpt lat="45.96295" lon="4.58533">
        <ele>526</ele>
        <time>2018-09-01T09:51:14Z</time>
      </trkpt>
      <trkpt lat="45.96291" lon="4.5853">
        <ele>526</ele>
        <time>2018-09-01T09:51:15Z</time>
      </trkpt>
      <trkpt lat="45.96286" lon="4.58526">
        <ele>525</ele>
        <time>2018-09-01T09:51:16Z</time>
      </trkpt>
      <trkpt lat="45.9628" lon="4.58523">
        <ele>525</ele>
        <time>2018-09-01T09:51:17Z</time>
      </trkpt>
      <trkpt lat="45.96275" lon="4.5852">
        <ele>525</ele>
        <time>2018-09-01T09:51:18Z</time>
      </trkpt>
      <trkpt lat="45.9627" lon="4.58517">
        <ele>524</ele>
        <time>2018-09-01T09:51:19Z</time>
      </trkpt>
      <trkpt lat="45.96265" lon="4.58516">
        <ele>524</ele>
        <time>2018-09-01T09:51:20Z</time>
      </trkpt>
      <trkpt lat="45.96258" lon="4.58513">
        <ele>523</ele>
        <time>2018-09-01T09:51:21Z</time>
      </trkpt>
      <trkpt lat="45.96252" lon="4.58511">
        <ele>522</ele>
        <time>2018-09-01T09:51:22Z</time>
      </trkpt>
      <trkpt lat="45.96247" lon="4.58509">
        <ele>521</ele>
        <time>2018-09-01T09:51:23Z</time>
      </trkpt>
      <trkpt lat="45.9624" lon="4.58505">
        <ele>521</ele>
        <time>2018-09-01T09:51:25Z</time>
      </trkpt>
      <trkpt lat="45.96236" lon="4.58505">
        <ele>521</ele>
        <time>2018-09-01T09:51:26Z</time>
      </trkpt>
      <trkpt lat="45.9623" lon="4.58505">
        <ele>522</ele>
        <time>2018-09-01T09:51:27Z</time>
      </trkpt>
      <trkpt lat="45.96225" lon="4.58504">
        <ele>522</ele>
        <time>2018-09-01T09:51:28Z</time>
      </trkpt>
      <trkpt lat="45.9622" lon="4.58505">
        <ele>522</ele>
        <time>2018-09-01T09:51:29Z</time>
      </trkpt>
      <trkpt lat="45.96214" lon="4.58508">
        <ele>522</ele>
        <time>2018-09-01T09:51:30Z</time>
      </trkpt>
      <trkpt lat="45.96209" lon="4.58509">
        <ele>522</ele>
        <time>2018-09-01T09:51:31Z</time>
      </trkpt>
      <trkpt lat="45.96204" lon="4.58512">
        <ele>521</ele>
        <time>2018-09-01T09:51:32Z</time>
      </trkpt>
      <trkpt lat="45.962" lon="4.58515">
        <ele>521</ele>
        <time>2018-09-01T09:51:33Z</time>
      </trkpt>
      <trkpt lat="45.96195" lon="4.58518">
        <ele>521</ele>
        <time>2018-09-01T09:51:34Z</time>
      </trkpt>
      <trkpt lat="45.9619" lon="4.58521">
        <ele>521</ele>
        <time>2018-09-01T09:51:35Z</time>
      </trkpt>
      <trkpt lat="45.96186" lon="4.58525">
        <ele>521</ele>
        <time>2018-09-01T09:51:36Z</time>
      </trkpt>
      <trkpt lat="45.96182" lon="4.5853">
        <ele>522</ele>
        <time>2018-09-01T09:51:37Z</time>
      </trkpt>
      <trkpt lat="45.96177" lon="4.58536">
        <ele>523</ele>
        <time>2018-09-01T09:51:38Z</time>
      </trkpt>
      <trkpt lat="45.96173" lon="4.58542">
        <ele>524</ele>
        <time>2018-09-01T09:51:39Z</time>
      </trkpt>
      <trkpt lat="45.96168" lon="4.58548">
        <ele>525</ele>
        <time>2018-09-01T09:51:40Z</time>
      </trkpt>
      <trkpt lat="45.96164" lon="4.58555">
        <ele>518</ele>
        <time>2018-09-01T09:51:41Z</time>
      </trkpt>
      <trkpt lat="45.96159" lon="4.58562">
        <ele>519</ele>
        <time>2018-09-01T09:51:42Z</time>
      </trkpt>
      <trkpt lat="45.96155" lon="4.5857">
        <ele>521</ele>
        <time>2018-09-01T09:51:43Z</time>
      </trkpt>
      <trkpt lat="45.96151" lon="4.58575">
        <ele>521</ele>
        <time>2018-09-01T09:51:44Z</time>
      </trkpt>
      <trkpt lat="45.96147" lon="4.58581">
        <ele>520</ele>
        <time>2018-09-01T09:51:45Z</time>
      </trkpt>
      <trkpt lat="45.96142" lon="4.58588">
        <ele>531</ele>
        <time>2018-09-01T09:51:46Z</time>
      </trkpt>
      <trkpt lat="45.96137" lon="4.58596">
        <ele>531</ele>
        <time>2018-09-01T09:51:47Z</time>
      </trkpt>
      <trkpt lat="45.96133" lon="4.586">
        <ele>531</ele>
        <time>2018-09-01T09:51:48Z</time>
      </trkpt>
      <trkpt lat="45.96127" lon="4.58605">
        <ele>531</ele>
        <time>2018-09-01T09:51:49Z</time>
      </trkpt>
      <trkpt lat="45.96123" lon="4.5861">
        <ele>531</ele>
        <time>2018-09-01T09:51:50Z</time>
      </trkpt>
      <trkpt lat="45.96118" lon="4.58614">
        <ele>531</ele>
        <time>2018-09-01T09:51:51Z</time>
      </trkpt>
      <trkpt lat="45.96113" lon="4.58618">
        <ele>531</ele>
        <time>2018-09-01T09:51:52Z</time>
      </trkpt>
      <trkpt lat="45.96108" lon="4.58624">
        <ele>531</ele>
        <time>2018-09-01T09:51:53Z</time>
      </trkpt>
      <trkpt lat="45.96102" lon="4.58628">
        <ele>531</ele>
        <time>2018-09-01T09:51:54Z</time>
      </trkpt>
      <trkpt lat="45.96098" lon="4.5863">
        <ele>532</ele>
        <time>2018-09-01T09:51:55Z</time>
      </trkpt>
      <trkpt lat="45.96092" lon="4.58632">
        <ele>531</ele>
        <time>2018-09-01T09:51:56Z</time>
      </trkpt>
      <trkpt lat="45.96087" lon="4.5864">
        <ele>533</ele>
        <time>2018-09-01T09:51:57Z</time>
      </trkpt>
      <trkpt lat="45.9608" lon="4.5864">
        <ele>529</ele>
        <time>2018-09-01T09:51:58Z</time>
      </trkpt>
      <trkpt lat="45.96074" lon="4.58637">
        <ele>528</ele>
        <time>2018-09-01T09:51:59Z</time>
      </trkpt>
      <trkpt lat="45.96069" lon="4.58634">
        <ele>528</ele>
        <time>2018-09-01T09:52:00Z</time>
      </trkpt>
      <trkpt lat="45.96064" lon="4.58633">
        <ele>528</ele>
        <time>2018-09-01T09:52:01Z</time>
      </trkpt>
      <trkpt lat="45.96058" lon="4.58631">
        <ele>528</ele>
        <time>2018-09-01T09:52:02Z</time>
      </trkpt>
      <trkpt lat="45.96053" lon="4.5863">
        <ele>527</ele>
        <time>2018-09-01T09:52:03Z</time>
      </trkpt>
      <trkpt lat="45.96046" lon="4.58626">
        <ele>527</ele>
        <time>2018-09-01T09:52:04Z</time>
      </trkpt>
      <trkpt lat="45.9604" lon="4.58626">
        <ele>527</ele>
        <time>2018-09-01T09:52:05Z</time>
      </trkpt>
      <trkpt lat="45.96035" lon="4.58622">
        <ele>527</ele>
        <time>2018-09-01T09:52:06Z</time>
      </trkpt>
      <trkpt lat="45.96031" lon="4.58619">
        <ele>527</ele>
        <time>2018-09-01T09:52:07Z</time>
      </trkpt>
      <trkpt lat="45.96026" lon="4.58616">
        <ele>527</ele>
        <time>2018-09-01T09:52:08Z</time>
      </trkpt>
      <trkpt lat="45.96021" lon="4.58613">
        <ele>526</ele>
        <time>2018-09-01T09:52:09Z</time>
      </trkpt>
      <trkpt lat="45.96017" lon="4.5861">
        <ele>526</ele>
        <time>2018-09-01T09:52:10Z</time>
      </trkpt>
      <trkpt lat="45.96012" lon="4.58606">
        <ele>525</ele>
        <time>2018-09-01T09:52:11Z</time>
      </trkpt>
      <trkpt lat="45.96007" lon="4.58603">
        <ele>524</ele>
        <time>2018-09-01T09:52:12Z</time>
      </trkpt>
      <trkpt lat="45.96002" lon="4.586">
        <ele>524</ele>
        <time>2018-09-01T09:52:13Z</time>
      </trkpt>
      <trkpt lat="45.95997" lon="4.58596">
        <ele>523</ele>
        <time>2018-09-01T09:52:14Z</time>
      </trkpt>
      <trkpt lat="45.95992" lon="4.58593">
        <ele>523</ele>
        <time>2018-09-01T09:52:15Z</time>
      </trkpt>
      <trkpt lat="45.95987" lon="4.58591">
        <ele>523</ele>
        <time>2018-09-01T09:52:16Z</time>
      </trkpt>
      <trkpt lat="45.95983" lon="4.5859">
        <ele>523</ele>
        <time>2018-09-01T09:52:17Z</time>
      </trkpt>
      <trkpt lat="45.95977" lon="4.58583">
        <ele>515</ele>
        <time>2018-09-01T09:52:18Z</time>
      </trkpt>
      <trkpt lat="45.95971" lon="4.58582">
        <ele>515</ele>
        <time>2018-09-01T09:52:19Z</time>
      </trkpt>
      <trkpt lat="45.95966" lon="4.58579">
        <ele>514</ele>
        <time>2018-09-01T09:52:20Z</time>
      </trkpt>
      <trkpt lat="45.95961" lon="4.58579">
        <ele>514</ele>
        <time>2018-09-01T09:52:21Z</time>
      </trkpt>
      <trkpt lat="45.95956" lon="4.58581">
        <ele>514</ele>
        <time>2018-09-01T09:52:22Z</time>
      </trkpt>
      <trkpt lat="45.95947" lon="4.58581">
        <ele>514</ele>
        <time>2018-09-01T09:52:24Z</time>
      </trkpt>
      <trkpt lat="45.95943" lon="4.58584">
        <ele>522</ele>
        <time>2018-09-01T09:52:25Z</time>
      </trkpt>
      <trkpt lat="45.95937" lon="4.58587">
        <ele>522</ele>
        <time>2018-09-01T09:52:26Z</time>
      </trkpt>
      <trkpt lat="45.95933" lon="4.58592">
        <ele>522</ele>
        <time>2018-09-01T09:52:27Z</time>
      </trkpt>
      <trkpt lat="45.95927" lon="4.58597">
        <ele>521</ele>
        <time>2018-09-01T09:52:29Z</time>
      </trkpt>
      <trkpt lat="45.95924" lon="4.58602">
        <ele>522</ele>
        <time>2018-09-01T09:52:30Z</time>
      </trkpt>
      <trkpt lat="45.95918" lon="4.58611">
        <ele>523</ele>
        <time>2018-09-01T09:52:32Z</time>
      </trkpt>
      <trkpt lat="45.95915" lon="4.58616">
        <ele>515</ele>
        <time>2018-09-01T09:52:33Z</time>
      </trkpt>
      <trkpt lat="45.9591" lon="4.58618">
        <ele>514</ele>
        <time>2018-09-01T09:52:34Z</time>
      </trkpt>
      <trkpt lat="45.95907" lon="4.58624">
        <ele>515</ele>
        <time>2018-09-01T09:52:35Z</time>
      </trkpt>
      <trkpt lat="45.95905" lon="4.5863">
        <ele>515</ele>
        <time>2018-09-01T09:52:36Z</time>
      </trkpt>
      <trkpt lat="45.95902" lon="4.58635">
        <ele>516</ele>
        <time>2018-09-01T09:52:37Z</time>
      </trkpt>
      <trkpt lat="45.95898" lon="4.58639">
        <ele>516</ele>
        <time>2018-09-01T09:52:38Z</time>
      </trkpt>
      <trkpt lat="45.95897" lon="4.58645">
        <ele>517</ele>
        <time>2018-09-01T09:52:39Z</time>
      </trkpt>
      <trkpt lat="45.95893" lon="4.58651">
        <ele>517</ele>
        <time>2018-09-01T09:52:40Z</time>
      </trkpt>
      <trkpt lat="45.95891" lon="4.58656">
        <ele>517</ele>
        <time>2018-09-01T09:52:41Z</time>
      </trkpt>
      <trkpt lat="45.95888" lon="4.58661">
        <ele>517</ele>
        <time>2018-09-01T09:52:42Z</time>
      </trkpt>
      <trkpt lat="45.95885" lon="4.58668">
        <ele>526</ele>
        <time>2018-09-01T09:52:43Z</time>
      </trkpt>
      <trkpt lat="45.95882" lon="4.58673">
        <ele>526</ele>
        <time>2018-09-01T09:52:44Z</time>
      </trkpt>
      <trkpt lat="45.9588" lon="4.58679">
        <ele>525</ele>
        <time>2018-09-01T09:52:45Z</time>
      </trkpt>
      <trkpt lat="45.95877" lon="4.58684">
        <ele>525</ele>
        <time>2018-09-01T09:52:46Z</time>
      </trkpt>
      <trkpt lat="45.95873" lon="4.58689">
        <ele>525</ele>
        <time>2018-09-01T09:52:47Z</time>
      </trkpt>
      <trkpt lat="45.95868" lon="4.58698">
        <ele>525</ele>
        <time>2018-09-01T09:52:49Z</time>
      </trkpt>
      <trkpt lat="45.95866" lon="4.58704">
        <ele>525</ele>
        <time>2018-09-01T09:52:50Z</time>
      </trkpt>
      <trkpt lat="45.9586" lon="4.58714">
        <ele>526</ele>
        <time>2018-09-01T09:52:52Z</time>
      </trkpt>
      <trkpt lat="45.95856" lon="4.58717">
        <ele>526</ele>
        <time>2018-09-01T09:52:53Z</time>
      </trkpt>
      <trkpt lat="45.95853" lon="4.58723">
        <ele>526</ele>
        <time>2018-09-01T09:52:54Z</time>
      </trkpt>
      <trkpt lat="45.95849" lon="4.58726">
        <ele>526</ele>
        <time>2018-09-01T09:52:55Z</time>
      </trkpt>
      <trkpt lat="45.95845" lon="4.58731">
        <ele>526</ele>
        <time>2018-09-01T09:52:56Z</time>
      </trkpt>
      <trkpt lat="45.95842" lon="4.58734">
        <ele>525</ele>
        <time>2018-09-01T09:52:57Z</time>
      </trkpt>
      <trkpt lat="45.95835" lon="4.58741">
        <ele>525</ele>
        <time>2018-09-01T09:52:59Z</time>
      </trkpt>
      <trkpt lat="45.95831" lon="4.58744">
        <ele>521</ele>
        <time>2018-09-01T09:53:00Z</time>
      </trkpt>
      <trkpt lat="45.95827" lon="4.58748">
        <ele>520</ele>
        <time>2018-09-01T09:53:01Z</time>
      </trkpt>
      <trkpt lat="45.95823" lon="4.5875">
        <ele>524</ele>
        <time>2018-09-01T09:53:02Z</time>
      </trkpt>
      <trkpt lat="45.95816" lon="4.58758">
        <ele>525</ele>
        <time>2018-09-01T09:53:04Z</time>
      </trkpt>
      <trkpt lat="45.95811" lon="4.5876">
        <ele>525</ele>
        <time>2018-09-01T09:53:05Z</time>
      </trkpt>
      <trkpt lat="45.95805" lon="4.58763">
        <ele>525</ele>
        <time>2018-09-01T09:53:06Z</time>
      </trkpt>
      <trkpt lat="45.958" lon="4.58763">
        <ele>524</ele>
        <time>2018-09-01T09:53:07Z</time>
      </trkpt>
      <trkpt lat="45.95795" lon="4.58766">
        <ele>524</ele>
        <time>2018-09-01T09:53:08Z</time>
      </trkpt>
      <trkpt lat="45.95791" lon="4.58768">
        <ele>524</ele>
        <time>2018-09-01T09:53:09Z</time>
      </trkpt>
      <trkpt lat="45.95786" lon="4.58773">
        <ele>524</ele>
        <time>2018-09-01T09:53:10Z</time>
      </trkpt>
      <trkpt lat="45.95781" lon="4.58776">
        <ele>524</ele>
        <time>2018-09-01T09:53:11Z</time>
      </trkpt>
      <trkpt lat="45.95776" lon="4.58779">
        <ele>524</ele>
        <time>2018-09-01T09:53:12Z</time>
      </trkpt>
      <trkpt lat="45.95772" lon="4.58779">
        <ele>523</ele>
        <time>2018-09-01T09:53:13Z</time>
      </trkpt>
      <trkpt lat="45.95766" lon="4.58779">
        <ele>523</ele>
        <time>2018-09-01T09:53:14Z</time>
      </trkpt>
      <trkpt lat="45.95761" lon="4.58781">
        <ele>523</ele>
        <time>2018-09-01T09:53:15Z</time>
      </trkpt>
      <trkpt lat="45.95756" lon="4.58783">
        <ele>523</ele>
        <time>2018-09-01T09:53:16Z</time>
      </trkpt>
      <trkpt lat="45.95751" lon="4.58788">
        <ele>523</ele>
        <time>2018-09-01T09:53:17Z</time>
      </trkpt>
      <trkpt lat="45.95745" lon="4.58791">
        <ele>516</ele>
        <time>2018-09-01T09:53:18Z</time>
      </trkpt>
      <trkpt lat="45.95741" lon="4.58796">
        <ele>517</ele>
        <time>2018-09-01T09:53:19Z</time>
      </trkpt>
      <trkpt lat="45.95736" lon="4.588">
        <ele>517</ele>
        <time>2018-09-01T09:53:20Z</time>
      </trkpt>
      <trkpt lat="45.95732" lon="4.58808">
        <ele>518</ele>
        <time>2018-09-01T09:53:21Z</time>
      </trkpt>
      <trkpt lat="45.95727" lon="4.58811">
        <ele>518</ele>
        <time>2018-09-01T09:53:22Z</time>
      </trkpt>
      <trkpt lat="45.95723" lon="4.58818">
        <ele>518</ele>
        <time>2018-09-01T09:53:23Z</time>
      </trkpt>
      <trkpt lat="45.95718" lon="4.58824">
        <ele>518</ele>
        <time>2018-09-01T09:53:24Z</time>
      </trkpt>
      <trkpt lat="45.95714" lon="4.58828">
        <ele>518</ele>
        <time>2018-09-01T09:53:25Z</time>
      </trkpt>
      <trkpt lat="45.95707" lon="4.58834">
        <ele>529</ele>
        <time>2018-09-01T09:53:26Z</time>
      </trkpt>
      <trkpt lat="45.95702" lon="4.5884">
        <ele>529</ele>
        <time>2018-09-01T09:53:27Z</time>
      </trkpt>
      <trkpt lat="45.95696" lon="4.58842">
        <ele>528</ele>
        <time>2018-09-01T09:53:28Z</time>
      </trkpt>
      <trkpt lat="45.9569" lon="4.58845">
        <ele>527</ele>
        <time>2018-09-01T09:53:29Z</time>
      </trkpt>
      <trkpt lat="45.95685" lon="4.58849">
        <ele>527</ele>
        <time>2018-09-01T09:53:30Z</time>
      </trkpt>
      <trkpt lat="45.95679" lon="4.5885">
        <ele>526</ele>
        <time>2018-09-01T09:53:31Z</time>
      </trkpt>
      <trkpt lat="45.95673" lon="4.58851">
        <ele>526</ele>
        <time>2018-09-01T09:53:32Z</time>
      </trkpt>
      <trkpt lat="45.95667" lon="4.58851">
        <ele>522</ele>
        <time>2018-09-01T09:53:33Z</time>
      </trkpt>
      <trkpt lat="45.9566" lon="4.58852">
        <ele>523</ele>
        <time>2018-09-01T09:53:34Z</time>
      </trkpt>
      <trkpt lat="45.95654" lon="4.58853">
        <ele>523</ele>
        <time>2018-09-01T09:53:35Z</time>
      </trkpt>
      <trkpt lat="45.95649" lon="4.58854">
        <ele>524</ele>
        <time>2018-09-01T09:53:36Z</time>
      </trkpt>
      <trkpt lat="45.95643" lon="4.58855">
        <ele>524</ele>
        <time>2018-09-01T09:53:37Z</time>
      </trkpt>
      <trkpt lat="45.95638" lon="4.58857">
        <ele>525</ele>
        <time>2018-09-01T09:53:38Z</time>
      </trkpt>
      <trkpt lat="45.95631" lon="4.58859">
        <ele>525</ele>
        <time>2018-09-01T09:53:39Z</time>
      </trkpt>
      <trkpt lat="45.95626" lon="4.5886">
        <ele>525</ele>
        <time>2018-09-01T09:53:40Z</time>
      </trkpt>
      <trkpt lat="45.95621" lon="4.58864">
        <ele>526</ele>
        <time>2018-09-01T09:53:41Z</time>
      </trkpt>
      <trkpt lat="45.95616" lon="4.58865">
        <ele>526</ele>
        <time>2018-09-01T09:53:42Z</time>
      </trkpt>
      <trkpt lat="45.9561" lon="4.5887">
        <ele>526</ele>
        <time>2018-09-01T09:53:43Z</time>
      </trkpt>
      <trkpt lat="45.95604" lon="4.58868">
        <ele>526</ele>
        <time>2018-09-01T09:53:44Z</time>
      </trkpt>
      <trkpt lat="45.95599" lon="4.58867">
        <ele>525</ele>
        <time>2018-09-01T09:53:45Z</time>
      </trkpt>
      <trkpt lat="45.95594" lon="4.58867">
        <ele>525</ele>
        <time>2018-09-01T09:53:46Z</time>
      </trkpt>
      <trkpt lat="45.9559" lon="4.58866">
        <ele>525</ele>
        <time>2018-09-01T09:53:47Z</time>
      </trkpt>
      <trkpt lat="45.95585" lon="4.58866">
        <ele>525</ele>
        <time>2018-09-01T09:53:48Z</time>
      </trkpt>
      <trkpt lat="45.9558" lon="4.58867">
        <ele>526</ele>
        <time>2018-09-01T09:53:49Z</time>
      </trkpt>
      <trkpt lat="45.95574" lon="4.58867">
        <ele>526</ele>
        <time>2018-09-01T09:53:50Z</time>
      </trkpt>
      <trkpt lat="45.95569" lon="4.58867">
        <ele>527</ele>
        <time>2018-09-01T09:53:51Z</time>
      </trkpt>
      <trkpt lat="45.95565" lon="4.58866">
        <ele>527</ele>
        <time>2018-09-01T09:53:52Z</time>
      </trkpt>
      <trkpt lat="45.9556" lon="4.58866">
        <ele>527</ele>
        <time>2018-09-01T09:53:53Z</time>
      </trkpt>
      <trkpt lat="45.95554" lon="4.58865">
        <ele>527</ele>
        <time>2018-09-01T09:53:54Z</time>
      </trkpt>
      <trkpt lat="45.95549" lon="4.58863">
        <ele>527</ele>
        <time>2018-09-01T09:53:55Z</time>
      </trkpt>
      <trkpt lat="45.9554" lon="4.58859">
        <ele>527</ele>
        <time>2018-09-01T09:53:57Z</time>
      </trkpt>
      <trkpt lat="45.95536" lon="4.58857">
        <ele>527</ele>
        <time>2018-09-01T09:53:58Z</time>
      </trkpt>
      <trkpt lat="45.9553" lon="4.58852">
        <ele>527</ele>
        <time>2018-09-01T09:53:59Z</time>
      </trkpt>
      <trkpt lat="45.95524" lon="4.58849">
        <ele>527</ele>
        <time>2018-09-01T09:54:00Z</time>
      </trkpt>
      <trkpt lat="45.9552" lon="4.58844">
        <ele>527</ele>
        <time>2018-09-01T09:54:01Z</time>
      </trkpt>
      <trkpt lat="45.95516" lon="4.5884">
        <ele>527</ele>
        <time>2018-09-01T09:54:02Z</time>
      </trkpt>
      <trkpt lat="45.95512" lon="4.58833">
        <ele>527</ele>
        <time>2018-09-01T09:54:03Z</time>
      </trkpt>
      <trkpt lat="45.95509" lon="4.58828">
        <ele>523</ele>
        <time>2018-09-01T09:54:04Z</time>
      </trkpt>
      <trkpt lat="45.95506" lon="4.58822">
        <ele>523</ele>
        <time>2018-09-01T09:54:05Z</time>
      </trkpt>
      <trkpt lat="45.95503" lon="4.58816">
        <ele>522</ele>
        <time>2018-09-01T09:54:06Z</time>
      </trkpt>
      <trkpt lat="45.95499" lon="4.58812">
        <ele>528</ele>
        <time>2018-09-01T09:54:07Z</time>
      </trkpt>
      <trkpt lat="45.95496" lon="4.58805">
        <ele>528</ele>
        <time>2018-09-01T09:54:08Z</time>
      </trkpt>
      <trkpt lat="45.95493" lon="4.58799">
        <ele>528</ele>
        <time>2018-09-01T09:54:09Z</time>
      </trkpt>
      <trkpt lat="45.95491" lon="4.58791">
        <ele>528</ele>
        <time>2018-09-01T09:54:10Z</time>
      </trkpt>
      <trkpt lat="45.95489" lon="4.58783">
        <ele>528</ele>
        <time>2018-09-01T09:54:11Z</time>
      </trkpt>
      <trkpt lat="45.95487" lon="4.58777">
        <ele>527</ele>
        <time>2018-09-01T09:54:12Z</time>
      </trkpt>
      <trkpt lat="45.95485" lon="4.58769">
        <ele>527</ele>
        <time>2018-09-01T09:54:13Z</time>
      </trkpt>
      <trkpt lat="45.95486" lon="4.58763">
        <ele>526</ele>
        <time>2018-09-01T09:54:14Z</time>
      </trkpt>
      <trkpt lat="45.95486" lon="4.58753">
        <ele>525</ele>
        <time>2018-09-01T09:54:15Z</time>
      </trkpt>
      <trkpt lat="45.95487" lon="4.58746">
        <ele>523</ele>
        <time>2018-09-01T09:54:16Z</time>
      </trkpt>
      <trkpt lat="45.95487" lon="4.5874">
        <ele>523</ele>
        <time>2018-09-01T09:54:17Z</time>
      </trkpt>
      <trkpt lat="45.95488" lon="4.58733">
        <ele>523</ele>
        <time>2018-09-01T09:54:18Z</time>
      </trkpt>
      <trkpt lat="45.9549" lon="4.58727">
        <ele>523</ele>
        <time>2018-09-01T09:54:19Z</time>
      </trkpt>
      <trkpt lat="45.95487" lon="4.5872">
        <ele>524</ele>
        <time>2018-09-01T09:54:20Z</time>
      </trkpt>
      <trkpt lat="45.95486" lon="4.58713">
        <ele>524</ele>
        <time>2018-09-01T09:54:21Z</time>
      </trkpt>
      <trkpt lat="45.95486" lon="4.58706">
        <ele>524</ele>
        <time>2018-09-01T09:54:22Z</time>
      </trkpt>
      <trkpt lat="45.95486" lon="4.58698">
        <ele>523</ele>
        <time>2018-09-01T09:54:23Z</time>
      </trkpt>
      <trkpt lat="45.95484" lon="4.5869">
        <ele>523</ele>
        <time>2018-09-01T09:54:24Z</time>
      </trkpt>
      <trkpt lat="45.95485" lon="4.58678">
        <ele>521</ele>
        <time>2018-09-01T09:54:26Z</time>
      </trkpt>
      <trkpt lat="45.95484" lon="4.58671">
        <ele>521</ele>
        <time>2018-09-01T09:54:27Z</time>
      </trkpt>
      <trkpt lat="45.95484" lon="4.58663">
        <ele>519</ele>
        <time>2018-09-01T09:54:28Z</time>
      </trkpt>
      <trkpt lat="45.95486" lon="4.58658">
        <ele>519</ele>
        <time>2018-09-01T09:54:29Z</time>
      </trkpt>
      <trkpt lat="45.95485" lon="4.5865">
        <ele>520</ele>
        <time>2018-09-01T09:54:30Z</time>
      </trkpt>
      <trkpt lat="45.95484" lon="4.58643">
        <ele>521</ele>
        <time>2018-09-01T09:54:31Z</time>
      </trkpt>
      <trkpt lat="45.95483" lon="4.58631">
        <ele>521</ele>
        <time>2018-09-01T09:54:33Z</time>
      </trkpt>
      <trkpt lat="45.9548" lon="4.58623">
        <ele>521</ele>
        <time>2018-09-01T09:54:34Z</time>
      </trkpt>
      <trkpt lat="45.95478" lon="4.58616">
        <ele>521</ele>
        <time>2018-09-01T09:54:35Z</time>
      </trkpt>
      <trkpt lat="45.95474" lon="4.58608">
        <ele>521</ele>
        <time>2018-09-01T09:54:36Z</time>
      </trkpt>
      <trkpt lat="45.95472" lon="4.58596">
        <ele>521</ele>
        <time>2018-09-01T09:54:38Z</time>
      </trkpt>
      <trkpt lat="45.95469" lon="4.58593">
        <ele>521</ele>
        <time>2018-09-01T09:54:39Z</time>
      </trkpt>
      <trkpt lat="45.95465" lon="4.58588">
        <ele>522</ele>
        <time>2018-09-01T09:54:40Z</time>
      </trkpt>
      <trkpt lat="45.9546" lon="4.58583">
        <ele>520</ele>
        <time>2018-09-01T09:54:41Z</time>
      </trkpt>
      <trkpt lat="45.95458" lon="4.58575">
        <ele>520</ele>
        <time>2018-09-01T09:54:42Z</time>
      </trkpt>
      <trkpt lat="45.95456" lon="4.58568">
        <ele>521</ele>
        <time>2018-09-01T09:54:43Z</time>
      </trkpt>
      <trkpt lat="45.95452" lon="4.58562">
        <ele>521</ele>
        <time>2018-09-01T09:54:44Z</time>
      </trkpt>
      <trkpt lat="45.95452" lon="4.58555">
        <ele>521</ele>
        <time>2018-09-01T09:54:45Z</time>
      </trkpt>
      <trkpt lat="45.95447" lon="4.58549">
        <ele>521</ele>
        <time>2018-09-01T09:54:46Z</time>
      </trkpt>
      <trkpt lat="45.95445" lon="4.58542">
        <ele>521</ele>
        <time>2018-09-01T09:54:47Z</time>
      </trkpt>
      <trkpt lat="45.95443" lon="4.58535">
        <ele>521</ele>
        <time>2018-09-01T09:54:48Z</time>
      </trkpt>
      <trkpt lat="45.9544" lon="4.5853">
        <ele>521</ele>
        <time>2018-09-01T09:54:49Z</time>
      </trkpt>
      <trkpt lat="45.95437" lon="4.58524">
        <ele>521</ele>
        <time>2018-09-01T09:54:50Z</time>
      </trkpt>
      <trkpt lat="45.95433" lon="4.58518">
        <ele>522</ele>
        <time>2018-09-01T09:54:51Z</time>
      </trkpt>
      <trkpt lat="45.95429" lon="4.58512">
        <ele>523</ele>
        <time>2018-09-01T09:54:52Z</time>
      </trkpt>
      <trkpt lat="45.95421" lon="4.58506">
        <ele>525</ele>
        <time>2018-09-01T09:54:53Z</time>
      </trkpt>
      <trkpt lat="45.95418" lon="4.58498">
        <ele>525</ele>
        <time>2018-09-01T09:54:55Z</time>
      </trkpt>
      <trkpt lat="45.95418" lon="4.58493">
        <ele>522</ele>
        <time>2018-09-01T09:54:56Z</time>
      </trkpt>
      <trkpt lat="45.95412" lon="4.58484">
        <ele>526</ele>
        <time>2018-09-01T09:54:58Z</time>
      </trkpt>
      <trkpt lat="45.95408" lon="4.58479">
        <ele>525</ele>
        <time>2018-09-01T09:54:59Z</time>
      </trkpt>
      <trkpt lat="45.95402" lon="4.58471">
        <ele>525</ele>
        <time>2018-09-01T09:55:01Z</time>
      </trkpt>
      <trkpt lat="45.95398" lon="4.58467">
        <ele>524</ele>
        <time>2018-09-01T09:55:02Z</time>
      </trkpt>
      <trkpt lat="45.95392" lon="4.5846">
        <ele>524</ele>
        <time>2018-09-01T09:55:04Z</time>
      </trkpt>
      <trkpt lat="45.95389" lon="4.58455">
        <ele>524</ele>
        <time>2018-09-01T09:55:05Z</time>
      </trkpt>
      <trkpt lat="45.95384" lon="4.5845">
        <ele>524</ele>
        <time>2018-09-01T09:55:06Z</time>
      </trkpt>
      <trkpt lat="45.9538" lon="4.58446">
        <ele>524</ele>
        <time>2018-09-01T09:55:07Z</time>
      </trkpt>
      <trkpt lat="45.95376" lon="4.58441">
        <ele>524</ele>
        <time>2018-09-01T09:55:08Z</time>
      </trkpt>
      <trkpt lat="45.95371" lon="4.58436">
        <ele>524</ele>
        <time>2018-09-01T09:55:09Z</time>
      </trkpt>
      <trkpt lat="45.95367" lon="4.58432">
        <ele>524</ele>
        <time>2018-09-01T09:55:10Z</time>
      </trkpt>
      <trkpt lat="45.95363" lon="4.58428">
        <ele>524</ele>
        <time>2018-09-01T09:55:11Z</time>
      </trkpt>
      <trkpt lat="45.95356" lon="4.58421">
        <ele>524</ele>
        <time>2018-09-01T09:55:13Z</time>
      </trkpt>
      <trkpt lat="45.95352" lon="4.58418">
        <ele>524</ele>
        <time>2018-09-01T09:55:14Z</time>
      </trkpt>
      <trkpt lat="45.95348" lon="4.58413">
        <ele>519</ele>
        <time>2018-09-01T09:55:15Z</time>
      </trkpt>
      <trkpt lat="45.95344" lon="4.5841">
        <ele>520</ele>
        <time>2018-09-01T09:55:16Z</time>
      </trkpt>
      <trkpt lat="45.9534" lon="4.58405">
        <ele>520</ele>
        <time>2018-09-01T09:55:17Z</time>
      </trkpt>
      <trkpt lat="45.95335" lon="4.584">
        <ele>519</ele>
        <time>2018-09-01T09:55:18Z</time>
      </trkpt>
      <trkpt lat="45.95331" lon="4.58398">
        <ele>524</ele>
        <time>2018-09-01T09:55:19Z</time>
      </trkpt>
      <trkpt lat="45.95326" lon="4.58395">
        <ele>523</ele>
        <time>2018-09-01T09:55:20Z</time>
      </trkpt>
      <trkpt lat="45.95322" lon="4.58392">
        <ele>523</ele>
        <time>2018-09-01T09:55:21Z</time>
      </trkpt>
      <trkpt lat="45.95317" lon="4.58388">
        <ele>523</ele>
        <time>2018-09-01T09:55:22Z</time>
      </trkpt>
      <trkpt lat="45.95314" lon="4.58384">
        <ele>523</ele>
        <time>2018-09-01T09:55:23Z</time>
      </trkpt>
      <trkpt lat="45.95308" lon="4.58379">
        <ele>523</ele>
        <time>2018-09-01T09:55:24Z</time>
      </trkpt>
      <trkpt lat="45.95304" lon="4.58374">
        <ele>522</ele>
        <time>2018-09-01T09:55:25Z</time>
      </trkpt>
      <trkpt lat="45.95299" lon="4.5837">
        <ele>522</ele>
        <time>2018-09-01T09:55:26Z</time>
      </trkpt>
      <trkpt lat="45.95295" lon="4.58366">
        <ele>522</ele>
        <time>2018-09-01T09:55:27Z</time>
      </trkpt>
      <trkpt lat="45.95291" lon="4.58362">
        <ele>522</ele>
        <time>2018-09-01T09:55:28Z</time>
      </trkpt>
      <trkpt lat="45.95286" lon="4.58359">
        <ele>522</ele>
        <time>2018-09-01T09:55:29Z</time>
      </trkpt>
      <trkpt lat="45.95282" lon="4.58356">
        <ele>522</ele>
        <time>2018-09-01T09:55:30Z</time>
      </trkpt>
      <trkpt lat="45.95278" lon="4.58354">
        <ele>522</ele>
        <time>2018-09-01T09:55:31Z</time>
      </trkpt>
      <trkpt lat="45.95273" lon="4.5835">
        <ele>522</ele>
        <time>2018-09-01T09:55:32Z</time>
      </trkpt>
      <trkpt lat="45.95269" lon="4.58348">
        <ele>522</ele>
        <time>2018-09-01T09:55:33Z</time>
      </trkpt>
      <trkpt lat="45.95264" lon="4.58346">
        <ele>522</ele>
        <time>2018-09-01T09:55:34Z</time>
      </trkpt>
      <trkpt lat="45.95259" lon="4.58344">
        <ele>522</ele>
        <time>2018-09-01T09:55:35Z</time>
      </trkpt>
      <trkpt lat="45.95254" lon="4.58341">
        <ele>522</ele>
        <time>2018-09-01T09:55:36Z</time>
      </trkpt>
      <trkpt lat="45.95249" lon="4.5834">
        <ele>523</ele>
        <time>2018-09-01T09:55:37Z</time>
      </trkpt>
      <trkpt lat="45.95244" lon="4.58338">
        <ele>523</ele>
        <time>2018-09-01T09:55:38Z</time>
      </trkpt>
      <trkpt lat="45.95237" lon="4.58333">
        <ele>519</ele>
        <time>2018-09-01T09:55:40Z</time>
      </trkpt>
      <trkpt lat="45.95233" lon="4.5833">
        <ele>519</ele>
        <time>2018-09-01T09:55:41Z</time>
      </trkpt>
      <trkpt lat="45.95228" lon="4.58328">
        <ele>519</ele>
        <time>2018-09-01T09:55:42Z</time>
      </trkpt>
      <trkpt lat="45.95224" lon="4.58326">
        <ele>519</ele>
        <time>2018-09-01T09:55:43Z</time>
      </trkpt>
      <trkpt lat="45.95218" lon="4.58323">
        <ele>518</ele>
        <time>2018-09-01T09:55:44Z</time>
      </trkpt>
      <trkpt lat="45.95213" lon="4.58323">
        <ele>519</ele>
        <time>2018-09-01T09:55:45Z</time>
      </trkpt>
      <trkpt lat="45.95208" lon="4.58321">
        <ele>519</ele>
        <time>2018-09-01T09:55:46Z</time>
      </trkpt>
      <trkpt lat="45.95203" lon="4.5832">
        <ele>519</ele>
        <time>2018-09-01T09:55:47Z</time>
      </trkpt>
      <trkpt lat="45.95197" lon="4.58318">
        <ele>519</ele>
        <time>2018-09-01T09:55:48Z</time>
      </trkpt>
      <trkpt lat="45.95194" lon="4.58317">
        <ele>519</ele>
        <time>2018-09-01T09:55:49Z</time>
      </trkpt>
      <trkpt lat="45.9519" lon="4.58317">
        <ele>520</ele>
        <time>2018-09-01T09:55:50Z</time>
      </trkpt>
      <trkpt lat="45.95185" lon="4.58316">
        <ele>520</ele>
        <time>2018-09-01T09:55:51Z</time>
      </trkpt>
      <trkpt lat="45.9518" lon="4.58315">
        <ele>520</ele>
        <time>2018-09-01T09:55:52Z</time>
      </trkpt>
      <trkpt lat="45.95174" lon="4.58314">
        <ele>521</ele>
        <time>2018-09-01T09:55:53Z</time>
      </trkpt>
      <trkpt lat="45.95169" lon="4.58313">
        <ele>521</ele>
        <time>2018-09-01T09:55:54Z</time>
      </trkpt>
      <trkpt lat="45.95165" lon="4.58312">
        <ele>522</ele>
        <time>2018-09-01T09:55:55Z</time>
      </trkpt>
      <trkpt lat="45.9516" lon="4.58313">
        <ele>522</ele>
        <time>2018-09-01T09:55:56Z</time>
      </trkpt>
      <trkpt lat="45.95154" lon="4.58313">
        <ele>522</ele>
        <time>2018-09-01T09:55:57Z</time>
      </trkpt>
      <trkpt lat="45.95149" lon="4.58313">
        <ele>522</ele>
        <time>2018-09-01T09:55:58Z</time>
      </trkpt>
      <trkpt lat="45.95143" lon="4.58313">
        <ele>522</ele>
        <time>2018-09-01T09:55:59Z</time>
      </trkpt>
      <trkpt lat="45.95138" lon="4.58312">
        <ele>521</ele>
        <time>2018-09-01T09:56:00Z</time>
      </trkpt>
      <trkpt lat="45.95134" lon="4.58313">
        <ele>521</ele>
        <time>2018-09-01T09:56:01Z</time>
      </trkpt>
      <trkpt lat="45.95129" lon="4.58316">
        <ele>522</ele>
        <time>2018-09-01T09:56:02Z</time>
      </trkpt>
      <trkpt lat="45.95125" lon="4.58317">
        <ele>522</ele>
        <time>2018-09-01T09:56:03Z</time>
      </trkpt>
      <trkpt lat="45.95116" lon="4.58315">
        <ele>522</ele>
        <time>2018-09-01T09:56:05Z</time>
      </trkpt>
      <trkpt lat="45.95112" lon="4.58315">
        <ele>522</ele>
        <time>2018-09-01T09:56:06Z</time>
      </trkpt>
      <trkpt lat="45.95104" lon="4.58315">
        <ele>522</ele>
        <time>2018-09-01T09:56:08Z</time>
      </trkpt>
      <trkpt lat="45.95099" lon="4.58314">
        <ele>522</ele>
        <time>2018-09-01T09:56:09Z</time>
      </trkpt>
      <trkpt lat="45.95095" lon="4.58312">
        <ele>522</ele>
        <time>2018-09-01T09:56:10Z</time>
      </trkpt>
      <trkpt lat="45.9509" lon="4.58311">
        <ele>522</ele>
        <time>2018-09-01T09:56:11Z</time>
      </trkpt>
      <trkpt lat="45.95085" lon="4.5831">
        <ele>522</ele>
        <time>2018-09-01T09:56:12Z</time>
      </trkpt>
      <trkpt lat="45.9508" lon="4.58309">
        <ele>523</ele>
        <time>2018-09-01T09:56:13Z</time>
      </trkpt>
      <trkpt lat="45.95076" lon="4.5831">
        <ele>523</ele>
        <time>2018-09-01T09:56:14Z</time>
      </trkpt>
      <trkpt lat="45.9507" lon="4.58309">
        <ele>523</ele>
        <time>2018-09-01T09:56:15Z</time>
      </trkpt>
      <trkpt lat="45.95065" lon="4.58309">
        <ele>523</ele>
        <time>2018-09-01T09:56:16Z</time>
      </trkpt>
      <trkpt lat="45.9506" lon="4.58307">
        <ele>523</ele>
        <time>2018-09-01T09:56:17Z</time>
      </trkpt>
      <trkpt lat="45.95055" lon="4.58306">
        <ele>523</ele>
        <time>2018-09-01T09:56:18Z</time>
      </trkpt>
      <trkpt lat="45.9505" lon="4.58306">
        <ele>522</ele>
        <time>2018-09-01T09:56:19Z</time>
      </trkpt>
      <trkpt lat="45.95044" lon="4.58304">
        <ele>522</ele>
        <time>2018-09-01T09:56:20Z</time>
      </trkpt>
      <trkpt lat="45.95039" lon="4.58304">
        <ele>522</ele>
        <time>2018-09-01T09:56:21Z</time>
      </trkpt>
      <trkpt lat="45.95034" lon="4.58303">
        <ele>522</ele>
        <time>2018-09-01T09:56:22Z</time>
      </trkpt>
      <trkpt lat="45.95029" lon="4.58301">
        <ele>522</ele>
        <time>2018-09-01T09:56:23Z</time>
      </trkpt>
      <trkpt lat="45.95023" lon="4.58301">
        <ele>523</ele>
        <time>2018-09-01T09:56:24Z</time>
      </trkpt>
      <trkpt lat="45.95018" lon="4.58301">
        <ele>523</ele>
        <time>2018-09-01T09:56:25Z</time>
      </trkpt>
      <trkpt lat="45.95012" lon="4.583">
        <ele>523</ele>
        <time>2018-09-01T09:56:26Z</time>
      </trkpt>
      <trkpt lat="45.95007" lon="4.583">
        <ele>523</ele>
        <time>2018-09-01T09:56:27Z</time>
      </trkpt>
      <trkpt lat="45.95002" lon="4.58299">
        <ele>523</ele>
        <time>2018-09-01T09:56:28Z</time>
      </trkpt>
      <trkpt lat="45.94997" lon="4.58299">
        <ele>524</ele>
        <time>2018-09-01T09:56:29Z</time>
      </trkpt>
      <trkpt lat="45.94989" lon="4.58297">
        <ele>523</ele>
        <time>2018-09-01T09:56:31Z</time>
      </trkpt>
      <trkpt lat="45.94984" lon="4.58296">
        <ele>523</ele>
        <time>2018-09-01T09:56:32Z</time>
      </trkpt>
      <trkpt lat="45.94979" lon="4.58296">
        <ele>523</ele>
        <time>2018-09-01T09:56:33Z</time>
      </trkpt>
      <trkpt lat="45.94974" lon="4.58299">
        <ele>524</ele>
        <time>2018-09-01T09:56:34Z</time>
      </trkpt>
      <trkpt lat="45.94967" lon="4.583">
        <ele>524</ele>
        <time>2018-09-01T09:56:35Z</time>
      </trkpt>
      <trkpt lat="45.94965" lon="4.58302">
        <ele>524</ele>
        <time>2018-09-01T09:56:36Z</time>
      </trkpt>
      <trkpt lat="45.94959" lon="4.58303">
        <ele>524</ele>
        <time>2018-09-01T09:56:37Z</time>
      </trkpt>
      <trkpt lat="45.94954" lon="4.583">
        <ele>524</ele>
        <time>2018-09-01T09:56:38Z</time>
      </trkpt>
      <trkpt lat="45.94945" lon="4.58301">
        <ele>524</ele>
        <time>2018-09-01T09:56:40Z</time>
      </trkpt>
      <trkpt lat="45.94939" lon="4.58302">
        <ele>524</ele>
        <time>2018-09-01T09:56:41Z</time>
      </trkpt>
      <trkpt lat="45.94935" lon="4.58305">
        <ele>524</ele>
        <time>2018-09-01T09:56:42Z</time>
      </trkpt>
      <trkpt lat="45.9493" lon="4.58307">
        <ele>524</ele>
        <time>2018-09-01T09:56:43Z</time>
      </trkpt>
      <trkpt lat="45.94925" lon="4.5831">
        <ele>525</ele>
        <time>2018-09-01T09:56:44Z</time>
      </trkpt>
      <trkpt lat="45.94921" lon="4.58313">
        <ele>525</ele>
        <time>2018-09-01T09:56:45Z</time>
      </trkpt>
      <trkpt lat="45.94913" lon="4.58318">
        <ele>527</ele>
        <time>2018-09-01T09:56:48Z</time>
      </trkpt>
      <trkpt lat="45.94912" lon="4.5832">
        <ele>527</ele>
        <time>2018-09-01T09:56:49Z</time>
      </trkpt>
      <trkpt lat="45.94903" lon="4.5832">
        <ele>528</ele>
        <time>2018-09-01T09:56:54Z</time>
      </trkpt>
      <trkpt lat="45.94902" lon="4.58318">
        <ele>528</ele>
        <time>2018-09-01T09:56:55Z</time>
      </trkpt>
      <trkpt lat="45.94901" lon="4.58315">
        <ele>528</ele>
        <time>2018-09-01T09:56:56Z</time>
      </trkpt>
      <trkpt lat="45.94899" lon="4.58304">
        <ele>528</ele>
        <time>2018-09-01T09:56:57Z</time>
      </trkpt>
      <trkpt lat="45.94897" lon="4.58293">
        <ele>528</ele>
        <time>2018-09-01T09:56:59Z</time>
      </trkpt>
      <trkpt lat="45.94896" lon="4.58287">
        <ele>527</ele>
        <time>2018-09-01T09:57:00Z</time>
      </trkpt>
      <trkpt lat="45.94893" lon="4.58281">
        <ele>527</ele>
        <time>2018-09-01T09:57:01Z</time>
      </trkpt>
      <trkpt lat="45.94892" lon="4.58274">
        <ele>527</ele>
        <time>2018-09-01T09:57:02Z</time>
      </trkpt>
      <trkpt lat="45.94891" lon="4.58262">
        <ele>527</ele>
        <time>2018-09-01T09:57:04Z</time>
      </trkpt>
      <trkpt lat="45.94889" lon="4.58256">
        <ele>527</ele>
        <time>2018-09-01T09:57:05Z</time>
      </trkpt>
      <trkpt lat="45.94887" lon="4.58249">
        <ele>524</ele>
        <time>2018-09-01T09:57:06Z</time>
      </trkpt>
      <trkpt lat="45.94886" lon="4.58242">
        <ele>524</ele>
        <time>2018-09-01T09:57:07Z</time>
      </trkpt>
      <trkpt lat="45.94884" lon="4.5823">
        <ele>523</ele>
        <time>2018-09-01T09:57:09Z</time>
      </trkpt>
      <trkpt lat="45.94884" lon="4.58223">
        <ele>523</ele>
        <time>2018-09-01T09:57:10Z</time>
      </trkpt>
      <trkpt lat="45.94882" lon="4.58215">
        <ele>523</ele>
        <time>2018-09-01T09:57:11Z</time>
      </trkpt>
      <trkpt lat="45.94881" lon="4.58207">
        <ele>522</ele>
        <time>2018-09-01T09:57:12Z</time>
      </trkpt>
      <trkpt lat="45.94879" lon="4.58199">
        <ele>522</ele>
        <time>2018-09-01T09:57:13Z</time>
      </trkpt>
      <trkpt lat="45.94878" lon="4.58193">
        <ele>522</ele>
        <time>2018-09-01T09:57:14Z</time>
      </trkpt>
      <trkpt lat="45.94875" lon="4.58181">
        <ele>521</ele>
        <time>2018-09-01T09:57:17Z</time>
      </trkpt>
      <trkpt lat="45.94873" lon="4.58178">
        <ele>521</ele>
        <time>2018-09-01T09:57:18Z</time>
      </trkpt>
      <trkpt lat="45.94871" lon="4.58166">
        <ele>513</ele>
        <time>2018-09-01T09:57:22Z</time>
      </trkpt>
      <trkpt lat="45.9487" lon="4.58163">
        <ele>513</ele>
        <time>2018-09-01T09:57:23Z</time>
      </trkpt>
      <trkpt lat="45.94864" lon="4.58153">
        <ele>513</ele>
        <time>2018-09-01T09:57:26Z</time>
      </trkpt>
      <trkpt lat="45.94863" lon="4.5815">
        <ele>513</ele>
        <time>2018-09-01T09:57:27Z</time>
      </trkpt>
      <trkpt lat="45.94856" lon="4.58142">
        <ele>513</ele>
        <time>2018-09-01T09:57:31Z</time>
      </trkpt>
      <trkpt lat="45.94855" lon="4.5814">
        <ele>513</ele>
        <time>2018-09-01T09:57:32Z</time>
      </trkpt>
      <trkpt lat="45.94847" lon="4.58139">
        <ele>514</ele>
        <time>2018-09-01T10:14:26Z</time>
      </trkpt>
      <trkpt lat="45.94844" lon="4.58138">
        <ele>514</ele>
        <time>2018-09-01T10:14:27Z</time>
      </trkpt>
      <trkpt lat="45.94841" lon="4.58137">
        <ele>514</ele>
        <time>2018-09-01T10:14:28Z</time>
      </trkpt>
      <trkpt lat="45.94832" lon="4.58132">
        <ele>519</ele>
        <time>2018-09-01T10:14:29Z</time>
      </trkpt>
      <trkpt lat="45.94825" lon="4.58124">
        <ele>518</ele>
        <time>2018-09-01T10:14:31Z</time>
      </trkpt>
      <trkpt lat="45.94817" lon="4.5812">
        <ele>517</ele>
        <time>2018-09-01T10:14:32Z</time>
      </trkpt>
      <trkpt lat="45.94811" lon="4.58117">
        <ele>517</ele>
        <time>2018-09-01T10:14:33Z</time>
      </trkpt>
      <trkpt lat="45.94804" lon="4.58115">
        <ele>517</ele>
        <time>2018-09-01T10:14:34Z</time>
      </trkpt>
      <trkpt lat="45.94795" lon="4.58111">
        <ele>517</ele>
        <time>2018-09-01T10:14:35Z</time>
      </trkpt>
      <trkpt lat="45.94788" lon="4.58108">
        <ele>516</ele>
        <time>2018-09-01T10:14:36Z</time>
      </trkpt>
      <trkpt lat="45.9478" lon="4.58104">
        <ele>516</ele>
        <time>2018-09-01T10:14:37Z</time>
      </trkpt>
      <trkpt lat="45.94772" lon="4.58103">
        <ele>515</ele>
        <time>2018-09-01T10:14:38Z</time>
      </trkpt>
      <trkpt lat="45.94765" lon="4.58103">
        <ele>515</ele>
        <time>2018-09-01T10:14:39Z</time>
      </trkpt>
      <trkpt lat="45.94756" lon="4.58101">
        <ele>514</ele>
        <time>2018-09-01T10:14:40Z</time>
      </trkpt>
      <trkpt lat="45.94748" lon="4.581">
        <ele>512</ele>
        <time>2018-09-01T10:14:41Z</time>
      </trkpt>
      <trkpt lat="45.9474" lon="4.58097">
        <ele>512</ele>
        <time>2018-09-01T10:14:42Z</time>
      </trkpt>
      <trkpt lat="45.94732" lon="4.58099">
        <ele>512</ele>
        <time>2018-09-01T10:14:43Z</time>
      </trkpt>
      <trkpt lat="45.94722" lon="4.58098">
        <ele>512</ele>
        <time>2018-09-01T10:14:44Z</time>
      </trkpt>
      <trkpt lat="45.94713" lon="4.58099">
        <ele>511</ele>
        <time>2018-09-01T10:14:45Z</time>
      </trkpt>
      <trkpt lat="45.94705" lon="4.58102">
        <ele>511</ele>
        <time>2018-09-01T10:14:46Z</time>
      </trkpt>
      <trkpt lat="45.94695" lon="4.58104">
        <ele>510</ele>
        <time>2018-09-01T10:14:47Z</time>
      </trkpt>
      <trkpt lat="45.94686" lon="4.58106">
        <ele>510</ele>
        <time>2018-09-01T10:14:48Z</time>
      </trkpt>
      <trkpt lat="45.94676" lon="4.5811">
        <ele>509</ele>
        <time>2018-09-01T10:14:49Z</time>
      </trkpt>
      <trkpt lat="45.94667" lon="4.58115">
        <ele>510</ele>
        <time>2018-09-01T10:14:50Z</time>
      </trkpt>
      <trkpt lat="45.94658" lon="4.58118">
        <ele>504</ele>
        <time>2018-09-01T10:14:51Z</time>
      </trkpt>
      <trkpt lat="45.94648" lon="4.58122">
        <ele>504</ele>
        <time>2018-09-01T10:14:52Z</time>
      </trkpt>
      <trkpt lat="45.9464" lon="4.58127">
        <ele>504</ele>
        <time>2018-09-01T10:14:53Z</time>
      </trkpt>
      <trkpt lat="45.9463" lon="4.58132">
        <ele>504</ele>
        <time>2018-09-01T10:14:54Z</time>
      </trkpt>
      <trkpt lat="45.9462" lon="4.58135">
        <ele>504</ele>
        <time>2018-09-01T10:14:55Z</time>
      </trkpt>
      <trkpt lat="45.94611" lon="4.58139">
        <ele>503</ele>
        <time>2018-09-01T10:14:56Z</time>
      </trkpt>
      <trkpt lat="45.94601" lon="4.58143">
        <ele>503</ele>
        <time>2018-09-01T10:14:57Z</time>
      </trkpt>
      <trkpt lat="45.9459" lon="4.58146">
        <ele>503</ele>
        <time>2018-09-01T10:14:58Z</time>
      </trkpt>
      <trkpt lat="45.9458" lon="4.5815">
        <ele>500</ele>
        <time>2018-09-01T10:14:59Z</time>
      </trkpt>
      <trkpt lat="45.9457" lon="4.58154">
        <ele>499</ele>
        <time>2018-09-01T10:15:00Z</time>
      </trkpt>
      <trkpt lat="45.94559" lon="4.58156">
        <ele>498</ele>
        <time>2018-09-01T10:15:01Z</time>
      </trkpt>
      <trkpt lat="45.94549" lon="4.5816">
        <ele>498</ele>
        <time>2018-09-01T10:15:02Z</time>
      </trkpt>
      <trkpt lat="45.94538" lon="4.58162">
        <ele>497</ele>
        <time>2018-09-01T10:15:03Z</time>
      </trkpt>
      <trkpt lat="45.94527" lon="4.58166">
        <ele>496</ele>
        <time>2018-09-01T10:15:04Z</time>
      </trkpt>
      <trkpt lat="45.94517" lon="4.58163">
        <ele>496</ele>
        <time>2018-09-01T10:15:05Z</time>
      </trkpt>
      <trkpt lat="45.94507" lon="4.5816">
        <ele>496</ele>
        <time>2018-09-01T10:15:06Z</time>
      </trkpt>
      <trkpt lat="45.94497" lon="4.58161">
        <ele>495</ele>
        <time>2018-09-01T10:15:07Z</time>
      </trkpt>
      <trkpt lat="45.94486" lon="4.58161">
        <ele>494</ele>
        <time>2018-09-01T10:15:08Z</time>
      </trkpt>
      <trkpt lat="45.94476" lon="4.58158">
        <ele>493</ele>
        <time>2018-09-01T10:15:09Z</time>
      </trkpt>
      <trkpt lat="45.94466" lon="4.58155">
        <ele>492</ele>
        <time>2018-09-01T10:15:10Z</time>
      </trkpt>
      <trkpt lat="45.94455" lon="4.58152">
        <ele>492</ele>
        <time>2018-09-01T10:15:11Z</time>
      </trkpt>
      <trkpt lat="45.94443" lon="4.58147">
        <ele>491</ele>
        <time>2018-09-01T10:15:12Z</time>
      </trkpt>
      <trkpt lat="45.94432" lon="4.58142">
        <ele>491</ele>
        <time>2018-09-01T10:15:13Z</time>
      </trkpt>
      <trkpt lat="45.94423" lon="4.58141">
        <ele>491</ele>
        <time>2018-09-01T10:15:14Z</time>
      </trkpt>
      <trkpt lat="45.9441" lon="4.58131">
        <ele>489</ele>
        <time>2018-09-01T10:15:15Z</time>
      </trkpt>
      <trkpt lat="45.94399" lon="4.58125">
        <ele>488</ele>
        <time>2018-09-01T10:15:16Z</time>
      </trkpt>
      <trkpt lat="45.94387" lon="4.58121">
        <ele>488</ele>
        <time>2018-09-01T10:15:17Z</time>
      </trkpt>
      <trkpt lat="45.94374" lon="4.58114">
        <ele>487</ele>
        <time>2018-09-01T10:15:18Z</time>
      </trkpt>
      <trkpt lat="45.94362" lon="4.58108">
        <ele>487</ele>
        <time>2018-09-01T10:15:19Z</time>
      </trkpt>
      <trkpt lat="45.9435" lon="4.58102">
        <ele>486</ele>
        <time>2018-09-01T10:15:20Z</time>
      </trkpt>
      <trkpt lat="45.94336" lon="4.58096">
        <ele>484</ele>
        <time>2018-09-01T10:15:21Z</time>
      </trkpt>
      <trkpt lat="45.94323" lon="4.58092">
        <ele>483</ele>
        <time>2018-09-01T10:15:22Z</time>
      </trkpt>
      <trkpt lat="45.94311" lon="4.58089">
        <ele>483</ele>
        <time>2018-09-01T10:15:23Z</time>
      </trkpt>
      <trkpt lat="45.94298" lon="4.58085">
        <ele>483</ele>
        <time>2018-09-01T10:15:24Z</time>
      </trkpt>
      <trkpt lat="45.94286" lon="4.58081">
        <ele>477</ele>
        <time>2018-09-01T10:15:25Z</time>
      </trkpt>
      <trkpt lat="45.94273" lon="4.58077">
        <ele>477</ele>
        <time>2018-09-01T10:15:26Z</time>
      </trkpt>
      <trkpt lat="45.9426" lon="4.58072">
        <ele>477</ele>
        <time>2018-09-01T10:15:27Z</time>
      </trkpt>
      <trkpt lat="45.94247" lon="4.58069">
        <ele>475</ele>
        <time>2018-09-01T10:15:28Z</time>
      </trkpt>
      <trkpt lat="45.94234" lon="4.58064">
        <ele>474</ele>
        <time>2018-09-01T10:15:29Z</time>
      </trkpt>
      <trkpt lat="45.94221" lon="4.58059">
        <ele>473</ele>
        <time>2018-09-01T10:15:30Z</time>
      </trkpt>
      <trkpt lat="45.94208" lon="4.58053">
        <ele>472</ele>
        <time>2018-09-01T10:15:31Z</time>
      </trkpt>
      <trkpt lat="45.94196" lon="4.58047">
        <ele>472</ele>
        <time>2018-09-01T10:15:32Z</time>
      </trkpt>
      <trkpt lat="45.94183" lon="4.58038">
        <ele>471</ele>
        <time>2018-09-01T10:15:33Z</time>
      </trkpt>
      <trkpt lat="45.94171" lon="4.58028">
        <ele>470</ele>
        <time>2018-09-01T10:15:34Z</time>
      </trkpt>
      <trkpt lat="45.94158" lon="4.58018">
        <ele>468</ele>
        <time>2018-09-01T10:15:35Z</time>
      </trkpt>
      <trkpt lat="45.94146" lon="4.58009">
        <ele>467</ele>
        <time>2018-09-01T10:15:36Z</time>
      </trkpt>
      <trkpt lat="45.94134" lon="4.57998">
        <ele>463</ele>
        <time>2018-09-01T10:15:37Z</time>
      </trkpt>
      <trkpt lat="45.94121" lon="4.57988">
        <ele>463</ele>
        <time>2018-09-01T10:15:38Z</time>
      </trkpt>
      <trkpt lat="45.94108" lon="4.57978">
        <ele>462</ele>
        <time>2018-09-01T10:15:39Z</time>
      </trkpt>
      <trkpt lat="45.94094" lon="4.57967">
        <ele>462</ele>
        <time>2018-09-01T10:15:40Z</time>
      </trkpt>
      <trkpt lat="45.94082" lon="4.57957">
        <ele>461</ele>
        <time>2018-09-01T10:15:41Z</time>
      </trkpt>
      <trkpt lat="45.94069" lon="4.57947">
        <ele>460</ele>
        <time>2018-09-01T10:15:42Z</time>
      </trkpt>
      <trkpt lat="45.94057" lon="4.57937">
        <ele>460</ele>
        <time>2018-09-01T10:15:43Z</time>
      </trkpt>
      <trkpt lat="45.94045" lon="4.57926">
        <ele>460</ele>
        <time>2018-09-01T10:15:44Z</time>
      </trkpt>
      <trkpt lat="45.94032" lon="4.57918">
        <ele>460</ele>
        <time>2018-09-01T10:15:45Z</time>
      </trkpt>
      <trkpt lat="45.9402" lon="4.57911">
        <ele>456</ele>
        <time>2018-09-01T10:15:46Z</time>
      </trkpt>
      <trkpt lat="45.94006" lon="4.57905">
        <ele>457</ele>
        <time>2018-09-01T10:15:47Z</time>
      </trkpt>
      <trkpt lat="45.93992" lon="4.57899">
        <ele>455</ele>
        <time>2018-09-01T10:15:48Z</time>
      </trkpt>
      <trkpt lat="45.93979" lon="4.57894">
        <ele>454</ele>
        <time>2018-09-01T10:15:49Z</time>
      </trkpt>
      <trkpt lat="45.93964" lon="4.57888">
        <ele>453</ele>
        <time>2018-09-01T10:15:50Z</time>
      </trkpt>
      <trkpt lat="45.93951" lon="4.57884">
        <ele>452</ele>
        <time>2018-09-01T10:15:51Z</time>
      </trkpt>
      <trkpt lat="45.93939" lon="4.5788">
        <ele>452</ele>
        <time>2018-09-01T10:15:52Z</time>
      </trkpt>
      <trkpt lat="45.93924" lon="4.57878">
        <ele>452</ele>
        <time>2018-09-01T10:15:53Z</time>
      </trkpt>
      <trkpt lat="45.93909" lon="4.57876">
        <ele>448</ele>
        <time>2018-09-01T10:15:54Z</time>
      </trkpt>
      <trkpt lat="45.93896" lon="4.57876">
        <ele>448</ele>
        <time>2018-09-01T10:15:55Z</time>
      </trkpt>
      <trkpt lat="45.93883" lon="4.57877">
        <ele>447</ele>
        <time>2018-09-01T10:15:56Z</time>
      </trkpt>
      <trkpt lat="45.93869" lon="4.57878">
        <ele>447</ele>
        <time>2018-09-01T10:15:57Z</time>
      </trkpt>
      <trkpt lat="45.93855" lon="4.57879">
        <ele>447</ele>
        <time>2018-09-01T10:15:58Z</time>
      </trkpt>
      <trkpt lat="45.93841" lon="4.57879">
        <ele>446</ele>
        <time>2018-09-01T10:15:59Z</time>
      </trkpt>
      <trkpt lat="45.93828" lon="4.5788">
        <ele>443</ele>
        <time>2018-09-01T10:16:00Z</time>
      </trkpt>
      <trkpt lat="45.93816" lon="4.57884">
        <ele>442</ele>
        <time>2018-09-01T10:16:01Z</time>
      </trkpt>
      <trkpt lat="45.93802" lon="4.57886">
        <ele>442</ele>
        <time>2018-09-01T10:16:02Z</time>
      </trkpt>
      <trkpt lat="45.93788" lon="4.57887">
        <ele>442</ele>
        <time>2018-09-01T10:16:03Z</time>
      </trkpt>
      <trkpt lat="45.93774" lon="4.57889">
        <ele>441</ele>
        <time>2018-09-01T10:16:04Z</time>
      </trkpt>
      <trkpt lat="45.93761" lon="4.57891">
        <ele>441</ele>
        <time>2018-09-01T10:16:05Z</time>
      </trkpt>
      <trkpt lat="45.93749" lon="4.57893">
        <ele>437</ele>
        <time>2018-09-01T10:16:06Z</time>
      </trkpt>
      <trkpt lat="45.93735" lon="4.57895">
        <ele>437</ele>
        <time>2018-09-01T10:16:07Z</time>
      </trkpt>
      <trkpt lat="45.93722" lon="4.57898">
        <ele>436</ele>
        <time>2018-09-01T10:16:08Z</time>
      </trkpt>
      <trkpt lat="45.93708" lon="4.57901">
        <ele>435</ele>
        <time>2018-09-01T10:16:09Z</time>
      </trkpt>
      <trkpt lat="45.93696" lon="4.57903">
        <ele>434</ele>
        <time>2018-09-01T10:16:10Z</time>
      </trkpt>
      <trkpt lat="45.93682" lon="4.57905">
        <ele>434</ele>
        <time>2018-09-01T10:16:11Z</time>
      </trkpt>
      <trkpt lat="45.93667" lon="4.57908">
        <ele>434</ele>
        <time>2018-09-01T10:16:12Z</time>
      </trkpt>
      <trkpt lat="45.93653" lon="4.57912">
        <ele>430</ele>
        <time>2018-09-01T10:16:13Z</time>
      </trkpt>
      <trkpt lat="45.93639" lon="4.57916">
        <ele>429</ele>
        <time>2018-09-01T10:16:14Z</time>
      </trkpt>
      <trkpt lat="45.93624" lon="4.57918">
        <ele>433</ele>
        <time>2018-09-01T10:16:15Z</time>
      </trkpt>
      <trkpt lat="45.9361" lon="4.57921">
        <ele>431</ele>
        <time>2018-09-01T10:16:16Z</time>
      </trkpt>
      <trkpt lat="45.93595" lon="4.57928">
        <ele>430</ele>
        <time>2018-09-01T10:16:17Z</time>
      </trkpt>
      <trkpt lat="45.93581" lon="4.57931">
        <ele>427</ele>
        <time>2018-09-01T10:16:18Z</time>
      </trkpt>
      <trkpt lat="45.93566" lon="4.57934">
        <ele>427</ele>
        <time>2018-09-01T10:16:19Z</time>
      </trkpt>
      <trkpt lat="45.93552" lon="4.5794">
        <ele>427</ele>
        <time>2018-09-01T10:16:20Z</time>
      </trkpt>
      <trkpt lat="45.93538" lon="4.57945">
        <ele>426</ele>
        <time>2018-09-01T10:16:21Z</time>
      </trkpt>
      <trkpt lat="45.93526" lon="4.57953">
        <ele>426</ele>
        <time>2018-09-01T10:16:22Z</time>
      </trkpt>
      <trkpt lat="45.93512" lon="4.57964">
        <ele>426</ele>
        <time>2018-09-01T10:16:23Z</time>
      </trkpt>
      <trkpt lat="45.935" lon="4.57972">
        <ele>423</ele>
        <time>2018-09-01T10:16:24Z</time>
      </trkpt>
      <trkpt lat="45.93486" lon="4.57979">
        <ele>423</ele>
        <time>2018-09-01T10:16:25Z</time>
      </trkpt>
      <trkpt lat="45.93473" lon="4.57985">
        <ele>422</ele>
        <time>2018-09-01T10:16:26Z</time>
      </trkpt>
      <trkpt lat="45.9346" lon="4.57992">
        <ele>422</ele>
        <time>2018-09-01T10:16:27Z</time>
      </trkpt>
      <trkpt lat="45.93448" lon="4.57999">
        <ele>421</ele>
        <time>2018-09-01T10:16:28Z</time>
      </trkpt>
      <trkpt lat="45.93435" lon="4.58005">
        <ele>424</ele>
        <time>2018-09-01T10:16:29Z</time>
      </trkpt>
      <trkpt lat="45.93423" lon="4.58011">
        <ele>423</ele>
        <time>2018-09-01T10:16:30Z</time>
      </trkpt>
      <trkpt lat="45.9341" lon="4.58015">
        <ele>421</ele>
        <time>2018-09-01T10:16:31Z</time>
      </trkpt>
      <trkpt lat="45.93396" lon="4.5802">
        <ele>421</ele>
        <time>2018-09-01T10:16:32Z</time>
      </trkpt>
      <trkpt lat="45.93383" lon="4.58025">
        <ele>421</ele>
        <time>2018-09-01T10:16:33Z</time>
      </trkpt>
      <trkpt lat="45.9337" lon="4.5803">
        <ele>421</ele>
        <time>2018-09-01T10:16:34Z</time>
      </trkpt>
      <trkpt lat="45.93358" lon="4.58033">
        <ele>421</ele>
        <time>2018-09-01T10:16:35Z</time>
      </trkpt>
      <trkpt lat="45.93345" lon="4.58036">
        <ele>421</ele>
        <time>2018-09-01T10:16:36Z</time>
      </trkpt>
      <trkpt lat="45.93333" lon="4.5804">
        <ele>418</ele>
        <time>2018-09-01T10:16:37Z</time>
      </trkpt>
      <trkpt lat="45.9332" lon="4.58044">
        <ele>418</ele>
        <time>2018-09-01T10:16:38Z</time>
      </trkpt>
      <trkpt lat="45.93308" lon="4.58047">
        <ele>418</ele>
        <time>2018-09-01T10:16:39Z</time>
      </trkpt>
      <trkpt lat="45.93296" lon="4.5805">
        <ele>418</ele>
        <time>2018-09-01T10:16:40Z</time>
      </trkpt>
      <trkpt lat="45.93284" lon="4.58054">
        <ele>418</ele>
        <time>2018-09-01T10:16:41Z</time>
      </trkpt>
      <trkpt lat="45.93272" lon="4.58058">
        <ele>417</ele>
        <time>2018-09-01T10:16:42Z</time>
      </trkpt>
      <trkpt lat="45.9326" lon="4.58061">
        <ele>417</ele>
        <time>2018-09-01T10:16:43Z</time>
      </trkpt>
      <trkpt lat="45.93248" lon="4.58065">
        <ele>415</ele>
        <time>2018-09-01T10:16:44Z</time>
      </trkpt>
      <trkpt lat="45.93236" lon="4.58067">
        <ele>414</ele>
        <time>2018-09-01T10:16:45Z</time>
      </trkpt>
      <trkpt lat="45.93225" lon="4.58071">
        <ele>414</ele>
        <time>2018-09-01T10:16:46Z</time>
      </trkpt>
      <trkpt lat="45.93213" lon="4.58073">
        <ele>413</ele>
        <time>2018-09-01T10:16:47Z</time>
      </trkpt>
      <trkpt lat="45.93202" lon="4.58076">
        <ele>413</ele>
        <time>2018-09-01T10:16:48Z</time>
      </trkpt>
      <trkpt lat="45.9319" lon="4.58076">
        <ele>412</ele>
        <time>2018-09-01T10:16:49Z</time>
      </trkpt>
      <trkpt lat="45.93179" lon="4.58077">
        <ele>412</ele>
        <time>2018-09-01T10:16:50Z</time>
      </trkpt>
      <trkpt lat="45.9317" lon="4.58076">
        <ele>412</ele>
        <time>2018-09-01T10:16:51Z</time>
      </trkpt>
      <trkpt lat="45.93159" lon="4.58072">
        <ele>410</ele>
        <time>2018-09-01T10:16:52Z</time>
      </trkpt>
      <trkpt lat="45.93146" lon="4.58061">
        <ele>408</ele>
        <time>2018-09-01T10:16:53Z</time>
      </trkpt>
      <trkpt lat="45.93135" lon="4.58058">
        <ele>407</ele>
        <time>2018-09-01T10:16:54Z</time>
      </trkpt>
      <trkpt lat="45.93121" lon="4.5805">
        <ele>406</ele>
        <time>2018-09-01T10:16:55Z</time>
      </trkpt>
      <trkpt lat="45.93109" lon="4.58044">
        <ele>406</ele>
        <time>2018-09-01T10:16:56Z</time>
      </trkpt>
      <trkpt lat="45.93095" lon="4.5804">
        <ele>405</ele>
        <time>2018-09-01T10:16:57Z</time>
      </trkpt>
      <trkpt lat="45.93081" lon="4.58037">
        <ele>400</ele>
        <time>2018-09-01T10:16:58Z</time>
      </trkpt>
      <trkpt lat="45.93067" lon="4.58036">
        <ele>400</ele>
        <time>2018-09-01T10:16:59Z</time>
      </trkpt>
      <trkpt lat="45.93053" lon="4.58037">
        <ele>399</ele>
        <time>2018-09-01T10:17:00Z</time>
      </trkpt>
      <trkpt lat="45.93041" lon="4.58041">
        <ele>399</ele>
        <time>2018-09-01T10:17:01Z</time>
      </trkpt>
      <trkpt lat="45.93028" lon="4.58045">
        <ele>398</ele>
        <time>2018-09-01T10:17:02Z</time>
      </trkpt>
      <trkpt lat="45.93014" lon="4.58049">
        <ele>398</ele>
        <time>2018-09-01T10:17:03Z</time>
      </trkpt>
      <trkpt lat="45.93" lon="4.58054">
        <ele>393</ele>
        <time>2018-09-01T10:17:04Z</time>
      </trkpt>
      <trkpt lat="45.92986" lon="4.58057">
        <ele>393</ele>
        <time>2018-09-01T10:17:05Z</time>
      </trkpt>
      <trkpt lat="45.92972" lon="4.58061">
        <ele>392</ele>
        <time>2018-09-01T10:17:06Z</time>
      </trkpt>
      <trkpt lat="45.92957" lon="4.58065">
        <ele>391</ele>
        <time>2018-09-01T10:17:07Z</time>
      </trkpt>
      <trkpt lat="45.92943" lon="4.58069">
        <ele>390</ele>
        <time>2018-09-01T10:17:08Z</time>
      </trkpt>
      <trkpt lat="45.92929" lon="4.58073">
        <ele>390</ele>
        <time>2018-09-01T10:17:09Z</time>
      </trkpt>
      <trkpt lat="45.92916" lon="4.58079">
        <ele>389</ele>
        <time>2018-09-01T10:17:10Z</time>
      </trkpt>
      <trkpt lat="45.92902" lon="4.58084">
        <ele>391</ele>
        <time>2018-09-01T10:17:11Z</time>
      </trkpt>
      <trkpt lat="45.9289" lon="4.5809">
        <ele>390</ele>
        <time>2018-09-01T10:17:12Z</time>
      </trkpt>
      <trkpt lat="45.92876" lon="4.58094">
        <ele>389</ele>
        <time>2018-09-01T10:17:13Z</time>
      </trkpt>
      <trkpt lat="45.92863" lon="4.581">
        <ele>388</ele>
        <time>2018-09-01T10:17:14Z</time>
      </trkpt>
      <trkpt lat="45.9285" lon="4.58105">
        <ele>388</ele>
        <time>2018-09-01T10:17:15Z</time>
      </trkpt>
      <trkpt lat="45.92838" lon="4.5811">
        <ele>388</ele>
        <time>2018-09-01T10:17:16Z</time>
      </trkpt>
      <trkpt lat="45.92824" lon="4.58115">
        <ele>383</ele>
        <time>2018-09-01T10:17:17Z</time>
      </trkpt>
      <trkpt lat="45.92811" lon="4.58121">
        <ele>383</ele>
        <time>2018-09-01T10:17:18Z</time>
      </trkpt>
      <trkpt lat="45.92798" lon="4.58125">
        <ele>382</ele>
        <time>2018-09-01T10:17:19Z</time>
      </trkpt>
      <trkpt lat="45.92784" lon="4.58131">
        <ele>382</ele>
        <time>2018-09-01T10:17:20Z</time>
      </trkpt>
      <trkpt lat="45.92772" lon="4.58139">
        <ele>382</ele>
        <time>2018-09-01T10:17:21Z</time>
      </trkpt>
      <trkpt lat="45.92759" lon="4.58142">
        <ele>382</ele>
        <time>2018-09-01T10:17:22Z</time>
      </trkpt>
      <trkpt lat="45.92746" lon="4.58146">
        <ele>377</ele>
        <time>2018-09-01T10:17:23Z</time>
      </trkpt>
      <trkpt lat="45.92733" lon="4.58151">
        <ele>377</ele>
        <time>2018-09-01T10:17:24Z</time>
      </trkpt>
      <trkpt lat="45.92719" lon="4.58155">
        <ele>376</ele>
        <time>2018-09-01T10:17:25Z</time>
      </trkpt>
      <trkpt lat="45.92707" lon="4.58158">
        <ele>375</ele>
        <time>2018-09-01T10:17:26Z</time>
      </trkpt>
      <trkpt lat="45.92696" lon="4.58161">
        <ele>375</ele>
        <time>2018-09-01T10:17:27Z</time>
      </trkpt>
      <trkpt lat="45.92685" lon="4.58165">
        <ele>375</ele>
        <time>2018-09-01T10:17:28Z</time>
      </trkpt>
      <trkpt lat="45.92674" lon="4.58169">
        <ele>377</ele>
        <time>2018-09-01T10:17:29Z</time>
      </trkpt>
      <trkpt lat="45.92662" lon="4.58174">
        <ele>375</ele>
        <time>2018-09-01T10:17:30Z</time>
      </trkpt>
      <trkpt lat="45.92652" lon="4.58178">
        <ele>375</ele>
        <time>2018-09-01T10:17:31Z</time>
      </trkpt>
      <trkpt lat="45.92641" lon="4.5818">
        <ele>374</ele>
        <time>2018-09-01T10:17:32Z</time>
      </trkpt>
      <trkpt lat="45.92631" lon="4.58182">
        <ele>374</ele>
        <time>2018-09-01T10:17:33Z</time>
      </trkpt>
      <trkpt lat="45.92622" lon="4.58186">
        <ele>373</ele>
        <time>2018-09-01T10:17:34Z</time>
      </trkpt>
      <trkpt lat="45.92614" lon="4.58188">
        <ele>373</ele>
        <time>2018-09-01T10:17:35Z</time>
      </trkpt>
      <trkpt lat="45.92605" lon="4.58188">
        <ele>372</ele>
        <time>2018-09-01T10:17:36Z</time>
      </trkpt>
      <trkpt lat="45.92599" lon="4.58185">
        <ele>372</ele>
        <time>2018-09-01T10:17:37Z</time>
      </trkpt>
      <trkpt lat="45.92593" lon="4.58184">
        <ele>371</ele>
        <time>2018-09-01T10:17:38Z</time>
      </trkpt>
      <trkpt lat="45.92586" lon="4.58184">
        <ele>371</ele>
        <time>2018-09-01T10:17:39Z</time>
      </trkpt>
      <trkpt lat="45.9258" lon="4.5819">
        <ele>368</ele>
        <time>2018-09-01T10:17:40Z</time>
      </trkpt>
      <trkpt lat="45.92573" lon="4.58196">
        <ele>368</ele>
        <time>2018-09-01T10:17:41Z</time>
      </trkpt>
      <trkpt lat="45.92568" lon="4.58203">
        <ele>368</ele>
        <time>2018-09-01T10:17:42Z</time>
      </trkpt>
      <trkpt lat="45.92559" lon="4.58207">
        <ele>368</ele>
        <time>2018-09-01T10:17:43Z</time>
      </trkpt>
      <trkpt lat="45.92552" lon="4.58211">
        <ele>368</ele>
        <time>2018-09-01T10:17:44Z</time>
      </trkpt>
      <trkpt lat="45.92544" lon="4.58214">
        <ele>367</ele>
        <time>2018-09-01T10:17:45Z</time>
      </trkpt>
      <trkpt lat="45.92538" lon="4.58218">
        <ele>367</ele>
        <time>2018-09-01T10:17:46Z</time>
      </trkpt>
      <trkpt lat="45.92529" lon="4.58225">
        <ele>367</ele>
        <time>2018-09-01T10:17:47Z</time>
      </trkpt>
      <trkpt lat="45.92522" lon="4.58229">
        <ele>367</ele>
        <time>2018-09-01T10:17:48Z</time>
      </trkpt>
      <trkpt lat="45.92514" lon="4.5823">
        <ele>367</ele>
        <time>2018-09-01T10:17:49Z</time>
      </trkpt>
      <trkpt lat="45.92506" lon="4.58235">
        <ele>367</ele>
        <time>2018-09-01T10:17:50Z</time>
      </trkpt>
      <trkpt lat="45.92497" lon="4.58239">
        <ele>365</ele>
        <time>2018-09-01T10:17:51Z</time>
      </trkpt>
      <trkpt lat="45.92491" lon="4.58243">
        <ele>365</ele>
        <time>2018-09-01T10:17:52Z</time>
      </trkpt>
      <trkpt lat="45.92482" lon="4.58248">
        <ele>363</ele>
        <time>2018-09-01T10:17:53Z</time>
      </trkpt>
      <trkpt lat="45.92474" lon="4.58253">
        <ele>366</ele>
        <time>2018-09-01T10:17:54Z</time>
      </trkpt>
      <trkpt lat="45.92466" lon="4.58259">
        <ele>366</ele>
        <time>2018-09-01T10:17:55Z</time>
      </trkpt>
      <trkpt lat="45.92459" lon="4.58265">
        <ele>365</ele>
        <time>2018-09-01T10:17:56Z</time>
      </trkpt>
      <trkpt lat="45.92451" lon="4.58271">
        <ele>365</ele>
        <time>2018-09-01T10:17:57Z</time>
      </trkpt>
      <trkpt lat="45.92444" lon="4.58277">
        <ele>365</ele>
        <time>2018-09-01T10:17:58Z</time>
      </trkpt>
      <trkpt lat="45.92436" lon="4.58283">
        <ele>365</ele>
        <time>2018-09-01T10:17:59Z</time>
      </trkpt>
      <trkpt lat="45.92428" lon="4.58291">
        <ele>365</ele>
        <time>2018-09-01T10:18:00Z</time>
      </trkpt>
      <trkpt lat="45.92421" lon="4.58299">
        <ele>365</ele>
        <time>2018-09-01T10:18:01Z</time>
      </trkpt>
      <trkpt lat="45.92412" lon="4.58307">
        <ele>362</ele>
        <time>2018-09-01T10:18:02Z</time>
      </trkpt>
      <trkpt lat="45.92405" lon="4.58315">
        <ele>362</ele>
        <time>2018-09-01T10:18:03Z</time>
      </trkpt>
      <trkpt lat="45.92397" lon="4.58322">
        <ele>362</ele>
        <time>2018-09-01T10:18:04Z</time>
      </trkpt>
      <trkpt lat="45.92389" lon="4.58331">
        <ele>362</ele>
        <time>2018-09-01T10:18:05Z</time>
      </trkpt>
      <trkpt lat="45.92381" lon="4.58337">
        <ele>364</ele>
        <time>2018-09-01T10:18:06Z</time>
      </trkpt>
      <trkpt lat="45.92374" lon="4.58342">
        <ele>364</ele>
        <time>2018-09-01T10:18:07Z</time>
      </trkpt>
      <trkpt lat="45.92367" lon="4.5835">
        <ele>364</ele>
        <time>2018-09-01T10:18:08Z</time>
      </trkpt>
      <trkpt lat="45.92359" lon="4.58357">
        <ele>364</ele>
        <time>2018-09-01T10:18:09Z</time>
      </trkpt>
      <trkpt lat="45.92353" lon="4.58363">
        <ele>363</ele>
        <time>2018-09-01T10:18:10Z</time>
      </trkpt>
      <trkpt lat="45.92345" lon="4.58369">
        <ele>363</ele>
        <time>2018-09-01T10:18:11Z</time>
      </trkpt>
      <trkpt lat="45.92337" lon="4.58376">
        <ele>363</ele>
        <time>2018-09-01T10:18:12Z</time>
      </trkpt>
      <trkpt lat="45.92328" lon="4.58382">
        <ele>360</ele>
        <time>2018-09-01T10:18:13Z</time>
      </trkpt>
      <trkpt lat="45.92322" lon="4.58385">
        <ele>360</ele>
        <time>2018-09-01T10:18:14Z</time>
      </trkpt>
      <trkpt lat="45.92317" lon="4.58394">
        <ele>360</ele>
        <time>2018-09-01T10:18:15Z</time>
      </trkpt>
      <trkpt lat="45.9231" lon="4.584">
        <ele>360</ele>
        <time>2018-09-01T10:18:16Z</time>
      </trkpt>
      <trkpt lat="45.92303" lon="4.58403">
        <ele>360</ele>
        <time>2018-09-01T10:18:17Z</time>
      </trkpt>
      <trkpt lat="45.92296" lon="4.58407">
        <ele>360</ele>
        <time>2018-09-01T10:18:18Z</time>
      </trkpt>
      <trkpt lat="45.9229" lon="4.5842">
        <ele>360</ele>
        <time>2018-09-01T10:18:19Z</time>
      </trkpt>
      <trkpt lat="45.92287" lon="4.58429">
        <ele>360</ele>
        <time>2018-09-01T10:18:20Z</time>
      </trkpt>
      <trkpt lat="45.92279" lon="4.58439">
        <ele>360</ele>
        <time>2018-09-01T10:18:21Z</time>
      </trkpt>
      <trkpt lat="45.92274" lon="4.58448">
        <ele>360</ele>
        <time>2018-09-01T10:18:22Z</time>
      </trkpt>
      <trkpt lat="45.92268" lon="4.58458">
        <ele>360</ele>
        <time>2018-09-01T10:18:23Z</time>
      </trkpt>
      <trkpt lat="45.92262" lon="4.58465">
        <ele>360</ele>
        <time>2018-09-01T10:18:24Z</time>
      </trkpt>
      <trkpt lat="45.92256" lon="4.58468">
        <ele>360</ele>
        <time>2018-09-01T10:18:25Z</time>
      </trkpt>
      <trkpt lat="45.92248" lon="4.58475">
        <ele>358</ele>
        <time>2018-09-01T10:18:26Z</time>
      </trkpt>
      <trkpt lat="45.92241" lon="4.58482">
        <ele>359</ele>
        <time>2018-09-01T10:18:27Z</time>
      </trkpt>
      <trkpt lat="45.92235" lon="4.58491">
        <ele>359</ele>
        <time>2018-09-01T10:18:28Z</time>
      </trkpt>
      <trkpt lat="45.92228" lon="4.58495">
        <ele>359</ele>
        <time>2018-09-01T10:18:29Z</time>
      </trkpt>
      <trkpt lat="45.92223" lon="4.58501">
        <ele>359</ele>
        <time>2018-09-01T10:18:30Z</time>
      </trkpt>
      <trkpt lat="45.92218" lon="4.58506">
        <ele>359</ele>
        <time>2018-09-01T10:18:31Z</time>
      </trkpt>
      <trkpt lat="45.92213" lon="4.58513">
        <ele>359</ele>
        <time>2018-09-01T10:18:32Z</time>
      </trkpt>
      <trkpt lat="45.92207" lon="4.58519">
        <ele>358</ele>
        <time>2018-09-01T10:18:33Z</time>
      </trkpt>
      <trkpt lat="45.922" lon="4.58525">
        <ele>358</ele>
        <time>2018-09-01T10:18:35Z</time>
      </trkpt>
      <trkpt lat="45.92196" lon="4.58527">
        <ele>358</ele>
        <time>2018-09-01T10:18:36Z</time>
      </trkpt>
      <trkpt lat="45.92191" lon="4.58532">
        <ele>358</ele>
        <time>2018-09-01T10:18:38Z</time>
      </trkpt>
      <trkpt lat="45.92187" lon="4.58537">
        <ele>358</ele>
        <time>2018-09-01T10:18:39Z</time>
      </trkpt>
      <trkpt lat="45.9218" lon="4.58535">
        <ele>358</ele>
        <time>2018-09-01T10:18:42Z</time>
      </trkpt>
      <trkpt lat="45.92182" lon="4.5852">
        <ele>358</ele>
        <time>2018-09-01T10:18:43Z</time>
      </trkpt>
      <trkpt lat="45.92176" lon="4.5851">
        <ele>358</ele>
        <time>2018-09-01T10:18:46Z</time>
      </trkpt>
      <trkpt lat="45.92175" lon="4.58507">
        <ele>358</ele>
        <time>2018-09-01T10:18:47Z</time>
      </trkpt>
      <trkpt lat="45.92172" lon="4.58497">
        <ele>357</ele>
        <time>2018-09-01T10:18:50Z</time>
      </trkpt>
      <trkpt lat="45.9217" lon="4.58495">
        <ele>357</ele>
        <time>2018-09-01T10:18:51Z</time>
      </trkpt>
      <trkpt lat="45.92165" lon="4.58485">
        <ele>356</ele>
        <time>2018-09-01T10:18:59Z</time>
      </trkpt>
      <trkpt lat="45.92163" lon="4.58486">
        <ele>356</ele>
        <time>2018-09-01T10:19:00Z</time>
      </trkpt>
      <trkpt lat="45.92158" lon="4.58489">
        <ele>356</ele>
        <time>2018-09-01T10:19:02Z</time>
      </trkpt>
      <trkpt lat="45.92149" lon="4.58495">
        <ele>356</ele>
        <time>2018-09-01T10:19:03Z</time>
      </trkpt>
      <trkpt lat="45.92143" lon="4.58499">
        <ele>355</ele>
        <time>2018-09-01T10:19:05Z</time>
      </trkpt>
      <trkpt lat="45.92138" lon="4.58503">
        <ele>356</ele>
        <time>2018-09-01T10:19:06Z</time>
      </trkpt>
      <trkpt lat="45.92133" lon="4.58509">
        <ele>356</ele>
        <time>2018-09-01T10:19:08Z</time>
      </trkpt>
      <trkpt lat="45.92127" lon="4.58514">
        <ele>356</ele>
        <time>2018-09-01T10:19:09Z</time>
      </trkpt>
      <trkpt lat="45.92119" lon="4.58518">
        <ele>356</ele>
        <time>2018-09-01T10:19:10Z</time>
      </trkpt>
      <trkpt lat="45.92111" lon="4.58524">
        <ele>355</ele>
        <time>2018-09-01T10:19:13Z</time>
      </trkpt>
      <trkpt lat="45.92109" lon="4.58532">
        <ele>355</ele>
        <time>2018-09-01T10:19:14Z</time>
      </trkpt>
      <trkpt lat="45.92102" lon="4.58534">
        <ele>355</ele>
        <time>2018-09-01T10:19:16Z</time>
      </trkpt>
      <trkpt lat="45.92098" lon="4.5854">
        <ele>355</ele>
        <time>2018-09-01T10:19:17Z</time>
      </trkpt>
      <trkpt lat="45.92096" lon="4.58542">
        <ele>355</ele>
        <time>2018-09-01T10:19:18Z</time>
      </trkpt>
      <trkpt lat="45.92088" lon="4.58548">
        <ele>355</ele>
        <time>2018-09-01T10:19:19Z</time>
      </trkpt>
      <trkpt lat="45.92082" lon="4.58552">
        <ele>353</ele>
        <time>2018-09-01T10:19:20Z</time>
      </trkpt>
      <trkpt lat="45.92078" lon="4.58551">
        <ele>353</ele>
        <time>2018-09-01T10:19:21Z</time>
      </trkpt>
      <trkpt lat="45.92071" lon="4.58553">
        <ele>353</ele>
        <time>2018-09-01T10:19:23Z</time>
      </trkpt>
      <trkpt lat="45.92066" lon="4.58556">
        <ele>353</ele>
        <time>2018-09-01T10:19:24Z</time>
      </trkpt>
      <trkpt lat="45.92062" lon="4.58563">
        <ele>353</ele>
        <time>2018-09-01T10:19:25Z</time>
      </trkpt>
      <trkpt lat="45.92061" lon="4.58568">
        <ele>353</ele>
        <time>2018-09-01T10:19:26Z</time>
      </trkpt>
      <trkpt lat="45.92058" lon="4.58575">
        <ele>353</ele>
        <time>2018-09-01T10:19:27Z</time>
      </trkpt>
      <trkpt lat="45.92055" lon="4.58581">
        <ele>353</ele>
        <time>2018-09-01T10:19:28Z</time>
      </trkpt>
      <trkpt lat="45.92051" lon="4.58588">
        <ele>352</ele>
        <time>2018-09-01T10:19:29Z</time>
      </trkpt>
      <trkpt lat="45.92047" lon="4.58595">
        <ele>352</ele>
        <time>2018-09-01T10:19:30Z</time>
      </trkpt>
      <trkpt lat="45.92043" lon="4.586">
        <ele>352</ele>
        <time>2018-09-01T10:19:31Z</time>
      </trkpt>
      <trkpt lat="45.92039" lon="4.58609">
        <ele>352</ele>
        <time>2018-09-01T10:19:32Z</time>
      </trkpt>
      <trkpt lat="45.92037" lon="4.58617">
        <ele>351</ele>
        <time>2018-09-01T10:19:33Z</time>
      </trkpt>
      <trkpt lat="45.92037" lon="4.58623">
        <ele>351</ele>
        <time>2018-09-01T10:19:34Z</time>
      </trkpt>
      <trkpt lat="45.92035" lon="4.58631">
        <ele>351</ele>
        <time>2018-09-01T10:19:35Z</time>
      </trkpt>
      <trkpt lat="45.9203" lon="4.58635">
        <ele>351</ele>
        <time>2018-09-01T10:19:36Z</time>
      </trkpt>
      <trkpt lat="45.92023" lon="4.58637">
        <ele>351</ele>
        <time>2018-09-01T10:19:37Z</time>
      </trkpt>
      <trkpt lat="45.92019" lon="4.58642">
        <ele>350</ele>
        <time>2018-09-01T10:19:38Z</time>
      </trkpt>
      <trkpt lat="45.92015" lon="4.58648">
        <ele>350</ele>
        <time>2018-09-01T10:19:39Z</time>
      </trkpt>
      <trkpt lat="45.92012" lon="4.58655">
        <ele>350</ele>
        <time>2018-09-01T10:19:40Z</time>
      </trkpt>
      <trkpt lat="45.92007" lon="4.58662">
        <ele>349</ele>
        <time>2018-09-01T10:19:41Z</time>
      </trkpt>
      <trkpt lat="45.92" lon="4.5867">
        <ele>347</ele>
        <time>2018-09-01T10:19:42Z</time>
      </trkpt>
      <trkpt lat="45.91995" lon="4.58678">
        <ele>346</ele>
        <time>2018-09-01T10:19:43Z</time>
      </trkpt>
      <trkpt lat="45.91989" lon="4.58685">
        <ele>345</ele>
        <time>2018-09-01T10:19:44Z</time>
      </trkpt>
      <trkpt lat="45.91982" lon="4.58693">
        <ele>345</ele>
        <time>2018-09-01T10:19:45Z</time>
      </trkpt>
      <trkpt lat="45.91977" lon="4.58703">
        <ele>344</ele>
        <time>2018-09-01T10:19:46Z</time>
      </trkpt>
      <trkpt lat="45.91972" lon="4.58714">
        <ele>343</ele>
        <time>2018-09-01T10:19:47Z</time>
      </trkpt>
      <trkpt lat="45.91967" lon="4.58723">
        <ele>343</ele>
        <time>2018-09-01T10:19:48Z</time>
      </trkpt>
      <trkpt lat="45.91962" lon="4.58729">
        <ele>342</ele>
        <time>2018-09-01T10:19:49Z</time>
      </trkpt>
      <trkpt lat="45.91956" lon="4.58738">
        <ele>342</ele>
        <time>2018-09-01T10:19:50Z</time>
      </trkpt>
      <trkpt lat="45.91952" lon="4.58749">
        <ele>342</ele>
        <time>2018-09-01T10:19:51Z</time>
      </trkpt>
      <trkpt lat="45.91946" lon="4.5876">
        <ele>336</ele>
        <time>2018-09-01T10:19:52Z</time>
      </trkpt>
      <trkpt lat="45.91941" lon="4.58771">
        <ele>336</ele>
        <time>2018-09-01T10:19:53Z</time>
      </trkpt>
      <trkpt lat="45.91935" lon="4.58783">
        <ele>335</ele>
        <time>2018-09-01T10:19:54Z</time>
      </trkpt>
      <trkpt lat="45.91929" lon="4.58796">
        <ele>335</ele>
        <time>2018-09-01T10:19:55Z</time>
      </trkpt>
      <trkpt lat="45.91924" lon="4.58808">
        <ele>334</ele>
        <time>2018-09-01T10:19:56Z</time>
      </trkpt>
      <trkpt lat="45.91919" lon="4.58821">
        <ele>333</ele>
        <time>2018-09-01T10:19:57Z</time>
      </trkpt>
      <trkpt lat="45.91913" lon="4.58833">
        <ele>333</ele>
        <time>2018-09-01T10:19:58Z</time>
      </trkpt>
      <trkpt lat="45.91907" lon="4.58846">
        <ele>331</ele>
        <time>2018-09-01T10:19:59Z</time>
      </trkpt>
      <trkpt lat="45.91902" lon="4.58857">
        <ele>331</ele>
        <time>2018-09-01T10:20:00Z</time>
      </trkpt>
      <trkpt lat="45.91896" lon="4.58869">
        <ele>330</ele>
        <time>2018-09-01T10:20:01Z</time>
      </trkpt>
      <trkpt lat="45.9189" lon="4.58881">
        <ele>330</ele>
        <time>2018-09-01T10:20:02Z</time>
      </trkpt>
      <trkpt lat="45.91884" lon="4.58894">
        <ele>329</ele>
        <time>2018-09-01T10:20:03Z</time>
      </trkpt>
      <trkpt lat="45.91879" lon="4.58906">
        <ele>329</ele>
        <time>2018-09-01T10:20:04Z</time>
      </trkpt>
      <trkpt lat="45.91873" lon="4.58918">
        <ele>325</ele>
        <time>2018-09-01T10:20:05Z</time>
      </trkpt>
      <trkpt lat="45.91866" lon="4.5893">
        <ele>325</ele>
        <time>2018-09-01T10:20:06Z</time>
      </trkpt>
      <trkpt lat="45.91859" lon="4.58941">
        <ele>325</ele>
        <time>2018-09-01T10:20:07Z</time>
      </trkpt>
      <trkpt lat="45.91852" lon="4.58953">
        <ele>325</ele>
        <time>2018-09-01T10:20:08Z</time>
      </trkpt>
      <trkpt lat="45.91844" lon="4.58963">
        <ele>324</ele>
        <time>2018-09-01T10:20:09Z</time>
      </trkpt>
      <trkpt lat="45.91835" lon="4.58973">
        <ele>324</ele>
        <time>2018-09-01T10:20:10Z</time>
      </trkpt>
      <trkpt lat="45.91828" lon="4.58982">
        <ele>324</ele>
        <time>2018-09-01T10:20:11Z</time>
      </trkpt>
      <trkpt lat="45.91819" lon="4.58991">
        <ele>323</ele>
        <time>2018-09-01T10:20:12Z</time>
      </trkpt>
      <trkpt lat="45.91811" lon="4.59">
        <ele>324</ele>
        <time>2018-09-01T10:20:13Z</time>
      </trkpt>
      <trkpt lat="45.918" lon="4.59008">
        <ele>319</ele>
        <time>2018-09-01T10:20:14Z</time>
      </trkpt>
      <trkpt lat="45.9179" lon="4.59017">
        <ele>319</ele>
        <time>2018-09-01T10:20:15Z</time>
      </trkpt>
      <trkpt lat="45.91781" lon="4.59027">
        <ele>319</ele>
        <time>2018-09-01T10:20:16Z</time>
      </trkpt>
      <trkpt lat="45.91774" lon="4.59039">
        <ele>318</ele>
        <time>2018-09-01T10:20:17Z</time>
      </trkpt>
      <trkpt lat="45.91765" lon="4.5905">
        <ele>318</ele>
        <time>2018-09-01T10:20:18Z</time>
      </trkpt>
      <trkpt lat="45.91757" lon="4.59063">
        <ele>317</ele>
        <time>2018-09-01T10:20:19Z</time>
      </trkpt>
      <trkpt lat="45.9175" lon="4.59074">
        <ele>317</ele>
        <time>2018-09-01T10:20:20Z</time>
      </trkpt>
      <trkpt lat="45.91742" lon="4.59086">
        <ele>315</ele>
        <time>2018-09-01T10:20:21Z</time>
      </trkpt>
      <trkpt lat="45.91734" lon="4.59098">
        <ele>314</ele>
        <time>2018-09-01T10:20:22Z</time>
      </trkpt>
      <trkpt lat="45.91726" lon="4.59111">
        <ele>313</ele>
        <time>2018-09-01T10:20:23Z</time>
      </trkpt>
      <trkpt lat="45.91718" lon="4.59122">
        <ele>312</ele>
        <time>2018-09-01T10:20:24Z</time>
      </trkpt>
      <trkpt lat="45.9171" lon="4.59134">
        <ele>312</ele>
        <time>2018-09-01T10:20:25Z</time>
      </trkpt>
      <trkpt lat="45.91703" lon="4.59147">
        <ele>312</ele>
        <time>2018-09-01T10:20:26Z</time>
      </trkpt>
      <trkpt lat="45.91695" lon="4.59157">
        <ele>312</ele>
        <time>2018-09-01T10:20:27Z</time>
      </trkpt>
      <trkpt lat="45.91686" lon="4.59169">
        <ele>309</ele>
        <time>2018-09-01T10:20:28Z</time>
      </trkpt>
      <trkpt lat="45.91677" lon="4.5918">
        <ele>309</ele>
        <time>2018-09-01T10:20:29Z</time>
      </trkpt>
      <trkpt lat="45.91669" lon="4.59189">
        <ele>308</ele>
        <time>2018-09-01T10:20:30Z</time>
      </trkpt>
      <trkpt lat="45.9166" lon="4.59203">
        <ele>309</ele>
        <time>2018-09-01T10:20:31Z</time>
      </trkpt>
      <trkpt lat="45.91651" lon="4.59215">
        <ele>308</ele>
        <time>2018-09-01T10:20:32Z</time>
      </trkpt>
      <trkpt lat="45.91643" lon="4.59227">
        <ele>308</ele>
        <time>2018-09-01T10:20:33Z</time>
      </trkpt>
      <trkpt lat="45.91635" lon="4.59238">
        <ele>307</ele>
        <time>2018-09-01T10:20:34Z</time>
      </trkpt>
      <trkpt lat="45.91626" lon="4.5925">
        <ele>307</ele>
        <time>2018-09-01T10:20:35Z</time>
      </trkpt>
      <trkpt lat="45.91618" lon="4.59263">
        <ele>303</ele>
        <time>2018-09-01T10:20:36Z</time>
      </trkpt>
      <trkpt lat="45.9161" lon="4.59273">
        <ele>303</ele>
        <time>2018-09-01T10:20:37Z</time>
      </trkpt>
      <trkpt lat="45.91602" lon="4.59284">
        <ele>302</ele>
        <time>2018-09-01T10:20:38Z</time>
      </trkpt>
      <trkpt lat="45.91596" lon="4.59294">
        <ele>302</ele>
        <time>2018-09-01T10:20:39Z</time>
      </trkpt>
      <trkpt lat="45.91587" lon="4.59304">
        <ele>301</ele>
        <time>2018-09-01T10:20:40Z</time>
      </trkpt>
      <trkpt lat="45.91579" lon="4.59315">
        <ele>298</ele>
        <time>2018-09-01T10:20:41Z</time>
      </trkpt>
      <trkpt lat="45.91572" lon="4.59328">
        <ele>297</ele>
        <time>2018-09-01T10:20:42Z</time>
      </trkpt>
      <trkpt lat="45.91567" lon="4.59343">
        <ele>294</ele>
        <time>2018-09-01T10:20:43Z</time>
      </trkpt>
      <trkpt lat="45.91564" lon="4.5936">
        <ele>293</ele>
        <time>2018-09-01T10:20:44Z</time>
      </trkpt>
      <trkpt lat="45.91562" lon="4.59376">
        <ele>292</ele>
        <time>2018-09-01T10:20:45Z</time>
      </trkpt>
      <trkpt lat="45.91559" lon="4.59393">
        <ele>292</ele>
        <time>2018-09-01T10:20:46Z</time>
      </trkpt>
      <trkpt lat="45.91558" lon="4.59408">
        <ele>292</ele>
        <time>2018-09-01T10:20:47Z</time>
      </trkpt>
      <trkpt lat="45.91557" lon="4.59422">
        <ele>292</ele>
        <time>2018-09-01T10:20:48Z</time>
      </trkpt>
      <trkpt lat="45.91555" lon="4.59437">
        <ele>293</ele>
        <time>2018-09-01T10:20:49Z</time>
      </trkpt>
      <trkpt lat="45.91554" lon="4.5945">
        <ele>293</ele>
        <time>2018-09-01T10:20:50Z</time>
      </trkpt>
      <trkpt lat="45.91551" lon="4.59463">
        <ele>294</ele>
        <time>2018-09-01T10:20:51Z</time>
      </trkpt>
      <trkpt lat="45.91549" lon="4.59476">
        <ele>294</ele>
        <time>2018-09-01T10:20:52Z</time>
      </trkpt>
      <trkpt lat="45.91546" lon="4.59487">
        <ele>294</ele>
        <time>2018-09-01T10:20:53Z</time>
      </trkpt>
      <trkpt lat="45.91544" lon="4.59496">
        <ele>295</ele>
        <time>2018-09-01T10:20:54Z</time>
      </trkpt>
      <trkpt lat="45.91541" lon="4.59504">
        <ele>299</ele>
        <time>2018-09-01T10:20:55Z</time>
      </trkpt>
      <trkpt lat="45.91538" lon="4.59511">
        <ele>299</ele>
        <time>2018-09-01T10:20:56Z</time>
      </trkpt>
      <trkpt lat="45.91536" lon="4.59519">
        <ele>299</ele>
        <time>2018-09-01T10:20:57Z</time>
      </trkpt>
      <trkpt lat="45.91532" lon="4.59524">
        <ele>299</ele>
        <time>2018-09-01T10:20:58Z</time>
      </trkpt>
      <trkpt lat="45.91529" lon="4.59529">
        <ele>299</ele>
        <time>2018-09-01T10:20:59Z</time>
      </trkpt>
      <trkpt lat="45.91526" lon="4.59535">
        <ele>300</ele>
        <time>2018-09-01T10:21:00Z</time>
      </trkpt>
      <trkpt lat="45.91522" lon="4.59538">
        <ele>300</ele>
        <time>2018-09-01T10:21:01Z</time>
      </trkpt>
      <trkpt lat="45.91518" lon="4.59544">
        <ele>300</ele>
        <time>2018-09-01T10:21:03Z</time>
      </trkpt>
      <trkpt lat="45.91513" lon="4.59548">
        <ele>300</ele>
        <time>2018-09-01T10:21:04Z</time>
      </trkpt>
      <trkpt lat="45.91504" lon="4.59551">
        <ele>300</ele>
        <time>2018-09-01T10:21:06Z</time>
      </trkpt>
      <trkpt lat="45.915" lon="4.59552">
        <ele>301</ele>
        <time>2018-09-01T10:21:07Z</time>
      </trkpt>
      <trkpt lat="45.91494" lon="4.59557">
        <ele>301</ele>
        <time>2018-09-01T10:21:09Z</time>
      </trkpt>
      <trkpt lat="45.9149" lon="4.5956">
        <ele>301</ele>
        <time>2018-09-01T10:21:10Z</time>
      </trkpt>
      <trkpt lat="45.91483" lon="4.59565">
        <ele>302</ele>
        <time>2018-09-01T10:21:12Z</time>
      </trkpt>
      <trkpt lat="45.9148" lon="4.59567">
        <ele>302</ele>
        <time>2018-09-01T10:21:13Z</time>
      </trkpt>
      <trkpt lat="45.91472" lon="4.59571">
        <ele>302</ele>
        <time>2018-09-01T10:21:15Z</time>
      </trkpt>
      <trkpt lat="45.91471" lon="4.59572">
        <ele>302</ele>
        <time>2018-09-01T10:21:16Z</time>
      </trkpt>
      <trkpt lat="45.91464" lon="4.59575">
        <ele>302</ele>
        <time>2018-09-01T10:21:19Z</time>
      </trkpt>
      <trkpt lat="45.91461" lon="4.59576">
        <ele>302</ele>
        <time>2018-09-01T10:21:20Z</time>
      </trkpt>
      <trkpt lat="45.91455" lon="4.59578">
        <ele>303</ele>
        <time>2018-09-01T10:21:22Z</time>
      </trkpt>
      <trkpt lat="45.91452" lon="4.59579">
        <ele>303</ele>
        <time>2018-09-01T10:21:23Z</time>
      </trkpt>
      <trkpt lat="45.91445" lon="4.59581">
        <ele>303</ele>
        <time>2018-09-01T10:21:25Z</time>
      </trkpt>
      <trkpt lat="45.91442" lon="4.59582">
        <ele>303</ele>
        <time>2018-09-01T10:21:26Z</time>
      </trkpt>
      <trkpt lat="45.91435" lon="4.59583">
        <ele>304</ele>
        <time>2018-09-01T10:21:28Z</time>
      </trkpt>
      <trkpt lat="45.91432" lon="4.59584">
        <ele>307</ele>
        <time>2018-09-01T10:21:29Z</time>
      </trkpt>
      <trkpt lat="45.91426" lon="4.59586">
        <ele>307</ele>
        <time>2018-09-01T10:21:31Z</time>
      </trkpt>
      <trkpt lat="45.91422" lon="4.59587">
        <ele>307</ele>
        <time>2018-09-01T10:21:32Z</time>
      </trkpt>
      <trkpt lat="45.91416" lon="4.59586">
        <ele>307</ele>
        <time>2018-09-01T10:21:34Z</time>
      </trkpt>
      <trkpt lat="45.91413" lon="4.59585">
        <ele>307</ele>
        <time>2018-09-01T10:21:35Z</time>
      </trkpt>
      <trkpt lat="45.91406" lon="4.59579">
        <ele>306</ele>
        <time>2018-09-01T10:21:38Z</time>
      </trkpt>
      <trkpt lat="45.91404" lon="4.59576">
        <ele>306</ele>
        <time>2018-09-01T10:21:39Z</time>
      </trkpt>
      <trkpt lat="45.914" lon="4.59567">
        <ele>306</ele>
        <time>2018-09-01T10:21:42Z</time>
      </trkpt>
      <trkpt lat="45.914" lon="4.59564">
        <ele>306</ele>
        <time>2018-09-01T10:21:43Z</time>
      </trkpt>
      <trkpt lat="45.91397" lon="4.59553">
        <ele>306</ele>
        <time>2018-09-01T10:21:46Z</time>
      </trkpt>
      <trkpt lat="45.91396" lon="4.59549">
        <ele>306</ele>
        <time>2018-09-01T10:21:47Z</time>
      </trkpt>
      <trkpt lat="45.91393" lon="4.59538">
        <ele>306</ele>
        <time>2018-09-01T10:21:50Z</time>
      </trkpt>
      <trkpt lat="45.91392" lon="4.59535">
        <ele>306</ele>
        <time>2018-09-01T10:21:51Z</time>
      </trkpt>
      <trkpt lat="45.91389" lon="4.59527">
        <ele>306</ele>
        <time>2018-09-01T10:21:54Z</time>
      </trkpt>
      <trkpt lat="45.91387" lon="4.59524">
        <ele>306</ele>
        <time>2018-09-01T10:21:55Z</time>
      </trkpt>
      <trkpt lat="45.91382" lon="4.59516">
        <ele>306</ele>
        <time>2018-09-01T10:21:58Z</time>
      </trkpt>
      <trkpt lat="45.9138" lon="4.59514">
        <ele>306</ele>
        <time>2018-09-01T10:21:59Z</time>
      </trkpt>
      <trkpt lat="45.91376" lon="4.59504">
        <ele>306</ele>
        <time>2018-09-01T10:22:04Z</time>
      </trkpt>
      <trkpt lat="45.91374" lon="4.59502">
        <ele>306</ele>
        <time>2018-09-01T10:22:05Z</time>
      </trkpt>
      <trkpt lat="45.91367" lon="4.595">
        <ele>306</ele>
        <time>2018-09-01T10:22:08Z</time>
      </trkpt>
      <trkpt lat="45.91365" lon="4.595">
        <ele>307</ele>
        <time>2018-09-01T10:22:09Z</time>
      </trkpt>
      <trkpt lat="45.91358" lon="4.59506">
        <ele>307</ele>
        <time>2018-09-01T10:22:12Z</time>
      </trkpt>
      <trkpt lat="45.91355" lon="4.59509">
        <ele>307</ele>
        <time>2018-09-01T10:22:13Z</time>
      </trkpt>
      <trkpt lat="45.9135" lon="4.59514">
        <ele>308</ele>
        <time>2018-09-01T10:22:15Z</time>
      </trkpt>
      <trkpt lat="45.91348" lon="4.59518">
        <ele>308</ele>
        <time>2018-09-01T10:22:16Z</time>
      </trkpt>
      <trkpt lat="45.91343" lon="4.59524">
        <ele>308</ele>
        <time>2018-09-01T10:22:18Z</time>
      </trkpt>
      <trkpt lat="45.91341" lon="4.59527">
        <ele>308</ele>
        <time>2018-09-01T10:22:19Z</time>
      </trkpt>
      <trkpt lat="45.91334" lon="4.59536">
        <ele>308</ele>
        <time>2018-09-01T10:22:22Z</time>
      </trkpt>
      <trkpt lat="45.91332" lon="4.59539">
        <ele>311</ele>
        <time>2018-09-01T10:22:23Z</time>
      </trkpt>
      <trkpt lat="45.91326" lon="4.59547">
        <ele>311</ele>
        <time>2018-09-01T10:22:26Z</time>
      </trkpt>
      <trkpt lat="45.91324" lon="4.5955">
        <ele>311</ele>
        <time>2018-09-01T10:22:27Z</time>
      </trkpt>
      <trkpt lat="45.91319" lon="4.59556">
        <ele>311</ele>
        <time>2018-09-01T10:22:29Z</time>
      </trkpt>
      <trkpt lat="45.91317" lon="4.5956">
        <ele>311</ele>
        <time>2018-09-01T10:22:30Z</time>
      </trkpt>
      <trkpt lat="45.91312" lon="4.59566">
        <ele>311</ele>
        <time>2018-09-01T10:22:32Z</time>
      </trkpt>
      <trkpt lat="45.9131" lon="4.59568">
        <ele>311</ele>
        <time>2018-09-01T10:22:33Z</time>
      </trkpt>
      <trkpt lat="45.91306" lon="4.59574">
        <ele>311</ele>
        <time>2018-09-01T10:22:35Z</time>
      </trkpt>
      <trkpt lat="45.91304" lon="4.59578">
        <ele>312</ele>
        <time>2018-09-01T10:22:36Z</time>
      </trkpt>
      <trkpt lat="45.91299" lon="4.59584">
        <ele>313</ele>
        <time>2018-09-01T10:22:38Z</time>
      </trkpt>
      <trkpt lat="45.91297" lon="4.59588">
        <ele>313</ele>
        <time>2018-09-01T10:22:39Z</time>
      </trkpt>
      <trkpt lat="45.91292" lon="4.59598">
        <ele>313</ele>
        <time>2018-09-01T10:22:42Z</time>
      </trkpt>
      <trkpt lat="45.9129" lon="4.59601">
        <ele>313</ele>
        <time>2018-09-01T10:22:43Z</time>
      </trkpt>
      <trkpt lat="45.91285" lon="4.5961">
        <ele>313</ele>
        <time>2018-09-01T10:22:46Z</time>
      </trkpt>
      <trkpt lat="45.91283" lon="4.59612">
        <ele>313</ele>
        <time>2018-09-01T10:22:47Z</time>
      </trkpt>
      <trkpt lat="45.91275" lon="4.59618">
        <ele>314</ele>
        <time>2018-09-01T10:22:48Z</time>
      </trkpt>
      <trkpt lat="45.91273" lon="4.59619">
        <ele>314</ele>
        <time>2018-09-01T10:22:49Z</time>
      </trkpt>
      <trkpt lat="45.91266" lon="4.59621">
        <ele>314</ele>
        <time>2018-09-01T10:22:52Z</time>
      </trkpt>
      <trkpt lat="45.91263" lon="4.59622">
        <ele>314</ele>
        <time>2018-09-01T10:22:53Z</time>
      </trkpt>
      <trkpt lat="45.91257" lon="4.59625">
        <ele>314</ele>
        <time>2018-09-01T10:22:55Z</time>
      </trkpt>
      <trkpt lat="45.91253" lon="4.59626">
        <ele>314</ele>
        <time>2018-09-01T10:22:56Z</time>
      </trkpt>
      <trkpt lat="45.91247" lon="4.59628">
        <ele>315</ele>
        <time>2018-09-01T10:22:58Z</time>
      </trkpt>
      <trkpt lat="45.91243" lon="4.59629">
        <ele>315</ele>
        <time>2018-09-01T10:22:59Z</time>
      </trkpt>
      <trkpt lat="45.91237" lon="4.59632">
        <ele>315</ele>
        <time>2018-09-01T10:23:01Z</time>
      </trkpt>
      <trkpt lat="45.91233" lon="4.59633">
        <ele>315</ele>
        <time>2018-09-01T10:23:02Z</time>
      </trkpt>
      <trkpt lat="45.91227" lon="4.59636">
        <ele>315</ele>
        <time>2018-09-01T10:23:04Z</time>
      </trkpt>
      <trkpt lat="45.91224" lon="4.59637">
        <ele>315</ele>
        <time>2018-09-01T10:23:05Z</time>
      </trkpt>
      <trkpt lat="45.91217" lon="4.5964">
        <ele>316</ele>
        <time>2018-09-01T10:23:07Z</time>
      </trkpt>
      <trkpt lat="45.91214" lon="4.59641">
        <ele>316</ele>
        <time>2018-09-01T10:23:08Z</time>
      </trkpt>
      <trkpt lat="45.91208" lon="4.59643">
        <ele>316</ele>
        <time>2018-09-01T10:23:10Z</time>
      </trkpt>
      <trkpt lat="45.91204" lon="4.59644">
        <ele>316</ele>
        <time>2018-09-01T10:23:11Z</time>
      </trkpt>
      <trkpt lat="45.91197" lon="4.59646">
        <ele>316</ele>
        <time>2018-09-01T10:23:13Z</time>
      </trkpt>
      <trkpt lat="45.91194" lon="4.59647">
        <ele>316</ele>
        <time>2018-09-01T10:23:14Z</time>
      </trkpt>
      <trkpt lat="45.91187" lon="4.59649">
        <ele>316</ele>
        <time>2018-09-01T10:23:16Z</time>
      </trkpt>
      <trkpt lat="45.91183" lon="4.5965">
        <ele>316</ele>
        <time>2018-09-01T10:23:17Z</time>
      </trkpt>
      <trkpt lat="45.9118" lon="4.5965">
        <ele>316</ele>
        <time>2018-09-01T10:23:18Z</time>
      </trkpt>
      <trkpt lat="45.9117" lon="4.59653">
        <ele>315</ele>
        <time>2018-09-01T10:23:19Z</time>
      </trkpt>
      <trkpt lat="45.91163" lon="4.59654">
        <ele>317</ele>
        <time>2018-09-01T10:23:21Z</time>
      </trkpt>
      <trkpt lat="45.91159" lon="4.59655">
        <ele>317</ele>
        <time>2018-09-01T10:23:22Z</time>
      </trkpt>
      <trkpt lat="45.91155" lon="4.59657">
        <ele>317</ele>
        <time>2018-09-01T10:23:24Z</time>
      </trkpt>
      <trkpt lat="45.91149" lon="4.5966">
        <ele>317</ele>
        <time>2018-09-01T10:23:25Z</time>
      </trkpt>
      <trkpt lat="45.91141" lon="4.59663">
        <ele>317</ele>
        <time>2018-09-01T10:23:27Z</time>
      </trkpt>
      <trkpt lat="45.91138" lon="4.59664">
        <ele>318</ele>
        <time>2018-09-01T10:23:28Z</time>
      </trkpt>
      <trkpt lat="45.9113" lon="4.59667">
        <ele>318</ele>
        <time>2018-09-01T10:23:31Z</time>
      </trkpt>
      <trkpt lat="45.91128" lon="4.59668">
        <ele>317</ele>
        <time>2018-09-01T10:23:32Z</time>
      </trkpt>
      <trkpt lat="45.91119" lon="4.5967">
        <ele>317</ele>
        <time>2018-09-01T10:23:35Z</time>
      </trkpt>
      <trkpt lat="45.9111" lon="4.59673">
        <ele>317</ele>
        <time>2018-09-01T10:23:36Z</time>
      </trkpt>
      <trkpt lat="45.91103" lon="4.59675">
        <ele>318</ele>
        <time>2018-09-01T10:23:38Z</time>
      </trkpt>
      <trkpt lat="45.91099" lon="4.59676">
        <ele>318</ele>
        <time>2018-09-01T10:23:39Z</time>
      </trkpt>
      <trkpt lat="45.91092" lon="4.59676">
        <ele>318</ele>
        <time>2018-09-01T10:23:41Z</time>
      </trkpt>
      <trkpt lat="45.91088" lon="4.59676">
        <ele>318</ele>
        <time>2018-09-01T10:23:42Z</time>
      </trkpt>
      <trkpt lat="45.9108" lon="4.59675">
        <ele>319</ele>
        <time>2018-09-01T10:23:44Z</time>
      </trkpt>
      <trkpt lat="45.91077" lon="4.59675">
        <ele>319</ele>
        <time>2018-09-01T10:23:45Z</time>
      </trkpt>
      <trkpt lat="45.91069" lon="4.59676">
        <ele>319</ele>
        <time>2018-09-01T10:23:47Z</time>
      </trkpt>
      <trkpt lat="45.91065" lon="4.59677">
        <ele>320</ele>
        <time>2018-09-01T10:23:48Z</time>
      </trkpt>
      <trkpt lat="45.91057" lon="4.59679">
        <ele>320</ele>
        <time>2018-09-01T10:23:50Z</time>
      </trkpt>
      <trkpt lat="45.91054" lon="4.59681">
        <ele>320</ele>
        <time>2018-09-01T10:23:51Z</time>
      </trkpt>
      <trkpt lat="45.91047" lon="4.59686">
        <ele>320</ele>
        <time>2018-09-01T10:23:53Z</time>
      </trkpt>
      <trkpt lat="45.91043" lon="4.59688">
        <ele>320</ele>
        <time>2018-09-01T10:23:54Z</time>
      </trkpt>
      <trkpt lat="45.91037" lon="4.59695">
        <ele>320</ele>
        <time>2018-09-01T10:23:56Z</time>
      </trkpt>
      <trkpt lat="45.91033" lon="4.59698">
        <ele>320</ele>
        <time>2018-09-01T10:23:57Z</time>
      </trkpt>
      <trkpt lat="45.91027" lon="4.59704">
        <ele>320</ele>
        <time>2018-09-01T10:23:59Z</time>
      </trkpt>
      <trkpt lat="45.91023" lon="4.59707">
        <ele>320</ele>
        <time>2018-09-01T10:24:00Z</time>
      </trkpt>
      <trkpt lat="45.91017" lon="4.59712">
        <ele>321</ele>
        <time>2018-09-01T10:24:02Z</time>
      </trkpt>
      <trkpt lat="45.91013" lon="4.59715">
        <ele>321</ele>
        <time>2018-09-01T10:24:03Z</time>
      </trkpt>
      <trkpt lat="45.91007" lon="4.5972">
        <ele>321</ele>
        <time>2018-09-01T10:24:05Z</time>
      </trkpt>
      <trkpt lat="45.91003" lon="4.59723">
        <ele>321</ele>
        <time>2018-09-01T10:24:06Z</time>
      </trkpt>
      <trkpt lat="45.90995" lon="4.59729">
        <ele>323</ele>
        <time>2018-09-01T10:24:08Z</time>
      </trkpt>
      <trkpt lat="45.90992" lon="4.59732">
        <ele>323</ele>
        <time>2018-09-01T10:24:09Z</time>
      </trkpt>
      <trkpt lat="45.90984" lon="4.59736">
        <ele>323</ele>
        <time>2018-09-01T10:24:11Z</time>
      </trkpt>
      <trkpt lat="45.9098" lon="4.59738">
        <ele>323</ele>
        <time>2018-09-01T10:24:12Z</time>
      </trkpt>
      <trkpt lat="45.90971" lon="4.59741">
        <ele>323</ele>
        <time>2018-09-01T10:24:14Z</time>
      </trkpt>
      <trkpt lat="45.90967" lon="4.59743">
        <ele>323</ele>
        <time>2018-09-01T10:24:15Z</time>
      </trkpt>
      <trkpt lat="45.90959" lon="4.59746">
        <ele>323</ele>
        <time>2018-09-01T10:24:17Z</time>
      </trkpt>
      <trkpt lat="45.90955" lon="4.59747">
        <ele>323</ele>
        <time>2018-09-01T10:24:18Z</time>
      </trkpt>
      <trkpt lat="45.90947" lon="4.5975">
        <ele>323</ele>
        <time>2018-09-01T10:24:20Z</time>
      </trkpt>
      <trkpt lat="45.90943" lon="4.59752">
        <ele>323</ele>
        <time>2018-09-01T10:24:21Z</time>
      </trkpt>
      <trkpt lat="45.90938" lon="4.59754">
        <ele>323</ele>
        <time>2018-09-01T10:24:22Z</time>
      </trkpt>
      <trkpt lat="45.90934" lon="4.59755">
        <ele>323</ele>
        <time>2018-09-01T10:24:23Z</time>
      </trkpt>
      <trkpt lat="45.90928" lon="4.59759">
        <ele>323</ele>
        <time>2018-09-01T10:24:24Z</time>
      </trkpt>
      <trkpt lat="45.90924" lon="4.59759">
        <ele>323</ele>
        <time>2018-09-01T10:24:25Z</time>
      </trkpt>
      <trkpt lat="45.90917" lon="4.5976">
        <ele>323</ele>
        <time>2018-09-01T10:24:27Z</time>
      </trkpt>
      <trkpt lat="45.90914" lon="4.59761">
        <ele>324</ele>
        <time>2018-09-01T10:24:28Z</time>
      </trkpt>
      <trkpt lat="45.9091" lon="4.59761">
        <ele>324</ele>
        <time>2018-09-01T10:24:29Z</time>
      </trkpt>
      <trkpt lat="45.90904" lon="4.59766">
        <ele>324</ele>
        <time>2018-09-01T10:24:30Z</time>
      </trkpt>
      <trkpt lat="45.90896" lon="4.59766">
        <ele>324</ele>
        <time>2018-09-01T10:24:32Z</time>
      </trkpt>
      <trkpt lat="45.90892" lon="4.59767">
        <ele>324</ele>
        <time>2018-09-01T10:24:33Z</time>
      </trkpt>
      <trkpt lat="45.90883" lon="4.59767">
        <ele>324</ele>
        <time>2018-09-01T10:24:35Z</time>
      </trkpt>
      <trkpt lat="45.90879" lon="4.59768">
        <ele>324</ele>
        <time>2018-09-01T10:24:36Z</time>
      </trkpt>
      <trkpt lat="45.90871" lon="4.59771">
        <ele>324</ele>
        <time>2018-09-01T10:24:38Z</time>
      </trkpt>
      <trkpt lat="45.90867" lon="4.59772">
        <ele>324</ele>
        <time>2018-09-01T10:24:39Z</time>
      </trkpt>
      <trkpt lat="45.90863" lon="4.59774">
        <ele>324</ele>
        <time>2018-09-01T10:24:40Z</time>
      </trkpt>
      <trkpt lat="45.90858" lon="4.59776">
        <ele>324</ele>
        <time>2018-09-01T10:24:41Z</time>
      </trkpt>
      <trkpt lat="45.90851" lon="4.59778">
        <ele>324</ele>
        <time>2018-09-01T10:24:43Z</time>
      </trkpt>
      <trkpt lat="45.90847" lon="4.5978">
        <ele>324</ele>
        <time>2018-09-01T10:24:44Z</time>
      </trkpt>
      <trkpt lat="45.90842" lon="4.59781">
        <ele>324</ele>
        <time>2018-09-01T10:24:45Z</time>
      </trkpt>
      <trkpt lat="45.90838" lon="4.59783">
        <ele>324</ele>
        <time>2018-09-01T10:24:46Z</time>
      </trkpt>
      <trkpt lat="45.90833" lon="4.59782">
        <ele>325</ele>
        <time>2018-09-01T10:24:47Z</time>
      </trkpt>
      <trkpt lat="45.90828" lon="4.59783">
        <ele>325</ele>
        <time>2018-09-01T10:24:48Z</time>
      </trkpt>
      <trkpt lat="45.90823" lon="4.59787">
        <ele>325</ele>
        <time>2018-09-01T10:24:49Z</time>
      </trkpt>
      <trkpt lat="45.9082" lon="4.5979">
        <ele>325</ele>
        <time>2018-09-01T10:24:50Z</time>
      </trkpt>
      <trkpt lat="45.90814" lon="4.59794">
        <ele>325</ele>
        <time>2018-09-01T10:24:51Z</time>
      </trkpt>
      <trkpt lat="45.9081" lon="4.59796">
        <ele>325</ele>
        <time>2018-09-01T10:24:52Z</time>
      </trkpt>
      <trkpt lat="45.90805" lon="4.59802">
        <ele>325</ele>
        <time>2018-09-01T10:24:53Z</time>
      </trkpt>
      <trkpt lat="45.908" lon="4.59806">
        <ele>325</ele>
        <time>2018-09-01T10:24:54Z</time>
      </trkpt>
      <trkpt lat="45.90795" lon="4.59809">
        <ele>325</ele>
        <time>2018-09-01T10:24:55Z</time>
      </trkpt>
      <trkpt lat="45.9079" lon="4.59813">
        <ele>325</ele>
        <time>2018-09-01T10:24:56Z</time>
      </trkpt>
      <trkpt lat="45.90786" lon="4.59815">
        <ele>325</ele>
        <time>2018-09-01T10:24:57Z</time>
      </trkpt>
      <trkpt lat="45.90781" lon="4.59818">
        <ele>325</ele>
        <time>2018-09-01T10:24:58Z</time>
      </trkpt>
      <trkpt lat="45.90776" lon="4.59822">
        <ele>325</ele>
        <time>2018-09-01T10:24:59Z</time>
      </trkpt>
      <trkpt lat="45.90772" lon="4.59826">
        <ele>325</ele>
        <time>2018-09-01T10:25:00Z</time>
      </trkpt>
      <trkpt lat="45.9077" lon="4.59832">
        <ele>325</ele>
        <time>2018-09-01T10:25:01Z</time>
      </trkpt>
      <trkpt lat="45.90766" lon="4.59838">
        <ele>323</ele>
        <time>2018-09-01T10:25:02Z</time>
      </trkpt>
      <trkpt lat="45.90762" lon="4.59842">
        <ele>323</ele>
        <time>2018-09-01T10:25:03Z</time>
      </trkpt>
      <trkpt lat="45.90756" lon="4.59847">
        <ele>323</ele>
        <time>2018-09-01T10:25:04Z</time>
      </trkpt>
      <trkpt lat="45.90752" lon="4.59853">
        <ele>323</ele>
        <time>2018-09-01T10:25:05Z</time>
      </trkpt>
      <trkpt lat="45.90748" lon="4.59857">
        <ele>322</ele>
        <time>2018-09-01T10:25:06Z</time>
      </trkpt>
      <trkpt lat="45.90743" lon="4.59863">
        <ele>322</ele>
        <time>2018-09-01T10:25:07Z</time>
      </trkpt>
      <trkpt lat="45.90739" lon="4.59869">
        <ele>321</ele>
        <time>2018-09-01T10:25:08Z</time>
      </trkpt>
      <trkpt lat="45.90734" lon="4.59874">
        <ele>321</ele>
        <time>2018-09-01T10:25:09Z</time>
      </trkpt>
      <trkpt lat="45.9073" lon="4.5988">
        <ele>321</ele>
        <time>2018-09-01T10:25:10Z</time>
      </trkpt>
      <trkpt lat="45.90725" lon="4.59887">
        <ele>321</ele>
        <time>2018-09-01T10:25:11Z</time>
      </trkpt>
      <trkpt lat="45.90722" lon="4.59894">
        <ele>321</ele>
        <time>2018-09-01T10:25:12Z</time>
      </trkpt>
      <trkpt lat="45.90718" lon="4.59902">
        <ele>320</ele>
        <time>2018-09-01T10:25:13Z</time>
      </trkpt>
      <trkpt lat="45.90715" lon="4.59909">
        <ele>320</ele>
        <time>2018-09-01T10:25:14Z</time>
      </trkpt>
      <trkpt lat="45.9071" lon="4.59916">
        <ele>320</ele>
        <time>2018-09-01T10:25:15Z</time>
      </trkpt>
      <trkpt lat="45.90706" lon="4.59922">
        <ele>319</ele>
        <time>2018-09-01T10:25:16Z</time>
      </trkpt>
      <trkpt lat="45.90702" lon="4.59929">
        <ele>319</ele>
        <time>2018-09-01T10:25:17Z</time>
      </trkpt>
      <trkpt lat="45.90696" lon="4.59933">
        <ele>319</ele>
        <time>2018-09-01T10:25:18Z</time>
      </trkpt>
      <trkpt lat="45.90691" lon="4.59938">
        <ele>318</ele>
        <time>2018-09-01T10:25:19Z</time>
      </trkpt>
      <trkpt lat="45.90685" lon="4.59941">
        <ele>318</ele>
        <time>2018-09-01T10:25:20Z</time>
      </trkpt>
      <trkpt lat="45.90678" lon="4.59944">
        <ele>318</ele>
        <time>2018-09-01T10:25:21Z</time>
      </trkpt>
      <trkpt lat="45.9067" lon="4.59947">
        <ele>318</ele>
        <time>2018-09-01T10:25:22Z</time>
      </trkpt>
      <trkpt lat="45.90664" lon="4.59946">
        <ele>316</ele>
        <time>2018-09-01T10:25:23Z</time>
      </trkpt>
      <trkpt lat="45.90658" lon="4.59949">
        <ele>316</ele>
        <time>2018-09-01T10:25:24Z</time>
      </trkpt>
      <trkpt lat="45.9065" lon="4.5995">
        <ele>316</ele>
        <time>2018-09-01T10:25:25Z</time>
      </trkpt>
      <trkpt lat="45.90642" lon="4.59951">
        <ele>316</ele>
        <time>2018-09-01T10:25:26Z</time>
      </trkpt>
      <trkpt lat="45.90633" lon="4.59955">
        <ele>316</ele>
        <time>2018-09-01T10:25:27Z</time>
      </trkpt>
      <trkpt lat="45.90626" lon="4.59956">
        <ele>316</ele>
        <time>2018-09-01T10:25:28Z</time>
      </trkpt>
      <trkpt lat="45.90616" lon="4.59959">
        <ele>316</ele>
        <time>2018-09-01T10:25:29Z</time>
      </trkpt>
      <trkpt lat="45.90608" lon="4.59961">
        <ele>315</ele>
        <time>2018-09-01T10:25:30Z</time>
      </trkpt>
      <trkpt lat="45.906" lon="4.59964">
        <ele>315</ele>
        <time>2018-09-01T10:25:31Z</time>
      </trkpt>
      <trkpt lat="45.90592" lon="4.59966">
        <ele>315</ele>
        <time>2018-09-01T10:25:32Z</time>
      </trkpt>
      <trkpt lat="45.90583" lon="4.5997">
        <ele>314</ele>
        <time>2018-09-01T10:25:33Z</time>
      </trkpt>
      <trkpt lat="45.90575" lon="4.59973">
        <ele>314</ele>
        <time>2018-09-01T10:25:34Z</time>
      </trkpt>
      <trkpt lat="45.90566" lon="4.59978">
        <ele>314</ele>
        <time>2018-09-01T10:25:35Z</time>
      </trkpt>
      <trkpt lat="45.90557" lon="4.5998">
        <ele>314</ele>
        <time>2018-09-01T10:25:36Z</time>
      </trkpt>
      <trkpt lat="45.9055" lon="4.59983">
        <ele>314</ele>
        <time>2018-09-01T10:25:37Z</time>
      </trkpt>
      <trkpt lat="45.90541" lon="4.59985">
        <ele>314</ele>
        <time>2018-09-01T10:25:38Z</time>
      </trkpt>
      <trkpt lat="45.90533" lon="4.59988">
        <ele>314</ele>
        <time>2018-09-01T10:25:39Z</time>
      </trkpt>
      <trkpt lat="45.90526" lon="4.59991">
        <ele>314</ele>
        <time>2018-09-01T10:25:40Z</time>
      </trkpt>
      <trkpt lat="45.90519" lon="4.59994">
        <ele>313</ele>
        <time>2018-09-01T10:25:41Z</time>
      </trkpt>
      <trkpt lat="45.9051" lon="4.59996">
        <ele>313</ele>
        <time>2018-09-01T10:25:42Z</time>
      </trkpt>
      <trkpt lat="45.90503" lon="4.59998">
        <ele>312</ele>
        <time>2018-09-01T10:25:43Z</time>
      </trkpt>
      <trkpt lat="45.90496" lon="4.6">
        <ele>312</ele>
        <time>2018-09-01T10:25:44Z</time>
      </trkpt>
      <trkpt lat="45.90488" lon="4.60004">
        <ele>311</ele>
        <time>2018-09-01T10:25:45Z</time>
      </trkpt>
      <trkpt lat="45.9048" lon="4.60007">
        <ele>311</ele>
        <time>2018-09-01T10:25:46Z</time>
      </trkpt>
      <trkpt lat="45.90473" lon="4.6001">
        <ele>311</ele>
        <time>2018-09-01T10:25:47Z</time>
      </trkpt>
      <trkpt lat="45.90465" lon="4.60014">
        <ele>311</ele>
        <time>2018-09-01T10:25:48Z</time>
      </trkpt>
      <trkpt lat="45.90457" lon="4.60016">
        <ele>311</ele>
        <time>2018-09-01T10:25:49Z</time>
      </trkpt>
      <trkpt lat="45.90449" lon="4.60018">
        <ele>311</ele>
        <time>2018-09-01T10:25:50Z</time>
      </trkpt>
      <trkpt lat="45.90441" lon="4.60021">
        <ele>311</ele>
        <time>2018-09-01T10:25:51Z</time>
      </trkpt>
      <trkpt lat="45.90434" lon="4.60022">
        <ele>311</ele>
        <time>2018-09-01T10:25:52Z</time>
      </trkpt>
      <trkpt lat="45.90426" lon="4.60025">
        <ele>311</ele>
        <time>2018-09-01T10:25:53Z</time>
      </trkpt>
      <trkpt lat="45.90418" lon="4.60028">
        <ele>311</ele>
        <time>2018-09-01T10:25:54Z</time>
      </trkpt>
      <trkpt lat="45.9041" lon="4.6003">
        <ele>313</ele>
        <time>2018-09-01T10:25:55Z</time>
      </trkpt>
      <trkpt lat="45.90403" lon="4.60033">
        <ele>313</ele>
        <time>2018-09-01T10:25:56Z</time>
      </trkpt>
      <trkpt lat="45.90395" lon="4.60035">
        <ele>313</ele>
        <time>2018-09-01T10:25:57Z</time>
      </trkpt>
      <trkpt lat="45.90388" lon="4.60038">
        <ele>313</ele>
        <time>2018-09-01T10:25:58Z</time>
      </trkpt>
      <trkpt lat="45.9038" lon="4.60041">
        <ele>313</ele>
        <time>2018-09-01T10:25:59Z</time>
      </trkpt>
      <trkpt lat="45.90373" lon="4.60043">
        <ele>313</ele>
        <time>2018-09-01T10:26:00Z</time>
      </trkpt>
      <trkpt lat="45.90365" lon="4.60046">
        <ele>313</ele>
        <time>2018-09-01T10:26:01Z</time>
      </trkpt>
      <trkpt lat="45.90358" lon="4.60049">
        <ele>313</ele>
        <time>2018-09-01T10:26:02Z</time>
      </trkpt>
      <trkpt lat="45.90351" lon="4.60052">
        <ele>313</ele>
        <time>2018-09-01T10:26:03Z</time>
      </trkpt>
      <trkpt lat="45.90345" lon="4.60054">
        <ele>313</ele>
        <time>2018-09-01T10:26:04Z</time>
      </trkpt>
      <trkpt lat="45.90337" lon="4.60055">
        <ele>313</ele>
        <time>2018-09-01T10:26:05Z</time>
      </trkpt>
      <trkpt lat="45.90329" lon="4.60058">
        <ele>316</ele>
        <time>2018-09-01T10:26:06Z</time>
      </trkpt>
      <trkpt lat="45.90321" lon="4.60061">
        <ele>316</ele>
        <time>2018-09-01T10:26:07Z</time>
      </trkpt>
      <trkpt lat="45.90314" lon="4.60064">
        <ele>316</ele>
        <time>2018-09-01T10:26:08Z</time>
      </trkpt>
      <trkpt lat="45.90308" lon="4.60065">
        <ele>316</ele>
        <time>2018-09-01T10:26:09Z</time>
      </trkpt>
      <trkpt lat="45.90302" lon="4.60066">
        <ele>316</ele>
        <time>2018-09-01T10:26:10Z</time>
      </trkpt>
      <trkpt lat="45.90296" lon="4.60068">
        <ele>316</ele>
        <time>2018-09-01T10:26:11Z</time>
      </trkpt>
      <trkpt lat="45.90289" lon="4.60068">
        <ele>316</ele>
        <time>2018-09-01T10:26:12Z</time>
      </trkpt>
      <trkpt lat="45.90283" lon="4.6007">
        <ele>316</ele>
        <time>2018-09-01T10:26:13Z</time>
      </trkpt>
      <trkpt lat="45.90277" lon="4.60074">
        <ele>316</ele>
        <time>2018-09-01T10:26:14Z</time>
      </trkpt>
      <trkpt lat="45.9027" lon="4.60074">
        <ele>316</ele>
        <time>2018-09-01T10:26:15Z</time>
      </trkpt>
      <trkpt lat="45.90257" lon="4.60081">
        <ele>316</ele>
        <time>2018-09-01T10:26:16Z</time>
      </trkpt>
      <trkpt lat="45.9025" lon="4.60079">
        <ele>315</ele>
        <time>2018-09-01T10:26:18Z</time>
      </trkpt>
      <trkpt lat="45.90243" lon="4.60082">
        <ele>315</ele>
        <time>2018-09-01T10:26:19Z</time>
      </trkpt>
      <trkpt lat="45.90235" lon="4.60085">
        <ele>311</ele>
        <time>2018-09-01T10:26:20Z</time>
      </trkpt>
      <trkpt lat="45.90228" lon="4.60087">
        <ele>310</ele>
        <time>2018-09-01T10:26:21Z</time>
      </trkpt>
      <trkpt lat="45.90218" lon="4.60093">
        <ele>309</ele>
        <time>2018-09-01T10:26:22Z</time>
      </trkpt>
      <trkpt lat="45.90208" lon="4.60098">
        <ele>308</ele>
        <time>2018-09-01T10:26:23Z</time>
      </trkpt>
      <trkpt lat="45.902" lon="4.60098">
        <ele>308</ele>
        <time>2018-09-01T10:26:24Z</time>
      </trkpt>
      <trkpt lat="45.90193" lon="4.60099">
        <ele>308</ele>
        <time>2018-09-01T10:26:25Z</time>
      </trkpt>
      <trkpt lat="45.90187" lon="4.60102">
        <ele>308</ele>
        <time>2018-09-01T10:26:26Z</time>
      </trkpt>
      <trkpt lat="45.9018" lon="4.60105">
        <ele>307</ele>
        <time>2018-09-01T10:26:27Z</time>
      </trkpt>
      <trkpt lat="45.90174" lon="4.60106">
        <ele>307</ele>
        <time>2018-09-01T10:26:28Z</time>
      </trkpt>
      <trkpt lat="45.90167" lon="4.60108">
        <ele>307</ele>
        <time>2018-09-01T10:26:29Z</time>
      </trkpt>
      <trkpt lat="45.9016" lon="4.6011">
        <ele>306</ele>
        <time>2018-09-01T10:26:30Z</time>
      </trkpt>
      <trkpt lat="45.90154" lon="4.60112">
        <ele>306</ele>
        <time>2018-09-01T10:26:31Z</time>
      </trkpt>
      <trkpt lat="45.90147" lon="4.60113">
        <ele>306</ele>
        <time>2018-09-01T10:26:32Z</time>
      </trkpt>
      <trkpt lat="45.90142" lon="4.60114">
        <ele>306</ele>
        <time>2018-09-01T10:26:33Z</time>
      </trkpt>
      <trkpt lat="45.90136" lon="4.60117">
        <ele>306</ele>
        <time>2018-09-01T10:26:34Z</time>
      </trkpt>
      <trkpt lat="45.90129" lon="4.60119">
        <ele>306</ele>
        <time>2018-09-01T10:26:35Z</time>
      </trkpt>
      <trkpt lat="45.90122" lon="4.60121">
        <ele>305</ele>
        <time>2018-09-01T10:26:36Z</time>
      </trkpt>
      <trkpt lat="45.90116" lon="4.60121">
        <ele>305</ele>
        <time>2018-09-01T10:26:37Z</time>
      </trkpt>
      <trkpt lat="45.9011" lon="4.60122">
        <ele>305</ele>
        <time>2018-09-01T10:26:38Z</time>
      </trkpt>
      <trkpt lat="45.90104" lon="4.60122">
        <ele>305</ele>
        <time>2018-09-01T10:26:39Z</time>
      </trkpt>
      <trkpt lat="45.90096" lon="4.60125">
        <ele>305</ele>
        <time>2018-09-01T10:26:40Z</time>
      </trkpt>
      <trkpt lat="45.90089" lon="4.60127">
        <ele>305</ele>
        <time>2018-09-01T10:26:41Z</time>
      </trkpt>
      <trkpt lat="45.90081" lon="4.60131">
        <ele>306</ele>
        <time>2018-09-01T10:26:42Z</time>
      </trkpt>
      <trkpt lat="45.90075" lon="4.60133">
        <ele>305</ele>
        <time>2018-09-01T10:26:43Z</time>
      </trkpt>
      <trkpt lat="45.90069" lon="4.60135">
        <ele>305</ele>
        <time>2018-09-01T10:26:44Z</time>
      </trkpt>
      <trkpt lat="45.90062" lon="4.60137">
        <ele>305</ele>
        <time>2018-09-01T10:26:45Z</time>
      </trkpt>
      <trkpt lat="45.90055" lon="4.6014">
        <ele>305</ele>
        <time>2018-09-01T10:26:46Z</time>
      </trkpt>
      <trkpt lat="45.90047" lon="4.60142">
        <ele>305</ele>
        <time>2018-09-01T10:26:47Z</time>
      </trkpt>
      <trkpt lat="45.9004" lon="4.60144">
        <ele>305</ele>
        <time>2018-09-01T10:26:48Z</time>
      </trkpt>
      <trkpt lat="45.90034" lon="4.60146">
        <ele>305</ele>
        <time>2018-09-01T10:26:49Z</time>
      </trkpt>
      <trkpt lat="45.90027" lon="4.60147">
        <ele>305</ele>
        <time>2018-09-01T10:26:50Z</time>
      </trkpt>
      <trkpt lat="45.90021" lon="4.60149">
        <ele>305</ele>
        <time>2018-09-01T10:26:51Z</time>
      </trkpt>
      <trkpt lat="45.90014" lon="4.60151">
        <ele>305</ele>
        <time>2018-09-01T10:26:52Z</time>
      </trkpt>
      <trkpt lat="45.90009" lon="4.60153">
        <ele>305</ele>
        <time>2018-09-01T10:26:53Z</time>
      </trkpt>
      <trkpt lat="45.90003" lon="4.60154">
        <ele>305</ele>
        <time>2018-09-01T10:26:54Z</time>
      </trkpt>
      <trkpt lat="45.89996" lon="4.60155">
        <ele>304</ele>
        <time>2018-09-01T10:26:55Z</time>
      </trkpt>
      <trkpt lat="45.89989" lon="4.60157">
        <ele>304</ele>
        <time>2018-09-01T10:26:56Z</time>
      </trkpt>
      <trkpt lat="45.89983" lon="4.60159">
        <ele>304</ele>
        <time>2018-09-01T10:26:57Z</time>
      </trkpt>
      <trkpt lat="45.89977" lon="4.60161">
        <ele>304</ele>
        <time>2018-09-01T10:26:58Z</time>
      </trkpt>
      <trkpt lat="45.8997" lon="4.60164">
        <ele>304</ele>
        <time>2018-09-01T10:26:59Z</time>
      </trkpt>
      <trkpt lat="45.89963" lon="4.60166">
        <ele>304</ele>
        <time>2018-09-01T10:27:00Z</time>
      </trkpt>
      <trkpt lat="45.89955" lon="4.60168">
        <ele>302</ele>
        <time>2018-09-01T10:27:01Z</time>
      </trkpt>
      <trkpt lat="45.89947" lon="4.6017">
        <ele>302</ele>
        <time>2018-09-01T10:27:02Z</time>
      </trkpt>
      <trkpt lat="45.8994" lon="4.60172">
        <ele>302</ele>
        <time>2018-09-01T10:27:03Z</time>
      </trkpt>
      <trkpt lat="45.89932" lon="4.60174">
        <ele>302</ele>
        <time>2018-09-01T10:27:04Z</time>
      </trkpt>
      <trkpt lat="45.89924" lon="4.60176">
        <ele>302</ele>
        <time>2018-09-01T10:27:05Z</time>
      </trkpt>
      <trkpt lat="45.89917" lon="4.60179">
        <ele>302</ele>
        <time>2018-09-01T10:27:06Z</time>
      </trkpt>
      <trkpt lat="45.8991" lon="4.6018">
        <ele>302</ele>
        <time>2018-09-01T10:27:07Z</time>
      </trkpt>
      <trkpt lat="45.89902" lon="4.60183">
        <ele>302</ele>
        <time>2018-09-01T10:27:08Z</time>
      </trkpt>
      <trkpt lat="45.89893" lon="4.60184">
        <ele>302</ele>
        <time>2018-09-01T10:27:09Z</time>
      </trkpt>
      <trkpt lat="45.89885" lon="4.60186">
        <ele>301</ele>
        <time>2018-09-01T10:27:10Z</time>
      </trkpt>
      <trkpt lat="45.89878" lon="4.6019">
        <ele>301</ele>
        <time>2018-09-01T10:27:11Z</time>
      </trkpt>
      <trkpt lat="45.89869" lon="4.60192">
        <ele>301</ele>
        <time>2018-09-01T10:27:12Z</time>
      </trkpt>
      <trkpt lat="45.89861" lon="4.60194">
        <ele>301</ele>
        <time>2018-09-01T10:27:13Z</time>
      </trkpt>
      <trkpt lat="45.89854" lon="4.60196">
        <ele>301</ele>
        <time>2018-09-01T10:27:14Z</time>
      </trkpt>
      <trkpt lat="45.89845" lon="4.60199">
        <ele>301</ele>
        <time>2018-09-01T10:27:15Z</time>
      </trkpt>
      <trkpt lat="45.89837" lon="4.60202">
        <ele>301</ele>
        <time>2018-09-01T10:27:16Z</time>
      </trkpt>
      <trkpt lat="45.8983" lon="4.60205">
        <ele>301</ele>
        <time>2018-09-01T10:27:17Z</time>
      </trkpt>
      <trkpt lat="45.89822" lon="4.60207">
        <ele>301</ele>
        <time>2018-09-01T10:27:18Z</time>
      </trkpt>
      <trkpt lat="45.89814" lon="4.60209">
        <ele>301</ele>
        <time>2018-09-01T10:27:19Z</time>
      </trkpt>
      <trkpt lat="45.89806" lon="4.60212">
        <ele>301</ele>
        <time>2018-09-01T10:27:20Z</time>
      </trkpt>
      <trkpt lat="45.89798" lon="4.60214">
        <ele>301</ele>
        <time>2018-09-01T10:27:21Z</time>
      </trkpt>
      <trkpt lat="45.89791" lon="4.60218">
        <ele>301</ele>
        <time>2018-09-01T10:27:22Z</time>
      </trkpt>
      <trkpt lat="45.89784" lon="4.6022">
        <ele>301</ele>
        <time>2018-09-01T10:27:23Z</time>
      </trkpt>
      <trkpt lat="45.89777" lon="4.60223">
        <ele>301</ele>
        <time>2018-09-01T10:27:24Z</time>
      </trkpt>
      <trkpt lat="45.8977" lon="4.60227">
        <ele>301</ele>
        <time>2018-09-01T10:27:25Z</time>
      </trkpt>
      <trkpt lat="45.89763" lon="4.60229">
        <ele>301</ele>
        <time>2018-09-01T10:27:26Z</time>
      </trkpt>
      <trkpt lat="45.89755" lon="4.60232">
        <ele>301</ele>
        <time>2018-09-01T10:27:27Z</time>
      </trkpt>
      <trkpt lat="45.89748" lon="4.60234">
        <ele>300</ele>
        <time>2018-09-01T10:27:28Z</time>
      </trkpt>
      <trkpt lat="45.89741" lon="4.60236">
        <ele>300</ele>
        <time>2018-09-01T10:27:29Z</time>
      </trkpt>
      <trkpt lat="45.89734" lon="4.6024">
        <ele>300</ele>
        <time>2018-09-01T10:27:30Z</time>
      </trkpt>
      <trkpt lat="45.89727" lon="4.60244">
        <ele>299</ele>
        <time>2018-09-01T10:27:31Z</time>
      </trkpt>
      <trkpt lat="45.8972" lon="4.60247">
        <ele>299</ele>
        <time>2018-09-01T10:27:32Z</time>
      </trkpt>
      <trkpt lat="45.89713" lon="4.6025">
        <ele>298</ele>
        <time>2018-09-01T10:27:33Z</time>
      </trkpt>
      <trkpt lat="45.89707" lon="4.60253">
        <ele>297</ele>
        <time>2018-09-01T10:27:34Z</time>
      </trkpt>
      <trkpt lat="45.897" lon="4.60257">
        <ele>297</ele>
        <time>2018-09-01T10:27:35Z</time>
      </trkpt>
      <trkpt lat="45.89694" lon="4.60264">
        <ele>296</ele>
        <time>2018-09-01T10:27:36Z</time>
      </trkpt>
      <trkpt lat="45.89686" lon="4.60267">
        <ele>296</ele>
        <time>2018-09-01T10:27:37Z</time>
      </trkpt>
      <trkpt lat="45.89679" lon="4.6027">
        <ele>296</ele>
        <time>2018-09-01T10:27:38Z</time>
      </trkpt>
      <trkpt lat="45.89672" lon="4.60273">
        <ele>295</ele>
        <time>2018-09-01T10:27:39Z</time>
      </trkpt>
      <trkpt lat="45.89663" lon="4.60275">
        <ele>292</ele>
        <time>2018-09-01T10:27:40Z</time>
      </trkpt>
      <trkpt lat="45.89656" lon="4.60278">
        <ele>292</ele>
        <time>2018-09-01T10:27:41Z</time>
      </trkpt>
      <trkpt lat="45.89647" lon="4.6028">
        <ele>291</ele>
        <time>2018-09-01T10:27:42Z</time>
      </trkpt>
      <trkpt lat="45.89637" lon="4.60283">
        <ele>291</ele>
        <time>2018-09-01T10:27:43Z</time>
      </trkpt>
      <trkpt lat="45.89628" lon="4.60284">
        <ele>291</ele>
        <time>2018-09-01T10:27:44Z</time>
      </trkpt>
      <trkpt lat="45.89619" lon="4.60285">
        <ele>290</ele>
        <time>2018-09-01T10:27:45Z</time>
      </trkpt>
      <trkpt lat="45.8961" lon="4.60287">
        <ele>290</ele>
        <time>2018-09-01T10:27:46Z</time>
      </trkpt>
      <trkpt lat="45.89601" lon="4.60288">
        <ele>290</ele>
        <time>2018-09-01T10:27:47Z</time>
      </trkpt>
      <trkpt lat="45.89591" lon="4.6029">
        <ele>290</ele>
        <time>2018-09-01T10:27:48Z</time>
      </trkpt>
      <trkpt lat="45.89583" lon="4.60292">
        <ele>286</ele>
        <time>2018-09-01T10:27:49Z</time>
      </trkpt>
      <trkpt lat="45.89572" lon="4.60294">
        <ele>286</ele>
        <time>2018-09-01T10:27:50Z</time>
      </trkpt>
      <trkpt lat="45.89561" lon="4.60296">
        <ele>286</ele>
        <time>2018-09-01T10:27:51Z</time>
      </trkpt>
      <trkpt lat="45.89551" lon="4.60296">
        <ele>285</ele>
        <time>2018-09-01T10:27:52Z</time>
      </trkpt>
      <trkpt lat="45.8954" lon="4.60298">
        <ele>285</ele>
        <time>2018-09-01T10:27:53Z</time>
      </trkpt>
      <trkpt lat="45.89529" lon="4.60298">
        <ele>284</ele>
        <time>2018-09-01T10:27:54Z</time>
      </trkpt>
      <trkpt lat="45.89519" lon="4.603">
        <ele>284</ele>
        <time>2018-09-01T10:27:55Z</time>
      </trkpt>
      <trkpt lat="45.89509" lon="4.60299">
        <ele>284</ele>
        <time>2018-09-01T10:27:56Z</time>
      </trkpt>
      <trkpt lat="45.89498" lon="4.60299">
        <ele>281</ele>
        <time>2018-09-01T10:27:57Z</time>
      </trkpt>
      <trkpt lat="45.89487" lon="4.60298">
        <ele>281</ele>
        <time>2018-09-01T10:27:58Z</time>
      </trkpt>
      <trkpt lat="45.89478" lon="4.60298">
        <ele>280</ele>
        <time>2018-09-01T10:27:59Z</time>
      </trkpt>
      <trkpt lat="45.89466" lon="4.60296">
        <ele>280</ele>
        <time>2018-09-01T10:28:00Z</time>
      </trkpt>
      <trkpt lat="45.89455" lon="4.60295">
        <ele>280</ele>
        <time>2018-09-01T10:28:01Z</time>
      </trkpt>
      <trkpt lat="45.89445" lon="4.60294">
        <ele>280</ele>
        <time>2018-09-01T10:28:02Z</time>
      </trkpt>
      <trkpt lat="45.89434" lon="4.60293">
        <ele>279</ele>
        <time>2018-09-01T10:28:03Z</time>
      </trkpt>
      <trkpt lat="45.89423" lon="4.6029">
        <ele>279</ele>
        <time>2018-09-01T10:28:04Z</time>
      </trkpt>
      <trkpt lat="45.89412" lon="4.60289">
        <ele>276</ele>
        <time>2018-09-01T10:28:05Z</time>
      </trkpt>
      <trkpt lat="45.89401" lon="4.60287">
        <ele>276</ele>
        <time>2018-09-01T10:28:06Z</time>
      </trkpt>
      <trkpt lat="45.8939" lon="4.60287">
        <ele>276</ele>
        <time>2018-09-01T10:28:07Z</time>
      </trkpt>
      <trkpt lat="45.89378" lon="4.60285">
        <ele>275</ele>
        <time>2018-09-01T10:28:08Z</time>
      </trkpt>
      <trkpt lat="45.89366" lon="4.60285">
        <ele>275</ele>
        <time>2018-09-01T10:28:09Z</time>
      </trkpt>
      <trkpt lat="45.89354" lon="4.60283">
        <ele>274</ele>
        <time>2018-09-01T10:28:10Z</time>
      </trkpt>
      <trkpt lat="45.8934" lon="4.60281">
        <ele>274</ele>
        <time>2018-09-01T10:28:11Z</time>
      </trkpt>
      <trkpt lat="45.89327" lon="4.6028">
        <ele>269</ele>
        <time>2018-09-01T10:28:12Z</time>
      </trkpt>
      <trkpt lat="45.89315" lon="4.6028">
        <ele>268</ele>
        <time>2018-09-01T10:28:13Z</time>
      </trkpt>
      <trkpt lat="45.89303" lon="4.60281">
        <ele>267</ele>
        <time>2018-09-01T10:28:14Z</time>
      </trkpt>
      <trkpt lat="45.8929" lon="4.60283">
        <ele>266</ele>
        <time>2018-09-01T10:28:15Z</time>
      </trkpt>
      <trkpt lat="45.89277" lon="4.60288">
        <ele>265</ele>
        <time>2018-09-01T10:28:16Z</time>
      </trkpt>
      <trkpt lat="45.89264" lon="4.60296">
        <ele>264</ele>
        <time>2018-09-01T10:28:17Z</time>
      </trkpt>
      <trkpt lat="45.89252" lon="4.60301">
        <ele>264</ele>
        <time>2018-09-01T10:28:18Z</time>
      </trkpt>
      <trkpt lat="45.8924" lon="4.60308">
        <ele>257</ele>
        <time>2018-09-01T10:28:19Z</time>
      </trkpt>
      <trkpt lat="45.89227" lon="4.60314">
        <ele>257</ele>
        <time>2018-09-01T10:28:20Z</time>
      </trkpt>
      <trkpt lat="45.89215" lon="4.6032">
        <ele>256</ele>
        <time>2018-09-01T10:28:21Z</time>
      </trkpt>
      <trkpt lat="45.89201" lon="4.60326">
        <ele>255</ele>
        <time>2018-09-01T10:28:22Z</time>
      </trkpt>
      <trkpt lat="45.89189" lon="4.60332">
        <ele>254</ele>
        <time>2018-09-01T10:28:23Z</time>
      </trkpt>
      <trkpt lat="45.89176" lon="4.60339">
        <ele>253</ele>
        <time>2018-09-01T10:28:24Z</time>
      </trkpt>
      <trkpt lat="45.89164" lon="4.60346">
        <ele>250</ele>
        <time>2018-09-01T10:28:25Z</time>
      </trkpt>
      <trkpt lat="45.89153" lon="4.60351">
        <ele>249</ele>
        <time>2018-09-01T10:28:26Z</time>
      </trkpt>
      <trkpt lat="45.89143" lon="4.60353">
        <ele>249</ele>
        <time>2018-09-01T10:28:27Z</time>
      </trkpt>
      <trkpt lat="45.89133" lon="4.60355">
        <ele>248</ele>
        <time>2018-09-01T10:28:28Z</time>
      </trkpt>
      <trkpt lat="45.89124" lon="4.60356">
        <ele>248</ele>
        <time>2018-09-01T10:28:29Z</time>
      </trkpt>
      <trkpt lat="45.89117" lon="4.60355">
        <ele>247</ele>
        <time>2018-09-01T10:28:30Z</time>
      </trkpt>
      <trkpt lat="45.89112" lon="4.60354">
        <ele>247</ele>
        <time>2018-09-01T10:28:31Z</time>
      </trkpt>
      <trkpt lat="45.89104" lon="4.60353">
        <ele>246</ele>
        <time>2018-09-01T10:28:32Z</time>
      </trkpt>
      <trkpt lat="45.89095" lon="4.6035">
        <ele>246</ele>
        <time>2018-09-01T10:28:34Z</time>
      </trkpt>
      <trkpt lat="45.89093" lon="4.60351">
        <ele>246</ele>
        <time>2018-09-01T10:28:35Z</time>
      </trkpt>
      <trkpt lat="45.89085" lon="4.6035">
        <ele>245</ele>
        <time>2018-09-01T10:28:39Z</time>
      </trkpt>
      <trkpt lat="45.89083" lon="4.6035">
        <ele>243</ele>
        <time>2018-09-01T10:28:40Z</time>
      </trkpt>
      <trkpt lat="45.89076" lon="4.60347">
        <ele>243</ele>
        <time>2018-09-01T10:28:50Z</time>
      </trkpt>
      <trkpt lat="45.89074" lon="4.60347">
        <ele>243</ele>
        <time>2018-09-01T10:28:51Z</time>
      </trkpt>
      <trkpt lat="45.89068" lon="4.60353">
        <ele>243</ele>
        <time>2018-09-01T10:28:55Z</time>
      </trkpt>
      <trkpt lat="45.89067" lon="4.60356">
        <ele>243</ele>
        <time>2018-09-01T10:28:56Z</time>
      </trkpt>
      <trkpt lat="45.89066" lon="4.6036">
        <ele>243</ele>
        <time>2018-09-01T10:28:57Z</time>
      </trkpt>
      <trkpt lat="45.89063" lon="4.60373">
        <ele>243</ele>
        <time>2018-09-01T10:28:58Z</time>
      </trkpt>
      <trkpt lat="45.89061" lon="4.60384">
        <ele>243</ele>
        <time>2018-09-01T10:29:00Z</time>
      </trkpt>
      <trkpt lat="45.8906" lon="4.60392">
        <ele>244</ele>
        <time>2018-09-01T10:29:01Z</time>
      </trkpt>
      <trkpt lat="45.89057" lon="4.60399">
        <ele>244</ele>
        <time>2018-09-01T10:29:02Z</time>
      </trkpt>
      <trkpt lat="45.89056" lon="4.60407">
        <ele>244</ele>
        <time>2018-09-01T10:29:03Z</time>
      </trkpt>
      <trkpt lat="45.89054" lon="4.60415">
        <ele>244</ele>
        <time>2018-09-01T10:29:04Z</time>
      </trkpt>
      <trkpt lat="45.89052" lon="4.60423">
        <ele>244</ele>
        <time>2018-09-01T10:29:05Z</time>
      </trkpt>
      <trkpt lat="45.89051" lon="4.60432">
        <ele>244</ele>
        <time>2018-09-01T10:29:06Z</time>
      </trkpt>
      <trkpt lat="45.89048" lon="4.6044">
        <ele>244</ele>
        <time>2018-09-01T10:29:07Z</time>
      </trkpt>
      <trkpt lat="45.89046" lon="4.6045">
        <ele>243</ele>
        <time>2018-09-01T10:29:08Z</time>
      </trkpt>
      <trkpt lat="45.89044" lon="4.6046">
        <ele>243</ele>
        <time>2018-09-01T10:29:09Z</time>
      </trkpt>
      <trkpt lat="45.89042" lon="4.60468">
        <ele>243</ele>
        <time>2018-09-01T10:29:10Z</time>
      </trkpt>
      <trkpt lat="45.8904" lon="4.60479">
        <ele>243</ele>
        <time>2018-09-01T10:29:11Z</time>
      </trkpt>
      <trkpt lat="45.89038" lon="4.60488">
        <ele>243</ele>
        <time>2018-09-01T10:29:12Z</time>
      </trkpt>
      <trkpt lat="45.89036" lon="4.60498">
        <ele>243</ele>
        <time>2018-09-01T10:29:13Z</time>
      </trkpt>
      <trkpt lat="45.89033" lon="4.60508">
        <ele>241</ele>
        <time>2018-09-01T10:29:14Z</time>
      </trkpt>
      <trkpt lat="45.8903" lon="4.60518">
        <ele>241</ele>
        <time>2018-09-01T10:29:15Z</time>
      </trkpt>
      <trkpt lat="45.89027" lon="4.6053">
        <ele>241</ele>
        <time>2018-09-01T10:29:16Z</time>
      </trkpt>
      <trkpt lat="45.89025" lon="4.6054">
        <ele>241</ele>
        <time>2018-09-01T10:29:17Z</time>
      </trkpt>
      <trkpt lat="45.89021" lon="4.60552">
        <ele>240</ele>
        <time>2018-09-01T10:29:18Z</time>
      </trkpt>
      <trkpt lat="45.89018" lon="4.60562">
        <ele>240</ele>
        <time>2018-09-01T10:29:19Z</time>
      </trkpt>
      <trkpt lat="45.89015" lon="4.60573">
        <ele>240</ele>
        <time>2018-09-01T10:29:20Z</time>
      </trkpt>
      <trkpt lat="45.89012" lon="4.60584">
        <ele>239</ele>
        <time>2018-09-01T10:29:21Z</time>
      </trkpt>
      <trkpt lat="45.89009" lon="4.60596">
        <ele>239</ele>
        <time>2018-09-01T10:29:22Z</time>
      </trkpt>
      <trkpt lat="45.89006" lon="4.60607">
        <ele>239</ele>
        <time>2018-09-01T10:29:23Z</time>
      </trkpt>
      <trkpt lat="45.89004" lon="4.60619">
        <ele>239</ele>
        <time>2018-09-01T10:29:24Z</time>
      </trkpt>
      <trkpt lat="45.89" lon="4.60629">
        <ele>239</ele>
        <time>2018-09-01T10:29:25Z</time>
      </trkpt>
      <trkpt lat="45.88997" lon="4.60639">
        <ele>236</ele>
        <time>2018-09-01T10:29:26Z</time>
      </trkpt>
      <trkpt lat="45.88993" lon="4.6065">
        <ele>237</ele>
        <time>2018-09-01T10:29:27Z</time>
      </trkpt>
      <trkpt lat="45.88989" lon="4.60661">
        <ele>237</ele>
        <time>2018-09-01T10:29:28Z</time>
      </trkpt>
      <trkpt lat="45.88986" lon="4.60673">
        <ele>237</ele>
        <time>2018-09-01T10:29:29Z</time>
      </trkpt>
      <trkpt lat="45.88982" lon="4.60684">
        <ele>236</ele>
        <time>2018-09-01T10:29:30Z</time>
      </trkpt>
      <trkpt lat="45.88978" lon="4.60696">
        <ele>236</ele>
        <time>2018-09-01T10:29:31Z</time>
      </trkpt>
      <trkpt lat="45.88973" lon="4.60707">
        <ele>235</ele>
        <time>2018-09-01T10:29:32Z</time>
      </trkpt>
      <trkpt lat="45.88969" lon="4.60717">
        <ele>235</ele>
        <time>2018-09-01T10:29:33Z</time>
      </trkpt>
      <trkpt lat="45.88965" lon="4.60727">
        <ele>235</ele>
        <time>2018-09-01T10:29:34Z</time>
      </trkpt>
      <trkpt lat="45.88961" lon="4.60738">
        <ele>235</ele>
        <time>2018-09-01T10:29:35Z</time>
      </trkpt>
      <trkpt lat="45.88958" lon="4.6075">
        <ele>234</ele>
        <time>2018-09-01T10:29:36Z</time>
      </trkpt>
      <trkpt lat="45.88955" lon="4.60761">
        <ele>234</ele>
        <time>2018-09-01T10:29:37Z</time>
      </trkpt>
      <trkpt lat="45.88951" lon="4.60773">
        <ele>234</ele>
        <time>2018-09-01T10:29:38Z</time>
      </trkpt>
      <trkpt lat="45.88948" lon="4.60784">
        <ele>234</ele>
        <time>2018-09-01T10:29:39Z</time>
      </trkpt>
      <trkpt lat="45.88944" lon="4.60794">
        <ele>233</ele>
        <time>2018-09-01T10:29:40Z</time>
      </trkpt>
      <trkpt lat="45.88939" lon="4.60805">
        <ele>233</ele>
        <time>2018-09-01T10:29:41Z</time>
      </trkpt>
      <trkpt lat="45.88934" lon="4.60816">
        <ele>232</ele>
        <time>2018-09-01T10:29:42Z</time>
      </trkpt>
      <trkpt lat="45.8893" lon="4.60828">
        <ele>231</ele>
        <time>2018-09-01T10:29:43Z</time>
      </trkpt>
      <trkpt lat="45.88926" lon="4.6084">
        <ele>231</ele>
        <time>2018-09-01T10:29:44Z</time>
      </trkpt>
      <trkpt lat="45.88921" lon="4.60852">
        <ele>231</ele>
        <time>2018-09-01T10:29:45Z</time>
      </trkpt>
      <trkpt lat="45.88919" lon="4.60869">
        <ele>232</ele>
        <time>2018-09-01T10:29:46Z</time>
      </trkpt>
      <trkpt lat="45.88914" lon="4.60881">
        <ele>229</ele>
        <time>2018-09-01T10:29:47Z</time>
      </trkpt>
      <trkpt lat="45.8891" lon="4.60893">
        <ele>229</ele>
        <time>2018-09-01T10:29:48Z</time>
      </trkpt>
      <trkpt lat="45.88906" lon="4.60906">
        <ele>229</ele>
        <time>2018-09-01T10:29:49Z</time>
      </trkpt>
      <trkpt lat="45.88901" lon="4.60916">
        <ele>229</ele>
        <time>2018-09-01T10:29:50Z</time>
      </trkpt>
      <trkpt lat="45.88898" lon="4.60928">
        <ele>229</ele>
        <time>2018-09-01T10:29:51Z</time>
      </trkpt>
      <trkpt lat="45.88895" lon="4.6094">
        <ele>229</ele>
        <time>2018-09-01T10:29:52Z</time>
      </trkpt>
      <trkpt lat="45.88892" lon="4.60953">
        <ele>229</ele>
        <time>2018-09-01T10:29:53Z</time>
      </trkpt>
      <trkpt lat="45.88889" lon="4.60965">
        <ele>229</ele>
        <time>2018-09-01T10:29:54Z</time>
      </trkpt>
      <trkpt lat="45.88887" lon="4.60978">
        <ele>229</ele>
        <time>2018-09-01T10:29:55Z</time>
      </trkpt>
      <trkpt lat="45.88885" lon="4.60989">
        <ele>229</ele>
        <time>2018-09-01T10:29:56Z</time>
      </trkpt>
      <trkpt lat="45.88883" lon="4.61">
        <ele>229</ele>
        <time>2018-09-01T10:29:57Z</time>
      </trkpt>
      <trkpt lat="45.88882" lon="4.61012">
        <ele>229</ele>
        <time>2018-09-01T10:29:58Z</time>
      </trkpt>
      <trkpt lat="45.88882" lon="4.61024">
        <ele>229</ele>
        <time>2018-09-01T10:29:59Z</time>
      </trkpt>
      <trkpt lat="45.8888" lon="4.61036">
        <ele>229</ele>
        <time>2018-09-01T10:30:00Z</time>
      </trkpt>
      <trkpt lat="45.88879" lon="4.61047">
        <ele>229</ele>
        <time>2018-09-01T10:30:01Z</time>
      </trkpt>
      <trkpt lat="45.88879" lon="4.61058">
        <ele>229</ele>
        <time>2018-09-01T10:30:02Z</time>
      </trkpt>
      <trkpt lat="45.8888" lon="4.61069">
        <ele>229</ele>
        <time>2018-09-01T10:30:03Z</time>
      </trkpt>
      <trkpt lat="45.8888" lon="4.6108">
        <ele>229</ele>
        <time>2018-09-01T10:30:04Z</time>
      </trkpt>
      <trkpt lat="45.88881" lon="4.61091">
        <ele>229</ele>
        <time>2018-09-01T10:30:05Z</time>
      </trkpt>
      <trkpt lat="45.88881" lon="4.611">
        <ele>229</ele>
        <time>2018-09-01T10:30:06Z</time>
      </trkpt>
      <trkpt lat="45.88881" lon="4.61111">
        <ele>228</ele>
        <time>2018-09-01T10:30:07Z</time>
      </trkpt>
      <trkpt lat="45.88881" lon="4.6112">
        <ele>228</ele>
        <time>2018-09-01T10:30:08Z</time>
      </trkpt>
      <trkpt lat="45.88882" lon="4.61129">
        <ele>228</ele>
        <time>2018-09-01T10:30:09Z</time>
      </trkpt>
      <trkpt lat="45.88881" lon="4.61139">
        <ele>228</ele>
        <time>2018-09-01T10:30:10Z</time>
      </trkpt>
      <trkpt lat="45.8888" lon="4.61148">
        <ele>228</ele>
        <time>2018-09-01T10:30:11Z</time>
      </trkpt>
      <trkpt lat="45.8888" lon="4.61157">
        <ele>228</ele>
        <time>2018-09-01T10:30:12Z</time>
      </trkpt>
      <trkpt lat="45.88879" lon="4.61167">
        <ele>228</ele>
        <time>2018-09-01T10:30:13Z</time>
      </trkpt>
      <trkpt lat="45.88879" lon="4.61176">
        <ele>227</ele>
        <time>2018-09-01T10:30:14Z</time>
      </trkpt>
      <trkpt lat="45.88879" lon="4.61186">
        <ele>226</ele>
        <time>2018-09-01T10:30:15Z</time>
      </trkpt>
      <trkpt lat="45.88879" lon="4.61195">
        <ele>226</ele>
        <time>2018-09-01T10:30:16Z</time>
      </trkpt>
      <trkpt lat="45.8888" lon="4.61206">
        <ele>226</ele>
        <time>2018-09-01T10:30:17Z</time>
      </trkpt>
      <trkpt lat="45.8888" lon="4.61214">
        <ele>226</ele>
        <time>2018-09-01T10:30:18Z</time>
      </trkpt>
      <trkpt lat="45.8888" lon="4.61222">
        <ele>226</ele>
        <time>2018-09-01T10:30:19Z</time>
      </trkpt>
      <trkpt lat="45.88879" lon="4.6123">
        <ele>226</ele>
        <time>2018-09-01T10:30:20Z</time>
      </trkpt>
      <trkpt lat="45.88879" lon="4.61238">
        <ele>226</ele>
        <time>2018-09-01T10:30:21Z</time>
      </trkpt>
      <trkpt lat="45.88878" lon="4.61247">
        <ele>226</ele>
        <time>2018-09-01T10:30:22Z</time>
      </trkpt>
      <trkpt lat="45.88877" lon="4.61256">
        <ele>226</ele>
        <time>2018-09-01T10:30:23Z</time>
      </trkpt>
      <trkpt lat="45.88877" lon="4.61265">
        <ele>226</ele>
        <time>2018-09-01T10:30:24Z</time>
      </trkpt>
      <trkpt lat="45.88877" lon="4.61272">
        <ele>226</ele>
        <time>2018-09-01T10:30:25Z</time>
      </trkpt>
      <trkpt lat="45.88876" lon="4.6128">
        <ele>226</ele>
        <time>2018-09-01T10:30:26Z</time>
      </trkpt>
      <trkpt lat="45.88875" lon="4.61288">
        <ele>226</ele>
        <time>2018-09-01T10:30:27Z</time>
      </trkpt>
      <trkpt lat="45.88873" lon="4.61296">
        <ele>226</ele>
        <time>2018-09-01T10:30:28Z</time>
      </trkpt>
      <trkpt lat="45.88871" lon="4.61306">
        <ele>226</ele>
        <time>2018-09-01T10:30:29Z</time>
      </trkpt>
      <trkpt lat="45.8887" lon="4.61314">
        <ele>226</ele>
        <time>2018-09-01T10:30:30Z</time>
      </trkpt>
      <trkpt lat="45.88867" lon="4.61324">
        <ele>226</ele>
        <time>2018-09-01T10:30:31Z</time>
      </trkpt>
      <trkpt lat="45.88866" lon="4.61334">
        <ele>227</ele>
        <time>2018-09-01T10:30:32Z</time>
      </trkpt>
      <trkpt lat="45.88865" lon="4.61343">
        <ele>226</ele>
        <time>2018-09-01T10:30:33Z</time>
      </trkpt>
      <trkpt lat="45.88864" lon="4.61352">
        <ele>226</ele>
        <time>2018-09-01T10:30:34Z</time>
      </trkpt>
      <trkpt lat="45.88862" lon="4.6136">
        <ele>226</ele>
        <time>2018-09-01T10:30:35Z</time>
      </trkpt>
      <trkpt lat="45.88859" lon="4.61368">
        <ele>226</ele>
        <time>2018-09-01T10:30:36Z</time>
      </trkpt>
      <trkpt lat="45.88857" lon="4.61377">
        <ele>226</ele>
        <time>2018-09-01T10:30:37Z</time>
      </trkpt>
      <trkpt lat="45.88855" lon="4.61388">
        <ele>226</ele>
        <time>2018-09-01T10:30:38Z</time>
      </trkpt>
      <trkpt lat="45.88852" lon="4.61398">
        <ele>226</ele>
        <time>2018-09-01T10:30:39Z</time>
      </trkpt>
      <trkpt lat="45.8885" lon="4.61408">
        <ele>226</ele>
        <time>2018-09-01T10:30:40Z</time>
      </trkpt>
      <trkpt lat="45.88847" lon="4.61416">
        <ele>225</ele>
        <time>2018-09-01T10:30:41Z</time>
      </trkpt>
      <trkpt lat="45.88844" lon="4.61424">
        <ele>225</ele>
        <time>2018-09-01T10:30:42Z</time>
      </trkpt>
      <trkpt lat="45.88842" lon="4.61435">
        <ele>226</ele>
        <time>2018-09-01T10:30:43Z</time>
      </trkpt>
      <trkpt lat="45.8884" lon="4.61442">
        <ele>226</ele>
        <time>2018-09-01T10:30:44Z</time>
      </trkpt>
      <trkpt lat="45.88837" lon="4.61449">
        <ele>226</ele>
        <time>2018-09-01T10:30:45Z</time>
      </trkpt>
      <trkpt lat="45.88834" lon="4.61457">
        <ele>226</ele>
        <time>2018-09-01T10:30:46Z</time>
      </trkpt>
      <trkpt lat="45.88832" lon="4.61465">
        <ele>223</ele>
        <time>2018-09-01T10:30:47Z</time>
      </trkpt>
      <trkpt lat="45.88829" lon="4.61474">
        <ele>223</ele>
        <time>2018-09-01T10:30:48Z</time>
      </trkpt>
      <trkpt lat="45.88827" lon="4.61483">
        <ele>223</ele>
        <time>2018-09-01T10:30:49Z</time>
      </trkpt>
      <trkpt lat="45.88825" lon="4.61493">
        <ele>223</ele>
        <time>2018-09-01T10:30:50Z</time>
      </trkpt>
      <trkpt lat="45.88823" lon="4.61501">
        <ele>223</ele>
        <time>2018-09-01T10:30:51Z</time>
      </trkpt>
      <trkpt lat="45.8882" lon="4.6151">
        <ele>223</ele>
        <time>2018-09-01T10:30:52Z</time>
      </trkpt>
      <trkpt lat="45.88817" lon="4.61516">
        <ele>223</ele>
        <time>2018-09-01T10:30:53Z</time>
      </trkpt>
      <trkpt lat="45.88814" lon="4.61525">
        <ele>223</ele>
        <time>2018-09-01T10:30:54Z</time>
      </trkpt>
      <trkpt lat="45.88811" lon="4.61534">
        <ele>223</ele>
        <time>2018-09-01T10:30:55Z</time>
      </trkpt>
      <trkpt lat="45.88808" lon="4.61541">
        <ele>223</ele>
        <time>2018-09-01T10:30:56Z</time>
      </trkpt>
      <trkpt lat="45.88806" lon="4.61549">
        <ele>223</ele>
        <time>2018-09-01T10:30:57Z</time>
      </trkpt>
      <trkpt lat="45.88803" lon="4.61557">
        <ele>223</ele>
        <time>2018-09-01T10:30:58Z</time>
      </trkpt>
      <trkpt lat="45.88799" lon="4.61564">
        <ele>223</ele>
        <time>2018-09-01T10:30:59Z</time>
      </trkpt>
      <trkpt lat="45.88796" lon="4.61572">
        <ele>223</ele>
        <time>2018-09-01T10:31:00Z</time>
      </trkpt>
      <trkpt lat="45.88793" lon="4.6158">
        <ele>223</ele>
        <time>2018-09-01T10:31:01Z</time>
      </trkpt>
      <trkpt lat="45.8879" lon="4.61588">
        <ele>223</ele>
        <time>2018-09-01T10:31:02Z</time>
      </trkpt>
      <trkpt lat="45.88787" lon="4.61595">
        <ele>223</ele>
        <time>2018-09-01T10:31:03Z</time>
      </trkpt>
      <trkpt lat="45.88784" lon="4.61603">
        <ele>223</ele>
        <time>2018-09-01T10:31:04Z</time>
      </trkpt>
      <trkpt lat="45.88781" lon="4.61612">
        <ele>223</ele>
        <time>2018-09-01T10:31:05Z</time>
      </trkpt>
      <trkpt lat="45.88779" lon="4.61619">
        <ele>223</ele>
        <time>2018-09-01T10:31:06Z</time>
      </trkpt>
      <trkpt lat="45.88776" lon="4.61628">
        <ele>223</ele>
        <time>2018-09-01T10:31:07Z</time>
      </trkpt>
      <trkpt lat="45.88772" lon="4.61635">
        <ele>223</ele>
        <time>2018-09-01T10:31:08Z</time>
      </trkpt>
      <trkpt lat="45.88769" lon="4.61643">
        <ele>223</ele>
        <time>2018-09-01T10:31:09Z</time>
      </trkpt>
      <trkpt lat="45.88767" lon="4.61652">
        <ele>223</ele>
        <time>2018-09-01T10:31:10Z</time>
      </trkpt>
      <trkpt lat="45.88763" lon="4.61659">
        <ele>223</ele>
        <time>2018-09-01T10:31:11Z</time>
      </trkpt>
      <trkpt lat="45.88761" lon="4.61666">
        <ele>223</ele>
        <time>2018-09-01T10:31:12Z</time>
      </trkpt>
      <trkpt lat="45.88758" lon="4.61674">
        <ele>223</ele>
        <time>2018-09-01T10:31:13Z</time>
      </trkpt>
      <trkpt lat="45.88756" lon="4.61682">
        <ele>223</ele>
        <time>2018-09-01T10:31:14Z</time>
      </trkpt>
      <trkpt lat="45.88753" lon="4.6169">
        <ele>223</ele>
        <time>2018-09-01T10:31:15Z</time>
      </trkpt>
      <trkpt lat="45.88751" lon="4.61698">
        <ele>223</ele>
        <time>2018-09-01T10:31:16Z</time>
      </trkpt>
      <trkpt lat="45.88748" lon="4.61706">
        <ele>222</ele>
        <time>2018-09-01T10:31:17Z</time>
      </trkpt>
      <trkpt lat="45.88745" lon="4.61711">
        <ele>222</ele>
        <time>2018-09-01T10:31:18Z</time>
      </trkpt>
      <trkpt lat="45.88742" lon="4.61719">
        <ele>222</ele>
        <time>2018-09-01T10:31:19Z</time>
      </trkpt>
      <trkpt lat="45.88739" lon="4.61727">
        <ele>222</ele>
        <time>2018-09-01T10:31:20Z</time>
      </trkpt>
      <trkpt lat="45.88736" lon="4.61735">
        <ele>222</ele>
        <time>2018-09-01T10:31:21Z</time>
      </trkpt>
      <trkpt lat="45.88732" lon="4.61742">
        <ele>222</ele>
        <time>2018-09-01T10:31:22Z</time>
      </trkpt>
      <trkpt lat="45.88729" lon="4.6175">
        <ele>222</ele>
        <time>2018-09-01T10:31:23Z</time>
      </trkpt>
      <trkpt lat="45.88727" lon="4.61757">
        <ele>222</ele>
        <time>2018-09-01T10:31:24Z</time>
      </trkpt>
      <trkpt lat="45.88725" lon="4.61766">
        <ele>222</ele>
        <time>2018-09-01T10:31:25Z</time>
      </trkpt>
      <trkpt lat="45.88722" lon="4.61775">
        <ele>222</ele>
        <time>2018-09-01T10:31:26Z</time>
      </trkpt>
      <trkpt lat="45.8872" lon="4.61783">
        <ele>222</ele>
        <time>2018-09-01T10:31:27Z</time>
      </trkpt>
      <trkpt lat="45.88718" lon="4.6179">
        <ele>222</ele>
        <time>2018-09-01T10:31:28Z</time>
      </trkpt>
      <trkpt lat="45.88716" lon="4.61798">
        <ele>222</ele>
        <time>2018-09-01T10:31:29Z</time>
      </trkpt>
      <trkpt lat="45.88714" lon="4.61806">
        <ele>222</ele>
        <time>2018-09-01T10:31:30Z</time>
      </trkpt>
      <trkpt lat="45.88711" lon="4.61813">
        <ele>222</ele>
        <time>2018-09-01T10:31:31Z</time>
      </trkpt>
      <trkpt lat="45.88708" lon="4.61822">
        <ele>222</ele>
        <time>2018-09-01T10:31:32Z</time>
      </trkpt>
      <trkpt lat="45.88705" lon="4.6183">
        <ele>222</ele>
        <time>2018-09-01T10:31:33Z</time>
      </trkpt>
      <trkpt lat="45.88703" lon="4.6184">
        <ele>222</ele>
        <time>2018-09-01T10:31:34Z</time>
      </trkpt>
      <trkpt lat="45.88701" lon="4.61848">
        <ele>222</ele>
        <time>2018-09-01T10:31:35Z</time>
      </trkpt>
      <trkpt lat="45.88699" lon="4.61857">
        <ele>222</ele>
        <time>2018-09-01T10:31:36Z</time>
      </trkpt>
      <trkpt lat="45.88696" lon="4.61865">
        <ele>222</ele>
        <time>2018-09-01T10:31:37Z</time>
      </trkpt>
      <trkpt lat="45.88693" lon="4.61875">
        <ele>222</ele>
        <time>2018-09-01T10:31:38Z</time>
      </trkpt>
      <trkpt lat="45.88691" lon="4.61882">
        <ele>222</ele>
        <time>2018-09-01T10:31:39Z</time>
      </trkpt>
      <trkpt lat="45.88689" lon="4.61893">
        <ele>222</ele>
        <time>2018-09-01T10:31:40Z</time>
      </trkpt>
      <trkpt lat="45.88687" lon="4.61901">
        <ele>222</ele>
        <time>2018-09-01T10:31:41Z</time>
      </trkpt>
      <trkpt lat="45.88685" lon="4.6191">
        <ele>222</ele>
        <time>2018-09-01T10:31:42Z</time>
      </trkpt>
      <trkpt lat="45.88682" lon="4.61918">
        <ele>222</ele>
        <time>2018-09-01T10:31:43Z</time>
      </trkpt>
      <trkpt lat="45.8868" lon="4.61928">
        <ele>222</ele>
        <time>2018-09-01T10:31:44Z</time>
      </trkpt>
      <trkpt lat="45.88678" lon="4.61936">
        <ele>222</ele>
        <time>2018-09-01T10:31:45Z</time>
      </trkpt>
      <trkpt lat="45.88675" lon="4.61944">
        <ele>223</ele>
        <time>2018-09-01T10:31:46Z</time>
      </trkpt>
      <trkpt lat="45.88672" lon="4.61954">
        <ele>223</ele>
        <time>2018-09-01T10:31:47Z</time>
      </trkpt>
      <trkpt lat="45.88669" lon="4.61963">
        <ele>223</ele>
        <time>2018-09-01T10:31:48Z</time>
      </trkpt>
      <trkpt lat="45.88667" lon="4.61971">
        <ele>222</ele>
        <time>2018-09-01T10:31:49Z</time>
      </trkpt>
      <trkpt lat="45.88664" lon="4.61979">
        <ele>222</ele>
        <time>2018-09-01T10:31:50Z</time>
      </trkpt>
      <trkpt lat="45.88662" lon="4.61988">
        <ele>222</ele>
        <time>2018-09-01T10:31:51Z</time>
      </trkpt>
      <trkpt lat="45.88659" lon="4.61996">
        <ele>222</ele>
        <time>2018-09-01T10:31:52Z</time>
      </trkpt>
      <trkpt lat="45.88655" lon="4.62005">
        <ele>222</ele>
        <time>2018-09-01T10:31:53Z</time>
      </trkpt>
      <trkpt lat="45.88653" lon="4.62014">
        <ele>222</ele>
        <time>2018-09-01T10:31:54Z</time>
      </trkpt>
      <trkpt lat="45.8865" lon="4.62023">
        <ele>222</ele>
        <time>2018-09-01T10:31:55Z</time>
      </trkpt>
      <trkpt lat="45.88646" lon="4.62032">
        <ele>223</ele>
        <time>2018-09-01T10:31:56Z</time>
      </trkpt>
      <trkpt lat="45.88643" lon="4.6204">
        <ele>223</ele>
        <time>2018-09-01T10:31:57Z</time>
      </trkpt>
      <trkpt lat="45.88639" lon="4.62048">
        <ele>223</ele>
        <time>2018-09-01T10:31:58Z</time>
      </trkpt>
      <trkpt lat="45.88636" lon="4.62058">
        <ele>223</ele>
        <time>2018-09-01T10:31:59Z</time>
      </trkpt>
      <trkpt lat="45.88633" lon="4.62065">
        <ele>223</ele>
        <time>2018-09-01T10:32:00Z</time>
      </trkpt>
      <trkpt lat="45.8863" lon="4.62074">
        <ele>223</ele>
        <time>2018-09-01T10:32:01Z</time>
      </trkpt>
      <trkpt lat="45.88628" lon="4.62084">
        <ele>223</ele>
        <time>2018-09-01T10:32:02Z</time>
      </trkpt>
      <trkpt lat="45.88624" lon="4.62094">
        <ele>223</ele>
        <time>2018-09-01T10:32:03Z</time>
      </trkpt>
      <trkpt lat="45.88622" lon="4.62102">
        <ele>223</ele>
        <time>2018-09-01T10:32:04Z</time>
      </trkpt>
      <trkpt lat="45.8862" lon="4.62111">
        <ele>223</ele>
        <time>2018-09-01T10:32:05Z</time>
      </trkpt>
      <trkpt lat="45.88617" lon="4.62118">
        <ele>223</ele>
        <time>2018-09-01T10:32:06Z</time>
      </trkpt>
      <trkpt lat="45.88613" lon="4.62126">
        <ele>223</ele>
        <time>2018-09-01T10:32:07Z</time>
      </trkpt>
      <trkpt lat="45.8861" lon="4.62134">
        <ele>223</ele>
        <time>2018-09-01T10:32:08Z</time>
      </trkpt>
      <trkpt lat="45.88608" lon="4.62142">
        <ele>223</ele>
        <time>2018-09-01T10:32:09Z</time>
      </trkpt>
      <trkpt lat="45.88606" lon="4.6215">
        <ele>222</ele>
        <time>2018-09-01T10:32:10Z</time>
      </trkpt>
      <trkpt lat="45.88603" lon="4.62157">
        <ele>222</ele>
        <time>2018-09-01T10:32:11Z</time>
      </trkpt>
      <trkpt lat="45.88601" lon="4.62164">
        <ele>222</ele>
        <time>2018-09-01T10:32:12Z</time>
      </trkpt>
      <trkpt lat="45.88599" lon="4.62171">
        <ele>222</ele>
        <time>2018-09-01T10:32:13Z</time>
      </trkpt>
      <trkpt lat="45.88596" lon="4.62179">
        <ele>222</ele>
        <time>2018-09-01T10:32:14Z</time>
      </trkpt>
      <trkpt lat="45.88594" lon="4.62185">
        <ele>222</ele>
        <time>2018-09-01T10:32:15Z</time>
      </trkpt>
      <trkpt lat="45.88591" lon="4.62192">
        <ele>222</ele>
        <time>2018-09-01T10:32:16Z</time>
      </trkpt>
      <trkpt lat="45.88588" lon="4.62199">
        <ele>222</ele>
        <time>2018-09-01T10:32:17Z</time>
      </trkpt>
      <trkpt lat="45.88584" lon="4.62207">
        <ele>222</ele>
        <time>2018-09-01T10:32:18Z</time>
      </trkpt>
      <trkpt lat="45.8858" lon="4.62215">
        <ele>221</ele>
        <time>2018-09-01T10:32:19Z</time>
      </trkpt>
      <trkpt lat="45.88576" lon="4.62223">
        <ele>221</ele>
        <time>2018-09-01T10:32:20Z</time>
      </trkpt>
      <trkpt lat="45.88574" lon="4.6223">
        <ele>221</ele>
        <time>2018-09-01T10:32:21Z</time>
      </trkpt>
      <trkpt lat="45.8857" lon="4.62238">
        <ele>221</ele>
        <time>2018-09-01T10:32:22Z</time>
      </trkpt>
      <trkpt lat="45.88567" lon="4.62244">
        <ele>221</ele>
        <time>2018-09-01T10:32:23Z</time>
      </trkpt>
      <trkpt lat="45.88563" lon="4.6225">
        <ele>221</ele>
        <time>2018-09-01T10:32:24Z</time>
      </trkpt>
      <trkpt lat="45.8856" lon="4.62258">
        <ele>221</ele>
        <time>2018-09-01T10:32:25Z</time>
      </trkpt>
      <trkpt lat="45.88557" lon="4.62265">
        <ele>221</ele>
        <time>2018-09-01T10:32:26Z</time>
      </trkpt>
      <trkpt lat="45.88554" lon="4.62274">
        <ele>221</ele>
        <time>2018-09-01T10:32:27Z</time>
      </trkpt>
      <trkpt lat="45.88552" lon="4.62283">
        <ele>221</ele>
        <time>2018-09-01T10:32:28Z</time>
      </trkpt>
      <trkpt lat="45.88547" lon="4.6229">
        <ele>221</ele>
        <time>2018-09-01T10:32:29Z</time>
      </trkpt>
      <trkpt lat="45.88543" lon="4.62297">
        <ele>221</ele>
        <time>2018-09-01T10:32:30Z</time>
      </trkpt>
      <trkpt lat="45.8854" lon="4.62305">
        <ele>221</ele>
        <time>2018-09-01T10:32:31Z</time>
      </trkpt>
      <trkpt lat="45.88537" lon="4.62314">
        <ele>221</ele>
        <time>2018-09-01T10:32:32Z</time>
      </trkpt>
      <trkpt lat="45.88533" lon="4.62322">
        <ele>221</ele>
        <time>2018-09-01T10:32:33Z</time>
      </trkpt>
      <trkpt lat="45.8853" lon="4.62331">
        <ele>221</ele>
        <time>2018-09-01T10:32:34Z</time>
      </trkpt>
      <trkpt lat="45.88526" lon="4.6234">
        <ele>220</ele>
        <time>2018-09-01T10:32:35Z</time>
      </trkpt>
      <trkpt lat="45.88523" lon="4.62349">
        <ele>220</ele>
        <time>2018-09-01T10:32:36Z</time>
      </trkpt>
      <trkpt lat="45.88519" lon="4.62359">
        <ele>220</ele>
        <time>2018-09-01T10:32:37Z</time>
      </trkpt>
      <trkpt lat="45.88516" lon="4.62367">
        <ele>220</ele>
        <time>2018-09-01T10:32:38Z</time>
      </trkpt>
      <trkpt lat="45.88513" lon="4.62374">
        <ele>220</ele>
        <time>2018-09-01T10:32:39Z</time>
      </trkpt>
      <trkpt lat="45.8851" lon="4.62383">
        <ele>220</ele>
        <time>2018-09-01T10:32:40Z</time>
      </trkpt>
      <trkpt lat="45.88506" lon="4.62391">
        <ele>220</ele>
        <time>2018-09-01T10:32:41Z</time>
      </trkpt>
      <trkpt lat="45.88504" lon="4.62398">
        <ele>220</ele>
        <time>2018-09-01T10:32:42Z</time>
      </trkpt>
      <trkpt lat="45.88501" lon="4.6241">
        <ele>220</ele>
        <time>2018-09-01T10:32:43Z</time>
      </trkpt>
      <trkpt lat="45.88499" lon="4.62419">
        <ele>220</ele>
        <time>2018-09-01T10:32:44Z</time>
      </trkpt>
      <trkpt lat="45.88496" lon="4.62427">
        <ele>220</ele>
        <time>2018-09-01T10:32:45Z</time>
      </trkpt>
      <trkpt lat="45.88492" lon="4.62435">
        <ele>219</ele>
        <time>2018-09-01T10:32:46Z</time>
      </trkpt>
      <trkpt lat="45.88489" lon="4.62444">
        <ele>219</ele>
        <time>2018-09-01T10:32:47Z</time>
      </trkpt>
      <trkpt lat="45.88486" lon="4.62453">
        <ele>219</ele>
        <time>2018-09-01T10:32:48Z</time>
      </trkpt>
      <trkpt lat="45.88483" lon="4.62461">
        <ele>219</ele>
        <time>2018-09-01T10:32:49Z</time>
      </trkpt>
      <trkpt lat="45.8848" lon="4.62468">
        <ele>219</ele>
        <time>2018-09-01T10:32:50Z</time>
      </trkpt>
      <trkpt lat="45.88478" lon="4.62476">
        <ele>219</ele>
        <time>2018-09-01T10:32:51Z</time>
      </trkpt>
      <trkpt lat="45.88476" lon="4.62485">
        <ele>219</ele>
        <time>2018-09-01T10:32:52Z</time>
      </trkpt>
      <trkpt lat="45.88473" lon="4.62492">
        <ele>219</ele>
        <time>2018-09-01T10:32:53Z</time>
      </trkpt>
      <trkpt lat="45.8847" lon="4.625">
        <ele>219</ele>
        <time>2018-09-01T10:32:54Z</time>
      </trkpt>
      <trkpt lat="45.88466" lon="4.62505">
        <ele>219</ele>
        <time>2018-09-01T10:32:55Z</time>
      </trkpt>
      <trkpt lat="45.88464" lon="4.62514">
        <ele>219</ele>
        <time>2018-09-01T10:32:56Z</time>
      </trkpt>
      <trkpt lat="45.88462" lon="4.62522">
        <ele>219</ele>
        <time>2018-09-01T10:32:57Z</time>
      </trkpt>
      <trkpt lat="45.88459" lon="4.62532">
        <ele>219</ele>
        <time>2018-09-01T10:32:58Z</time>
      </trkpt>
      <trkpt lat="45.88455" lon="4.62539">
        <ele>218</ele>
        <time>2018-09-01T10:32:59Z</time>
      </trkpt>
      <trkpt lat="45.88454" lon="4.62551">
        <ele>218</ele>
        <time>2018-09-01T10:33:00Z</time>
      </trkpt>
      <trkpt lat="45.88451" lon="4.62558">
        <ele>218</ele>
        <time>2018-09-01T10:33:01Z</time>
      </trkpt>
      <trkpt lat="45.88448" lon="4.62568">
        <ele>218</ele>
        <time>2018-09-01T10:33:02Z</time>
      </trkpt>
      <trkpt lat="45.88446" lon="4.62576">
        <ele>218</ele>
        <time>2018-09-01T10:33:03Z</time>
      </trkpt>
      <trkpt lat="45.88443" lon="4.62583">
        <ele>218</ele>
        <time>2018-09-01T10:33:04Z</time>
      </trkpt>
      <trkpt lat="45.8844" lon="4.62592">
        <ele>218</ele>
        <time>2018-09-01T10:33:05Z</time>
      </trkpt>
      <trkpt lat="45.88436" lon="4.626">
        <ele>218</ele>
        <time>2018-09-01T10:33:06Z</time>
      </trkpt>
      <trkpt lat="45.88433" lon="4.62608">
        <ele>218</ele>
        <time>2018-09-01T10:33:07Z</time>
      </trkpt>
      <trkpt lat="45.8843" lon="4.62614">
        <ele>218</ele>
        <time>2018-09-01T10:33:08Z</time>
      </trkpt>
      <trkpt lat="45.88428" lon="4.62622">
        <ele>218</ele>
        <time>2018-09-01T10:33:09Z</time>
      </trkpt>
      <trkpt lat="45.88426" lon="4.6263">
        <ele>219</ele>
        <time>2018-09-01T10:33:10Z</time>
      </trkpt>
      <trkpt lat="45.88422" lon="4.62637">
        <ele>219</ele>
        <time>2018-09-01T10:33:11Z</time>
      </trkpt>
      <trkpt lat="45.88419" lon="4.62645">
        <ele>219</ele>
        <time>2018-09-01T10:33:12Z</time>
      </trkpt>
      <trkpt lat="45.88415" lon="4.62653">
        <ele>218</ele>
        <time>2018-09-01T10:33:13Z</time>
      </trkpt>
      <trkpt lat="45.88412" lon="4.62661">
        <ele>219</ele>
        <time>2018-09-01T10:33:14Z</time>
      </trkpt>
      <trkpt lat="45.88409" lon="4.62669">
        <ele>219</ele>
        <time>2018-09-01T10:33:15Z</time>
      </trkpt>
      <trkpt lat="45.88406" lon="4.62676">
        <ele>218</ele>
        <time>2018-09-01T10:33:16Z</time>
      </trkpt>
      <trkpt lat="45.88404" lon="4.62684">
        <ele>218</ele>
        <time>2018-09-01T10:33:17Z</time>
      </trkpt>
      <trkpt lat="45.88401" lon="4.62691">
        <ele>218</ele>
        <time>2018-09-01T10:33:18Z</time>
      </trkpt>
      <trkpt lat="45.88399" lon="4.62701">
        <ele>218</ele>
        <time>2018-09-01T10:33:19Z</time>
      </trkpt>
      <trkpt lat="45.88396" lon="4.62708">
        <ele>218</ele>
        <time>2018-09-01T10:33:20Z</time>
      </trkpt>
      <trkpt lat="45.88392" lon="4.62717">
        <ele>218</ele>
        <time>2018-09-01T10:33:21Z</time>
      </trkpt>
      <trkpt lat="45.88389" lon="4.62724">
        <ele>218</ele>
        <time>2018-09-01T10:33:22Z</time>
      </trkpt>
      <trkpt lat="45.88386" lon="4.6273">
        <ele>218</ele>
        <time>2018-09-01T10:33:23Z</time>
      </trkpt>
      <trkpt lat="45.88382" lon="4.62737">
        <ele>218</ele>
        <time>2018-09-01T10:33:24Z</time>
      </trkpt>
      <trkpt lat="45.88379" lon="4.62745">
        <ele>218</ele>
        <time>2018-09-01T10:33:25Z</time>
      </trkpt>
      <trkpt lat="45.88375" lon="4.62752">
        <ele>218</ele>
        <time>2018-09-01T10:33:26Z</time>
      </trkpt>
      <trkpt lat="45.88371" lon="4.62759">
        <ele>218</ele>
        <time>2018-09-01T10:33:27Z</time>
      </trkpt>
      <trkpt lat="45.88367" lon="4.62766">
        <ele>218</ele>
        <time>2018-09-01T10:33:28Z</time>
      </trkpt>
      <trkpt lat="45.88363" lon="4.62773">
        <ele>218</ele>
        <time>2018-09-01T10:33:29Z</time>
      </trkpt>
      <trkpt lat="45.88359" lon="4.62778">
        <ele>218</ele>
        <time>2018-09-01T10:33:30Z</time>
      </trkpt>
      <trkpt lat="45.88356" lon="4.62787">
        <ele>218</ele>
        <time>2018-09-01T10:33:31Z</time>
      </trkpt>
      <trkpt lat="45.88352" lon="4.62794">
        <ele>218</ele>
        <time>2018-09-01T10:33:32Z</time>
      </trkpt>
      <trkpt lat="45.88348" lon="4.62799">
        <ele>218</ele>
        <time>2018-09-01T10:33:33Z</time>
      </trkpt>
      <trkpt lat="45.88345" lon="4.62804">
        <ele>218</ele>
        <time>2018-09-01T10:33:34Z</time>
      </trkpt>
      <trkpt lat="45.88342" lon="4.6281">
        <ele>218</ele>
        <time>2018-09-01T10:33:35Z</time>
      </trkpt>
      <trkpt lat="45.88339" lon="4.62817">
        <ele>218</ele>
        <time>2018-09-01T10:33:36Z</time>
      </trkpt>
      <trkpt lat="45.88336" lon="4.62822">
        <ele>219</ele>
        <time>2018-09-01T10:33:37Z</time>
      </trkpt>
      <trkpt lat="45.88332" lon="4.62828">
        <ele>219</ele>
        <time>2018-09-01T10:33:38Z</time>
      </trkpt>
      <trkpt lat="45.88328" lon="4.62833">
        <ele>219</ele>
        <time>2018-09-01T10:33:39Z</time>
      </trkpt>
      <trkpt lat="45.88324" lon="4.62839">
        <ele>219</ele>
        <time>2018-09-01T10:33:40Z</time>
      </trkpt>
      <trkpt lat="45.88321" lon="4.62846">
        <ele>218</ele>
        <time>2018-09-01T10:33:41Z</time>
      </trkpt>
      <trkpt lat="45.88317" lon="4.62852">
        <ele>218</ele>
        <time>2018-09-01T10:33:42Z</time>
      </trkpt>
      <trkpt lat="45.88313" lon="4.62858">
        <ele>218</ele>
        <time>2018-09-01T10:33:43Z</time>
      </trkpt>
      <trkpt lat="45.88308" lon="4.62862">
        <ele>218</ele>
        <time>2018-09-01T10:33:44Z</time>
      </trkpt>
      <trkpt lat="45.88304" lon="4.62869">
        <ele>218</ele>
        <time>2018-09-01T10:33:45Z</time>
      </trkpt>
      <trkpt lat="45.88299" lon="4.62875">
        <ele>218</ele>
        <time>2018-09-01T10:33:46Z</time>
      </trkpt>
      <trkpt lat="45.88295" lon="4.62881">
        <ele>218</ele>
        <time>2018-09-01T10:33:47Z</time>
      </trkpt>
      <trkpt lat="45.88291" lon="4.62888">
        <ele>218</ele>
        <time>2018-09-01T10:33:48Z</time>
      </trkpt>
      <trkpt lat="45.88286" lon="4.62892">
        <ele>218</ele>
        <time>2018-09-01T10:33:49Z</time>
      </trkpt>
      <trkpt lat="45.88284" lon="4.62901">
        <ele>218</ele>
        <time>2018-09-01T10:33:50Z</time>
      </trkpt>
      <trkpt lat="45.88281" lon="4.62908">
        <ele>218</ele>
        <time>2018-09-01T10:33:51Z</time>
      </trkpt>
      <trkpt lat="45.88275" lon="4.62916">
        <ele>217</ele>
        <time>2018-09-01T10:33:53Z</time>
      </trkpt>
      <trkpt lat="45.88271" lon="4.62922">
        <ele>217</ele>
        <time>2018-09-01T10:33:54Z</time>
      </trkpt>
      <trkpt lat="45.88268" lon="4.62929">
        <ele>217</ele>
        <time>2018-09-01T10:33:55Z</time>
      </trkpt>
      <trkpt lat="45.88264" lon="4.62936">
        <ele>217</ele>
        <time>2018-09-01T10:33:56Z</time>
      </trkpt>
      <trkpt lat="45.88261" lon="4.62941">
        <ele>217</ele>
        <time>2018-09-01T10:33:57Z</time>
      </trkpt>
      <trkpt lat="45.88257" lon="4.62948">
        <ele>217</ele>
        <time>2018-09-01T10:33:58Z</time>
      </trkpt>
      <trkpt lat="45.88253" lon="4.62955">
        <ele>217</ele>
        <time>2018-09-01T10:33:59Z</time>
      </trkpt>
      <trkpt lat="45.8825" lon="4.62961">
        <ele>217</ele>
        <time>2018-09-01T10:34:00Z</time>
      </trkpt>
      <trkpt lat="45.88246" lon="4.62968">
        <ele>217</ele>
        <time>2018-09-01T10:34:01Z</time>
      </trkpt>
      <trkpt lat="45.88244" lon="4.62975">
        <ele>217</ele>
        <time>2018-09-01T10:34:02Z</time>
      </trkpt>
      <trkpt lat="45.88241" lon="4.62986">
        <ele>217</ele>
        <time>2018-09-01T10:34:04Z</time>
      </trkpt>
      <trkpt lat="45.88238" lon="4.62992">
        <ele>217</ele>
        <time>2018-09-01T10:34:05Z</time>
      </trkpt>
      <trkpt lat="45.88236" lon="4.62998">
        <ele>217</ele>
        <time>2018-09-01T10:34:06Z</time>
      </trkpt>
      <trkpt lat="45.88232" lon="4.63004">
        <ele>217</ele>
        <time>2018-09-01T10:34:07Z</time>
      </trkpt>
      <trkpt lat="45.88229" lon="4.63009">
        <ele>217</ele>
        <time>2018-09-01T10:34:08Z</time>
      </trkpt>
      <trkpt lat="45.88226" lon="4.63016">
        <ele>217</ele>
        <time>2018-09-01T10:34:09Z</time>
      </trkpt>
      <trkpt lat="45.88223" lon="4.63023">
        <ele>217</ele>
        <time>2018-09-01T10:34:10Z</time>
      </trkpt>
      <trkpt lat="45.8822" lon="4.6303">
        <ele>217</ele>
        <time>2018-09-01T10:34:11Z</time>
      </trkpt>
      <trkpt lat="45.88218" lon="4.63036">
        <ele>217</ele>
        <time>2018-09-01T10:34:12Z</time>
      </trkpt>
      <trkpt lat="45.88214" lon="4.63044">
        <ele>217</ele>
        <time>2018-09-01T10:34:13Z</time>
      </trkpt>
      <trkpt lat="45.88212" lon="4.63051">
        <ele>217</ele>
        <time>2018-09-01T10:34:14Z</time>
      </trkpt>
      <trkpt lat="45.8821" lon="4.63057">
        <ele>217</ele>
        <time>2018-09-01T10:34:15Z</time>
      </trkpt>
      <trkpt lat="45.88207" lon="4.63064">
        <ele>217</ele>
        <time>2018-09-01T10:34:16Z</time>
      </trkpt>
      <trkpt lat="45.88205" lon="4.63072">
        <ele>217</ele>
        <time>2018-09-01T10:34:17Z</time>
      </trkpt>
      <trkpt lat="45.88202" lon="4.6308">
        <ele>217</ele>
        <time>2018-09-01T10:34:18Z</time>
      </trkpt>
      <trkpt lat="45.88199" lon="4.63087">
        <ele>217</ele>
        <time>2018-09-01T10:34:19Z</time>
      </trkpt>
      <trkpt lat="45.88197" lon="4.63094">
        <ele>217</ele>
        <time>2018-09-01T10:34:20Z</time>
      </trkpt>
      <trkpt lat="45.88194" lon="4.63101">
        <ele>217</ele>
        <time>2018-09-01T10:34:21Z</time>
      </trkpt>
      <trkpt lat="45.88193" lon="4.6311">
        <ele>217</ele>
        <time>2018-09-01T10:34:22Z</time>
      </trkpt>
      <trkpt lat="45.8819" lon="4.63118">
        <ele>217</ele>
        <time>2018-09-01T10:34:23Z</time>
      </trkpt>
      <trkpt lat="45.88188" lon="4.63126">
        <ele>217</ele>
        <time>2018-09-01T10:34:24Z</time>
      </trkpt>
      <trkpt lat="45.88186" lon="4.63132">
        <ele>217</ele>
        <time>2018-09-01T10:34:25Z</time>
      </trkpt>
      <trkpt lat="45.88184" lon="4.63141">
        <ele>217</ele>
        <time>2018-09-01T10:34:26Z</time>
      </trkpt>
      <trkpt lat="45.88183" lon="4.63148">
        <ele>217</ele>
        <time>2018-09-01T10:34:27Z</time>
      </trkpt>
      <trkpt lat="45.88181" lon="4.63156">
        <ele>217</ele>
        <time>2018-09-01T10:34:28Z</time>
      </trkpt>
      <trkpt lat="45.88179" lon="4.63163">
        <ele>217</ele>
        <time>2018-09-01T10:34:29Z</time>
      </trkpt>
      <trkpt lat="45.88178" lon="4.6317">
        <ele>217</ele>
        <time>2018-09-01T10:34:30Z</time>
      </trkpt>
      <trkpt lat="45.88177" lon="4.63177">
        <ele>217</ele>
        <time>2018-09-01T10:34:31Z</time>
      </trkpt>
      <trkpt lat="45.88176" lon="4.63185">
        <ele>217</ele>
        <time>2018-09-01T10:34:32Z</time>
      </trkpt>
      <trkpt lat="45.88174" lon="4.63193">
        <ele>217</ele>
        <time>2018-09-01T10:34:33Z</time>
      </trkpt>
      <trkpt lat="45.88173" lon="4.63201">
        <ele>217</ele>
        <time>2018-09-01T10:34:34Z</time>
      </trkpt>
      <trkpt lat="45.88172" lon="4.6321">
        <ele>217</ele>
        <time>2018-09-01T10:34:35Z</time>
      </trkpt>
      <trkpt lat="45.8817" lon="4.63218">
        <ele>217</ele>
        <time>2018-09-01T10:34:36Z</time>
      </trkpt>
      <trkpt lat="45.88168" lon="4.63225">
        <ele>216</ele>
        <time>2018-09-01T10:34:37Z</time>
      </trkpt>
      <trkpt lat="45.88167" lon="4.63234">
        <ele>216</ele>
        <time>2018-09-01T10:34:38Z</time>
      </trkpt>
      <trkpt lat="45.88165" lon="4.63242">
        <ele>217</ele>
        <time>2018-09-01T10:34:39Z</time>
      </trkpt>
      <trkpt lat="45.88163" lon="4.6325">
        <ele>216</ele>
        <time>2018-09-01T10:34:40Z</time>
      </trkpt>
      <trkpt lat="45.88162" lon="4.63257">
        <ele>216</ele>
        <time>2018-09-01T10:34:41Z</time>
      </trkpt>
      <trkpt lat="45.8816" lon="4.63265">
        <ele>216</ele>
        <time>2018-09-01T10:34:42Z</time>
      </trkpt>
      <trkpt lat="45.88159" lon="4.63273">
        <ele>216</ele>
        <time>2018-09-01T10:34:43Z</time>
      </trkpt>
      <trkpt lat="45.88158" lon="4.6328">
        <ele>217</ele>
        <time>2018-09-01T10:34:44Z</time>
      </trkpt>
      <trkpt lat="45.88157" lon="4.63288">
        <ele>217</ele>
        <time>2018-09-01T10:34:45Z</time>
      </trkpt>
      <trkpt lat="45.88155" lon="4.63295">
        <ele>216</ele>
        <time>2018-09-01T10:34:46Z</time>
      </trkpt>
      <trkpt lat="45.88154" lon="4.63303">
        <ele>216</ele>
        <time>2018-09-01T10:34:47Z</time>
      </trkpt>
      <trkpt lat="45.88152" lon="4.63309">
        <ele>216</ele>
        <time>2018-09-01T10:34:48Z</time>
      </trkpt>
      <trkpt lat="45.8815" lon="4.63317">
        <ele>216</ele>
        <time>2018-09-01T10:34:49Z</time>
      </trkpt>
      <trkpt lat="45.88148" lon="4.63325">
        <ele>216</ele>
        <time>2018-09-01T10:34:50Z</time>
      </trkpt>
      <trkpt lat="45.88146" lon="4.63334">
        <ele>216</ele>
        <time>2018-09-01T10:34:51Z</time>
      </trkpt>
      <trkpt lat="45.88144" lon="4.63343">
        <ele>216</ele>
        <time>2018-09-01T10:34:52Z</time>
      </trkpt>
      <trkpt lat="45.88142" lon="4.6335">
        <ele>216</ele>
        <time>2018-09-01T10:34:53Z</time>
      </trkpt>
      <trkpt lat="45.88141" lon="4.63359">
        <ele>216</ele>
        <time>2018-09-01T10:34:54Z</time>
      </trkpt>
      <trkpt lat="45.88138" lon="4.63367">
        <ele>216</ele>
        <time>2018-09-01T10:34:55Z</time>
      </trkpt>
      <trkpt lat="45.88137" lon="4.63377">
        <ele>216</ele>
        <time>2018-09-01T10:34:56Z</time>
      </trkpt>
      <trkpt lat="45.88136" lon="4.63385">
        <ele>216</ele>
        <time>2018-09-01T10:34:57Z</time>
      </trkpt>
      <trkpt lat="45.88134" lon="4.63393">
        <ele>216</ele>
        <time>2018-09-01T10:34:58Z</time>
      </trkpt>
      <trkpt lat="45.88133" lon="4.63401">
        <ele>216</ele>
        <time>2018-09-01T10:34:59Z</time>
      </trkpt>
      <trkpt lat="45.88131" lon="4.63408">
        <ele>216</ele>
        <time>2018-09-01T10:35:00Z</time>
      </trkpt>
      <trkpt lat="45.88129" lon="4.63415">
        <ele>216</ele>
        <time>2018-09-01T10:35:01Z</time>
      </trkpt>
      <trkpt lat="45.88128" lon="4.63423">
        <ele>216</ele>
        <time>2018-09-01T10:35:02Z</time>
      </trkpt>
      <trkpt lat="45.88126" lon="4.63432">
        <ele>216</ele>
        <time>2018-09-01T10:35:03Z</time>
      </trkpt>
      <trkpt lat="45.88124" lon="4.63439">
        <ele>216</ele>
        <time>2018-09-01T10:35:04Z</time>
      </trkpt>
      <trkpt lat="45.88122" lon="4.63448">
        <ele>216</ele>
        <time>2018-09-01T10:35:05Z</time>
      </trkpt>
      <trkpt lat="45.8812" lon="4.63456">
        <ele>217</ele>
        <time>2018-09-01T10:35:06Z</time>
      </trkpt>
      <trkpt lat="45.88118" lon="4.63463">
        <ele>217</ele>
        <time>2018-09-01T10:35:07Z</time>
      </trkpt>
      <trkpt lat="45.88116" lon="4.63471">
        <ele>217</ele>
        <time>2018-09-01T10:35:08Z</time>
      </trkpt>
      <trkpt lat="45.88115" lon="4.6348">
        <ele>217</ele>
        <time>2018-09-01T10:35:09Z</time>
      </trkpt>
      <trkpt lat="45.88113" lon="4.63488">
        <ele>217</ele>
        <time>2018-09-01T10:35:10Z</time>
      </trkpt>
      <trkpt lat="45.8811" lon="4.63495">
        <ele>217</ele>
        <time>2018-09-01T10:35:11Z</time>
      </trkpt>
      <trkpt lat="45.88108" lon="4.63504">
        <ele>217</ele>
        <time>2018-09-01T10:35:12Z</time>
      </trkpt>
      <trkpt lat="45.88105" lon="4.63513">
        <ele>217</ele>
        <time>2018-09-01T10:35:13Z</time>
      </trkpt>
      <trkpt lat="45.88104" lon="4.6352">
        <ele>217</ele>
        <time>2018-09-01T10:35:14Z</time>
      </trkpt>
      <trkpt lat="45.88102" lon="4.63527">
        <ele>217</ele>
        <time>2018-09-01T10:35:15Z</time>
      </trkpt>
      <trkpt lat="45.88099" lon="4.63533">
        <ele>216</ele>
        <time>2018-09-01T10:35:16Z</time>
      </trkpt>
      <trkpt lat="45.88097" lon="4.63541">
        <ele>216</ele>
        <time>2018-09-01T10:35:17Z</time>
      </trkpt>
      <trkpt lat="45.88094" lon="4.6355">
        <ele>216</ele>
        <time>2018-09-01T10:35:18Z</time>
      </trkpt>
      <trkpt lat="45.88092" lon="4.63559">
        <ele>216</ele>
        <time>2018-09-01T10:35:19Z</time>
      </trkpt>
      <trkpt lat="45.88089" lon="4.63568">
        <ele>216</ele>
        <time>2018-09-01T10:35:20Z</time>
      </trkpt>
      <trkpt lat="45.88086" lon="4.63576">
        <ele>216</ele>
        <time>2018-09-01T10:35:21Z</time>
      </trkpt>
      <trkpt lat="45.88084" lon="4.63583">
        <ele>216</ele>
        <time>2018-09-01T10:35:22Z</time>
      </trkpt>
      <trkpt lat="45.88081" lon="4.63592">
        <ele>216</ele>
        <time>2018-09-01T10:35:23Z</time>
      </trkpt>
      <trkpt lat="45.88078" lon="4.636">
        <ele>216</ele>
        <time>2018-09-01T10:35:24Z</time>
      </trkpt>
      <trkpt lat="45.88076" lon="4.63609">
        <ele>216</ele>
        <time>2018-09-01T10:35:25Z</time>
      </trkpt>
      <trkpt lat="45.88073" lon="4.63616">
        <ele>216</ele>
        <time>2018-09-01T10:35:26Z</time>
      </trkpt>
      <trkpt lat="45.8807" lon="4.63625">
        <ele>216</ele>
        <time>2018-09-01T10:35:27Z</time>
      </trkpt>
      <trkpt lat="45.88065" lon="4.63632">
        <ele>215</ele>
        <time>2018-09-01T10:35:28Z</time>
      </trkpt>
      <trkpt lat="45.88061" lon="4.6364">
        <ele>215</ele>
        <time>2018-09-01T10:35:29Z</time>
      </trkpt>
      <trkpt lat="45.88056" lon="4.63644">
        <ele>215</ele>
        <time>2018-09-01T10:35:30Z</time>
      </trkpt>
      <trkpt lat="45.88053" lon="4.63652">
        <ele>215</ele>
        <time>2018-09-01T10:35:31Z</time>
      </trkpt>
      <trkpt lat="45.8805" lon="4.63662">
        <ele>215</ele>
        <time>2018-09-01T10:35:32Z</time>
      </trkpt>
      <trkpt lat="45.88046" lon="4.63669">
        <ele>214</ele>
        <time>2018-09-01T10:35:33Z</time>
      </trkpt>
      <trkpt lat="45.88041" lon="4.63676">
        <ele>214</ele>
        <time>2018-09-01T10:35:34Z</time>
      </trkpt>
      <trkpt lat="45.88037" lon="4.63684">
        <ele>214</ele>
        <time>2018-09-01T10:35:35Z</time>
      </trkpt>
      <trkpt lat="45.88032" lon="4.63691">
        <ele>214</ele>
        <time>2018-09-01T10:35:36Z</time>
      </trkpt>
      <trkpt lat="45.88028" lon="4.63699">
        <ele>214</ele>
        <time>2018-09-01T10:35:37Z</time>
      </trkpt>
      <trkpt lat="45.88024" lon="4.63705">
        <ele>214</ele>
        <time>2018-09-01T10:35:38Z</time>
      </trkpt>
      <trkpt lat="45.88018" lon="4.63713">
        <ele>214</ele>
        <time>2018-09-01T10:35:39Z</time>
      </trkpt>
      <trkpt lat="45.88014" lon="4.6372">
        <ele>214</ele>
        <time>2018-09-01T10:35:40Z</time>
      </trkpt>
      <trkpt lat="45.88009" lon="4.63728">
        <ele>214</ele>
        <time>2018-09-01T10:35:41Z</time>
      </trkpt>
      <trkpt lat="45.88004" lon="4.63737">
        <ele>213</ele>
        <time>2018-09-01T10:35:42Z</time>
      </trkpt>
      <trkpt lat="45.88" lon="4.63743">
        <ele>213</ele>
        <time>2018-09-01T10:35:43Z</time>
      </trkpt>
      <trkpt lat="45.87998" lon="4.63751">
        <ele>213</ele>
        <time>2018-09-01T10:35:44Z</time>
      </trkpt>
      <trkpt lat="45.87994" lon="4.63758">
        <ele>213</ele>
        <time>2018-09-01T10:35:45Z</time>
      </trkpt>
      <trkpt lat="45.8799" lon="4.63764">
        <ele>213</ele>
        <time>2018-09-01T10:35:46Z</time>
      </trkpt>
      <trkpt lat="45.87986" lon="4.6377">
        <ele>213</ele>
        <time>2018-09-01T10:35:47Z</time>
      </trkpt>
      <trkpt lat="45.87982" lon="4.63778">
        <ele>213</ele>
        <time>2018-09-01T10:35:48Z</time>
      </trkpt>
      <trkpt lat="45.87978" lon="4.63784">
        <ele>213</ele>
        <time>2018-09-01T10:35:49Z</time>
      </trkpt>
      <trkpt lat="45.87974" lon="4.63789">
        <ele>213</ele>
        <time>2018-09-01T10:35:50Z</time>
      </trkpt>
      <trkpt lat="45.87971" lon="4.63796">
        <ele>213</ele>
        <time>2018-09-01T10:35:51Z</time>
      </trkpt>
      <trkpt lat="45.87966" lon="4.63803">
        <ele>213</ele>
        <time>2018-09-01T10:35:52Z</time>
      </trkpt>
      <trkpt lat="45.87963" lon="4.6381">
        <ele>213</ele>
        <time>2018-09-01T10:35:53Z</time>
      </trkpt>
      <trkpt lat="45.87959" lon="4.63817">
        <ele>213</ele>
        <time>2018-09-01T10:35:54Z</time>
      </trkpt>
      <trkpt lat="45.87954" lon="4.63824">
        <ele>213</ele>
        <time>2018-09-01T10:35:55Z</time>
      </trkpt>
      <trkpt lat="45.87949" lon="4.63832">
        <ele>213</ele>
        <time>2018-09-01T10:35:56Z</time>
      </trkpt>
      <trkpt lat="45.87945" lon="4.6384">
        <ele>213</ele>
        <time>2018-09-01T10:35:57Z</time>
      </trkpt>
      <trkpt lat="45.8794" lon="4.63847">
        <ele>213</ele>
        <time>2018-09-01T10:35:58Z</time>
      </trkpt>
      <trkpt lat="45.87935" lon="4.6385">
        <ele>213</ele>
        <time>2018-09-01T10:35:59Z</time>
      </trkpt>
      <trkpt lat="45.87931" lon="4.63857">
        <ele>213</ele>
        <time>2018-09-01T10:36:00Z</time>
      </trkpt>
      <trkpt lat="45.87927" lon="4.63867">
        <ele>213</ele>
        <time>2018-09-01T10:36:01Z</time>
      </trkpt>
      <trkpt lat="45.87923" lon="4.63873">
        <ele>213</ele>
        <time>2018-09-01T10:36:02Z</time>
      </trkpt>
      <trkpt lat="45.87919" lon="4.63879">
        <ele>213</ele>
        <time>2018-09-01T10:36:03Z</time>
      </trkpt>
      <trkpt lat="45.87915" lon="4.63887">
        <ele>213</ele>
        <time>2018-09-01T10:36:04Z</time>
      </trkpt>
      <trkpt lat="45.8791" lon="4.63894">
        <ele>213</ele>
        <time>2018-09-01T10:36:05Z</time>
      </trkpt>
      <trkpt lat="45.87906" lon="4.63905">
        <ele>213</ele>
        <time>2018-09-01T10:36:06Z</time>
      </trkpt>
      <trkpt lat="45.87901" lon="4.63911">
        <ele>213</ele>
        <time>2018-09-01T10:36:07Z</time>
      </trkpt>
      <trkpt lat="45.87897" lon="4.63918">
        <ele>213</ele>
        <time>2018-09-01T10:36:08Z</time>
      </trkpt>
      <trkpt lat="45.87894" lon="4.63924">
        <ele>213</ele>
        <time>2018-09-01T10:36:09Z</time>
      </trkpt>
      <trkpt lat="45.8789" lon="4.63927">
        <ele>212</ele>
        <time>2018-09-01T10:36:10Z</time>
      </trkpt>
      <trkpt lat="45.87886" lon="4.63932">
        <ele>212</ele>
        <time>2018-09-01T10:36:11Z</time>
      </trkpt>
      <trkpt lat="45.87882" lon="4.63938">
        <ele>212</ele>
        <time>2018-09-01T10:36:12Z</time>
      </trkpt>
      <trkpt lat="45.87877" lon="4.63944">
        <ele>212</ele>
        <time>2018-09-01T10:36:13Z</time>
      </trkpt>
      <trkpt lat="45.87874" lon="4.63952">
        <ele>212</ele>
        <time>2018-09-01T10:36:14Z</time>
      </trkpt>
      <trkpt lat="45.8787" lon="4.63959">
        <ele>212</ele>
        <time>2018-09-01T10:36:15Z</time>
      </trkpt>
      <trkpt lat="45.87867" lon="4.63967">
        <ele>212</ele>
        <time>2018-09-01T10:36:16Z</time>
      </trkpt>
      <trkpt lat="45.87863" lon="4.63974">
        <ele>212</ele>
        <time>2018-09-01T10:36:17Z</time>
      </trkpt>
      <trkpt lat="45.87859" lon="4.63981">
        <ele>212</ele>
        <time>2018-09-01T10:36:18Z</time>
      </trkpt>
      <trkpt lat="45.87854" lon="4.63987">
        <ele>212</ele>
        <time>2018-09-01T10:36:19Z</time>
      </trkpt>
      <trkpt lat="45.8785" lon="4.63994">
        <ele>212</ele>
        <time>2018-09-01T10:36:20Z</time>
      </trkpt>
      <trkpt lat="45.87847" lon="4.64003">
        <ele>212</ele>
        <time>2018-09-01T10:36:21Z</time>
      </trkpt>
      <trkpt lat="45.87843" lon="4.64009">
        <ele>212</ele>
        <time>2018-09-01T10:36:22Z</time>
      </trkpt>
      <trkpt lat="45.8784" lon="4.64016">
        <ele>213</ele>
        <time>2018-09-01T10:36:23Z</time>
      </trkpt>
      <trkpt lat="45.87835" lon="4.64024">
        <ele>213</ele>
        <time>2018-09-01T10:36:24Z</time>
      </trkpt>
      <trkpt lat="45.87831" lon="4.64031">
        <ele>213</ele>
        <time>2018-09-01T10:36:25Z</time>
      </trkpt>
      <trkpt lat="45.87827" lon="4.64036">
        <ele>213</ele>
        <time>2018-09-01T10:36:26Z</time>
      </trkpt>
      <trkpt lat="45.87823" lon="4.64041">
        <ele>213</ele>
        <time>2018-09-01T10:36:27Z</time>
      </trkpt>
      <trkpt lat="45.87818" lon="4.64048">
        <ele>214</ele>
        <time>2018-09-01T10:36:28Z</time>
      </trkpt>
      <trkpt lat="45.87814" lon="4.64055">
        <ele>214</ele>
        <time>2018-09-01T10:36:29Z</time>
      </trkpt>
      <trkpt lat="45.8781" lon="4.64063">
        <ele>214</ele>
        <time>2018-09-01T10:36:30Z</time>
      </trkpt>
      <trkpt lat="45.87806" lon="4.64069">
        <ele>214</ele>
        <time>2018-09-01T10:36:31Z</time>
      </trkpt>
      <trkpt lat="45.87803" lon="4.64075">
        <ele>214</ele>
        <time>2018-09-01T10:36:32Z</time>
      </trkpt>
      <trkpt lat="45.87799" lon="4.64081">
        <ele>214</ele>
        <time>2018-09-01T10:36:33Z</time>
      </trkpt>
      <trkpt lat="45.87795" lon="4.64089">
        <ele>215</ele>
        <time>2018-09-01T10:36:34Z</time>
      </trkpt>
      <trkpt lat="45.87791" lon="4.64095">
        <ele>215</ele>
        <time>2018-09-01T10:36:35Z</time>
      </trkpt>
      <trkpt lat="45.87786" lon="4.64101">
        <ele>215</ele>
        <time>2018-09-01T10:36:36Z</time>
      </trkpt>
      <trkpt lat="45.87782" lon="4.64106">
        <ele>215</ele>
        <time>2018-09-01T10:36:37Z</time>
      </trkpt>
      <trkpt lat="45.87778" lon="4.64114">
        <ele>215</ele>
        <time>2018-09-01T10:36:38Z</time>
      </trkpt>
      <trkpt lat="45.87774" lon="4.64121">
        <ele>215</ele>
        <time>2018-09-01T10:36:39Z</time>
      </trkpt>
      <trkpt lat="45.87769" lon="4.64127">
        <ele>215</ele>
        <time>2018-09-01T10:36:40Z</time>
      </trkpt>
      <trkpt lat="45.87765" lon="4.64133">
        <ele>215</ele>
        <time>2018-09-01T10:36:41Z</time>
      </trkpt>
      <trkpt lat="45.87761" lon="4.6414">
        <ele>215</ele>
        <time>2018-09-01T10:36:42Z</time>
      </trkpt>
      <trkpt lat="45.87757" lon="4.64147">
        <ele>215</ele>
        <time>2018-09-01T10:36:43Z</time>
      </trkpt>
      <trkpt lat="45.87753" lon="4.64153">
        <ele>214</ele>
        <time>2018-09-01T10:36:44Z</time>
      </trkpt>
      <trkpt lat="45.8775" lon="4.64159">
        <ele>214</ele>
        <time>2018-09-01T10:36:45Z</time>
      </trkpt>
      <trkpt lat="45.87746" lon="4.64164">
        <ele>214</ele>
        <time>2018-09-01T10:36:46Z</time>
      </trkpt>
      <trkpt lat="45.87742" lon="4.64169">
        <ele>213</ele>
        <time>2018-09-01T10:36:47Z</time>
      </trkpt>
      <trkpt lat="45.87739" lon="4.64174">
        <ele>213</ele>
        <time>2018-09-01T10:36:48Z</time>
      </trkpt>
      <trkpt lat="45.87735" lon="4.64181">
        <ele>213</ele>
        <time>2018-09-01T10:36:49Z</time>
      </trkpt>
      <trkpt lat="45.87732" lon="4.64187">
        <ele>212</ele>
        <time>2018-09-01T10:36:50Z</time>
      </trkpt>
      <trkpt lat="45.87728" lon="4.64195">
        <ele>212</ele>
        <time>2018-09-01T10:36:51Z</time>
      </trkpt>
      <trkpt lat="45.87724" lon="4.642">
        <ele>212</ele>
        <time>2018-09-01T10:36:52Z</time>
      </trkpt>
      <trkpt lat="45.8772" lon="4.64207">
        <ele>212</ele>
        <time>2018-09-01T10:36:53Z</time>
      </trkpt>
      <trkpt lat="45.87717" lon="4.64214">
        <ele>212</ele>
        <time>2018-09-01T10:36:54Z</time>
      </trkpt>
      <trkpt lat="45.87712" lon="4.64218">
        <ele>211</ele>
        <time>2018-09-01T10:36:55Z</time>
      </trkpt>
      <trkpt lat="45.87708" lon="4.64224">
        <ele>211</ele>
        <time>2018-09-01T10:36:56Z</time>
      </trkpt>
      <trkpt lat="45.87705" lon="4.64231">
        <ele>211</ele>
        <time>2018-09-01T10:36:57Z</time>
      </trkpt>
      <trkpt lat="45.87702" lon="4.64237">
        <ele>211</ele>
        <time>2018-09-01T10:36:58Z</time>
      </trkpt>
      <trkpt lat="45.87698" lon="4.64244">
        <ele>211</ele>
        <time>2018-09-01T10:36:59Z</time>
      </trkpt>
      <trkpt lat="45.87694" lon="4.6425">
        <ele>210</ele>
        <time>2018-09-01T10:37:00Z</time>
      </trkpt>
      <trkpt lat="45.87691" lon="4.64257">
        <ele>210</ele>
        <time>2018-09-01T10:37:01Z</time>
      </trkpt>
      <trkpt lat="45.87687" lon="4.64263">
        <ele>210</ele>
        <time>2018-09-01T10:37:02Z</time>
      </trkpt>
      <trkpt lat="45.87683" lon="4.6427">
        <ele>210</ele>
        <time>2018-09-01T10:37:03Z</time>
      </trkpt>
      <trkpt lat="45.87678" lon="4.64276">
        <ele>210</ele>
        <time>2018-09-01T10:37:04Z</time>
      </trkpt>
      <trkpt lat="45.87674" lon="4.64282">
        <ele>210</ele>
        <time>2018-09-01T10:37:05Z</time>
      </trkpt>
      <trkpt lat="45.8767" lon="4.64288">
        <ele>210</ele>
        <time>2018-09-01T10:37:06Z</time>
      </trkpt>
      <trkpt lat="45.87666" lon="4.64295">
        <ele>210</ele>
        <time>2018-09-01T10:37:07Z</time>
      </trkpt>
      <trkpt lat="45.87661" lon="4.64302">
        <ele>210</ele>
        <time>2018-09-01T10:37:08Z</time>
      </trkpt>
      <trkpt lat="45.87657" lon="4.64309">
        <ele>210</ele>
        <time>2018-09-01T10:37:09Z</time>
      </trkpt>
      <trkpt lat="45.87653" lon="4.64315">
        <ele>210</ele>
        <time>2018-09-01T10:37:10Z</time>
      </trkpt>
      <trkpt lat="45.87649" lon="4.64323">
        <ele>210</ele>
        <time>2018-09-01T10:37:11Z</time>
      </trkpt>
      <trkpt lat="45.87646" lon="4.64332">
        <ele>210</ele>
        <time>2018-09-01T10:37:12Z</time>
      </trkpt>
      <trkpt lat="45.87643" lon="4.64338">
        <ele>211</ele>
        <time>2018-09-01T10:37:13Z</time>
      </trkpt>
      <trkpt lat="45.87639" lon="4.64345">
        <ele>211</ele>
        <time>2018-09-01T10:37:14Z</time>
      </trkpt>
      <trkpt lat="45.87635" lon="4.6435">
        <ele>211</ele>
        <time>2018-09-01T10:37:15Z</time>
      </trkpt>
      <trkpt lat="45.87631" lon="4.64356">
        <ele>211</ele>
        <time>2018-09-01T10:37:16Z</time>
      </trkpt>
      <trkpt lat="45.87627" lon="4.64363">
        <ele>211</ele>
        <time>2018-09-01T10:37:17Z</time>
      </trkpt>
      <trkpt lat="45.87624" lon="4.64369">
        <ele>211</ele>
        <time>2018-09-01T10:37:18Z</time>
      </trkpt>
      <trkpt lat="45.87621" lon="4.64378">
        <ele>212</ele>
        <time>2018-09-01T10:37:19Z</time>
      </trkpt>
      <trkpt lat="45.87617" lon="4.64384">
        <ele>212</ele>
        <time>2018-09-01T10:37:20Z</time>
      </trkpt>
      <trkpt lat="45.87613" lon="4.6439">
        <ele>212</ele>
        <time>2018-09-01T10:37:21Z</time>
      </trkpt>
      <trkpt lat="45.8761" lon="4.64397">
        <ele>212</ele>
        <time>2018-09-01T10:37:22Z</time>
      </trkpt>
      <trkpt lat="45.87606" lon="4.64403">
        <ele>212</ele>
        <time>2018-09-01T10:37:23Z</time>
      </trkpt>
      <trkpt lat="45.87602" lon="4.64409">
        <ele>212</ele>
        <time>2018-09-01T10:37:24Z</time>
      </trkpt>
      <trkpt lat="45.87599" lon="4.64416">
        <ele>212</ele>
        <time>2018-09-01T10:37:25Z</time>
      </trkpt>
      <trkpt lat="45.87594" lon="4.64421">
        <ele>213</ele>
        <time>2018-09-01T10:37:26Z</time>
      </trkpt>
      <trkpt lat="45.8759" lon="4.64427">
        <ele>213</ele>
        <time>2018-09-01T10:37:27Z</time>
      </trkpt>
      <trkpt lat="45.87588" lon="4.64433">
        <ele>213</ele>
        <time>2018-09-01T10:37:28Z</time>
      </trkpt>
      <trkpt lat="45.87585" lon="4.64439">
        <ele>213</ele>
        <time>2018-09-01T10:37:29Z</time>
      </trkpt>
      <trkpt lat="45.87582" lon="4.64445">
        <ele>212</ele>
        <time>2018-09-01T10:37:30Z</time>
      </trkpt>
      <trkpt lat="45.87579" lon="4.64451">
        <ele>212</ele>
        <time>2018-09-01T10:37:31Z</time>
      </trkpt>
      <trkpt lat="45.87575" lon="4.64458">
        <ele>212</ele>
        <time>2018-09-01T10:37:32Z</time>
      </trkpt>
      <trkpt lat="45.8757" lon="4.64462">
        <ele>212</ele>
        <time>2018-09-01T10:37:33Z</time>
      </trkpt>
      <trkpt lat="45.87566" lon="4.64468">
        <ele>212</ele>
        <time>2018-09-01T10:37:34Z</time>
      </trkpt>
      <trkpt lat="45.8756" lon="4.64469">
        <ele>212</ele>
        <time>2018-09-01T10:37:35Z</time>
      </trkpt>
      <trkpt lat="45.87556" lon="4.64474">
        <ele>212</ele>
        <time>2018-09-01T10:37:36Z</time>
      </trkpt>
      <trkpt lat="45.87552" lon="4.6448">
        <ele>212</ele>
        <time>2018-09-01T10:37:37Z</time>
      </trkpt>
      <trkpt lat="45.87549" lon="4.64485">
        <ele>212</ele>
        <time>2018-09-01T10:37:38Z</time>
      </trkpt>
      <trkpt lat="45.87547" lon="4.64493">
        <ele>212</ele>
        <time>2018-09-01T10:37:39Z</time>
      </trkpt>
      <trkpt lat="45.87545" lon="4.64499">
        <ele>212</ele>
        <time>2018-09-01T10:37:40Z</time>
      </trkpt>
      <trkpt lat="45.87541" lon="4.64505">
        <ele>212</ele>
        <time>2018-09-01T10:37:41Z</time>
      </trkpt>
      <trkpt lat="45.87536" lon="4.64509">
        <ele>212</ele>
        <time>2018-09-01T10:37:42Z</time>
      </trkpt>
      <trkpt lat="45.87532" lon="4.64514">
        <ele>212</ele>
        <time>2018-09-01T10:37:43Z</time>
      </trkpt>
      <trkpt lat="45.87528" lon="4.64522">
        <ele>212</ele>
        <time>2018-09-01T10:37:44Z</time>
      </trkpt>
      <trkpt lat="45.87524" lon="4.64528">
        <ele>212</ele>
        <time>2018-09-01T10:37:45Z</time>
      </trkpt>
      <trkpt lat="45.87521" lon="4.64534">
        <ele>212</ele>
        <time>2018-09-01T10:37:46Z</time>
      </trkpt>
      <trkpt lat="45.87518" lon="4.6454">
        <ele>212</ele>
        <time>2018-09-01T10:37:47Z</time>
      </trkpt>
      <trkpt lat="45.87515" lon="4.64547">
        <ele>212</ele>
        <time>2018-09-01T10:37:48Z</time>
      </trkpt>
      <trkpt lat="45.87511" lon="4.64554">
        <ele>212</ele>
        <time>2018-09-01T10:37:49Z</time>
      </trkpt>
      <trkpt lat="45.87507" lon="4.64562">
        <ele>212</ele>
        <time>2018-09-01T10:37:50Z</time>
      </trkpt>
      <trkpt lat="45.87503" lon="4.64568">
        <ele>212</ele>
        <time>2018-09-01T10:37:51Z</time>
      </trkpt>
      <trkpt lat="45.87498" lon="4.64574">
        <ele>213</ele>
        <time>2018-09-01T10:37:52Z</time>
      </trkpt>
      <trkpt lat="45.87495" lon="4.64581">
        <ele>213</ele>
        <time>2018-09-01T10:37:53Z</time>
      </trkpt>
      <trkpt lat="45.8749" lon="4.6459">
        <ele>213</ele>
        <time>2018-09-01T10:37:54Z</time>
      </trkpt>
      <trkpt lat="45.87486" lon="4.64598">
        <ele>213</ele>
        <time>2018-09-01T10:37:55Z</time>
      </trkpt>
      <trkpt lat="45.87482" lon="4.64608">
        <ele>213</ele>
        <time>2018-09-01T10:37:56Z</time>
      </trkpt>
      <trkpt lat="45.87477" lon="4.64615">
        <ele>212</ele>
        <time>2018-09-01T10:37:57Z</time>
      </trkpt>
      <trkpt lat="45.87472" lon="4.64622">
        <ele>212</ele>
        <time>2018-09-01T10:37:58Z</time>
      </trkpt>
      <trkpt lat="45.87469" lon="4.64631">
        <ele>212</ele>
        <time>2018-09-01T10:37:59Z</time>
      </trkpt>
      <trkpt lat="45.87465" lon="4.64637">
        <ele>212</ele>
        <time>2018-09-01T10:38:00Z</time>
      </trkpt>
      <trkpt lat="45.87459" lon="4.64646">
        <ele>212</ele>
        <time>2018-09-01T10:38:01Z</time>
      </trkpt>
      <trkpt lat="45.87454" lon="4.64651">
        <ele>212</ele>
        <time>2018-09-01T10:38:02Z</time>
      </trkpt>
      <trkpt lat="45.87449" lon="4.64657">
        <ele>212</ele>
        <time>2018-09-01T10:38:03Z</time>
      </trkpt>
      <trkpt lat="45.87445" lon="4.64664">
        <ele>212</ele>
        <time>2018-09-01T10:38:04Z</time>
      </trkpt>
      <trkpt lat="45.8744" lon="4.64673">
        <ele>212</ele>
        <time>2018-09-01T10:38:05Z</time>
      </trkpt>
      <trkpt lat="45.87437" lon="4.64681">
        <ele>212</ele>
        <time>2018-09-01T10:38:06Z</time>
      </trkpt>
      <trkpt lat="45.87433" lon="4.64689">
        <ele>212</ele>
        <time>2018-09-01T10:38:07Z</time>
      </trkpt>
      <trkpt lat="45.87429" lon="4.64696">
        <ele>212</ele>
        <time>2018-09-01T10:38:08Z</time>
      </trkpt>
      <trkpt lat="45.87425" lon="4.64706">
        <ele>212</ele>
        <time>2018-09-01T10:38:09Z</time>
      </trkpt>
      <trkpt lat="45.87422" lon="4.64713">
        <ele>212</ele>
        <time>2018-09-01T10:38:10Z</time>
      </trkpt>
      <trkpt lat="45.87417" lon="4.6472">
        <ele>212</ele>
        <time>2018-09-01T10:38:11Z</time>
      </trkpt>
      <trkpt lat="45.87413" lon="4.64726">
        <ele>211</ele>
        <time>2018-09-01T10:38:12Z</time>
      </trkpt>
      <trkpt lat="45.87409" lon="4.64734">
        <ele>211</ele>
        <time>2018-09-01T10:38:13Z</time>
      </trkpt>
      <trkpt lat="45.87404" lon="4.64741">
        <ele>211</ele>
        <time>2018-09-01T10:38:14Z</time>
      </trkpt>
      <trkpt lat="45.874" lon="4.64747">
        <ele>211</ele>
        <time>2018-09-01T10:38:15Z</time>
      </trkpt>
      <trkpt lat="45.87395" lon="4.64753">
        <ele>211</ele>
        <time>2018-09-01T10:38:16Z</time>
      </trkpt>
      <trkpt lat="45.8739" lon="4.64759">
        <ele>211</ele>
        <time>2018-09-01T10:38:17Z</time>
      </trkpt>
      <trkpt lat="45.87386" lon="4.64765">
        <ele>211</ele>
        <time>2018-09-01T10:38:18Z</time>
      </trkpt>
      <trkpt lat="45.87382" lon="4.64772">
        <ele>212</ele>
        <time>2018-09-01T10:38:19Z</time>
      </trkpt>
      <trkpt lat="45.87378" lon="4.64778">
        <ele>212</ele>
        <time>2018-09-01T10:38:20Z</time>
      </trkpt>
      <trkpt lat="45.87374" lon="4.64784">
        <ele>212</ele>
        <time>2018-09-01T10:38:21Z</time>
      </trkpt>
      <trkpt lat="45.8737" lon="4.64793">
        <ele>212</ele>
        <time>2018-09-01T10:38:22Z</time>
      </trkpt>
      <trkpt lat="45.87366" lon="4.648">
        <ele>212</ele>
        <time>2018-09-01T10:38:23Z</time>
      </trkpt>
      <trkpt lat="45.87362" lon="4.64806">
        <ele>212</ele>
        <time>2018-09-01T10:38:24Z</time>
      </trkpt>
      <trkpt lat="45.87356" lon="4.64812">
        <ele>212</ele>
        <time>2018-09-01T10:38:25Z</time>
      </trkpt>
      <trkpt lat="45.87352" lon="4.64817">
        <ele>212</ele>
        <time>2018-09-01T10:38:26Z</time>
      </trkpt>
      <trkpt lat="45.87347" lon="4.64823">
        <ele>211</ele>
        <time>2018-09-01T10:38:27Z</time>
      </trkpt>
      <trkpt lat="45.87342" lon="4.64828">
        <ele>211</ele>
        <time>2018-09-01T10:38:28Z</time>
      </trkpt>
      <trkpt lat="45.87337" lon="4.64835">
        <ele>212</ele>
        <time>2018-09-01T10:38:29Z</time>
      </trkpt>
      <trkpt lat="45.87332" lon="4.64844">
        <ele>211</ele>
        <time>2018-09-01T10:38:30Z</time>
      </trkpt>
      <trkpt lat="45.87328" lon="4.64851">
        <ele>211</ele>
        <time>2018-09-01T10:38:31Z</time>
      </trkpt>
      <trkpt lat="45.87325" lon="4.64857">
        <ele>211</ele>
        <time>2018-09-01T10:38:32Z</time>
      </trkpt>
      <trkpt lat="45.87322" lon="4.64864">
        <ele>211</ele>
        <time>2018-09-01T10:38:33Z</time>
      </trkpt>
      <trkpt lat="45.87317" lon="4.64871">
        <ele>211</ele>
        <time>2018-09-01T10:38:34Z</time>
      </trkpt>
      <trkpt lat="45.87313" lon="4.6488">
        <ele>211</ele>
        <time>2018-09-01T10:38:35Z</time>
      </trkpt>
      <trkpt lat="45.87309" lon="4.64885">
        <ele>211</ele>
        <time>2018-09-01T10:38:36Z</time>
      </trkpt>
      <trkpt lat="45.87305" lon="4.64892">
        <ele>211</ele>
        <time>2018-09-01T10:38:37Z</time>
      </trkpt>
      <trkpt lat="45.87301" lon="4.64899">
        <ele>211</ele>
        <time>2018-09-01T10:38:38Z</time>
      </trkpt>
      <trkpt lat="45.87297" lon="4.64906">
        <ele>211</ele>
        <time>2018-09-01T10:38:39Z</time>
      </trkpt>
      <trkpt lat="45.87293" lon="4.64912">
        <ele>211</ele>
        <time>2018-09-01T10:38:40Z</time>
      </trkpt>
      <trkpt lat="45.87288" lon="4.64918">
        <ele>212</ele>
        <time>2018-09-01T10:38:41Z</time>
      </trkpt>
      <trkpt lat="45.87284" lon="4.64924">
        <ele>212</ele>
        <time>2018-09-01T10:38:42Z</time>
      </trkpt>
      <trkpt lat="45.8728" lon="4.64931">
        <ele>213</ele>
        <time>2018-09-01T10:38:43Z</time>
      </trkpt>
      <trkpt lat="45.87275" lon="4.64936">
        <ele>213</ele>
        <time>2018-09-01T10:38:44Z</time>
      </trkpt>
      <trkpt lat="45.87271" lon="4.64942">
        <ele>213</ele>
        <time>2018-09-01T10:38:45Z</time>
      </trkpt>
      <trkpt lat="45.87266" lon="4.64948">
        <ele>213</ele>
        <time>2018-09-01T10:38:46Z</time>
      </trkpt>
      <trkpt lat="45.87262" lon="4.64956">
        <ele>213</ele>
        <time>2018-09-01T10:38:47Z</time>
      </trkpt>
      <trkpt lat="45.87258" lon="4.64963">
        <ele>212</ele>
        <time>2018-09-01T10:38:48Z</time>
      </trkpt>
      <trkpt lat="45.87253" lon="4.64968">
        <ele>212</ele>
        <time>2018-09-01T10:38:49Z</time>
      </trkpt>
      <trkpt lat="45.87248" lon="4.64974">
        <ele>211</ele>
        <time>2018-09-01T10:38:50Z</time>
      </trkpt>
      <trkpt lat="45.87244" lon="4.64981">
        <ele>211</ele>
        <time>2018-09-01T10:38:51Z</time>
      </trkpt>
      <trkpt lat="45.8724" lon="4.64989">
        <ele>211</ele>
        <time>2018-09-01T10:38:52Z</time>
      </trkpt>
      <trkpt lat="45.87236" lon="4.64997">
        <ele>211</ele>
        <time>2018-09-01T10:38:53Z</time>
      </trkpt>
      <trkpt lat="45.87232" lon="4.65003">
        <ele>212</ele>
        <time>2018-09-01T10:38:54Z</time>
      </trkpt>
      <trkpt lat="45.87227" lon="4.65012">
        <ele>212</ele>
        <time>2018-09-01T10:38:55Z</time>
      </trkpt>
      <trkpt lat="45.87223" lon="4.6502">
        <ele>212</ele>
        <time>2018-09-01T10:38:56Z</time>
      </trkpt>
      <trkpt lat="45.87219" lon="4.65025">
        <ele>212</ele>
        <time>2018-09-01T10:38:57Z</time>
      </trkpt>
      <trkpt lat="45.87215" lon="4.65032">
        <ele>212</ele>
        <time>2018-09-01T10:38:58Z</time>
      </trkpt>
      <trkpt lat="45.87211" lon="4.65039">
        <ele>212</ele>
        <time>2018-09-01T10:38:59Z</time>
      </trkpt>
      <trkpt lat="45.87205" lon="4.65045">
        <ele>212</ele>
        <time>2018-09-01T10:39:00Z</time>
      </trkpt>
      <trkpt lat="45.872" lon="4.65053">
        <ele>212</ele>
        <time>2018-09-01T10:39:01Z</time>
      </trkpt>
      <trkpt lat="45.87196" lon="4.6506">
        <ele>212</ele>
        <time>2018-09-01T10:39:02Z</time>
      </trkpt>
      <trkpt lat="45.87191" lon="4.65068">
        <ele>212</ele>
        <time>2018-09-01T10:39:03Z</time>
      </trkpt>
      <trkpt lat="45.87187" lon="4.65076">
        <ele>212</ele>
        <time>2018-09-01T10:39:04Z</time>
      </trkpt>
      <trkpt lat="45.87183" lon="4.65082">
        <ele>211</ele>
        <time>2018-09-01T10:39:05Z</time>
      </trkpt>
      <trkpt lat="45.87179" lon="4.65089">
        <ele>215</ele>
        <time>2018-09-01T10:39:06Z</time>
      </trkpt>
      <trkpt lat="45.87173" lon="4.65093">
        <ele>214</ele>
        <time>2018-09-01T10:39:07Z</time>
      </trkpt>
      <trkpt lat="45.87168" lon="4.651">
        <ele>215</ele>
        <time>2018-09-01T10:39:08Z</time>
      </trkpt>
      <trkpt lat="45.87163" lon="4.65106">
        <ele>212</ele>
        <time>2018-09-01T10:39:09Z</time>
      </trkpt>
      <trkpt lat="45.87158" lon="4.65114">
        <ele>213</ele>
        <time>2018-09-01T10:39:10Z</time>
      </trkpt>
      <trkpt lat="45.87154" lon="4.65122">
        <ele>213</ele>
        <time>2018-09-01T10:39:11Z</time>
      </trkpt>
      <trkpt lat="45.8715" lon="4.65131">
        <ele>214</ele>
        <time>2018-09-01T10:39:12Z</time>
      </trkpt>
      <trkpt lat="45.87146" lon="4.65138">
        <ele>214</ele>
        <time>2018-09-01T10:39:13Z</time>
      </trkpt>
      <trkpt lat="45.87141" lon="4.65142">
        <ele>214</ele>
        <time>2018-09-01T10:39:14Z</time>
      </trkpt>
      <trkpt lat="45.87137" lon="4.65149">
        <ele>214</ele>
        <time>2018-09-01T10:39:15Z</time>
      </trkpt>
      <trkpt lat="45.87132" lon="4.65158">
        <ele>214</ele>
        <time>2018-09-01T10:39:16Z</time>
      </trkpt>
      <trkpt lat="45.87128" lon="4.65164">
        <ele>214</ele>
        <time>2018-09-01T10:39:17Z</time>
      </trkpt>
      <trkpt lat="45.87123" lon="4.65172">
        <ele>218</ele>
        <time>2018-09-01T10:39:18Z</time>
      </trkpt>
      <trkpt lat="45.87119" lon="4.65181">
        <ele>218</ele>
        <time>2018-09-01T10:39:19Z</time>
      </trkpt>
      <trkpt lat="45.87115" lon="4.6519">
        <ele>218</ele>
        <time>2018-09-01T10:39:20Z</time>
      </trkpt>
      <trkpt lat="45.87112" lon="4.65199">
        <ele>219</ele>
        <time>2018-09-01T10:39:21Z</time>
      </trkpt>
      <trkpt lat="45.87108" lon="4.65208">
        <ele>219</ele>
        <time>2018-09-01T10:39:22Z</time>
      </trkpt>
      <trkpt lat="45.87103" lon="4.65216">
        <ele>218</ele>
        <time>2018-09-01T10:39:23Z</time>
      </trkpt>
      <trkpt lat="45.87099" lon="4.65223">
        <ele>218</ele>
        <time>2018-09-01T10:39:24Z</time>
      </trkpt>
      <trkpt lat="45.87095" lon="4.6523">
        <ele>217</ele>
        <time>2018-09-01T10:39:25Z</time>
      </trkpt>
      <trkpt lat="45.87091" lon="4.65237">
        <ele>216</ele>
        <time>2018-09-01T10:39:26Z</time>
      </trkpt>
      <trkpt lat="45.87087" lon="4.65244">
        <ele>215</ele>
        <time>2018-09-01T10:39:27Z</time>
      </trkpt>
      <trkpt lat="45.87083" lon="4.6525">
        <ele>213</ele>
        <time>2018-09-01T10:39:28Z</time>
      </trkpt>
      <trkpt lat="45.87079" lon="4.65256">
        <ele>214</ele>
        <time>2018-09-01T10:39:29Z</time>
      </trkpt>
      <trkpt lat="45.87075" lon="4.65263">
        <ele>214</ele>
        <time>2018-09-01T10:39:30Z</time>
      </trkpt>
      <trkpt lat="45.87071" lon="4.65272">
        <ele>215</ele>
        <time>2018-09-01T10:39:31Z</time>
      </trkpt>
      <trkpt lat="45.87067" lon="4.65279">
        <ele>215</ele>
        <time>2018-09-01T10:39:32Z</time>
      </trkpt>
      <trkpt lat="45.87065" lon="4.65288">
        <ele>216</ele>
        <time>2018-09-01T10:39:33Z</time>
      </trkpt>
      <trkpt lat="45.87062" lon="4.65297">
        <ele>216</ele>
        <time>2018-09-01T10:39:34Z</time>
      </trkpt>
      <trkpt lat="45.87059" lon="4.65305">
        <ele>217</ele>
        <time>2018-09-01T10:39:35Z</time>
      </trkpt>
      <trkpt lat="45.87056" lon="4.65314">
        <ele>217</ele>
        <time>2018-09-01T10:39:36Z</time>
      </trkpt>
      <trkpt lat="45.87052" lon="4.65321">
        <ele>217</ele>
        <time>2018-09-01T10:39:37Z</time>
      </trkpt>
      <trkpt lat="45.87049" lon="4.6533">
        <ele>217</ele>
        <time>2018-09-01T10:39:38Z</time>
      </trkpt>
      <trkpt lat="45.87045" lon="4.65338">
        <ele>223</ele>
        <time>2018-09-01T10:39:39Z</time>
      </trkpt>
      <trkpt lat="45.87041" lon="4.65345">
        <ele>223</ele>
        <time>2018-09-01T10:39:40Z</time>
      </trkpt>
      <trkpt lat="45.87037" lon="4.65353">
        <ele>223</ele>
        <time>2018-09-01T10:39:41Z</time>
      </trkpt>
      <trkpt lat="45.87033" lon="4.65356">
        <ele>222</ele>
        <time>2018-09-01T10:39:42Z</time>
      </trkpt>
      <trkpt lat="45.87029" lon="4.65362">
        <ele>222</ele>
        <time>2018-09-01T10:39:43Z</time>
      </trkpt>
      <trkpt lat="45.87025" lon="4.6537">
        <ele>223</ele>
        <time>2018-09-01T10:39:44Z</time>
      </trkpt>
      <trkpt lat="45.87022" lon="4.65377">
        <ele>223</ele>
        <time>2018-09-01T10:39:45Z</time>
      </trkpt>
      <trkpt lat="45.87017" lon="4.65381">
        <ele>223</ele>
        <time>2018-09-01T10:39:46Z</time>
      </trkpt>
      <trkpt lat="45.87012" lon="4.65385">
        <ele>223</ele>
        <time>2018-09-01T10:39:47Z</time>
      </trkpt>
      <trkpt lat="45.87008" lon="4.65391">
        <ele>223</ele>
        <time>2018-09-01T10:39:48Z</time>
      </trkpt>
      <trkpt lat="45.87004" lon="4.65396">
        <ele>223</ele>
        <time>2018-09-01T10:39:49Z</time>
      </trkpt>
      <trkpt lat="45.86999" lon="4.65401">
        <ele>218</ele>
        <time>2018-09-01T10:39:50Z</time>
      </trkpt>
      <trkpt lat="45.86995" lon="4.65406">
        <ele>218</ele>
        <time>2018-09-01T10:39:51Z</time>
      </trkpt>
      <trkpt lat="45.8699" lon="4.65412">
        <ele>219</ele>
        <time>2018-09-01T10:39:52Z</time>
      </trkpt>
      <trkpt lat="45.86986" lon="4.65418">
        <ele>221</ele>
        <time>2018-09-01T10:39:53Z</time>
      </trkpt>
      <trkpt lat="45.86983" lon="4.65423">
        <ele>221</ele>
        <time>2018-09-01T10:39:54Z</time>
      </trkpt>
      <trkpt lat="45.86978" lon="4.65428">
        <ele>221</ele>
        <time>2018-09-01T10:39:55Z</time>
      </trkpt>
      <trkpt lat="45.86972" lon="4.65432">
        <ele>221</ele>
        <time>2018-09-01T10:39:56Z</time>
      </trkpt>
      <trkpt lat="45.86967" lon="4.65439">
        <ele>221</ele>
        <time>2018-09-01T10:39:57Z</time>
      </trkpt>
      <trkpt lat="45.86963" lon="4.65444">
        <ele>221</ele>
        <time>2018-09-01T10:39:58Z</time>
      </trkpt>
      <trkpt lat="45.86958" lon="4.65449">
        <ele>221</ele>
        <time>2018-09-01T10:39:59Z</time>
      </trkpt>
      <trkpt lat="45.86955" lon="4.65452">
        <ele>221</ele>
        <time>2018-09-01T10:40:00Z</time>
      </trkpt>
      <trkpt lat="45.86951" lon="4.65457">
        <ele>221</ele>
        <time>2018-09-01T10:40:01Z</time>
      </trkpt>
      <trkpt lat="45.86946" lon="4.65462">
        <ele>221</ele>
        <time>2018-09-01T10:40:02Z</time>
      </trkpt>
      <trkpt lat="45.86942" lon="4.65469">
        <ele>221</ele>
        <time>2018-09-01T10:40:03Z</time>
      </trkpt>
      <trkpt lat="45.86937" lon="4.65475">
        <ele>221</ele>
        <time>2018-09-01T10:40:04Z</time>
      </trkpt>
      <trkpt lat="45.86932" lon="4.65482">
        <ele>221</ele>
        <time>2018-09-01T10:40:05Z</time>
      </trkpt>
      <trkpt lat="45.86929" lon="4.65488">
        <ele>220</ele>
        <time>2018-09-01T10:40:06Z</time>
      </trkpt>
      <trkpt lat="45.86926" lon="4.65496">
        <ele>220</ele>
        <time>2018-09-01T10:40:07Z</time>
      </trkpt>
      <trkpt lat="45.86923" lon="4.65502">
        <ele>222</ele>
        <time>2018-09-01T10:40:08Z</time>
      </trkpt>
      <trkpt lat="45.86919" lon="4.65509">
        <ele>223</ele>
        <time>2018-09-01T10:40:09Z</time>
      </trkpt>
      <trkpt lat="45.86916" lon="4.65515">
        <ele>218</ele>
        <time>2018-09-01T10:40:10Z</time>
      </trkpt>
      <trkpt lat="45.86913" lon="4.65522">
        <ele>218</ele>
        <time>2018-09-01T10:40:11Z</time>
      </trkpt>
      <trkpt lat="45.8691" lon="4.65529">
        <ele>218</ele>
        <time>2018-09-01T10:40:12Z</time>
      </trkpt>
      <trkpt lat="45.86907" lon="4.65538">
        <ele>218</ele>
        <time>2018-09-01T10:40:13Z</time>
      </trkpt>
      <trkpt lat="45.86905" lon="4.65545">
        <ele>219</ele>
        <time>2018-09-01T10:40:14Z</time>
      </trkpt>
      <trkpt lat="45.86901" lon="4.65551">
        <ele>219</ele>
        <time>2018-09-01T10:40:15Z</time>
      </trkpt>
      <trkpt lat="45.86899" lon="4.65558">
        <ele>219</ele>
        <time>2018-09-01T10:40:16Z</time>
      </trkpt>
      <trkpt lat="45.86897" lon="4.65564">
        <ele>220</ele>
        <time>2018-09-01T10:40:17Z</time>
      </trkpt>
      <trkpt lat="45.86895" lon="4.65572">
        <ele>220</ele>
        <time>2018-09-01T10:40:18Z</time>
      </trkpt>
      <trkpt lat="45.86892" lon="4.65578">
        <ele>220</ele>
        <time>2018-09-01T10:40:19Z</time>
      </trkpt>
      <trkpt lat="45.86892" lon="4.65585">
        <ele>222</ele>
        <time>2018-09-01T10:40:20Z</time>
      </trkpt>
      <trkpt lat="45.8689" lon="4.6559">
        <ele>222</ele>
        <time>2018-09-01T10:40:21Z</time>
      </trkpt>
      <trkpt lat="45.86889" lon="4.65598">
        <ele>222</ele>
        <time>2018-09-01T10:40:22Z</time>
      </trkpt>
      <trkpt lat="45.86887" lon="4.65604">
        <ele>222</ele>
        <time>2018-09-01T10:40:23Z</time>
      </trkpt>
      <trkpt lat="45.86886" lon="4.65613">
        <ele>222</ele>
        <time>2018-09-01T10:40:24Z</time>
      </trkpt>
      <trkpt lat="45.86884" lon="4.65619">
        <ele>221</ele>
        <time>2018-09-01T10:40:25Z</time>
      </trkpt>
      <trkpt lat="45.86883" lon="4.65632">
        <ele>222</ele>
        <time>2018-09-01T10:40:27Z</time>
      </trkpt>
      <trkpt lat="45.86881" lon="4.65637">
        <ele>222</ele>
        <time>2018-09-01T10:40:28Z</time>
      </trkpt>
      <trkpt lat="45.86882" lon="4.65647">
        <ele>222</ele>
        <time>2018-09-01T10:40:29Z</time>
      </trkpt>
      <trkpt lat="45.86882" lon="4.65655">
        <ele>222</ele>
        <time>2018-09-01T10:40:30Z</time>
      </trkpt>
      <trkpt lat="45.86881" lon="4.65663">
        <ele>222</ele>
        <time>2018-09-01T10:40:31Z</time>
      </trkpt>
      <trkpt lat="45.86881" lon="4.6567">
        <ele>222</ele>
        <time>2018-09-01T10:40:32Z</time>
      </trkpt>
      <trkpt lat="45.8688" lon="4.65679">
        <ele>222</ele>
        <time>2018-09-01T10:40:33Z</time>
      </trkpt>
      <trkpt lat="45.8688" lon="4.65685">
        <ele>222</ele>
        <time>2018-09-01T10:40:34Z</time>
      </trkpt>
      <trkpt lat="45.8688" lon="4.65694">
        <ele>222</ele>
        <time>2018-09-01T10:40:35Z</time>
      </trkpt>
      <trkpt lat="45.8688" lon="4.65702">
        <ele>222</ele>
        <time>2018-09-01T10:40:36Z</time>
      </trkpt>
      <trkpt lat="45.8688" lon="4.6571">
        <ele>222</ele>
        <time>2018-09-01T10:40:37Z</time>
      </trkpt>
      <trkpt lat="45.86879" lon="4.65717">
        <ele>221</ele>
        <time>2018-09-01T10:40:38Z</time>
      </trkpt>
      <trkpt lat="45.86879" lon="4.65724">
        <ele>221</ele>
        <time>2018-09-01T10:40:39Z</time>
      </trkpt>
      <trkpt lat="45.86879" lon="4.65731">
        <ele>221</ele>
        <time>2018-09-01T10:40:40Z</time>
      </trkpt>
      <trkpt lat="45.86878" lon="4.65738">
        <ele>221</ele>
        <time>2018-09-01T10:40:41Z</time>
      </trkpt>
      <trkpt lat="45.86877" lon="4.65746">
        <ele>221</ele>
        <time>2018-09-01T10:40:42Z</time>
      </trkpt>
      <trkpt lat="45.86877" lon="4.65755">
        <ele>222</ele>
        <time>2018-09-01T10:40:43Z</time>
      </trkpt>
      <trkpt lat="45.86876" lon="4.65765">
        <ele>222</ele>
        <time>2018-09-01T10:40:44Z</time>
      </trkpt>
      <trkpt lat="45.86875" lon="4.65773">
        <ele>222</ele>
        <time>2018-09-01T10:40:45Z</time>
      </trkpt>
      <trkpt lat="45.86874" lon="4.65781">
        <ele>222</ele>
        <time>2018-09-01T10:40:46Z</time>
      </trkpt>
      <trkpt lat="45.86873" lon="4.6579">
        <ele>222</ele>
        <time>2018-09-01T10:40:47Z</time>
      </trkpt>
      <trkpt lat="45.86872" lon="4.65798">
        <ele>222</ele>
        <time>2018-09-01T10:40:48Z</time>
      </trkpt>
      <trkpt lat="45.8687" lon="4.65806">
        <ele>222</ele>
        <time>2018-09-01T10:40:49Z</time>
      </trkpt>
      <trkpt lat="45.86867" lon="4.65811">
        <ele>221</ele>
        <time>2018-09-01T10:40:50Z</time>
      </trkpt>
      <trkpt lat="45.86865" lon="4.65818">
        <ele>221</ele>
        <time>2018-09-01T10:40:51Z</time>
      </trkpt>
      <trkpt lat="45.86862" lon="4.65824">
        <ele>220</ele>
        <time>2018-09-01T10:40:52Z</time>
      </trkpt>
      <trkpt lat="45.86858" lon="4.65831">
        <ele>219</ele>
        <time>2018-09-01T10:40:53Z</time>
      </trkpt>
      <trkpt lat="45.86856" lon="4.65838">
        <ele>223</ele>
        <time>2018-09-01T10:40:54Z</time>
      </trkpt>
      <trkpt lat="45.86853" lon="4.65843">
        <ele>222</ele>
        <time>2018-09-01T10:40:55Z</time>
      </trkpt>
      <trkpt lat="45.8685" lon="4.65848">
        <ele>222</ele>
        <time>2018-09-01T10:40:56Z</time>
      </trkpt>
      <trkpt lat="45.86848" lon="4.65855">
        <ele>223</ele>
        <time>2018-09-01T10:40:57Z</time>
      </trkpt>
      <trkpt lat="45.86845" lon="4.65862">
        <ele>224</ele>
        <time>2018-09-01T10:40:58Z</time>
      </trkpt>
      <trkpt lat="45.86842" lon="4.6587">
        <ele>225</ele>
        <time>2018-09-01T10:40:59Z</time>
      </trkpt>
      <trkpt lat="45.86838" lon="4.65877">
        <ele>225</ele>
        <time>2018-09-01T10:41:00Z</time>
      </trkpt>
      <trkpt lat="45.86834" lon="4.65884">
        <ele>225</ele>
        <time>2018-09-01T10:41:01Z</time>
      </trkpt>
      <trkpt lat="45.86831" lon="4.65892">
        <ele>217</ele>
        <time>2018-09-01T10:41:02Z</time>
      </trkpt>
      <trkpt lat="45.86828" lon="4.659">
        <ele>217</ele>
        <time>2018-09-01T10:41:03Z</time>
      </trkpt>
      <trkpt lat="45.86824" lon="4.65908">
        <ele>218</ele>
        <time>2018-09-01T10:41:04Z</time>
      </trkpt>
      <trkpt lat="45.86821" lon="4.65916">
        <ele>218</ele>
        <time>2018-09-01T10:41:05Z</time>
      </trkpt>
      <trkpt lat="45.86817" lon="4.65922">
        <ele>221</ele>
        <time>2018-09-01T10:41:06Z</time>
      </trkpt>
      <trkpt lat="45.86813" lon="4.65928">
        <ele>221</ele>
        <time>2018-09-01T10:41:07Z</time>
      </trkpt>
      <trkpt lat="45.86809" lon="4.65934">
        <ele>221</ele>
        <time>2018-09-01T10:41:08Z</time>
      </trkpt>
      <trkpt lat="45.86805" lon="4.65939">
        <ele>221</ele>
        <time>2018-09-01T10:41:09Z</time>
      </trkpt>
      <trkpt lat="45.86803" lon="4.65945">
        <ele>221</ele>
        <time>2018-09-01T10:41:10Z</time>
      </trkpt>
      <trkpt lat="45.868" lon="4.65951">
        <ele>221</ele>
        <time>2018-09-01T10:41:11Z</time>
      </trkpt>
      <trkpt lat="45.86796" lon="4.65958">
        <ele>222</ele>
        <time>2018-09-01T10:41:12Z</time>
      </trkpt>
      <trkpt lat="45.86793" lon="4.65966">
        <ele>222</ele>
        <time>2018-09-01T10:41:13Z</time>
      </trkpt>
      <trkpt lat="45.86789" lon="4.65971">
        <ele>222</ele>
        <time>2018-09-01T10:41:14Z</time>
      </trkpt>
      <trkpt lat="45.86785" lon="4.65976">
        <ele>221</ele>
        <time>2018-09-01T10:41:15Z</time>
      </trkpt>
      <trkpt lat="45.86781" lon="4.65983">
        <ele>221</ele>
        <time>2018-09-01T10:41:16Z</time>
      </trkpt>
      <trkpt lat="45.86777" lon="4.65989">
        <ele>221</ele>
        <time>2018-09-01T10:41:17Z</time>
      </trkpt>
      <trkpt lat="45.86773" lon="4.65994">
        <ele>220</ele>
        <time>2018-09-01T10:41:18Z</time>
      </trkpt>
      <trkpt lat="45.86769" lon="4.66">
        <ele>227</ele>
        <time>2018-09-01T10:41:19Z</time>
      </trkpt>
      <trkpt lat="45.86764" lon="4.66006">
        <ele>226</ele>
        <time>2018-09-01T10:41:20Z</time>
      </trkpt>
      <trkpt lat="45.86759" lon="4.66011">
        <ele>225</ele>
        <time>2018-09-01T10:41:21Z</time>
      </trkpt>
      <trkpt lat="45.86754" lon="4.66016">
        <ele>226</ele>
        <time>2018-09-01T10:41:22Z</time>
      </trkpt>
      <trkpt lat="45.86749" lon="4.66018">
        <ele>220</ele>
        <time>2018-09-01T10:41:23Z</time>
      </trkpt>
      <trkpt lat="45.86744" lon="4.66024">
        <ele>221</ele>
        <time>2018-09-01T10:41:24Z</time>
      </trkpt>
      <trkpt lat="45.8674" lon="4.66029">
        <ele>221</ele>
        <time>2018-09-01T10:41:25Z</time>
      </trkpt>
      <trkpt lat="45.86735" lon="4.66033">
        <ele>222</ele>
        <time>2018-09-01T10:41:26Z</time>
      </trkpt>
      <trkpt lat="45.86731" lon="4.66037">
        <ele>222</ele>
        <time>2018-09-01T10:41:27Z</time>
      </trkpt>
      <trkpt lat="45.86727" lon="4.6604">
        <ele>222</ele>
        <time>2018-09-01T10:41:28Z</time>
      </trkpt>
      <trkpt lat="45.86721" lon="4.66044">
        <ele>223</ele>
        <time>2018-09-01T10:41:29Z</time>
      </trkpt>
      <trkpt lat="45.86716" lon="4.66046">
        <ele>222</ele>
        <time>2018-09-01T10:41:30Z</time>
      </trkpt>
      <trkpt lat="45.8671" lon="4.66048">
        <ele>222</ele>
        <time>2018-09-01T10:41:31Z</time>
      </trkpt>
      <trkpt lat="45.86704" lon="4.6605">
        <ele>222</ele>
        <time>2018-09-01T10:41:32Z</time>
      </trkpt>
      <trkpt lat="45.86697" lon="4.66054">
        <ele>221</ele>
        <time>2018-09-01T10:41:33Z</time>
      </trkpt>
      <trkpt lat="45.86691" lon="4.66058">
        <ele>221</ele>
        <time>2018-09-01T10:41:34Z</time>
      </trkpt>
      <trkpt lat="45.86685" lon="4.66062">
        <ele>221</ele>
        <time>2018-09-01T10:41:35Z</time>
      </trkpt>
      <trkpt lat="45.8668" lon="4.66068">
        <ele>220</ele>
        <time>2018-09-01T10:41:36Z</time>
      </trkpt>
      <trkpt lat="45.86674" lon="4.6607">
        <ele>220</ele>
        <time>2018-09-01T10:41:37Z</time>
      </trkpt>
      <trkpt lat="45.86669" lon="4.66074">
        <ele>220</ele>
        <time>2018-09-01T10:41:38Z</time>
      </trkpt>
      <trkpt lat="45.86664" lon="4.66075">
        <ele>217</ele>
        <time>2018-09-01T10:41:39Z</time>
      </trkpt>
      <trkpt lat="45.86659" lon="4.66076">
        <ele>216</ele>
        <time>2018-09-01T10:41:40Z</time>
      </trkpt>
      <trkpt lat="45.86654" lon="4.66078">
        <ele>216</ele>
        <time>2018-09-01T10:41:41Z</time>
      </trkpt>
      <trkpt lat="45.86649" lon="4.66081">
        <ele>215</ele>
        <time>2018-09-01T10:41:42Z</time>
      </trkpt>
      <trkpt lat="45.86643" lon="4.66083">
        <ele>214</ele>
        <time>2018-09-01T10:41:43Z</time>
      </trkpt>
      <trkpt lat="45.86637" lon="4.66085">
        <ele>222</ele>
        <time>2018-09-01T10:41:44Z</time>
      </trkpt>
      <trkpt lat="45.86631" lon="4.66086">
        <ele>222</ele>
        <time>2018-09-01T10:41:45Z</time>
      </trkpt>
      <trkpt lat="45.86625" lon="4.66091">
        <ele>222</ele>
        <time>2018-09-01T10:41:46Z</time>
      </trkpt>
      <trkpt lat="45.8662" lon="4.66094">
        <ele>222</ele>
        <time>2018-09-01T10:41:47Z</time>
      </trkpt>
      <trkpt lat="45.86614" lon="4.66098">
        <ele>221</ele>
        <time>2018-09-01T10:41:48Z</time>
      </trkpt>
      <trkpt lat="45.86608" lon="4.66101">
        <ele>221</ele>
        <time>2018-09-01T10:41:49Z</time>
      </trkpt>
      <trkpt lat="45.86602" lon="4.66103">
        <ele>220</ele>
        <time>2018-09-01T10:41:50Z</time>
      </trkpt>
      <trkpt lat="45.86597" lon="4.66107">
        <ele>221</ele>
        <time>2018-09-01T10:41:51Z</time>
      </trkpt>
      <trkpt lat="45.8659" lon="4.66111">
        <ele>221</ele>
        <time>2018-09-01T10:41:52Z</time>
      </trkpt>
      <trkpt lat="45.86585" lon="4.66115">
        <ele>221</ele>
        <time>2018-09-01T10:41:53Z</time>
      </trkpt>
      <trkpt lat="45.8658" lon="4.6612">
        <ele>216</ele>
        <time>2018-09-01T10:41:54Z</time>
      </trkpt>
      <trkpt lat="45.86575" lon="4.66125">
        <ele>216</ele>
        <time>2018-09-01T10:41:55Z</time>
      </trkpt>
      <trkpt lat="45.8657" lon="4.66132">
        <ele>217</ele>
        <time>2018-09-01T10:41:56Z</time>
      </trkpt>
      <trkpt lat="45.86564" lon="4.66138">
        <ele>217</ele>
        <time>2018-09-01T10:41:57Z</time>
      </trkpt>
      <trkpt lat="45.86557" lon="4.66143">
        <ele>217</ele>
        <time>2018-09-01T10:41:58Z</time>
      </trkpt>
      <trkpt lat="45.86551" lon="4.66148">
        <ele>217</ele>
        <time>2018-09-01T10:41:59Z</time>
      </trkpt>
      <trkpt lat="45.86544" lon="4.66153">
        <ele>217</ele>
        <time>2018-09-01T10:42:00Z</time>
      </trkpt>
      <trkpt lat="45.86537" lon="4.66158">
        <ele>217</ele>
        <time>2018-09-01T10:42:01Z</time>
      </trkpt>
      <trkpt lat="45.86531" lon="4.66163">
        <ele>216</ele>
        <time>2018-09-01T10:42:02Z</time>
      </trkpt>
      <trkpt lat="45.86524" lon="4.66167">
        <ele>222</ele>
        <time>2018-09-01T10:42:03Z</time>
      </trkpt>
      <trkpt lat="45.86518" lon="4.66172">
        <ele>221</ele>
        <time>2018-09-01T10:42:04Z</time>
      </trkpt>
      <trkpt lat="45.86511" lon="4.66176">
        <ele>220</ele>
        <time>2018-09-01T10:42:05Z</time>
      </trkpt>
      <trkpt lat="45.86504" lon="4.66178">
        <ele>220</ele>
        <time>2018-09-01T10:42:06Z</time>
      </trkpt>
      <trkpt lat="45.86497" lon="4.66183">
        <ele>216</ele>
        <time>2018-09-01T10:42:07Z</time>
      </trkpt>
      <trkpt lat="45.8649" lon="4.66187">
        <ele>217</ele>
        <time>2018-09-01T10:42:08Z</time>
      </trkpt>
      <trkpt lat="45.86482" lon="4.66189">
        <ele>217</ele>
        <time>2018-09-01T10:42:09Z</time>
      </trkpt>
      <trkpt lat="45.86475" lon="4.66192">
        <ele>217</ele>
        <time>2018-09-01T10:42:10Z</time>
      </trkpt>
      <trkpt lat="45.86467" lon="4.66194">
        <ele>217</ele>
        <time>2018-09-01T10:42:11Z</time>
      </trkpt>
      <trkpt lat="45.8646" lon="4.66196">
        <ele>217</ele>
        <time>2018-09-01T10:42:12Z</time>
      </trkpt>
      <trkpt lat="45.86454" lon="4.66198">
        <ele>217</ele>
        <time>2018-09-01T10:42:13Z</time>
      </trkpt>
      <trkpt lat="45.86447" lon="4.66199">
        <ele>216</ele>
        <time>2018-09-01T10:42:14Z</time>
      </trkpt>
      <trkpt lat="45.86441" lon="4.66202">
        <ele>216</ele>
        <time>2018-09-01T10:42:15Z</time>
      </trkpt>
      <trkpt lat="45.86434" lon="4.66204">
        <ele>216</ele>
        <time>2018-09-01T10:42:16Z</time>
      </trkpt>
      <trkpt lat="45.86428" lon="4.66205">
        <ele>216</ele>
        <time>2018-09-01T10:42:17Z</time>
      </trkpt>
      <trkpt lat="45.86421" lon="4.66207">
        <ele>216</ele>
        <time>2018-09-01T10:42:18Z</time>
      </trkpt>
      <trkpt lat="45.86413" lon="4.66208">
        <ele>213</ele>
        <time>2018-09-01T10:42:19Z</time>
      </trkpt>
      <trkpt lat="45.86406" lon="4.6621">
        <ele>213</ele>
        <time>2018-09-01T10:42:20Z</time>
      </trkpt>
      <trkpt lat="45.86398" lon="4.66212">
        <ele>213</ele>
        <time>2018-09-01T10:42:21Z</time>
      </trkpt>
      <trkpt lat="45.86391" lon="4.66214">
        <ele>213</ele>
        <time>2018-09-01T10:42:22Z</time>
      </trkpt>
      <trkpt lat="45.86383" lon="4.66217">
        <ele>213</ele>
        <time>2018-09-01T10:42:23Z</time>
      </trkpt>
      <trkpt lat="45.86376" lon="4.6622">
        <ele>213</ele>
        <time>2018-09-01T10:42:24Z</time>
      </trkpt>
      <trkpt lat="45.8637" lon="4.66224">
        <ele>213</ele>
        <time>2018-09-01T10:42:25Z</time>
      </trkpt>
      <trkpt lat="45.86361" lon="4.66228">
        <ele>213</ele>
        <time>2018-09-01T10:42:26Z</time>
      </trkpt>
      <trkpt lat="45.86354" lon="4.66232">
        <ele>213</ele>
        <time>2018-09-01T10:42:27Z</time>
      </trkpt>
      <trkpt lat="45.86349" lon="4.66235">
        <ele>213</ele>
        <time>2018-09-01T10:42:28Z</time>
      </trkpt>
      <trkpt lat="45.86342" lon="4.6624">
        <ele>213</ele>
        <time>2018-09-01T10:42:29Z</time>
      </trkpt>
      <trkpt lat="45.86334" lon="4.66245">
        <ele>213</ele>
        <time>2018-09-01T10:42:30Z</time>
      </trkpt>
      <trkpt lat="45.86327" lon="4.66251">
        <ele>213</ele>
        <time>2018-09-01T10:42:31Z</time>
      </trkpt>
      <trkpt lat="45.86322" lon="4.66258">
        <ele>213</ele>
        <time>2018-09-01T10:42:32Z</time>
      </trkpt>
      <trkpt lat="45.86316" lon="4.66264">
        <ele>213</ele>
        <time>2018-09-01T10:42:33Z</time>
      </trkpt>
      <trkpt lat="45.8631" lon="4.66269">
        <ele>213</ele>
        <time>2018-09-01T10:42:34Z</time>
      </trkpt>
      <trkpt lat="45.86302" lon="4.66279">
        <ele>213</ele>
        <time>2018-09-01T10:42:35Z</time>
      </trkpt>
      <trkpt lat="45.863" lon="4.66288">
        <ele>214</ele>
        <time>2018-09-01T10:42:36Z</time>
      </trkpt>
      <trkpt lat="45.86295" lon="4.66295">
        <ele>214</ele>
        <time>2018-09-01T10:42:37Z</time>
      </trkpt>
      <trkpt lat="45.8629" lon="4.66304">
        <ele>214</ele>
        <time>2018-09-01T10:42:38Z</time>
      </trkpt>
      <trkpt lat="45.86284" lon="4.66312">
        <ele>214</ele>
        <time>2018-09-01T10:42:39Z</time>
      </trkpt>
      <trkpt lat="45.86279" lon="4.66319">
        <ele>213</ele>
        <time>2018-09-01T10:42:40Z</time>
      </trkpt>
      <trkpt lat="45.86274" lon="4.6633">
        <ele>213</ele>
        <time>2018-09-01T10:42:41Z</time>
      </trkpt>
      <trkpt lat="45.86271" lon="4.66341">
        <ele>215</ele>
        <time>2018-09-01T10:42:42Z</time>
      </trkpt>
      <trkpt lat="45.86266" lon="4.66349">
        <ele>215</ele>
        <time>2018-09-01T10:42:43Z</time>
      </trkpt>
      <trkpt lat="45.8626" lon="4.66357">
        <ele>215</ele>
        <time>2018-09-01T10:42:44Z</time>
      </trkpt>
      <trkpt lat="45.86255" lon="4.66366">
        <ele>216</ele>
        <time>2018-09-01T10:42:45Z</time>
      </trkpt>
      <trkpt lat="45.8625" lon="4.66374">
        <ele>216</ele>
        <time>2018-09-01T10:42:46Z</time>
      </trkpt>
      <trkpt lat="45.86246" lon="4.66383">
        <ele>212</ele>
        <time>2018-09-01T10:42:47Z</time>
      </trkpt>
      <trkpt lat="45.86241" lon="4.66391">
        <ele>212</ele>
        <time>2018-09-01T10:42:48Z</time>
      </trkpt>
      <trkpt lat="45.86236" lon="4.66402">
        <ele>212</ele>
        <time>2018-09-01T10:42:49Z</time>
      </trkpt>
      <trkpt lat="45.86231" lon="4.6641">
        <ele>213</ele>
        <time>2018-09-01T10:42:50Z</time>
      </trkpt>
      <trkpt lat="45.86227" lon="4.66419">
        <ele>213</ele>
        <time>2018-09-01T10:42:51Z</time>
      </trkpt>
      <trkpt lat="45.86222" lon="4.66428">
        <ele>213</ele>
        <time>2018-09-01T10:42:52Z</time>
      </trkpt>
      <trkpt lat="45.86218" lon="4.66437">
        <ele>213</ele>
        <time>2018-09-01T10:42:53Z</time>
      </trkpt>
      <trkpt lat="45.86212" lon="4.66444">
        <ele>213</ele>
        <time>2018-09-01T10:42:54Z</time>
      </trkpt>
      <trkpt lat="45.86207" lon="4.66454">
        <ele>213</ele>
        <time>2018-09-01T10:42:55Z</time>
      </trkpt>
      <trkpt lat="45.86201" lon="4.66459">
        <ele>213</ele>
        <time>2018-09-01T10:42:56Z</time>
      </trkpt>
      <trkpt lat="45.86196" lon="4.66466">
        <ele>213</ele>
        <time>2018-09-01T10:42:57Z</time>
      </trkpt>
      <trkpt lat="45.86192" lon="4.66474">
        <ele>213</ele>
        <time>2018-09-01T10:42:58Z</time>
      </trkpt>
      <trkpt lat="45.86187" lon="4.66481">
        <ele>212</ele>
        <time>2018-09-01T10:42:59Z</time>
      </trkpt>
      <trkpt lat="45.86183" lon="4.6649">
        <ele>212</ele>
        <time>2018-09-01T10:43:00Z</time>
      </trkpt>
      <trkpt lat="45.8618" lon="4.66497">
        <ele>212</ele>
        <time>2018-09-01T10:43:01Z</time>
      </trkpt>
      <trkpt lat="45.86175" lon="4.66504">
        <ele>214</ele>
        <time>2018-09-01T10:43:02Z</time>
      </trkpt>
      <trkpt lat="45.86172" lon="4.66514">
        <ele>215</ele>
        <time>2018-09-01T10:43:03Z</time>
      </trkpt>
      <trkpt lat="45.86167" lon="4.66521">
        <ele>216</ele>
        <time>2018-09-01T10:43:04Z</time>
      </trkpt>
      <trkpt lat="45.86164" lon="4.66531">
        <ele>213</ele>
        <time>2018-09-01T10:43:05Z</time>
      </trkpt>
      <trkpt lat="45.86159" lon="4.66536">
        <ele>213</ele>
        <time>2018-09-01T10:43:06Z</time>
      </trkpt>
      <trkpt lat="45.86154" lon="4.6654">
        <ele>214</ele>
        <time>2018-09-01T10:43:07Z</time>
      </trkpt>
      <trkpt lat="45.8615" lon="4.66545">
        <ele>214</ele>
        <time>2018-09-01T10:43:08Z</time>
      </trkpt>
      <trkpt lat="45.86146" lon="4.66553">
        <ele>214</ele>
        <time>2018-09-01T10:43:09Z</time>
      </trkpt>
      <trkpt lat="45.86141" lon="4.66558">
        <ele>214</ele>
        <time>2018-09-01T10:43:10Z</time>
      </trkpt>
      <trkpt lat="45.86136" lon="4.66563">
        <ele>214</ele>
        <time>2018-09-01T10:43:11Z</time>
      </trkpt>
      <trkpt lat="45.86132" lon="4.6657">
        <ele>214</ele>
        <time>2018-09-01T10:43:12Z</time>
      </trkpt>
      <trkpt lat="45.86128" lon="4.66575">
        <ele>214</ele>
        <time>2018-09-01T10:43:13Z</time>
      </trkpt>
      <trkpt lat="45.86123" lon="4.66579">
        <ele>214</ele>
        <time>2018-09-01T10:43:14Z</time>
      </trkpt>
      <trkpt lat="45.86116" lon="4.66582">
        <ele>213</ele>
        <time>2018-09-01T10:43:15Z</time>
      </trkpt>
      <trkpt lat="45.8611" lon="4.66584">
        <ele>219</ele>
        <time>2018-09-01T10:43:16Z</time>
      </trkpt>
      <trkpt lat="45.86103" lon="4.66589">
        <ele>218</ele>
        <time>2018-09-01T10:43:17Z</time>
      </trkpt>
      <trkpt lat="45.86096" lon="4.6659">
        <ele>216</ele>
        <time>2018-09-01T10:43:18Z</time>
      </trkpt>
      <trkpt lat="45.86091" lon="4.66594">
        <ele>216</ele>
        <time>2018-09-01T10:43:19Z</time>
      </trkpt>
      <trkpt lat="45.86085" lon="4.66598">
        <ele>216</ele>
        <time>2018-09-01T10:43:20Z</time>
      </trkpt>
      <trkpt lat="45.86078" lon="4.66601">
        <ele>212</ele>
        <time>2018-09-01T10:43:21Z</time>
      </trkpt>
      <trkpt lat="45.86073" lon="4.66604">
        <ele>212</ele>
        <time>2018-09-01T10:43:22Z</time>
      </trkpt>
      <trkpt lat="45.86068" lon="4.66608">
        <ele>213</ele>
        <time>2018-09-01T10:43:23Z</time>
      </trkpt>
      <trkpt lat="45.86062" lon="4.66611">
        <ele>213</ele>
        <time>2018-09-01T10:43:24Z</time>
      </trkpt>
      <trkpt lat="45.86057" lon="4.66615">
        <ele>213</ele>
        <time>2018-09-01T10:43:25Z</time>
      </trkpt>
      <trkpt lat="45.86052" lon="4.6662">
        <ele>213</ele>
        <time>2018-09-01T10:43:26Z</time>
      </trkpt>
      <trkpt lat="45.86047" lon="4.66624">
        <ele>213</ele>
        <time>2018-09-01T10:43:27Z</time>
      </trkpt>
      <trkpt lat="45.86042" lon="4.66629">
        <ele>213</ele>
        <time>2018-09-01T10:43:28Z</time>
      </trkpt>
      <trkpt lat="45.86037" lon="4.66632">
        <ele>213</ele>
        <time>2018-09-01T10:43:29Z</time>
      </trkpt>
      <trkpt lat="45.86032" lon="4.66637">
        <ele>213</ele>
        <time>2018-09-01T10:43:30Z</time>
      </trkpt>
      <trkpt lat="45.86026" lon="4.66642">
        <ele>213</ele>
        <time>2018-09-01T10:43:31Z</time>
      </trkpt>
      <trkpt lat="45.8602" lon="4.66649">
        <ele>213</ele>
        <time>2018-09-01T10:43:32Z</time>
      </trkpt>
      <trkpt lat="45.86016" lon="4.66655">
        <ele>213</ele>
        <time>2018-09-01T10:43:33Z</time>
      </trkpt>
      <trkpt lat="45.86013" lon="4.66661">
        <ele>212</ele>
        <time>2018-09-01T10:43:34Z</time>
      </trkpt>
      <trkpt lat="45.86008" lon="4.66664">
        <ele>212</ele>
        <time>2018-09-01T10:43:35Z</time>
      </trkpt>
      <trkpt lat="45.86004" lon="4.66671">
        <ele>213</ele>
        <time>2018-09-01T10:43:36Z</time>
      </trkpt>
      <trkpt lat="45.86001" lon="4.66677">
        <ele>215</ele>
        <time>2018-09-01T10:43:37Z</time>
      </trkpt>
      <trkpt lat="45.85996" lon="4.66683">
        <ele>213</ele>
        <time>2018-09-01T10:43:38Z</time>
      </trkpt>
      <trkpt lat="45.85992" lon="4.66689">
        <ele>214</ele>
        <time>2018-09-01T10:43:39Z</time>
      </trkpt>
      <trkpt lat="45.85988" lon="4.66696">
        <ele>215</ele>
        <time>2018-09-01T10:43:40Z</time>
      </trkpt>
      <trkpt lat="45.85985" lon="4.667">
        <ele>215</ele>
        <time>2018-09-01T10:43:41Z</time>
      </trkpt>
      <trkpt lat="45.85981" lon="4.66707">
        <ele>215</ele>
        <time>2018-09-01T10:43:42Z</time>
      </trkpt>
      <trkpt lat="45.85978" lon="4.66716">
        <ele>215</ele>
        <time>2018-09-01T10:43:43Z</time>
      </trkpt>
      <trkpt lat="45.85974" lon="4.66723">
        <ele>215</ele>
        <time>2018-09-01T10:43:44Z</time>
      </trkpt>
      <trkpt lat="45.85971" lon="4.66733">
        <ele>216</ele>
        <time>2018-09-01T10:43:45Z</time>
      </trkpt>
      <trkpt lat="45.85967" lon="4.66743">
        <ele>216</ele>
        <time>2018-09-01T10:43:46Z</time>
      </trkpt>
      <trkpt lat="45.85966" lon="4.66755">
        <ele>214</ele>
        <time>2018-09-01T10:43:47Z</time>
      </trkpt>
      <trkpt lat="45.85964" lon="4.66763">
        <ele>214</ele>
        <time>2018-09-01T10:43:48Z</time>
      </trkpt>
      <trkpt lat="45.8596" lon="4.66771">
        <ele>214</ele>
        <time>2018-09-01T10:43:49Z</time>
      </trkpt>
      <trkpt lat="45.85958" lon="4.66779">
        <ele>213</ele>
        <time>2018-09-01T10:43:50Z</time>
      </trkpt>
      <trkpt lat="45.85955" lon="4.66787">
        <ele>213</ele>
        <time>2018-09-01T10:43:51Z</time>
      </trkpt>
      <trkpt lat="45.85953" lon="4.66795">
        <ele>213</ele>
        <time>2018-09-01T10:43:52Z</time>
      </trkpt>
      <trkpt lat="45.8595" lon="4.66803">
        <ele>213</ele>
        <time>2018-09-01T10:43:53Z</time>
      </trkpt>
      <trkpt lat="45.85947" lon="4.6681">
        <ele>212</ele>
        <time>2018-09-01T10:43:54Z</time>
      </trkpt>
      <trkpt lat="45.85944" lon="4.66816">
        <ele>212</ele>
        <time>2018-09-01T10:43:55Z</time>
      </trkpt>
      <trkpt lat="45.85942" lon="4.66823">
        <ele>212</ele>
        <time>2018-09-01T10:43:56Z</time>
      </trkpt>
      <trkpt lat="45.8594" lon="4.66832">
        <ele>212</ele>
        <time>2018-09-01T10:43:57Z</time>
      </trkpt>
      <trkpt lat="45.85936" lon="4.6684">
        <ele>210</ele>
        <time>2018-09-01T10:43:58Z</time>
      </trkpt>
      <trkpt lat="45.85934" lon="4.6685">
        <ele>210</ele>
        <time>2018-09-01T10:43:59Z</time>
      </trkpt>
      <trkpt lat="45.85932" lon="4.6686">
        <ele>210</ele>
        <time>2018-09-01T10:44:00Z</time>
      </trkpt>
      <trkpt lat="45.8593" lon="4.66869">
        <ele>210</ele>
        <time>2018-09-01T10:44:01Z</time>
      </trkpt>
      <trkpt lat="45.85928" lon="4.66878">
        <ele>210</ele>
        <time>2018-09-01T10:44:02Z</time>
      </trkpt>
      <trkpt lat="45.85925" lon="4.66884">
        <ele>210</ele>
        <time>2018-09-01T10:44:03Z</time>
      </trkpt>
      <trkpt lat="45.85922" lon="4.66891">
        <ele>209</ele>
        <time>2018-09-01T10:44:04Z</time>
      </trkpt>
      <trkpt lat="45.85921" lon="4.66903">
        <ele>209</ele>
        <time>2018-09-01T10:44:05Z</time>
      </trkpt>
      <trkpt lat="45.85918" lon="4.6691">
        <ele>208</ele>
        <time>2018-09-01T10:44:06Z</time>
      </trkpt>
      <trkpt lat="45.85917" lon="4.66917">
        <ele>207</ele>
        <time>2018-09-01T10:44:07Z</time>
      </trkpt>
      <trkpt lat="45.85914" lon="4.66922">
        <ele>207</ele>
        <time>2018-09-01T10:44:08Z</time>
      </trkpt>
      <trkpt lat="45.85914" lon="4.6693">
        <ele>207</ele>
        <time>2018-09-01T10:44:09Z</time>
      </trkpt>
      <trkpt lat="45.85911" lon="4.6694">
        <ele>207</ele>
        <time>2018-09-01T10:44:11Z</time>
      </trkpt>
      <trkpt lat="45.85911" lon="4.66951">
        <ele>207</ele>
        <time>2018-09-01T10:44:12Z</time>
      </trkpt>
      <trkpt lat="45.85909" lon="4.66957">
        <ele>207</ele>
        <time>2018-09-01T10:44:13Z</time>
      </trkpt>
      <trkpt lat="45.85902" lon="4.66958">
        <ele>207</ele>
        <time>2018-09-01T10:44:14Z</time>
      </trkpt>
      <trkpt lat="45.85898" lon="4.66965">
        <ele>207</ele>
        <time>2018-09-01T10:44:15Z</time>
      </trkpt>
      <trkpt lat="45.85896" lon="4.66971">
        <ele>207</ele>
        <time>2018-09-01T10:44:16Z</time>
      </trkpt>
      <trkpt lat="45.85897" lon="4.66984">
        <ele>207</ele>
        <time>2018-09-01T10:44:18Z</time>
      </trkpt>
      <trkpt lat="45.85898" lon="4.66991">
        <ele>207</ele>
        <time>2018-09-01T10:44:19Z</time>
      </trkpt>
      <trkpt lat="45.859" lon="4.67003">
        <ele>206</ele>
        <time>2018-09-01T10:44:21Z</time>
      </trkpt>
      <trkpt lat="45.859" lon="4.6701">
        <ele>205</ele>
        <time>2018-09-01T10:44:22Z</time>
      </trkpt>
      <trkpt lat="45.85899" lon="4.67017">
        <ele>205</ele>
        <time>2018-09-01T10:44:23Z</time>
      </trkpt>
      <trkpt lat="45.85898" lon="4.67025">
        <ele>205</ele>
        <time>2018-09-01T10:44:24Z</time>
      </trkpt>
      <trkpt lat="45.85897" lon="4.67034">
        <ele>205</ele>
        <time>2018-09-01T10:44:25Z</time>
      </trkpt>
      <trkpt lat="45.85896" lon="4.67041">
        <ele>205</ele>
        <time>2018-09-01T10:44:26Z</time>
      </trkpt>
      <trkpt lat="45.85894" lon="4.67049">
        <ele>205</ele>
        <time>2018-09-01T10:44:27Z</time>
      </trkpt>
      <trkpt lat="45.85894" lon="4.67058">
        <ele>205</ele>
        <time>2018-09-01T10:44:28Z</time>
      </trkpt>
      <trkpt lat="45.85893" lon="4.67069">
        <ele>205</ele>
        <time>2018-09-01T10:44:29Z</time>
      </trkpt>
      <trkpt lat="45.85891" lon="4.67079">
        <ele>205</ele>
        <time>2018-09-01T10:44:30Z</time>
      </trkpt>
      <trkpt lat="45.8589" lon="4.67087">
        <ele>204</ele>
        <time>2018-09-01T10:44:31Z</time>
      </trkpt>
      <trkpt lat="45.85888" lon="4.67096">
        <ele>204</ele>
        <time>2018-09-01T10:44:32Z</time>
      </trkpt>
      <trkpt lat="45.85888" lon="4.67104">
        <ele>204</ele>
        <time>2018-09-01T10:44:33Z</time>
      </trkpt>
      <trkpt lat="45.85887" lon="4.67113">
        <ele>204</ele>
        <time>2018-09-01T10:44:34Z</time>
      </trkpt>
      <trkpt lat="45.85883" lon="4.67123">
        <ele>204</ele>
        <time>2018-09-01T10:44:36Z</time>
      </trkpt>
      <trkpt lat="45.85882" lon="4.67131">
        <ele>204</ele>
        <time>2018-09-01T10:44:37Z</time>
      </trkpt>
      <trkpt lat="45.85882" lon="4.67141">
        <ele>204</ele>
        <time>2018-09-01T10:44:38Z</time>
      </trkpt>
      <trkpt lat="45.85881" lon="4.6715">
        <ele>204</ele>
        <time>2018-09-01T10:44:39Z</time>
      </trkpt>
      <trkpt lat="45.8588" lon="4.6716">
        <ele>204</ele>
        <time>2018-09-01T10:44:40Z</time>
      </trkpt>
      <trkpt lat="45.8588" lon="4.67169">
        <ele>204</ele>
        <time>2018-09-01T10:44:41Z</time>
      </trkpt>
      <trkpt lat="45.8588" lon="4.67178">
        <ele>204</ele>
        <time>2018-09-01T10:44:42Z</time>
      </trkpt>
      <trkpt lat="45.8588" lon="4.67186">
        <ele>204</ele>
        <time>2018-09-01T10:44:43Z</time>
      </trkpt>
      <trkpt lat="45.85879" lon="4.67194">
        <ele>204</ele>
        <time>2018-09-01T10:44:44Z</time>
      </trkpt>
      <trkpt lat="45.85878" lon="4.672">
        <ele>204</ele>
        <time>2018-09-01T10:44:45Z</time>
      </trkpt>
      <trkpt lat="45.85876" lon="4.67209">
        <ele>204</ele>
        <time>2018-09-01T10:44:46Z</time>
      </trkpt>
      <trkpt lat="45.85876" lon="4.67216">
        <ele>204</ele>
        <time>2018-09-01T10:44:47Z</time>
      </trkpt>
      <trkpt lat="45.85875" lon="4.67225">
        <ele>204</ele>
        <time>2018-09-01T10:44:48Z</time>
      </trkpt>
      <trkpt lat="45.85873" lon="4.67232">
        <ele>204</ele>
        <time>2018-09-01T10:44:49Z</time>
      </trkpt>
      <trkpt lat="45.85872" lon="4.67243">
        <ele>204</ele>
        <time>2018-09-01T10:44:50Z</time>
      </trkpt>
      <trkpt lat="45.85871" lon="4.67252">
        <ele>205</ele>
        <time>2018-09-01T10:44:51Z</time>
      </trkpt>
      <trkpt lat="45.85871" lon="4.67261">
        <ele>205</ele>
        <time>2018-09-01T10:44:52Z</time>
      </trkpt>
      <trkpt lat="45.85872" lon="4.6727">
        <ele>205</ele>
        <time>2018-09-01T10:44:53Z</time>
      </trkpt>
      <trkpt lat="45.85871" lon="4.6728">
        <ele>205</ele>
        <time>2018-09-01T10:44:54Z</time>
      </trkpt>
      <trkpt lat="45.8587" lon="4.67287">
        <ele>205</ele>
        <time>2018-09-01T10:44:55Z</time>
      </trkpt>
      <trkpt lat="45.85869" lon="4.67295">
        <ele>205</ele>
        <time>2018-09-01T10:44:56Z</time>
      </trkpt>
      <trkpt lat="45.85868" lon="4.67301">
        <ele>205</ele>
        <time>2018-09-01T10:44:57Z</time>
      </trkpt>
      <trkpt lat="45.85867" lon="4.6731">
        <ele>205</ele>
        <time>2018-09-01T10:44:58Z</time>
      </trkpt>
      <trkpt lat="45.85868" lon="4.67318">
        <ele>205</ele>
        <time>2018-09-01T10:44:59Z</time>
      </trkpt>
      <trkpt lat="45.85867" lon="4.67327">
        <ele>205</ele>
        <time>2018-09-01T10:45:00Z</time>
      </trkpt>
      <trkpt lat="45.85866" lon="4.67337">
        <ele>207</ele>
        <time>2018-09-01T10:45:01Z</time>
      </trkpt>
      <trkpt lat="45.85864" lon="4.67346">
        <ele>207</ele>
        <time>2018-09-01T10:45:02Z</time>
      </trkpt>
      <trkpt lat="45.85863" lon="4.67356">
        <ele>208</ele>
        <time>2018-09-01T10:45:03Z</time>
      </trkpt>
      <trkpt lat="45.85861" lon="4.67364">
        <ele>208</ele>
        <time>2018-09-01T10:45:04Z</time>
      </trkpt>
      <trkpt lat="45.85861" lon="4.67374">
        <ele>208</ele>
        <time>2018-09-01T10:45:05Z</time>
      </trkpt>
      <trkpt lat="45.8586" lon="4.67383">
        <ele>208</ele>
        <time>2018-09-01T10:45:06Z</time>
      </trkpt>
      <trkpt lat="45.85861" lon="4.67392">
        <ele>208</ele>
        <time>2018-09-01T10:45:07Z</time>
      </trkpt>
      <trkpt lat="45.85861" lon="4.67402">
        <ele>208</ele>
        <time>2018-09-01T10:45:08Z</time>
      </trkpt>
      <trkpt lat="45.85859" lon="4.67412">
        <ele>208</ele>
        <time>2018-09-01T10:45:09Z</time>
      </trkpt>
      <trkpt lat="45.85857" lon="4.6742">
        <ele>210</ele>
        <time>2018-09-01T10:45:10Z</time>
      </trkpt>
      <trkpt lat="45.85856" lon="4.67429">
        <ele>211</ele>
        <time>2018-09-01T10:45:11Z</time>
      </trkpt>
      <trkpt lat="45.85855" lon="4.67437">
        <ele>211</ele>
        <time>2018-09-01T10:45:12Z</time>
      </trkpt>
      <trkpt lat="45.85854" lon="4.67445">
        <ele>212</ele>
        <time>2018-09-01T10:45:13Z</time>
      </trkpt>
      <trkpt lat="45.85851" lon="4.67452">
        <ele>212</ele>
        <time>2018-09-01T10:45:14Z</time>
      </trkpt>
      <trkpt lat="45.85847" lon="4.67461">
        <ele>212</ele>
        <time>2018-09-01T10:45:15Z</time>
      </trkpt>
      <trkpt lat="45.85844" lon="4.67469">
        <ele>212</ele>
        <time>2018-09-01T10:45:16Z</time>
      </trkpt>
      <trkpt lat="45.85842" lon="4.67477">
        <ele>211</ele>
        <time>2018-09-01T10:45:17Z</time>
      </trkpt>
      <trkpt lat="45.85839" lon="4.67485">
        <ele>210</ele>
        <time>2018-09-01T10:45:18Z</time>
      </trkpt>
      <trkpt lat="45.85835" lon="4.6749">
        <ele>209</ele>
        <time>2018-09-01T10:45:19Z</time>
      </trkpt>
      <trkpt lat="45.8583" lon="4.67498">
        <ele>206</ele>
        <time>2018-09-01T10:45:20Z</time>
      </trkpt>
      <trkpt lat="45.85826" lon="4.67507">
        <ele>207</ele>
        <time>2018-09-01T10:45:21Z</time>
      </trkpt>
      <trkpt lat="45.85822" lon="4.67513">
        <ele>208</ele>
        <time>2018-09-01T10:45:22Z</time>
      </trkpt>
      <trkpt lat="45.85818" lon="4.6752">
        <ele>209</ele>
        <time>2018-09-01T10:45:23Z</time>
      </trkpt>
      <trkpt lat="45.85815" lon="4.67529">
        <ele>209</ele>
        <time>2018-09-01T10:45:24Z</time>
      </trkpt>
      <trkpt lat="45.85811" lon="4.67535">
        <ele>210</ele>
        <time>2018-09-01T10:45:25Z</time>
      </trkpt>
      <trkpt lat="45.85808" lon="4.67542">
        <ele>210</ele>
        <time>2018-09-01T10:45:26Z</time>
      </trkpt>
      <trkpt lat="45.85802" lon="4.67547">
        <ele>210</ele>
        <time>2018-09-01T10:45:27Z</time>
      </trkpt>
      <trkpt lat="45.85797" lon="4.67554">
        <ele>210</ele>
        <time>2018-09-01T10:45:28Z</time>
      </trkpt>
      <trkpt lat="45.85792" lon="4.67561">
        <ele>210</ele>
        <time>2018-09-01T10:45:29Z</time>
      </trkpt>
      <trkpt lat="45.85788" lon="4.67567">
        <ele>210</ele>
        <time>2018-09-01T10:45:30Z</time>
      </trkpt>
      <trkpt lat="45.85782" lon="4.67574">
        <ele>210</ele>
        <time>2018-09-01T10:45:31Z</time>
      </trkpt>
      <trkpt lat="45.85777" lon="4.67581">
        <ele>209</ele>
        <time>2018-09-01T10:45:32Z</time>
      </trkpt>
      <trkpt lat="45.85773" lon="4.67586">
        <ele>216</ele>
        <time>2018-09-01T10:45:33Z</time>
      </trkpt>
      <trkpt lat="45.85768" lon="4.67592">
        <ele>215</ele>
        <time>2018-09-01T10:45:34Z</time>
      </trkpt>
      <trkpt lat="45.85762" lon="4.67596">
        <ele>214</ele>
        <time>2018-09-01T10:45:35Z</time>
      </trkpt>
      <trkpt lat="45.85757" lon="4.67603">
        <ele>215</ele>
        <time>2018-09-01T10:45:36Z</time>
      </trkpt>
      <trkpt lat="45.85749" lon="4.67609">
        <ele>210</ele>
        <time>2018-09-01T10:45:37Z</time>
      </trkpt>
      <trkpt lat="45.85744" lon="4.67612">
        <ele>210</ele>
        <time>2018-09-01T10:45:38Z</time>
      </trkpt>
      <trkpt lat="45.85739" lon="4.67618">
        <ele>211</ele>
        <time>2018-09-01T10:45:39Z</time>
      </trkpt>
      <trkpt lat="45.85735" lon="4.67624">
        <ele>211</ele>
        <time>2018-09-01T10:45:40Z</time>
      </trkpt>
      <trkpt lat="45.85731" lon="4.67629">
        <ele>212</ele>
        <time>2018-09-01T10:45:41Z</time>
      </trkpt>
      <trkpt lat="45.85725" lon="4.67631">
        <ele>212</ele>
        <time>2018-09-01T10:45:42Z</time>
      </trkpt>
      <trkpt lat="45.85721" lon="4.67636">
        <ele>212</ele>
        <time>2018-09-01T10:45:43Z</time>
      </trkpt>
      <trkpt lat="45.85716" lon="4.6764">
        <ele>212</ele>
        <time>2018-09-01T10:45:44Z</time>
      </trkpt>
      <trkpt lat="45.85709" lon="4.67643">
        <ele>211</ele>
        <time>2018-09-01T10:45:45Z</time>
      </trkpt>
      <trkpt lat="45.85702" lon="4.67648">
        <ele>211</ele>
        <time>2018-09-01T10:45:46Z</time>
      </trkpt>
      <trkpt lat="45.85696" lon="4.67657">
        <ele>211</ele>
        <time>2018-09-01T10:45:47Z</time>
      </trkpt>
      <trkpt lat="45.8569" lon="4.67662">
        <ele>211</ele>
        <time>2018-09-01T10:45:48Z</time>
      </trkpt>
      <trkpt lat="45.85682" lon="4.67665">
        <ele>210</ele>
        <time>2018-09-01T10:45:49Z</time>
      </trkpt>
      <trkpt lat="45.85676" lon="4.67667">
        <ele>213</ele>
        <time>2018-09-01T10:45:50Z</time>
      </trkpt>
      <trkpt lat="45.8567" lon="4.67672">
        <ele>212</ele>
        <time>2018-09-01T10:45:51Z</time>
      </trkpt>
      <trkpt lat="45.85664" lon="4.67676">
        <ele>209</ele>
        <time>2018-09-01T10:45:52Z</time>
      </trkpt>
      <trkpt lat="45.85659" lon="4.67679">
        <ele>209</ele>
        <time>2018-09-01T10:45:53Z</time>
      </trkpt>
      <trkpt lat="45.85652" lon="4.67683">
        <ele>209</ele>
        <time>2018-09-01T10:45:54Z</time>
      </trkpt>
      <trkpt lat="45.85647" lon="4.67687">
        <ele>209</ele>
        <time>2018-09-01T10:45:55Z</time>
      </trkpt>
      <trkpt lat="45.8564" lon="4.6769">
        <ele>209</ele>
        <time>2018-09-01T10:45:56Z</time>
      </trkpt>
      <trkpt lat="45.85634" lon="4.67699">
        <ele>209</ele>
        <time>2018-09-01T10:45:57Z</time>
      </trkpt>
      <trkpt lat="45.85629" lon="4.67706">
        <ele>209</ele>
        <time>2018-09-01T10:45:58Z</time>
      </trkpt>
      <trkpt lat="45.85624" lon="4.67712">
        <ele>209</ele>
        <time>2018-09-01T10:45:59Z</time>
      </trkpt>
      <trkpt lat="45.85618" lon="4.67719">
        <ele>209</ele>
        <time>2018-09-01T10:46:00Z</time>
      </trkpt>
      <trkpt lat="45.85613" lon="4.67726">
        <ele>208</ele>
        <time>2018-09-01T10:46:01Z</time>
      </trkpt>
      <trkpt lat="45.8561" lon="4.67732">
        <ele>208</ele>
        <time>2018-09-01T10:46:02Z</time>
      </trkpt>
      <trkpt lat="45.85605" lon="4.67738">
        <ele>207</ele>
        <time>2018-09-01T10:46:03Z</time>
      </trkpt>
      <trkpt lat="45.85602" lon="4.67743">
        <ele>207</ele>
        <time>2018-09-01T10:46:04Z</time>
      </trkpt>
      <trkpt lat="45.85598" lon="4.6775">
        <ele>206</ele>
        <time>2018-09-01T10:46:05Z</time>
      </trkpt>
      <trkpt lat="45.85594" lon="4.67755">
        <ele>207</ele>
        <time>2018-09-01T10:46:06Z</time>
      </trkpt>
      <trkpt lat="45.85591" lon="4.67762">
        <ele>207</ele>
        <time>2018-09-01T10:46:07Z</time>
      </trkpt>
      <trkpt lat="45.85589" lon="4.67769">
        <ele>208</ele>
        <time>2018-09-01T10:46:08Z</time>
      </trkpt>
      <trkpt lat="45.85586" lon="4.67777">
        <ele>209</ele>
        <time>2018-09-01T10:46:09Z</time>
      </trkpt>
      <trkpt lat="45.85584" lon="4.67784">
        <ele>209</ele>
        <time>2018-09-01T10:46:10Z</time>
      </trkpt>
      <trkpt lat="45.85583" lon="4.67792">
        <ele>206</ele>
        <time>2018-09-01T10:46:11Z</time>
      </trkpt>
      <trkpt lat="45.85581" lon="4.67799">
        <ele>206</ele>
        <time>2018-09-01T10:46:12Z</time>
      </trkpt>
      <trkpt lat="45.85579" lon="4.67808">
        <ele>206</ele>
        <time>2018-09-01T10:46:13Z</time>
      </trkpt>
      <trkpt lat="45.85576" lon="4.67815">
        <ele>206</ele>
        <time>2018-09-01T10:46:14Z</time>
      </trkpt>
      <trkpt lat="45.85573" lon="4.67824">
        <ele>206</ele>
        <time>2018-09-01T10:46:15Z</time>
      </trkpt>
      <trkpt lat="45.85571" lon="4.67833">
        <ele>206</ele>
        <time>2018-09-01T10:46:16Z</time>
      </trkpt>
      <trkpt lat="45.8557" lon="4.67841">
        <ele>206</ele>
        <time>2018-09-01T10:46:17Z</time>
      </trkpt>
      <trkpt lat="45.85569" lon="4.6785">
        <ele>206</ele>
        <time>2018-09-01T10:46:18Z</time>
      </trkpt>
      <trkpt lat="45.85567" lon="4.67857">
        <ele>207</ele>
        <time>2018-09-01T10:46:19Z</time>
      </trkpt>
      <trkpt lat="45.85567" lon="4.67867">
        <ele>207</ele>
        <time>2018-09-01T10:46:20Z</time>
      </trkpt>
      <trkpt lat="45.85569" lon="4.67877">
        <ele>207</ele>
        <time>2018-09-01T10:46:21Z</time>
      </trkpt>
      <trkpt lat="45.8557" lon="4.67884">
        <ele>206</ele>
        <time>2018-09-01T10:46:22Z</time>
      </trkpt>
      <trkpt lat="45.8557" lon="4.67891">
        <ele>206</ele>
        <time>2018-09-01T10:46:23Z</time>
      </trkpt>
      <trkpt lat="45.8557" lon="4.67899">
        <ele>206</ele>
        <time>2018-09-01T10:46:24Z</time>
      </trkpt>
      <trkpt lat="45.85571" lon="4.67908">
        <ele>206</ele>
        <time>2018-09-01T10:46:25Z</time>
      </trkpt>
      <trkpt lat="45.85569" lon="4.67914">
        <ele>206</ele>
        <time>2018-09-01T10:46:26Z</time>
      </trkpt>
      <trkpt lat="45.85568" lon="4.6792">
        <ele>205</ele>
        <time>2018-09-01T10:46:27Z</time>
      </trkpt>
      <trkpt lat="45.85564" lon="4.67924">
        <ele>205</ele>
        <time>2018-09-01T10:46:28Z</time>
      </trkpt>
      <trkpt lat="45.8556" lon="4.67928">
        <ele>205</ele>
        <time>2018-09-01T10:46:29Z</time>
      </trkpt>
      <trkpt lat="45.85556" lon="4.67931">
        <ele>205</ele>
        <time>2018-09-01T10:46:30Z</time>
      </trkpt>
      <trkpt lat="45.85551" lon="4.67935">
        <ele>205</ele>
        <time>2018-09-01T10:46:31Z</time>
      </trkpt>
      <trkpt lat="45.85546" lon="4.67939">
        <ele>205</ele>
        <time>2018-09-01T10:46:32Z</time>
      </trkpt>
      <trkpt lat="45.85542" lon="4.67944">
        <ele>206</ele>
        <time>2018-09-01T10:46:33Z</time>
      </trkpt>
      <trkpt lat="45.85537" lon="4.67947">
        <ele>206</ele>
        <time>2018-09-01T10:46:34Z</time>
      </trkpt>
      <trkpt lat="45.85533" lon="4.67951">
        <ele>206</ele>
        <time>2018-09-01T10:46:35Z</time>
      </trkpt>
      <trkpt lat="45.85528" lon="4.67955">
        <ele>206</ele>
        <time>2018-09-01T10:46:36Z</time>
      </trkpt>
      <trkpt lat="45.85524" lon="4.67958">
        <ele>206</ele>
        <time>2018-09-01T10:46:37Z</time>
      </trkpt>
      <trkpt lat="45.8552" lon="4.67962">
        <ele>206</ele>
        <time>2018-09-01T10:46:38Z</time>
      </trkpt>
      <trkpt lat="45.85516" lon="4.67967">
        <ele>206</ele>
        <time>2018-09-01T10:46:39Z</time>
      </trkpt>
      <trkpt lat="45.85508" lon="4.67973">
        <ele>206</ele>
        <time>2018-09-01T10:46:41Z</time>
      </trkpt>
      <trkpt lat="45.85505" lon="4.67978">
        <ele>206</ele>
        <time>2018-09-01T10:46:42Z</time>
      </trkpt>
      <trkpt lat="45.85501" lon="4.6798">
        <ele>206</ele>
        <time>2018-09-01T10:46:43Z</time>
      </trkpt>
      <trkpt lat="45.85496" lon="4.67986">
        <ele>208</ele>
        <time>2018-09-01T10:46:44Z</time>
      </trkpt>
      <trkpt lat="45.8549" lon="4.67991">
        <ele>208</ele>
        <time>2018-09-01T10:46:45Z</time>
      </trkpt>
      <trkpt lat="45.85484" lon="4.67994">
        <ele>209</ele>
        <time>2018-09-01T10:46:46Z</time>
      </trkpt>
      <trkpt lat="45.85478" lon="4.68001">
        <ele>207</ele>
        <time>2018-09-01T10:46:48Z</time>
      </trkpt>
      <trkpt lat="45.85476" lon="4.68007">
        <ele>207</ele>
        <time>2018-09-01T10:46:49Z</time>
      </trkpt>
      <trkpt lat="45.85476" lon="4.68017">
        <ele>207</ele>
        <time>2018-09-01T10:46:51Z</time>
      </trkpt>
      <trkpt lat="45.8548" lon="4.68025">
        <ele>207</ele>
        <time>2018-09-01T10:46:52Z</time>
      </trkpt>
      <trkpt lat="45.85483" lon="4.68034">
        <ele>207</ele>
        <time>2018-09-01T10:46:53Z</time>
      </trkpt>
      <trkpt lat="45.85484" lon="4.68038">
        <ele>207</ele>
        <time>2018-09-01T10:46:54Z</time>
      </trkpt>
      <trkpt lat="45.85487" lon="4.68045">
        <ele>206</ele>
        <time>2018-09-01T10:46:55Z</time>
      </trkpt>
      <trkpt lat="45.85488" lon="4.68058">
        <ele>206</ele>
        <time>2018-09-01T10:46:56Z</time>
      </trkpt>
      <trkpt lat="45.85488" lon="4.68066">
        <ele>206</ele>
        <time>2018-09-01T10:46:57Z</time>
      </trkpt>
      <trkpt lat="45.85489" lon="4.68075">
        <ele>205</ele>
        <time>2018-09-01T10:46:58Z</time>
      </trkpt>
      <trkpt lat="45.85491" lon="4.68085">
        <ele>204</ele>
        <time>2018-09-01T10:46:59Z</time>
      </trkpt>
      <trkpt lat="45.85491" lon="4.68093">
        <ele>204</ele>
        <time>2018-09-01T10:47:00Z</time>
      </trkpt>
      <trkpt lat="45.85491" lon="4.68098">
        <ele>204</ele>
        <time>2018-09-01T10:47:01Z</time>
      </trkpt>
      <trkpt lat="45.85494" lon="4.68108">
        <ele>204</ele>
        <time>2018-09-01T10:47:02Z</time>
      </trkpt>
      <trkpt lat="45.85497" lon="4.68118">
        <ele>204</ele>
        <time>2018-09-01T10:47:03Z</time>
      </trkpt>
      <trkpt lat="45.85497" lon="4.68126">
        <ele>204</ele>
        <time>2018-09-01T10:47:04Z</time>
      </trkpt>
      <trkpt lat="45.85497" lon="4.68134">
        <ele>204</ele>
        <time>2018-09-01T10:47:05Z</time>
      </trkpt>
      <trkpt lat="45.855" lon="4.68143">
        <ele>204</ele>
        <time>2018-09-01T10:47:06Z</time>
      </trkpt>
      <trkpt lat="45.855" lon="4.68151">
        <ele>204</ele>
        <time>2018-09-01T10:47:07Z</time>
      </trkpt>
      <trkpt lat="45.855" lon="4.68159">
        <ele>204</ele>
        <time>2018-09-01T10:47:08Z</time>
      </trkpt>
      <trkpt lat="45.85505" lon="4.68168">
        <ele>204</ele>
        <time>2018-09-01T10:47:09Z</time>
      </trkpt>
      <trkpt lat="45.85506" lon="4.68179">
        <ele>204</ele>
        <time>2018-09-01T10:47:10Z</time>
      </trkpt>
      <trkpt lat="45.85507" lon="4.68189">
        <ele>203</ele>
        <time>2018-09-01T10:47:11Z</time>
      </trkpt>
      <trkpt lat="45.85508" lon="4.68199">
        <ele>203</ele>
        <time>2018-09-01T10:47:12Z</time>
      </trkpt>
      <trkpt lat="45.85508" lon="4.68208">
        <ele>203</ele>
        <time>2018-09-01T10:47:13Z</time>
      </trkpt>
      <trkpt lat="45.85509" lon="4.68217">
        <ele>203</ele>
        <time>2018-09-01T10:47:14Z</time>
      </trkpt>
      <trkpt lat="45.8551" lon="4.68226">
        <ele>203</ele>
        <time>2018-09-01T10:47:15Z</time>
      </trkpt>
      <trkpt lat="45.85511" lon="4.68235">
        <ele>203</ele>
        <time>2018-09-01T10:47:16Z</time>
      </trkpt>
      <trkpt lat="45.85511" lon="4.68244">
        <ele>203</ele>
        <time>2018-09-01T10:47:17Z</time>
      </trkpt>
      <trkpt lat="45.85512" lon="4.68252">
        <ele>203</ele>
        <time>2018-09-01T10:47:18Z</time>
      </trkpt>
      <trkpt lat="45.85513" lon="4.6826">
        <ele>203</ele>
        <time>2018-09-01T10:47:19Z</time>
      </trkpt>
      <trkpt lat="45.85514" lon="4.68269">
        <ele>202</ele>
        <time>2018-09-01T10:47:20Z</time>
      </trkpt>
      <trkpt lat="45.85514" lon="4.68277">
        <ele>202</ele>
        <time>2018-09-01T10:47:21Z</time>
      </trkpt>
      <trkpt lat="45.85514" lon="4.68283">
        <ele>202</ele>
        <time>2018-09-01T10:47:22Z</time>
      </trkpt>
      <trkpt lat="45.85516" lon="4.68291">
        <ele>202</ele>
        <time>2018-09-01T10:47:23Z</time>
      </trkpt>
      <trkpt lat="45.85516" lon="4.68299">
        <ele>202</ele>
        <time>2018-09-01T10:47:24Z</time>
      </trkpt>
      <trkpt lat="45.85517" lon="4.68307">
        <ele>202</ele>
        <time>2018-09-01T10:47:25Z</time>
      </trkpt>
      <trkpt lat="45.85517" lon="4.68313">
        <ele>202</ele>
        <time>2018-09-01T10:47:26Z</time>
      </trkpt>
      <trkpt lat="45.85519" lon="4.68322">
        <ele>202</ele>
        <time>2018-09-01T10:47:27Z</time>
      </trkpt>
      <trkpt lat="45.8552" lon="4.6833">
        <ele>202</ele>
        <time>2018-09-01T10:47:28Z</time>
      </trkpt>
      <trkpt lat="45.85521" lon="4.68337">
        <ele>201</ele>
        <time>2018-09-01T10:47:29Z</time>
      </trkpt>
      <trkpt lat="45.8552" lon="4.68345">
        <ele>201</ele>
        <time>2018-09-01T10:47:30Z</time>
      </trkpt>
      <trkpt lat="45.85523" lon="4.68358">
        <ele>201</ele>
        <time>2018-09-01T10:47:32Z</time>
      </trkpt>
      <trkpt lat="45.85524" lon="4.68366">
        <ele>201</ele>
        <time>2018-09-01T10:47:33Z</time>
      </trkpt>
      <trkpt lat="45.85524" lon="4.68374">
        <ele>201</ele>
        <time>2018-09-01T10:47:34Z</time>
      </trkpt>
      <trkpt lat="45.85526" lon="4.68382">
        <ele>200</ele>
        <time>2018-09-01T10:47:35Z</time>
      </trkpt>
      <trkpt lat="45.85527" lon="4.6839">
        <ele>200</ele>
        <time>2018-09-01T10:47:36Z</time>
      </trkpt>
      <trkpt lat="45.85528" lon="4.68399">
        <ele>200</ele>
        <time>2018-09-01T10:47:37Z</time>
      </trkpt>
      <trkpt lat="45.85528" lon="4.68407">
        <ele>200</ele>
        <time>2018-09-01T10:47:38Z</time>
      </trkpt>
      <trkpt lat="45.85529" lon="4.68416">
        <ele>200</ele>
        <time>2018-09-01T10:47:39Z</time>
      </trkpt>
      <trkpt lat="45.8553" lon="4.68424">
        <ele>200</ele>
        <time>2018-09-01T10:47:40Z</time>
      </trkpt>
      <trkpt lat="45.85531" lon="4.68433">
        <ele>200</ele>
        <time>2018-09-01T10:47:41Z</time>
      </trkpt>
      <trkpt lat="45.85531" lon="4.68441">
        <ele>200</ele>
        <time>2018-09-01T10:47:42Z</time>
      </trkpt>
      <trkpt lat="45.85532" lon="4.6845">
        <ele>200</ele>
        <time>2018-09-01T10:47:43Z</time>
      </trkpt>
      <trkpt lat="45.85532" lon="4.6846">
        <ele>200</ele>
        <time>2018-09-01T10:47:44Z</time>
      </trkpt>
      <trkpt lat="45.85532" lon="4.68469">
        <ele>200</ele>
        <time>2018-09-01T10:47:45Z</time>
      </trkpt>
      <trkpt lat="45.85534" lon="4.68477">
        <ele>200</ele>
        <time>2018-09-01T10:47:46Z</time>
      </trkpt>
      <trkpt lat="45.85534" lon="4.68485">
        <ele>200</ele>
        <time>2018-09-01T10:47:47Z</time>
      </trkpt>
      <trkpt lat="45.85535" lon="4.68493">
        <ele>200</ele>
        <time>2018-09-01T10:47:48Z</time>
      </trkpt>
      <trkpt lat="45.85535" lon="4.685">
        <ele>201</ele>
        <time>2018-09-01T10:47:49Z</time>
      </trkpt>
      <trkpt lat="45.85535" lon="4.68509">
        <ele>201</ele>
        <time>2018-09-01T10:47:50Z</time>
      </trkpt>
      <trkpt lat="45.85538" lon="4.68517">
        <ele>201</ele>
        <time>2018-09-01T10:47:51Z</time>
      </trkpt>
      <trkpt lat="45.85537" lon="4.68525">
        <ele>201</ele>
        <time>2018-09-01T10:47:52Z</time>
      </trkpt>
      <trkpt lat="45.85538" lon="4.68533">
        <ele>201</ele>
        <time>2018-09-01T10:47:53Z</time>
      </trkpt>
      <trkpt lat="45.85539" lon="4.68541">
        <ele>201</ele>
        <time>2018-09-01T10:47:54Z</time>
      </trkpt>
      <trkpt lat="45.85538" lon="4.6855">
        <ele>201</ele>
        <time>2018-09-01T10:47:55Z</time>
      </trkpt>
      <trkpt lat="45.85539" lon="4.6856">
        <ele>201</ele>
        <time>2018-09-01T10:47:56Z</time>
      </trkpt>
      <trkpt lat="45.8554" lon="4.68569">
        <ele>201</ele>
        <time>2018-09-01T10:47:57Z</time>
      </trkpt>
      <trkpt lat="45.8554" lon="4.68578">
        <ele>201</ele>
        <time>2018-09-01T10:47:58Z</time>
      </trkpt>
      <trkpt lat="45.85541" lon="4.68588">
        <ele>201</ele>
        <time>2018-09-01T10:47:59Z</time>
      </trkpt>
      <trkpt lat="45.85542" lon="4.68597">
        <ele>201</ele>
        <time>2018-09-01T10:48:00Z</time>
      </trkpt>
      <trkpt lat="45.85542" lon="4.68607">
        <ele>201</ele>
        <time>2018-09-01T10:48:01Z</time>
      </trkpt>
      <trkpt lat="45.85543" lon="4.68616">
        <ele>201</ele>
        <time>2018-09-01T10:48:02Z</time>
      </trkpt>
      <trkpt lat="45.85544" lon="4.68624">
        <ele>201</ele>
        <time>2018-09-01T10:48:03Z</time>
      </trkpt>
      <trkpt lat="45.85545" lon="4.68633">
        <ele>201</ele>
        <time>2018-09-01T10:48:04Z</time>
      </trkpt>
      <trkpt lat="45.85545" lon="4.6864">
        <ele>201</ele>
        <time>2018-09-01T10:48:05Z</time>
      </trkpt>
      <trkpt lat="45.85546" lon="4.68647">
        <ele>201</ele>
        <time>2018-09-01T10:48:06Z</time>
      </trkpt>
      <trkpt lat="45.85547" lon="4.68656">
        <ele>201</ele>
        <time>2018-09-01T10:48:07Z</time>
      </trkpt>
      <trkpt lat="45.85548" lon="4.68664">
        <ele>200</ele>
        <time>2018-09-01T10:48:08Z</time>
      </trkpt>
      <trkpt lat="45.85549" lon="4.68672">
        <ele>200</ele>
        <time>2018-09-01T10:48:09Z</time>
      </trkpt>
      <trkpt lat="45.8555" lon="4.68681">
        <ele>200</ele>
        <time>2018-09-01T10:48:10Z</time>
      </trkpt>
      <trkpt lat="45.85548" lon="4.68687">
        <ele>200</ele>
        <time>2018-09-01T10:48:11Z</time>
      </trkpt>
      <trkpt lat="45.85548" lon="4.68696">
        <ele>200</ele>
        <time>2018-09-01T10:48:12Z</time>
      </trkpt>
      <trkpt lat="45.85548" lon="4.68704">
        <ele>200</ele>
        <time>2018-09-01T10:48:13Z</time>
      </trkpt>
      <trkpt lat="45.85548" lon="4.68713">
        <ele>200</ele>
        <time>2018-09-01T10:48:14Z</time>
      </trkpt>
      <trkpt lat="45.8555" lon="4.68719">
        <ele>200</ele>
        <time>2018-09-01T10:48:15Z</time>
      </trkpt>
      <trkpt lat="45.8555" lon="4.68726">
        <ele>200</ele>
        <time>2018-09-01T10:48:16Z</time>
      </trkpt>
      <trkpt lat="45.8555" lon="4.68733">
        <ele>200</ele>
        <time>2018-09-01T10:48:17Z</time>
      </trkpt>
      <trkpt lat="45.85551" lon="4.6874">
        <ele>200</ele>
        <time>2018-09-01T10:48:18Z</time>
      </trkpt>
      <trkpt lat="45.85552" lon="4.68749">
        <ele>200</ele>
        <time>2018-09-01T10:48:19Z</time>
      </trkpt>
      <trkpt lat="45.85553" lon="4.68756">
        <ele>200</ele>
        <time>2018-09-01T10:48:20Z</time>
      </trkpt>
      <trkpt lat="45.85554" lon="4.68763">
        <ele>200</ele>
        <time>2018-09-01T10:48:21Z</time>
      </trkpt>
      <trkpt lat="45.85556" lon="4.68771">
        <ele>200</ele>
        <time>2018-09-01T10:48:22Z</time>
      </trkpt>
      <trkpt lat="45.85556" lon="4.68779">
        <ele>200</ele>
        <time>2018-09-01T10:48:23Z</time>
      </trkpt>
      <trkpt lat="45.85557" lon="4.68788">
        <ele>200</ele>
        <time>2018-09-01T10:48:24Z</time>
      </trkpt>
      <trkpt lat="45.85557" lon="4.68796">
        <ele>200</ele>
        <time>2018-09-01T10:48:25Z</time>
      </trkpt>
      <trkpt lat="45.85557" lon="4.68803">
        <ele>200</ele>
        <time>2018-09-01T10:48:26Z</time>
      </trkpt>
      <trkpt lat="45.85558" lon="4.68812">
        <ele>200</ele>
        <time>2018-09-01T10:48:27Z</time>
      </trkpt>
      <trkpt lat="45.85558" lon="4.6882">
        <ele>200</ele>
        <time>2018-09-01T10:48:28Z</time>
      </trkpt>
      <trkpt lat="45.8556" lon="4.68828">
        <ele>200</ele>
        <time>2018-09-01T10:48:29Z</time>
      </trkpt>
      <trkpt lat="45.85561" lon="4.68836">
        <ele>200</ele>
        <time>2018-09-01T10:48:30Z</time>
      </trkpt>
      <trkpt lat="45.85561" lon="4.68843">
        <ele>200</ele>
        <time>2018-09-01T10:48:31Z</time>
      </trkpt>
      <trkpt lat="45.85561" lon="4.68856">
        <ele>200</ele>
        <time>2018-09-01T10:48:33Z</time>
      </trkpt>
      <trkpt lat="45.85562" lon="4.68864">
        <ele>200</ele>
        <time>2018-09-01T10:48:34Z</time>
      </trkpt>
      <trkpt lat="45.85563" lon="4.68872">
        <ele>200</ele>
        <time>2018-09-01T10:48:35Z</time>
      </trkpt>
      <trkpt lat="45.85563" lon="4.68879">
        <ele>200</ele>
        <time>2018-09-01T10:48:36Z</time>
      </trkpt>
      <trkpt lat="45.85564" lon="4.68889">
        <ele>200</ele>
        <time>2018-09-01T10:48:37Z</time>
      </trkpt>
      <trkpt lat="45.85565" lon="4.68897">
        <ele>200</ele>
        <time>2018-09-01T10:48:38Z</time>
      </trkpt>
      <trkpt lat="45.85565" lon="4.68904">
        <ele>200</ele>
        <time>2018-09-01T10:48:39Z</time>
      </trkpt>
      <trkpt lat="45.85567" lon="4.68913">
        <ele>200</ele>
        <time>2018-09-01T10:48:40Z</time>
      </trkpt>
      <trkpt lat="45.85568" lon="4.68921">
        <ele>200</ele>
        <time>2018-09-01T10:48:41Z</time>
      </trkpt>
      <trkpt lat="45.85568" lon="4.68928">
        <ele>200</ele>
        <time>2018-09-01T10:48:42Z</time>
      </trkpt>
      <trkpt lat="45.85569" lon="4.68934">
        <ele>200</ele>
        <time>2018-09-01T10:48:43Z</time>
      </trkpt>
      <trkpt lat="45.8557" lon="4.68941">
        <ele>200</ele>
        <time>2018-09-01T10:48:44Z</time>
      </trkpt>
      <trkpt lat="45.85572" lon="4.68948">
        <ele>200</ele>
        <time>2018-09-01T10:48:45Z</time>
      </trkpt>
      <trkpt lat="45.85573" lon="4.68957">
        <ele>200</ele>
        <time>2018-09-01T10:48:46Z</time>
      </trkpt>
      <trkpt lat="45.85573" lon="4.68966">
        <ele>200</ele>
        <time>2018-09-01T10:48:47Z</time>
      </trkpt>
      <trkpt lat="45.85574" lon="4.68974">
        <ele>200</ele>
        <time>2018-09-01T10:48:48Z</time>
      </trkpt>
      <trkpt lat="45.85574" lon="4.68982">
        <ele>200</ele>
        <time>2018-09-01T10:48:49Z</time>
      </trkpt>
      <trkpt lat="45.85575" lon="4.68993">
        <ele>200</ele>
        <time>2018-09-01T10:48:50Z</time>
      </trkpt>
      <trkpt lat="45.85576" lon="4.69001">
        <ele>200</ele>
        <time>2018-09-01T10:48:51Z</time>
      </trkpt>
      <trkpt lat="45.85577" lon="4.69009">
        <ele>200</ele>
        <time>2018-09-01T10:48:52Z</time>
      </trkpt>
      <trkpt lat="45.85577" lon="4.69018">
        <ele>200</ele>
        <time>2018-09-01T10:48:53Z</time>
      </trkpt>
      <trkpt lat="45.85578" lon="4.69027">
        <ele>200</ele>
        <time>2018-09-01T10:48:54Z</time>
      </trkpt>
      <trkpt lat="45.8558" lon="4.69036">
        <ele>200</ele>
        <time>2018-09-01T10:48:55Z</time>
      </trkpt>
      <trkpt lat="45.85581" lon="4.69045">
        <ele>199</ele>
        <time>2018-09-01T10:48:56Z</time>
      </trkpt>
      <trkpt lat="45.85581" lon="4.69053">
        <ele>199</ele>
        <time>2018-09-01T10:48:57Z</time>
      </trkpt>
      <trkpt lat="45.85581" lon="4.69061">
        <ele>199</ele>
        <time>2018-09-01T10:48:58Z</time>
      </trkpt>
      <trkpt lat="45.85582" lon="4.6907">
        <ele>199</ele>
        <time>2018-09-01T10:48:59Z</time>
      </trkpt>
      <trkpt lat="45.85584" lon="4.69078">
        <ele>199</ele>
        <time>2018-09-01T10:49:00Z</time>
      </trkpt>
      <trkpt lat="45.85584" lon="4.69087">
        <ele>199</ele>
        <time>2018-09-01T10:49:01Z</time>
      </trkpt>
      <trkpt lat="45.85585" lon="4.69095">
        <ele>199</ele>
        <time>2018-09-01T10:49:02Z</time>
      </trkpt>
      <trkpt lat="45.85584" lon="4.69102">
        <ele>199</ele>
        <time>2018-09-01T10:49:03Z</time>
      </trkpt>
      <trkpt lat="45.85585" lon="4.6911">
        <ele>199</ele>
        <time>2018-09-01T10:49:04Z</time>
      </trkpt>
      <trkpt lat="45.85585" lon="4.69117">
        <ele>199</ele>
        <time>2018-09-01T10:49:05Z</time>
      </trkpt>
      <trkpt lat="45.85586" lon="4.69124">
        <ele>199</ele>
        <time>2018-09-01T10:49:06Z</time>
      </trkpt>
      <trkpt lat="45.85586" lon="4.69132">
        <ele>199</ele>
        <time>2018-09-01T10:49:07Z</time>
      </trkpt>
      <trkpt lat="45.85588" lon="4.69142">
        <ele>199</ele>
        <time>2018-09-01T10:49:08Z</time>
      </trkpt>
      <trkpt lat="45.85589" lon="4.69149">
        <ele>199</ele>
        <time>2018-09-01T10:49:09Z</time>
      </trkpt>
      <trkpt lat="45.85589" lon="4.69154">
        <ele>199</ele>
        <time>2018-09-01T10:49:10Z</time>
      </trkpt>
      <trkpt lat="45.8559" lon="4.69161">
        <ele>199</ele>
        <time>2018-09-01T10:49:11Z</time>
      </trkpt>
      <trkpt lat="45.85591" lon="4.6917">
        <ele>199</ele>
        <time>2018-09-01T10:49:12Z</time>
      </trkpt>
      <trkpt lat="45.85592" lon="4.69182">
        <ele>199</ele>
        <time>2018-09-01T10:49:14Z</time>
      </trkpt>
      <trkpt lat="45.85592" lon="4.69189">
        <ele>199</ele>
        <time>2018-09-01T10:49:15Z</time>
      </trkpt>
      <trkpt lat="45.85593" lon="4.69196">
        <ele>199</ele>
        <time>2018-09-01T10:49:16Z</time>
      </trkpt>
      <trkpt lat="45.85594" lon="4.69204">
        <ele>199</ele>
        <time>2018-09-01T10:49:17Z</time>
      </trkpt>
      <trkpt lat="45.85594" lon="4.69212">
        <ele>199</ele>
        <time>2018-09-01T10:49:18Z</time>
      </trkpt>
      <trkpt lat="45.85594" lon="4.69219">
        <ele>199</ele>
        <time>2018-09-01T10:49:19Z</time>
      </trkpt>
      <trkpt lat="45.85594" lon="4.69227">
        <ele>199</ele>
        <time>2018-09-01T10:49:20Z</time>
      </trkpt>
      <trkpt lat="45.85594" lon="4.69235">
        <ele>199</ele>
        <time>2018-09-01T10:49:21Z</time>
      </trkpt>
      <trkpt lat="45.85594" lon="4.69242">
        <ele>199</ele>
        <time>2018-09-01T10:49:22Z</time>
      </trkpt>
      <trkpt lat="45.85593" lon="4.69249">
        <ele>199</ele>
        <time>2018-09-01T10:49:23Z</time>
      </trkpt>
      <trkpt lat="45.85592" lon="4.69257">
        <ele>199</ele>
        <time>2018-09-01T10:49:24Z</time>
      </trkpt>
      <trkpt lat="45.85593" lon="4.69263">
        <ele>199</ele>
        <time>2018-09-01T10:49:25Z</time>
      </trkpt>
      <trkpt lat="45.85596" lon="4.69272">
        <ele>198</ele>
        <time>2018-09-01T10:49:26Z</time>
      </trkpt>
      <trkpt lat="45.85599" lon="4.69278">
        <ele>198</ele>
        <time>2018-09-01T10:49:27Z</time>
      </trkpt>
      <trkpt lat="45.85602" lon="4.69285">
        <ele>198</ele>
        <time>2018-09-01T10:49:28Z</time>
      </trkpt>
      <trkpt lat="45.85604" lon="4.69291">
        <ele>198</ele>
        <time>2018-09-01T10:49:29Z</time>
      </trkpt>
      <trkpt lat="45.85606" lon="4.69299">
        <ele>198</ele>
        <time>2018-09-01T10:49:30Z</time>
      </trkpt>
      <trkpt lat="45.85608" lon="4.69309">
        <ele>198</ele>
        <time>2018-09-01T10:49:31Z</time>
      </trkpt>
      <trkpt lat="45.85609" lon="4.69316">
        <ele>198</ele>
        <time>2018-09-01T10:49:32Z</time>
      </trkpt>
      <trkpt lat="45.85609" lon="4.69324">
        <ele>198</ele>
        <time>2018-09-01T10:49:33Z</time>
      </trkpt>
      <trkpt lat="45.85611" lon="4.69334">
        <ele>198</ele>
        <time>2018-09-01T10:49:34Z</time>
      </trkpt>
      <trkpt lat="45.85611" lon="4.69341">
        <ele>198</ele>
        <time>2018-09-01T10:49:35Z</time>
      </trkpt>
      <trkpt lat="45.85612" lon="4.69349">
        <ele>198</ele>
        <time>2018-09-01T10:49:36Z</time>
      </trkpt>
      <trkpt lat="45.85612" lon="4.69357">
        <ele>198</ele>
        <time>2018-09-01T10:49:37Z</time>
      </trkpt>
      <trkpt lat="45.85612" lon="4.69366">
        <ele>198</ele>
        <time>2018-09-01T10:49:38Z</time>
      </trkpt>
      <trkpt lat="45.85613" lon="4.69375">
        <ele>198</ele>
        <time>2018-09-01T10:49:39Z</time>
      </trkpt>
      <trkpt lat="45.85614" lon="4.69383">
        <ele>198</ele>
        <time>2018-09-01T10:49:40Z</time>
      </trkpt>
      <trkpt lat="45.85614" lon="4.69391">
        <ele>198</ele>
        <time>2018-09-01T10:49:41Z</time>
      </trkpt>
      <trkpt lat="45.85616" lon="4.694">
        <ele>198</ele>
        <time>2018-09-01T10:49:42Z</time>
      </trkpt>
      <trkpt lat="45.85617" lon="4.69407">
        <ele>198</ele>
        <time>2018-09-01T10:49:43Z</time>
      </trkpt>
      <trkpt lat="45.85617" lon="4.69417">
        <ele>198</ele>
        <time>2018-09-01T10:49:44Z</time>
      </trkpt>
      <trkpt lat="45.85618" lon="4.69427">
        <ele>198</ele>
        <time>2018-09-01T10:49:45Z</time>
      </trkpt>
      <trkpt lat="45.85619" lon="4.69436">
        <ele>198</ele>
        <time>2018-09-01T10:49:46Z</time>
      </trkpt>
      <trkpt lat="45.8562" lon="4.69447">
        <ele>198</ele>
        <time>2018-09-01T10:49:47Z</time>
      </trkpt>
      <trkpt lat="45.85622" lon="4.69456">
        <ele>198</ele>
        <time>2018-09-01T10:49:48Z</time>
      </trkpt>
      <trkpt lat="45.85622" lon="4.69464">
        <ele>198</ele>
        <time>2018-09-01T10:49:49Z</time>
      </trkpt>
      <trkpt lat="45.85623" lon="4.69472">
        <ele>198</ele>
        <time>2018-09-01T10:49:50Z</time>
      </trkpt>
      <trkpt lat="45.85624" lon="4.69481">
        <ele>198</ele>
        <time>2018-09-01T10:49:51Z</time>
      </trkpt>
      <trkpt lat="45.85625" lon="4.6949">
        <ele>198</ele>
        <time>2018-09-01T10:49:52Z</time>
      </trkpt>
      <trkpt lat="45.85626" lon="4.69498">
        <ele>198</ele>
        <time>2018-09-01T10:49:53Z</time>
      </trkpt>
      <trkpt lat="45.85626" lon="4.69507">
        <ele>198</ele>
        <time>2018-09-01T10:49:54Z</time>
      </trkpt>
      <trkpt lat="45.85626" lon="4.69516">
        <ele>198</ele>
        <time>2018-09-01T10:49:55Z</time>
      </trkpt>
      <trkpt lat="45.85628" lon="4.69526">
        <ele>198</ele>
        <time>2018-09-01T10:49:56Z</time>
      </trkpt>
      <trkpt lat="45.85629" lon="4.69535">
        <ele>198</ele>
        <time>2018-09-01T10:49:57Z</time>
      </trkpt>
      <trkpt lat="45.8563" lon="4.69544">
        <ele>198</ele>
        <time>2018-09-01T10:49:58Z</time>
      </trkpt>
      <trkpt lat="45.8563" lon="4.69553">
        <ele>198</ele>
        <time>2018-09-01T10:49:59Z</time>
      </trkpt>
      <trkpt lat="45.85631" lon="4.69561">
        <ele>198</ele>
        <time>2018-09-01T10:50:00Z</time>
      </trkpt>
      <trkpt lat="45.85632" lon="4.6957">
        <ele>198</ele>
        <time>2018-09-01T10:50:01Z</time>
      </trkpt>
      <trkpt lat="45.85633" lon="4.69578">
        <ele>198</ele>
        <time>2018-09-01T10:50:02Z</time>
      </trkpt>
      <trkpt lat="45.85634" lon="4.69586">
        <ele>197</ele>
        <time>2018-09-01T10:50:03Z</time>
      </trkpt>
      <trkpt lat="45.85635" lon="4.69596">
        <ele>197</ele>
        <time>2018-09-01T10:50:04Z</time>
      </trkpt>
      <trkpt lat="45.85636" lon="4.69605">
        <ele>197</ele>
        <time>2018-09-01T10:50:05Z</time>
      </trkpt>
      <trkpt lat="45.85637" lon="4.69613">
        <ele>197</ele>
        <time>2018-09-01T10:50:06Z</time>
      </trkpt>
      <trkpt lat="45.85637" lon="4.69622">
        <ele>197</ele>
        <time>2018-09-01T10:50:07Z</time>
      </trkpt>
      <trkpt lat="45.85638" lon="4.6963">
        <ele>197</ele>
        <time>2018-09-01T10:50:08Z</time>
      </trkpt>
      <trkpt lat="45.85638" lon="4.69637">
        <ele>197</ele>
        <time>2018-09-01T10:50:09Z</time>
      </trkpt>
      <trkpt lat="45.85639" lon="4.69645">
        <ele>197</ele>
        <time>2018-09-01T10:50:10Z</time>
      </trkpt>
      <trkpt lat="45.8564" lon="4.69654">
        <ele>197</ele>
        <time>2018-09-01T10:50:11Z</time>
      </trkpt>
      <trkpt lat="45.85641" lon="4.69662">
        <ele>197</ele>
        <time>2018-09-01T10:50:12Z</time>
      </trkpt>
      <trkpt lat="45.85641" lon="4.69669">
        <ele>196</ele>
        <time>2018-09-01T10:50:13Z</time>
      </trkpt>
      <trkpt lat="45.85641" lon="4.69678">
        <ele>196</ele>
        <time>2018-09-01T10:50:14Z</time>
      </trkpt>
      <trkpt lat="45.85642" lon="4.69686">
        <ele>196</ele>
        <time>2018-09-01T10:50:15Z</time>
      </trkpt>
      <trkpt lat="45.85642" lon="4.69694">
        <ele>196</ele>
        <time>2018-09-01T10:50:16Z</time>
      </trkpt>
      <trkpt lat="45.85642" lon="4.69702">
        <ele>196</ele>
        <time>2018-09-01T10:50:17Z</time>
      </trkpt>
      <trkpt lat="45.85643" lon="4.69711">
        <ele>196</ele>
        <time>2018-09-01T10:50:18Z</time>
      </trkpt>
      <trkpt lat="45.85645" lon="4.69722">
        <ele>196</ele>
        <time>2018-09-01T10:50:19Z</time>
      </trkpt>
      <trkpt lat="45.85646" lon="4.69731">
        <ele>195</ele>
        <time>2018-09-01T10:50:20Z</time>
      </trkpt>
      <trkpt lat="45.85647" lon="4.69741">
        <ele>195</ele>
        <time>2018-09-01T10:50:21Z</time>
      </trkpt>
      <trkpt lat="45.85647" lon="4.6975">
        <ele>195</ele>
        <time>2018-09-01T10:50:22Z</time>
      </trkpt>
      <trkpt lat="45.85648" lon="4.6976">
        <ele>195</ele>
        <time>2018-09-01T10:50:23Z</time>
      </trkpt>
      <trkpt lat="45.8565" lon="4.69769">
        <ele>195</ele>
        <time>2018-09-01T10:50:24Z</time>
      </trkpt>
      <trkpt lat="45.85651" lon="4.69778">
        <ele>195</ele>
        <time>2018-09-01T10:50:25Z</time>
      </trkpt>
      <trkpt lat="45.85652" lon="4.69787">
        <ele>195</ele>
        <time>2018-09-01T10:50:26Z</time>
      </trkpt>
      <trkpt lat="45.85654" lon="4.69797">
        <ele>195</ele>
        <time>2018-09-01T10:50:27Z</time>
      </trkpt>
      <trkpt lat="45.85654" lon="4.69806">
        <ele>195</ele>
        <time>2018-09-01T10:50:28Z</time>
      </trkpt>
      <trkpt lat="45.85655" lon="4.69814">
        <ele>195</ele>
        <time>2018-09-01T10:50:29Z</time>
      </trkpt>
      <trkpt lat="45.85655" lon="4.69822">
        <ele>195</ele>
        <time>2018-09-01T10:50:30Z</time>
      </trkpt>
      <trkpt lat="45.85657" lon="4.6983">
        <ele>195</ele>
        <time>2018-09-01T10:50:31Z</time>
      </trkpt>
      <trkpt lat="45.85658" lon="4.69839">
        <ele>195</ele>
        <time>2018-09-01T10:50:32Z</time>
      </trkpt>
      <trkpt lat="45.85658" lon="4.69847">
        <ele>195</ele>
        <time>2018-09-01T10:50:33Z</time>
      </trkpt>
      <trkpt lat="45.85659" lon="4.69854">
        <ele>195</ele>
        <time>2018-09-01T10:50:34Z</time>
      </trkpt>
      <trkpt lat="45.85659" lon="4.69861">
        <ele>195</ele>
        <time>2018-09-01T10:50:35Z</time>
      </trkpt>
      <trkpt lat="45.8566" lon="4.69869">
        <ele>195</ele>
        <time>2018-09-01T10:50:36Z</time>
      </trkpt>
      <trkpt lat="45.85661" lon="4.69876">
        <ele>195</ele>
        <time>2018-09-01T10:50:37Z</time>
      </trkpt>
      <trkpt lat="45.85661" lon="4.69885">
        <ele>195</ele>
        <time>2018-09-01T10:50:38Z</time>
      </trkpt>
      <trkpt lat="45.85663" lon="4.69893">
        <ele>195</ele>
        <time>2018-09-01T10:50:39Z</time>
      </trkpt>
      <trkpt lat="45.85665" lon="4.69901">
        <ele>195</ele>
        <time>2018-09-01T10:50:40Z</time>
      </trkpt>
      <trkpt lat="45.85667" lon="4.6991">
        <ele>195</ele>
        <time>2018-09-01T10:50:41Z</time>
      </trkpt>
      <trkpt lat="45.85667" lon="4.69917">
        <ele>195</ele>
        <time>2018-09-01T10:50:42Z</time>
      </trkpt>
      <trkpt lat="45.8567" lon="4.69926">
        <ele>195</ele>
        <time>2018-09-01T10:50:43Z</time>
      </trkpt>
      <trkpt lat="45.85672" lon="4.69933">
        <ele>195</ele>
        <time>2018-09-01T10:50:44Z</time>
      </trkpt>
      <trkpt lat="45.85673" lon="4.6994">
        <ele>195</ele>
        <time>2018-09-01T10:50:45Z</time>
      </trkpt>
      <trkpt lat="45.85674" lon="4.69947">
        <ele>195</ele>
        <time>2018-09-01T10:50:46Z</time>
      </trkpt>
      <trkpt lat="45.85677" lon="4.69954">
        <ele>195</ele>
        <time>2018-09-01T10:50:47Z</time>
      </trkpt>
      <trkpt lat="45.85679" lon="4.69961">
        <ele>195</ele>
        <time>2018-09-01T10:50:48Z</time>
      </trkpt>
      <trkpt lat="45.8568" lon="4.69969">
        <ele>195</ele>
        <time>2018-09-01T10:50:49Z</time>
      </trkpt>
      <trkpt lat="45.85681" lon="4.69976">
        <ele>195</ele>
        <time>2018-09-01T10:50:50Z</time>
      </trkpt>
      <trkpt lat="45.85682" lon="4.69983">
        <ele>195</ele>
        <time>2018-09-01T10:50:51Z</time>
      </trkpt>
      <trkpt lat="45.85683" lon="4.69991">
        <ele>195</ele>
        <time>2018-09-01T10:50:52Z</time>
      </trkpt>
      <trkpt lat="45.85684" lon="4.69999">
        <ele>195</ele>
        <time>2018-09-01T10:50:53Z</time>
      </trkpt>
      <trkpt lat="45.85683" lon="4.70007">
        <ele>195</ele>
        <time>2018-09-01T10:50:54Z</time>
      </trkpt>
      <trkpt lat="45.85683" lon="4.70015">
        <ele>195</ele>
        <time>2018-09-01T10:50:55Z</time>
      </trkpt>
      <trkpt lat="45.85681" lon="4.70023">
        <ele>195</ele>
        <time>2018-09-01T10:50:56Z</time>
      </trkpt>
      <trkpt lat="45.85679" lon="4.7003">
        <ele>195</ele>
        <time>2018-09-01T10:50:57Z</time>
      </trkpt>
      <trkpt lat="45.85679" lon="4.70038">
        <ele>195</ele>
        <time>2018-09-01T10:50:58Z</time>
      </trkpt>
      <trkpt lat="45.85678" lon="4.70044">
        <ele>195</ele>
        <time>2018-09-01T10:50:59Z</time>
      </trkpt>
      <trkpt lat="45.85677" lon="4.70054">
        <ele>195</ele>
        <time>2018-09-01T10:51:01Z</time>
      </trkpt>
      <trkpt lat="45.85675" lon="4.70062">
        <ele>196</ele>
        <time>2018-09-01T10:51:02Z</time>
      </trkpt>
      <trkpt lat="45.85672" lon="4.70071">
        <ele>196</ele>
        <time>2018-09-01T10:51:04Z</time>
      </trkpt>
      <trkpt lat="45.8567" lon="4.70074">
        <ele>196</ele>
        <time>2018-09-01T10:51:05Z</time>
      </trkpt>
      <trkpt lat="45.85668" lon="4.70085">
        <ele>196</ele>
        <time>2018-09-01T10:51:07Z</time>
      </trkpt>
      <trkpt lat="45.85667" lon="4.70093">
        <ele>196</ele>
        <time>2018-09-01T10:51:08Z</time>
      </trkpt>
      <trkpt lat="45.85667" lon="4.70101">
        <ele>196</ele>
        <time>2018-09-01T10:51:09Z</time>
      </trkpt>
      <trkpt lat="45.85669" lon="4.70108">
        <ele>196</ele>
        <time>2018-09-01T10:51:10Z</time>
      </trkpt>
      <trkpt lat="45.85669" lon="4.70118">
        <ele>197</ele>
        <time>2018-09-01T10:51:11Z</time>
      </trkpt>
      <trkpt lat="45.85671" lon="4.70131">
        <ele>197</ele>
        <time>2018-09-01T10:51:12Z</time>
      </trkpt>
      <trkpt lat="45.85673" lon="4.70142">
        <ele>197</ele>
        <time>2018-09-01T10:51:13Z</time>
      </trkpt>
      <trkpt lat="45.85675" lon="4.70151">
        <ele>197</ele>
        <time>2018-09-01T10:51:14Z</time>
      </trkpt>
      <trkpt lat="45.85676" lon="4.70161">
        <ele>197</ele>
        <time>2018-09-01T10:51:15Z</time>
      </trkpt>
      <trkpt lat="45.85678" lon="4.70169">
        <ele>197</ele>
        <time>2018-09-01T10:51:16Z</time>
      </trkpt>
      <trkpt lat="45.8568" lon="4.70178">
        <ele>197</ele>
        <time>2018-09-01T10:51:17Z</time>
      </trkpt>
      <trkpt lat="45.85682" lon="4.70186">
        <ele>197</ele>
        <time>2018-09-01T10:51:18Z</time>
      </trkpt>
      <trkpt lat="45.85685" lon="4.70193">
        <ele>197</ele>
        <time>2018-09-01T10:51:19Z</time>
      </trkpt>
      <trkpt lat="45.85687" lon="4.702">
        <ele>197</ele>
        <time>2018-09-01T10:51:20Z</time>
      </trkpt>
      <trkpt lat="45.85689" lon="4.70207">
        <ele>197</ele>
        <time>2018-09-01T10:51:21Z</time>
      </trkpt>
      <trkpt lat="45.8569" lon="4.70218">
        <ele>197</ele>
        <time>2018-09-01T10:51:22Z</time>
      </trkpt>
      <trkpt lat="45.85692" lon="4.70226">
        <ele>197</ele>
        <time>2018-09-01T10:51:23Z</time>
      </trkpt>
      <trkpt lat="45.85694" lon="4.70237">
        <ele>197</ele>
        <time>2018-09-01T10:51:24Z</time>
      </trkpt>
      <trkpt lat="45.85695" lon="4.70245">
        <ele>197</ele>
        <time>2018-09-01T10:51:25Z</time>
      </trkpt>
      <trkpt lat="45.85697" lon="4.70257">
        <ele>197</ele>
        <time>2018-09-01T10:51:26Z</time>
      </trkpt>
      <trkpt lat="45.85699" lon="4.70263">
        <ele>197</ele>
        <time>2018-09-01T10:51:27Z</time>
      </trkpt>
      <trkpt lat="45.85698" lon="4.70271">
        <ele>197</ele>
        <time>2018-09-01T10:51:28Z</time>
      </trkpt>
      <trkpt lat="45.857" lon="4.70281">
        <ele>197</ele>
        <time>2018-09-01T10:51:29Z</time>
      </trkpt>
      <trkpt lat="45.857" lon="4.70289">
        <ele>197</ele>
        <time>2018-09-01T10:51:30Z</time>
      </trkpt>
      <trkpt lat="45.85701" lon="4.70297">
        <ele>197</ele>
        <time>2018-09-01T10:51:31Z</time>
      </trkpt>
      <trkpt lat="45.85701" lon="4.70305">
        <ele>197</ele>
        <time>2018-09-01T10:51:32Z</time>
      </trkpt>
      <trkpt lat="45.85701" lon="4.70312">
        <ele>197</ele>
        <time>2018-09-01T10:51:33Z</time>
      </trkpt>
      <trkpt lat="45.85701" lon="4.7032">
        <ele>197</ele>
        <time>2018-09-01T10:51:34Z</time>
      </trkpt>
      <trkpt lat="45.85703" lon="4.70327">
        <ele>197</ele>
        <time>2018-09-01T10:51:35Z</time>
      </trkpt>
      <trkpt lat="45.85704" lon="4.70335">
        <ele>196</ele>
        <time>2018-09-01T10:51:36Z</time>
      </trkpt>
      <trkpt lat="45.85704" lon="4.70342">
        <ele>196</ele>
        <time>2018-09-01T10:51:37Z</time>
      </trkpt>
      <trkpt lat="45.85706" lon="4.70349">
        <ele>196</ele>
        <time>2018-09-01T10:51:38Z</time>
      </trkpt>
      <trkpt lat="45.85707" lon="4.70357">
        <ele>196</ele>
        <time>2018-09-01T10:51:39Z</time>
      </trkpt>
      <trkpt lat="45.85708" lon="4.70366">
        <ele>196</ele>
        <time>2018-09-01T10:51:40Z</time>
      </trkpt>
      <trkpt lat="45.85709" lon="4.70374">
        <ele>196</ele>
        <time>2018-09-01T10:51:41Z</time>
      </trkpt>
      <trkpt lat="45.8571" lon="4.70382">
        <ele>196</ele>
        <time>2018-09-01T10:51:42Z</time>
      </trkpt>
      <trkpt lat="45.8571" lon="4.70388">
        <ele>196</ele>
        <time>2018-09-01T10:51:43Z</time>
      </trkpt>
      <trkpt lat="45.8571" lon="4.70396">
        <ele>196</ele>
        <time>2018-09-01T10:51:44Z</time>
      </trkpt>
      <trkpt lat="45.8571" lon="4.70406">
        <ele>196</ele>
        <time>2018-09-01T10:51:46Z</time>
      </trkpt>
      <trkpt lat="45.8571" lon="4.70411">
        <ele>196</ele>
        <time>2018-09-01T10:51:47Z</time>
      </trkpt>
      <trkpt lat="45.85711" lon="4.70417">
        <ele>196</ele>
        <time>2018-09-01T10:51:48Z</time>
      </trkpt>
      <trkpt lat="45.85711" lon="4.70424">
        <ele>196</ele>
        <time>2018-09-01T10:51:49Z</time>
      </trkpt>
      <trkpt lat="45.85712" lon="4.7043">
        <ele>196</ele>
        <time>2018-09-01T10:51:50Z</time>
      </trkpt>
      <trkpt lat="45.85714" lon="4.70438">
        <ele>196</ele>
        <time>2018-09-01T10:51:51Z</time>
      </trkpt>
      <trkpt lat="45.85716" lon="4.70446">
        <ele>196</ele>
        <time>2018-09-01T10:51:52Z</time>
      </trkpt>
      <trkpt lat="45.85716" lon="4.70452">
        <ele>196</ele>
        <time>2018-09-01T10:51:53Z</time>
      </trkpt>
      <trkpt lat="45.85718" lon="4.70458">
        <ele>196</ele>
        <time>2018-09-01T10:51:54Z</time>
      </trkpt>
      <trkpt lat="45.85719" lon="4.70465">
        <ele>196</ele>
        <time>2018-09-01T10:51:55Z</time>
      </trkpt>
      <trkpt lat="45.8572" lon="4.70472">
        <ele>196</ele>
        <time>2018-09-01T10:51:56Z</time>
      </trkpt>
      <trkpt lat="45.8572" lon="4.70479">
        <ele>196</ele>
        <time>2018-09-01T10:51:57Z</time>
      </trkpt>
      <trkpt lat="45.85716" lon="4.70488">
        <ele>196</ele>
        <time>2018-09-01T10:51:59Z</time>
      </trkpt>
      <trkpt lat="45.85713" lon="4.70493">
        <ele>196</ele>
        <time>2018-09-01T10:52:00Z</time>
      </trkpt>
      <trkpt lat="45.85711" lon="4.705">
        <ele>196</ele>
        <time>2018-09-01T10:52:01Z</time>
      </trkpt>
      <trkpt lat="45.85711" lon="4.70506">
        <ele>196</ele>
        <time>2018-09-01T10:52:02Z</time>
      </trkpt>
      <trkpt lat="45.85714" lon="4.70515">
        <ele>196</ele>
        <time>2018-09-01T10:52:04Z</time>
      </trkpt>
      <trkpt lat="45.85718" lon="4.70519">
        <ele>196</ele>
        <time>2018-09-01T10:52:05Z</time>
      </trkpt>
      <trkpt lat="45.85727" lon="4.70519">
        <ele>196</ele>
        <time>2018-09-01T10:52:07Z</time>
      </trkpt>
      <trkpt lat="45.85731" lon="4.70519">
        <ele>196</ele>
        <time>2018-09-01T10:52:08Z</time>
      </trkpt>
      <trkpt lat="45.85736" lon="4.70516">
        <ele>196</ele>
        <time>2018-09-01T10:52:09Z</time>
      </trkpt>
      <trkpt lat="45.85741" lon="4.70515">
        <ele>196</ele>
        <time>2018-09-01T10:52:10Z</time>
      </trkpt>
      <trkpt lat="45.85747" lon="4.70513">
        <ele>196</ele>
        <time>2018-09-01T10:52:11Z</time>
      </trkpt>
      <trkpt lat="45.85751" lon="4.70518">
        <ele>196</ele>
        <time>2018-09-01T10:52:12Z</time>
      </trkpt>
      <trkpt lat="45.85755" lon="4.7052">
        <ele>196</ele>
        <time>2018-09-01T10:52:13Z</time>
      </trkpt>
      <trkpt lat="45.85759" lon="4.70523">
        <ele>196</ele>
        <time>2018-09-01T10:52:14Z</time>
      </trkpt>
      <trkpt lat="45.85765" lon="4.70526">
        <ele>196</ele>
        <time>2018-09-01T10:52:15Z</time>
      </trkpt>
      <trkpt lat="45.8577" lon="4.70528">
        <ele>196</ele>
        <time>2018-09-01T10:52:16Z</time>
      </trkpt>
      <trkpt lat="45.85776" lon="4.70531">
        <ele>196</ele>
        <time>2018-09-01T10:52:17Z</time>
      </trkpt>
      <trkpt lat="45.8578" lon="4.70535">
        <ele>196</ele>
        <time>2018-09-01T10:52:18Z</time>
      </trkpt>
      <trkpt lat="45.85784" lon="4.70539">
        <ele>196</ele>
        <time>2018-09-01T10:52:19Z</time>
      </trkpt>
      <trkpt lat="45.85788" lon="4.70542">
        <ele>196</ele>
        <time>2018-09-01T10:52:20Z</time>
      </trkpt>
      <trkpt lat="45.85793" lon="4.70543">
        <ele>195</ele>
        <time>2018-09-01T10:52:21Z</time>
      </trkpt>
      <trkpt lat="45.85797" lon="4.70546">
        <ele>195</ele>
        <time>2018-09-01T10:52:22Z</time>
      </trkpt>
      <trkpt lat="45.85802" lon="4.70549">
        <ele>195</ele>
        <time>2018-09-01T10:52:23Z</time>
      </trkpt>
      <trkpt lat="45.85809" lon="4.70547">
        <ele>195</ele>
        <time>2018-09-01T10:52:24Z</time>
      </trkpt>
      <trkpt lat="45.85815" lon="4.70549">
        <ele>195</ele>
        <time>2018-09-01T10:52:25Z</time>
      </trkpt>
      <trkpt lat="45.85821" lon="4.7055">
        <ele>195</ele>
        <time>2018-09-01T10:52:26Z</time>
      </trkpt>
      <trkpt lat="45.85826" lon="4.70553">
        <ele>195</ele>
        <time>2018-09-01T10:52:27Z</time>
      </trkpt>
      <trkpt lat="45.8583" lon="4.70554">
        <ele>195</ele>
        <time>2018-09-01T10:52:28Z</time>
      </trkpt>
      <trkpt lat="45.85836" lon="4.70562">
        <ele>195</ele>
        <time>2018-09-01T10:52:30Z</time>
      </trkpt>
      <trkpt lat="45.8584" lon="4.70563">
        <ele>195</ele>
        <time>2018-09-01T10:52:31Z</time>
      </trkpt>
      <trkpt lat="45.85845" lon="4.70564">
        <ele>195</ele>
        <time>2018-09-01T10:52:32Z</time>
      </trkpt>
      <trkpt lat="45.85849" lon="4.70566">
        <ele>195</ele>
        <time>2018-09-01T10:52:33Z</time>
      </trkpt>
      <trkpt lat="45.85853" lon="4.70568">
        <ele>195</ele>
        <time>2018-09-01T10:52:34Z</time>
      </trkpt>
      <trkpt lat="45.85857" lon="4.70571">
        <ele>195</ele>
        <time>2018-09-01T10:52:35Z</time>
      </trkpt>
      <trkpt lat="45.85865" lon="4.70574">
        <ele>195</ele>
        <time>2018-09-01T10:52:37Z</time>
      </trkpt>
      <trkpt lat="45.85868" lon="4.70576">
        <ele>195</ele>
        <time>2018-09-01T10:52:38Z</time>
      </trkpt>
      <trkpt lat="45.85872" lon="4.70577">
        <ele>195</ele>
        <time>2018-09-01T10:52:39Z</time>
      </trkpt>
      <trkpt lat="45.85877" lon="4.70576">
        <ele>195</ele>
        <time>2018-09-01T10:52:40Z</time>
      </trkpt>
      <trkpt lat="45.85885" lon="4.70578">
        <ele>195</ele>
        <time>2018-09-01T10:52:42Z</time>
      </trkpt>
      <trkpt lat="45.8589" lon="4.70579">
        <ele>195</ele>
        <time>2018-09-01T10:52:43Z</time>
      </trkpt>
      <trkpt lat="45.85895" lon="4.7058">
        <ele>195</ele>
        <time>2018-09-01T10:52:44Z</time>
      </trkpt>
      <trkpt lat="45.859" lon="4.70581">
        <ele>195</ele>
        <time>2018-09-01T10:52:45Z</time>
      </trkpt>
      <trkpt lat="45.85904" lon="4.70589">
        <ele>195</ele>
        <time>2018-09-01T10:52:46Z</time>
      </trkpt>
      <trkpt lat="45.85908" lon="4.70594">
        <ele>195</ele>
        <time>2018-09-01T10:52:47Z</time>
      </trkpt>
      <trkpt lat="45.8591" lon="4.706">
        <ele>195</ele>
        <time>2018-09-01T10:52:48Z</time>
      </trkpt>
      <trkpt lat="45.85913" lon="4.70605">
        <ele>195</ele>
        <time>2018-09-01T10:52:49Z</time>
      </trkpt>
      <trkpt lat="45.85919" lon="4.70613">
        <ele>194</ele>
        <time>2018-09-01T10:52:51Z</time>
      </trkpt>
      <trkpt lat="45.85922" lon="4.70617">
        <ele>194</ele>
        <time>2018-09-01T10:52:52Z</time>
      </trkpt>
      <trkpt lat="45.85925" lon="4.70623">
        <ele>194</ele>
        <time>2018-09-01T10:52:53Z</time>
      </trkpt>
      <trkpt lat="45.8593" lon="4.70627">
        <ele>194</ele>
        <time>2018-09-01T10:52:54Z</time>
      </trkpt>
      <trkpt lat="45.85932" lon="4.70632">
        <ele>194</ele>
        <time>2018-09-01T10:52:55Z</time>
      </trkpt>
      <trkpt lat="45.85937" lon="4.70637">
        <ele>194</ele>
        <time>2018-09-01T10:52:56Z</time>
      </trkpt>
      <trkpt lat="45.85943" lon="4.70644">
        <ele>194</ele>
        <time>2018-09-01T10:52:57Z</time>
      </trkpt>
      <trkpt lat="45.85946" lon="4.7065">
        <ele>194</ele>
        <time>2018-09-01T10:52:58Z</time>
      </trkpt>
      <trkpt lat="45.85949" lon="4.70656">
        <ele>194</ele>
        <time>2018-09-01T10:52:59Z</time>
      </trkpt>
      <trkpt lat="45.85951" lon="4.70662">
        <ele>194</ele>
        <time>2018-09-01T10:53:00Z</time>
      </trkpt>
      <trkpt lat="45.85954" lon="4.70668">
        <ele>194</ele>
        <time>2018-09-01T10:53:01Z</time>
      </trkpt>
      <trkpt lat="45.85958" lon="4.70672">
        <ele>194</ele>
        <time>2018-09-01T10:53:02Z</time>
      </trkpt>
      <trkpt lat="45.85961" lon="4.70677">
        <ele>194</ele>
        <time>2018-09-01T10:53:03Z</time>
      </trkpt>
      <trkpt lat="45.85964" lon="4.70684">
        <ele>194</ele>
        <time>2018-09-01T10:53:04Z</time>
      </trkpt>
      <trkpt lat="45.85965" lon="4.70691">
        <ele>194</ele>
        <time>2018-09-01T10:53:05Z</time>
      </trkpt>
      <trkpt lat="45.85965" lon="4.70698">
        <ele>194</ele>
        <time>2018-09-01T10:53:06Z</time>
      </trkpt>
      <trkpt lat="45.85965" lon="4.70705">
        <ele>194</ele>
        <time>2018-09-01T10:53:07Z</time>
      </trkpt>
      <trkpt lat="45.85965" lon="4.70712">
        <ele>194</ele>
        <time>2018-09-01T10:53:08Z</time>
      </trkpt>
      <trkpt lat="45.85964" lon="4.70718">
        <ele>194</ele>
        <time>2018-09-01T10:53:09Z</time>
      </trkpt>
      <trkpt lat="45.85963" lon="4.70725">
        <ele>194</ele>
        <time>2018-09-01T10:53:10Z</time>
      </trkpt>
      <trkpt lat="45.85961" lon="4.70735">
        <ele>194</ele>
        <time>2018-09-01T10:53:12Z</time>
      </trkpt>
      <trkpt lat="45.85961" lon="4.70741">
        <ele>194</ele>
        <time>2018-09-01T10:53:13Z</time>
      </trkpt>
      <trkpt lat="45.85959" lon="4.70747">
        <ele>194</ele>
        <time>2018-09-01T10:53:14Z</time>
      </trkpt>
      <trkpt lat="45.85958" lon="4.70754">
        <ele>195</ele>
        <time>2018-09-01T10:53:15Z</time>
      </trkpt>
      <trkpt lat="45.85958" lon="4.70761">
        <ele>195</ele>
        <time>2018-09-01T10:53:16Z</time>
      </trkpt>
      <trkpt lat="45.85956" lon="4.70767">
        <ele>195</ele>
        <time>2018-09-01T10:53:17Z</time>
      </trkpt>
      <trkpt lat="45.85956" lon="4.70774">
        <ele>195</ele>
        <time>2018-09-01T10:53:18Z</time>
      </trkpt>
      <trkpt lat="45.85955" lon="4.7078">
        <ele>195</ele>
        <time>2018-09-01T10:53:19Z</time>
      </trkpt>
      <trkpt lat="45.85954" lon="4.70791">
        <ele>195</ele>
        <time>2018-09-01T10:53:21Z</time>
      </trkpt>
      <trkpt lat="45.85953" lon="4.70798">
        <ele>195</ele>
        <time>2018-09-01T10:53:22Z</time>
      </trkpt>
      <trkpt lat="45.85956" lon="4.70809">
        <ele>195</ele>
        <time>2018-09-01T10:53:24Z</time>
      </trkpt>
      <trkpt lat="45.85957" lon="4.70815">
        <ele>195</ele>
        <time>2018-09-01T10:53:25Z</time>
      </trkpt>
      <trkpt lat="45.85958" lon="4.7082">
        <ele>195</ele>
        <time>2018-09-01T10:53:26Z</time>
      </trkpt>
      <trkpt lat="45.85959" lon="4.70827">
        <ele>196</ele>
        <time>2018-09-01T10:53:27Z</time>
      </trkpt>
      <trkpt lat="45.8596" lon="4.70836">
        <ele>196</ele>
        <time>2018-09-01T10:53:29Z</time>
      </trkpt>
      <trkpt lat="45.85962" lon="4.70842">
        <ele>196</ele>
        <time>2018-09-01T10:53:30Z</time>
      </trkpt>
      <trkpt lat="45.85962" lon="4.70848">
        <ele>196</ele>
        <time>2018-09-01T10:53:32Z</time>
      </trkpt>
      <trkpt lat="45.85961" lon="4.70857">
        <ele>196</ele>
        <time>2018-09-01T10:53:33Z</time>
      </trkpt>
      <trkpt lat="45.85958" lon="4.70868">
        <ele>196</ele>
        <time>2018-09-01T10:53:35Z</time>
      </trkpt>
      <trkpt lat="45.85957" lon="4.70873">
        <ele>196</ele>
        <time>2018-09-01T10:53:36Z</time>
      </trkpt>
      <trkpt lat="45.85955" lon="4.7088">
        <ele>197</ele>
        <time>2018-09-01T10:53:37Z</time>
      </trkpt>
      <trkpt lat="45.85953" lon="4.70889">
        <ele>197</ele>
        <time>2018-09-01T10:53:38Z</time>
      </trkpt>
      <trkpt lat="45.85952" lon="4.70895">
        <ele>197</ele>
        <time>2018-09-01T10:53:39Z</time>
      </trkpt>
      <trkpt lat="45.8595" lon="4.70903">
        <ele>197</ele>
        <time>2018-09-01T10:53:40Z</time>
      </trkpt>
      <trkpt lat="45.85947" lon="4.70915">
        <ele>197</ele>
        <time>2018-09-01T10:53:42Z</time>
      </trkpt>
      <trkpt lat="45.85947" lon="4.7092">
        <ele>197</ele>
        <time>2018-09-01T10:53:43Z</time>
      </trkpt>
      <trkpt lat="45.85946" lon="4.70927">
        <ele>197</ele>
        <time>2018-09-01T10:53:44Z</time>
      </trkpt>
      <trkpt lat="45.85944" lon="4.70934">
        <ele>197</ele>
        <time>2018-09-01T10:53:45Z</time>
      </trkpt>
      <trkpt lat="45.85942" lon="4.70941">
        <ele>197</ele>
        <time>2018-09-01T10:53:46Z</time>
      </trkpt>
      <trkpt lat="45.85941" lon="4.70946">
        <ele>197</ele>
        <time>2018-09-01T10:53:47Z</time>
      </trkpt>
      <trkpt lat="45.85939" lon="4.70959">
        <ele>197</ele>
        <time>2018-09-01T10:53:49Z</time>
      </trkpt>
      <trkpt lat="45.85939" lon="4.70966">
        <ele>197</ele>
        <time>2018-09-01T10:53:50Z</time>
      </trkpt>
      <trkpt lat="45.85946" lon="4.70975">
        <ele>197</ele>
        <time>2018-09-01T10:53:52Z</time>
      </trkpt>
      <trkpt lat="45.8595" lon="4.70977">
        <ele>197</ele>
        <time>2018-09-01T10:53:53Z</time>
      </trkpt>
      <trkpt lat="45.85958" lon="4.70979">
        <ele>197</ele>
        <time>2018-09-01T10:53:55Z</time>
      </trkpt>
      <trkpt lat="45.85962" lon="4.70979">
        <ele>197</ele>
        <time>2018-09-01T10:53:56Z</time>
      </trkpt>
      <trkpt lat="45.85968" lon="4.7098">
        <ele>197</ele>
        <time>2018-09-01T10:53:58Z</time>
      </trkpt>
      <trkpt lat="45.85973" lon="4.70981">
        <ele>197</ele>
        <time>2018-09-01T10:53:59Z</time>
      </trkpt>
      <trkpt lat="45.85977" lon="4.70983">
        <ele>197</ele>
        <time>2018-09-01T10:54:00Z</time>
      </trkpt>
      <trkpt lat="45.85982" lon="4.70984">
        <ele>197</ele>
        <time>2018-09-01T10:54:01Z</time>
      </trkpt>
      <trkpt lat="45.8599" lon="4.70989">
        <ele>197</ele>
        <time>2018-09-01T10:54:03Z</time>
      </trkpt>
      <trkpt lat="45.85994" lon="4.70991">
        <ele>197</ele>
        <time>2018-09-01T10:54:04Z</time>
      </trkpt>
      <trkpt lat="45.86001" lon="4.70997">
        <ele>197</ele>
        <time>2018-09-01T10:54:06Z</time>
      </trkpt>
      <trkpt lat="45.86005" lon="4.71001">
        <ele>197</ele>
        <time>2018-09-01T10:54:07Z</time>
      </trkpt>
      <trkpt lat="45.86009" lon="4.71005">
        <ele>197</ele>
        <time>2018-09-01T10:54:08Z</time>
      </trkpt>
      <trkpt lat="45.86013" lon="4.71007">
        <ele>197</ele>
        <time>2018-09-01T10:54:09Z</time>
      </trkpt>
      <trkpt lat="45.86017" lon="4.7101">
        <ele>197</ele>
        <time>2018-09-01T10:54:10Z</time>
      </trkpt>
      <trkpt lat="45.86021" lon="4.71014">
        <ele>197</ele>
        <time>2018-09-01T10:54:11Z</time>
      </trkpt>
      <trkpt lat="45.86026" lon="4.71023">
        <ele>197</ele>
        <time>2018-09-01T10:54:13Z</time>
      </trkpt>
      <trkpt lat="45.86029" lon="4.71027">
        <ele>197</ele>
        <time>2018-09-01T10:54:14Z</time>
      </trkpt>
      <trkpt lat="45.86033" lon="4.71037">
        <ele>197</ele>
        <time>2018-09-01T10:54:16Z</time>
      </trkpt>
      <trkpt lat="45.86035" lon="4.71043">
        <ele>197</ele>
        <time>2018-09-01T10:54:17Z</time>
      </trkpt>
      <trkpt lat="45.86036" lon="4.71054">
        <ele>197</ele>
        <time>2018-09-01T10:54:19Z</time>
      </trkpt>
      <trkpt lat="45.86037" lon="4.71059">
        <ele>197</ele>
        <time>2018-09-01T10:54:20Z</time>
      </trkpt>
      <trkpt lat="45.86038" lon="4.71065">
        <ele>197</ele>
        <time>2018-09-01T10:54:21Z</time>
      </trkpt>
      <trkpt lat="45.8604" lon="4.71072">
        <ele>197</ele>
        <time>2018-09-01T10:54:22Z</time>
      </trkpt>
      <trkpt lat="45.86042" lon="4.71078">
        <ele>197</ele>
        <time>2018-09-01T10:54:23Z</time>
      </trkpt>
      <trkpt lat="45.86043" lon="4.71084">
        <ele>197</ele>
        <time>2018-09-01T10:54:24Z</time>
      </trkpt>
      <trkpt lat="45.86045" lon="4.7109">
        <ele>197</ele>
        <time>2018-09-01T10:54:25Z</time>
      </trkpt>
      <trkpt lat="45.86048" lon="4.71096">
        <ele>197</ele>
        <time>2018-09-01T10:54:26Z</time>
      </trkpt>
      <trkpt lat="45.86053" lon="4.71106">
        <ele>197</ele>
        <time>2018-09-01T10:54:28Z</time>
      </trkpt>
      <trkpt lat="45.86056" lon="4.71111">
        <ele>197</ele>
        <time>2018-09-01T10:54:29Z</time>
      </trkpt>
      <trkpt lat="45.86065" lon="4.71116">
        <ele>197</ele>
        <time>2018-09-01T10:54:31Z</time>
      </trkpt>
      <trkpt lat="45.86068" lon="4.7112">
        <ele>197</ele>
        <time>2018-09-01T10:54:32Z</time>
      </trkpt>
      <trkpt lat="45.86071" lon="4.71132">
        <ele>197</ele>
        <time>2018-09-01T10:54:37Z</time>
      </trkpt>
      <trkpt lat="45.86071" lon="4.71133">
        <ele>197</ele>
        <time>2018-09-01T10:54:38Z</time>
      </trkpt>
      <trkpt lat="45.86068" lon="4.71145">
        <ele>197</ele>
        <time>2018-09-01T10:59:44Z</time>
      </trkpt>
      <trkpt lat="45.86068" lon="4.71145">
        <ele>197</ele>
        <time>2018-09-01T10:59:45Z</time>
      </trkpt>
      <trkpt lat="45.86071" lon="4.71146">
        <ele>197</ele>
        <time>2018-09-01T11:01:32Z</time>
      </trkpt>
      <trkpt lat="45.86078" lon="4.71149">
        <ele>197</ele>
        <time>2018-09-01T11:01:33Z</time>
      </trkpt>
      <trkpt lat="45.86085" lon="4.71157">
        <ele>197</ele>
        <time>2018-09-01T11:01:35Z</time>
      </trkpt>
      <trkpt lat="45.86085" lon="4.71159">
        <ele>197</ele>
        <time>2018-09-01T11:01:36Z</time>
      </trkpt>
      <trkpt lat="45.86086" lon="4.71167">
        <ele>198</ele>
        <time>2018-09-01T11:01:37Z</time>
      </trkpt>
      <trkpt lat="45.86086" lon="4.71173">
        <ele>198</ele>
        <time>2018-09-01T11:01:38Z</time>
      </trkpt>
      <trkpt lat="45.86085" lon="4.71185">
        <ele>197</ele>
        <time>2018-09-01T11:01:40Z</time>
      </trkpt>
      <trkpt lat="45.86085" lon="4.71191">
        <ele>197</ele>
        <time>2018-09-01T11:01:41Z</time>
      </trkpt>
      <trkpt lat="45.86083" lon="4.71201">
        <ele>198</ele>
        <time>2018-09-01T11:01:43Z</time>
      </trkpt>
      <trkpt lat="45.86083" lon="4.71208">
        <ele>197</ele>
        <time>2018-09-01T11:01:44Z</time>
      </trkpt>
      <trkpt lat="45.86083" lon="4.71215">
        <ele>198</ele>
        <time>2018-09-01T11:01:45Z</time>
      </trkpt>
      <trkpt lat="45.86081" lon="4.71221">
        <ele>198</ele>
        <time>2018-09-01T11:01:46Z</time>
      </trkpt>
      <trkpt lat="45.86081" lon="4.71228">
        <ele>198</ele>
        <time>2018-09-01T11:01:47Z</time>
      </trkpt>
      <trkpt lat="45.86081" lon="4.71235">
        <ele>198</ele>
        <time>2018-09-01T11:01:48Z</time>
      </trkpt>
      <trkpt lat="45.86082" lon="4.71243">
        <ele>198</ele>
        <time>2018-09-01T11:01:49Z</time>
      </trkpt>
      <trkpt lat="45.8608" lon="4.71248">
        <ele>198</ele>
        <time>2018-09-01T11:01:50Z</time>
      </trkpt>
      <trkpt lat="45.86081" lon="4.71256">
        <ele>198</ele>
        <time>2018-09-01T11:01:52Z</time>
      </trkpt>
      <trkpt lat="45.86084" lon="4.71261">
        <ele>197</ele>
        <time>2018-09-01T11:01:53Z</time>
      </trkpt>
      <trkpt lat="45.8609" lon="4.71268">
        <ele>197</ele>
        <time>2018-09-01T11:01:55Z</time>
      </trkpt>
      <trkpt lat="45.86091" lon="4.71271">
        <ele>197</ele>
        <time>2018-09-01T11:01:56Z</time>
      </trkpt>
      <trkpt lat="45.86094" lon="4.71278">
        <ele>197</ele>
        <time>2018-09-01T11:01:57Z</time>
      </trkpt>
      <trkpt lat="45.86096" lon="4.71283">
        <ele>197</ele>
        <time>2018-09-01T11:01:58Z</time>
      </trkpt>
      <trkpt lat="45.86099" lon="4.71294">
        <ele>197</ele>
        <time>2018-09-01T11:02:00Z</time>
      </trkpt>
      <trkpt lat="45.861" lon="4.71302">
        <ele>197</ele>
        <time>2018-09-01T11:02:01Z</time>
      </trkpt>
      <trkpt lat="45.86102" lon="4.71309">
        <ele>197</ele>
        <time>2018-09-01T11:02:02Z</time>
      </trkpt>
      <trkpt lat="45.86103" lon="4.71316">
        <ele>197</ele>
        <time>2018-09-01T11:02:03Z</time>
      </trkpt>
      <trkpt lat="45.86104" lon="4.71324">
        <ele>197</ele>
        <time>2018-09-01T11:02:04Z</time>
      </trkpt>
      <trkpt lat="45.86106" lon="4.71332">
        <ele>197</ele>
        <time>2018-09-01T11:02:05Z</time>
      </trkpt>
      <trkpt lat="45.86107" lon="4.71339">
        <ele>196</ele>
        <time>2018-09-01T11:02:06Z</time>
      </trkpt>
      <trkpt lat="45.86108" lon="4.71345">
        <ele>196</ele>
        <time>2018-09-01T11:02:07Z</time>
      </trkpt>
      <trkpt lat="45.8611" lon="4.71355">
        <ele>196</ele>
        <time>2018-09-01T11:02:09Z</time>
      </trkpt>
      <trkpt lat="45.86111" lon="4.71359">
        <ele>196</ele>
        <time>2018-09-01T11:02:10Z</time>
      </trkpt>
      <trkpt lat="45.8611" lon="4.71367">
        <ele>196</ele>
        <time>2018-09-01T11:02:12Z</time>
      </trkpt>
      <trkpt lat="45.86111" lon="4.71373">
        <ele>196</ele>
        <time>2018-09-01T11:02:13Z</time>
      </trkpt>
      <trkpt lat="45.86111" lon="4.71384">
        <ele>196</ele>
        <time>2018-09-01T11:02:15Z</time>
      </trkpt>
      <trkpt lat="45.86112" lon="4.7139">
        <ele>196</ele>
        <time>2018-09-01T11:02:16Z</time>
      </trkpt>
      <trkpt lat="45.86113" lon="4.71397">
        <ele>196</ele>
        <time>2018-09-01T11:02:17Z</time>
      </trkpt>
      <trkpt lat="45.86113" lon="4.71406">
        <ele>196</ele>
        <time>2018-09-01T11:02:18Z</time>
      </trkpt>
      <trkpt lat="45.86114" lon="4.71413">
        <ele>196</ele>
        <time>2018-09-01T11:02:19Z</time>
      </trkpt>
      <trkpt lat="45.86115" lon="4.71422">
        <ele>195</ele>
        <time>2018-09-01T11:02:20Z</time>
      </trkpt>
      <trkpt lat="45.86116" lon="4.71429">
        <ele>195</ele>
        <time>2018-09-01T11:02:21Z</time>
      </trkpt>
      <trkpt lat="45.86118" lon="4.71436">
        <ele>195</ele>
        <time>2018-09-01T11:02:22Z</time>
      </trkpt>
      <trkpt lat="45.86119" lon="4.71442">
        <ele>195</ele>
        <time>2018-09-01T11:02:23Z</time>
      </trkpt>
      <trkpt lat="45.86122" lon="4.71448">
        <ele>195</ele>
        <time>2018-09-01T11:02:24Z</time>
      </trkpt>
      <trkpt lat="45.86123" lon="4.71454">
        <ele>195</ele>
        <time>2018-09-01T11:02:25Z</time>
      </trkpt>
      <trkpt lat="45.86125" lon="4.71461">
        <ele>195</ele>
        <time>2018-09-01T11:02:26Z</time>
      </trkpt>
      <trkpt lat="45.86127" lon="4.71469">
        <ele>195</ele>
        <time>2018-09-01T11:02:27Z</time>
      </trkpt>
      <trkpt lat="45.86129" lon="4.71476">
        <ele>195</ele>
        <time>2018-09-01T11:02:28Z</time>
      </trkpt>
      <trkpt lat="45.86133" lon="4.71482">
        <ele>195</ele>
        <time>2018-09-01T11:02:29Z</time>
      </trkpt>
      <trkpt lat="45.86136" lon="4.71488">
        <ele>195</ele>
        <time>2018-09-01T11:02:30Z</time>
      </trkpt>
      <trkpt lat="45.86141" lon="4.71495">
        <ele>195</ele>
        <time>2018-09-01T11:02:31Z</time>
      </trkpt>
      <trkpt lat="45.86145" lon="4.715">
        <ele>195</ele>
        <time>2018-09-01T11:02:32Z</time>
      </trkpt>
      <trkpt lat="45.86148" lon="4.71508">
        <ele>195</ele>
        <time>2018-09-01T11:02:33Z</time>
      </trkpt>
      <trkpt lat="45.86151" lon="4.71515">
        <ele>195</ele>
        <time>2018-09-01T11:02:34Z</time>
      </trkpt>
      <trkpt lat="45.86157" lon="4.71524">
        <ele>195</ele>
        <time>2018-09-01T11:02:36Z</time>
      </trkpt>
      <trkpt lat="45.8616" lon="4.71529">
        <ele>195</ele>
        <time>2018-09-01T11:02:37Z</time>
      </trkpt>
      <trkpt lat="45.86163" lon="4.71535">
        <ele>195</ele>
        <time>2018-09-01T11:02:38Z</time>
      </trkpt>
      <trkpt lat="45.86166" lon="4.7154">
        <ele>195</ele>
        <time>2018-09-01T11:02:39Z</time>
      </trkpt>
      <trkpt lat="45.86169" lon="4.71546">
        <ele>195</ele>
        <time>2018-09-01T11:02:40Z</time>
      </trkpt>
      <trkpt lat="45.86172" lon="4.71551">
        <ele>195</ele>
        <time>2018-09-01T11:02:41Z</time>
      </trkpt>
      <trkpt lat="45.86175" lon="4.71557">
        <ele>195</ele>
        <time>2018-09-01T11:02:42Z</time>
      </trkpt>
      <trkpt lat="45.86179" lon="4.71561">
        <ele>195</ele>
        <time>2018-09-01T11:02:43Z</time>
      </trkpt>
      <trkpt lat="45.86182" lon="4.71567">
        <ele>195</ele>
        <time>2018-09-01T11:02:44Z</time>
      </trkpt>
      <trkpt lat="45.86184" lon="4.71573">
        <ele>195</ele>
        <time>2018-09-01T11:02:45Z</time>
      </trkpt>
      <trkpt lat="45.86187" lon="4.7158">
        <ele>195</ele>
        <time>2018-09-01T11:02:46Z</time>
      </trkpt>
      <trkpt lat="45.86188" lon="4.71585">
        <ele>196</ele>
        <time>2018-09-01T11:02:47Z</time>
      </trkpt>
      <trkpt lat="45.86188" lon="4.71597">
        <ele>195</ele>
        <time>2018-09-01T11:02:49Z</time>
      </trkpt>
      <trkpt lat="45.86187" lon="4.71602">
        <ele>195</ele>
        <time>2018-09-01T11:02:50Z</time>
      </trkpt>
      <trkpt lat="45.86184" lon="4.71609">
        <ele>195</ele>
        <time>2018-09-01T11:02:51Z</time>
      </trkpt>
      <trkpt lat="45.86182" lon="4.71617">
        <ele>195</ele>
        <time>2018-09-01T11:02:52Z</time>
      </trkpt>
      <trkpt lat="45.86184" lon="4.71624">
        <ele>195</ele>
        <time>2018-09-01T11:02:53Z</time>
      </trkpt>
      <trkpt lat="45.86186" lon="4.71632">
        <ele>195</ele>
        <time>2018-09-01T11:02:54Z</time>
      </trkpt>
      <trkpt lat="45.8619" lon="4.71638">
        <ele>195</ele>
        <time>2018-09-01T11:02:55Z</time>
      </trkpt>
      <trkpt lat="45.86193" lon="4.71643">
        <ele>195</ele>
        <time>2018-09-01T11:02:56Z</time>
      </trkpt>
      <trkpt lat="45.86199" lon="4.71646">
        <ele>195</ele>
        <time>2018-09-01T11:02:57Z</time>
      </trkpt>
      <trkpt lat="45.86203" lon="4.71647">
        <ele>195</ele>
        <time>2018-09-01T11:02:58Z</time>
      </trkpt>
      <trkpt lat="45.86209" lon="4.71648">
        <ele>195</ele>
        <time>2018-09-01T11:02:59Z</time>
      </trkpt>
      <trkpt lat="45.86215" lon="4.7165">
        <ele>195</ele>
        <time>2018-09-01T11:03:00Z</time>
      </trkpt>
      <trkpt lat="45.86219" lon="4.71655">
        <ele>195</ele>
        <time>2018-09-01T11:03:01Z</time>
      </trkpt>
      <trkpt lat="45.86223" lon="4.71658">
        <ele>195</ele>
        <time>2018-09-01T11:03:02Z</time>
      </trkpt>
      <trkpt lat="45.86228" lon="4.71662">
        <ele>195</ele>
        <time>2018-09-01T11:03:03Z</time>
      </trkpt>
      <trkpt lat="45.86233" lon="4.71665">
        <ele>195</ele>
        <time>2018-09-01T11:03:04Z</time>
      </trkpt>
      <trkpt lat="45.86238" lon="4.71667">
        <ele>196</ele>
        <time>2018-09-01T11:03:05Z</time>
      </trkpt>
      <trkpt lat="45.86242" lon="4.71671">
        <ele>196</ele>
        <time>2018-09-01T11:03:06Z</time>
      </trkpt>
      <trkpt lat="45.86248" lon="4.71675">
        <ele>195</ele>
        <time>2018-09-01T11:03:07Z</time>
      </trkpt>
      <trkpt lat="45.86253" lon="4.71679">
        <ele>195</ele>
        <time>2018-09-01T11:03:08Z</time>
      </trkpt>
      <trkpt lat="45.86258" lon="4.71683">
        <ele>195</ele>
        <time>2018-09-01T11:03:09Z</time>
      </trkpt>
      <trkpt lat="45.86263" lon="4.71687">
        <ele>195</ele>
        <time>2018-09-01T11:03:10Z</time>
      </trkpt>
      <trkpt lat="45.86269" lon="4.7169">
        <ele>195</ele>
        <time>2018-09-01T11:03:11Z</time>
      </trkpt>
      <trkpt lat="45.86273" lon="4.71694">
        <ele>195</ele>
        <time>2018-09-01T11:03:12Z</time>
      </trkpt>
      <trkpt lat="45.86277" lon="4.71698">
        <ele>195</ele>
        <time>2018-09-01T11:03:13Z</time>
      </trkpt>
      <trkpt lat="45.86282" lon="4.71702">
        <ele>195</ele>
        <time>2018-09-01T11:03:14Z</time>
      </trkpt>
      <trkpt lat="45.86287" lon="4.71706">
        <ele>195</ele>
        <time>2018-09-01T11:03:15Z</time>
      </trkpt>
      <trkpt lat="45.86291" lon="4.71709">
        <ele>196</ele>
        <time>2018-09-01T11:03:16Z</time>
      </trkpt>
      <trkpt lat="45.86297" lon="4.71718">
        <ele>196</ele>
        <time>2018-09-01T11:03:18Z</time>
      </trkpt>
      <trkpt lat="45.86302" lon="4.71722">
        <ele>196</ele>
        <time>2018-09-01T11:03:19Z</time>
      </trkpt>
      <trkpt lat="45.86307" lon="4.71726">
        <ele>196</ele>
        <time>2018-09-01T11:03:20Z</time>
      </trkpt>
      <trkpt lat="45.86313" lon="4.71731">
        <ele>196</ele>
        <time>2018-09-01T11:03:21Z</time>
      </trkpt>
      <trkpt lat="45.8632" lon="4.71734">
        <ele>196</ele>
        <time>2018-09-01T11:03:22Z</time>
      </trkpt>
      <trkpt lat="45.86324" lon="4.71737">
        <ele>196</ele>
        <time>2018-09-01T11:03:23Z</time>
      </trkpt>
      <trkpt lat="45.86329" lon="4.71741">
        <ele>196</ele>
        <time>2018-09-01T11:03:24Z</time>
      </trkpt>
      <trkpt lat="45.86334" lon="4.71745">
        <ele>196</ele>
        <time>2018-09-01T11:03:25Z</time>
      </trkpt>
      <trkpt lat="45.86338" lon="4.7175">
        <ele>196</ele>
        <time>2018-09-01T11:03:26Z</time>
      </trkpt>
      <trkpt lat="45.86344" lon="4.71755">
        <ele>197</ele>
        <time>2018-09-01T11:03:27Z</time>
      </trkpt>
      <trkpt lat="45.86349" lon="4.71759">
        <ele>197</ele>
        <time>2018-09-01T11:03:28Z</time>
      </trkpt>
      <trkpt lat="45.86355" lon="4.71764">
        <ele>198</ele>
        <time>2018-09-01T11:03:29Z</time>
      </trkpt>
      <trkpt lat="45.86359" lon="4.71767">
        <ele>198</ele>
        <time>2018-09-01T11:03:30Z</time>
      </trkpt>
      <trkpt lat="45.86364" lon="4.71771">
        <ele>198</ele>
        <time>2018-09-01T11:03:31Z</time>
      </trkpt>
      <trkpt lat="45.86369" lon="4.71775">
        <ele>198</ele>
        <time>2018-09-01T11:03:32Z</time>
      </trkpt>
      <trkpt lat="45.86374" lon="4.71779">
        <ele>198</ele>
        <time>2018-09-01T11:03:33Z</time>
      </trkpt>
      <trkpt lat="45.86379" lon="4.71782">
        <ele>198</ele>
        <time>2018-09-01T11:03:34Z</time>
      </trkpt>
      <trkpt lat="45.86385" lon="4.71788">
        <ele>199</ele>
        <time>2018-09-01T11:03:35Z</time>
      </trkpt>
      <trkpt lat="45.8639" lon="4.71792">
        <ele>199</ele>
        <time>2018-09-01T11:03:36Z</time>
      </trkpt>
      <trkpt lat="45.86395" lon="4.71796">
        <ele>199</ele>
        <time>2018-09-01T11:03:37Z</time>
      </trkpt>
      <trkpt lat="45.864" lon="4.71801">
        <ele>199</ele>
        <time>2018-09-01T11:03:38Z</time>
      </trkpt>
      <trkpt lat="45.86406" lon="4.71804">
        <ele>199</ele>
        <time>2018-09-01T11:03:39Z</time>
      </trkpt>
      <trkpt lat="45.86411" lon="4.71814">
        <ele>200</ele>
        <time>2018-09-01T11:03:41Z</time>
      </trkpt>
      <trkpt lat="45.86416" lon="4.71817">
        <ele>200</ele>
        <time>2018-09-01T11:03:42Z</time>
      </trkpt>
      <trkpt lat="45.86423" lon="4.71824">
        <ele>199</ele>
        <time>2018-09-01T11:03:44Z</time>
      </trkpt>
      <trkpt lat="45.86429" lon="4.71828">
        <ele>199</ele>
        <time>2018-09-01T11:03:45Z</time>
      </trkpt>
      <trkpt lat="45.86434" lon="4.71832">
        <ele>199</ele>
        <time>2018-09-01T11:03:46Z</time>
      </trkpt>
      <trkpt lat="45.8644" lon="4.71836">
        <ele>201</ele>
        <time>2018-09-01T11:03:47Z</time>
      </trkpt>
      <trkpt lat="45.86445" lon="4.71841">
        <ele>201</ele>
        <time>2018-09-01T11:03:48Z</time>
      </trkpt>
      <trkpt lat="45.8645" lon="4.71842">
        <ele>200</ele>
        <time>2018-09-01T11:03:49Z</time>
      </trkpt>
      <trkpt lat="45.86455" lon="4.71846">
        <ele>200</ele>
        <time>2018-09-01T11:03:50Z</time>
      </trkpt>
      <trkpt lat="45.8646" lon="4.71852">
        <ele>200</ele>
        <time>2018-09-01T11:03:51Z</time>
      </trkpt>
      <trkpt lat="45.86465" lon="4.71854">
        <ele>199</ele>
        <time>2018-09-01T11:03:52Z</time>
      </trkpt>
      <trkpt lat="45.8647" lon="4.71858">
        <ele>199</ele>
        <time>2018-09-01T11:03:53Z</time>
      </trkpt>
      <trkpt lat="45.86478" lon="4.71863">
        <ele>199</ele>
        <time>2018-09-01T11:03:55Z</time>
      </trkpt>
      <trkpt lat="45.86484" lon="4.71866">
        <ele>199</ele>
        <time>2018-09-01T11:03:56Z</time>
      </trkpt>
      <trkpt lat="45.8649" lon="4.71869">
        <ele>199</ele>
        <time>2018-09-01T11:03:57Z</time>
      </trkpt>
      <trkpt lat="45.86495" lon="4.71872">
        <ele>199</ele>
        <time>2018-09-01T11:03:58Z</time>
      </trkpt>
      <trkpt lat="45.865" lon="4.71876">
        <ele>199</ele>
        <time>2018-09-01T11:03:59Z</time>
      </trkpt>
      <trkpt lat="45.86505" lon="4.7188">
        <ele>195</ele>
        <time>2018-09-01T11:04:00Z</time>
      </trkpt>
      <trkpt lat="45.86511" lon="4.71883">
        <ele>195</ele>
        <time>2018-09-01T11:04:01Z</time>
      </trkpt>
      <trkpt lat="45.86516" lon="4.71887">
        <ele>195</ele>
        <time>2018-09-01T11:04:02Z</time>
      </trkpt>
      <trkpt lat="45.86521" lon="4.7189">
        <ele>195</ele>
        <time>2018-09-01T11:04:03Z</time>
      </trkpt>
      <trkpt lat="45.86526" lon="4.71893">
        <ele>195</ele>
        <time>2018-09-01T11:04:04Z</time>
      </trkpt>
      <trkpt lat="45.86531" lon="4.71896">
        <ele>195</ele>
        <time>2018-09-01T11:04:05Z</time>
      </trkpt>
      <trkpt lat="45.86536" lon="4.71901">
        <ele>195</ele>
        <time>2018-09-01T11:04:06Z</time>
      </trkpt>
      <trkpt lat="45.86541" lon="4.71905">
        <ele>195</ele>
        <time>2018-09-01T11:04:07Z</time>
      </trkpt>
      <trkpt lat="45.86546" lon="4.71908">
        <ele>195</ele>
        <time>2018-09-01T11:04:08Z</time>
      </trkpt>
      <trkpt lat="45.86553" lon="4.71914">
        <ele>195</ele>
        <time>2018-09-01T11:04:10Z</time>
      </trkpt>
      <trkpt lat="45.8656" lon="4.71918">
        <ele>196</ele>
        <time>2018-09-01T11:04:11Z</time>
      </trkpt>
      <trkpt lat="45.86565" lon="4.71922">
        <ele>195</ele>
        <time>2018-09-01T11:04:12Z</time>
      </trkpt>
      <trkpt lat="45.8657" lon="4.71926">
        <ele>195</ele>
        <time>2018-09-01T11:04:13Z</time>
      </trkpt>
      <trkpt lat="45.86576" lon="4.71928">
        <ele>195</ele>
        <time>2018-09-01T11:04:14Z</time>
      </trkpt>
      <trkpt lat="45.86579" lon="4.7193">
        <ele>195</ele>
        <time>2018-09-01T11:04:15Z</time>
      </trkpt>
      <trkpt lat="45.86587" lon="4.71935">
        <ele>194</ele>
        <time>2018-09-01T11:04:17Z</time>
      </trkpt>
      <trkpt lat="45.86592" lon="4.71939">
        <ele>194</ele>
        <time>2018-09-01T11:04:18Z</time>
      </trkpt>
      <trkpt lat="45.86596" lon="4.71943">
        <ele>194</ele>
        <time>2018-09-01T11:04:19Z</time>
      </trkpt>
      <trkpt lat="45.86602" lon="4.71948">
        <ele>194</ele>
        <time>2018-09-01T11:04:20Z</time>
      </trkpt>
      <trkpt lat="45.86606" lon="4.71953">
        <ele>194</ele>
        <time>2018-09-01T11:04:21Z</time>
      </trkpt>
      <trkpt lat="45.8661" lon="4.71957">
        <ele>194</ele>
        <time>2018-09-01T11:04:22Z</time>
      </trkpt>
      <trkpt lat="45.86615" lon="4.7196">
        <ele>195</ele>
        <time>2018-09-01T11:04:23Z</time>
      </trkpt>
      <trkpt lat="45.8662" lon="4.71963">
        <ele>195</ele>
        <time>2018-09-01T11:04:24Z</time>
      </trkpt>
      <trkpt lat="45.86623" lon="4.71967">
        <ele>195</ele>
        <time>2018-09-01T11:04:25Z</time>
      </trkpt>
      <trkpt lat="45.86628" lon="4.71972">
        <ele>195</ele>
        <time>2018-09-01T11:04:26Z</time>
      </trkpt>
      <trkpt lat="45.86636" lon="4.71976">
        <ele>195</ele>
        <time>2018-09-01T11:04:28Z</time>
      </trkpt>
      <trkpt lat="45.86641" lon="4.71981">
        <ele>195</ele>
        <time>2018-09-01T11:04:29Z</time>
      </trkpt>
      <trkpt lat="45.86645" lon="4.71985">
        <ele>195</ele>
        <time>2018-09-01T11:04:30Z</time>
      </trkpt>
      <trkpt lat="45.8665" lon="4.71989">
        <ele>195</ele>
        <time>2018-09-01T11:04:31Z</time>
      </trkpt>
      <trkpt lat="45.86654" lon="4.71992">
        <ele>195</ele>
        <time>2018-09-01T11:04:32Z</time>
      </trkpt>
      <trkpt lat="45.86658" lon="4.71994">
        <ele>195</ele>
        <time>2018-09-01T11:04:33Z</time>
      </trkpt>
      <trkpt lat="45.86663" lon="4.71998">
        <ele>195</ele>
        <time>2018-09-01T11:04:34Z</time>
      </trkpt>
      <trkpt lat="45.86667" lon="4.72001">
        <ele>195</ele>
        <time>2018-09-01T11:04:35Z</time>
      </trkpt>
      <trkpt lat="45.86673" lon="4.72005">
        <ele>196</ele>
        <time>2018-09-01T11:04:36Z</time>
      </trkpt>
      <trkpt lat="45.86678" lon="4.72009">
        <ele>196</ele>
        <time>2018-09-01T11:04:37Z</time>
      </trkpt>
      <trkpt lat="45.86682" lon="4.72015">
        <ele>196</ele>
        <time>2018-09-01T11:04:38Z</time>
      </trkpt>
      <trkpt lat="45.86687" lon="4.72018">
        <ele>196</ele>
        <time>2018-09-01T11:04:39Z</time>
      </trkpt>
      <trkpt lat="45.86691" lon="4.72023">
        <ele>197</ele>
        <time>2018-09-01T11:04:40Z</time>
      </trkpt>
      <trkpt lat="45.86695" lon="4.72026">
        <ele>197</ele>
        <time>2018-09-01T11:04:41Z</time>
      </trkpt>
      <trkpt lat="45.86699" lon="4.72029">
        <ele>197</ele>
        <time>2018-09-01T11:04:42Z</time>
      </trkpt>
      <trkpt lat="45.86704" lon="4.72032">
        <ele>197</ele>
        <time>2018-09-01T11:04:43Z</time>
      </trkpt>
      <trkpt lat="45.86708" lon="4.72036">
        <ele>197</ele>
        <time>2018-09-01T11:04:44Z</time>
      </trkpt>
      <trkpt lat="45.86712" lon="4.7204">
        <ele>197</ele>
        <time>2018-09-01T11:04:45Z</time>
      </trkpt>
      <trkpt lat="45.86716" lon="4.72044">
        <ele>197</ele>
        <time>2018-09-01T11:04:46Z</time>
      </trkpt>
      <trkpt lat="45.86722" lon="4.72046">
        <ele>197</ele>
        <time>2018-09-01T11:04:47Z</time>
      </trkpt>
      <trkpt lat="45.8673" lon="4.72051">
        <ele>197</ele>
        <time>2018-09-01T11:04:49Z</time>
      </trkpt>
      <trkpt lat="45.86734" lon="4.72053">
        <ele>197</ele>
        <time>2018-09-01T11:04:50Z</time>
      </trkpt>
      <trkpt lat="45.86739" lon="4.72056">
        <ele>197</ele>
        <time>2018-09-01T11:04:51Z</time>
      </trkpt>
      <trkpt lat="45.86743" lon="4.7206">
        <ele>197</ele>
        <time>2018-09-01T11:04:52Z</time>
      </trkpt>
      <trkpt lat="45.86747" lon="4.72063">
        <ele>197</ele>
        <time>2018-09-01T11:04:53Z</time>
      </trkpt>
      <trkpt lat="45.86752" lon="4.72066">
        <ele>195</ele>
        <time>2018-09-01T11:04:54Z</time>
      </trkpt>
      <trkpt lat="45.8676" lon="4.72072">
        <ele>195</ele>
        <time>2018-09-01T11:04:56Z</time>
      </trkpt>
      <trkpt lat="45.86764" lon="4.72074">
        <ele>195</ele>
        <time>2018-09-01T11:04:57Z</time>
      </trkpt>
      <trkpt lat="45.86769" lon="4.72075">
        <ele>195</ele>
        <time>2018-09-01T11:04:58Z</time>
      </trkpt>
      <trkpt lat="45.86774" lon="4.72077">
        <ele>195</ele>
        <time>2018-09-01T11:04:59Z</time>
      </trkpt>
      <trkpt lat="45.8678" lon="4.72078">
        <ele>195</ele>
        <time>2018-09-01T11:05:00Z</time>
      </trkpt>
      <trkpt lat="45.86785" lon="4.7208">
        <ele>194</ele>
        <time>2018-09-01T11:05:01Z</time>
      </trkpt>
      <trkpt lat="45.8679" lon="4.72082">
        <ele>194</ele>
        <time>2018-09-01T11:05:02Z</time>
      </trkpt>
      <trkpt lat="45.86795" lon="4.72083">
        <ele>194</ele>
        <time>2018-09-01T11:05:03Z</time>
      </trkpt>
      <trkpt lat="45.868" lon="4.72083">
        <ele>194</ele>
        <time>2018-09-01T11:05:04Z</time>
      </trkpt>
      <trkpt lat="45.86806" lon="4.72085">
        <ele>200</ele>
        <time>2018-09-01T11:05:05Z</time>
      </trkpt>
      <trkpt lat="45.86813" lon="4.72089">
        <ele>200</ele>
        <time>2018-09-01T11:05:07Z</time>
      </trkpt>
      <trkpt lat="45.86818" lon="4.72091">
        <ele>199</ele>
        <time>2018-09-01T11:05:08Z</time>
      </trkpt>
      <trkpt lat="45.86823" lon="4.72092">
        <ele>198</ele>
        <time>2018-09-01T11:05:09Z</time>
      </trkpt>
      <trkpt lat="45.86828" lon="4.72094">
        <ele>198</ele>
        <time>2018-09-01T11:05:10Z</time>
      </trkpt>
      <trkpt lat="45.86833" lon="4.72096">
        <ele>198</ele>
        <time>2018-09-01T11:05:11Z</time>
      </trkpt>
      <trkpt lat="45.86838" lon="4.72097">
        <ele>197</ele>
        <time>2018-09-01T11:05:12Z</time>
      </trkpt>
      <trkpt lat="45.86843" lon="4.72098">
        <ele>198</ele>
        <time>2018-09-01T11:05:13Z</time>
      </trkpt>
      <trkpt lat="45.86847" lon="4.721">
        <ele>199</ele>
        <time>2018-09-01T11:05:14Z</time>
      </trkpt>
      <trkpt lat="45.86853" lon="4.72104">
        <ele>200</ele>
        <time>2018-09-01T11:05:15Z</time>
      </trkpt>
      <trkpt lat="45.86858" lon="4.72107">
        <ele>200</ele>
        <time>2018-09-01T11:05:16Z</time>
      </trkpt>
      <trkpt lat="45.86863" lon="4.72109">
        <ele>201</ele>
        <time>2018-09-01T11:05:17Z</time>
      </trkpt>
      <trkpt lat="45.86868" lon="4.72111">
        <ele>201</ele>
        <time>2018-09-01T11:05:18Z</time>
      </trkpt>
      <trkpt lat="45.86876" lon="4.72115">
        <ele>201</ele>
        <time>2018-09-01T11:05:20Z</time>
      </trkpt>
      <trkpt lat="45.86878" lon="4.72118">
        <ele>202</ele>
        <time>2018-09-01T11:05:21Z</time>
      </trkpt>
      <trkpt lat="45.86883" lon="4.7212">
        <ele>202</ele>
        <time>2018-09-01T11:05:22Z</time>
      </trkpt>
      <trkpt lat="45.86887" lon="4.72122">
        <ele>202</ele>
        <time>2018-09-01T11:05:23Z</time>
      </trkpt>
      <trkpt lat="45.86895" lon="4.72125">
        <ele>202</ele>
        <time>2018-09-01T11:05:25Z</time>
      </trkpt>
      <trkpt lat="45.86899" lon="4.72129">
        <ele>203</ele>
        <time>2018-09-01T11:05:26Z</time>
      </trkpt>
      <trkpt lat="45.86902" lon="4.72131">
        <ele>203</ele>
        <time>2018-09-01T11:05:27Z</time>
      </trkpt>
      <trkpt lat="45.86908" lon="4.72132">
        <ele>204</ele>
        <time>2018-09-01T11:05:28Z</time>
      </trkpt>
      <trkpt lat="45.86915" lon="4.72136">
        <ele>204</ele>
        <time>2018-09-01T11:05:30Z</time>
      </trkpt>
      <trkpt lat="45.86918" lon="4.72138">
        <ele>203</ele>
        <time>2018-09-01T11:05:31Z</time>
      </trkpt>
      <trkpt lat="45.86924" lon="4.72143">
        <ele>203</ele>
        <time>2018-09-01T11:05:33Z</time>
      </trkpt>
      <trkpt lat="45.8693" lon="4.72146">
        <ele>203</ele>
        <time>2018-09-01T11:05:34Z</time>
      </trkpt>
      <trkpt lat="45.86934" lon="4.72151">
        <ele>204</ele>
        <time>2018-09-01T11:05:36Z</time>
      </trkpt>
      <trkpt lat="45.86939" lon="4.72154">
        <ele>204</ele>
        <time>2018-09-01T11:05:37Z</time>
      </trkpt>
      <trkpt lat="45.86943" lon="4.72156">
        <ele>203</ele>
        <time>2018-09-01T11:05:38Z</time>
      </trkpt>
      <trkpt lat="45.86947" lon="4.72159">
        <ele>203</ele>
        <time>2018-09-01T11:05:39Z</time>
      </trkpt>
      <trkpt lat="45.86951" lon="4.72162">
        <ele>202</ele>
        <time>2018-09-01T11:05:40Z</time>
      </trkpt>
      <trkpt lat="45.86956" lon="4.72163">
        <ele>202</ele>
        <time>2018-09-01T11:05:41Z</time>
      </trkpt>
      <trkpt lat="45.86963" lon="4.72168">
        <ele>210</ele>
        <time>2018-09-01T11:05:43Z</time>
      </trkpt>
      <trkpt lat="45.86967" lon="4.72171">
        <ele>210</ele>
        <time>2018-09-01T11:05:44Z</time>
      </trkpt>
      <trkpt lat="45.86971" lon="4.72173">
        <ele>209</ele>
        <time>2018-09-01T11:05:45Z</time>
      </trkpt>
      <trkpt lat="45.86975" lon="4.72175">
        <ele>209</ele>
        <time>2018-09-01T11:05:46Z</time>
      </trkpt>
      <trkpt lat="45.86978" lon="4.72177">
        <ele>208</ele>
        <time>2018-09-01T11:05:47Z</time>
      </trkpt>
      <trkpt lat="45.86983" lon="4.72182">
        <ele>208</ele>
        <time>2018-09-01T11:05:48Z</time>
      </trkpt>
      <trkpt lat="45.86991" lon="4.72186">
        <ele>208</ele>
        <time>2018-09-01T11:05:50Z</time>
      </trkpt>
      <trkpt lat="45.86995" lon="4.7219">
        <ele>208</ele>
        <time>2018-09-01T11:05:51Z</time>
      </trkpt>
      <trkpt lat="45.87002" lon="4.72196">
        <ele>202</ele>
        <time>2018-09-01T11:05:53Z</time>
      </trkpt>
      <trkpt lat="45.87006" lon="4.72198">
        <ele>202</ele>
        <time>2018-09-01T11:05:54Z</time>
      </trkpt>
      <trkpt lat="45.87011" lon="4.72201">
        <ele>202</ele>
        <time>2018-09-01T11:05:55Z</time>
      </trkpt>
      <trkpt lat="45.87016" lon="4.72205">
        <ele>202</ele>
        <time>2018-09-01T11:05:56Z</time>
      </trkpt>
      <trkpt lat="45.87019" lon="4.72209">
        <ele>202</ele>
        <time>2018-09-01T11:05:57Z</time>
      </trkpt>
      <trkpt lat="45.87025" lon="4.72211">
        <ele>202</ele>
        <time>2018-09-01T11:05:58Z</time>
      </trkpt>
      <trkpt lat="45.8703" lon="4.72214">
        <ele>202</ele>
        <time>2018-09-01T11:05:59Z</time>
      </trkpt>
      <trkpt lat="45.87034" lon="4.72217">
        <ele>202</ele>
        <time>2018-09-01T11:06:00Z</time>
      </trkpt>
      <trkpt lat="45.87039" lon="4.7222">
        <ele>202</ele>
        <time>2018-09-01T11:06:01Z</time>
      </trkpt>
      <trkpt lat="45.87044" lon="4.72223">
        <ele>202</ele>
        <time>2018-09-01T11:06:02Z</time>
      </trkpt>
      <trkpt lat="45.8705" lon="4.72226">
        <ele>201</ele>
        <time>2018-09-01T11:06:03Z</time>
      </trkpt>
      <trkpt lat="45.87055" lon="4.72229">
        <ele>201</ele>
        <time>2018-09-01T11:06:04Z</time>
      </trkpt>
      <trkpt lat="45.87059" lon="4.72234">
        <ele>201</ele>
        <time>2018-09-01T11:06:05Z</time>
      </trkpt>
      <trkpt lat="45.87063" lon="4.72237">
        <ele>200</ele>
        <time>2018-09-01T11:06:06Z</time>
      </trkpt>
      <trkpt lat="45.87067" lon="4.72241">
        <ele>200</ele>
        <time>2018-09-01T11:06:07Z</time>
      </trkpt>
      <trkpt lat="45.87071" lon="4.72244">
        <ele>200</ele>
        <time>2018-09-01T11:06:08Z</time>
      </trkpt>
      <trkpt lat="45.87075" lon="4.72248">
        <ele>200</ele>
        <time>2018-09-01T11:06:09Z</time>
      </trkpt>
      <trkpt lat="45.8708" lon="4.72252">
        <ele>200</ele>
        <time>2018-09-01T11:06:10Z</time>
      </trkpt>
      <trkpt lat="45.87085" lon="4.72259">
        <ele>198</ele>
        <time>2018-09-01T11:06:12Z</time>
      </trkpt>
      <trkpt lat="45.87089" lon="4.72264">
        <ele>198</ele>
        <time>2018-09-01T11:06:13Z</time>
      </trkpt>
      <trkpt lat="45.87094" lon="4.72268">
        <ele>198</ele>
        <time>2018-09-01T11:06:14Z</time>
      </trkpt>
      <trkpt lat="45.87097" lon="4.72272">
        <ele>198</ele>
        <time>2018-09-01T11:06:15Z</time>
      </trkpt>
      <trkpt lat="45.871" lon="4.72277">
        <ele>197</ele>
        <time>2018-09-01T11:06:16Z</time>
      </trkpt>
      <trkpt lat="45.87105" lon="4.72281">
        <ele>197</ele>
        <time>2018-09-01T11:06:17Z</time>
      </trkpt>
      <trkpt lat="45.87109" lon="4.72286">
        <ele>197</ele>
        <time>2018-09-01T11:06:18Z</time>
      </trkpt>
      <trkpt lat="45.87112" lon="4.72292">
        <ele>197</ele>
        <time>2018-09-01T11:06:19Z</time>
      </trkpt>
      <trkpt lat="45.87114" lon="4.72297">
        <ele>197</ele>
        <time>2018-09-01T11:06:20Z</time>
      </trkpt>
      <trkpt lat="45.87118" lon="4.72302">
        <ele>197</ele>
        <time>2018-09-01T11:06:21Z</time>
      </trkpt>
      <trkpt lat="45.87122" lon="4.72312">
        <ele>197</ele>
        <time>2018-09-01T11:06:23Z</time>
      </trkpt>
      <trkpt lat="45.87123" lon="4.72316">
        <ele>197</ele>
        <time>2018-09-01T11:06:24Z</time>
      </trkpt>
      <trkpt lat="45.87126" lon="4.72324">
        <ele>197</ele>
        <time>2018-09-01T11:06:25Z</time>
      </trkpt>
      <trkpt lat="45.87128" lon="4.72329">
        <ele>196</ele>
        <time>2018-09-01T11:06:26Z</time>
      </trkpt>
      <trkpt lat="45.87132" lon="4.7234">
        <ele>198</ele>
        <time>2018-09-01T11:06:28Z</time>
      </trkpt>
      <trkpt lat="45.87135" lon="4.72346">
        <ele>198</ele>
        <time>2018-09-01T11:06:29Z</time>
      </trkpt>
      <trkpt lat="45.87139" lon="4.72351">
        <ele>197</ele>
        <time>2018-09-01T11:06:30Z</time>
      </trkpt>
      <trkpt lat="45.87142" lon="4.72357">
        <ele>197</ele>
        <time>2018-09-01T11:06:31Z</time>
      </trkpt>
      <trkpt lat="45.87145" lon="4.72362">
        <ele>197</ele>
        <time>2018-09-01T11:06:32Z</time>
      </trkpt>
      <trkpt lat="45.87149" lon="4.72369">
        <ele>197</ele>
        <time>2018-09-01T11:06:33Z</time>
      </trkpt>
      <trkpt lat="45.87154" lon="4.7238">
        <ele>197</ele>
        <time>2018-09-01T11:06:35Z</time>
      </trkpt>
      <trkpt lat="45.87156" lon="4.72386">
        <ele>197</ele>
        <time>2018-09-01T11:06:36Z</time>
      </trkpt>
      <trkpt lat="45.87158" lon="4.72392">
        <ele>197</ele>
        <time>2018-09-01T11:06:37Z</time>
      </trkpt>
      <trkpt lat="45.87161" lon="4.72398">
        <ele>197</ele>
        <time>2018-09-01T11:06:38Z</time>
      </trkpt>
      <trkpt lat="45.87164" lon="4.72405">
        <ele>196</ele>
        <time>2018-09-01T11:06:39Z</time>
      </trkpt>
      <trkpt lat="45.87167" lon="4.72411">
        <ele>193</ele>
        <time>2018-09-01T11:06:40Z</time>
      </trkpt>
      <trkpt lat="45.87171" lon="4.72415">
        <ele>193</ele>
        <time>2018-09-01T11:06:41Z</time>
      </trkpt>
      <trkpt lat="45.87174" lon="4.72419">
        <ele>194</ele>
        <time>2018-09-01T11:06:42Z</time>
      </trkpt>
      <trkpt lat="45.8718" lon="4.72428">
        <ele>194</ele>
        <time>2018-09-01T11:06:44Z</time>
      </trkpt>
      <trkpt lat="45.87185" lon="4.72432">
        <ele>194</ele>
        <time>2018-09-01T11:06:45Z</time>
      </trkpt>
      <trkpt lat="45.87189" lon="4.72437">
        <ele>194</ele>
        <time>2018-09-01T11:06:46Z</time>
      </trkpt>
      <trkpt lat="45.87195" lon="4.72444">
        <ele>194</ele>
        <time>2018-09-01T11:06:47Z</time>
      </trkpt>
      <trkpt lat="45.87199" lon="4.72451">
        <ele>194</ele>
        <time>2018-09-01T11:06:48Z</time>
      </trkpt>
      <trkpt lat="45.87203" lon="4.72458">
        <ele>194</ele>
        <time>2018-09-01T11:06:49Z</time>
      </trkpt>
      <trkpt lat="45.87207" lon="4.72465">
        <ele>194</ele>
        <time>2018-09-01T11:06:50Z</time>
      </trkpt>
      <trkpt lat="45.87211" lon="4.72471">
        <ele>194</ele>
        <time>2018-09-01T11:06:51Z</time>
      </trkpt>
      <trkpt lat="45.87216" lon="4.72478">
        <ele>194</ele>
        <time>2018-09-01T11:06:52Z</time>
      </trkpt>
      <trkpt lat="45.8722" lon="4.72484">
        <ele>194</ele>
        <time>2018-09-01T11:06:53Z</time>
      </trkpt>
      <trkpt lat="45.87223" lon="4.7249">
        <ele>194</ele>
        <time>2018-09-01T11:06:54Z</time>
      </trkpt>
      <trkpt lat="45.87227" lon="4.72495">
        <ele>194</ele>
        <time>2018-09-01T11:06:55Z</time>
      </trkpt>
      <trkpt lat="45.87231" lon="4.72501">
        <ele>196</ele>
        <time>2018-09-01T11:06:56Z</time>
      </trkpt>
      <trkpt lat="45.87235" lon="4.72506">
        <ele>196</ele>
        <time>2018-09-01T11:06:57Z</time>
      </trkpt>
      <trkpt lat="45.87236" lon="4.72513">
        <ele>196</ele>
        <time>2018-09-01T11:06:58Z</time>
      </trkpt>
      <trkpt lat="45.87239" lon="4.72518">
        <ele>196</ele>
        <time>2018-09-01T11:06:59Z</time>
      </trkpt>
      <trkpt lat="45.87243" lon="4.72529">
        <ele>197</ele>
        <time>2018-09-01T11:07:03Z</time>
      </trkpt>
      <trkpt lat="45.87247" lon="4.72539">
        <ele>197</ele>
        <time>2018-09-01T11:07:04Z</time>
      </trkpt>
      <trkpt lat="45.8725" lon="4.72544">
        <ele>197</ele>
        <time>2018-09-01T11:07:05Z</time>
      </trkpt>
      <trkpt lat="45.87254" lon="4.72549">
        <ele>194</ele>
        <time>2018-09-01T11:07:06Z</time>
      </trkpt>
      <trkpt lat="45.87256" lon="4.72558">
        <ele>194</ele>
        <time>2018-09-01T11:07:07Z</time>
      </trkpt>
      <trkpt lat="45.87259" lon="4.72565">
        <ele>195</ele>
        <time>2018-09-01T11:07:08Z</time>
      </trkpt>
      <trkpt lat="45.87262" lon="4.72569">
        <ele>195</ele>
        <time>2018-09-01T11:07:09Z</time>
      </trkpt>
      <trkpt lat="45.87266" lon="4.72574">
        <ele>195</ele>
        <time>2018-09-01T11:07:10Z</time>
      </trkpt>
      <trkpt lat="45.87269" lon="4.72578">
        <ele>195</ele>
        <time>2018-09-01T11:07:11Z</time>
      </trkpt>
      <trkpt lat="45.87273" lon="4.72585">
        <ele>195</ele>
        <time>2018-09-01T11:07:12Z</time>
      </trkpt>
      <trkpt lat="45.87279" lon="4.72591">
        <ele>195</ele>
        <time>2018-09-01T11:07:13Z</time>
      </trkpt>
      <trkpt lat="45.87284" lon="4.72596">
        <ele>194</ele>
        <time>2018-09-01T11:07:14Z</time>
      </trkpt>
      <trkpt lat="45.8729" lon="4.72602">
        <ele>194</ele>
        <time>2018-09-01T11:07:15Z</time>
      </trkpt>
      <trkpt lat="45.87294" lon="4.72608">
        <ele>194</ele>
        <time>2018-09-01T11:07:16Z</time>
      </trkpt>
      <trkpt lat="45.87296" lon="4.72612">
        <ele>194</ele>
        <time>2018-09-01T11:07:17Z</time>
      </trkpt>
      <trkpt lat="45.87301" lon="4.72617">
        <ele>194</ele>
        <time>2018-09-01T11:07:18Z</time>
      </trkpt>
      <trkpt lat="45.87305" lon="4.72622">
        <ele>193</ele>
        <time>2018-09-01T11:07:19Z</time>
      </trkpt>
      <trkpt lat="45.8731" lon="4.72625">
        <ele>193</ele>
        <time>2018-09-01T11:07:20Z</time>
      </trkpt>
      <trkpt lat="45.87315" lon="4.7263">
        <ele>193</ele>
        <time>2018-09-01T11:07:21Z</time>
      </trkpt>
      <trkpt lat="45.87318" lon="4.72635">
        <ele>193</ele>
        <time>2018-09-01T11:07:22Z</time>
      </trkpt>
      <trkpt lat="45.87323" lon="4.7264">
        <ele>192</ele>
        <time>2018-09-01T11:07:23Z</time>
      </trkpt>
      <trkpt lat="45.87326" lon="4.72644">
        <ele>192</ele>
        <time>2018-09-01T11:07:24Z</time>
      </trkpt>
      <trkpt lat="45.87331" lon="4.72648">
        <ele>192</ele>
        <time>2018-09-01T11:07:25Z</time>
      </trkpt>
      <trkpt lat="45.87335" lon="4.72652">
        <ele>190</ele>
        <time>2018-09-01T11:07:26Z</time>
      </trkpt>
      <trkpt lat="45.8734" lon="4.72659">
        <ele>190</ele>
        <time>2018-09-01T11:07:28Z</time>
      </trkpt>
      <trkpt lat="45.87345" lon="4.72662">
        <ele>190</ele>
        <time>2018-09-01T11:07:29Z</time>
      </trkpt>
      <trkpt lat="45.87349" lon="4.72665">
        <ele>190</ele>
        <time>2018-09-01T11:07:30Z</time>
      </trkpt>
      <trkpt lat="45.87353" lon="4.72669">
        <ele>190</ele>
        <time>2018-09-01T11:07:31Z</time>
      </trkpt>
      <trkpt lat="45.87357" lon="4.72671">
        <ele>190</ele>
        <time>2018-09-01T11:07:32Z</time>
      </trkpt>
      <trkpt lat="45.87361" lon="4.72676">
        <ele>190</ele>
        <time>2018-09-01T11:07:33Z</time>
      </trkpt>
      <trkpt lat="45.87368" lon="4.72683">
        <ele>190</ele>
        <time>2018-09-01T11:07:35Z</time>
      </trkpt>
      <trkpt lat="45.87372" lon="4.72689">
        <ele>190</ele>
        <time>2018-09-01T11:07:36Z</time>
      </trkpt>
      <trkpt lat="45.87375" lon="4.72694">
        <ele>190</ele>
        <time>2018-09-01T11:07:37Z</time>
      </trkpt>
      <trkpt lat="45.87379" lon="4.727">
        <ele>190</ele>
        <time>2018-09-01T11:07:38Z</time>
      </trkpt>
      <trkpt lat="45.87381" lon="4.7271">
        <ele>190</ele>
        <time>2018-09-01T11:07:40Z</time>
      </trkpt>
      <trkpt lat="45.87384" lon="4.72715">
        <ele>190</ele>
        <time>2018-09-01T11:07:41Z</time>
      </trkpt>
      <trkpt lat="45.87389" lon="4.72724">
        <ele>190</ele>
        <time>2018-09-01T11:07:43Z</time>
      </trkpt>
      <trkpt lat="45.87392" lon="4.72731">
        <ele>190</ele>
        <time>2018-09-01T11:07:44Z</time>
      </trkpt>
      <trkpt lat="45.87398" lon="4.72739">
        <ele>189</ele>
        <time>2018-09-01T11:07:46Z</time>
      </trkpt>
      <trkpt lat="45.87401" lon="4.72743">
        <ele>189</ele>
        <time>2018-09-01T11:07:47Z</time>
      </trkpt>
      <trkpt lat="45.87404" lon="4.72748">
        <ele>189</ele>
        <time>2018-09-01T11:07:48Z</time>
      </trkpt>
      <trkpt lat="45.87409" lon="4.72754">
        <ele>189</ele>
        <time>2018-09-01T11:07:49Z</time>
      </trkpt>
      <trkpt lat="45.87413" lon="4.7276">
        <ele>189</ele>
        <time>2018-09-01T11:07:50Z</time>
      </trkpt>
      <trkpt lat="45.87416" lon="4.72766">
        <ele>189</ele>
        <time>2018-09-01T11:07:51Z</time>
      </trkpt>
      <trkpt lat="45.87419" lon="4.72772">
        <ele>189</ele>
        <time>2018-09-01T11:07:52Z</time>
      </trkpt>
      <trkpt lat="45.87422" lon="4.72777">
        <ele>189</ele>
        <time>2018-09-01T11:07:53Z</time>
      </trkpt>
      <trkpt lat="45.87424" lon="4.72783">
        <ele>189</ele>
        <time>2018-09-01T11:07:54Z</time>
      </trkpt>
      <trkpt lat="45.87426" lon="4.7279">
        <ele>189</ele>
        <time>2018-09-01T11:07:55Z</time>
      </trkpt>
      <trkpt lat="45.87429" lon="4.72796">
        <ele>189</ele>
        <time>2018-09-01T11:07:56Z</time>
      </trkpt>
      <trkpt lat="45.87432" lon="4.72801">
        <ele>189</ele>
        <time>2018-09-01T11:07:57Z</time>
      </trkpt>
      <trkpt lat="45.87434" lon="4.72805">
        <ele>189</ele>
        <time>2018-09-01T11:07:58Z</time>
      </trkpt>
      <trkpt lat="45.87437" lon="4.72813">
        <ele>189</ele>
        <time>2018-09-01T11:07:59Z</time>
      </trkpt>
      <trkpt lat="45.87439" lon="4.72819">
        <ele>189</ele>
        <time>2018-09-01T11:08:00Z</time>
      </trkpt>
      <trkpt lat="45.87442" lon="4.72826">
        <ele>189</ele>
        <time>2018-09-01T11:08:01Z</time>
      </trkpt>
      <trkpt lat="45.87446" lon="4.72834">
        <ele>188</ele>
        <time>2018-09-01T11:08:02Z</time>
      </trkpt>
      <trkpt lat="45.87448" lon="4.72839">
        <ele>188</ele>
        <time>2018-09-01T11:08:03Z</time>
      </trkpt>
      <trkpt lat="45.8745" lon="4.72846">
        <ele>188</ele>
        <time>2018-09-01T11:08:04Z</time>
      </trkpt>
      <trkpt lat="45.87452" lon="4.72852">
        <ele>188</ele>
        <time>2018-09-01T11:08:05Z</time>
      </trkpt>
      <trkpt lat="45.87456" lon="4.72856">
        <ele>188</ele>
        <time>2018-09-01T11:08:06Z</time>
      </trkpt>
      <trkpt lat="45.87457" lon="4.72863">
        <ele>188</ele>
        <time>2018-09-01T11:08:07Z</time>
      </trkpt>
      <trkpt lat="45.87459" lon="4.7287">
        <ele>188</ele>
        <time>2018-09-01T11:08:08Z</time>
      </trkpt>
      <trkpt lat="45.87461" lon="4.72878">
        <ele>188</ele>
        <time>2018-09-01T11:08:09Z</time>
      </trkpt>
      <trkpt lat="45.87464" lon="4.72884">
        <ele>188</ele>
        <time>2018-09-01T11:08:10Z</time>
      </trkpt>
      <trkpt lat="45.87466" lon="4.7289">
        <ele>188</ele>
        <time>2018-09-01T11:08:11Z</time>
      </trkpt>
      <trkpt lat="45.87468" lon="4.72897">
        <ele>188</ele>
        <time>2018-09-01T11:08:12Z</time>
      </trkpt>
      <trkpt lat="45.87471" lon="4.72903">
        <ele>188</ele>
        <time>2018-09-01T11:08:13Z</time>
      </trkpt>
      <trkpt lat="45.87472" lon="4.72909">
        <ele>188</ele>
        <time>2018-09-01T11:08:14Z</time>
      </trkpt>
      <trkpt lat="45.87475" lon="4.72916">
        <ele>188</ele>
        <time>2018-09-01T11:08:15Z</time>
      </trkpt>
      <trkpt lat="45.87479" lon="4.72923">
        <ele>188</ele>
        <time>2018-09-01T11:08:16Z</time>
      </trkpt>
      <trkpt lat="45.87482" lon="4.7293">
        <ele>188</ele>
        <time>2018-09-01T11:08:17Z</time>
      </trkpt>
      <trkpt lat="45.87486" lon="4.72935">
        <ele>188</ele>
        <time>2018-09-01T11:08:18Z</time>
      </trkpt>
      <trkpt lat="45.87491" lon="4.7294">
        <ele>188</ele>
        <time>2018-09-01T11:08:19Z</time>
      </trkpt>
      <trkpt lat="45.87496" lon="4.72944">
        <ele>188</ele>
        <time>2018-09-01T11:08:20Z</time>
      </trkpt>
      <trkpt lat="45.87502" lon="4.72947">
        <ele>187</ele>
        <time>2018-09-01T11:08:21Z</time>
      </trkpt>
      <trkpt lat="45.87508" lon="4.72952">
        <ele>187</ele>
        <time>2018-09-01T11:08:22Z</time>
      </trkpt>
      <trkpt lat="45.87511" lon="4.72958">
        <ele>187</ele>
        <time>2018-09-01T11:08:23Z</time>
      </trkpt>
      <trkpt lat="45.87515" lon="4.72965">
        <ele>187</ele>
        <time>2018-09-01T11:08:24Z</time>
      </trkpt>
      <trkpt lat="45.87519" lon="4.72972">
        <ele>187</ele>
        <time>2018-09-01T11:08:25Z</time>
      </trkpt>
      <trkpt lat="45.87522" lon="4.72978">
        <ele>187</ele>
        <time>2018-09-01T11:08:26Z</time>
      </trkpt>
      <trkpt lat="45.87526" lon="4.72983">
        <ele>187</ele>
        <time>2018-09-01T11:08:27Z</time>
      </trkpt>
      <trkpt lat="45.87529" lon="4.72989">
        <ele>187</ele>
        <time>2018-09-01T11:08:28Z</time>
      </trkpt>
      <trkpt lat="45.87532" lon="4.72998">
        <ele>187</ele>
        <time>2018-09-01T11:08:29Z</time>
      </trkpt>
      <trkpt lat="45.87536" lon="4.73005">
        <ele>187</ele>
        <time>2018-09-01T11:08:30Z</time>
      </trkpt>
      <trkpt lat="45.8754" lon="4.73011">
        <ele>187</ele>
        <time>2018-09-01T11:08:31Z</time>
      </trkpt>
      <trkpt lat="45.87543" lon="4.73019">
        <ele>188</ele>
        <time>2018-09-01T11:08:32Z</time>
      </trkpt>
      <trkpt lat="45.87545" lon="4.73025">
        <ele>188</ele>
        <time>2018-09-01T11:08:33Z</time>
      </trkpt>
      <trkpt lat="45.87549" lon="4.73032">
        <ele>188</ele>
        <time>2018-09-01T11:08:34Z</time>
      </trkpt>
      <trkpt lat="45.87552" lon="4.73038">
        <ele>188</ele>
        <time>2018-09-01T11:08:35Z</time>
      </trkpt>
      <trkpt lat="45.87555" lon="4.73045">
        <ele>188</ele>
        <time>2018-09-01T11:08:36Z</time>
      </trkpt>
      <trkpt lat="45.87559" lon="4.7305">
        <ele>188</ele>
        <time>2018-09-01T11:08:37Z</time>
      </trkpt>
      <trkpt lat="45.87562" lon="4.73056">
        <ele>188</ele>
        <time>2018-09-01T11:08:38Z</time>
      </trkpt>
      <trkpt lat="45.87565" lon="4.73063">
        <ele>188</ele>
        <time>2018-09-01T11:08:39Z</time>
      </trkpt>
      <trkpt lat="45.87567" lon="4.73069">
        <ele>188</ele>
        <time>2018-09-01T11:08:40Z</time>
      </trkpt>
      <trkpt lat="45.8757" lon="4.73076">
        <ele>188</ele>
        <time>2018-09-01T11:08:41Z</time>
      </trkpt>
      <trkpt lat="45.87573" lon="4.73081">
        <ele>188</ele>
        <time>2018-09-01T11:08:42Z</time>
      </trkpt>
      <trkpt lat="45.87576" lon="4.73086">
        <ele>188</ele>
        <time>2018-09-01T11:08:43Z</time>
      </trkpt>
      <trkpt lat="45.87579" lon="4.73092">
        <ele>188</ele>
        <time>2018-09-01T11:08:44Z</time>
      </trkpt>
      <trkpt lat="45.87579" lon="4.73099">
        <ele>188</ele>
        <time>2018-09-01T11:08:45Z</time>
      </trkpt>
      <trkpt lat="45.87582" lon="4.73105">
        <ele>188</ele>
        <time>2018-09-01T11:08:46Z</time>
      </trkpt>
      <trkpt lat="45.87586" lon="4.7311">
        <ele>188</ele>
        <time>2018-09-01T11:08:47Z</time>
      </trkpt>
      <trkpt lat="45.87589" lon="4.73116">
        <ele>188</ele>
        <time>2018-09-01T11:08:48Z</time>
      </trkpt>
      <trkpt lat="45.87593" lon="4.73121">
        <ele>188</ele>
        <time>2018-09-01T11:08:49Z</time>
      </trkpt>
      <trkpt lat="45.87597" lon="4.73126">
        <ele>187</ele>
        <time>2018-09-01T11:08:50Z</time>
      </trkpt>
      <trkpt lat="45.876" lon="4.73131">
        <ele>187</ele>
        <time>2018-09-01T11:08:51Z</time>
      </trkpt>
      <trkpt lat="45.87602" lon="4.73135">
        <ele>187</ele>
        <time>2018-09-01T11:08:52Z</time>
      </trkpt>
      <trkpt lat="45.87606" lon="4.73141">
        <ele>187</ele>
        <time>2018-09-01T11:08:53Z</time>
      </trkpt>
      <trkpt lat="45.87611" lon="4.73151">
        <ele>187</ele>
        <time>2018-09-01T11:08:55Z</time>
      </trkpt>
      <trkpt lat="45.87614" lon="4.73157">
        <ele>187</ele>
        <time>2018-09-01T11:08:56Z</time>
      </trkpt>
      <trkpt lat="45.87616" lon="4.73164">
        <ele>187</ele>
        <time>2018-09-01T11:08:57Z</time>
      </trkpt>
      <trkpt lat="45.87619" lon="4.73169">
        <ele>187</ele>
        <time>2018-09-01T11:08:58Z</time>
      </trkpt>
      <trkpt lat="45.87624" lon="4.73179">
        <ele>188</ele>
        <time>2018-09-01T11:09:00Z</time>
      </trkpt>
      <trkpt lat="45.87627" lon="4.73185">
        <ele>188</ele>
        <time>2018-09-01T11:09:01Z</time>
      </trkpt>
      <trkpt lat="45.87631" lon="4.73196">
        <ele>188</ele>
        <time>2018-09-01T11:09:03Z</time>
      </trkpt>
      <trkpt lat="45.87635" lon="4.73201">
        <ele>188</ele>
        <time>2018-09-01T11:09:04Z</time>
      </trkpt>
      <trkpt lat="45.8764" lon="4.7321">
        <ele>188</ele>
        <time>2018-09-01T11:09:06Z</time>
      </trkpt>
      <trkpt lat="45.87643" lon="4.73214">
        <ele>188</ele>
        <time>2018-09-01T11:09:07Z</time>
      </trkpt>
      <trkpt lat="45.87646" lon="4.73224">
        <ele>188</ele>
        <time>2018-09-01T11:09:09Z</time>
      </trkpt>
      <trkpt lat="45.87648" lon="4.73228">
        <ele>188</ele>
        <time>2018-09-01T11:09:10Z</time>
      </trkpt>
      <trkpt lat="45.87653" lon="4.73237">
        <ele>188</ele>
        <time>2018-09-01T11:09:12Z</time>
      </trkpt>
      <trkpt lat="45.87655" lon="4.73243">
        <ele>188</ele>
        <time>2018-09-01T11:09:13Z</time>
      </trkpt>
      <trkpt lat="45.87658" lon="4.73248">
        <ele>189</ele>
        <time>2018-09-01T11:09:14Z</time>
      </trkpt>
      <trkpt lat="45.8766" lon="4.73254">
        <ele>189</ele>
        <time>2018-09-01T11:09:15Z</time>
      </trkpt>
      <trkpt lat="45.87664" lon="4.7326">
        <ele>189</ele>
        <time>2018-09-01T11:09:16Z</time>
      </trkpt>
      <trkpt lat="45.87667" lon="4.73264">
        <ele>188</ele>
        <time>2018-09-01T11:09:17Z</time>
      </trkpt>
      <trkpt lat="45.8767" lon="4.7327">
        <ele>188</ele>
        <time>2018-09-01T11:09:18Z</time>
      </trkpt>
      <trkpt lat="45.87673" lon="4.73276">
        <ele>188</ele>
        <time>2018-09-01T11:09:19Z</time>
      </trkpt>
      <trkpt lat="45.87676" lon="4.73282">
        <ele>188</ele>
        <time>2018-09-01T11:09:20Z</time>
      </trkpt>
      <trkpt lat="45.87678" lon="4.73288">
        <ele>188</ele>
        <time>2018-09-01T11:09:21Z</time>
      </trkpt>
      <trkpt lat="45.87683" lon="4.73298">
        <ele>188</ele>
        <time>2018-09-01T11:09:23Z</time>
      </trkpt>
      <trkpt lat="45.87685" lon="4.73304">
        <ele>188</ele>
        <time>2018-09-01T11:09:24Z</time>
      </trkpt>
      <trkpt lat="45.87687" lon="4.7331">
        <ele>188</ele>
        <time>2018-09-01T11:09:25Z</time>
      </trkpt>
      <trkpt lat="45.8769" lon="4.73315">
        <ele>188</ele>
        <time>2018-09-01T11:09:26Z</time>
      </trkpt>
      <trkpt lat="45.87694" lon="4.73326">
        <ele>188</ele>
        <time>2018-09-01T11:09:28Z</time>
      </trkpt>
      <trkpt lat="45.87696" lon="4.7333">
        <ele>188</ele>
        <time>2018-09-01T11:09:29Z</time>
      </trkpt>
      <trkpt lat="45.87698" lon="4.73335">
        <ele>187</ele>
        <time>2018-09-01T11:09:30Z</time>
      </trkpt>
      <trkpt lat="45.87701" lon="4.7334">
        <ele>187</ele>
        <time>2018-09-01T11:09:31Z</time>
      </trkpt>
      <trkpt lat="45.87705" lon="4.73346">
        <ele>187</ele>
        <time>2018-09-01T11:09:32Z</time>
      </trkpt>
      <trkpt lat="45.87707" lon="4.73352">
        <ele>187</ele>
        <time>2018-09-01T11:09:33Z</time>
      </trkpt>
      <trkpt lat="45.8771" lon="4.73358">
        <ele>187</ele>
        <time>2018-09-01T11:09:34Z</time>
      </trkpt>
      <trkpt lat="45.87713" lon="4.73364">
        <ele>187</ele>
        <time>2018-09-01T11:09:35Z</time>
      </trkpt>
      <trkpt lat="45.87715" lon="4.7337">
        <ele>187</ele>
        <time>2018-09-01T11:09:36Z</time>
      </trkpt>
      <trkpt lat="45.87718" lon="4.73376">
        <ele>187</ele>
        <time>2018-09-01T11:09:37Z</time>
      </trkpt>
      <trkpt lat="45.87721" lon="4.73383">
        <ele>187</ele>
        <time>2018-09-01T11:09:38Z</time>
      </trkpt>
      <trkpt lat="45.87725" lon="4.7339">
        <ele>188</ele>
        <time>2018-09-01T11:09:39Z</time>
      </trkpt>
      <trkpt lat="45.87728" lon="4.73396">
        <ele>188</ele>
        <time>2018-09-01T11:09:40Z</time>
      </trkpt>
      <trkpt lat="45.8773" lon="4.73402">
        <ele>188</ele>
        <time>2018-09-01T11:09:41Z</time>
      </trkpt>
      <trkpt lat="45.87735" lon="4.73412">
        <ele>188</ele>
        <time>2018-09-01T11:09:43Z</time>
      </trkpt>
      <trkpt lat="45.87737" lon="4.73418">
        <ele>188</ele>
        <time>2018-09-01T11:09:44Z</time>
      </trkpt>
      <trkpt lat="45.87743" lon="4.73428">
        <ele>188</ele>
        <time>2018-09-01T11:09:46Z</time>
      </trkpt>
      <trkpt lat="45.87745" lon="4.73433">
        <ele>188</ele>
        <time>2018-09-01T11:09:47Z</time>
      </trkpt>
      <trkpt lat="45.87748" lon="4.7344">
        <ele>189</ele>
        <time>2018-09-01T11:09:48Z</time>
      </trkpt>
      <trkpt lat="45.8775" lon="4.73445">
        <ele>188</ele>
        <time>2018-09-01T11:09:49Z</time>
      </trkpt>
      <trkpt lat="45.87756" lon="4.73456">
        <ele>188</ele>
        <time>2018-09-01T11:09:51Z</time>
      </trkpt>
      <trkpt lat="45.87758" lon="4.7346">
        <ele>188</ele>
        <time>2018-09-01T11:09:52Z</time>
      </trkpt>
      <trkpt lat="45.87762" lon="4.73471">
        <ele>188</ele>
        <time>2018-09-01T11:09:55Z</time>
      </trkpt>
      <trkpt lat="45.87765" lon="4.73479">
        <ele>188</ele>
        <time>2018-09-01T11:09:56Z</time>
      </trkpt>
      <trkpt lat="45.87768" lon="4.73486">
        <ele>188</ele>
        <time>2018-09-01T11:09:58Z</time>
      </trkpt>
      <trkpt lat="45.8777" lon="4.73491">
        <ele>189</ele>
        <time>2018-09-01T11:09:59Z</time>
      </trkpt>
      <trkpt lat="45.87774" lon="4.73501">
        <ele>189</ele>
        <time>2018-09-01T11:10:01Z</time>
      </trkpt>
      <trkpt lat="45.87776" lon="4.73507">
        <ele>189</ele>
        <time>2018-09-01T11:10:02Z</time>
      </trkpt>
      <trkpt lat="45.87778" lon="4.73513">
        <ele>189</ele>
        <time>2018-09-01T11:10:03Z</time>
      </trkpt>
      <trkpt lat="45.87781" lon="4.73518">
        <ele>189</ele>
        <time>2018-09-01T11:10:04Z</time>
      </trkpt>
      <trkpt lat="45.87784" lon="4.73523">
        <ele>189</ele>
        <time>2018-09-01T11:10:05Z</time>
      </trkpt>
      <trkpt lat="45.87787" lon="4.73528">
        <ele>189</ele>
        <time>2018-09-01T11:10:06Z</time>
      </trkpt>
      <trkpt lat="45.87792" lon="4.73538">
        <ele>189</ele>
        <time>2018-09-01T11:10:08Z</time>
      </trkpt>
      <trkpt lat="45.87795" lon="4.73542">
        <ele>189</ele>
        <time>2018-09-01T11:10:09Z</time>
      </trkpt>
      <trkpt lat="45.87799" lon="4.73552">
        <ele>189</ele>
        <time>2018-09-01T11:10:11Z</time>
      </trkpt>
      <trkpt lat="45.87801" lon="4.73557">
        <ele>189</ele>
        <time>2018-09-01T11:10:12Z</time>
      </trkpt>
      <trkpt lat="45.87804" lon="4.73562">
        <ele>189</ele>
        <time>2018-09-01T11:10:13Z</time>
      </trkpt>
      <trkpt lat="45.87807" lon="4.73568">
        <ele>189</ele>
        <time>2018-09-01T11:10:14Z</time>
      </trkpt>
      <trkpt lat="45.87809" lon="4.73574">
        <ele>189</ele>
        <time>2018-09-01T11:10:15Z</time>
      </trkpt>
      <trkpt lat="45.87811" lon="4.7358">
        <ele>189</ele>
        <time>2018-09-01T11:10:16Z</time>
      </trkpt>
      <trkpt lat="45.87816" lon="4.7359">
        <ele>190</ele>
        <time>2018-09-01T11:10:18Z</time>
      </trkpt>
      <trkpt lat="45.87819" lon="4.73596">
        <ele>190</ele>
        <time>2018-09-01T11:10:19Z</time>
      </trkpt>
      <trkpt lat="45.87821" lon="4.73602">
        <ele>190</ele>
        <time>2018-09-01T11:10:20Z</time>
      </trkpt>
      <trkpt lat="45.87824" lon="4.73607">
        <ele>190</ele>
        <time>2018-09-01T11:10:21Z</time>
      </trkpt>
      <trkpt lat="45.87828" lon="4.73617">
        <ele>190</ele>
        <time>2018-09-01T11:10:23Z</time>
      </trkpt>
      <trkpt lat="45.87829" lon="4.7362">
        <ele>190</ele>
        <time>2018-09-01T11:10:24Z</time>
      </trkpt>
      <trkpt lat="45.87833" lon="4.7363">
        <ele>190</ele>
        <time>2018-09-01T11:10:26Z</time>
      </trkpt>
      <trkpt lat="45.87836" lon="4.73636">
        <ele>191</ele>
        <time>2018-09-01T11:10:27Z</time>
      </trkpt>
      <trkpt lat="45.87843" lon="4.73639">
        <ele>191</ele>
        <time>2018-09-01T11:10:29Z</time>
      </trkpt>
      <trkpt lat="45.87847" lon="4.73637">
        <ele>191</ele>
        <time>2018-09-01T11:10:30Z</time>
      </trkpt>
      <trkpt lat="45.87852" lon="4.73633">
        <ele>191</ele>
        <time>2018-09-01T11:10:32Z</time>
      </trkpt>
      <trkpt lat="45.87856" lon="4.73629">
        <ele>190</ele>
        <time>2018-09-01T11:10:33Z</time>
      </trkpt>
      <trkpt lat="45.87864" lon="4.73624">
        <ele>190</ele>
        <time>2018-09-01T11:10:35Z</time>
      </trkpt>
      <trkpt lat="45.87871" lon="4.73625">
        <ele>190</ele>
        <time>2018-09-01T11:10:36Z</time>
      </trkpt>
      <trkpt lat="45.87875" lon="4.73623">
        <ele>190</ele>
        <time>2018-09-01T11:10:37Z</time>
      </trkpt>
      <trkpt lat="45.8788" lon="4.7362">
        <ele>190</ele>
        <time>2018-09-01T11:10:38Z</time>
      </trkpt>
      <trkpt lat="45.87886" lon="4.73617">
        <ele>190</ele>
        <time>2018-09-01T11:10:39Z</time>
      </trkpt>
      <trkpt lat="45.8789" lon="4.73618">
        <ele>190</ele>
        <time>2018-09-01T11:10:40Z</time>
      </trkpt>
      <trkpt lat="45.87898" lon="4.7362">
        <ele>190</ele>
        <time>2018-09-01T11:10:42Z</time>
      </trkpt>
      <trkpt lat="45.87903" lon="4.73623">
        <ele>190</ele>
        <time>2018-09-01T11:10:43Z</time>
      </trkpt>
      <trkpt lat="45.87911" lon="4.73627">
        <ele>190</ele>
        <time>2018-09-01T11:10:45Z</time>
      </trkpt>
      <trkpt lat="45.87915" lon="4.73629">
        <ele>190</ele>
        <time>2018-09-01T11:10:46Z</time>
      </trkpt>
      <trkpt lat="45.87919" lon="4.73631">
        <ele>190</ele>
        <time>2018-09-01T11:10:47Z</time>
      </trkpt>
      <trkpt lat="45.87924" lon="4.73632">
        <ele>190</ele>
        <time>2018-09-01T11:10:48Z</time>
      </trkpt>
      <trkpt lat="45.87932" lon="4.73633">
        <ele>190</ele>
        <time>2018-09-01T11:10:50Z</time>
      </trkpt>
      <trkpt lat="45.87935" lon="4.73636">
        <ele>190</ele>
        <time>2018-09-01T11:10:51Z</time>
      </trkpt>
      <trkpt lat="45.87943" lon="4.73638">
        <ele>190</ele>
        <time>2018-09-01T11:10:53Z</time>
      </trkpt>
      <trkpt lat="45.87947" lon="4.73637">
        <ele>189</ele>
        <time>2018-09-01T11:10:54Z</time>
      </trkpt>
      <trkpt lat="45.87955" lon="4.73638">
        <ele>189</ele>
        <time>2018-09-01T11:10:56Z</time>
      </trkpt>
      <trkpt lat="45.87959" lon="4.7364">
        <ele>189</ele>
        <time>2018-09-01T11:10:57Z</time>
      </trkpt>
      <trkpt lat="45.87967" lon="4.73643">
        <ele>189</ele>
        <time>2018-09-01T11:10:59Z</time>
      </trkpt>
      <trkpt lat="45.87971" lon="4.73644">
        <ele>189</ele>
        <time>2018-09-01T11:11:00Z</time>
      </trkpt>
      <trkpt lat="45.87979" lon="4.73646">
        <ele>190</ele>
        <time>2018-09-01T11:11:02Z</time>
      </trkpt>
      <trkpt lat="45.87983" lon="4.73647">
        <ele>190</ele>
        <time>2018-09-01T11:11:03Z</time>
      </trkpt>
      <trkpt lat="45.87991" lon="4.73649">
        <ele>190</ele>
        <time>2018-09-01T11:11:05Z</time>
      </trkpt>
      <trkpt lat="45.87996" lon="4.7365">
        <ele>190</ele>
        <time>2018-09-01T11:11:06Z</time>
      </trkpt>
      <trkpt lat="45.88004" lon="4.73653">
        <ele>189</ele>
        <time>2018-09-01T11:11:08Z</time>
      </trkpt>
      <trkpt lat="45.88008" lon="4.73654">
        <ele>189</ele>
        <time>2018-09-01T11:11:09Z</time>
      </trkpt>
      <trkpt lat="45.88016" lon="4.73655">
        <ele>189</ele>
        <time>2018-09-01T11:11:11Z</time>
      </trkpt>
      <trkpt lat="45.8802" lon="4.73656">
        <ele>189</ele>
        <time>2018-09-01T11:11:12Z</time>
      </trkpt>
      <trkpt lat="45.88028" lon="4.73656">
        <ele>189</ele>
        <time>2018-09-01T11:11:14Z</time>
      </trkpt>
      <trkpt lat="45.88032" lon="4.73656">
        <ele>189</ele>
        <time>2018-09-01T11:11:15Z</time>
      </trkpt>
      <trkpt lat="45.88037" lon="4.73652">
        <ele>189</ele>
        <time>2018-09-01T11:11:16Z</time>
      </trkpt>
      <trkpt lat="45.88041" lon="4.7365">
        <ele>189</ele>
        <time>2018-09-01T11:11:17Z</time>
      </trkpt>
      <trkpt lat="45.88046" lon="4.73646">
        <ele>189</ele>
        <time>2018-09-01T11:11:18Z</time>
      </trkpt>
      <trkpt lat="45.8805" lon="4.73643">
        <ele>189</ele>
        <time>2018-09-01T11:11:19Z</time>
      </trkpt>
      <trkpt lat="45.88054" lon="4.73641">
        <ele>189</ele>
        <time>2018-09-01T11:11:20Z</time>
      </trkpt>
      <trkpt lat="45.88059" lon="4.73637">
        <ele>189</ele>
        <time>2018-09-01T11:11:21Z</time>
      </trkpt>
      <trkpt lat="45.88067" lon="4.73632">
        <ele>189</ele>
        <time>2018-09-01T11:11:23Z</time>
      </trkpt>
      <trkpt lat="45.88071" lon="4.7363">
        <ele>189</ele>
        <time>2018-09-01T11:11:24Z</time>
      </trkpt>
      <trkpt lat="45.88078" lon="4.73627">
        <ele>189</ele>
        <time>2018-09-01T11:11:26Z</time>
      </trkpt>
      <trkpt lat="45.88083" lon="4.73624">
        <ele>189</ele>
        <time>2018-09-01T11:11:27Z</time>
      </trkpt>
      <trkpt lat="45.88089" lon="4.7362">
        <ele>188</ele>
        <time>2018-09-01T11:11:28Z</time>
      </trkpt>
      <trkpt lat="45.88095" lon="4.73616">
        <ele>188</ele>
        <time>2018-09-01T11:11:29Z</time>
      </trkpt>
      <trkpt lat="45.881" lon="4.73613">
        <ele>188</ele>
        <time>2018-09-01T11:11:30Z</time>
      </trkpt>
      <trkpt lat="45.88105" lon="4.7361">
        <ele>188</ele>
        <time>2018-09-01T11:11:31Z</time>
      </trkpt>
      <trkpt lat="45.8811" lon="4.73607">
        <ele>188</ele>
        <time>2018-09-01T11:11:32Z</time>
      </trkpt>
      <trkpt lat="45.88115" lon="4.73603">
        <ele>188</ele>
        <time>2018-09-01T11:11:33Z</time>
      </trkpt>
      <trkpt lat="45.88119" lon="4.73599">
        <ele>187</ele>
        <time>2018-09-01T11:11:34Z</time>
      </trkpt>
      <trkpt lat="45.88124" lon="4.73595">
        <ele>187</ele>
        <time>2018-09-01T11:11:35Z</time>
      </trkpt>
      <trkpt lat="45.88129" lon="4.73592">
        <ele>187</ele>
        <time>2018-09-01T11:11:36Z</time>
      </trkpt>
      <trkpt lat="45.88134" lon="4.73588">
        <ele>187</ele>
        <time>2018-09-01T11:11:37Z</time>
      </trkpt>
      <trkpt lat="45.88138" lon="4.73585">
        <ele>187</ele>
        <time>2018-09-01T11:11:38Z</time>
      </trkpt>
      <trkpt lat="45.88143" lon="4.73582">
        <ele>186</ele>
        <time>2018-09-01T11:11:39Z</time>
      </trkpt>
      <trkpt lat="45.88147" lon="4.73579">
        <ele>186</ele>
        <time>2018-09-01T11:11:40Z</time>
      </trkpt>
      <trkpt lat="45.88152" lon="4.73576">
        <ele>186</ele>
        <time>2018-09-01T11:11:41Z</time>
      </trkpt>
      <trkpt lat="45.88156" lon="4.73572">
        <ele>186</ele>
        <time>2018-09-01T11:11:42Z</time>
      </trkpt>
      <trkpt lat="45.8816" lon="4.73569">
        <ele>186</ele>
        <time>2018-09-01T11:11:43Z</time>
      </trkpt>
      <trkpt lat="45.88165" lon="4.73566">
        <ele>186</ele>
        <time>2018-09-01T11:11:44Z</time>
      </trkpt>
      <trkpt lat="45.88168" lon="4.73563">
        <ele>186</ele>
        <time>2018-09-01T11:11:45Z</time>
      </trkpt>
      <trkpt lat="45.88176" lon="4.7356">
        <ele>186</ele>
        <time>2018-09-01T11:11:47Z</time>
      </trkpt>
      <trkpt lat="45.88181" lon="4.73558">
        <ele>186</ele>
        <time>2018-09-01T11:11:48Z</time>
      </trkpt>
      <trkpt lat="45.88189" lon="4.73553">
        <ele>186</ele>
        <time>2018-09-01T11:11:50Z</time>
      </trkpt>
      <trkpt lat="45.88193" lon="4.73551">
        <ele>186</ele>
        <time>2018-09-01T11:11:51Z</time>
      </trkpt>
      <trkpt lat="45.88197" lon="4.73547">
        <ele>186</ele>
        <time>2018-09-01T11:11:52Z</time>
      </trkpt>
      <trkpt lat="45.88202" lon="4.73544">
        <ele>186</ele>
        <time>2018-09-01T11:11:53Z</time>
      </trkpt>
      <trkpt lat="45.88206" lon="4.73542">
        <ele>186</ele>
        <time>2018-09-01T11:11:54Z</time>
      </trkpt>
      <trkpt lat="45.88211" lon="4.73539">
        <ele>185</ele>
        <time>2018-09-01T11:11:55Z</time>
      </trkpt>
      <trkpt lat="45.88215" lon="4.73535">
        <ele>185</ele>
        <time>2018-09-01T11:11:56Z</time>
      </trkpt>
      <trkpt lat="45.88219" lon="4.73532">
        <ele>185</ele>
        <time>2018-09-01T11:11:57Z</time>
      </trkpt>
      <trkpt lat="45.88224" lon="4.73529">
        <ele>185</ele>
        <time>2018-09-01T11:11:58Z</time>
      </trkpt>
      <trkpt lat="45.88228" lon="4.73526">
        <ele>185</ele>
        <time>2018-09-01T11:11:59Z</time>
      </trkpt>
      <trkpt lat="45.88235" lon="4.73522">
        <ele>185</ele>
        <time>2018-09-01T11:12:01Z</time>
      </trkpt>
      <trkpt lat="45.88239" lon="4.7352">
        <ele>185</ele>
        <time>2018-09-01T11:12:02Z</time>
      </trkpt>
      <trkpt lat="45.88247" lon="4.73514">
        <ele>185</ele>
        <time>2018-09-01T11:12:04Z</time>
      </trkpt>
      <trkpt lat="45.88251" lon="4.73511">
        <ele>185</ele>
        <time>2018-09-01T11:12:05Z</time>
      </trkpt>
      <trkpt lat="45.88255" lon="4.73508">
        <ele>185</ele>
        <time>2018-09-01T11:12:06Z</time>
      </trkpt>
      <trkpt lat="45.88259" lon="4.73505">
        <ele>185</ele>
        <time>2018-09-01T11:12:07Z</time>
      </trkpt>
      <trkpt lat="45.88264" lon="4.73502">
        <ele>185</ele>
        <time>2018-09-01T11:12:08Z</time>
      </trkpt>
      <trkpt lat="45.88268" lon="4.73499">
        <ele>184</ele>
        <time>2018-09-01T11:12:09Z</time>
      </trkpt>
      <trkpt lat="45.88276" lon="4.73494">
        <ele>184</ele>
        <time>2018-09-01T11:12:11Z</time>
      </trkpt>
      <trkpt lat="45.88281" lon="4.73491">
        <ele>184</ele>
        <time>2018-09-01T11:12:12Z</time>
      </trkpt>
      <trkpt lat="45.88287" lon="4.73485">
        <ele>184</ele>
        <time>2018-09-01T11:12:13Z</time>
      </trkpt>
      <trkpt lat="45.88291" lon="4.73482">
        <ele>184</ele>
        <time>2018-09-01T11:12:14Z</time>
      </trkpt>
      <trkpt lat="45.88295" lon="4.7348">
        <ele>184</ele>
        <time>2018-09-01T11:12:15Z</time>
      </trkpt>
      <trkpt lat="45.883" lon="4.73477">
        <ele>184</ele>
        <time>2018-09-01T11:12:16Z</time>
      </trkpt>
      <trkpt lat="45.88305" lon="4.73475">
        <ele>184</ele>
        <time>2018-09-01T11:12:17Z</time>
      </trkpt>
      <trkpt lat="45.8831" lon="4.73474">
        <ele>184</ele>
        <time>2018-09-01T11:12:18Z</time>
      </trkpt>
      <trkpt lat="45.88315" lon="4.73473">
        <ele>184</ele>
        <time>2018-09-01T11:12:19Z</time>
      </trkpt>
      <trkpt lat="45.8832" lon="4.73472">
        <ele>184</ele>
        <time>2018-09-01T11:12:20Z</time>
      </trkpt>
      <trkpt lat="45.88325" lon="4.73471">
        <ele>184</ele>
        <time>2018-09-01T11:12:21Z</time>
      </trkpt>
      <trkpt lat="45.88329" lon="4.73469">
        <ele>184</ele>
        <time>2018-09-01T11:12:22Z</time>
      </trkpt>
      <trkpt lat="45.88334" lon="4.73468">
        <ele>184</ele>
        <time>2018-09-01T11:12:23Z</time>
      </trkpt>
      <trkpt lat="45.88338" lon="4.73466">
        <ele>184</ele>
        <time>2018-09-01T11:12:24Z</time>
      </trkpt>
      <trkpt lat="45.88347" lon="4.73463">
        <ele>184</ele>
        <time>2018-09-01T11:12:26Z</time>
      </trkpt>
      <trkpt lat="45.88352" lon="4.73462">
        <ele>184</ele>
        <time>2018-09-01T11:12:27Z</time>
      </trkpt>
      <trkpt lat="45.88355" lon="4.73461">
        <ele>184</ele>
        <time>2018-09-01T11:12:28Z</time>
      </trkpt>
      <trkpt lat="45.8836" lon="4.7346">
        <ele>184</ele>
        <time>2018-09-01T11:12:29Z</time>
      </trkpt>
      <trkpt lat="45.88369" lon="4.73457">
        <ele>184</ele>
        <time>2018-09-01T11:12:31Z</time>
      </trkpt>
      <trkpt lat="45.88374" lon="4.73455">
        <ele>184</ele>
        <time>2018-09-01T11:12:32Z</time>
      </trkpt>
      <trkpt lat="45.88378" lon="4.73453">
        <ele>184</ele>
        <time>2018-09-01T11:12:33Z</time>
      </trkpt>
      <trkpt lat="45.88382" lon="4.73451">
        <ele>184</ele>
        <time>2018-09-01T11:12:34Z</time>
      </trkpt>
      <trkpt lat="45.88387" lon="4.7345">
        <ele>184</ele>
        <time>2018-09-01T11:12:35Z</time>
      </trkpt>
      <trkpt lat="45.88392" lon="4.73449">
        <ele>184</ele>
        <time>2018-09-01T11:12:36Z</time>
      </trkpt>
      <trkpt lat="45.884" lon="4.73446">
        <ele>184</ele>
        <time>2018-09-01T11:12:38Z</time>
      </trkpt>
      <trkpt lat="45.88405" lon="4.73445">
        <ele>184</ele>
        <time>2018-09-01T11:12:39Z</time>
      </trkpt>
      <trkpt lat="45.8841" lon="4.73443">
        <ele>184</ele>
        <time>2018-09-01T11:12:40Z</time>
      </trkpt>
      <trkpt lat="45.88414" lon="4.73441">
        <ele>184</ele>
        <time>2018-09-01T11:12:41Z</time>
      </trkpt>
      <trkpt lat="45.88419" lon="4.7344">
        <ele>184</ele>
        <time>2018-09-01T11:12:42Z</time>
      </trkpt>
      <trkpt lat="45.88424" lon="4.73439">
        <ele>184</ele>
        <time>2018-09-01T11:12:43Z</time>
      </trkpt>
      <trkpt lat="45.88429" lon="4.73437">
        <ele>184</ele>
        <time>2018-09-01T11:12:44Z</time>
      </trkpt>
      <trkpt lat="45.88434" lon="4.73437">
        <ele>184</ele>
        <time>2018-09-01T11:12:45Z</time>
      </trkpt>
      <trkpt lat="45.88443" lon="4.73435">
        <ele>184</ele>
        <time>2018-09-01T11:12:47Z</time>
      </trkpt>
      <trkpt lat="45.88446" lon="4.73433">
        <ele>184</ele>
        <time>2018-09-01T11:12:48Z</time>
      </trkpt>
      <trkpt lat="45.88455" lon="4.73424">
        <ele>184</ele>
        <time>2018-09-01T11:12:49Z</time>
      </trkpt>
      <trkpt lat="45.8846" lon="4.73422">
        <ele>184</ele>
        <time>2018-09-01T11:12:50Z</time>
      </trkpt>
      <trkpt lat="45.88466" lon="4.7342">
        <ele>184</ele>
        <time>2018-09-01T11:12:51Z</time>
      </trkpt>
      <trkpt lat="45.88471" lon="4.73419">
        <ele>184</ele>
        <time>2018-09-01T11:12:52Z</time>
      </trkpt>
      <trkpt lat="45.88476" lon="4.73418">
        <ele>184</ele>
        <time>2018-09-01T11:12:53Z</time>
      </trkpt>
      <trkpt lat="45.88485" lon="4.73418">
        <ele>184</ele>
        <time>2018-09-01T11:12:55Z</time>
      </trkpt>
      <trkpt lat="45.88489" lon="4.73416">
        <ele>184</ele>
        <time>2018-09-01T11:12:56Z</time>
      </trkpt>
      <trkpt lat="45.88496" lon="4.73413">
        <ele>184</ele>
        <time>2018-09-01T11:12:58Z</time>
      </trkpt>
      <trkpt lat="45.885" lon="4.73414">
        <ele>184</ele>
        <time>2018-09-01T11:12:59Z</time>
      </trkpt>
      <trkpt lat="45.88505" lon="4.73413">
        <ele>184</ele>
        <time>2018-09-01T11:13:00Z</time>
      </trkpt>
      <trkpt lat="45.8851" lon="4.73411">
        <ele>184</ele>
        <time>2018-09-01T11:13:01Z</time>
      </trkpt>
      <trkpt lat="45.88518" lon="4.73408">
        <ele>184</ele>
        <time>2018-09-01T11:13:03Z</time>
      </trkpt>
      <trkpt lat="45.88523" lon="4.73407">
        <ele>183</ele>
        <time>2018-09-01T11:13:04Z</time>
      </trkpt>
      <trkpt lat="45.88528" lon="4.73405">
        <ele>183</ele>
        <time>2018-09-01T11:13:05Z</time>
      </trkpt>
      <trkpt lat="45.88534" lon="4.73402">
        <ele>183</ele>
        <time>2018-09-01T11:13:06Z</time>
      </trkpt>
      <trkpt lat="45.8854" lon="4.73399">
        <ele>183</ele>
        <time>2018-09-01T11:13:07Z</time>
      </trkpt>
      <trkpt lat="45.88545" lon="4.73397">
        <ele>183</ele>
        <time>2018-09-01T11:13:08Z</time>
      </trkpt>
      <trkpt lat="45.88553" lon="4.73395">
        <ele>183</ele>
        <time>2018-09-01T11:13:10Z</time>
      </trkpt>
      <trkpt lat="45.88558" lon="4.73394">
        <ele>183</ele>
        <time>2018-09-01T11:13:11Z</time>
      </trkpt>
      <trkpt lat="45.88563" lon="4.73393">
        <ele>183</ele>
        <time>2018-09-01T11:13:12Z</time>
      </trkpt>
      <trkpt lat="45.88567" lon="4.73392">
        <ele>183</ele>
        <time>2018-09-01T11:13:13Z</time>
      </trkpt>
      <trkpt lat="45.88572" lon="4.73392">
        <ele>183</ele>
        <time>2018-09-01T11:13:14Z</time>
      </trkpt>
      <trkpt lat="45.88578" lon="4.73391">
        <ele>183</ele>
        <time>2018-09-01T11:13:15Z</time>
      </trkpt>
      <trkpt lat="45.88583" lon="4.7339">
        <ele>183</ele>
        <time>2018-09-01T11:13:16Z</time>
      </trkpt>
      <trkpt lat="45.88588" lon="4.73388">
        <ele>183</ele>
        <time>2018-09-01T11:13:17Z</time>
      </trkpt>
      <trkpt lat="45.88593" lon="4.73387">
        <ele>183</ele>
        <time>2018-09-01T11:13:18Z</time>
      </trkpt>
      <trkpt lat="45.88597" lon="4.73386">
        <ele>183</ele>
        <time>2018-09-01T11:13:19Z</time>
      </trkpt>
      <trkpt lat="45.88606" lon="4.73384">
        <ele>183</ele>
        <time>2018-09-01T11:13:21Z</time>
      </trkpt>
      <trkpt lat="45.8861" lon="4.73383">
        <ele>183</ele>
        <time>2018-09-01T11:13:22Z</time>
      </trkpt>
      <trkpt lat="45.88619" lon="4.73383">
        <ele>183</ele>
        <time>2018-09-01T11:13:24Z</time>
      </trkpt>
      <trkpt lat="45.88622" lon="4.73386">
        <ele>183</ele>
        <time>2018-09-01T11:13:25Z</time>
      </trkpt>
      <trkpt lat="45.88629" lon="4.73392">
        <ele>183</ele>
        <time>2018-09-01T11:13:27Z</time>
      </trkpt>
      <trkpt lat="45.88632" lon="4.73399">
        <ele>183</ele>
        <time>2018-09-01T11:13:28Z</time>
      </trkpt>
      <trkpt lat="45.88634" lon="4.73404">
        <ele>183</ele>
        <time>2018-09-01T11:13:29Z</time>
      </trkpt>
      <trkpt lat="45.88636" lon="4.73411">
        <ele>184</ele>
        <time>2018-09-01T11:13:30Z</time>
      </trkpt>
      <trkpt lat="45.88636" lon="4.73423">
        <ele>184</ele>
        <time>2018-09-01T11:13:32Z</time>
      </trkpt>
      <trkpt lat="45.88636" lon="4.73427">
        <ele>184</ele>
        <time>2018-09-01T11:13:33Z</time>
      </trkpt>
      <trkpt lat="45.88633" lon="4.73434">
        <ele>184</ele>
        <time>2018-09-01T11:13:34Z</time>
      </trkpt>
      <trkpt lat="45.88634" lon="4.7344">
        <ele>184</ele>
        <time>2018-09-01T11:13:35Z</time>
      </trkpt>
      <trkpt lat="45.88633" lon="4.73444">
        <ele>184</ele>
        <time>2018-09-01T11:13:36Z</time>
      </trkpt>
      <trkpt lat="45.88633" lon="4.73453">
        <ele>184</ele>
        <time>2018-09-01T11:13:37Z</time>
      </trkpt>
      <trkpt lat="45.88633" lon="4.73463">
        <ele>184</ele>
        <time>2018-09-01T11:13:39Z</time>
      </trkpt>
      <trkpt lat="45.88633" lon="4.73469">
        <ele>184</ele>
        <time>2018-09-01T11:13:40Z</time>
      </trkpt>
      <trkpt lat="45.88635" lon="4.73479">
        <ele>184</ele>
        <time>2018-09-01T11:13:42Z</time>
      </trkpt>
      <trkpt lat="45.88636" lon="4.73484">
        <ele>184</ele>
        <time>2018-09-01T11:13:43Z</time>
      </trkpt>
      <trkpt lat="45.88639" lon="4.73493">
        <ele>184</ele>
        <time>2018-09-01T11:13:45Z</time>
      </trkpt>
      <trkpt lat="45.8864" lon="4.73498">
        <ele>184</ele>
        <time>2018-09-01T11:13:46Z</time>
      </trkpt>
      <trkpt lat="45.88643" lon="4.7351">
        <ele>185</ele>
        <time>2018-09-01T11:13:48Z</time>
      </trkpt>
      <trkpt lat="45.88645" lon="4.73516">
        <ele>185</ele>
        <time>2018-09-01T11:13:49Z</time>
      </trkpt>
      <trkpt lat="45.88646" lon="4.73528">
        <ele>185</ele>
        <time>2018-09-01T11:13:51Z</time>
      </trkpt>
      <trkpt lat="45.88647" lon="4.73533">
        <ele>185</ele>
        <time>2018-09-01T11:13:52Z</time>
      </trkpt>
      <trkpt lat="45.88646" lon="4.7354">
        <ele>185</ele>
        <time>2018-09-01T11:13:54Z</time>
      </trkpt>
      <trkpt lat="45.88646" lon="4.73549">
        <ele>185</ele>
        <time>2018-09-01T11:13:55Z</time>
      </trkpt>
      <trkpt lat="45.88645" lon="4.73559">
        <ele>185</ele>
        <time>2018-09-01T11:13:58Z</time>
      </trkpt>
      <trkpt lat="45.88645" lon="4.73563">
        <ele>185</ele>
        <time>2018-09-01T11:13:59Z</time>
      </trkpt>
      <trkpt lat="45.88646" lon="4.73576">
        <ele>185</ele>
        <time>2018-09-01T11:14:02Z</time>
      </trkpt>
      <trkpt lat="45.88646" lon="4.7358">
        <ele>185</ele>
        <time>2018-09-01T11:14:03Z</time>
      </trkpt>
      <trkpt lat="45.88646" lon="4.73589">
        <ele>185</ele>
        <time>2018-09-01T11:14:05Z</time>
      </trkpt>
      <trkpt lat="45.88646" lon="4.73593">
        <ele>185</ele>
        <time>2018-09-01T11:14:06Z</time>
      </trkpt>
      <trkpt lat="45.88647" lon="4.73603">
        <ele>186</ele>
        <time>2018-09-01T11:14:08Z</time>
      </trkpt>
      <trkpt lat="45.88647" lon="4.73607">
        <ele>186</ele>
        <time>2018-09-01T11:14:09Z</time>
      </trkpt>
      <trkpt lat="45.88648" lon="4.73617">
        <ele>186</ele>
        <time>2018-09-01T11:14:11Z</time>
      </trkpt>
      <trkpt lat="45.88648" lon="4.73621">
        <ele>186</ele>
        <time>2018-09-01T11:14:12Z</time>
      </trkpt>
      <trkpt lat="45.88648" lon="4.73631">
        <ele>186</ele>
        <time>2018-09-01T11:14:14Z</time>
      </trkpt>
      <trkpt lat="45.88649" lon="4.73636">
        <ele>186</ele>
        <time>2018-09-01T11:14:15Z</time>
      </trkpt>
      <trkpt lat="45.88648" lon="4.7365">
        <ele>186</ele>
        <time>2018-09-01T11:14:16Z</time>
      </trkpt>
      <trkpt lat="45.88648" lon="4.73661">
        <ele>186</ele>
        <time>2018-09-01T11:14:18Z</time>
      </trkpt>
      <trkpt lat="45.88647" lon="4.73667">
        <ele>186</ele>
        <time>2018-09-01T11:14:19Z</time>
      </trkpt>
      <trkpt lat="45.88647" lon="4.73678">
        <ele>186</ele>
        <time>2018-09-01T11:14:21Z</time>
      </trkpt>
      <trkpt lat="45.88647" lon="4.73684">
        <ele>186</ele>
        <time>2018-09-01T11:14:22Z</time>
      </trkpt>
      <trkpt lat="45.88646" lon="4.73696">
        <ele>186</ele>
        <time>2018-09-01T11:14:24Z</time>
      </trkpt>
      <trkpt lat="45.88646" lon="4.73702">
        <ele>186</ele>
        <time>2018-09-01T11:14:25Z</time>
      </trkpt>
      <trkpt lat="45.88645" lon="4.73709">
        <ele>186</ele>
        <time>2018-09-01T11:14:26Z</time>
      </trkpt>
      <trkpt lat="45.88645" lon="4.73716">
        <ele>186</ele>
        <time>2018-09-01T11:14:27Z</time>
      </trkpt>
      <trkpt lat="45.88644" lon="4.73722">
        <ele>186</ele>
        <time>2018-09-01T11:14:28Z</time>
      </trkpt>
      <trkpt lat="45.88644" lon="4.7373">
        <ele>186</ele>
        <time>2018-09-01T11:14:29Z</time>
      </trkpt>
      <trkpt lat="45.88644" lon="4.73737">
        <ele>186</ele>
        <time>2018-09-01T11:14:30Z</time>
      </trkpt>
      <trkpt lat="45.88643" lon="4.73745">
        <ele>187</ele>
        <time>2018-09-01T11:14:31Z</time>
      </trkpt>
      <trkpt lat="45.88643" lon="4.73754">
        <ele>187</ele>
        <time>2018-09-01T11:14:32Z</time>
      </trkpt>
      <trkpt lat="45.88643" lon="4.73764">
        <ele>187</ele>
        <time>2018-09-01T11:14:33Z</time>
      </trkpt>
      <trkpt lat="45.88643" lon="4.73774">
        <ele>187</ele>
        <time>2018-09-01T11:14:34Z</time>
      </trkpt>
      <trkpt lat="45.88642" lon="4.73783">
        <ele>187</ele>
        <time>2018-09-01T11:14:35Z</time>
      </trkpt>
      <trkpt lat="45.88642" lon="4.73793">
        <ele>187</ele>
        <time>2018-09-01T11:14:36Z</time>
      </trkpt>
      <trkpt lat="45.88642" lon="4.73803">
        <ele>187</ele>
        <time>2018-09-01T11:14:37Z</time>
      </trkpt>
      <trkpt lat="45.88642" lon="4.73813">
        <ele>187</ele>
        <time>2018-09-01T11:14:38Z</time>
      </trkpt>
      <trkpt lat="45.88642" lon="4.73825">
        <ele>187</ele>
        <time>2018-09-01T11:14:39Z</time>
      </trkpt>
      <trkpt lat="45.88643" lon="4.73835">
        <ele>187</ele>
        <time>2018-09-01T11:14:40Z</time>
      </trkpt>
      <trkpt lat="45.88643" lon="4.73843">
        <ele>187</ele>
        <time>2018-09-01T11:14:41Z</time>
      </trkpt>
      <trkpt lat="45.88644" lon="4.73852">
        <ele>187</ele>
        <time>2018-09-01T11:14:42Z</time>
      </trkpt>
      <trkpt lat="45.88643" lon="4.73863">
        <ele>187</ele>
        <time>2018-09-01T11:14:43Z</time>
      </trkpt>
      <trkpt lat="45.88643" lon="4.73874">
        <ele>187</ele>
        <time>2018-09-01T11:14:44Z</time>
      </trkpt>
      <trkpt lat="45.88644" lon="4.73883">
        <ele>187</ele>
        <time>2018-09-01T11:14:45Z</time>
      </trkpt>
      <trkpt lat="45.88644" lon="4.73894">
        <ele>187</ele>
        <time>2018-09-01T11:14:46Z</time>
      </trkpt>
      <trkpt lat="45.88643" lon="4.73903">
        <ele>187</ele>
        <time>2018-09-01T11:14:47Z</time>
      </trkpt>
      <trkpt lat="45.88643" lon="4.73913">
        <ele>187</ele>
        <time>2018-09-01T11:14:48Z</time>
      </trkpt>
      <trkpt lat="45.88643" lon="4.73924">
        <ele>187</ele>
        <time>2018-09-01T11:14:49Z</time>
      </trkpt>
      <trkpt lat="45.88643" lon="4.73932">
        <ele>187</ele>
        <time>2018-09-01T11:14:50Z</time>
      </trkpt>
      <trkpt lat="45.88644" lon="4.73942">
        <ele>187</ele>
        <time>2018-09-01T11:14:51Z</time>
      </trkpt>
      <trkpt lat="45.88646" lon="4.73949">
        <ele>187</ele>
        <time>2018-09-01T11:14:52Z</time>
      </trkpt>
      <trkpt lat="45.88645" lon="4.73955">
        <ele>187</ele>
        <time>2018-09-01T11:14:53Z</time>
      </trkpt>
      <trkpt lat="45.88645" lon="4.73962">
        <ele>187</ele>
        <time>2018-09-01T11:14:54Z</time>
      </trkpt>
      <trkpt lat="45.88646" lon="4.73971">
        <ele>187</ele>
        <time>2018-09-01T11:14:55Z</time>
      </trkpt>
      <trkpt lat="45.88646" lon="4.73979">
        <ele>187</ele>
        <time>2018-09-01T11:14:56Z</time>
      </trkpt>
      <trkpt lat="45.88648" lon="4.73987">
        <ele>187</ele>
        <time>2018-09-01T11:14:57Z</time>
      </trkpt>
      <trkpt lat="45.88649" lon="4.73995">
        <ele>186</ele>
        <time>2018-09-01T11:14:58Z</time>
      </trkpt>
      <trkpt lat="45.88654" lon="4.74003">
        <ele>187</ele>
        <time>2018-09-01T11:14:59Z</time>
      </trkpt>
      <trkpt lat="45.88655" lon="4.74012">
        <ele>187</ele>
        <time>2018-09-01T11:15:00Z</time>
      </trkpt>
      <trkpt lat="45.88656" lon="4.74019">
        <ele>187</ele>
        <time>2018-09-01T11:15:01Z</time>
      </trkpt>
      <trkpt lat="45.88658" lon="4.74026">
        <ele>187</ele>
        <time>2018-09-01T11:15:02Z</time>
      </trkpt>
      <trkpt lat="45.88659" lon="4.74033">
        <ele>187</ele>
        <time>2018-09-01T11:15:03Z</time>
      </trkpt>
      <trkpt lat="45.88662" lon="4.74045">
        <ele>187</ele>
        <time>2018-09-01T11:15:05Z</time>
      </trkpt>
      <trkpt lat="45.88664" lon="4.74053">
        <ele>187</ele>
        <time>2018-09-01T11:15:06Z</time>
      </trkpt>
      <trkpt lat="45.88667" lon="4.74063">
        <ele>187</ele>
        <time>2018-09-01T11:15:08Z</time>
      </trkpt>
      <trkpt lat="45.88668" lon="4.7407">
        <ele>187</ele>
        <time>2018-09-01T11:15:09Z</time>
      </trkpt>
      <trkpt lat="45.88674" lon="4.7408">
        <ele>188</ele>
        <time>2018-09-01T11:15:11Z</time>
      </trkpt>
      <trkpt lat="45.88677" lon="4.74086">
        <ele>188</ele>
        <time>2018-09-01T11:15:12Z</time>
      </trkpt>
      <trkpt lat="45.8868" lon="4.74096">
        <ele>188</ele>
        <time>2018-09-01T11:15:14Z</time>
      </trkpt>
      <trkpt lat="45.88682" lon="4.74101">
        <ele>188</ele>
        <time>2018-09-01T11:15:15Z</time>
      </trkpt>
      <trkpt lat="45.88686" lon="4.74111">
        <ele>188</ele>
        <time>2018-09-01T11:15:17Z</time>
      </trkpt>
      <trkpt lat="45.88689" lon="4.74115">
        <ele>188</ele>
        <time>2018-09-01T11:15:18Z</time>
      </trkpt>
      <trkpt lat="45.88696" lon="4.7412">
        <ele>188</ele>
        <time>2018-09-01T11:15:20Z</time>
      </trkpt>
      <trkpt lat="45.88699" lon="4.7412">
        <ele>188</ele>
        <time>2018-09-01T11:15:21Z</time>
      </trkpt>
      <trkpt lat="45.88707" lon="4.74116">
        <ele>188</ele>
        <time>2018-09-01T11:15:25Z</time>
      </trkpt>
      <trkpt lat="45.88712" lon="4.74115">
        <ele>188</ele>
        <time>2018-09-01T11:15:26Z</time>
      </trkpt>
      <trkpt lat="45.88718" lon="4.7412">
        <ele>188</ele>
        <time>2018-09-01T11:15:28Z</time>
      </trkpt>
      <trkpt lat="45.88721" lon="4.74123">
        <ele>188</ele>
        <time>2018-09-01T11:15:29Z</time>
      </trkpt>
      <trkpt lat="45.88727" lon="4.74131">
        <ele>188</ele>
        <time>2018-09-01T11:15:31Z</time>
      </trkpt>
      <trkpt lat="45.88731" lon="4.74136">
        <ele>188</ele>
        <time>2018-09-01T11:15:32Z</time>
      </trkpt>
      <trkpt lat="45.88739" lon="4.74141">
        <ele>188</ele>
        <time>2018-09-01T11:15:34Z</time>
      </trkpt>
      <trkpt lat="45.88743" lon="4.74145">
        <ele>188</ele>
        <time>2018-09-01T11:15:35Z</time>
      </trkpt>
      <trkpt lat="45.88747" lon="4.74149">
        <ele>188</ele>
        <time>2018-09-01T11:15:36Z</time>
      </trkpt>
      <trkpt lat="45.88752" lon="4.74153">
        <ele>187</ele>
        <time>2018-09-01T11:15:37Z</time>
      </trkpt>
      <trkpt lat="45.88757" lon="4.74156">
        <ele>187</ele>
        <time>2018-09-01T11:15:38Z</time>
      </trkpt>
      <trkpt lat="45.88761" lon="4.74161">
        <ele>187</ele>
        <time>2018-09-01T11:15:39Z</time>
      </trkpt>
      <trkpt lat="45.88766" lon="4.74166">
        <ele>187</ele>
        <time>2018-09-01T11:15:40Z</time>
      </trkpt>
      <trkpt lat="45.8877" lon="4.74169">
        <ele>188</ele>
        <time>2018-09-01T11:15:41Z</time>
      </trkpt>
      <trkpt lat="45.88776" lon="4.74175">
        <ele>188</ele>
        <time>2018-09-01T11:15:43Z</time>
      </trkpt>
      <trkpt lat="45.88784" lon="4.74178">
        <ele>188</ele>
        <time>2018-09-01T11:15:44Z</time>
      </trkpt>
      <trkpt lat="45.88788" lon="4.74181">
        <ele>188</ele>
        <time>2018-09-01T11:15:45Z</time>
      </trkpt>
      <trkpt lat="45.88793" lon="4.74187">
        <ele>188</ele>
        <time>2018-09-01T11:15:46Z</time>
      </trkpt>
      <trkpt lat="45.88798" lon="4.74189">
        <ele>188</ele>
        <time>2018-09-01T11:15:47Z</time>
      </trkpt>
      <trkpt lat="45.88804" lon="4.74191">
        <ele>187</ele>
        <time>2018-09-01T11:15:48Z</time>
      </trkpt>
      <trkpt lat="45.88812" lon="4.74197">
        <ele>187</ele>
        <time>2018-09-01T11:15:50Z</time>
      </trkpt>
      <trkpt lat="45.88816" lon="4.742">
        <ele>187</ele>
        <time>2018-09-01T11:15:51Z</time>
      </trkpt>
      <trkpt lat="45.88821" lon="4.74202">
        <ele>187</ele>
        <time>2018-09-01T11:15:52Z</time>
      </trkpt>
      <trkpt lat="45.88825" lon="4.74205">
        <ele>187</ele>
        <time>2018-09-01T11:15:53Z</time>
      </trkpt>
      <trkpt lat="45.88833" lon="4.74208">
        <ele>187</ele>
        <time>2018-09-01T11:15:55Z</time>
      </trkpt>
      <trkpt lat="45.88837" lon="4.74211">
        <ele>187</ele>
        <time>2018-09-01T11:15:56Z</time>
      </trkpt>
      <trkpt lat="45.88842" lon="4.74214">
        <ele>187</ele>
        <time>2018-09-01T11:15:57Z</time>
      </trkpt>
      <trkpt lat="45.88847" lon="4.74214">
        <ele>187</ele>
        <time>2018-09-01T11:15:58Z</time>
      </trkpt>
      <trkpt lat="45.88855" lon="4.74218">
        <ele>187</ele>
        <time>2018-09-01T11:16:00Z</time>
      </trkpt>
      <trkpt lat="45.88857" lon="4.74221">
        <ele>187</ele>
        <time>2018-09-01T11:16:01Z</time>
      </trkpt>
      <trkpt lat="45.88865" lon="4.74225">
        <ele>187</ele>
        <time>2018-09-01T11:16:04Z</time>
      </trkpt>
      <trkpt lat="45.88866" lon="4.74227">
        <ele>187</ele>
        <time>2018-09-01T11:16:05Z</time>
      </trkpt>
      <trkpt lat="45.88873" lon="4.74234">
        <ele>187</ele>
        <time>2018-09-01T11:16:09Z</time>
      </trkpt>
      <trkpt lat="45.88884" lon="4.74241">
        <ele>187</ele>
        <time>2018-09-01T11:16:10Z</time>
      </trkpt>
      <trkpt lat="45.88892" lon="4.74248">
        <ele>187</ele>
        <time>2018-09-01T11:16:12Z</time>
      </trkpt>
      <trkpt lat="45.88898" lon="4.74249">
        <ele>187</ele>
        <time>2018-09-01T11:16:13Z</time>
      </trkpt>
      <trkpt lat="45.88904" lon="4.74256">
        <ele>187</ele>
        <time>2018-09-01T11:16:15Z</time>
      </trkpt>
      <trkpt lat="45.8891" lon="4.74259">
        <ele>187</ele>
        <time>2018-09-01T11:16:16Z</time>
      </trkpt>
      <trkpt lat="45.88918" lon="4.74265">
        <ele>187</ele>
        <time>2018-09-01T11:16:18Z</time>
      </trkpt>
      <trkpt lat="45.88921" lon="4.74267">
        <ele>187</ele>
        <time>2018-09-01T11:16:19Z</time>
      </trkpt>
      <trkpt lat="45.88927" lon="4.74272">
        <ele>187</ele>
        <time>2018-09-01T11:16:21Z</time>
      </trkpt>
      <trkpt lat="45.88931" lon="4.74273">
        <ele>187</ele>
        <time>2018-09-01T11:16:22Z</time>
      </trkpt>
      <trkpt lat="45.88939" lon="4.74276">
        <ele>187</ele>
        <time>2018-09-01T11:16:24Z</time>
      </trkpt>
      <trkpt lat="45.88944" lon="4.74278">
        <ele>187</ele>
        <time>2018-09-01T11:16:25Z</time>
      </trkpt>
      <trkpt lat="45.8895" lon="4.74278">
        <ele>187</ele>
        <time>2018-09-01T11:16:27Z</time>
      </trkpt>
      <trkpt lat="45.88956" lon="4.74276">
        <ele>187</ele>
        <time>2018-09-01T11:16:28Z</time>
      </trkpt>
      <trkpt lat="45.88963" lon="4.74282">
        <ele>187</ele>
        <time>2018-09-01T11:16:31Z</time>
      </trkpt>
      <trkpt lat="45.88964" lon="4.74283">
        <ele>187</ele>
        <time>2018-09-01T11:16:32Z</time>
      </trkpt>
      <trkpt lat="45.88969" lon="4.74292">
        <ele>187</ele>
        <time>2018-09-01T11:16:41Z</time>
      </trkpt>
      <trkpt lat="45.88971" lon="4.74294">
        <ele>187</ele>
        <time>2018-09-01T11:16:42Z</time>
      </trkpt>
      <trkpt lat="45.88977" lon="4.74294">
        <ele>187</ele>
        <time>2018-09-01T11:16:46Z</time>
      </trkpt>
      <trkpt lat="45.8898" lon="4.74294">
        <ele>187</ele>
        <time>2018-09-01T11:16:47Z</time>
      </trkpt>
      <trkpt lat="45.88983" lon="4.74293">
        <ele>187</ele>
        <time>2018-09-01T11:16:48Z</time>
      </trkpt>
      <trkpt lat="45.88992" lon="4.74292">
        <ele>187</ele>
        <time>2018-09-01T11:16:49Z</time>
      </trkpt>
      <trkpt lat="45.88997" lon="4.74293">
        <ele>187</ele>
        <time>2018-09-01T11:16:50Z</time>
      </trkpt>
      <trkpt lat="45.89002" lon="4.7429">
        <ele>187</ele>
        <time>2018-09-01T11:16:51Z</time>
      </trkpt>
      <trkpt lat="45.89006" lon="4.74289">
        <ele>187</ele>
        <time>2018-09-01T11:16:52Z</time>
      </trkpt>
      <trkpt lat="45.89012" lon="4.74287">
        <ele>187</ele>
        <time>2018-09-01T11:16:53Z</time>
      </trkpt>
      <trkpt lat="45.89016" lon="4.74286">
        <ele>187</ele>
        <time>2018-09-01T11:16:54Z</time>
      </trkpt>
      <trkpt lat="45.89022" lon="4.74284">
        <ele>187</ele>
        <time>2018-09-01T11:16:55Z</time>
      </trkpt>
      <trkpt lat="45.89027" lon="4.74286">
        <ele>187</ele>
        <time>2018-09-01T11:16:57Z</time>
      </trkpt>
      <trkpt lat="45.89032" lon="4.74284">
        <ele>187</ele>
        <time>2018-09-01T11:16:58Z</time>
      </trkpt>
      <trkpt lat="45.89041" lon="4.74283">
        <ele>187</ele>
        <time>2018-09-01T11:17:00Z</time>
      </trkpt>
      <trkpt lat="45.89045" lon="4.74282">
        <ele>187</ele>
        <time>2018-09-01T11:17:01Z</time>
      </trkpt>
      <trkpt lat="45.89053" lon="4.74276">
        <ele>187</ele>
        <time>2018-09-01T11:17:04Z</time>
      </trkpt>
      <trkpt lat="45.89058" lon="4.74274">
        <ele>187</ele>
        <time>2018-09-01T11:17:05Z</time>
      </trkpt>
      <trkpt lat="45.89065" lon="4.74272">
        <ele>187</ele>
        <time>2018-09-01T11:17:07Z</time>
      </trkpt>
      <trkpt lat="45.89069" lon="4.7427">
        <ele>186</ele>
        <time>2018-09-01T11:17:08Z</time>
      </trkpt>
      <trkpt lat="45.89077" lon="4.74268">
        <ele>186</ele>
        <time>2018-09-01T11:17:10Z</time>
      </trkpt>
      <trkpt lat="45.89082" lon="4.74266">
        <ele>186</ele>
        <time>2018-09-01T11:17:11Z</time>
      </trkpt>
      <trkpt lat="45.8909" lon="4.74263">
        <ele>186</ele>
        <time>2018-09-01T11:17:13Z</time>
      </trkpt>
      <trkpt lat="45.89095" lon="4.74262">
        <ele>186</ele>
        <time>2018-09-01T11:17:14Z</time>
      </trkpt>
      <trkpt lat="45.89102" lon="4.74256">
        <ele>187</ele>
        <time>2018-09-01T11:17:16Z</time>
      </trkpt>
      <trkpt lat="45.89107" lon="4.74255">
        <ele>187</ele>
        <time>2018-09-01T11:17:17Z</time>
      </trkpt>
      <trkpt lat="45.89111" lon="4.74253">
        <ele>187</ele>
        <time>2018-09-01T11:17:18Z</time>
      </trkpt>
      <trkpt lat="45.89116" lon="4.74252">
        <ele>187</ele>
        <time>2018-09-01T11:17:19Z</time>
      </trkpt>
      <trkpt lat="45.8912" lon="4.74251">
        <ele>187</ele>
        <time>2018-09-01T11:17:20Z</time>
      </trkpt>
      <trkpt lat="45.89128" lon="4.74249">
        <ele>186</ele>
        <time>2018-09-01T11:17:21Z</time>
      </trkpt>
      <trkpt lat="45.89133" lon="4.74248">
        <ele>186</ele>
        <time>2018-09-01T11:17:22Z</time>
      </trkpt>
      <trkpt lat="45.89138" lon="4.74246">
        <ele>186</ele>
        <time>2018-09-01T11:17:23Z</time>
      </trkpt>
      <trkpt lat="45.89146" lon="4.74244">
        <ele>186</ele>
        <time>2018-09-01T11:17:25Z</time>
      </trkpt>
      <trkpt lat="45.8915" lon="4.74245">
        <ele>186</ele>
        <time>2018-09-01T11:17:26Z</time>
      </trkpt>
      <trkpt lat="45.89154" lon="4.74245">
        <ele>186</ele>
        <time>2018-09-01T11:17:27Z</time>
      </trkpt>
      <trkpt lat="45.89159" lon="4.74242">
        <ele>187</ele>
        <time>2018-09-01T11:17:28Z</time>
      </trkpt>
      <trkpt lat="45.89164" lon="4.74238">
        <ele>187</ele>
        <time>2018-09-01T11:17:29Z</time>
      </trkpt>
      <trkpt lat="45.89168" lon="4.74237">
        <ele>187</ele>
        <time>2018-09-01T11:17:30Z</time>
      </trkpt>
      <trkpt lat="45.89172" lon="4.74233">
        <ele>186</ele>
        <time>2018-09-01T11:17:31Z</time>
      </trkpt>
      <trkpt lat="45.89178" lon="4.74227">
        <ele>186</ele>
        <time>2018-09-01T11:17:32Z</time>
      </trkpt>
      <trkpt lat="45.89183" lon="4.74221">
        <ele>186</ele>
        <time>2018-09-01T11:17:33Z</time>
      </trkpt>
      <trkpt lat="45.89188" lon="4.74218">
        <ele>186</ele>
        <time>2018-09-01T11:17:34Z</time>
      </trkpt>
      <trkpt lat="45.89192" lon="4.74216">
        <ele>186</ele>
        <time>2018-09-01T11:17:35Z</time>
      </trkpt>
      <trkpt lat="45.89196" lon="4.74213">
        <ele>186</ele>
        <time>2018-09-01T11:17:36Z</time>
      </trkpt>
      <trkpt lat="45.89204" lon="4.74208">
        <ele>186</ele>
        <time>2018-09-01T11:17:38Z</time>
      </trkpt>
      <trkpt lat="45.89208" lon="4.74207">
        <ele>186</ele>
        <time>2018-09-01T11:17:39Z</time>
      </trkpt>
      <trkpt lat="45.89216" lon="4.74204">
        <ele>186</ele>
        <time>2018-09-01T11:17:41Z</time>
      </trkpt>
      <trkpt lat="45.89223" lon="4.742">
        <ele>186</ele>
        <time>2018-09-01T11:17:42Z</time>
      </trkpt>
      <trkpt lat="45.89227" lon="4.74198">
        <ele>186</ele>
        <time>2018-09-01T11:17:43Z</time>
      </trkpt>
      <trkpt lat="45.89233" lon="4.74197">
        <ele>186</ele>
        <time>2018-09-01T11:17:44Z</time>
      </trkpt>
      <trkpt lat="45.89237" lon="4.74195">
        <ele>186</ele>
        <time>2018-09-01T11:17:45Z</time>
      </trkpt>
      <trkpt lat="45.89242" lon="4.74194">
        <ele>186</ele>
        <time>2018-09-01T11:17:46Z</time>
      </trkpt>
      <trkpt lat="45.89246" lon="4.74189">
        <ele>186</ele>
        <time>2018-09-01T11:17:47Z</time>
      </trkpt>
      <trkpt lat="45.89251" lon="4.74187">
        <ele>186</ele>
        <time>2018-09-01T11:17:48Z</time>
      </trkpt>
      <trkpt lat="45.89258" lon="4.74186">
        <ele>186</ele>
        <time>2018-09-01T11:17:50Z</time>
      </trkpt>
      <trkpt lat="45.89262" lon="4.74184">
        <ele>186</ele>
        <time>2018-09-01T11:17:51Z</time>
      </trkpt>
      <trkpt lat="45.8927" lon="4.74179">
        <ele>186</ele>
        <time>2018-09-01T11:17:53Z</time>
      </trkpt>
      <trkpt lat="45.89274" lon="4.74178">
        <ele>186</ele>
        <time>2018-09-01T11:17:54Z</time>
      </trkpt>
      <trkpt lat="45.89278" lon="4.74174">
        <ele>186</ele>
        <time>2018-09-01T11:17:55Z</time>
      </trkpt>
      <trkpt lat="45.89283" lon="4.74172">
        <ele>186</ele>
        <time>2018-09-01T11:17:56Z</time>
      </trkpt>
      <trkpt lat="45.89287" lon="4.7417">
        <ele>186</ele>
        <time>2018-09-01T11:17:57Z</time>
      </trkpt>
      <trkpt lat="45.89292" lon="4.74168">
        <ele>186</ele>
        <time>2018-09-01T11:17:58Z</time>
      </trkpt>
      <trkpt lat="45.893" lon="4.74164">
        <ele>185</ele>
        <time>2018-09-01T11:18:00Z</time>
      </trkpt>
      <trkpt lat="45.89305" lon="4.74163">
        <ele>185</ele>
        <time>2018-09-01T11:18:01Z</time>
      </trkpt>
      <trkpt lat="45.8931" lon="4.74161">
        <ele>185</ele>
        <time>2018-09-01T11:18:02Z</time>
      </trkpt>
      <trkpt lat="45.89315" lon="4.74159">
        <ele>185</ele>
        <time>2018-09-01T11:18:03Z</time>
      </trkpt>
      <trkpt lat="45.8932" lon="4.74156">
        <ele>185</ele>
        <time>2018-09-01T11:18:04Z</time>
      </trkpt>
      <trkpt lat="45.89326" lon="4.7415">
        <ele>185</ele>
        <time>2018-09-01T11:18:05Z</time>
      </trkpt>
      <trkpt lat="45.89332" lon="4.74148">
        <ele>185</ele>
        <time>2018-09-01T11:18:06Z</time>
      </trkpt>
      <trkpt lat="45.89338" lon="4.74147">
        <ele>185</ele>
        <time>2018-09-01T11:18:07Z</time>
      </trkpt>
      <trkpt lat="45.89346" lon="4.74143">
        <ele>185</ele>
        <time>2018-09-01T11:18:09Z</time>
      </trkpt>
      <trkpt lat="45.89351" lon="4.74141">
        <ele>185</ele>
        <time>2018-09-01T11:18:10Z</time>
      </trkpt>
      <trkpt lat="45.89356" lon="4.74139">
        <ele>184</ele>
        <time>2018-09-01T11:18:11Z</time>
      </trkpt>
      <trkpt lat="45.89361" lon="4.74137">
        <ele>184</ele>
        <time>2018-09-01T11:18:12Z</time>
      </trkpt>
      <trkpt lat="45.89366" lon="4.74135">
        <ele>184</ele>
        <time>2018-09-01T11:18:13Z</time>
      </trkpt>
      <trkpt lat="45.89371" lon="4.74134">
        <ele>184</ele>
        <time>2018-09-01T11:18:14Z</time>
      </trkpt>
      <trkpt lat="45.89376" lon="4.74132">
        <ele>184</ele>
        <time>2018-09-01T11:18:15Z</time>
      </trkpt>
      <trkpt lat="45.8938" lon="4.7413">
        <ele>184</ele>
        <time>2018-09-01T11:18:16Z</time>
      </trkpt>
      <trkpt lat="45.89385" lon="4.74128">
        <ele>184</ele>
        <time>2018-09-01T11:18:17Z</time>
      </trkpt>
      <trkpt lat="45.89389" lon="4.74126">
        <ele>184</ele>
        <time>2018-09-01T11:18:18Z</time>
      </trkpt>
      <trkpt lat="45.89397" lon="4.74122">
        <ele>184</ele>
        <time>2018-09-01T11:18:20Z</time>
      </trkpt>
      <trkpt lat="45.89401" lon="4.74121">
        <ele>184</ele>
        <time>2018-09-01T11:18:21Z</time>
      </trkpt>
      <trkpt lat="45.89407" lon="4.74119">
        <ele>184</ele>
        <time>2018-09-01T11:18:22Z</time>
      </trkpt>
      <trkpt lat="45.89412" lon="4.74115">
        <ele>183</ele>
        <time>2018-09-01T11:18:23Z</time>
      </trkpt>
      <trkpt lat="45.8942" lon="4.74113">
        <ele>183</ele>
        <time>2018-09-01T11:18:25Z</time>
      </trkpt>
      <trkpt lat="45.89425" lon="4.74112">
        <ele>183</ele>
        <time>2018-09-01T11:18:26Z</time>
      </trkpt>
      <trkpt lat="45.89431" lon="4.74101">
        <ele>182</ele>
        <time>2018-09-01T11:18:27Z</time>
      </trkpt>
      <trkpt lat="45.89439" lon="4.74096">
        <ele>182</ele>
        <time>2018-09-01T11:18:29Z</time>
      </trkpt>
      <trkpt lat="45.89443" lon="4.74095">
        <ele>182</ele>
        <time>2018-09-01T11:18:30Z</time>
      </trkpt>
      <trkpt lat="45.89451" lon="4.74092">
        <ele>182</ele>
        <time>2018-09-01T11:18:32Z</time>
      </trkpt>
      <trkpt lat="45.89456" lon="4.7409">
        <ele>182</ele>
        <time>2018-09-01T11:18:33Z</time>
      </trkpt>
      <trkpt lat="45.89461" lon="4.74088">
        <ele>182</ele>
        <time>2018-09-01T11:18:34Z</time>
      </trkpt>
      <trkpt lat="45.89465" lon="4.74086">
        <ele>182</ele>
        <time>2018-09-01T11:18:35Z</time>
      </trkpt>
      <trkpt lat="45.89472" lon="4.74083">
        <ele>182</ele>
        <time>2018-09-01T11:18:37Z</time>
      </trkpt>
      <trkpt lat="45.89476" lon="4.74082">
        <ele>181</ele>
        <time>2018-09-01T11:18:38Z</time>
      </trkpt>
      <trkpt lat="45.8948" lon="4.74081">
        <ele>181</ele>
        <time>2018-09-01T11:18:39Z</time>
      </trkpt>
      <trkpt lat="45.89485" lon="4.74079">
        <ele>181</ele>
        <time>2018-09-01T11:18:40Z</time>
      </trkpt>
      <trkpt lat="45.89491" lon="4.74076">
        <ele>181</ele>
        <time>2018-09-01T11:18:42Z</time>
      </trkpt>
      <trkpt lat="45.89495" lon="4.74075">
        <ele>181</ele>
        <time>2018-09-01T11:18:43Z</time>
      </trkpt>
      <trkpt lat="45.895" lon="4.74073">
        <ele>181</ele>
        <time>2018-09-01T11:18:44Z</time>
      </trkpt>
      <trkpt lat="45.89506" lon="4.74071">
        <ele>181</ele>
        <time>2018-09-01T11:18:45Z</time>
      </trkpt>
      <trkpt lat="45.8951" lon="4.74069">
        <ele>181</ele>
        <time>2018-09-01T11:18:46Z</time>
      </trkpt>
      <trkpt lat="45.89515" lon="4.74068">
        <ele>181</ele>
        <time>2018-09-01T11:18:47Z</time>
      </trkpt>
      <trkpt lat="45.8952" lon="4.74067">
        <ele>181</ele>
        <time>2018-09-01T11:18:48Z</time>
      </trkpt>
      <trkpt lat="45.89524" lon="4.74064">
        <ele>181</ele>
        <time>2018-09-01T11:18:49Z</time>
      </trkpt>
      <trkpt lat="45.89532" lon="4.74059">
        <ele>181</ele>
        <time>2018-09-01T11:18:51Z</time>
      </trkpt>
      <trkpt lat="45.89538" lon="4.74052">
        <ele>181</ele>
        <time>2018-09-01T11:18:52Z</time>
      </trkpt>
      <trkpt lat="45.89543" lon="4.7405">
        <ele>181</ele>
        <time>2018-09-01T11:18:53Z</time>
      </trkpt>
      <trkpt lat="45.89547" lon="4.74048">
        <ele>181</ele>
        <time>2018-09-01T11:18:54Z</time>
      </trkpt>
      <trkpt lat="45.89552" lon="4.74044">
        <ele>181</ele>
        <time>2018-09-01T11:18:55Z</time>
      </trkpt>
      <trkpt lat="45.89557" lon="4.74042">
        <ele>181</ele>
        <time>2018-09-01T11:18:56Z</time>
      </trkpt>
      <trkpt lat="45.89562" lon="4.7404">
        <ele>181</ele>
        <time>2018-09-01T11:18:57Z</time>
      </trkpt>
      <trkpt lat="45.89566" lon="4.74038">
        <ele>181</ele>
        <time>2018-09-01T11:18:58Z</time>
      </trkpt>
      <trkpt lat="45.89574" lon="4.74034">
        <ele>181</ele>
        <time>2018-09-01T11:19:00Z</time>
      </trkpt>
      <trkpt lat="45.89578" lon="4.74032">
        <ele>181</ele>
        <time>2018-09-01T11:19:01Z</time>
      </trkpt>
      <trkpt lat="45.89586" lon="4.74036">
        <ele>180</ele>
        <time>2018-09-01T11:19:03Z</time>
      </trkpt>
      <trkpt lat="45.89589" lon="4.74037">
        <ele>180</ele>
        <time>2018-09-01T11:19:04Z</time>
      </trkpt>
      <trkpt lat="45.89591" lon="4.74036">
        <ele>180</ele>
        <time>2018-09-01T11:19:05Z</time>
      </trkpt>
      <trkpt lat="45.89597" lon="4.74028">
        <ele>180</ele>
        <time>2018-09-01T11:19:06Z</time>
      </trkpt>
      <trkpt lat="45.89602" lon="4.74036">
        <ele>180</ele>
        <time>2018-09-01T11:19:08Z</time>
      </trkpt>
      <trkpt lat="45.89606" lon="4.74036">
        <ele>180</ele>
        <time>2018-09-01T11:19:09Z</time>
      </trkpt>
      <trkpt lat="45.89612" lon="4.74033">
        <ele>180</ele>
        <time>2018-09-01T11:19:11Z</time>
      </trkpt>
      <trkpt lat="45.89616" lon="4.74032">
        <ele>180</ele>
        <time>2018-09-01T11:19:12Z</time>
      </trkpt>
      <trkpt lat="45.89622" lon="4.74032">
        <ele>180</ele>
        <time>2018-09-01T11:19:14Z</time>
      </trkpt>
      <trkpt lat="45.89627" lon="4.7403">
        <ele>180</ele>
        <time>2018-09-01T11:19:15Z</time>
      </trkpt>
      <trkpt lat="45.89631" lon="4.74029">
        <ele>180</ele>
        <time>2018-09-01T11:19:16Z</time>
      </trkpt>
      <trkpt lat="45.89636" lon="4.74027">
        <ele>180</ele>
        <time>2018-09-01T11:19:17Z</time>
      </trkpt>
      <trkpt lat="45.8964" lon="4.74024">
        <ele>180</ele>
        <time>2018-09-01T11:19:18Z</time>
      </trkpt>
      <trkpt lat="45.89643" lon="4.74017">
        <ele>180</ele>
        <time>2018-09-01T11:19:19Z</time>
      </trkpt>
      <trkpt lat="45.89648" lon="4.74016">
        <ele>180</ele>
        <time>2018-09-01T11:19:20Z</time>
      </trkpt>
      <trkpt lat="45.89654" lon="4.74014">
        <ele>180</ele>
        <time>2018-09-01T11:19:21Z</time>
      </trkpt>
      <trkpt lat="45.89659" lon="4.74013">
        <ele>179</ele>
        <time>2018-09-01T11:19:22Z</time>
      </trkpt>
      <trkpt lat="45.89663" lon="4.74011">
        <ele>179</ele>
        <time>2018-09-01T11:19:23Z</time>
      </trkpt>
      <trkpt lat="45.8967" lon="4.74009">
        <ele>179</ele>
        <time>2018-09-01T11:19:24Z</time>
      </trkpt>
      <trkpt lat="45.89675" lon="4.74007">
        <ele>179</ele>
        <time>2018-09-01T11:19:25Z</time>
      </trkpt>
      <trkpt lat="45.89682" lon="4.74004">
        <ele>179</ele>
        <time>2018-09-01T11:19:26Z</time>
      </trkpt>
      <trkpt lat="45.89686" lon="4.74003">
        <ele>179</ele>
        <time>2018-09-01T11:19:27Z</time>
      </trkpt>
      <trkpt lat="45.89693" lon="4.73999">
        <ele>178</ele>
        <time>2018-09-01T11:19:29Z</time>
      </trkpt>
      <trkpt lat="45.89697" lon="4.73997">
        <ele>178</ele>
        <time>2018-09-01T11:19:30Z</time>
      </trkpt>
      <trkpt lat="45.89706" lon="4.73994">
        <ele>178</ele>
        <time>2018-09-01T11:19:32Z</time>
      </trkpt>
      <trkpt lat="45.8971" lon="4.73993">
        <ele>178</ele>
        <time>2018-09-01T11:19:33Z</time>
      </trkpt>
      <trkpt lat="45.89718" lon="4.7399">
        <ele>178</ele>
        <time>2018-09-01T11:19:35Z</time>
      </trkpt>
      <trkpt lat="45.89723" lon="4.73987">
        <ele>178</ele>
        <time>2018-09-01T11:19:36Z</time>
      </trkpt>
      <trkpt lat="45.89731" lon="4.73984">
        <ele>178</ele>
        <time>2018-09-01T11:19:38Z</time>
      </trkpt>
      <trkpt lat="45.89736" lon="4.73982">
        <ele>178</ele>
        <time>2018-09-01T11:19:39Z</time>
      </trkpt>
      <trkpt lat="45.8974" lon="4.73979">
        <ele>178</ele>
        <time>2018-09-01T11:19:40Z</time>
      </trkpt>
      <trkpt lat="45.89745" lon="4.73977">
        <ele>178</ele>
        <time>2018-09-01T11:19:41Z</time>
      </trkpt>
      <trkpt lat="45.89752" lon="4.73975">
        <ele>178</ele>
        <time>2018-09-01T11:19:43Z</time>
      </trkpt>
      <trkpt lat="45.89756" lon="4.73973">
        <ele>178</ele>
        <time>2018-09-01T11:19:44Z</time>
      </trkpt>
      <trkpt lat="45.89764" lon="4.7397">
        <ele>178</ele>
        <time>2018-09-01T11:19:46Z</time>
      </trkpt>
      <trkpt lat="45.89767" lon="4.73969">
        <ele>179</ele>
        <time>2018-09-01T11:19:47Z</time>
      </trkpt>
      <trkpt lat="45.89775" lon="4.73967">
        <ele>179</ele>
        <time>2018-09-01T11:19:49Z</time>
      </trkpt>
      <trkpt lat="45.89779" lon="4.73965">
        <ele>179</ele>
        <time>2018-09-01T11:19:50Z</time>
      </trkpt>
      <trkpt lat="45.89785" lon="4.73961">
        <ele>179</ele>
        <time>2018-09-01T11:19:51Z</time>
      </trkpt>
      <trkpt lat="45.89789" lon="4.73959">
        <ele>179</ele>
        <time>2018-09-01T11:19:52Z</time>
      </trkpt>
      <trkpt lat="45.89796" lon="4.7396">
        <ele>179</ele>
        <time>2018-09-01T11:19:54Z</time>
      </trkpt>
      <trkpt lat="45.89801" lon="4.73958">
        <ele>179</ele>
        <time>2018-09-01T11:19:55Z</time>
      </trkpt>
      <trkpt lat="45.89805" lon="4.73959">
        <ele>179</ele>
        <time>2018-09-01T11:19:56Z</time>
      </trkpt>
      <trkpt lat="45.8981" lon="4.73957">
        <ele>179</ele>
        <time>2018-09-01T11:19:57Z</time>
      </trkpt>
      <trkpt lat="45.89817" lon="4.73952">
        <ele>179</ele>
        <time>2018-09-01T11:19:59Z</time>
      </trkpt>
      <trkpt lat="45.89822" lon="4.73949">
        <ele>179</ele>
        <time>2018-09-01T11:20:00Z</time>
      </trkpt>
      <trkpt lat="45.8983" lon="4.73946">
        <ele>179</ele>
        <time>2018-09-01T11:20:02Z</time>
      </trkpt>
      <trkpt lat="45.89835" lon="4.73943">
        <ele>179</ele>
        <time>2018-09-01T11:20:03Z</time>
      </trkpt>
      <trkpt lat="45.8984" lon="4.73941">
        <ele>179</ele>
        <time>2018-09-01T11:20:04Z</time>
      </trkpt>
      <trkpt lat="45.89844" lon="4.73939">
        <ele>179</ele>
        <time>2018-09-01T11:20:05Z</time>
      </trkpt>
      <trkpt lat="45.89851" lon="4.73933">
        <ele>179</ele>
        <time>2018-09-01T11:20:07Z</time>
      </trkpt>
      <trkpt lat="45.89855" lon="4.73931">
        <ele>179</ele>
        <time>2018-09-01T11:20:08Z</time>
      </trkpt>
      <trkpt lat="45.89863" lon="4.73928">
        <ele>179</ele>
        <time>2018-09-01T11:20:10Z</time>
      </trkpt>
      <trkpt lat="45.89867" lon="4.73927">
        <ele>179</ele>
        <time>2018-09-01T11:20:11Z</time>
      </trkpt>
      <trkpt lat="45.89871" lon="4.73921">
        <ele>179</ele>
        <time>2018-09-01T11:20:12Z</time>
      </trkpt>
      <trkpt lat="45.89875" lon="4.73919">
        <ele>179</ele>
        <time>2018-09-01T11:20:13Z</time>
      </trkpt>
      <trkpt lat="45.89884" lon="4.73916">
        <ele>179</ele>
        <time>2018-09-01T11:20:15Z</time>
      </trkpt>
      <trkpt lat="45.89887" lon="4.73915">
        <ele>179</ele>
        <time>2018-09-01T11:20:16Z</time>
      </trkpt>
      <trkpt lat="45.89894" lon="4.7391">
        <ele>178</ele>
        <time>2018-09-01T11:20:18Z</time>
      </trkpt>
      <trkpt lat="45.89899" lon="4.73908">
        <ele>178</ele>
        <time>2018-09-01T11:20:19Z</time>
      </trkpt>
      <trkpt lat="45.89903" lon="4.73906">
        <ele>178</ele>
        <time>2018-09-01T11:20:20Z</time>
      </trkpt>
      <trkpt lat="45.89907" lon="4.73904">
        <ele>178</ele>
        <time>2018-09-01T11:20:21Z</time>
      </trkpt>
      <trkpt lat="45.89912" lon="4.73901">
        <ele>178</ele>
        <time>2018-09-01T11:20:22Z</time>
      </trkpt>
      <trkpt lat="45.89917" lon="4.739">
        <ele>178</ele>
        <time>2018-09-01T11:20:23Z</time>
      </trkpt>
      <trkpt lat="45.89925" lon="4.73897">
        <ele>178</ele>
        <time>2018-09-01T11:20:25Z</time>
      </trkpt>
      <trkpt lat="45.8993" lon="4.73897">
        <ele>178</ele>
        <time>2018-09-01T11:20:26Z</time>
      </trkpt>
      <trkpt lat="45.89934" lon="4.73895">
        <ele>178</ele>
        <time>2018-09-01T11:20:27Z</time>
      </trkpt>
      <trkpt lat="45.89939" lon="4.73893">
        <ele>178</ele>
        <time>2018-09-01T11:20:28Z</time>
      </trkpt>
      <trkpt lat="45.89943" lon="4.73891">
        <ele>178</ele>
        <time>2018-09-01T11:20:29Z</time>
      </trkpt>
      <trkpt lat="45.89948" lon="4.73891">
        <ele>178</ele>
        <time>2018-09-01T11:20:30Z</time>
      </trkpt>
      <trkpt lat="45.89957" lon="4.73888">
        <ele>178</ele>
        <time>2018-09-01T11:20:32Z</time>
      </trkpt>
      <trkpt lat="45.89961" lon="4.73887">
        <ele>178</ele>
        <time>2018-09-01T11:20:33Z</time>
      </trkpt>
      <trkpt lat="45.89966" lon="4.73885">
        <ele>178</ele>
        <time>2018-09-01T11:20:34Z</time>
      </trkpt>
      <trkpt lat="45.8997" lon="4.73884">
        <ele>178</ele>
        <time>2018-09-01T11:20:35Z</time>
      </trkpt>
      <trkpt lat="45.89975" lon="4.73881">
        <ele>178</ele>
        <time>2018-09-01T11:20:36Z</time>
      </trkpt>
      <trkpt lat="45.89981" lon="4.73878">
        <ele>178</ele>
        <time>2018-09-01T11:20:37Z</time>
      </trkpt>
      <trkpt lat="45.89986" lon="4.73874">
        <ele>178</ele>
        <time>2018-09-01T11:20:38Z</time>
      </trkpt>
      <trkpt lat="45.89992" lon="4.73868">
        <ele>178</ele>
        <time>2018-09-01T11:20:39Z</time>
      </trkpt>
      <trkpt lat="45.89997" lon="4.73866">
        <ele>178</ele>
        <time>2018-09-01T11:20:40Z</time>
      </trkpt>
      <trkpt lat="45.90002" lon="4.73864">
        <ele>178</ele>
        <time>2018-09-01T11:20:41Z</time>
      </trkpt>
      <trkpt lat="45.90006" lon="4.73862">
        <ele>178</ele>
        <time>2018-09-01T11:20:42Z</time>
      </trkpt>
      <trkpt lat="45.9001" lon="4.7386">
        <ele>178</ele>
        <time>2018-09-01T11:20:43Z</time>
      </trkpt>
      <trkpt lat="45.90015" lon="4.73858">
        <ele>178</ele>
        <time>2018-09-01T11:20:44Z</time>
      </trkpt>
      <trkpt lat="45.90019" lon="4.73856">
        <ele>178</ele>
        <time>2018-09-01T11:20:45Z</time>
      </trkpt>
      <trkpt lat="45.90023" lon="4.73854">
        <ele>178</ele>
        <time>2018-09-01T11:20:46Z</time>
      </trkpt>
      <trkpt lat="45.90028" lon="4.7385">
        <ele>178</ele>
        <time>2018-09-01T11:20:47Z</time>
      </trkpt>
      <trkpt lat="45.90037" lon="4.73847">
        <ele>178</ele>
        <time>2018-09-01T11:20:49Z</time>
      </trkpt>
      <trkpt lat="45.90042" lon="4.73846">
        <ele>178</ele>
        <time>2018-09-01T11:20:50Z</time>
      </trkpt>
      <trkpt lat="45.9005" lon="4.73844">
        <ele>178</ele>
        <time>2018-09-01T11:20:52Z</time>
      </trkpt>
      <trkpt lat="45.90055" lon="4.73842">
        <ele>178</ele>
        <time>2018-09-01T11:20:53Z</time>
      </trkpt>
      <trkpt lat="45.90059" lon="4.73841">
        <ele>178</ele>
        <time>2018-09-01T11:20:54Z</time>
      </trkpt>
      <trkpt lat="45.90064" lon="4.73837">
        <ele>178</ele>
        <time>2018-09-01T11:20:55Z</time>
      </trkpt>
      <trkpt lat="45.90072" lon="4.73834">
        <ele>178</ele>
        <time>2018-09-01T11:20:57Z</time>
      </trkpt>
      <trkpt lat="45.90077" lon="4.73833">
        <ele>178</ele>
        <time>2018-09-01T11:20:58Z</time>
      </trkpt>
      <trkpt lat="45.90081" lon="4.73829">
        <ele>178</ele>
        <time>2018-09-01T11:20:59Z</time>
      </trkpt>
      <trkpt lat="45.90086" lon="4.73827">
        <ele>178</ele>
        <time>2018-09-01T11:21:00Z</time>
      </trkpt>
      <trkpt lat="45.9009" lon="4.73826">
        <ele>178</ele>
        <time>2018-09-01T11:21:01Z</time>
      </trkpt>
      <trkpt lat="45.90095" lon="4.73825">
        <ele>177</ele>
        <time>2018-09-01T11:21:02Z</time>
      </trkpt>
      <trkpt lat="45.90103" lon="4.73823">
        <ele>177</ele>
        <time>2018-09-01T11:21:04Z</time>
      </trkpt>
      <trkpt lat="45.90107" lon="4.73821">
        <ele>177</ele>
        <time>2018-09-01T11:21:05Z</time>
      </trkpt>
      <trkpt lat="45.90116" lon="4.7382">
        <ele>177</ele>
        <time>2018-09-01T11:21:07Z</time>
      </trkpt>
      <trkpt lat="45.90121" lon="4.73819">
        <ele>177</ele>
        <time>2018-09-01T11:21:08Z</time>
      </trkpt>
      <trkpt lat="45.90126" lon="4.73814">
        <ele>177</ele>
        <time>2018-09-01T11:21:09Z</time>
      </trkpt>
      <trkpt lat="45.90131" lon="4.73813">
        <ele>177</ele>
        <time>2018-09-01T11:21:10Z</time>
      </trkpt>
      <trkpt lat="45.90136" lon="4.73812">
        <ele>177</ele>
        <time>2018-09-01T11:21:11Z</time>
      </trkpt>
      <trkpt lat="45.90142" lon="4.7381">
        <ele>177</ele>
        <time>2018-09-01T11:21:12Z</time>
      </trkpt>
      <trkpt lat="45.90147" lon="4.73808">
        <ele>177</ele>
        <time>2018-09-01T11:21:13Z</time>
      </trkpt>
      <trkpt lat="45.90152" lon="4.73804">
        <ele>177</ele>
        <time>2018-09-01T11:21:14Z</time>
      </trkpt>
      <trkpt lat="45.9016" lon="4.738">
        <ele>176</ele>
        <time>2018-09-01T11:21:16Z</time>
      </trkpt>
      <trkpt lat="45.90166" lon="4.73794">
        <ele>176</ele>
        <time>2018-09-01T11:21:17Z</time>
      </trkpt>
      <trkpt lat="45.90169" lon="4.73796">
        <ele>177</ele>
        <time>2018-09-01T11:21:18Z</time>
      </trkpt>
      <trkpt lat="45.90175" lon="4.73791">
        <ele>177</ele>
        <time>2018-09-01T11:21:19Z</time>
      </trkpt>
      <trkpt lat="45.90179" lon="4.73789">
        <ele>177</ele>
        <time>2018-09-01T11:21:20Z</time>
      </trkpt>
      <trkpt lat="45.90185" lon="4.73786">
        <ele>177</ele>
        <time>2018-09-01T11:21:21Z</time>
      </trkpt>
      <trkpt lat="45.9019" lon="4.73784">
        <ele>177</ele>
        <time>2018-09-01T11:21:22Z</time>
      </trkpt>
      <trkpt lat="45.90195" lon="4.73782">
        <ele>177</ele>
        <time>2018-09-01T11:21:23Z</time>
      </trkpt>
      <trkpt lat="45.90202" lon="4.7378">
        <ele>177</ele>
        <time>2018-09-01T11:21:25Z</time>
      </trkpt>
      <trkpt lat="45.90208" lon="4.73777">
        <ele>177</ele>
        <time>2018-09-01T11:21:26Z</time>
      </trkpt>
      <trkpt lat="45.90214" lon="4.73773">
        <ele>177</ele>
        <time>2018-09-01T11:21:27Z</time>
      </trkpt>
      <trkpt lat="45.90219" lon="4.73771">
        <ele>177</ele>
        <time>2018-09-01T11:21:28Z</time>
      </trkpt>
      <trkpt lat="45.90224" lon="4.73768">
        <ele>177</ele>
        <time>2018-09-01T11:21:29Z</time>
      </trkpt>
      <trkpt lat="45.90229" lon="4.73766">
        <ele>177</ele>
        <time>2018-09-01T11:21:30Z</time>
      </trkpt>
      <trkpt lat="45.90237" lon="4.73763">
        <ele>177</ele>
        <time>2018-09-01T11:21:32Z</time>
      </trkpt>
      <trkpt lat="45.9024" lon="4.73761">
        <ele>178</ele>
        <time>2018-09-01T11:21:33Z</time>
      </trkpt>
      <trkpt lat="45.90245" lon="4.73759">
        <ele>178</ele>
        <time>2018-09-01T11:21:34Z</time>
      </trkpt>
      <trkpt lat="45.90251" lon="4.73754">
        <ele>178</ele>
        <time>2018-09-01T11:21:35Z</time>
      </trkpt>
      <trkpt lat="45.90256" lon="4.73751">
        <ele>178</ele>
        <time>2018-09-01T11:21:36Z</time>
      </trkpt>
      <trkpt lat="45.90261" lon="4.73749">
        <ele>178</ele>
        <time>2018-09-01T11:21:37Z</time>
      </trkpt>
      <trkpt lat="45.9027" lon="4.73746">
        <ele>177</ele>
        <time>2018-09-01T11:21:39Z</time>
      </trkpt>
      <trkpt lat="45.90276" lon="4.73744">
        <ele>177</ele>
        <time>2018-09-01T11:21:40Z</time>
      </trkpt>
      <trkpt lat="45.9028" lon="4.73741">
        <ele>177</ele>
        <time>2018-09-01T11:21:41Z</time>
      </trkpt>
      <trkpt lat="45.90285" lon="4.7374">
        <ele>177</ele>
        <time>2018-09-01T11:21:42Z</time>
      </trkpt>
      <trkpt lat="45.90291" lon="4.73739">
        <ele>177</ele>
        <time>2018-09-01T11:21:43Z</time>
      </trkpt>
      <trkpt lat="45.90296" lon="4.73737">
        <ele>177</ele>
        <time>2018-09-01T11:21:44Z</time>
      </trkpt>
      <trkpt lat="45.90304" lon="4.73733">
        <ele>177</ele>
        <time>2018-09-01T11:21:45Z</time>
      </trkpt>
      <trkpt lat="45.90309" lon="4.7373">
        <ele>177</ele>
        <time>2018-09-01T11:21:46Z</time>
      </trkpt>
      <trkpt lat="45.90314" lon="4.73728">
        <ele>177</ele>
        <time>2018-09-01T11:21:47Z</time>
      </trkpt>
      <trkpt lat="45.9032" lon="4.73726">
        <ele>177</ele>
        <time>2018-09-01T11:21:48Z</time>
      </trkpt>
      <trkpt lat="45.90326" lon="4.73719">
        <ele>177</ele>
        <time>2018-09-01T11:21:49Z</time>
      </trkpt>
      <trkpt lat="45.90328" lon="4.73722">
        <ele>177</ele>
        <time>2018-09-01T11:21:50Z</time>
      </trkpt>
      <trkpt lat="45.90337" lon="4.7372">
        <ele>177</ele>
        <time>2018-09-01T11:21:52Z</time>
      </trkpt>
      <trkpt lat="45.90341" lon="4.73718">
        <ele>177</ele>
        <time>2018-09-01T11:21:53Z</time>
      </trkpt>
      <trkpt lat="45.90346" lon="4.73718">
        <ele>177</ele>
        <time>2018-09-01T11:21:54Z</time>
      </trkpt>
      <trkpt lat="45.90351" lon="4.73717">
        <ele>177</ele>
        <time>2018-09-01T11:21:55Z</time>
      </trkpt>
      <trkpt lat="45.90358" lon="4.73712">
        <ele>177</ele>
        <time>2018-09-01T11:21:57Z</time>
      </trkpt>
      <trkpt lat="45.90362" lon="4.7371">
        <ele>177</ele>
        <time>2018-09-01T11:21:58Z</time>
      </trkpt>
      <trkpt lat="45.9037" lon="4.73707">
        <ele>177</ele>
        <time>2018-09-01T11:22:00Z</time>
      </trkpt>
      <trkpt lat="45.90374" lon="4.73705">
        <ele>177</ele>
        <time>2018-09-01T11:22:01Z</time>
      </trkpt>
      <trkpt lat="45.90378" lon="4.73704">
        <ele>177</ele>
        <time>2018-09-01T11:22:02Z</time>
      </trkpt>
      <trkpt lat="45.90383" lon="4.73702">
        <ele>177</ele>
        <time>2018-09-01T11:22:03Z</time>
      </trkpt>
      <trkpt lat="45.90389" lon="4.73699">
        <ele>177</ele>
        <time>2018-09-01T11:22:05Z</time>
      </trkpt>
      <trkpt lat="45.90392" lon="4.73697">
        <ele>177</ele>
        <time>2018-09-01T11:22:06Z</time>
      </trkpt>
      <trkpt lat="45.904" lon="4.73695">
        <ele>177</ele>
        <time>2018-09-01T11:22:08Z</time>
      </trkpt>
      <trkpt lat="45.90404" lon="4.73692">
        <ele>177</ele>
        <time>2018-09-01T11:22:09Z</time>
      </trkpt>
      <trkpt lat="45.90411" lon="4.73688">
        <ele>177</ele>
        <time>2018-09-01T11:22:11Z</time>
      </trkpt>
      <trkpt lat="45.90415" lon="4.73687">
        <ele>177</ele>
        <time>2018-09-01T11:22:12Z</time>
      </trkpt>
      <trkpt lat="45.90422" lon="4.73684">
        <ele>177</ele>
        <time>2018-09-01T11:22:14Z</time>
      </trkpt>
      <trkpt lat="45.90426" lon="4.73682">
        <ele>177</ele>
        <time>2018-09-01T11:22:15Z</time>
      </trkpt>
      <trkpt lat="45.90434" lon="4.73678">
        <ele>176</ele>
        <time>2018-09-01T11:22:17Z</time>
      </trkpt>
      <trkpt lat="45.90439" lon="4.73677">
        <ele>176</ele>
        <time>2018-09-01T11:22:18Z</time>
      </trkpt>
      <trkpt lat="45.90447" lon="4.73673">
        <ele>176</ele>
        <time>2018-09-01T11:22:20Z</time>
      </trkpt>
      <trkpt lat="45.90451" lon="4.73672">
        <ele>176</ele>
        <time>2018-09-01T11:22:21Z</time>
      </trkpt>
      <trkpt lat="45.90459" lon="4.73668">
        <ele>176</ele>
        <time>2018-09-01T11:22:23Z</time>
      </trkpt>
      <trkpt lat="45.90464" lon="4.73666">
        <ele>177</ele>
        <time>2018-09-01T11:22:24Z</time>
      </trkpt>
      <trkpt lat="45.90471" lon="4.73663">
        <ele>177</ele>
        <time>2018-09-01T11:22:26Z</time>
      </trkpt>
      <trkpt lat="45.90475" lon="4.73662">
        <ele>177</ele>
        <time>2018-09-01T11:22:27Z</time>
      </trkpt>
      <trkpt lat="45.90483" lon="4.73659">
        <ele>177</ele>
        <time>2018-09-01T11:22:29Z</time>
      </trkpt>
      <trkpt lat="45.90486" lon="4.73657">
        <ele>177</ele>
        <time>2018-09-01T11:22:30Z</time>
      </trkpt>
      <trkpt lat="45.90494" lon="4.73654">
        <ele>177</ele>
        <time>2018-09-01T11:22:32Z</time>
      </trkpt>
      <trkpt lat="45.90497" lon="4.73653">
        <ele>177</ele>
        <time>2018-09-01T11:22:33Z</time>
      </trkpt>
      <trkpt lat="45.90505" lon="4.7365">
        <ele>178</ele>
        <time>2018-09-01T11:22:35Z</time>
      </trkpt>
      <trkpt lat="45.90509" lon="4.73648">
        <ele>178</ele>
        <time>2018-09-01T11:22:36Z</time>
      </trkpt>
      <trkpt lat="45.90517" lon="4.73645">
        <ele>178</ele>
        <time>2018-09-01T11:22:38Z</time>
      </trkpt>
      <trkpt lat="45.90522" lon="4.73643">
        <ele>178</ele>
        <time>2018-09-01T11:22:39Z</time>
      </trkpt>
      <trkpt lat="45.9053" lon="4.7364">
        <ele>178</ele>
        <time>2018-09-01T11:22:41Z</time>
      </trkpt>
      <trkpt lat="45.90533" lon="4.73639">
        <ele>178</ele>
        <time>2018-09-01T11:22:42Z</time>
      </trkpt>
      <trkpt lat="45.90541" lon="4.73636">
        <ele>178</ele>
        <time>2018-09-01T11:22:44Z</time>
      </trkpt>
      <trkpt lat="45.90545" lon="4.73634">
        <ele>178</ele>
        <time>2018-09-01T11:22:45Z</time>
      </trkpt>
      <trkpt lat="45.90552" lon="4.7363">
        <ele>178</ele>
        <time>2018-09-01T11:22:47Z</time>
      </trkpt>
      <trkpt lat="45.90556" lon="4.73628">
        <ele>179</ele>
        <time>2018-09-01T11:22:48Z</time>
      </trkpt>
      <trkpt lat="45.9056" lon="4.73626">
        <ele>179</ele>
        <time>2018-09-01T11:22:49Z</time>
      </trkpt>
      <trkpt lat="45.90566" lon="4.73622">
        <ele>179</ele>
        <time>2018-09-01T11:22:50Z</time>
      </trkpt>
      <trkpt lat="45.90574" lon="4.73618">
        <ele>179</ele>
        <time>2018-09-01T11:22:52Z</time>
      </trkpt>
      <trkpt lat="45.90579" lon="4.73616">
        <ele>179</ele>
        <time>2018-09-01T11:22:53Z</time>
      </trkpt>
      <trkpt lat="45.90583" lon="4.73615">
        <ele>178</ele>
        <time>2018-09-01T11:22:54Z</time>
      </trkpt>
      <trkpt lat="45.90588" lon="4.73613">
        <ele>180</ele>
        <time>2018-09-01T11:22:55Z</time>
      </trkpt>
      <trkpt lat="45.90595" lon="4.73613">
        <ele>180</ele>
        <time>2018-09-01T11:22:57Z</time>
      </trkpt>
      <trkpt lat="45.90598" lon="4.73611">
        <ele>180</ele>
        <time>2018-09-01T11:22:58Z</time>
      </trkpt>
      <trkpt lat="45.90602" lon="4.73609">
        <ele>180</ele>
        <time>2018-09-01T11:22:59Z</time>
      </trkpt>
      <trkpt lat="45.90607" lon="4.73607">
        <ele>180</ele>
        <time>2018-09-01T11:23:00Z</time>
      </trkpt>
      <trkpt lat="45.90611" lon="4.73606">
        <ele>180</ele>
        <time>2018-09-01T11:23:01Z</time>
      </trkpt>
      <trkpt lat="45.90616" lon="4.73602">
        <ele>180</ele>
        <time>2018-09-01T11:23:02Z</time>
      </trkpt>
      <trkpt lat="45.90625" lon="4.73599">
        <ele>181</ele>
        <time>2018-09-01T11:23:04Z</time>
      </trkpt>
      <trkpt lat="45.90629" lon="4.73597">
        <ele>181</ele>
        <time>2018-09-01T11:23:05Z</time>
      </trkpt>
      <trkpt lat="45.90635" lon="4.73595">
        <ele>181</ele>
        <time>2018-09-01T11:23:06Z</time>
      </trkpt>
      <trkpt lat="45.90641" lon="4.73594">
        <ele>181</ele>
        <time>2018-09-01T11:23:07Z</time>
      </trkpt>
      <trkpt lat="45.90645" lon="4.73591">
        <ele>181</ele>
        <time>2018-09-01T11:23:08Z</time>
      </trkpt>
      <trkpt lat="45.9065" lon="4.73589">
        <ele>181</ele>
        <time>2018-09-01T11:23:09Z</time>
      </trkpt>
      <trkpt lat="45.90655" lon="4.73587">
        <ele>180</ele>
        <time>2018-09-01T11:23:10Z</time>
      </trkpt>
      <trkpt lat="45.9066" lon="4.73585">
        <ele>180</ele>
        <time>2018-09-01T11:23:11Z</time>
      </trkpt>
      <trkpt lat="45.90665" lon="4.73582">
        <ele>180</ele>
        <time>2018-09-01T11:23:12Z</time>
      </trkpt>
      <trkpt lat="45.90671" lon="4.7358">
        <ele>180</ele>
        <time>2018-09-01T11:23:13Z</time>
      </trkpt>
      <trkpt lat="45.90677" lon="4.73578">
        <ele>179</ele>
        <time>2018-09-01T11:23:14Z</time>
      </trkpt>
      <trkpt lat="45.90683" lon="4.73576">
        <ele>179</ele>
        <time>2018-09-01T11:23:15Z</time>
      </trkpt>
      <trkpt lat="45.90689" lon="4.73573">
        <ele>178</ele>
        <time>2018-09-01T11:23:16Z</time>
      </trkpt>
      <trkpt lat="45.90695" lon="4.73571">
        <ele>178</ele>
        <time>2018-09-01T11:23:17Z</time>
      </trkpt>
      <trkpt lat="45.90701" lon="4.73569">
        <ele>178</ele>
        <time>2018-09-01T11:23:18Z</time>
      </trkpt>
      <trkpt lat="45.90706" lon="4.73566">
        <ele>178</ele>
        <time>2018-09-01T11:23:19Z</time>
      </trkpt>
      <trkpt lat="45.90712" lon="4.73564">
        <ele>178</ele>
        <time>2018-09-01T11:23:20Z</time>
      </trkpt>
      <trkpt lat="45.90718" lon="4.73563">
        <ele>178</ele>
        <time>2018-09-01T11:23:21Z</time>
      </trkpt>
      <trkpt lat="45.90725" lon="4.7356">
        <ele>178</ele>
        <time>2018-09-01T11:23:22Z</time>
      </trkpt>
      <trkpt lat="45.90732" lon="4.73557">
        <ele>178</ele>
        <time>2018-09-01T11:23:23Z</time>
      </trkpt>
      <trkpt lat="45.90737" lon="4.73557">
        <ele>178</ele>
        <time>2018-09-01T11:23:24Z</time>
      </trkpt>
      <trkpt lat="45.90743" lon="4.73553">
        <ele>178</ele>
        <time>2018-09-01T11:23:25Z</time>
      </trkpt>
      <trkpt lat="45.90751" lon="4.73551">
        <ele>177</ele>
        <time>2018-09-01T11:23:26Z</time>
      </trkpt>
      <trkpt lat="45.90757" lon="4.73549">
        <ele>176</ele>
        <time>2018-09-01T11:23:27Z</time>
      </trkpt>
      <trkpt lat="45.90764" lon="4.73545">
        <ele>176</ele>
        <time>2018-09-01T11:23:28Z</time>
      </trkpt>
      <trkpt lat="45.90772" lon="4.73541">
        <ele>176</ele>
        <time>2018-09-01T11:23:29Z</time>
      </trkpt>
      <trkpt lat="45.90779" lon="4.73539">
        <ele>176</ele>
        <time>2018-09-01T11:23:30Z</time>
      </trkpt>
      <trkpt lat="45.90787" lon="4.73533">
        <ele>176</ele>
        <time>2018-09-01T11:23:31Z</time>
      </trkpt>
      <trkpt lat="45.90794" lon="4.7353">
        <ele>176</ele>
        <time>2018-09-01T11:23:32Z</time>
      </trkpt>
      <trkpt lat="45.908" lon="4.73526">
        <ele>175</ele>
        <time>2018-09-01T11:23:33Z</time>
      </trkpt>
      <trkpt lat="45.90808" lon="4.7352">
        <ele>175</ele>
        <time>2018-09-01T11:23:34Z</time>
      </trkpt>
      <trkpt lat="45.90814" lon="4.73518">
        <ele>175</ele>
        <time>2018-09-01T11:23:35Z</time>
      </trkpt>
      <trkpt lat="45.9082" lon="4.73516">
        <ele>175</ele>
        <time>2018-09-01T11:23:36Z</time>
      </trkpt>
      <trkpt lat="45.90826" lon="4.73515">
        <ele>175</ele>
        <time>2018-09-01T11:23:37Z</time>
      </trkpt>
      <trkpt lat="45.90832" lon="4.73513">
        <ele>175</ele>
        <time>2018-09-01T11:23:38Z</time>
      </trkpt>
      <trkpt lat="45.90838" lon="4.73511">
        <ele>174</ele>
        <time>2018-09-01T11:23:39Z</time>
      </trkpt>
      <trkpt lat="45.90843" lon="4.73508">
        <ele>174</ele>
        <time>2018-09-01T11:23:40Z</time>
      </trkpt>
      <trkpt lat="45.90849" lon="4.73505">
        <ele>174</ele>
        <time>2018-09-01T11:23:41Z</time>
      </trkpt>
      <trkpt lat="45.90854" lon="4.73504">
        <ele>174</ele>
        <time>2018-09-01T11:23:42Z</time>
      </trkpt>
      <trkpt lat="45.90859" lon="4.73502">
        <ele>174</ele>
        <time>2018-09-01T11:23:43Z</time>
      </trkpt>
      <trkpt lat="45.90864" lon="4.73498">
        <ele>175</ele>
        <time>2018-09-01T11:23:44Z</time>
      </trkpt>
      <trkpt lat="45.90871" lon="4.73495">
        <ele>175</ele>
        <time>2018-09-01T11:23:45Z</time>
      </trkpt>
      <trkpt lat="45.90876" lon="4.73492">
        <ele>175</ele>
        <time>2018-09-01T11:23:46Z</time>
      </trkpt>
      <trkpt lat="45.90881" lon="4.73492">
        <ele>175</ele>
        <time>2018-09-01T11:23:47Z</time>
      </trkpt>
      <trkpt lat="45.90886" lon="4.7349">
        <ele>175</ele>
        <time>2018-09-01T11:23:48Z</time>
      </trkpt>
      <trkpt lat="45.90891" lon="4.73489">
        <ele>175</ele>
        <time>2018-09-01T11:23:49Z</time>
      </trkpt>
      <trkpt lat="45.90898" lon="4.73487">
        <ele>175</ele>
        <time>2018-09-01T11:23:50Z</time>
      </trkpt>
      <trkpt lat="45.90904" lon="4.73485">
        <ele>175</ele>
        <time>2018-09-01T11:23:51Z</time>
      </trkpt>
      <trkpt lat="45.9091" lon="4.7348">
        <ele>175</ele>
        <time>2018-09-01T11:23:52Z</time>
      </trkpt>
      <trkpt lat="45.90915" lon="4.73478">
        <ele>175</ele>
        <time>2018-09-01T11:23:53Z</time>
      </trkpt>
      <trkpt lat="45.9092" lon="4.73476">
        <ele>175</ele>
        <time>2018-09-01T11:23:54Z</time>
      </trkpt>
      <trkpt lat="45.90925" lon="4.73475">
        <ele>175</ele>
        <time>2018-09-01T11:23:55Z</time>
      </trkpt>
      <trkpt lat="45.9093" lon="4.73472">
        <ele>175</ele>
        <time>2018-09-01T11:23:56Z</time>
      </trkpt>
      <trkpt lat="45.90935" lon="4.73469">
        <ele>175</ele>
        <time>2018-09-01T11:23:57Z</time>
      </trkpt>
      <trkpt lat="45.90941" lon="4.73465">
        <ele>175</ele>
        <time>2018-09-01T11:23:58Z</time>
      </trkpt>
      <trkpt lat="45.90945" lon="4.73464">
        <ele>175</ele>
        <time>2018-09-01T11:23:59Z</time>
      </trkpt>
      <trkpt lat="45.90949" lon="4.73462">
        <ele>175</ele>
        <time>2018-09-01T11:24:00Z</time>
      </trkpt>
      <trkpt lat="45.90954" lon="4.7346">
        <ele>175</ele>
        <time>2018-09-01T11:24:01Z</time>
      </trkpt>
      <trkpt lat="45.90962" lon="4.73461">
        <ele>175</ele>
        <time>2018-09-01T11:24:03Z</time>
      </trkpt>
      <trkpt lat="45.90971" lon="4.73451">
        <ele>175</ele>
        <time>2018-09-01T11:24:04Z</time>
      </trkpt>
      <trkpt lat="45.90979" lon="4.73447">
        <ele>175</ele>
        <time>2018-09-01T11:24:06Z</time>
      </trkpt>
      <trkpt lat="45.90984" lon="4.73444">
        <ele>175</ele>
        <time>2018-09-01T11:24:07Z</time>
      </trkpt>
      <trkpt lat="45.90989" lon="4.73443">
        <ele>175</ele>
        <time>2018-09-01T11:24:08Z</time>
      </trkpt>
      <trkpt lat="45.90994" lon="4.73442">
        <ele>175</ele>
        <time>2018-09-01T11:24:09Z</time>
      </trkpt>
      <trkpt lat="45.90999" lon="4.73441">
        <ele>175</ele>
        <time>2018-09-01T11:24:10Z</time>
      </trkpt>
      <trkpt lat="45.91004" lon="4.73442">
        <ele>175</ele>
        <time>2018-09-01T11:24:11Z</time>
      </trkpt>
      <trkpt lat="45.91012" lon="4.73444">
        <ele>175</ele>
        <time>2018-09-01T11:24:13Z</time>
      </trkpt>
      <trkpt lat="45.91015" lon="4.73448">
        <ele>175</ele>
        <time>2018-09-01T11:24:14Z</time>
      </trkpt>
      <trkpt lat="45.91022" lon="4.73455">
        <ele>175</ele>
        <time>2018-09-01T11:24:16Z</time>
      </trkpt>
      <trkpt lat="45.91025" lon="4.73459">
        <ele>175</ele>
        <time>2018-09-01T11:24:17Z</time>
      </trkpt>
      <trkpt lat="45.91028" lon="4.73464">
        <ele>175</ele>
        <time>2018-09-01T11:24:18Z</time>
      </trkpt>
      <trkpt lat="45.91031" lon="4.7347">
        <ele>175</ele>
        <time>2018-09-01T11:24:19Z</time>
      </trkpt>
      <trkpt lat="45.91033" lon="4.73476">
        <ele>175</ele>
        <time>2018-09-01T11:24:20Z</time>
      </trkpt>
      <trkpt lat="45.91036" lon="4.73481">
        <ele>175</ele>
        <time>2018-09-01T11:24:21Z</time>
      </trkpt>
      <trkpt lat="45.91039" lon="4.73487">
        <ele>175</ele>
        <time>2018-09-01T11:24:22Z</time>
      </trkpt>
      <trkpt lat="45.91042" lon="4.73493">
        <ele>175</ele>
        <time>2018-09-01T11:24:23Z</time>
      </trkpt>
      <trkpt lat="45.91045" lon="4.73499">
        <ele>175</ele>
        <time>2018-09-01T11:24:24Z</time>
      </trkpt>
      <trkpt lat="45.91046" lon="4.73505">
        <ele>175</ele>
        <time>2018-09-01T11:24:25Z</time>
      </trkpt>
      <trkpt lat="45.91049" lon="4.73511">
        <ele>175</ele>
        <time>2018-09-01T11:24:26Z</time>
      </trkpt>
      <trkpt lat="45.91051" lon="4.73516">
        <ele>175</ele>
        <time>2018-09-01T11:24:27Z</time>
      </trkpt>
      <trkpt lat="45.91053" lon="4.73522">
        <ele>175</ele>
        <time>2018-09-01T11:24:28Z</time>
      </trkpt>
      <trkpt lat="45.91055" lon="4.73528">
        <ele>175</ele>
        <time>2018-09-01T11:24:29Z</time>
      </trkpt>
      <trkpt lat="45.91057" lon="4.73533">
        <ele>175</ele>
        <time>2018-09-01T11:24:30Z</time>
      </trkpt>
      <trkpt lat="45.9106" lon="4.73539">
        <ele>175</ele>
        <time>2018-09-01T11:24:31Z</time>
      </trkpt>
      <trkpt lat="45.91062" lon="4.73544">
        <ele>174</ele>
        <time>2018-09-01T11:24:32Z</time>
      </trkpt>
      <trkpt lat="45.91065" lon="4.7355">
        <ele>174</ele>
        <time>2018-09-01T11:24:33Z</time>
      </trkpt>
      <trkpt lat="45.91068" lon="4.73556">
        <ele>174</ele>
        <time>2018-09-01T11:24:34Z</time>
      </trkpt>
      <trkpt lat="45.91071" lon="4.73562">
        <ele>174</ele>
        <time>2018-09-01T11:24:35Z</time>
      </trkpt>
      <trkpt lat="45.91073" lon="4.73567">
        <ele>174</ele>
        <time>2018-09-01T11:24:36Z</time>
      </trkpt>
      <trkpt lat="45.91075" lon="4.73573">
        <ele>174</ele>
        <time>2018-09-01T11:24:37Z</time>
      </trkpt>
      <trkpt lat="45.91078" lon="4.7358">
        <ele>174</ele>
        <time>2018-09-01T11:24:38Z</time>
      </trkpt>
      <trkpt lat="45.91081" lon="4.73584">
        <ele>174</ele>
        <time>2018-09-01T11:24:39Z</time>
      </trkpt>
      <trkpt lat="45.91083" lon="4.7359">
        <ele>174</ele>
        <time>2018-09-01T11:24:40Z</time>
      </trkpt>
      <trkpt lat="45.91086" lon="4.73596">
        <ele>174</ele>
        <time>2018-09-01T11:24:41Z</time>
      </trkpt>
      <trkpt lat="45.91089" lon="4.73602">
        <ele>174</ele>
        <time>2018-09-01T11:24:42Z</time>
      </trkpt>
      <trkpt lat="45.91091" lon="4.73608">
        <ele>174</ele>
        <time>2018-09-01T11:24:43Z</time>
      </trkpt>
      <trkpt lat="45.91094" lon="4.73614">
        <ele>174</ele>
        <time>2018-09-01T11:24:44Z</time>
      </trkpt>
      <trkpt lat="45.91097" lon="4.7362">
        <ele>174</ele>
        <time>2018-09-01T11:24:45Z</time>
      </trkpt>
      <trkpt lat="45.91099" lon="4.73626">
        <ele>174</ele>
        <time>2018-09-01T11:24:46Z</time>
      </trkpt>
      <trkpt lat="45.91102" lon="4.73631">
        <ele>174</ele>
        <time>2018-09-01T11:24:47Z</time>
      </trkpt>
      <trkpt lat="45.91105" lon="4.73637">
        <ele>174</ele>
        <time>2018-09-01T11:24:48Z</time>
      </trkpt>
      <trkpt lat="45.91108" lon="4.73643">
        <ele>174</ele>
        <time>2018-09-01T11:24:49Z</time>
      </trkpt>
      <trkpt lat="45.91111" lon="4.73649">
        <ele>174</ele>
        <time>2018-09-01T11:24:50Z</time>
      </trkpt>
      <trkpt lat="45.91114" lon="4.73654">
        <ele>174</ele>
        <time>2018-09-01T11:24:51Z</time>
      </trkpt>
      <trkpt lat="45.91116" lon="4.73659">
        <ele>174</ele>
        <time>2018-09-01T11:24:52Z</time>
      </trkpt>
      <trkpt lat="45.9112" lon="4.73665">
        <ele>174</ele>
        <time>2018-09-01T11:24:53Z</time>
      </trkpt>
      <trkpt lat="45.91125" lon="4.73673">
        <ele>174</ele>
        <time>2018-09-01T11:24:55Z</time>
      </trkpt>
      <trkpt lat="45.91126" lon="4.73677">
        <ele>174</ele>
        <time>2018-09-01T11:24:56Z</time>
      </trkpt>
      <trkpt lat="45.91131" lon="4.73686">
        <ele>174</ele>
        <time>2018-09-01T11:24:58Z</time>
      </trkpt>
      <trkpt lat="45.91133" lon="4.7369">
        <ele>174</ele>
        <time>2018-09-01T11:24:59Z</time>
      </trkpt>
      <trkpt lat="45.91139" lon="4.73699">
        <ele>174</ele>
        <time>2018-09-01T11:25:01Z</time>
      </trkpt>
      <trkpt lat="45.91142" lon="4.73703">
        <ele>174</ele>
        <time>2018-09-01T11:25:02Z</time>
      </trkpt>
      <trkpt lat="45.91146" lon="4.73713">
        <ele>174</ele>
        <time>2018-09-01T11:25:04Z</time>
      </trkpt>
      <trkpt lat="45.91148" lon="4.73718">
        <ele>174</ele>
        <time>2018-09-01T11:25:05Z</time>
      </trkpt>
      <trkpt lat="45.91153" lon="4.73726">
        <ele>175</ele>
        <time>2018-09-01T11:25:07Z</time>
      </trkpt>
      <trkpt lat="45.91156" lon="4.73729">
        <ele>175</ele>
        <time>2018-09-01T11:25:08Z</time>
      </trkpt>
      <trkpt lat="45.91161" lon="4.7373">
        <ele>175</ele>
        <time>2018-09-01T11:25:10Z</time>
      </trkpt>
      <trkpt lat="45.91167" lon="4.73731">
        <ele>175</ele>
        <time>2018-09-01T11:25:11Z</time>
      </trkpt>
      <trkpt lat="45.91175" lon="4.73731">
        <ele>175</ele>
        <time>2018-09-01T11:25:13Z</time>
      </trkpt>
      <trkpt lat="45.91177" lon="4.73731">
        <ele>175</ele>
        <time>2018-09-01T11:25:14Z</time>
      </trkpt>
      <trkpt lat="45.91184" lon="4.73734">
        <ele>175</ele>
        <time>2018-09-01T11:25:17Z</time>
      </trkpt>
      <trkpt lat="45.91187" lon="4.73735">
        <ele>175</ele>
        <time>2018-09-01T11:25:18Z</time>
      </trkpt>
      <trkpt lat="45.9119" lon="4.73736">
        <ele>175</ele>
        <time>2018-09-01T11:25:19Z</time>
      </trkpt>
      <trkpt lat="45.91199" lon="4.73739">
        <ele>175</ele>
        <time>2018-09-01T11:25:20Z</time>
      </trkpt>
      <trkpt lat="45.91203" lon="4.73739">
        <ele>175</ele>
        <time>2018-09-01T11:25:22Z</time>
      </trkpt>
      <trkpt lat="45.9121" lon="4.73738">
        <ele>175</ele>
        <time>2018-09-01T11:25:23Z</time>
      </trkpt>
      <trkpt lat="45.91218" lon="4.73737">
        <ele>175</ele>
        <time>2018-09-01T11:25:25Z</time>
      </trkpt>
      <trkpt lat="45.91221" lon="4.73736">
        <ele>175</ele>
        <time>2018-09-01T11:25:26Z</time>
      </trkpt>
      <trkpt lat="45.91229" lon="4.73736">
        <ele>175</ele>
        <time>2018-09-01T11:25:28Z</time>
      </trkpt>
      <trkpt lat="45.91232" lon="4.73736">
        <ele>175</ele>
        <time>2018-09-01T11:25:29Z</time>
      </trkpt>
      <trkpt lat="45.91239" lon="4.73736">
        <ele>175</ele>
        <time>2018-09-01T11:25:31Z</time>
      </trkpt>
      <trkpt lat="45.91243" lon="4.73736">
        <ele>175</ele>
        <time>2018-09-01T11:25:32Z</time>
      </trkpt>
      <trkpt lat="45.91251" lon="4.73735">
        <ele>175</ele>
        <time>2018-09-01T11:25:35Z</time>
      </trkpt>
      <trkpt lat="45.91253" lon="4.73735">
        <ele>175</ele>
        <time>2018-09-01T11:25:36Z</time>
      </trkpt>
      <trkpt lat="45.9126" lon="4.73734">
        <ele>174</ele>
        <time>2018-09-01T11:25:37Z</time>
      </trkpt>
      <trkpt lat="45.91264" lon="4.73735">
        <ele>174</ele>
        <time>2018-09-01T11:25:38Z</time>
      </trkpt>
      <trkpt lat="45.91268" lon="4.73735">
        <ele>174</ele>
        <time>2018-09-01T11:25:40Z</time>
      </trkpt>
      <trkpt lat="45.91274" lon="4.73736">
        <ele>174</ele>
        <time>2018-09-01T11:25:41Z</time>
      </trkpt>
      <trkpt lat="45.91282" lon="4.73735">
        <ele>174</ele>
        <time>2018-09-01T11:25:43Z</time>
      </trkpt>
      <trkpt lat="45.91284" lon="4.73735">
        <ele>174</ele>
        <time>2018-09-01T11:25:44Z</time>
      </trkpt>
      <trkpt lat="45.91293" lon="4.73735">
        <ele>174</ele>
        <time>2018-09-01T11:25:47Z</time>
      </trkpt>
      <trkpt lat="45.91295" lon="4.73735">
        <ele>174</ele>
        <time>2018-09-01T11:25:48Z</time>
      </trkpt>
      <trkpt lat="45.91298" lon="4.73735">
        <ele>174</ele>
        <time>2018-09-01T11:25:49Z</time>
      </trkpt>
      <trkpt lat="45.91305" lon="4.73736">
        <ele>174</ele>
        <time>2018-09-01T11:25:50Z</time>
      </trkpt>
      <trkpt lat="45.91313" lon="4.73736">
        <ele>174</ele>
        <time>2018-09-01T11:25:52Z</time>
      </trkpt>
      <trkpt lat="45.91317" lon="4.73736">
        <ele>174</ele>
        <time>2018-09-01T11:25:53Z</time>
      </trkpt>
      <trkpt lat="45.91325" lon="4.73735">
        <ele>174</ele>
        <time>2018-09-01T11:25:55Z</time>
      </trkpt>
      <trkpt lat="45.9133" lon="4.73734">
        <ele>173</ele>
        <time>2018-09-01T11:25:56Z</time>
      </trkpt>
      <trkpt lat="45.91338" lon="4.73735">
        <ele>173</ele>
        <time>2018-09-01T11:25:58Z</time>
      </trkpt>
      <trkpt lat="45.91343" lon="4.73734">
        <ele>173</ele>
        <time>2018-09-01T11:25:59Z</time>
      </trkpt>
      <trkpt lat="45.91349" lon="4.73733">
        <ele>173</ele>
        <time>2018-09-01T11:26:01Z</time>
      </trkpt>
      <trkpt lat="45.91355" lon="4.73733">
        <ele>173</ele>
        <time>2018-09-01T11:26:02Z</time>
      </trkpt>
      <trkpt lat="45.9136" lon="4.73734">
        <ele>173</ele>
        <time>2018-09-01T11:26:03Z</time>
      </trkpt>
      <trkpt lat="45.91364" lon="4.73734">
        <ele>173</ele>
        <time>2018-09-01T11:26:04Z</time>
      </trkpt>
      <trkpt lat="45.91372" lon="4.73735">
        <ele>173</ele>
        <time>2018-09-01T11:26:06Z</time>
      </trkpt>
      <trkpt lat="45.91376" lon="4.73735">
        <ele>173</ele>
        <time>2018-09-01T11:26:07Z</time>
      </trkpt>
      <trkpt lat="45.91385" lon="4.73735">
        <ele>173</ele>
        <time>2018-09-01T11:26:09Z</time>
      </trkpt>
      <trkpt lat="45.91388" lon="4.73735">
        <ele>173</ele>
        <time>2018-09-01T11:26:10Z</time>
      </trkpt>
      <trkpt lat="45.91397" lon="4.73735">
        <ele>173</ele>
        <time>2018-09-01T11:26:12Z</time>
      </trkpt>
      <trkpt lat="45.91401" lon="4.73735">
        <ele>173</ele>
        <time>2018-09-01T11:26:13Z</time>
      </trkpt>
      <trkpt lat="45.91409" lon="4.73734">
        <ele>173</ele>
        <time>2018-09-01T11:26:15Z</time>
      </trkpt>
      <trkpt lat="45.91413" lon="4.73733">
        <ele>173</ele>
        <time>2018-09-01T11:26:16Z</time>
      </trkpt>
      <trkpt lat="45.91422" lon="4.73733">
        <ele>173</ele>
        <time>2018-09-01T11:26:18Z</time>
      </trkpt>
      <trkpt lat="45.91426" lon="4.73732">
        <ele>173</ele>
        <time>2018-09-01T11:26:19Z</time>
      </trkpt>
      <trkpt lat="45.91434" lon="4.73732">
        <ele>173</ele>
        <time>2018-09-01T11:26:21Z</time>
      </trkpt>
      <trkpt lat="45.91436" lon="4.73732">
        <ele>173</ele>
        <time>2018-09-01T11:26:22Z</time>
      </trkpt>
      <trkpt lat="45.91445" lon="4.73733">
        <ele>173</ele>
        <time>2018-09-01T11:26:24Z</time>
      </trkpt>
      <trkpt lat="45.91449" lon="4.73733">
        <ele>173</ele>
        <time>2018-09-01T11:26:25Z</time>
      </trkpt>
      <trkpt lat="45.91457" lon="4.73731">
        <ele>174</ele>
        <time>2018-09-01T11:26:27Z</time>
      </trkpt>
      <trkpt lat="45.91461" lon="4.7373">
        <ele>174</ele>
        <time>2018-09-01T11:26:28Z</time>
      </trkpt>
      <trkpt lat="45.91468" lon="4.73729">
        <ele>174</ele>
        <time>2018-09-01T11:26:31Z</time>
      </trkpt>
      <trkpt lat="45.91471" lon="4.7373">
        <ele>174</ele>
        <time>2018-09-01T11:26:32Z</time>
      </trkpt>
      <trkpt lat="45.91479" lon="4.7373">
        <ele>174</ele>
        <time>2018-09-01T11:26:33Z</time>
      </trkpt>
      <trkpt lat="45.91483" lon="4.7373">
        <ele>174</ele>
        <time>2018-09-01T11:26:34Z</time>
      </trkpt>
      <trkpt lat="45.9149" lon="4.7373">
        <ele>174</ele>
        <time>2018-09-01T11:26:36Z</time>
      </trkpt>
      <trkpt lat="45.91494" lon="4.73731">
        <ele>174</ele>
        <time>2018-09-01T11:26:37Z</time>
      </trkpt>
      <trkpt lat="45.91502" lon="4.7373">
        <ele>174</ele>
        <time>2018-09-01T11:26:39Z</time>
      </trkpt>
      <trkpt lat="45.91506" lon="4.7373">
        <ele>174</ele>
        <time>2018-09-01T11:26:40Z</time>
      </trkpt>
      <trkpt lat="45.9151" lon="4.7373">
        <ele>174</ele>
        <time>2018-09-01T11:26:41Z</time>
      </trkpt>
      <trkpt lat="45.91515" lon="4.7373">
        <ele>174</ele>
        <time>2018-09-01T11:26:42Z</time>
      </trkpt>
      <trkpt lat="45.91519" lon="4.73731">
        <ele>174</ele>
        <time>2018-09-01T11:26:43Z</time>
      </trkpt>
      <trkpt lat="45.91524" lon="4.73731">
        <ele>174</ele>
        <time>2018-09-01T11:26:44Z</time>
      </trkpt>
      <trkpt lat="45.91531" lon="4.73733">
        <ele>174</ele>
        <time>2018-09-01T11:26:46Z</time>
      </trkpt>
      <trkpt lat="45.91535" lon="4.73733">
        <ele>174</ele>
        <time>2018-09-01T11:26:47Z</time>
      </trkpt>
      <trkpt lat="45.91539" lon="4.73731">
        <ele>174</ele>
        <time>2018-09-01T11:26:48Z</time>
      </trkpt>
      <trkpt lat="45.91544" lon="4.73731">
        <ele>174</ele>
        <time>2018-09-01T11:26:49Z</time>
      </trkpt>
      <trkpt lat="45.91552" lon="4.7373">
        <ele>174</ele>
        <time>2018-09-01T11:26:51Z</time>
      </trkpt>
      <trkpt lat="45.91556" lon="4.73731">
        <ele>174</ele>
        <time>2018-09-01T11:26:52Z</time>
      </trkpt>
      <trkpt lat="45.91564" lon="4.73732">
        <ele>173</ele>
        <time>2018-09-01T11:26:54Z</time>
      </trkpt>
      <trkpt lat="45.91568" lon="4.73732">
        <ele>173</ele>
        <time>2018-09-01T11:26:55Z</time>
      </trkpt>
      <trkpt lat="45.91576" lon="4.73732">
        <ele>173</ele>
        <time>2018-09-01T11:26:57Z</time>
      </trkpt>
      <trkpt lat="45.91578" lon="4.73732">
        <ele>173</ele>
        <time>2018-09-01T11:26:58Z</time>
      </trkpt>
      <trkpt lat="45.91581" lon="4.73733">
        <ele>173</ele>
        <time>2018-09-01T11:26:59Z</time>
      </trkpt>
      <trkpt lat="45.91588" lon="4.73733">
        <ele>173</ele>
        <time>2018-09-01T11:27:00Z</time>
      </trkpt>
      <trkpt lat="45.91594" lon="4.73733">
        <ele>173</ele>
        <time>2018-09-01T11:27:02Z</time>
      </trkpt>
      <trkpt lat="45.91599" lon="4.73733">
        <ele>173</ele>
        <time>2018-09-01T11:27:03Z</time>
      </trkpt>
      <trkpt lat="45.91607" lon="4.73733">
        <ele>173</ele>
        <time>2018-09-01T11:27:05Z</time>
      </trkpt>
      <trkpt lat="45.91611" lon="4.73733">
        <ele>173</ele>
        <time>2018-09-01T11:27:06Z</time>
      </trkpt>
      <trkpt lat="45.91619" lon="4.73732">
        <ele>173</ele>
        <time>2018-09-01T11:27:09Z</time>
      </trkpt>
      <trkpt lat="45.91621" lon="4.73732">
        <ele>173</ele>
        <time>2018-09-01T11:27:10Z</time>
      </trkpt>
      <trkpt lat="45.91624" lon="4.73732">
        <ele>173</ele>
        <time>2018-09-01T11:27:11Z</time>
      </trkpt>
      <trkpt lat="45.91632" lon="4.73732">
        <ele>172</ele>
        <time>2018-09-01T11:27:12Z</time>
      </trkpt>
      <trkpt lat="45.91639" lon="4.73732">
        <ele>172</ele>
        <time>2018-09-01T11:27:14Z</time>
      </trkpt>
      <trkpt lat="45.91643" lon="4.73731">
        <ele>172</ele>
        <time>2018-09-01T11:27:15Z</time>
      </trkpt>
      <trkpt lat="45.9165" lon="4.7373">
        <ele>172</ele>
        <time>2018-09-01T11:27:17Z</time>
      </trkpt>
      <trkpt lat="45.91652" lon="4.7373">
        <ele>172</ele>
        <time>2018-09-01T11:27:18Z</time>
      </trkpt>
      <trkpt lat="45.91656" lon="4.7373">
        <ele>172</ele>
        <time>2018-09-01T11:27:20Z</time>
      </trkpt>
      <trkpt lat="45.91664" lon="4.7373">
        <ele>172</ele>
        <time>2018-09-01T11:27:21Z</time>
      </trkpt>
      <trkpt lat="45.91672" lon="4.73729">
        <ele>172</ele>
        <time>2018-09-01T11:27:24Z</time>
      </trkpt>
      <trkpt lat="45.91675" lon="4.73729">
        <ele>172</ele>
        <time>2018-09-01T11:27:25Z</time>
      </trkpt>
      <trkpt lat="45.91678" lon="4.73729">
        <ele>172</ele>
        <time>2018-09-01T11:27:26Z</time>
      </trkpt>
      <trkpt lat="45.91686" lon="4.73729">
        <ele>172</ele>
        <time>2018-09-01T11:27:27Z</time>
      </trkpt>
      <trkpt lat="45.91694" lon="4.7373">
        <ele>172</ele>
        <time>2018-09-01T11:27:29Z</time>
      </trkpt>
      <trkpt lat="45.91698" lon="4.7373">
        <ele>172</ele>
        <time>2018-09-01T11:27:30Z</time>
      </trkpt>
      <trkpt lat="45.91702" lon="4.7373">
        <ele>172</ele>
        <time>2018-09-01T11:27:31Z</time>
      </trkpt>
      <trkpt lat="45.91707" lon="4.7373">
        <ele>172</ele>
        <time>2018-09-01T11:27:32Z</time>
      </trkpt>
      <trkpt lat="45.91712" lon="4.7373">
        <ele>173</ele>
        <time>2018-09-01T11:27:33Z</time>
      </trkpt>
      <trkpt lat="45.91716" lon="4.73729">
        <ele>173</ele>
        <time>2018-09-01T11:27:34Z</time>
      </trkpt>
      <trkpt lat="45.91725" lon="4.73729">
        <ele>173</ele>
        <time>2018-09-01T11:27:36Z</time>
      </trkpt>
      <trkpt lat="45.91729" lon="4.73729">
        <ele>173</ele>
        <time>2018-09-01T11:27:37Z</time>
      </trkpt>
      <trkpt lat="45.91737" lon="4.73728">
        <ele>173</ele>
        <time>2018-09-01T11:27:39Z</time>
      </trkpt>
      <trkpt lat="45.91742" lon="4.73728">
        <ele>173</ele>
        <time>2018-09-01T11:27:40Z</time>
      </trkpt>
      <trkpt lat="45.9175" lon="4.73728">
        <ele>173</ele>
        <time>2018-09-01T11:27:42Z</time>
      </trkpt>
      <trkpt lat="45.91754" lon="4.73728">
        <ele>173</ele>
        <time>2018-09-01T11:27:43Z</time>
      </trkpt>
      <trkpt lat="45.91762" lon="4.73729">
        <ele>173</ele>
        <time>2018-09-01T11:27:45Z</time>
      </trkpt>
      <trkpt lat="45.91766" lon="4.73729">
        <ele>173</ele>
        <time>2018-09-01T11:27:46Z</time>
      </trkpt>
      <trkpt lat="45.91772" lon="4.73729">
        <ele>173</ele>
        <time>2018-09-01T11:27:48Z</time>
      </trkpt>
      <trkpt lat="45.91778" lon="4.73729">
        <ele>173</ele>
        <time>2018-09-01T11:27:49Z</time>
      </trkpt>
      <trkpt lat="45.91785" lon="4.7373">
        <ele>173</ele>
        <time>2018-09-01T11:27:51Z</time>
      </trkpt>
      <trkpt lat="45.9179" lon="4.73729">
        <ele>173</ele>
        <time>2018-09-01T11:27:52Z</time>
      </trkpt>
      <trkpt lat="45.91797" lon="4.7373">
        <ele>172</ele>
        <time>2018-09-01T11:27:54Z</time>
      </trkpt>
      <trkpt lat="45.91799" lon="4.73729">
        <ele>172</ele>
        <time>2018-09-01T11:27:55Z</time>
      </trkpt>
      <trkpt lat="45.91807" lon="4.7373">
        <ele>172</ele>
        <time>2018-09-01T11:27:57Z</time>
      </trkpt>
      <trkpt lat="45.91811" lon="4.7373">
        <ele>172</ele>
        <time>2018-09-01T11:27:58Z</time>
      </trkpt>
      <trkpt lat="45.91819" lon="4.73731">
        <ele>172</ele>
        <time>2018-09-01T11:28:00Z</time>
      </trkpt>
      <trkpt lat="45.91823" lon="4.73731">
        <ele>172</ele>
        <time>2018-09-01T11:28:01Z</time>
      </trkpt>
      <trkpt lat="45.91831" lon="4.73731">
        <ele>172</ele>
        <time>2018-09-01T11:28:03Z</time>
      </trkpt>
      <trkpt lat="45.91835" lon="4.73731">
        <ele>172</ele>
        <time>2018-09-01T11:28:04Z</time>
      </trkpt>
      <trkpt lat="45.91843" lon="4.73731">
        <ele>172</ele>
        <time>2018-09-01T11:28:06Z</time>
      </trkpt>
      <trkpt lat="45.91847" lon="4.73731">
        <ele>172</ele>
        <time>2018-09-01T11:28:07Z</time>
      </trkpt>
      <trkpt lat="45.91854" lon="4.73731">
        <ele>171</ele>
        <time>2018-09-01T11:28:09Z</time>
      </trkpt>
      <trkpt lat="45.91858" lon="4.73731">
        <ele>171</ele>
        <time>2018-09-01T11:28:10Z</time>
      </trkpt>
      <trkpt lat="45.91867" lon="4.7373">
        <ele>171</ele>
        <time>2018-09-01T11:28:12Z</time>
      </trkpt>
      <trkpt lat="45.91871" lon="4.7373">
        <ele>171</ele>
        <time>2018-09-01T11:28:13Z</time>
      </trkpt>
      <trkpt lat="45.91879" lon="4.73729">
        <ele>171</ele>
        <time>2018-09-01T11:28:15Z</time>
      </trkpt>
      <trkpt lat="45.91884" lon="4.73729">
        <ele>171</ele>
        <time>2018-09-01T11:28:16Z</time>
      </trkpt>
      <trkpt lat="45.91892" lon="4.73729">
        <ele>171</ele>
        <time>2018-09-01T11:28:18Z</time>
      </trkpt>
      <trkpt lat="45.91896" lon="4.73729">
        <ele>171</ele>
        <time>2018-09-01T11:28:19Z</time>
      </trkpt>
      <trkpt lat="45.91904" lon="4.73728">
        <ele>171</ele>
        <time>2018-09-01T11:28:21Z</time>
      </trkpt>
      <trkpt lat="45.91908" lon="4.73728">
        <ele>171</ele>
        <time>2018-09-01T11:28:22Z</time>
      </trkpt>
      <trkpt lat="45.91916" lon="4.73728">
        <ele>171</ele>
        <time>2018-09-01T11:28:24Z</time>
      </trkpt>
      <trkpt lat="45.91919" lon="4.73727">
        <ele>170</ele>
        <time>2018-09-01T11:28:25Z</time>
      </trkpt>
      <trkpt lat="45.91927" lon="4.73728">
        <ele>170</ele>
        <time>2018-09-01T11:28:27Z</time>
      </trkpt>
      <trkpt lat="45.91931" lon="4.73727">
        <ele>170</ele>
        <time>2018-09-01T11:28:28Z</time>
      </trkpt>
      <trkpt lat="45.91938" lon="4.73727">
        <ele>170</ele>
        <time>2018-09-01T11:28:30Z</time>
      </trkpt>
      <trkpt lat="45.91942" lon="4.73727">
        <ele>170</ele>
        <time>2018-09-01T11:28:31Z</time>
      </trkpt>
      <trkpt lat="45.9195" lon="4.73726">
        <ele>170</ele>
        <time>2018-09-01T11:28:33Z</time>
      </trkpt>
      <trkpt lat="45.91954" lon="4.73726">
        <ele>170</ele>
        <time>2018-09-01T11:28:34Z</time>
      </trkpt>
      <trkpt lat="45.91962" lon="4.73725">
        <ele>171</ele>
        <time>2018-09-01T11:28:36Z</time>
      </trkpt>
      <trkpt lat="45.91966" lon="4.73725">
        <ele>171</ele>
        <time>2018-09-01T11:28:37Z</time>
      </trkpt>
      <trkpt lat="45.91973" lon="4.73723">
        <ele>171</ele>
        <time>2018-09-01T11:28:39Z</time>
      </trkpt>
      <trkpt lat="45.91977" lon="4.73723">
        <ele>171</ele>
        <time>2018-09-01T11:28:40Z</time>
      </trkpt>
      <trkpt lat="45.91984" lon="4.73722">
        <ele>171</ele>
        <time>2018-09-01T11:28:42Z</time>
      </trkpt>
      <trkpt lat="45.91988" lon="4.73722">
        <ele>171</ele>
        <time>2018-09-01T11:28:43Z</time>
      </trkpt>
      <trkpt lat="45.91996" lon="4.73722">
        <ele>171</ele>
        <time>2018-09-01T11:28:45Z</time>
      </trkpt>
      <trkpt lat="45.92" lon="4.73722">
        <ele>171</ele>
        <time>2018-09-01T11:28:46Z</time>
      </trkpt>
      <trkpt lat="45.92008" lon="4.73722">
        <ele>171</ele>
        <time>2018-09-01T11:28:48Z</time>
      </trkpt>
      <trkpt lat="45.92011" lon="4.73722">
        <ele>171</ele>
        <time>2018-09-01T11:28:49Z</time>
      </trkpt>
      <trkpt lat="45.92019" lon="4.73722">
        <ele>171</ele>
        <time>2018-09-01T11:28:51Z</time>
      </trkpt>
      <trkpt lat="45.92023" lon="4.73722">
        <ele>171</ele>
        <time>2018-09-01T11:28:52Z</time>
      </trkpt>
      <trkpt lat="45.9203" lon="4.73722">
        <ele>171</ele>
        <time>2018-09-01T11:28:54Z</time>
      </trkpt>
      <trkpt lat="45.92034" lon="4.73723">
        <ele>171</ele>
        <time>2018-09-01T11:28:55Z</time>
      </trkpt>
      <trkpt lat="45.92041" lon="4.73723">
        <ele>171</ele>
        <time>2018-09-01T11:28:57Z</time>
      </trkpt>
      <trkpt lat="45.92045" lon="4.73723">
        <ele>171</ele>
        <time>2018-09-01T11:28:58Z</time>
      </trkpt>
      <trkpt lat="45.92053" lon="4.73722">
        <ele>171</ele>
        <time>2018-09-01T11:29:00Z</time>
      </trkpt>
      <trkpt lat="45.92057" lon="4.73722">
        <ele>171</ele>
        <time>2018-09-01T11:29:01Z</time>
      </trkpt>
      <trkpt lat="45.92064" lon="4.73721">
        <ele>171</ele>
        <time>2018-09-01T11:29:04Z</time>
      </trkpt>
      <trkpt lat="45.92066" lon="4.7372">
        <ele>171</ele>
        <time>2018-09-01T11:29:05Z</time>
      </trkpt>
      <trkpt lat="45.92075" lon="4.73719">
        <ele>171</ele>
        <time>2018-09-01T11:29:06Z</time>
      </trkpt>
      <trkpt lat="45.92083" lon="4.73717">
        <ele>171</ele>
        <time>2018-09-01T11:29:08Z</time>
      </trkpt>
      <trkpt lat="45.92087" lon="4.73717">
        <ele>171</ele>
        <time>2018-09-01T11:29:09Z</time>
      </trkpt>
      <trkpt lat="45.92095" lon="4.73716">
        <ele>171</ele>
        <time>2018-09-01T11:29:11Z</time>
      </trkpt>
      <trkpt lat="45.92099" lon="4.73715">
        <ele>171</ele>
        <time>2018-09-01T11:29:12Z</time>
      </trkpt>
      <trkpt lat="45.92107" lon="4.73713">
        <ele>171</ele>
        <time>2018-09-01T11:29:15Z</time>
      </trkpt>
      <trkpt lat="45.92109" lon="4.73712">
        <ele>171</ele>
        <time>2018-09-01T11:29:16Z</time>
      </trkpt>
      <trkpt lat="45.92118" lon="4.7371">
        <ele>171</ele>
        <time>2018-09-01T11:29:18Z</time>
      </trkpt>
      <trkpt lat="45.9212" lon="4.7371">
        <ele>171</ele>
        <time>2018-09-01T11:29:19Z</time>
      </trkpt>
      <trkpt lat="45.92128" lon="4.73708">
        <ele>171</ele>
        <time>2018-09-01T11:29:21Z</time>
      </trkpt>
      <trkpt lat="45.9213" lon="4.73707">
        <ele>171</ele>
        <time>2018-09-01T11:29:22Z</time>
      </trkpt>
      <trkpt lat="45.92137" lon="4.73706">
        <ele>171</ele>
        <time>2018-09-01T11:29:25Z</time>
      </trkpt>
      <trkpt lat="45.9214" lon="4.73705">
        <ele>171</ele>
        <time>2018-09-01T11:29:26Z</time>
      </trkpt>
      <trkpt lat="45.92143" lon="4.73704">
        <ele>171</ele>
        <time>2018-09-01T11:29:27Z</time>
      </trkpt>
      <trkpt lat="45.92152" lon="4.73702">
        <ele>171</ele>
        <time>2018-09-01T11:29:28Z</time>
      </trkpt>
      <trkpt lat="45.9216" lon="4.73698">
        <ele>171</ele>
        <time>2018-09-01T11:29:30Z</time>
      </trkpt>
      <trkpt lat="45.92164" lon="4.73696">
        <ele>171</ele>
        <time>2018-09-01T11:29:31Z</time>
      </trkpt>
      <trkpt lat="45.92172" lon="4.73693">
        <ele>171</ele>
        <time>2018-09-01T11:29:33Z</time>
      </trkpt>
      <trkpt lat="45.92175" lon="4.73691">
        <ele>171</ele>
        <time>2018-09-01T11:29:34Z</time>
      </trkpt>
      <trkpt lat="45.92182" lon="4.73689">
        <ele>171</ele>
        <time>2018-09-01T11:29:37Z</time>
      </trkpt>
      <trkpt lat="45.92184" lon="4.73688">
        <ele>171</ele>
        <time>2018-09-01T11:29:38Z</time>
      </trkpt>
      <trkpt lat="45.92189" lon="4.73685">
        <ele>171</ele>
        <time>2018-09-01T11:29:40Z</time>
      </trkpt>
      <trkpt lat="45.92198" lon="4.7368">
        <ele>171</ele>
        <time>2018-09-01T11:29:41Z</time>
      </trkpt>
      <trkpt lat="45.92204" lon="4.73675">
        <ele>171</ele>
        <time>2018-09-01T11:29:43Z</time>
      </trkpt>
      <trkpt lat="45.92208" lon="4.73673">
        <ele>171</ele>
        <time>2018-09-01T11:29:44Z</time>
      </trkpt>
      <trkpt lat="45.92215" lon="4.73669">
        <ele>171</ele>
        <time>2018-09-01T11:29:46Z</time>
      </trkpt>
      <trkpt lat="45.92219" lon="4.73667">
        <ele>171</ele>
        <time>2018-09-01T11:29:47Z</time>
      </trkpt>
      <trkpt lat="45.92223" lon="4.73666">
        <ele>171</ele>
        <time>2018-09-01T11:29:49Z</time>
      </trkpt>
      <trkpt lat="45.92229" lon="4.73664">
        <ele>171</ele>
        <time>2018-09-01T11:29:50Z</time>
      </trkpt>
      <trkpt lat="45.92236" lon="4.7366">
        <ele>171</ele>
        <time>2018-09-01T11:29:53Z</time>
      </trkpt>
      <trkpt lat="45.92238" lon="4.73658">
        <ele>171</ele>
        <time>2018-09-01T11:29:54Z</time>
      </trkpt>
      <trkpt lat="45.92241" lon="4.73656">
        <ele>171</ele>
        <time>2018-09-01T11:29:55Z</time>
      </trkpt>
      <trkpt lat="45.92248" lon="4.73652">
        <ele>171</ele>
        <time>2018-09-01T11:29:56Z</time>
      </trkpt>
      <trkpt lat="45.92255" lon="4.73646">
        <ele>171</ele>
        <time>2018-09-01T11:29:58Z</time>
      </trkpt>
      <trkpt lat="45.92259" lon="4.73644">
        <ele>171</ele>
        <time>2018-09-01T11:29:59Z</time>
      </trkpt>
      <trkpt lat="45.92265" lon="4.7364">
        <ele>172</ele>
        <time>2018-09-01T11:30:02Z</time>
      </trkpt>
      <trkpt lat="45.92268" lon="4.73638">
        <ele>172</ele>
        <time>2018-09-01T11:30:03Z</time>
      </trkpt>
      <trkpt lat="45.92276" lon="4.73634">
        <ele>172</ele>
        <time>2018-09-01T11:30:06Z</time>
      </trkpt>
      <trkpt lat="45.92284" lon="4.7363">
        <ele>172</ele>
        <time>2018-09-01T11:30:07Z</time>
      </trkpt>
      <trkpt lat="45.92292" lon="4.73626">
        <ele>172</ele>
        <time>2018-09-01T11:30:09Z</time>
      </trkpt>
      <trkpt lat="45.92296" lon="4.73624">
        <ele>172</ele>
        <time>2018-09-01T11:30:10Z</time>
      </trkpt>
      <trkpt lat="45.92302" lon="4.73621">
        <ele>172</ele>
        <time>2018-09-01T11:30:12Z</time>
      </trkpt>
      <trkpt lat="45.92306" lon="4.73619">
        <ele>172</ele>
        <time>2018-09-01T11:30:13Z</time>
      </trkpt>
      <trkpt lat="45.92313" lon="4.73614">
        <ele>172</ele>
        <time>2018-09-01T11:30:15Z</time>
      </trkpt>
      <trkpt lat="45.92317" lon="4.73612">
        <ele>172</ele>
        <time>2018-09-01T11:30:16Z</time>
      </trkpt>
      <trkpt lat="45.92325" lon="4.7361">
        <ele>172</ele>
        <time>2018-09-01T11:30:18Z</time>
      </trkpt>
      <trkpt lat="45.92329" lon="4.73609">
        <ele>172</ele>
        <time>2018-09-01T11:30:19Z</time>
      </trkpt>
      <trkpt lat="45.92337" lon="4.73605">
        <ele>173</ele>
        <time>2018-09-01T11:30:21Z</time>
      </trkpt>
      <trkpt lat="45.92341" lon="4.73603">
        <ele>173</ele>
        <time>2018-09-01T11:30:22Z</time>
      </trkpt>
      <trkpt lat="45.92349" lon="4.736">
        <ele>173</ele>
        <time>2018-09-01T11:30:24Z</time>
      </trkpt>
      <trkpt lat="45.92352" lon="4.73598">
        <ele>173</ele>
        <time>2018-09-01T11:30:25Z</time>
      </trkpt>
      <trkpt lat="45.92357" lon="4.73596">
        <ele>173</ele>
        <time>2018-09-01T11:30:26Z</time>
      </trkpt>
      <trkpt lat="45.92362" lon="4.73594">
        <ele>173</ele>
        <time>2018-09-01T11:30:27Z</time>
      </trkpt>
      <trkpt lat="45.9237" lon="4.7359">
        <ele>173</ele>
        <time>2018-09-01T11:30:29Z</time>
      </trkpt>
      <trkpt lat="45.92373" lon="4.73587">
        <ele>173</ele>
        <time>2018-09-01T11:30:30Z</time>
      </trkpt>
      <trkpt lat="45.92381" lon="4.73584">
        <ele>173</ele>
        <time>2018-09-01T11:30:32Z</time>
      </trkpt>
      <trkpt lat="45.92383" lon="4.73583">
        <ele>173</ele>
        <time>2018-09-01T11:30:33Z</time>
      </trkpt>
      <trkpt lat="45.92391" lon="4.7358">
        <ele>173</ele>
        <time>2018-09-01T11:30:36Z</time>
      </trkpt>
      <trkpt lat="45.92397" lon="4.73578">
        <ele>173</ele>
        <time>2018-09-01T11:30:37Z</time>
      </trkpt>
      <trkpt lat="45.92404" lon="4.73574">
        <ele>173</ele>
        <time>2018-09-01T11:30:39Z</time>
      </trkpt>
      <trkpt lat="45.92409" lon="4.73571">
        <ele>173</ele>
        <time>2018-09-01T11:30:40Z</time>
      </trkpt>
      <trkpt lat="45.92417" lon="4.73566">
        <ele>174</ele>
        <time>2018-09-01T11:30:42Z</time>
      </trkpt>
      <trkpt lat="45.92422" lon="4.73564">
        <ele>174</ele>
        <time>2018-09-01T11:30:43Z</time>
      </trkpt>
      <trkpt lat="45.92429" lon="4.7356">
        <ele>174</ele>
        <time>2018-09-01T11:30:45Z</time>
      </trkpt>
      <trkpt lat="45.92432" lon="4.73558">
        <ele>174</ele>
        <time>2018-09-01T11:30:46Z</time>
      </trkpt>
      <trkpt lat="45.92441" lon="4.73554">
        <ele>174</ele>
        <time>2018-09-01T11:30:49Z</time>
      </trkpt>
      <trkpt lat="45.92443" lon="4.73553">
        <ele>174</ele>
        <time>2018-09-01T11:30:50Z</time>
      </trkpt>
      <trkpt lat="45.92449" lon="4.73549">
        <ele>174</ele>
        <time>2018-09-01T11:30:53Z</time>
      </trkpt>
      <trkpt lat="45.92452" lon="4.73548">
        <ele>174</ele>
        <time>2018-09-01T11:30:54Z</time>
      </trkpt>
      <trkpt lat="45.9246" lon="4.73547">
        <ele>173</ele>
        <time>2018-09-01T11:30:57Z</time>
      </trkpt>
      <trkpt lat="45.92468" lon="4.73552">
        <ele>173</ele>
        <time>2018-09-01T11:30:58Z</time>
      </trkpt>
      <trkpt lat="45.92468" lon="4.73564">
        <ele>173</ele>
        <time>2018-09-01T11:31:00Z</time>
      </trkpt>
      <trkpt lat="45.92468" lon="4.7357">
        <ele>173</ele>
        <time>2018-09-01T11:31:01Z</time>
      </trkpt>
      <trkpt lat="45.92467" lon="4.73577">
        <ele>173</ele>
        <time>2018-09-01T11:31:02Z</time>
      </trkpt>
      <trkpt lat="45.92465" lon="4.73586">
        <ele>174</ele>
        <time>2018-09-01T11:31:03Z</time>
      </trkpt>
      <trkpt lat="45.92466" lon="4.73598">
        <ele>174</ele>
        <time>2018-09-01T11:31:05Z</time>
      </trkpt>
      <trkpt lat="45.92467" lon="4.73605">
        <ele>174</ele>
        <time>2018-09-01T11:31:06Z</time>
      </trkpt>
      <trkpt lat="45.92467" lon="4.73617">
        <ele>174</ele>
        <time>2018-09-01T11:31:08Z</time>
      </trkpt>
      <trkpt lat="45.92466" lon="4.73624">
        <ele>174</ele>
        <time>2018-09-01T11:31:09Z</time>
      </trkpt>
      <trkpt lat="45.92467" lon="4.73636">
        <ele>174</ele>
        <time>2018-09-01T11:31:11Z</time>
      </trkpt>
      <trkpt lat="45.92467" lon="4.73642">
        <ele>174</ele>
        <time>2018-09-01T11:31:12Z</time>
      </trkpt>
      <trkpt lat="45.92467" lon="4.73648">
        <ele>174</ele>
        <time>2018-09-01T11:31:13Z</time>
      </trkpt>
      <trkpt lat="45.92469" lon="4.73656">
        <ele>174</ele>
        <time>2018-09-01T11:31:14Z</time>
      </trkpt>
      <trkpt lat="45.92468" lon="4.73666">
        <ele>174</ele>
        <time>2018-09-01T11:31:17Z</time>
      </trkpt>
      <trkpt lat="45.92467" lon="4.73677">
        <ele>174</ele>
        <time>2018-09-01T11:31:18Z</time>
      </trkpt>
      <trkpt lat="45.92467" lon="4.73688">
        <ele>174</ele>
        <time>2018-09-01T11:31:20Z</time>
      </trkpt>
      <trkpt lat="45.92467" lon="4.7369">
        <ele>174</ele>
        <time>2018-09-01T11:31:21Z</time>
      </trkpt>
      <trkpt lat="45.92465" lon="4.73701">
        <ele>174</ele>
        <time>2018-09-01T11:31:25Z</time>
      </trkpt>
      <trkpt lat="45.92465" lon="4.73703">
        <ele>174</ele>
        <time>2018-09-01T11:31:26Z</time>
      </trkpt>
      <trkpt lat="45.92461" lon="4.73708">
        <ele>174</ele>
        <time>2018-09-01T11:32:04.353Z</time>
      </trkpt>
    </trkseg>
  </trk>
</gpx>